<?xml version="1.0" encoding="UTF-8" standalone="no" ?>
<gpx xmlns="http://www.topografix.com/GPX/1/1" xmlns:xsi="http://www.w3.org/2001/XMLSchema-instance" xsi:schemaLocation="http://www.topografix.com/GPX/1/1 http://www.topografix.com/GPX/1/1/gpx.xsd" version="1.1" creator="VisuGPX - https://www.visugpx.com">
  <metadata>
    <name>Prayssac sport Event</name>
    <desc><![CDATA[Trace du 37km de la 1ere édition de Prayssac Sport Event. Jolie trace passant par quelques uns des plus beaux endroits du secteur.]]></desc>
  </metadata>
  <trk>
    <name><![CDATA[prayssac sport event]]></name>
    <extensions>
      <line xmlns="http://www.topografix.com/GPX/gpx_style/0/2">
        <color>0000FF</color>
        <opacity>1</opacity>
        <width>4</width>
      </line>
    </extensions>
    <trkseg>
      <trkpt lat="44.50699" lon="1.18985">
        <ele>109</ele>
        <time>2026-07-12T05:24:09Z</time>
      </trkpt>
      <trkpt lat="44.507" lon="1.18989">
        <ele>109</ele>
        <time>2026-07-12T05:24:10Z</time>
      </trkpt>
      <trkpt lat="44.50703" lon="1.18999">
        <ele>109</ele>
        <time>2026-07-12T05:24:13Z</time>
      </trkpt>
      <trkpt lat="44.50704" lon="1.19003">
        <ele>109</ele>
        <time>2026-07-12T05:24:14Z</time>
      </trkpt>
      <trkpt lat="44.50706" lon="1.19009">
        <ele>109</ele>
        <time>2026-07-12T05:24:16Z</time>
      </trkpt>
      <trkpt lat="44.50708" lon="1.19014">
        <ele>109</ele>
        <time>2026-07-12T05:24:18Z</time>
      </trkpt>
      <trkpt lat="44.50709" lon="1.19015">
        <ele>109</ele>
        <time>2026-07-12T05:24:19Z</time>
      </trkpt>
      <trkpt lat="44.50709" lon="1.19016">
        <ele>109</ele>
        <time>2026-07-12T05:24:20Z</time>
      </trkpt>
      <trkpt lat="44.5071" lon="1.19017">
        <ele>109</ele>
        <time>2026-07-12T05:24:21Z</time>
      </trkpt>
      <trkpt lat="44.50713" lon="1.19019">
        <ele>109</ele>
        <time>2026-07-12T05:24:23Z</time>
      </trkpt>
      <trkpt lat="44.50716" lon="1.19021">
        <ele>109</ele>
        <time>2026-07-12T05:24:24Z</time>
      </trkpt>
      <trkpt lat="44.50719" lon="1.19022">
        <ele>109</ele>
        <time>2026-07-12T05:24:25Z</time>
      </trkpt>
      <trkpt lat="44.50721" lon="1.19022">
        <ele>109</ele>
        <time>2026-07-12T05:24:26Z</time>
      </trkpt>
      <trkpt lat="44.50724" lon="1.19023">
        <ele>109</ele>
        <time>2026-07-12T05:24:27Z</time>
      </trkpt>
      <trkpt lat="44.50726" lon="1.19022">
        <ele>109</ele>
        <time>2026-07-12T05:24:28Z</time>
      </trkpt>
      <trkpt lat="44.50728" lon="1.19022">
        <ele>109</ele>
        <time>2026-07-12T05:24:29Z</time>
      </trkpt>
      <trkpt lat="44.5073" lon="1.19021">
        <ele>109</ele>
        <time>2026-07-12T05:24:30Z</time>
      </trkpt>
      <trkpt lat="44.50732" lon="1.19021">
        <ele>109</ele>
        <time>2026-07-12T05:24:31Z</time>
      </trkpt>
      <trkpt lat="44.50733" lon="1.1902">
        <ele>109</ele>
        <time>2026-07-12T05:24:32Z</time>
      </trkpt>
      <trkpt lat="44.50735" lon="1.19019">
        <ele>109</ele>
        <time>2026-07-12T05:24:33Z</time>
      </trkpt>
      <trkpt lat="44.50736" lon="1.19019">
        <ele>109</ele>
        <time>2026-07-12T05:24:34Z</time>
      </trkpt>
      <trkpt lat="44.50745" lon="1.19013">
        <ele>109</ele>
        <time>2026-07-12T05:24:38Z</time>
      </trkpt>
      <trkpt lat="44.50747" lon="1.19011">
        <ele>109</ele>
        <time>2026-07-12T05:24:39Z</time>
      </trkpt>
      <trkpt lat="44.50757" lon="1.19005">
        <ele>109.2</ele>
        <time>2026-07-12T05:24:43Z</time>
      </trkpt>
      <trkpt lat="44.50774" lon="1.18993">
        <ele>109.6</ele>
        <time>2026-07-12T05:24:50Z</time>
      </trkpt>
      <trkpt lat="44.50776" lon="1.18993">
        <ele>109.7</ele>
        <time>2026-07-12T05:24:51Z</time>
      </trkpt>
      <trkpt lat="44.50778" lon="1.18993">
        <ele>109.8</ele>
        <time>2026-07-12T05:24:52Z</time>
      </trkpt>
      <trkpt lat="44.50781" lon="1.18999">
        <ele>109.8</ele>
        <time>2026-07-12T05:24:54Z</time>
      </trkpt>
      <trkpt lat="44.50784" lon="1.19006">
        <ele>109.7</ele>
        <time>2026-07-12T05:24:56Z</time>
      </trkpt>
      <trkpt lat="44.50785" lon="1.19009">
        <ele>109.6</ele>
        <time>2026-07-12T05:24:57Z</time>
      </trkpt>
      <trkpt lat="44.50793" lon="1.19032">
        <ele>109.5</ele>
        <time>2026-07-12T05:25:03Z</time>
      </trkpt>
      <trkpt lat="44.50801" lon="1.19051">
        <ele>109.8</ele>
        <time>2026-07-12T05:25:09Z</time>
      </trkpt>
      <trkpt lat="44.50801" lon="1.19054">
        <ele>109.9</ele>
        <time>2026-07-12T05:25:10Z</time>
      </trkpt>
      <trkpt lat="44.50802" lon="1.19058">
        <ele>109.9</ele>
        <time>2026-07-12T05:25:11Z</time>
      </trkpt>
      <trkpt lat="44.50804" lon="1.19063">
        <ele>110</ele>
        <time>2026-07-12T05:25:12Z</time>
      </trkpt>
      <trkpt lat="44.50809" lon="1.1908">
        <ele>110</ele>
        <time>2026-07-12T05:25:16Z</time>
      </trkpt>
      <trkpt lat="44.50817" lon="1.19106">
        <ele>110.3</ele>
        <time>2026-07-12T05:25:22Z</time>
      </trkpt>
      <trkpt lat="44.50819" lon="1.19114">
        <ele>110.5</ele>
        <time>2026-07-12T05:25:24Z</time>
      </trkpt>
      <trkpt lat="44.50832" lon="1.19154">
        <ele>111</ele>
        <time>2026-07-12T05:25:33Z</time>
      </trkpt>
      <trkpt lat="44.50839" lon="1.19177">
        <ele>111.5</ele>
        <time>2026-07-12T05:25:38Z</time>
      </trkpt>
      <trkpt lat="44.50846" lon="1.19201">
        <ele>112.1</ele>
        <time>2026-07-12T05:25:43Z</time>
      </trkpt>
      <trkpt lat="44.50854" lon="1.19238">
        <ele>112.9</ele>
        <time>2026-07-12T05:25:50Z</time>
      </trkpt>
      <trkpt lat="44.50857" lon="1.19246">
        <ele>113</ele>
        <time>2026-07-12T05:25:52Z</time>
      </trkpt>
      <trkpt lat="44.50858" lon="1.19249">
        <ele>113</ele>
        <time>2026-07-12T05:25:53Z</time>
      </trkpt>
      <trkpt lat="44.50858" lon="1.19251">
        <ele>113</ele>
        <time>2026-07-12T05:25:54Z</time>
      </trkpt>
      <trkpt lat="44.50858" lon="1.19254">
        <ele>113.1</ele>
        <time>2026-07-12T05:25:55Z</time>
      </trkpt>
      <trkpt lat="44.50862" lon="1.19271">
        <ele>113.8</ele>
        <time>2026-07-12T05:26:15Z</time>
      </trkpt>
      <trkpt lat="44.50865" lon="1.19285">
        <ele>114</ele>
        <time>2026-07-12T05:26:21Z</time>
      </trkpt>
      <trkpt lat="44.50869" lon="1.19309">
        <ele>114.3</ele>
        <time>2026-07-12T05:26:28Z</time>
      </trkpt>
      <trkpt lat="44.5087" lon="1.19316">
        <ele>114.3</ele>
        <time>2026-07-12T05:26:30Z</time>
      </trkpt>
      <trkpt lat="44.50876" lon="1.19337">
        <ele>114.6</ele>
        <time>2026-07-12T05:26:35Z</time>
      </trkpt>
      <trkpt lat="44.50879" lon="1.19355">
        <ele>114.9</ele>
        <time>2026-07-12T05:26:39Z</time>
      </trkpt>
      <trkpt lat="44.50881" lon="1.19373">
        <ele>115.3</ele>
        <time>2026-07-12T05:26:43Z</time>
      </trkpt>
      <trkpt lat="44.50884" lon="1.19394">
        <ele>115.8</ele>
        <time>2026-07-12T05:26:48Z</time>
      </trkpt>
      <trkpt lat="44.50884" lon="1.19398">
        <ele>115.9</ele>
        <time>2026-07-12T05:26:49Z</time>
      </trkpt>
      <trkpt lat="44.50885" lon="1.19401">
        <ele>115.9</ele>
        <time>2026-07-12T05:26:50Z</time>
      </trkpt>
      <trkpt lat="44.50886" lon="1.19404">
        <ele>115.9</ele>
        <time>2026-07-12T05:26:51Z</time>
      </trkpt>
      <trkpt lat="44.50892" lon="1.1943">
        <ele>116.5</ele>
        <time>2026-07-12T05:26:57Z</time>
      </trkpt>
      <trkpt lat="44.50899" lon="1.1946">
        <ele>117</ele>
        <time>2026-07-12T05:27:04Z</time>
      </trkpt>
      <trkpt lat="44.50901" lon="1.19469">
        <ele>117</ele>
        <time>2026-07-12T05:27:06Z</time>
      </trkpt>
      <trkpt lat="44.50916" lon="1.19494">
        <ele>117.8</ele>
        <time>2026-07-12T05:27:13Z</time>
      </trkpt>
      <trkpt lat="44.50921" lon="1.195">
        <ele>118</ele>
        <time>2026-07-12T05:27:15Z</time>
      </trkpt>
      <trkpt lat="44.50939" lon="1.19517">
        <ele>118.5</ele>
        <time>2026-07-12T05:27:21Z</time>
      </trkpt>
      <trkpt lat="44.50954" lon="1.19531">
        <ele>119</ele>
        <time>2026-07-12T05:27:26Z</time>
      </trkpt>
      <trkpt lat="44.50962" lon="1.19538">
        <ele>119.2</ele>
        <time>2026-07-12T05:27:29Z</time>
      </trkpt>
      <trkpt lat="44.50965" lon="1.19541">
        <ele>119.3</ele>
        <time>2026-07-12T05:27:30Z</time>
      </trkpt>
      <trkpt lat="44.50968" lon="1.19543">
        <ele>119.5</ele>
        <time>2026-07-12T05:27:31Z</time>
      </trkpt>
      <trkpt lat="44.50971" lon="1.19546">
        <ele>119.6</ele>
        <time>2026-07-12T05:27:32Z</time>
      </trkpt>
      <trkpt lat="44.50987" lon="1.19561">
        <ele>120.1</ele>
        <time>2026-07-12T05:27:38Z</time>
      </trkpt>
      <trkpt lat="44.51007" lon="1.19578">
        <ele>120.9</ele>
        <time>2026-07-12T05:27:45Z</time>
      </trkpt>
      <trkpt lat="44.51021" lon="1.19591">
        <ele>121.3</ele>
        <time>2026-07-12T05:27:50Z</time>
      </trkpt>
      <trkpt lat="44.51035" lon="1.19602">
        <ele>121.8</ele>
        <time>2026-07-12T05:27:55Z</time>
      </trkpt>
      <trkpt lat="44.51038" lon="1.19605">
        <ele>121.8</ele>
        <time>2026-07-12T05:27:56Z</time>
      </trkpt>
      <trkpt lat="44.51044" lon="1.1961">
        <ele>122</ele>
        <time>2026-07-12T05:27:58Z</time>
      </trkpt>
      <trkpt lat="44.51053" lon="1.19616">
        <ele>122.2</ele>
        <time>2026-07-12T05:28:01Z</time>
      </trkpt>
      <trkpt lat="44.51055" lon="1.19618">
        <ele>122.2</ele>
        <time>2026-07-12T05:28:02Z</time>
      </trkpt>
      <trkpt lat="44.51061" lon="1.19623">
        <ele>122.5</ele>
        <time>2026-07-12T05:28:04Z</time>
      </trkpt>
      <trkpt lat="44.51084" lon="1.19642">
        <ele>123.1</ele>
        <time>2026-07-12T05:28:12Z</time>
      </trkpt>
      <trkpt lat="44.51112" lon="1.19669">
        <ele>124.1</ele>
        <time>2026-07-12T05:28:22Z</time>
      </trkpt>
      <trkpt lat="44.51114" lon="1.19671">
        <ele>124.2</ele>
        <time>2026-07-12T05:28:23Z</time>
      </trkpt>
      <trkpt lat="44.5112" lon="1.19677">
        <ele>124.6</ele>
        <time>2026-07-12T05:28:25Z</time>
      </trkpt>
      <trkpt lat="44.51129" lon="1.1969">
        <ele>124.9</ele>
        <time>2026-07-12T05:28:29Z</time>
      </trkpt>
      <trkpt lat="44.5114" lon="1.1971">
        <ele>125.6</ele>
        <time>2026-07-12T05:28:34Z</time>
      </trkpt>
      <trkpt lat="44.51145" lon="1.19721">
        <ele>126</ele>
        <time>2026-07-12T05:28:37Z</time>
      </trkpt>
      <trkpt lat="44.51146" lon="1.19724">
        <ele>126.1</ele>
        <time>2026-07-12T05:28:38Z</time>
      </trkpt>
      <trkpt lat="44.51148" lon="1.19728">
        <ele>126.2</ele>
        <time>2026-07-12T05:28:39Z</time>
      </trkpt>
      <trkpt lat="44.51151" lon="1.19737">
        <ele>126.5</ele>
        <time>2026-07-12T05:28:41Z</time>
      </trkpt>
      <trkpt lat="44.51153" lon="1.19741">
        <ele>126.7</ele>
        <time>2026-07-12T05:28:42Z</time>
      </trkpt>
      <trkpt lat="44.51154" lon="1.19744">
        <ele>126.8</ele>
        <time>2026-07-12T05:28:43Z</time>
      </trkpt>
      <trkpt lat="44.51157" lon="1.19753">
        <ele>127</ele>
        <time>2026-07-12T05:28:45Z</time>
      </trkpt>
      <trkpt lat="44.5116" lon="1.19761">
        <ele>127.1</ele>
        <time>2026-07-12T05:28:47Z</time>
      </trkpt>
      <trkpt lat="44.51169" lon="1.1978">
        <ele>127.1</ele>
        <time>2026-07-12T05:28:52Z</time>
      </trkpt>
      <trkpt lat="44.51171" lon="1.19785">
        <ele>127.3</ele>
        <time>2026-07-12T05:28:53Z</time>
      </trkpt>
      <trkpt lat="44.51172" lon="1.19789">
        <ele>127.4</ele>
        <time>2026-07-12T05:28:54Z</time>
      </trkpt>
      <trkpt lat="44.51174" lon="1.19792">
        <ele>127.5</ele>
        <time>2026-07-12T05:28:55Z</time>
      </trkpt>
      <trkpt lat="44.51176" lon="1.19797">
        <ele>127.7</ele>
        <time>2026-07-12T05:28:56Z</time>
      </trkpt>
      <trkpt lat="44.51178" lon="1.19801">
        <ele>127.8</ele>
        <time>2026-07-12T05:28:57Z</time>
      </trkpt>
      <trkpt lat="44.51179" lon="1.19804">
        <ele>127.9</ele>
        <time>2026-07-12T05:28:58Z</time>
      </trkpt>
      <trkpt lat="44.51181" lon="1.19808">
        <ele>128.1</ele>
        <time>2026-07-12T05:28:59Z</time>
      </trkpt>
      <trkpt lat="44.51183" lon="1.1981">
        <ele>128.2</ele>
        <time>2026-07-12T05:29:00Z</time>
      </trkpt>
      <trkpt lat="44.51185" lon="1.19814">
        <ele>128.4</ele>
        <time>2026-07-12T05:29:01Z</time>
      </trkpt>
      <trkpt lat="44.51187" lon="1.19818">
        <ele>128.6</ele>
        <time>2026-07-12T05:29:02Z</time>
      </trkpt>
      <trkpt lat="44.51189" lon="1.19822">
        <ele>128.7</ele>
        <time>2026-07-12T05:29:03Z</time>
      </trkpt>
      <trkpt lat="44.51191" lon="1.19826">
        <ele>128.8</ele>
        <time>2026-07-12T05:29:04Z</time>
      </trkpt>
      <trkpt lat="44.51195" lon="1.19833">
        <ele>129</ele>
        <time>2026-07-12T05:29:06Z</time>
      </trkpt>
      <trkpt lat="44.51197" lon="1.19836">
        <ele>129.1</ele>
        <time>2026-07-12T05:29:07Z</time>
      </trkpt>
      <trkpt lat="44.51211" lon="1.1985">
        <ele>129.5</ele>
        <time>2026-07-12T05:29:12Z</time>
      </trkpt>
      <trkpt lat="44.51228" lon="1.19872">
        <ele>129.5</ele>
        <time>2026-07-12T05:29:19Z</time>
      </trkpt>
      <trkpt lat="44.51232" lon="1.19887">
        <ele>130.2</ele>
        <time>2026-07-12T05:29:22Z</time>
      </trkpt>
      <trkpt lat="44.51234" lon="1.19899">
        <ele>130.6</ele>
        <time>2026-07-12T05:29:24Z</time>
      </trkpt>
      <trkpt lat="44.51241" lon="1.19929">
        <ele>130.6</ele>
        <time>2026-07-12T05:29:30Z</time>
      </trkpt>
      <trkpt lat="44.51251" lon="1.19943">
        <ele>130</ele>
        <time>2026-07-12T05:29:34Z</time>
      </trkpt>
      <trkpt lat="44.51255" lon="1.19946">
        <ele>130.4</ele>
        <time>2026-07-12T05:29:35Z</time>
      </trkpt>
      <trkpt lat="44.51258" lon="1.19948">
        <ele>130.7</ele>
        <time>2026-07-12T05:29:36Z</time>
      </trkpt>
      <trkpt lat="44.51271" lon="1.19952">
        <ele>131.8</ele>
        <time>2026-07-12T05:29:40Z</time>
      </trkpt>
      <trkpt lat="44.51278" lon="1.19954">
        <ele>132.4</ele>
        <time>2026-07-12T05:29:42Z</time>
      </trkpt>
      <trkpt lat="44.5128" lon="1.19955">
        <ele>132.7</ele>
        <time>2026-07-12T05:29:43Z</time>
      </trkpt>
      <trkpt lat="44.51282" lon="1.19958">
        <ele>133.1</ele>
        <time>2026-07-12T05:29:44Z</time>
      </trkpt>
      <trkpt lat="44.51283" lon="1.19962">
        <ele>133.5</ele>
        <time>2026-07-12T05:29:45Z</time>
      </trkpt>
      <trkpt lat="44.51283" lon="1.19966">
        <ele>133.7</ele>
        <time>2026-07-12T05:29:46Z</time>
      </trkpt>
      <trkpt lat="44.51283" lon="1.1997">
        <ele>133.8</ele>
        <time>2026-07-12T05:29:47Z</time>
      </trkpt>
      <trkpt lat="44.51282" lon="1.19974">
        <ele>133.8</ele>
        <time>2026-07-12T05:29:48Z</time>
      </trkpt>
      <trkpt lat="44.5128" lon="1.19977">
        <ele>133.8</ele>
        <time>2026-07-12T05:29:49Z</time>
      </trkpt>
      <trkpt lat="44.51279" lon="1.19981">
        <ele>133.8</ele>
        <time>2026-07-12T05:29:50Z</time>
      </trkpt>
      <trkpt lat="44.51277" lon="1.19985">
        <ele>133.9</ele>
        <time>2026-07-12T05:29:51Z</time>
      </trkpt>
      <trkpt lat="44.51276" lon="1.19987">
        <ele>133.9</ele>
        <time>2026-07-12T05:29:52Z</time>
      </trkpt>
      <trkpt lat="44.51269" lon="1.20002">
        <ele>133.9</ele>
        <time>2026-07-12T05:29:56Z</time>
      </trkpt>
      <trkpt lat="44.51267" lon="1.20005">
        <ele>133.9</ele>
        <time>2026-07-12T05:29:57Z</time>
      </trkpt>
      <trkpt lat="44.51265" lon="1.20008">
        <ele>133.8</ele>
        <time>2026-07-12T05:29:58Z</time>
      </trkpt>
      <trkpt lat="44.51263" lon="1.20012">
        <ele>133.7</ele>
        <time>2026-07-12T05:29:59Z</time>
      </trkpt>
      <trkpt lat="44.51261" lon="1.20015">
        <ele>133.7</ele>
        <time>2026-07-12T05:30:00Z</time>
      </trkpt>
      <trkpt lat="44.51259" lon="1.20018">
        <ele>133.6</ele>
        <time>2026-07-12T05:30:01Z</time>
      </trkpt>
      <trkpt lat="44.51257" lon="1.20022">
        <ele>133.6</ele>
        <time>2026-07-12T05:30:02Z</time>
      </trkpt>
      <trkpt lat="44.51254" lon="1.20026">
        <ele>133.5</ele>
        <time>2026-07-12T05:30:03Z</time>
      </trkpt>
      <trkpt lat="44.51252" lon="1.20029">
        <ele>133.5</ele>
        <time>2026-07-12T05:30:04Z</time>
      </trkpt>
      <trkpt lat="44.5125" lon="1.20033">
        <ele>133.8</ele>
        <time>2026-07-12T05:30:05Z</time>
      </trkpt>
      <trkpt lat="44.51247" lon="1.20037">
        <ele>134.2</ele>
        <time>2026-07-12T05:30:06Z</time>
      </trkpt>
      <trkpt lat="44.51244" lon="1.20042">
        <ele>134.6</ele>
        <time>2026-07-12T05:30:07Z</time>
      </trkpt>
      <trkpt lat="44.51242" lon="1.20047">
        <ele>134.9</ele>
        <time>2026-07-12T05:30:08Z</time>
      </trkpt>
      <trkpt lat="44.5124" lon="1.2005">
        <ele>135</ele>
        <time>2026-07-12T05:30:09Z</time>
      </trkpt>
      <trkpt lat="44.51238" lon="1.20054">
        <ele>135</ele>
        <time>2026-07-12T05:30:10Z</time>
      </trkpt>
      <trkpt lat="44.51235" lon="1.20057">
        <ele>135</ele>
        <time>2026-07-12T05:30:11Z</time>
      </trkpt>
      <trkpt lat="44.51233" lon="1.20061">
        <ele>135.2</ele>
        <time>2026-07-12T05:30:12Z</time>
      </trkpt>
      <trkpt lat="44.51231" lon="1.20065">
        <ele>135.3</ele>
        <time>2026-07-12T05:30:13Z</time>
      </trkpt>
      <trkpt lat="44.51229" lon="1.20069">
        <ele>135.4</ele>
        <time>2026-07-12T05:30:14Z</time>
      </trkpt>
      <trkpt lat="44.51228" lon="1.20073">
        <ele>135.6</ele>
        <time>2026-07-12T05:30:15Z</time>
      </trkpt>
      <trkpt lat="44.51226" lon="1.20076">
        <ele>135.7</ele>
        <time>2026-07-12T05:30:16Z</time>
      </trkpt>
      <trkpt lat="44.51224" lon="1.2008">
        <ele>135.8</ele>
        <time>2026-07-12T05:30:17Z</time>
      </trkpt>
      <trkpt lat="44.51222" lon="1.20083">
        <ele>135.9</ele>
        <time>2026-07-12T05:30:18Z</time>
      </trkpt>
      <trkpt lat="44.5122" lon="1.20086">
        <ele>136.2</ele>
        <time>2026-07-12T05:30:19Z</time>
      </trkpt>
      <trkpt lat="44.51218" lon="1.2009">
        <ele>136.6</ele>
        <time>2026-07-12T05:30:20Z</time>
      </trkpt>
      <trkpt lat="44.51216" lon="1.20094">
        <ele>136.7</ele>
        <time>2026-07-12T05:30:21Z</time>
      </trkpt>
      <trkpt lat="44.51214" lon="1.20096">
        <ele>136.8</ele>
        <time>2026-07-12T05:30:22Z</time>
      </trkpt>
      <trkpt lat="44.51211" lon="1.20099">
        <ele>136.8</ele>
        <time>2026-07-12T05:30:23Z</time>
      </trkpt>
      <trkpt lat="44.51209" lon="1.20102">
        <ele>136.7</ele>
        <time>2026-07-12T05:30:24Z</time>
      </trkpt>
      <trkpt lat="44.51193" lon="1.20125">
        <ele>136.8</ele>
        <time>2026-07-12T05:30:31Z</time>
      </trkpt>
      <trkpt lat="44.51191" lon="1.20128">
        <ele>137.1</ele>
        <time>2026-07-12T05:30:32Z</time>
      </trkpt>
      <trkpt lat="44.5118" lon="1.20144">
        <ele>137.7</ele>
        <time>2026-07-12T05:30:37Z</time>
      </trkpt>
      <trkpt lat="44.51178" lon="1.20148">
        <ele>137.8</ele>
        <time>2026-07-12T05:30:38Z</time>
      </trkpt>
      <trkpt lat="44.51175" lon="1.20151">
        <ele>137.8</ele>
        <time>2026-07-12T05:30:39Z</time>
      </trkpt>
      <trkpt lat="44.51173" lon="1.20155">
        <ele>137.9</ele>
        <time>2026-07-12T05:30:40Z</time>
      </trkpt>
      <trkpt lat="44.51171" lon="1.20158">
        <ele>137.9</ele>
        <time>2026-07-12T05:30:41Z</time>
      </trkpt>
      <trkpt lat="44.51169" lon="1.20161">
        <ele>137.9</ele>
        <time>2026-07-12T05:30:42Z</time>
      </trkpt>
      <trkpt lat="44.51167" lon="1.20165">
        <ele>137.8</ele>
        <time>2026-07-12T05:30:43Z</time>
      </trkpt>
      <trkpt lat="44.51165" lon="1.20168">
        <ele>137.9</ele>
        <time>2026-07-12T05:30:44Z</time>
      </trkpt>
      <trkpt lat="44.51164" lon="1.20172">
        <ele>137.8</ele>
        <time>2026-07-12T05:30:45Z</time>
      </trkpt>
      <trkpt lat="44.51162" lon="1.20175">
        <ele>137.8</ele>
        <time>2026-07-12T05:30:46Z</time>
      </trkpt>
      <trkpt lat="44.5116" lon="1.20177">
        <ele>137.7</ele>
        <time>2026-07-12T05:30:47Z</time>
      </trkpt>
      <trkpt lat="44.51158" lon="1.2018">
        <ele>137.5</ele>
        <time>2026-07-12T05:30:48Z</time>
      </trkpt>
      <trkpt lat="44.51156" lon="1.20183">
        <ele>137.5</ele>
        <time>2026-07-12T05:30:49Z</time>
      </trkpt>
      <trkpt lat="44.51155" lon="1.20186">
        <ele>137.5</ele>
        <time>2026-07-12T05:30:50Z</time>
      </trkpt>
      <trkpt lat="44.51154" lon="1.20189">
        <ele>137.4</ele>
        <time>2026-07-12T05:30:51Z</time>
      </trkpt>
      <trkpt lat="44.51153" lon="1.20193">
        <ele>137.4</ele>
        <time>2026-07-12T05:30:52Z</time>
      </trkpt>
      <trkpt lat="44.51151" lon="1.20196">
        <ele>137.5</ele>
        <time>2026-07-12T05:30:53Z</time>
      </trkpt>
      <trkpt lat="44.5115" lon="1.20198">
        <ele>137.5</ele>
        <time>2026-07-12T05:30:54Z</time>
      </trkpt>
      <trkpt lat="44.51149" lon="1.202">
        <ele>137.6</ele>
        <time>2026-07-12T05:30:55Z</time>
      </trkpt>
      <trkpt lat="44.51149" lon="1.20203">
        <ele>137.8</ele>
        <time>2026-07-12T05:30:56Z</time>
      </trkpt>
      <trkpt lat="44.51148" lon="1.20206">
        <ele>138</ele>
        <time>2026-07-12T05:30:57Z</time>
      </trkpt>
      <trkpt lat="44.51146" lon="1.20209">
        <ele>138.2</ele>
        <time>2026-07-12T05:30:58Z</time>
      </trkpt>
      <trkpt lat="44.51146" lon="1.20212">
        <ele>138.5</ele>
        <time>2026-07-12T05:30:59Z</time>
      </trkpt>
      <trkpt lat="44.51145" lon="1.20214">
        <ele>138.7</ele>
        <time>2026-07-12T05:31:00Z</time>
      </trkpt>
      <trkpt lat="44.51145" lon="1.20216">
        <ele>138.9</ele>
        <time>2026-07-12T05:31:01Z</time>
      </trkpt>
      <trkpt lat="44.51145" lon="1.20217">
        <ele>138.9</ele>
        <time>2026-07-12T05:31:02Z</time>
      </trkpt>
      <trkpt lat="44.51145" lon="1.20217">
        <ele>138.9</ele>
        <time>2026-07-12T05:31:03Z</time>
      </trkpt>
      <trkpt lat="44.51145" lon="1.20217">
        <ele>138.9</ele>
        <time>2026-07-12T05:31:04Z</time>
      </trkpt>
      <trkpt lat="44.51141" lon="1.20223">
        <ele>139.2</ele>
        <time>2026-07-12T05:31:09Z</time>
      </trkpt>
      <trkpt lat="44.51141" lon="1.20227">
        <ele>139.4</ele>
        <time>2026-07-12T05:31:10Z</time>
      </trkpt>
      <trkpt lat="44.5114" lon="1.20231">
        <ele>139.5</ele>
        <time>2026-07-12T05:31:11Z</time>
      </trkpt>
      <trkpt lat="44.5114" lon="1.20236">
        <ele>139.6</ele>
        <time>2026-07-12T05:31:12Z</time>
      </trkpt>
      <trkpt lat="44.51139" lon="1.20239">
        <ele>139.6</ele>
        <time>2026-07-12T05:31:13Z</time>
      </trkpt>
      <trkpt lat="44.51138" lon="1.20243">
        <ele>139.7</ele>
        <time>2026-07-12T05:31:14Z</time>
      </trkpt>
      <trkpt lat="44.51136" lon="1.2025">
        <ele>139.8</ele>
        <time>2026-07-12T05:31:16Z</time>
      </trkpt>
      <trkpt lat="44.51135" lon="1.20265">
        <ele>140.7</ele>
        <time>2026-07-12T05:31:20Z</time>
      </trkpt>
      <trkpt lat="44.51135" lon="1.20271">
        <ele>141.2</ele>
        <time>2026-07-12T05:31:22Z</time>
      </trkpt>
      <trkpt lat="44.51135" lon="1.20274">
        <ele>141.3</ele>
        <time>2026-07-12T05:31:23Z</time>
      </trkpt>
      <trkpt lat="44.51135" lon="1.20278">
        <ele>141.6</ele>
        <time>2026-07-12T05:31:24Z</time>
      </trkpt>
      <trkpt lat="44.51135" lon="1.20281">
        <ele>141.8</ele>
        <time>2026-07-12T05:31:25Z</time>
      </trkpt>
      <trkpt lat="44.51135" lon="1.20285">
        <ele>142</ele>
        <time>2026-07-12T05:31:26Z</time>
      </trkpt>
      <trkpt lat="44.51133" lon="1.20306">
        <ele>143.3</ele>
        <time>2026-07-12T05:31:30Z</time>
      </trkpt>
      <trkpt lat="44.51134" lon="1.20324">
        <ele>143.5</ele>
        <time>2026-07-12T05:31:34Z</time>
      </trkpt>
      <trkpt lat="44.51135" lon="1.20333">
        <ele>143.6</ele>
        <time>2026-07-12T05:31:36Z</time>
      </trkpt>
      <trkpt lat="44.51138" lon="1.20353">
        <ele>143.9</ele>
        <time>2026-07-12T05:31:40Z</time>
      </trkpt>
      <trkpt lat="44.51139" lon="1.20358">
        <ele>144</ele>
        <time>2026-07-12T05:31:41Z</time>
      </trkpt>
      <trkpt lat="44.51139" lon="1.20361">
        <ele>144.1</ele>
        <time>2026-07-12T05:31:42Z</time>
      </trkpt>
      <trkpt lat="44.5114" lon="1.20365">
        <ele>144.3</ele>
        <time>2026-07-12T05:31:43Z</time>
      </trkpt>
      <trkpt lat="44.5114" lon="1.2037">
        <ele>144.5</ele>
        <time>2026-07-12T05:31:44Z</time>
      </trkpt>
      <trkpt lat="44.51141" lon="1.20374">
        <ele>144.7</ele>
        <time>2026-07-12T05:31:45Z</time>
      </trkpt>
      <trkpt lat="44.51141" lon="1.20379">
        <ele>144.9</ele>
        <time>2026-07-12T05:31:46Z</time>
      </trkpt>
      <trkpt lat="44.51141" lon="1.20382">
        <ele>145</ele>
        <time>2026-07-12T05:31:47Z</time>
      </trkpt>
      <trkpt lat="44.51142" lon="1.20387">
        <ele>145.1</ele>
        <time>2026-07-12T05:31:48Z</time>
      </trkpt>
      <trkpt lat="44.51142" lon="1.20392">
        <ele>145.3</ele>
        <time>2026-07-12T05:31:49Z</time>
      </trkpt>
      <trkpt lat="44.51142" lon="1.20396">
        <ele>145.5</ele>
        <time>2026-07-12T05:31:50Z</time>
      </trkpt>
      <trkpt lat="44.51142" lon="1.20401">
        <ele>145.7</ele>
        <time>2026-07-12T05:31:51Z</time>
      </trkpt>
      <trkpt lat="44.51143" lon="1.20405">
        <ele>145.9</ele>
        <time>2026-07-12T05:31:52Z</time>
      </trkpt>
      <trkpt lat="44.51143" lon="1.20411">
        <ele>146</ele>
        <time>2026-07-12T05:31:53Z</time>
      </trkpt>
      <trkpt lat="44.51143" lon="1.20416">
        <ele>146.2</ele>
        <time>2026-07-12T05:31:54Z</time>
      </trkpt>
      <trkpt lat="44.51143" lon="1.20421">
        <ele>146.2</ele>
        <time>2026-07-12T05:31:55Z</time>
      </trkpt>
      <trkpt lat="44.51143" lon="1.20426">
        <ele>146.3</ele>
        <time>2026-07-12T05:31:56Z</time>
      </trkpt>
      <trkpt lat="44.51143" lon="1.2043">
        <ele>146.3</ele>
        <time>2026-07-12T05:31:57Z</time>
      </trkpt>
      <trkpt lat="44.51143" lon="1.20436">
        <ele>146.4</ele>
        <time>2026-07-12T05:31:58Z</time>
      </trkpt>
      <trkpt lat="44.51143" lon="1.20441">
        <ele>146.4</ele>
        <time>2026-07-12T05:31:59Z</time>
      </trkpt>
      <trkpt lat="44.51143" lon="1.20446">
        <ele>146.5</ele>
        <time>2026-07-12T05:32:00Z</time>
      </trkpt>
      <trkpt lat="44.51144" lon="1.2045">
        <ele>146.8</ele>
        <time>2026-07-12T05:32:01Z</time>
      </trkpt>
      <trkpt lat="44.51144" lon="1.20455">
        <ele>147.1</ele>
        <time>2026-07-12T05:32:02Z</time>
      </trkpt>
      <trkpt lat="44.51145" lon="1.20458">
        <ele>147.3</ele>
        <time>2026-07-12T05:32:03Z</time>
      </trkpt>
      <trkpt lat="44.51145" lon="1.20464">
        <ele>147.6</ele>
        <time>2026-07-12T05:32:04Z</time>
      </trkpt>
      <trkpt lat="44.51146" lon="1.20468">
        <ele>148</ele>
        <time>2026-07-12T05:32:05Z</time>
      </trkpt>
      <trkpt lat="44.51147" lon="1.20471">
        <ele>148.2</ele>
        <time>2026-07-12T05:32:06Z</time>
      </trkpt>
      <trkpt lat="44.51148" lon="1.20476">
        <ele>148.3</ele>
        <time>2026-07-12T05:32:07Z</time>
      </trkpt>
      <trkpt lat="44.51149" lon="1.20481">
        <ele>148.3</ele>
        <time>2026-07-12T05:32:08Z</time>
      </trkpt>
      <trkpt lat="44.5115" lon="1.20484">
        <ele>148.3</ele>
        <time>2026-07-12T05:32:09Z</time>
      </trkpt>
      <trkpt lat="44.51151" lon="1.2049">
        <ele>148.1</ele>
        <time>2026-07-12T05:32:10Z</time>
      </trkpt>
      <trkpt lat="44.51152" lon="1.20493">
        <ele>148</ele>
        <time>2026-07-12T05:32:11Z</time>
      </trkpt>
      <trkpt lat="44.51153" lon="1.20498">
        <ele>147.8</ele>
        <time>2026-07-12T05:32:12Z</time>
      </trkpt>
      <trkpt lat="44.51155" lon="1.20502">
        <ele>147.6</ele>
        <time>2026-07-12T05:32:13Z</time>
      </trkpt>
      <trkpt lat="44.51156" lon="1.20507">
        <ele>147.7</ele>
        <time>2026-07-12T05:32:14Z</time>
      </trkpt>
      <trkpt lat="44.51157" lon="1.20511">
        <ele>147.7</ele>
        <time>2026-07-12T05:32:15Z</time>
      </trkpt>
      <trkpt lat="44.51158" lon="1.20515">
        <ele>147.7</ele>
        <time>2026-07-12T05:32:16Z</time>
      </trkpt>
      <trkpt lat="44.5116" lon="1.20519">
        <ele>147.7</ele>
        <time>2026-07-12T05:32:17Z</time>
      </trkpt>
      <trkpt lat="44.51161" lon="1.20522">
        <ele>147.8</ele>
        <time>2026-07-12T05:32:18Z</time>
      </trkpt>
      <trkpt lat="44.51163" lon="1.20526">
        <ele>147.8</ele>
        <time>2026-07-12T05:32:19Z</time>
      </trkpt>
      <trkpt lat="44.51164" lon="1.20529">
        <ele>147.8</ele>
        <time>2026-07-12T05:32:20Z</time>
      </trkpt>
      <trkpt lat="44.51165" lon="1.20532">
        <ele>147.7</ele>
        <time>2026-07-12T05:32:21Z</time>
      </trkpt>
      <trkpt lat="44.51167" lon="1.20536">
        <ele>147.7</ele>
        <time>2026-07-12T05:32:22Z</time>
      </trkpt>
      <trkpt lat="44.51168" lon="1.20539">
        <ele>147.7</ele>
        <time>2026-07-12T05:32:23Z</time>
      </trkpt>
      <trkpt lat="44.5117" lon="1.20543">
        <ele>147.7</ele>
        <time>2026-07-12T05:32:24Z</time>
      </trkpt>
      <trkpt lat="44.51183" lon="1.20569">
        <ele>148.6</ele>
        <time>2026-07-12T05:32:31Z</time>
      </trkpt>
      <trkpt lat="44.51185" lon="1.20573">
        <ele>148.7</ele>
        <time>2026-07-12T05:32:32Z</time>
      </trkpt>
      <trkpt lat="44.51188" lon="1.20578">
        <ele>148.9</ele>
        <time>2026-07-12T05:32:34Z</time>
      </trkpt>
      <trkpt lat="44.51189" lon="1.20582">
        <ele>149</ele>
        <time>2026-07-12T05:32:35Z</time>
      </trkpt>
      <trkpt lat="44.51191" lon="1.20586">
        <ele>149.2</ele>
        <time>2026-07-12T05:32:36Z</time>
      </trkpt>
      <trkpt lat="44.51193" lon="1.20589">
        <ele>149.4</ele>
        <time>2026-07-12T05:32:37Z</time>
      </trkpt>
      <trkpt lat="44.51199" lon="1.20599">
        <ele>150.5</ele>
        <time>2026-07-12T05:32:40Z</time>
      </trkpt>
      <trkpt lat="44.51201" lon="1.20603">
        <ele>150.8</ele>
        <time>2026-07-12T05:32:41Z</time>
      </trkpt>
      <trkpt lat="44.51203" lon="1.20607">
        <ele>151.2</ele>
        <time>2026-07-12T05:32:42Z</time>
      </trkpt>
      <trkpt lat="44.51204" lon="1.2061">
        <ele>151.3</ele>
        <time>2026-07-12T05:32:43Z</time>
      </trkpt>
      <trkpt lat="44.51207" lon="1.20614">
        <ele>151.6</ele>
        <time>2026-07-12T05:32:44Z</time>
      </trkpt>
      <trkpt lat="44.51208" lon="1.20617">
        <ele>151.8</ele>
        <time>2026-07-12T05:32:45Z</time>
      </trkpt>
      <trkpt lat="44.5121" lon="1.20621">
        <ele>152</ele>
        <time>2026-07-12T05:32:46Z</time>
      </trkpt>
      <trkpt lat="44.51211" lon="1.20624">
        <ele>152.1</ele>
        <time>2026-07-12T05:32:47Z</time>
      </trkpt>
      <trkpt lat="44.51213" lon="1.20628">
        <ele>152.3</ele>
        <time>2026-07-12T05:32:48Z</time>
      </trkpt>
      <trkpt lat="44.51214" lon="1.20632">
        <ele>152.4</ele>
        <time>2026-07-12T05:32:49Z</time>
      </trkpt>
      <trkpt lat="44.51216" lon="1.20635">
        <ele>152.4</ele>
        <time>2026-07-12T05:32:50Z</time>
      </trkpt>
      <trkpt lat="44.51217" lon="1.20639">
        <ele>152.4</ele>
        <time>2026-07-12T05:32:51Z</time>
      </trkpt>
      <trkpt lat="44.51218" lon="1.20642">
        <ele>152.6</ele>
        <time>2026-07-12T05:32:52Z</time>
      </trkpt>
      <trkpt lat="44.51219" lon="1.20645">
        <ele>152.8</ele>
        <time>2026-07-12T05:32:53Z</time>
      </trkpt>
      <trkpt lat="44.5122" lon="1.20649">
        <ele>152.9</ele>
        <time>2026-07-12T05:32:54Z</time>
      </trkpt>
      <trkpt lat="44.51221" lon="1.20652">
        <ele>153.1</ele>
        <time>2026-07-12T05:32:55Z</time>
      </trkpt>
      <trkpt lat="44.51222" lon="1.20657">
        <ele>153.3</ele>
        <time>2026-07-12T05:32:56Z</time>
      </trkpt>
      <trkpt lat="44.51224" lon="1.20661">
        <ele>153.7</ele>
        <time>2026-07-12T05:32:57Z</time>
      </trkpt>
      <trkpt lat="44.51225" lon="1.20664">
        <ele>154</ele>
        <time>2026-07-12T05:32:58Z</time>
      </trkpt>
      <trkpt lat="44.51226" lon="1.20668">
        <ele>154.4</ele>
        <time>2026-07-12T05:32:59Z</time>
      </trkpt>
      <trkpt lat="44.51227" lon="1.20672">
        <ele>154.9</ele>
        <time>2026-07-12T05:33:00Z</time>
      </trkpt>
      <trkpt lat="44.51228" lon="1.20677">
        <ele>155.3</ele>
        <time>2026-07-12T05:33:01Z</time>
      </trkpt>
      <trkpt lat="44.51229" lon="1.20681">
        <ele>155.8</ele>
        <time>2026-07-12T05:33:02Z</time>
      </trkpt>
      <trkpt lat="44.5123" lon="1.20685">
        <ele>156.2</ele>
        <time>2026-07-12T05:33:03Z</time>
      </trkpt>
      <trkpt lat="44.51231" lon="1.20689">
        <ele>156.6</ele>
        <time>2026-07-12T05:33:04Z</time>
      </trkpt>
      <trkpt lat="44.51231" lon="1.20694">
        <ele>156.9</ele>
        <time>2026-07-12T05:33:05Z</time>
      </trkpt>
      <trkpt lat="44.51232" lon="1.20698">
        <ele>157.2</ele>
        <time>2026-07-12T05:33:06Z</time>
      </trkpt>
      <trkpt lat="44.51232" lon="1.20703">
        <ele>157.4</ele>
        <time>2026-07-12T05:33:07Z</time>
      </trkpt>
      <trkpt lat="44.51232" lon="1.20708">
        <ele>157.6</ele>
        <time>2026-07-12T05:33:08Z</time>
      </trkpt>
      <trkpt lat="44.51233" lon="1.20712">
        <ele>157.8</ele>
        <time>2026-07-12T05:33:09Z</time>
      </trkpt>
      <trkpt lat="44.51233" lon="1.20717">
        <ele>158</ele>
        <time>2026-07-12T05:33:10Z</time>
      </trkpt>
      <trkpt lat="44.51233" lon="1.20721">
        <ele>158.2</ele>
        <time>2026-07-12T05:33:11Z</time>
      </trkpt>
      <trkpt lat="44.51233" lon="1.20725">
        <ele>158.4</ele>
        <time>2026-07-12T05:33:12Z</time>
      </trkpt>
      <trkpt lat="44.51233" lon="1.20729">
        <ele>158.6</ele>
        <time>2026-07-12T05:33:13Z</time>
      </trkpt>
      <trkpt lat="44.51233" lon="1.20734">
        <ele>158.8</ele>
        <time>2026-07-12T05:33:14Z</time>
      </trkpt>
      <trkpt lat="44.51232" lon="1.20738">
        <ele>159.1</ele>
        <time>2026-07-12T05:33:15Z</time>
      </trkpt>
      <trkpt lat="44.51232" lon="1.20742">
        <ele>159.3</ele>
        <time>2026-07-12T05:33:16Z</time>
      </trkpt>
      <trkpt lat="44.51232" lon="1.20745">
        <ele>159.4</ele>
        <time>2026-07-12T05:33:17Z</time>
      </trkpt>
      <trkpt lat="44.51232" lon="1.20749">
        <ele>159.6</ele>
        <time>2026-07-12T05:33:18Z</time>
      </trkpt>
      <trkpt lat="44.51232" lon="1.20754">
        <ele>159.8</ele>
        <time>2026-07-12T05:33:19Z</time>
      </trkpt>
      <trkpt lat="44.51231" lon="1.20758">
        <ele>160</ele>
        <time>2026-07-12T05:33:20Z</time>
      </trkpt>
      <trkpt lat="44.51231" lon="1.20762">
        <ele>160.2</ele>
        <time>2026-07-12T05:33:21Z</time>
      </trkpt>
      <trkpt lat="44.51231" lon="1.20765">
        <ele>160.4</ele>
        <time>2026-07-12T05:33:22Z</time>
      </trkpt>
      <trkpt lat="44.51231" lon="1.20769">
        <ele>160.6</ele>
        <time>2026-07-12T05:33:23Z</time>
      </trkpt>
      <trkpt lat="44.51232" lon="1.20773">
        <ele>160.8</ele>
        <time>2026-07-12T05:33:24Z</time>
      </trkpt>
      <trkpt lat="44.51233" lon="1.20777">
        <ele>161</ele>
        <time>2026-07-12T05:33:25Z</time>
      </trkpt>
      <trkpt lat="44.51234" lon="1.2078">
        <ele>161.1</ele>
        <time>2026-07-12T05:33:26Z</time>
      </trkpt>
      <trkpt lat="44.51235" lon="1.20785">
        <ele>161.3</ele>
        <time>2026-07-12T05:33:27Z</time>
      </trkpt>
      <trkpt lat="44.51237" lon="1.20789">
        <ele>161.4</ele>
        <time>2026-07-12T05:33:28Z</time>
      </trkpt>
      <trkpt lat="44.51238" lon="1.20793">
        <ele>161.6</ele>
        <time>2026-07-12T05:33:29Z</time>
      </trkpt>
      <trkpt lat="44.5124" lon="1.20794">
        <ele>161.7</ele>
        <time>2026-07-12T05:33:30Z</time>
      </trkpt>
      <trkpt lat="44.51241" lon="1.20797">
        <ele>162</ele>
        <time>2026-07-12T05:33:31Z</time>
      </trkpt>
      <trkpt lat="44.51243" lon="1.20801">
        <ele>162.2</ele>
        <time>2026-07-12T05:33:32Z</time>
      </trkpt>
      <trkpt lat="44.51244" lon="1.20805">
        <ele>162.5</ele>
        <time>2026-07-12T05:33:33Z</time>
      </trkpt>
      <trkpt lat="44.51244" lon="1.20808">
        <ele>162.8</ele>
        <time>2026-07-12T05:33:34Z</time>
      </trkpt>
      <trkpt lat="44.51244" lon="1.20813">
        <ele>163.3</ele>
        <time>2026-07-12T05:33:35Z</time>
      </trkpt>
      <trkpt lat="44.51244" lon="1.20817">
        <ele>163.7</ele>
        <time>2026-07-12T05:33:36Z</time>
      </trkpt>
      <trkpt lat="44.51244" lon="1.20821">
        <ele>164</ele>
        <time>2026-07-12T05:33:37Z</time>
      </trkpt>
      <trkpt lat="44.51243" lon="1.20824">
        <ele>164.3</ele>
        <time>2026-07-12T05:33:38Z</time>
      </trkpt>
      <trkpt lat="44.51243" lon="1.20828">
        <ele>164.6</ele>
        <time>2026-07-12T05:33:39Z</time>
      </trkpt>
      <trkpt lat="44.51242" lon="1.20832">
        <ele>165</ele>
        <time>2026-07-12T05:33:40Z</time>
      </trkpt>
      <trkpt lat="44.51241" lon="1.20836">
        <ele>165.3</ele>
        <time>2026-07-12T05:33:41Z</time>
      </trkpt>
      <trkpt lat="44.51241" lon="1.2084">
        <ele>165.5</ele>
        <time>2026-07-12T05:33:42Z</time>
      </trkpt>
      <trkpt lat="44.5124" lon="1.20844">
        <ele>165.7</ele>
        <time>2026-07-12T05:33:43Z</time>
      </trkpt>
      <trkpt lat="44.5124" lon="1.20849">
        <ele>165.9</ele>
        <time>2026-07-12T05:33:44Z</time>
      </trkpt>
      <trkpt lat="44.51238" lon="1.20854">
        <ele>166</ele>
        <time>2026-07-12T05:33:45Z</time>
      </trkpt>
      <trkpt lat="44.51237" lon="1.20858">
        <ele>166</ele>
        <time>2026-07-12T05:33:46Z</time>
      </trkpt>
      <trkpt lat="44.51236" lon="1.20862">
        <ele>166.1</ele>
        <time>2026-07-12T05:33:47Z</time>
      </trkpt>
      <trkpt lat="44.51235" lon="1.20867">
        <ele>166.3</ele>
        <time>2026-07-12T05:33:48Z</time>
      </trkpt>
      <trkpt lat="44.51234" lon="1.20871">
        <ele>166.4</ele>
        <time>2026-07-12T05:33:49Z</time>
      </trkpt>
      <trkpt lat="44.51233" lon="1.20875">
        <ele>166.5</ele>
        <time>2026-07-12T05:33:50Z</time>
      </trkpt>
      <trkpt lat="44.51232" lon="1.20879">
        <ele>166.7</ele>
        <time>2026-07-12T05:33:51Z</time>
      </trkpt>
      <trkpt lat="44.51232" lon="1.20883">
        <ele>166.9</ele>
        <time>2026-07-12T05:33:52Z</time>
      </trkpt>
      <trkpt lat="44.51231" lon="1.20889">
        <ele>167.2</ele>
        <time>2026-07-12T05:33:53Z</time>
      </trkpt>
      <trkpt lat="44.51231" lon="1.20894">
        <ele>167.6</ele>
        <time>2026-07-12T05:33:54Z</time>
      </trkpt>
      <trkpt lat="44.5123" lon="1.20898">
        <ele>167.8</ele>
        <time>2026-07-12T05:33:55Z</time>
      </trkpt>
      <trkpt lat="44.51229" lon="1.20903">
        <ele>168</ele>
        <time>2026-07-12T05:33:56Z</time>
      </trkpt>
      <trkpt lat="44.51229" lon="1.20907">
        <ele>168.2</ele>
        <time>2026-07-12T05:33:57Z</time>
      </trkpt>
      <trkpt lat="44.51227" lon="1.20911">
        <ele>168</ele>
        <time>2026-07-12T05:33:58Z</time>
      </trkpt>
      <trkpt lat="44.51226" lon="1.20914">
        <ele>167.9</ele>
        <time>2026-07-12T05:33:59Z</time>
      </trkpt>
      <trkpt lat="44.51224" lon="1.20918">
        <ele>167.7</ele>
        <time>2026-07-12T05:34:00Z</time>
      </trkpt>
      <trkpt lat="44.51223" lon="1.20923">
        <ele>167.6</ele>
        <time>2026-07-12T05:34:01Z</time>
      </trkpt>
      <trkpt lat="44.51222" lon="1.20927">
        <ele>167.8</ele>
        <time>2026-07-12T05:34:02Z</time>
      </trkpt>
      <trkpt lat="44.51222" lon="1.20932">
        <ele>168.1</ele>
        <time>2026-07-12T05:34:03Z</time>
      </trkpt>
      <trkpt lat="44.51221" lon="1.20936">
        <ele>168.3</ele>
        <time>2026-07-12T05:34:04Z</time>
      </trkpt>
      <trkpt lat="44.5122" lon="1.2094">
        <ele>168.6</ele>
        <time>2026-07-12T05:34:05Z</time>
      </trkpt>
      <trkpt lat="44.51219" lon="1.20944">
        <ele>168.8</ele>
        <time>2026-07-12T05:34:06Z</time>
      </trkpt>
      <trkpt lat="44.51218" lon="1.20949">
        <ele>169.1</ele>
        <time>2026-07-12T05:34:07Z</time>
      </trkpt>
      <trkpt lat="44.51217" lon="1.20954">
        <ele>169.4</ele>
        <time>2026-07-12T05:34:08Z</time>
      </trkpt>
      <trkpt lat="44.51216" lon="1.20958">
        <ele>169.7</ele>
        <time>2026-07-12T05:34:09Z</time>
      </trkpt>
      <trkpt lat="44.51216" lon="1.20963">
        <ele>169.9</ele>
        <time>2026-07-12T05:34:10Z</time>
      </trkpt>
      <trkpt lat="44.51215" lon="1.20967">
        <ele>170.2</ele>
        <time>2026-07-12T05:34:11Z</time>
      </trkpt>
      <trkpt lat="44.51215" lon="1.20972">
        <ele>170.4</ele>
        <time>2026-07-12T05:34:12Z</time>
      </trkpt>
      <trkpt lat="44.51214" lon="1.20976">
        <ele>170.6</ele>
        <time>2026-07-12T05:34:13Z</time>
      </trkpt>
      <trkpt lat="44.51214" lon="1.2098">
        <ele>170.9</ele>
        <time>2026-07-12T05:34:14Z</time>
      </trkpt>
      <trkpt lat="44.51213" lon="1.20985">
        <ele>171.1</ele>
        <time>2026-07-12T05:34:15Z</time>
      </trkpt>
      <trkpt lat="44.51212" lon="1.20989">
        <ele>171.3</ele>
        <time>2026-07-12T05:34:16Z</time>
      </trkpt>
      <trkpt lat="44.51212" lon="1.20994">
        <ele>171.5</ele>
        <time>2026-07-12T05:34:17Z</time>
      </trkpt>
      <trkpt lat="44.51212" lon="1.20999">
        <ele>171.8</ele>
        <time>2026-07-12T05:34:18Z</time>
      </trkpt>
      <trkpt lat="44.51212" lon="1.21003">
        <ele>172</ele>
        <time>2026-07-12T05:34:19Z</time>
      </trkpt>
      <trkpt lat="44.51212" lon="1.21008">
        <ele>172.1</ele>
        <time>2026-07-12T05:34:20Z</time>
      </trkpt>
      <trkpt lat="44.51212" lon="1.21012">
        <ele>172.3</ele>
        <time>2026-07-12T05:34:21Z</time>
      </trkpt>
      <trkpt lat="44.51212" lon="1.21017">
        <ele>172.5</ele>
        <time>2026-07-12T05:34:22Z</time>
      </trkpt>
      <trkpt lat="44.51212" lon="1.21021">
        <ele>172.7</ele>
        <time>2026-07-12T05:34:23Z</time>
      </trkpt>
      <trkpt lat="44.51212" lon="1.21026">
        <ele>172.8</ele>
        <time>2026-07-12T05:34:24Z</time>
      </trkpt>
      <trkpt lat="44.51212" lon="1.2103">
        <ele>173</ele>
        <time>2026-07-12T05:34:25Z</time>
      </trkpt>
      <trkpt lat="44.51212" lon="1.21035">
        <ele>173.3</ele>
        <time>2026-07-12T05:34:26Z</time>
      </trkpt>
      <trkpt lat="44.51213" lon="1.2104">
        <ele>173.5</ele>
        <time>2026-07-12T05:34:27Z</time>
      </trkpt>
      <trkpt lat="44.51212" lon="1.21044">
        <ele>173.7</ele>
        <time>2026-07-12T05:34:28Z</time>
      </trkpt>
      <trkpt lat="44.51212" lon="1.21049">
        <ele>173.9</ele>
        <time>2026-07-12T05:34:29Z</time>
      </trkpt>
      <trkpt lat="44.51212" lon="1.21053">
        <ele>174.2</ele>
        <time>2026-07-12T05:34:30Z</time>
      </trkpt>
      <trkpt lat="44.51212" lon="1.21057">
        <ele>174.4</ele>
        <time>2026-07-12T05:34:31Z</time>
      </trkpt>
      <trkpt lat="44.51212" lon="1.21062">
        <ele>174.7</ele>
        <time>2026-07-12T05:34:32Z</time>
      </trkpt>
      <trkpt lat="44.51212" lon="1.21067">
        <ele>175</ele>
        <time>2026-07-12T05:34:33Z</time>
      </trkpt>
      <trkpt lat="44.51212" lon="1.21071">
        <ele>175.2</ele>
        <time>2026-07-12T05:34:34Z</time>
      </trkpt>
      <trkpt lat="44.51211" lon="1.21077">
        <ele>175.6</ele>
        <time>2026-07-12T05:34:35Z</time>
      </trkpt>
      <trkpt lat="44.51211" lon="1.21081">
        <ele>175.9</ele>
        <time>2026-07-12T05:34:36Z</time>
      </trkpt>
      <trkpt lat="44.5121" lon="1.21086">
        <ele>176.2</ele>
        <time>2026-07-12T05:34:37Z</time>
      </trkpt>
      <trkpt lat="44.5121" lon="1.21091">
        <ele>176.5</ele>
        <time>2026-07-12T05:34:38Z</time>
      </trkpt>
      <trkpt lat="44.5121" lon="1.21095">
        <ele>176.8</ele>
        <time>2026-07-12T05:34:39Z</time>
      </trkpt>
      <trkpt lat="44.51211" lon="1.21101">
        <ele>177.3</ele>
        <time>2026-07-12T05:34:40Z</time>
      </trkpt>
      <trkpt lat="44.51211" lon="1.21106">
        <ele>177.6</ele>
        <time>2026-07-12T05:34:41Z</time>
      </trkpt>
      <trkpt lat="44.5121" lon="1.2111">
        <ele>177.9</ele>
        <time>2026-07-12T05:34:42Z</time>
      </trkpt>
      <trkpt lat="44.51209" lon="1.21114">
        <ele>178.1</ele>
        <time>2026-07-12T05:34:43Z</time>
      </trkpt>
      <trkpt lat="44.51208" lon="1.21119">
        <ele>178.3</ele>
        <time>2026-07-12T05:34:44Z</time>
      </trkpt>
      <trkpt lat="44.51208" lon="1.21123">
        <ele>178.4</ele>
        <time>2026-07-12T05:34:45Z</time>
      </trkpt>
      <trkpt lat="44.51208" lon="1.21127">
        <ele>178.6</ele>
        <time>2026-07-12T05:34:46Z</time>
      </trkpt>
      <trkpt lat="44.51207" lon="1.21132">
        <ele>178.7</ele>
        <time>2026-07-12T05:34:47Z</time>
      </trkpt>
      <trkpt lat="44.51206" lon="1.21137">
        <ele>178.9</ele>
        <time>2026-07-12T05:34:48Z</time>
      </trkpt>
      <trkpt lat="44.51205" lon="1.21141">
        <ele>179.2</ele>
        <time>2026-07-12T05:34:49Z</time>
      </trkpt>
      <trkpt lat="44.51204" lon="1.21145">
        <ele>179.4</ele>
        <time>2026-07-12T05:34:50Z</time>
      </trkpt>
      <trkpt lat="44.51203" lon="1.21148">
        <ele>179.6</ele>
        <time>2026-07-12T05:34:51Z</time>
      </trkpt>
      <trkpt lat="44.51203" lon="1.21152">
        <ele>179.9</ele>
        <time>2026-07-12T05:34:52Z</time>
      </trkpt>
      <trkpt lat="44.51201" lon="1.21157">
        <ele>180.1</ele>
        <time>2026-07-12T05:34:53Z</time>
      </trkpt>
      <trkpt lat="44.512" lon="1.21162">
        <ele>180.4</ele>
        <time>2026-07-12T05:34:54Z</time>
      </trkpt>
      <trkpt lat="44.51199" lon="1.21166">
        <ele>180.5</ele>
        <time>2026-07-12T05:34:55Z</time>
      </trkpt>
      <trkpt lat="44.51199" lon="1.21169">
        <ele>180.7</ele>
        <time>2026-07-12T05:34:56Z</time>
      </trkpt>
      <trkpt lat="44.51199" lon="1.21172">
        <ele>181</ele>
        <time>2026-07-12T05:34:57Z</time>
      </trkpt>
      <trkpt lat="44.51198" lon="1.21177">
        <ele>181.3</ele>
        <time>2026-07-12T05:34:58Z</time>
      </trkpt>
      <trkpt lat="44.51197" lon="1.2118">
        <ele>181.4</ele>
        <time>2026-07-12T05:34:59Z</time>
      </trkpt>
      <trkpt lat="44.51197" lon="1.21183">
        <ele>181.6</ele>
        <time>2026-07-12T05:35:00Z</time>
      </trkpt>
      <trkpt lat="44.51196" lon="1.21186">
        <ele>181.7</ele>
        <time>2026-07-12T05:35:01Z</time>
      </trkpt>
      <trkpt lat="44.51195" lon="1.21189">
        <ele>181.7</ele>
        <time>2026-07-12T05:35:02Z</time>
      </trkpt>
      <trkpt lat="44.51193" lon="1.21194">
        <ele>182.1</ele>
        <time>2026-07-12T05:35:03Z</time>
      </trkpt>
      <trkpt lat="44.51192" lon="1.21199">
        <ele>182.7</ele>
        <time>2026-07-12T05:35:04Z</time>
      </trkpt>
      <trkpt lat="44.5119" lon="1.21202">
        <ele>183.3</ele>
        <time>2026-07-12T05:35:05Z</time>
      </trkpt>
      <trkpt lat="44.51189" lon="1.21207">
        <ele>183.8</ele>
        <time>2026-07-12T05:35:06Z</time>
      </trkpt>
      <trkpt lat="44.51187" lon="1.2121">
        <ele>184.2</ele>
        <time>2026-07-12T05:35:07Z</time>
      </trkpt>
      <trkpt lat="44.51186" lon="1.21214">
        <ele>184.5</ele>
        <time>2026-07-12T05:35:08Z</time>
      </trkpt>
      <trkpt lat="44.51185" lon="1.21217">
        <ele>184.8</ele>
        <time>2026-07-12T05:35:09Z</time>
      </trkpt>
      <trkpt lat="44.51183" lon="1.21221">
        <ele>185</ele>
        <time>2026-07-12T05:35:10Z</time>
      </trkpt>
      <trkpt lat="44.51182" lon="1.21224">
        <ele>185.4</ele>
        <time>2026-07-12T05:35:11Z</time>
      </trkpt>
      <trkpt lat="44.5118" lon="1.21228">
        <ele>185.8</ele>
        <time>2026-07-12T05:35:12Z</time>
      </trkpt>
      <trkpt lat="44.51179" lon="1.21232">
        <ele>186.2</ele>
        <time>2026-07-12T05:35:13Z</time>
      </trkpt>
      <trkpt lat="44.51177" lon="1.21236">
        <ele>186.4</ele>
        <time>2026-07-12T05:35:14Z</time>
      </trkpt>
      <trkpt lat="44.51175" lon="1.21241">
        <ele>186.8</ele>
        <time>2026-07-12T05:35:15Z</time>
      </trkpt>
      <trkpt lat="44.51175" lon="1.21245">
        <ele>187.2</ele>
        <time>2026-07-12T05:35:16Z</time>
      </trkpt>
      <trkpt lat="44.51174" lon="1.2125">
        <ele>187.6</ele>
        <time>2026-07-12T05:35:17Z</time>
      </trkpt>
      <trkpt lat="44.51174" lon="1.21254">
        <ele>187.9</ele>
        <time>2026-07-12T05:35:18Z</time>
      </trkpt>
      <trkpt lat="44.51175" lon="1.21259">
        <ele>188.5</ele>
        <time>2026-07-12T05:35:19Z</time>
      </trkpt>
      <trkpt lat="44.51176" lon="1.21263">
        <ele>189</ele>
        <time>2026-07-12T05:35:20Z</time>
      </trkpt>
      <trkpt lat="44.51175" lon="1.21267">
        <ele>189.1</ele>
        <time>2026-07-12T05:35:21Z</time>
      </trkpt>
      <trkpt lat="44.51175" lon="1.2127">
        <ele>189.4</ele>
        <time>2026-07-12T05:35:22Z</time>
      </trkpt>
      <trkpt lat="44.51174" lon="1.21275">
        <ele>189.5</ele>
        <time>2026-07-12T05:35:23Z</time>
      </trkpt>
      <trkpt lat="44.51172" lon="1.21278">
        <ele>188.8</ele>
        <time>2026-07-12T05:35:24Z</time>
      </trkpt>
      <trkpt lat="44.51171" lon="1.21283">
        <ele>188.9</ele>
        <time>2026-07-12T05:35:25Z</time>
      </trkpt>
      <trkpt lat="44.51171" lon="1.21287">
        <ele>189.1</ele>
        <time>2026-07-12T05:35:26Z</time>
      </trkpt>
      <trkpt lat="44.5117" lon="1.21291">
        <ele>189.1</ele>
        <time>2026-07-12T05:35:27Z</time>
      </trkpt>
      <trkpt lat="44.5117" lon="1.21295">
        <ele>189.4</ele>
        <time>2026-07-12T05:35:28Z</time>
      </trkpt>
      <trkpt lat="44.51169" lon="1.21299">
        <ele>189.6</ele>
        <time>2026-07-12T05:35:29Z</time>
      </trkpt>
      <trkpt lat="44.51169" lon="1.21303">
        <ele>189.9</ele>
        <time>2026-07-12T05:35:30Z</time>
      </trkpt>
      <trkpt lat="44.51169" lon="1.21308">
        <ele>190.1</ele>
        <time>2026-07-12T05:35:31Z</time>
      </trkpt>
      <trkpt lat="44.51169" lon="1.21312">
        <ele>190.4</ele>
        <time>2026-07-12T05:35:32Z</time>
      </trkpt>
      <trkpt lat="44.51168" lon="1.21316">
        <ele>190.5</ele>
        <time>2026-07-12T05:35:33Z</time>
      </trkpt>
      <trkpt lat="44.51168" lon="1.21321">
        <ele>190.8</ele>
        <time>2026-07-12T05:35:34Z</time>
      </trkpt>
      <trkpt lat="44.51168" lon="1.21325">
        <ele>191</ele>
        <time>2026-07-12T05:35:35Z</time>
      </trkpt>
      <trkpt lat="44.51168" lon="1.21329">
        <ele>191.2</ele>
        <time>2026-07-12T05:35:36Z</time>
      </trkpt>
      <trkpt lat="44.51167" lon="1.21334">
        <ele>191.2</ele>
        <time>2026-07-12T05:35:37Z</time>
      </trkpt>
      <trkpt lat="44.51167" lon="1.21339">
        <ele>191.4</ele>
        <time>2026-07-12T05:35:38Z</time>
      </trkpt>
      <trkpt lat="44.51166" lon="1.21343">
        <ele>191.7</ele>
        <time>2026-07-12T05:35:39Z</time>
      </trkpt>
      <trkpt lat="44.51166" lon="1.21347">
        <ele>192</ele>
        <time>2026-07-12T05:35:40Z</time>
      </trkpt>
      <trkpt lat="44.51165" lon="1.21351">
        <ele>192.2</ele>
        <time>2026-07-12T05:35:41Z</time>
      </trkpt>
      <trkpt lat="44.51165" lon="1.21356">
        <ele>192.5</ele>
        <time>2026-07-12T05:35:42Z</time>
      </trkpt>
      <trkpt lat="44.51164" lon="1.21359">
        <ele>192.7</ele>
        <time>2026-07-12T05:35:43Z</time>
      </trkpt>
      <trkpt lat="44.51163" lon="1.21363">
        <ele>193</ele>
        <time>2026-07-12T05:35:44Z</time>
      </trkpt>
      <trkpt lat="44.51162" lon="1.21366">
        <ele>193.4</ele>
        <time>2026-07-12T05:35:45Z</time>
      </trkpt>
      <trkpt lat="44.51161" lon="1.2137">
        <ele>193.8</ele>
        <time>2026-07-12T05:35:46Z</time>
      </trkpt>
      <trkpt lat="44.51159" lon="1.21375">
        <ele>194.2</ele>
        <time>2026-07-12T05:35:47Z</time>
      </trkpt>
      <trkpt lat="44.51158" lon="1.21379">
        <ele>194.5</ele>
        <time>2026-07-12T05:35:48Z</time>
      </trkpt>
      <trkpt lat="44.51157" lon="1.21381">
        <ele>194.7</ele>
        <time>2026-07-12T05:35:49Z</time>
      </trkpt>
      <trkpt lat="44.51156" lon="1.21384">
        <ele>194.9</ele>
        <time>2026-07-12T05:35:50Z</time>
      </trkpt>
      <trkpt lat="44.51154" lon="1.21389">
        <ele>195.2</ele>
        <time>2026-07-12T05:35:51Z</time>
      </trkpt>
      <trkpt lat="44.51154" lon="1.21394">
        <ele>196</ele>
        <time>2026-07-12T05:35:52Z</time>
      </trkpt>
      <trkpt lat="44.51153" lon="1.21398">
        <ele>196.5</ele>
        <time>2026-07-12T05:35:53Z</time>
      </trkpt>
      <trkpt lat="44.51152" lon="1.21401">
        <ele>196.8</ele>
        <time>2026-07-12T05:35:54Z</time>
      </trkpt>
      <trkpt lat="44.5115" lon="1.21404">
        <ele>196.9</ele>
        <time>2026-07-12T05:35:55Z</time>
      </trkpt>
      <trkpt lat="44.51148" lon="1.21408">
        <ele>197.1</ele>
        <time>2026-07-12T05:35:56Z</time>
      </trkpt>
      <trkpt lat="44.51147" lon="1.21412">
        <ele>197.3</ele>
        <time>2026-07-12T05:35:57Z</time>
      </trkpt>
      <trkpt lat="44.51145" lon="1.21416">
        <ele>197.4</ele>
        <time>2026-07-12T05:35:58Z</time>
      </trkpt>
      <trkpt lat="44.51144" lon="1.21419">
        <ele>197.7</ele>
        <time>2026-07-12T05:35:59Z</time>
      </trkpt>
      <trkpt lat="44.51143" lon="1.21423">
        <ele>197.8</ele>
        <time>2026-07-12T05:36:00Z</time>
      </trkpt>
      <trkpt lat="44.51141" lon="1.21425">
        <ele>197.8</ele>
        <time>2026-07-12T05:36:01Z</time>
      </trkpt>
      <trkpt lat="44.5114" lon="1.21428">
        <ele>197.9</ele>
        <time>2026-07-12T05:36:02Z</time>
      </trkpt>
      <trkpt lat="44.51138" lon="1.21433">
        <ele>198.3</ele>
        <time>2026-07-12T05:36:03Z</time>
      </trkpt>
      <trkpt lat="44.51137" lon="1.21437">
        <ele>198.8</ele>
        <time>2026-07-12T05:36:04Z</time>
      </trkpt>
      <trkpt lat="44.51136" lon="1.21442">
        <ele>199.4</ele>
        <time>2026-07-12T05:36:05Z</time>
      </trkpt>
      <trkpt lat="44.51134" lon="1.21446">
        <ele>199.7</ele>
        <time>2026-07-12T05:36:06Z</time>
      </trkpt>
      <trkpt lat="44.51132" lon="1.21452">
        <ele>200.1</ele>
        <time>2026-07-12T05:36:07Z</time>
      </trkpt>
      <trkpt lat="44.51131" lon="1.21455">
        <ele>200.4</ele>
        <time>2026-07-12T05:36:08Z</time>
      </trkpt>
      <trkpt lat="44.51129" lon="1.21459">
        <ele>200.6</ele>
        <time>2026-07-12T05:36:09Z</time>
      </trkpt>
      <trkpt lat="44.51127" lon="1.21463">
        <ele>200.8</ele>
        <time>2026-07-12T05:36:10Z</time>
      </trkpt>
      <trkpt lat="44.51124" lon="1.21467">
        <ele>200.8</ele>
        <time>2026-07-12T05:36:11Z</time>
      </trkpt>
      <trkpt lat="44.51122" lon="1.21469">
        <ele>200.7</ele>
        <time>2026-07-12T05:36:12Z</time>
      </trkpt>
      <trkpt lat="44.51119" lon="1.21472">
        <ele>200.5</ele>
        <time>2026-07-12T05:36:13Z</time>
      </trkpt>
      <trkpt lat="44.51117" lon="1.21476">
        <ele>200.6</ele>
        <time>2026-07-12T05:36:14Z</time>
      </trkpt>
      <trkpt lat="44.51115" lon="1.2148">
        <ele>200.8</ele>
        <time>2026-07-12T05:36:15Z</time>
      </trkpt>
      <trkpt lat="44.51114" lon="1.21483">
        <ele>201</ele>
        <time>2026-07-12T05:36:16Z</time>
      </trkpt>
      <trkpt lat="44.51112" lon="1.21486">
        <ele>201.1</ele>
        <time>2026-07-12T05:36:17Z</time>
      </trkpt>
      <trkpt lat="44.5111" lon="1.21488">
        <ele>201.3</ele>
        <time>2026-07-12T05:36:18Z</time>
      </trkpt>
      <trkpt lat="44.51108" lon="1.2149">
        <ele>201.8</ele>
        <time>2026-07-12T05:36:19Z</time>
      </trkpt>
      <trkpt lat="44.51106" lon="1.21494">
        <ele>202.5</ele>
        <time>2026-07-12T05:36:20Z</time>
      </trkpt>
      <trkpt lat="44.51103" lon="1.21496">
        <ele>202.8</ele>
        <time>2026-07-12T05:36:21Z</time>
      </trkpt>
      <trkpt lat="44.51099" lon="1.21498">
        <ele>203.2</ele>
        <time>2026-07-12T05:36:22Z</time>
      </trkpt>
      <trkpt lat="44.51096" lon="1.21501">
        <ele>203.6</ele>
        <time>2026-07-12T05:36:23Z</time>
      </trkpt>
      <trkpt lat="44.51093" lon="1.21502">
        <ele>203.9</ele>
        <time>2026-07-12T05:36:24Z</time>
      </trkpt>
      <trkpt lat="44.51091" lon="1.21505">
        <ele>204.3</ele>
        <time>2026-07-12T05:36:25Z</time>
      </trkpt>
      <trkpt lat="44.51089" lon="1.21507">
        <ele>204.6</ele>
        <time>2026-07-12T05:36:26Z</time>
      </trkpt>
      <trkpt lat="44.51087" lon="1.2151">
        <ele>204.9</ele>
        <time>2026-07-12T05:36:27Z</time>
      </trkpt>
      <trkpt lat="44.51085" lon="1.21512">
        <ele>205.2</ele>
        <time>2026-07-12T05:36:28Z</time>
      </trkpt>
      <trkpt lat="44.51083" lon="1.21513">
        <ele>205.4</ele>
        <time>2026-07-12T05:36:29Z</time>
      </trkpt>
      <trkpt lat="44.5108" lon="1.21516">
        <ele>206.2</ele>
        <time>2026-07-12T05:36:30Z</time>
      </trkpt>
      <trkpt lat="44.51075" lon="1.21519">
        <ele>207.3</ele>
        <time>2026-07-12T05:36:31Z</time>
      </trkpt>
      <trkpt lat="44.51072" lon="1.2152">
        <ele>208</ele>
        <time>2026-07-12T05:36:32Z</time>
      </trkpt>
      <trkpt lat="44.5107" lon="1.21521">
        <ele>208.4</ele>
        <time>2026-07-12T05:36:33Z</time>
      </trkpt>
      <trkpt lat="44.51067" lon="1.21524">
        <ele>208.9</ele>
        <time>2026-07-12T05:36:34Z</time>
      </trkpt>
      <trkpt lat="44.51066" lon="1.21525">
        <ele>209.2</ele>
        <time>2026-07-12T05:36:35Z</time>
      </trkpt>
      <trkpt lat="44.51065" lon="1.21528">
        <ele>209.7</ele>
        <time>2026-07-12T05:36:36Z</time>
      </trkpt>
      <trkpt lat="44.51063" lon="1.21531">
        <ele>210.1</ele>
        <time>2026-07-12T05:36:37Z</time>
      </trkpt>
      <trkpt lat="44.51063" lon="1.21533">
        <ele>210.4</ele>
        <time>2026-07-12T05:36:38Z</time>
      </trkpt>
      <trkpt lat="44.51064" lon="1.21538">
        <ele>210.6</ele>
        <time>2026-07-12T05:36:39Z</time>
      </trkpt>
      <trkpt lat="44.51065" lon="1.21541">
        <ele>210.7</ele>
        <time>2026-07-12T05:36:40Z</time>
      </trkpt>
      <trkpt lat="44.51067" lon="1.21544">
        <ele>210.7</ele>
        <time>2026-07-12T05:36:41Z</time>
      </trkpt>
      <trkpt lat="44.51068" lon="1.21546">
        <ele>210.8</ele>
        <time>2026-07-12T05:36:42Z</time>
      </trkpt>
      <trkpt lat="44.5107" lon="1.21548">
        <ele>210.8</ele>
        <time>2026-07-12T05:36:43Z</time>
      </trkpt>
      <trkpt lat="44.51071" lon="1.2155">
        <ele>210.9</ele>
        <time>2026-07-12T05:36:44Z</time>
      </trkpt>
      <trkpt lat="44.51072" lon="1.21552">
        <ele>211</ele>
        <time>2026-07-12T05:36:45Z</time>
      </trkpt>
      <trkpt lat="44.51073" lon="1.21555">
        <ele>211</ele>
        <time>2026-07-12T05:36:46Z</time>
      </trkpt>
      <trkpt lat="44.51073" lon="1.21556">
        <ele>211.3</ele>
        <time>2026-07-12T05:36:47Z</time>
      </trkpt>
      <trkpt lat="44.51074" lon="1.21558">
        <ele>211.7</ele>
        <time>2026-07-12T05:36:48Z</time>
      </trkpt>
      <trkpt lat="44.51075" lon="1.21559">
        <ele>212</ele>
        <time>2026-07-12T05:36:49Z</time>
      </trkpt>
      <trkpt lat="44.51076" lon="1.2156">
        <ele>212.2</ele>
        <time>2026-07-12T05:36:50Z</time>
      </trkpt>
      <trkpt lat="44.51077" lon="1.21562">
        <ele>212.5</ele>
        <time>2026-07-12T05:36:51Z</time>
      </trkpt>
      <trkpt lat="44.51081" lon="1.21565">
        <ele>213</ele>
        <time>2026-07-12T05:36:52Z</time>
      </trkpt>
      <trkpt lat="44.51085" lon="1.21569">
        <ele>213.7</ele>
        <time>2026-07-12T05:36:53Z</time>
      </trkpt>
      <trkpt lat="44.51088" lon="1.21572">
        <ele>214.3</ele>
        <time>2026-07-12T05:36:54Z</time>
      </trkpt>
      <trkpt lat="44.5109" lon="1.21576">
        <ele>215.1</ele>
        <time>2026-07-12T05:36:55Z</time>
      </trkpt>
      <trkpt lat="44.51092" lon="1.21579">
        <ele>215.8</ele>
        <time>2026-07-12T05:36:56Z</time>
      </trkpt>
      <trkpt lat="44.51094" lon="1.21583">
        <ele>216.4</ele>
        <time>2026-07-12T05:36:57Z</time>
      </trkpt>
      <trkpt lat="44.51096" lon="1.21587">
        <ele>216.9</ele>
        <time>2026-07-12T05:36:58Z</time>
      </trkpt>
      <trkpt lat="44.51098" lon="1.21591">
        <ele>217.3</ele>
        <time>2026-07-12T05:36:59Z</time>
      </trkpt>
      <trkpt lat="44.51101" lon="1.21595">
        <ele>217.5</ele>
        <time>2026-07-12T05:37:00Z</time>
      </trkpt>
      <trkpt lat="44.51102" lon="1.21598">
        <ele>217.8</ele>
        <time>2026-07-12T05:37:01Z</time>
      </trkpt>
      <trkpt lat="44.51104" lon="1.21602">
        <ele>217.9</ele>
        <time>2026-07-12T05:37:02Z</time>
      </trkpt>
      <trkpt lat="44.51107" lon="1.21605">
        <ele>217.9</ele>
        <time>2026-07-12T05:37:03Z</time>
      </trkpt>
      <trkpt lat="44.5111" lon="1.21607">
        <ele>217.7</ele>
        <time>2026-07-12T05:37:04Z</time>
      </trkpt>
      <trkpt lat="44.51113" lon="1.2161">
        <ele>218.3</ele>
        <time>2026-07-12T05:37:05Z</time>
      </trkpt>
      <trkpt lat="44.51116" lon="1.21612">
        <ele>219.4</ele>
        <time>2026-07-12T05:37:06Z</time>
      </trkpt>
      <trkpt lat="44.5112" lon="1.21614">
        <ele>220.8</ele>
        <time>2026-07-12T05:37:07Z</time>
      </trkpt>
      <trkpt lat="44.51123" lon="1.21616">
        <ele>222.1</ele>
        <time>2026-07-12T05:37:08Z</time>
      </trkpt>
      <trkpt lat="44.51126" lon="1.21616">
        <ele>223</ele>
        <time>2026-07-12T05:37:09Z</time>
      </trkpt>
      <trkpt lat="44.51128" lon="1.21617">
        <ele>223.6</ele>
        <time>2026-07-12T05:37:10Z</time>
      </trkpt>
      <trkpt lat="44.51131" lon="1.21616">
        <ele>224.2</ele>
        <time>2026-07-12T05:37:11Z</time>
      </trkpt>
      <trkpt lat="44.51133" lon="1.21615">
        <ele>224.5</ele>
        <time>2026-07-12T05:37:12Z</time>
      </trkpt>
      <trkpt lat="44.51135" lon="1.21614">
        <ele>224.7</ele>
        <time>2026-07-12T05:37:13Z</time>
      </trkpt>
      <trkpt lat="44.51137" lon="1.21612">
        <ele>224.7</ele>
        <time>2026-07-12T05:37:14Z</time>
      </trkpt>
      <trkpt lat="44.51139" lon="1.21609">
        <ele>224.6</ele>
        <time>2026-07-12T05:37:15Z</time>
      </trkpt>
      <trkpt lat="44.5114" lon="1.21608">
        <ele>224.9</ele>
        <time>2026-07-12T05:37:16Z</time>
      </trkpt>
      <trkpt lat="44.51142" lon="1.21606">
        <ele>225.3</ele>
        <time>2026-07-12T05:37:17Z</time>
      </trkpt>
      <trkpt lat="44.51144" lon="1.21604">
        <ele>225.4</ele>
        <time>2026-07-12T05:37:18Z</time>
      </trkpt>
      <trkpt lat="44.51146" lon="1.21602">
        <ele>225.8</ele>
        <time>2026-07-12T05:37:19Z</time>
      </trkpt>
      <trkpt lat="44.51147" lon="1.216">
        <ele>225.9</ele>
        <time>2026-07-12T05:37:20Z</time>
      </trkpt>
      <trkpt lat="44.51149" lon="1.21597">
        <ele>226</ele>
        <time>2026-07-12T05:37:21Z</time>
      </trkpt>
      <trkpt lat="44.51151" lon="1.21595">
        <ele>226.3</ele>
        <time>2026-07-12T05:37:22Z</time>
      </trkpt>
      <trkpt lat="44.51153" lon="1.21593">
        <ele>226.7</ele>
        <time>2026-07-12T05:37:23Z</time>
      </trkpt>
      <trkpt lat="44.51155" lon="1.21591">
        <ele>227</ele>
        <time>2026-07-12T05:37:24Z</time>
      </trkpt>
      <trkpt lat="44.51157" lon="1.21589">
        <ele>227.4</ele>
        <time>2026-07-12T05:37:25Z</time>
      </trkpt>
      <trkpt lat="44.51158" lon="1.21587">
        <ele>227.7</ele>
        <time>2026-07-12T05:37:26Z</time>
      </trkpt>
      <trkpt lat="44.51159" lon="1.21586">
        <ele>227.8</ele>
        <time>2026-07-12T05:37:27Z</time>
      </trkpt>
      <trkpt lat="44.51161" lon="1.21584">
        <ele>228.3</ele>
        <time>2026-07-12T05:37:28Z</time>
      </trkpt>
      <trkpt lat="44.51164" lon="1.21583">
        <ele>229</ele>
        <time>2026-07-12T05:37:29Z</time>
      </trkpt>
      <trkpt lat="44.51166" lon="1.21582">
        <ele>229.5</ele>
        <time>2026-07-12T05:37:30Z</time>
      </trkpt>
      <trkpt lat="44.51169" lon="1.2158">
        <ele>229.8</ele>
        <time>2026-07-12T05:37:31Z</time>
      </trkpt>
      <trkpt lat="44.51171" lon="1.21579">
        <ele>230.1</ele>
        <time>2026-07-12T05:37:32Z</time>
      </trkpt>
      <trkpt lat="44.51173" lon="1.21578">
        <ele>230.3</ele>
        <time>2026-07-12T05:37:33Z</time>
      </trkpt>
      <trkpt lat="44.51175" lon="1.21577">
        <ele>230.5</ele>
        <time>2026-07-12T05:37:34Z</time>
      </trkpt>
      <trkpt lat="44.51177" lon="1.21575">
        <ele>230.8</ele>
        <time>2026-07-12T05:37:35Z</time>
      </trkpt>
      <trkpt lat="44.51179" lon="1.21574">
        <ele>231</ele>
        <time>2026-07-12T05:37:36Z</time>
      </trkpt>
      <trkpt lat="44.51181" lon="1.21573">
        <ele>231.2</ele>
        <time>2026-07-12T05:37:37Z</time>
      </trkpt>
      <trkpt lat="44.51183" lon="1.21572">
        <ele>231.5</ele>
        <time>2026-07-12T05:37:38Z</time>
      </trkpt>
      <trkpt lat="44.51185" lon="1.21572">
        <ele>231.8</ele>
        <time>2026-07-12T05:37:39Z</time>
      </trkpt>
      <trkpt lat="44.51187" lon="1.21571">
        <ele>232.1</ele>
        <time>2026-07-12T05:37:40Z</time>
      </trkpt>
      <trkpt lat="44.51189" lon="1.2157">
        <ele>232.4</ele>
        <time>2026-07-12T05:37:41Z</time>
      </trkpt>
      <trkpt lat="44.51192" lon="1.21569">
        <ele>232.8</ele>
        <time>2026-07-12T05:37:42Z</time>
      </trkpt>
      <trkpt lat="44.51194" lon="1.21568">
        <ele>233.1</ele>
        <time>2026-07-12T05:37:43Z</time>
      </trkpt>
      <trkpt lat="44.51196" lon="1.21568">
        <ele>233.5</ele>
        <time>2026-07-12T05:37:44Z</time>
      </trkpt>
      <trkpt lat="44.51198" lon="1.21568">
        <ele>233.8</ele>
        <time>2026-07-12T05:37:45Z</time>
      </trkpt>
      <trkpt lat="44.51201" lon="1.21567">
        <ele>234.1</ele>
        <time>2026-07-12T05:37:46Z</time>
      </trkpt>
      <trkpt lat="44.51203" lon="1.21567">
        <ele>234.4</ele>
        <time>2026-07-12T05:37:47Z</time>
      </trkpt>
      <trkpt lat="44.51205" lon="1.21566">
        <ele>234.6</ele>
        <time>2026-07-12T05:37:48Z</time>
      </trkpt>
      <trkpt lat="44.51208" lon="1.21565">
        <ele>234.8</ele>
        <time>2026-07-12T05:37:49Z</time>
      </trkpt>
      <trkpt lat="44.5121" lon="1.21564">
        <ele>235.1</ele>
        <time>2026-07-12T05:37:50Z</time>
      </trkpt>
      <trkpt lat="44.51212" lon="1.21563">
        <ele>235.3</ele>
        <time>2026-07-12T05:37:51Z</time>
      </trkpt>
      <trkpt lat="44.51214" lon="1.21562">
        <ele>235.6</ele>
        <time>2026-07-12T05:37:52Z</time>
      </trkpt>
      <trkpt lat="44.51217" lon="1.21561">
        <ele>235.8</ele>
        <time>2026-07-12T05:37:53Z</time>
      </trkpt>
      <trkpt lat="44.51218" lon="1.2156">
        <ele>236</ele>
        <time>2026-07-12T05:37:54Z</time>
      </trkpt>
      <trkpt lat="44.5122" lon="1.2156">
        <ele>236.3</ele>
        <time>2026-07-12T05:37:55Z</time>
      </trkpt>
      <trkpt lat="44.51223" lon="1.21559">
        <ele>236.6</ele>
        <time>2026-07-12T05:37:56Z</time>
      </trkpt>
      <trkpt lat="44.51225" lon="1.21559">
        <ele>236.7</ele>
        <time>2026-07-12T05:37:57Z</time>
      </trkpt>
      <trkpt lat="44.51227" lon="1.21558">
        <ele>236.8</ele>
        <time>2026-07-12T05:37:58Z</time>
      </trkpt>
      <trkpt lat="44.5123" lon="1.21556">
        <ele>236.9</ele>
        <time>2026-07-12T05:37:59Z</time>
      </trkpt>
      <trkpt lat="44.51232" lon="1.21555">
        <ele>237</ele>
        <time>2026-07-12T05:38:00Z</time>
      </trkpt>
      <trkpt lat="44.51234" lon="1.21554">
        <ele>237</ele>
        <time>2026-07-12T05:38:01Z</time>
      </trkpt>
      <trkpt lat="44.51237" lon="1.21553">
        <ele>237.1</ele>
        <time>2026-07-12T05:38:02Z</time>
      </trkpt>
      <trkpt lat="44.51239" lon="1.21552">
        <ele>237.1</ele>
        <time>2026-07-12T05:38:03Z</time>
      </trkpt>
      <trkpt lat="44.51242" lon="1.21551">
        <ele>237.3</ele>
        <time>2026-07-12T05:38:04Z</time>
      </trkpt>
      <trkpt lat="44.51245" lon="1.2155">
        <ele>237.4</ele>
        <time>2026-07-12T05:38:05Z</time>
      </trkpt>
      <trkpt lat="44.51247" lon="1.21549">
        <ele>237.5</ele>
        <time>2026-07-12T05:38:06Z</time>
      </trkpt>
      <trkpt lat="44.51249" lon="1.21549">
        <ele>237.7</ele>
        <time>2026-07-12T05:38:07Z</time>
      </trkpt>
      <trkpt lat="44.51253" lon="1.21549">
        <ele>237.9</ele>
        <time>2026-07-12T05:38:08Z</time>
      </trkpt>
      <trkpt lat="44.51255" lon="1.21548">
        <ele>238</ele>
        <time>2026-07-12T05:38:09Z</time>
      </trkpt>
      <trkpt lat="44.51257" lon="1.21549">
        <ele>238.3</ele>
        <time>2026-07-12T05:38:10Z</time>
      </trkpt>
      <trkpt lat="44.5126" lon="1.21549">
        <ele>238.5</ele>
        <time>2026-07-12T05:38:11Z</time>
      </trkpt>
      <trkpt lat="44.51261" lon="1.21549">
        <ele>238.6</ele>
        <time>2026-07-12T05:38:12Z</time>
      </trkpt>
      <trkpt lat="44.51263" lon="1.2155">
        <ele>239</ele>
        <time>2026-07-12T05:38:13Z</time>
      </trkpt>
      <trkpt lat="44.51265" lon="1.21551">
        <ele>239.3</ele>
        <time>2026-07-12T05:38:14Z</time>
      </trkpt>
      <trkpt lat="44.51267" lon="1.21552">
        <ele>239.6</ele>
        <time>2026-07-12T05:38:15Z</time>
      </trkpt>
      <trkpt lat="44.51269" lon="1.21553">
        <ele>239.8</ele>
        <time>2026-07-12T05:38:16Z</time>
      </trkpt>
      <trkpt lat="44.5127" lon="1.21554">
        <ele>240.2</ele>
        <time>2026-07-12T05:38:17Z</time>
      </trkpt>
      <trkpt lat="44.51272" lon="1.21556">
        <ele>240.6</ele>
        <time>2026-07-12T05:38:18Z</time>
      </trkpt>
      <trkpt lat="44.51274" lon="1.21558">
        <ele>241</ele>
        <time>2026-07-12T05:38:19Z</time>
      </trkpt>
      <trkpt lat="44.51276" lon="1.2156">
        <ele>241.5</ele>
        <time>2026-07-12T05:38:20Z</time>
      </trkpt>
      <trkpt lat="44.51278" lon="1.21562">
        <ele>242</ele>
        <time>2026-07-12T05:38:21Z</time>
      </trkpt>
      <trkpt lat="44.51279" lon="1.21564">
        <ele>242.2</ele>
        <time>2026-07-12T05:38:22Z</time>
      </trkpt>
      <trkpt lat="44.51281" lon="1.21566">
        <ele>242.6</ele>
        <time>2026-07-12T05:38:23Z</time>
      </trkpt>
      <trkpt lat="44.51282" lon="1.21568">
        <ele>242.9</ele>
        <time>2026-07-12T05:38:24Z</time>
      </trkpt>
      <trkpt lat="44.51284" lon="1.2157">
        <ele>243.2</ele>
        <time>2026-07-12T05:38:25Z</time>
      </trkpt>
      <trkpt lat="44.51286" lon="1.21572">
        <ele>243.6</ele>
        <time>2026-07-12T05:38:26Z</time>
      </trkpt>
      <trkpt lat="44.51287" lon="1.21573">
        <ele>243.8</ele>
        <time>2026-07-12T05:38:27Z</time>
      </trkpt>
      <trkpt lat="44.5129" lon="1.21574">
        <ele>243.9</ele>
        <time>2026-07-12T05:38:28Z</time>
      </trkpt>
      <trkpt lat="44.51293" lon="1.21575">
        <ele>244.1</ele>
        <time>2026-07-12T05:38:29Z</time>
      </trkpt>
      <trkpt lat="44.51295" lon="1.21575">
        <ele>244.3</ele>
        <time>2026-07-12T05:38:30Z</time>
      </trkpt>
      <trkpt lat="44.51298" lon="1.21576">
        <ele>244.5</ele>
        <time>2026-07-12T05:38:31Z</time>
      </trkpt>
      <trkpt lat="44.51301" lon="1.21577">
        <ele>244.8</ele>
        <time>2026-07-12T05:38:32Z</time>
      </trkpt>
      <trkpt lat="44.51303" lon="1.21578">
        <ele>244.9</ele>
        <time>2026-07-12T05:38:33Z</time>
      </trkpt>
      <trkpt lat="44.51306" lon="1.21578">
        <ele>245.1</ele>
        <time>2026-07-12T05:38:34Z</time>
      </trkpt>
      <trkpt lat="44.5131" lon="1.21578">
        <ele>245.4</ele>
        <time>2026-07-12T05:38:35Z</time>
      </trkpt>
      <trkpt lat="44.51312" lon="1.21579">
        <ele>245.7</ele>
        <time>2026-07-12T05:38:36Z</time>
      </trkpt>
      <trkpt lat="44.51315" lon="1.21579">
        <ele>245.9</ele>
        <time>2026-07-12T05:38:37Z</time>
      </trkpt>
      <trkpt lat="44.51318" lon="1.21579">
        <ele>246.2</ele>
        <time>2026-07-12T05:38:38Z</time>
      </trkpt>
      <trkpt lat="44.5132" lon="1.21579">
        <ele>246.4</ele>
        <time>2026-07-12T05:38:39Z</time>
      </trkpt>
      <trkpt lat="44.51323" lon="1.21579">
        <ele>246.6</ele>
        <time>2026-07-12T05:38:40Z</time>
      </trkpt>
      <trkpt lat="44.51325" lon="1.21579">
        <ele>246.8</ele>
        <time>2026-07-12T05:38:41Z</time>
      </trkpt>
      <trkpt lat="44.51328" lon="1.21578">
        <ele>246.8</ele>
        <time>2026-07-12T05:38:42Z</time>
      </trkpt>
      <trkpt lat="44.5133" lon="1.21578">
        <ele>246.9</ele>
        <time>2026-07-12T05:38:43Z</time>
      </trkpt>
      <trkpt lat="44.51333" lon="1.21577">
        <ele>247.1</ele>
        <time>2026-07-12T05:38:44Z</time>
      </trkpt>
      <trkpt lat="44.51336" lon="1.21577">
        <ele>247.2</ele>
        <time>2026-07-12T05:38:45Z</time>
      </trkpt>
      <trkpt lat="44.51338" lon="1.21577">
        <ele>247.3</ele>
        <time>2026-07-12T05:38:46Z</time>
      </trkpt>
      <trkpt lat="44.51341" lon="1.21576">
        <ele>247.3</ele>
        <time>2026-07-12T05:38:47Z</time>
      </trkpt>
      <trkpt lat="44.51343" lon="1.21576">
        <ele>247.4</ele>
        <time>2026-07-12T05:38:48Z</time>
      </trkpt>
      <trkpt lat="44.51345" lon="1.21576">
        <ele>247.4</ele>
        <time>2026-07-12T05:38:49Z</time>
      </trkpt>
      <trkpt lat="44.51348" lon="1.21575">
        <ele>247.5</ele>
        <time>2026-07-12T05:38:50Z</time>
      </trkpt>
      <trkpt lat="44.51351" lon="1.21574">
        <ele>247.6</ele>
        <time>2026-07-12T05:38:51Z</time>
      </trkpt>
      <trkpt lat="44.51353" lon="1.21574">
        <ele>247.6</ele>
        <time>2026-07-12T05:38:52Z</time>
      </trkpt>
      <trkpt lat="44.51356" lon="1.21573">
        <ele>247.7</ele>
        <time>2026-07-12T05:38:53Z</time>
      </trkpt>
      <trkpt lat="44.51358" lon="1.21573">
        <ele>247.7</ele>
        <time>2026-07-12T05:38:54Z</time>
      </trkpt>
      <trkpt lat="44.51361" lon="1.21572">
        <ele>247.7</ele>
        <time>2026-07-12T05:38:55Z</time>
      </trkpt>
      <trkpt lat="44.51364" lon="1.2157">
        <ele>247.6</ele>
        <time>2026-07-12T05:38:56Z</time>
      </trkpt>
      <trkpt lat="44.51366" lon="1.21569">
        <ele>247.6</ele>
        <time>2026-07-12T05:38:57Z</time>
      </trkpt>
      <trkpt lat="44.51369" lon="1.21568">
        <ele>247.5</ele>
        <time>2026-07-12T05:38:58Z</time>
      </trkpt>
      <trkpt lat="44.51371" lon="1.21566">
        <ele>247.4</ele>
        <time>2026-07-12T05:38:59Z</time>
      </trkpt>
      <trkpt lat="44.51374" lon="1.21565">
        <ele>247.3</ele>
        <time>2026-07-12T05:39:00Z</time>
      </trkpt>
      <trkpt lat="44.51376" lon="1.21563">
        <ele>247.2</ele>
        <time>2026-07-12T05:39:01Z</time>
      </trkpt>
      <trkpt lat="44.51379" lon="1.21562">
        <ele>247.2</ele>
        <time>2026-07-12T05:39:02Z</time>
      </trkpt>
      <trkpt lat="44.51382" lon="1.2156">
        <ele>247.1</ele>
        <time>2026-07-12T05:39:03Z</time>
      </trkpt>
      <trkpt lat="44.51384" lon="1.21559">
        <ele>247.1</ele>
        <time>2026-07-12T05:39:04Z</time>
      </trkpt>
      <trkpt lat="44.51386" lon="1.21557">
        <ele>247</ele>
        <time>2026-07-12T05:39:05Z</time>
      </trkpt>
      <trkpt lat="44.51389" lon="1.21556">
        <ele>247</ele>
        <time>2026-07-12T05:39:06Z</time>
      </trkpt>
      <trkpt lat="44.51392" lon="1.21554">
        <ele>246.8</ele>
        <time>2026-07-12T05:39:07Z</time>
      </trkpt>
      <trkpt lat="44.51394" lon="1.21552">
        <ele>246.6</ele>
        <time>2026-07-12T05:39:08Z</time>
      </trkpt>
      <trkpt lat="44.51397" lon="1.2155">
        <ele>246.4</ele>
        <time>2026-07-12T05:39:09Z</time>
      </trkpt>
      <trkpt lat="44.51399" lon="1.21549">
        <ele>246.2</ele>
        <time>2026-07-12T05:39:10Z</time>
      </trkpt>
      <trkpt lat="44.51497" lon="1.2152">
        <ele>239.3</ele>
        <time>2026-07-12T05:39:34Z</time>
      </trkpt>
      <trkpt lat="44.51503" lon="1.21518">
        <ele>238.9</ele>
        <time>2026-07-12T05:39:35Z</time>
      </trkpt>
      <trkpt lat="44.51509" lon="1.21517">
        <ele>238.5</ele>
        <time>2026-07-12T05:39:36Z</time>
      </trkpt>
      <trkpt lat="44.51514" lon="1.21518">
        <ele>238.3</ele>
        <time>2026-07-12T05:39:37Z</time>
      </trkpt>
      <trkpt lat="44.51519" lon="1.21519">
        <ele>238.1</ele>
        <time>2026-07-12T05:39:38Z</time>
      </trkpt>
      <trkpt lat="44.5153" lon="1.21521">
        <ele>237.6</ele>
        <time>2026-07-12T05:39:40Z</time>
      </trkpt>
      <trkpt lat="44.51541" lon="1.21522">
        <ele>237.1</ele>
        <time>2026-07-12T05:39:42Z</time>
      </trkpt>
      <trkpt lat="44.51552" lon="1.21526">
        <ele>236.9</ele>
        <time>2026-07-12T05:39:44Z</time>
      </trkpt>
      <trkpt lat="44.51566" lon="1.21528">
        <ele>236.3</ele>
        <time>2026-07-12T05:39:47Z</time>
      </trkpt>
      <trkpt lat="44.5157" lon="1.21529">
        <ele>236</ele>
        <time>2026-07-12T05:39:48Z</time>
      </trkpt>
      <trkpt lat="44.51574" lon="1.2153">
        <ele>235.7</ele>
        <time>2026-07-12T05:39:49Z</time>
      </trkpt>
      <trkpt lat="44.51579" lon="1.21531">
        <ele>235.5</ele>
        <time>2026-07-12T05:39:50Z</time>
      </trkpt>
      <trkpt lat="44.51583" lon="1.21531">
        <ele>235.1</ele>
        <time>2026-07-12T05:39:51Z</time>
      </trkpt>
      <trkpt lat="44.51597" lon="1.21531">
        <ele>233.5</ele>
        <time>2026-07-12T05:39:54Z</time>
      </trkpt>
      <trkpt lat="44.51611" lon="1.21527">
        <ele>232</ele>
        <time>2026-07-12T05:39:57Z</time>
      </trkpt>
      <trkpt lat="44.51625" lon="1.21526">
        <ele>232</ele>
        <time>2026-07-12T05:39:59Z</time>
      </trkpt>
      <trkpt lat="44.51629" lon="1.21525">
        <ele>232</ele>
        <time>2026-07-12T05:40:00Z</time>
      </trkpt>
      <trkpt lat="44.51646" lon="1.21524">
        <ele>232</ele>
        <time>2026-07-12T05:40:03Z</time>
      </trkpt>
      <trkpt lat="44.51652" lon="1.21524">
        <ele>232</ele>
        <time>2026-07-12T05:40:04Z</time>
      </trkpt>
      <trkpt lat="44.51657" lon="1.21524">
        <ele>232</ele>
        <time>2026-07-12T05:40:05Z</time>
      </trkpt>
      <trkpt lat="44.51661" lon="1.21525">
        <ele>232</ele>
        <time>2026-07-12T05:40:06Z</time>
      </trkpt>
      <trkpt lat="44.51665" lon="1.21526">
        <ele>232</ele>
        <time>2026-07-12T05:40:07Z</time>
      </trkpt>
      <trkpt lat="44.51669" lon="1.21528">
        <ele>232.3</ele>
        <time>2026-07-12T05:40:08Z</time>
      </trkpt>
      <trkpt lat="44.51673" lon="1.21529">
        <ele>232.6</ele>
        <time>2026-07-12T05:40:09Z</time>
      </trkpt>
      <trkpt lat="44.51677" lon="1.21531">
        <ele>232.9</ele>
        <time>2026-07-12T05:40:10Z</time>
      </trkpt>
      <trkpt lat="44.5168" lon="1.21533">
        <ele>233.2</ele>
        <time>2026-07-12T05:40:11Z</time>
      </trkpt>
      <trkpt lat="44.51684" lon="1.21535">
        <ele>233.5</ele>
        <time>2026-07-12T05:40:12Z</time>
      </trkpt>
      <trkpt lat="44.51688" lon="1.21536">
        <ele>233.9</ele>
        <time>2026-07-12T05:40:13Z</time>
      </trkpt>
      <trkpt lat="44.51692" lon="1.21537">
        <ele>234.4</ele>
        <time>2026-07-12T05:40:14Z</time>
      </trkpt>
      <trkpt lat="44.51696" lon="1.21537">
        <ele>234.8</ele>
        <time>2026-07-12T05:40:15Z</time>
      </trkpt>
      <trkpt lat="44.51703" lon="1.21539">
        <ele>235.4</ele>
        <time>2026-07-12T05:40:17Z</time>
      </trkpt>
      <trkpt lat="44.51707" lon="1.21539">
        <ele>235.7</ele>
        <time>2026-07-12T05:40:18Z</time>
      </trkpt>
      <trkpt lat="44.51711" lon="1.2154">
        <ele>236</ele>
        <time>2026-07-12T05:40:19Z</time>
      </trkpt>
      <trkpt lat="44.51715" lon="1.21541">
        <ele>236.3</ele>
        <time>2026-07-12T05:40:20Z</time>
      </trkpt>
      <trkpt lat="44.51718" lon="1.21542">
        <ele>236.6</ele>
        <time>2026-07-12T05:40:21Z</time>
      </trkpt>
      <trkpt lat="44.51722" lon="1.21543">
        <ele>237</ele>
        <time>2026-07-12T05:40:22Z</time>
      </trkpt>
      <trkpt lat="44.51725" lon="1.21543">
        <ele>237.2</ele>
        <time>2026-07-12T05:40:23Z</time>
      </trkpt>
      <trkpt lat="44.51729" lon="1.21544">
        <ele>237.4</ele>
        <time>2026-07-12T05:40:24Z</time>
      </trkpt>
      <trkpt lat="44.51737" lon="1.21546">
        <ele>237.9</ele>
        <time>2026-07-12T05:40:26Z</time>
      </trkpt>
      <trkpt lat="44.51754" lon="1.21555">
        <ele>239</ele>
        <time>2026-07-12T05:40:31Z</time>
      </trkpt>
      <trkpt lat="44.51757" lon="1.21557">
        <ele>239.1</ele>
        <time>2026-07-12T05:40:32Z</time>
      </trkpt>
      <trkpt lat="44.51764" lon="1.21561">
        <ele>239.3</ele>
        <time>2026-07-12T05:40:34Z</time>
      </trkpt>
      <trkpt lat="44.51767" lon="1.21563">
        <ele>239.4</ele>
        <time>2026-07-12T05:40:35Z</time>
      </trkpt>
      <trkpt lat="44.5177" lon="1.21565">
        <ele>239.6</ele>
        <time>2026-07-12T05:40:36Z</time>
      </trkpt>
      <trkpt lat="44.51773" lon="1.21567">
        <ele>239.8</ele>
        <time>2026-07-12T05:40:37Z</time>
      </trkpt>
      <trkpt lat="44.51776" lon="1.21571">
        <ele>240.1</ele>
        <time>2026-07-12T05:40:38Z</time>
      </trkpt>
      <trkpt lat="44.51779" lon="1.21575">
        <ele>240.2</ele>
        <time>2026-07-12T05:40:39Z</time>
      </trkpt>
      <trkpt lat="44.51781" lon="1.21579">
        <ele>240.2</ele>
        <time>2026-07-12T05:40:40Z</time>
      </trkpt>
      <trkpt lat="44.51784" lon="1.21583">
        <ele>240.3</ele>
        <time>2026-07-12T05:40:41Z</time>
      </trkpt>
      <trkpt lat="44.51786" lon="1.21587">
        <ele>240.5</ele>
        <time>2026-07-12T05:40:42Z</time>
      </trkpt>
      <trkpt lat="44.51788" lon="1.21591">
        <ele>240.7</ele>
        <time>2026-07-12T05:40:43Z</time>
      </trkpt>
      <trkpt lat="44.5179" lon="1.21595">
        <ele>241</ele>
        <time>2026-07-12T05:40:44Z</time>
      </trkpt>
      <trkpt lat="44.51792" lon="1.216">
        <ele>241.3</ele>
        <time>2026-07-12T05:40:45Z</time>
      </trkpt>
      <trkpt lat="44.51793" lon="1.21604">
        <ele>241.6</ele>
        <time>2026-07-12T05:40:46Z</time>
      </trkpt>
      <trkpt lat="44.51794" lon="1.21608">
        <ele>242</ele>
        <time>2026-07-12T05:40:47Z</time>
      </trkpt>
      <trkpt lat="44.51796" lon="1.21613">
        <ele>242.5</ele>
        <time>2026-07-12T05:40:48Z</time>
      </trkpt>
      <trkpt lat="44.51797" lon="1.21617">
        <ele>242.7</ele>
        <time>2026-07-12T05:40:49Z</time>
      </trkpt>
      <trkpt lat="44.51798" lon="1.21621">
        <ele>243</ele>
        <time>2026-07-12T05:40:50Z</time>
      </trkpt>
      <trkpt lat="44.518" lon="1.21626">
        <ele>243.2</ele>
        <time>2026-07-12T05:40:51Z</time>
      </trkpt>
      <trkpt lat="44.51802" lon="1.2163">
        <ele>243.5</ele>
        <time>2026-07-12T05:40:52Z</time>
      </trkpt>
      <trkpt lat="44.51803" lon="1.21634">
        <ele>243.7</ele>
        <time>2026-07-12T05:40:53Z</time>
      </trkpt>
      <trkpt lat="44.51805" lon="1.21638">
        <ele>244</ele>
        <time>2026-07-12T05:40:54Z</time>
      </trkpt>
      <trkpt lat="44.51807" lon="1.21643">
        <ele>244</ele>
        <time>2026-07-12T05:40:55Z</time>
      </trkpt>
      <trkpt lat="44.51808" lon="1.21647">
        <ele>243.9</ele>
        <time>2026-07-12T05:40:56Z</time>
      </trkpt>
      <trkpt lat="44.5181" lon="1.21652">
        <ele>243.9</ele>
        <time>2026-07-12T05:40:57Z</time>
      </trkpt>
      <trkpt lat="44.51812" lon="1.21657">
        <ele>243.9</ele>
        <time>2026-07-12T05:40:58Z</time>
      </trkpt>
      <trkpt lat="44.51813" lon="1.21662">
        <ele>243.9</ele>
        <time>2026-07-12T05:40:59Z</time>
      </trkpt>
      <trkpt lat="44.51815" lon="1.21666">
        <ele>243.9</ele>
        <time>2026-07-12T05:41:00Z</time>
      </trkpt>
      <trkpt lat="44.51817" lon="1.21671">
        <ele>244</ele>
        <time>2026-07-12T05:41:01Z</time>
      </trkpt>
      <trkpt lat="44.51819" lon="1.21676">
        <ele>244.1</ele>
        <time>2026-07-12T05:41:02Z</time>
      </trkpt>
      <trkpt lat="44.51821" lon="1.2168">
        <ele>244.2</ele>
        <time>2026-07-12T05:41:03Z</time>
      </trkpt>
      <trkpt lat="44.51822" lon="1.21684">
        <ele>244.4</ele>
        <time>2026-07-12T05:41:04Z</time>
      </trkpt>
      <trkpt lat="44.51825" lon="1.21689">
        <ele>244.6</ele>
        <time>2026-07-12T05:41:05Z</time>
      </trkpt>
      <trkpt lat="44.51827" lon="1.21693">
        <ele>244.8</ele>
        <time>2026-07-12T05:41:06Z</time>
      </trkpt>
      <trkpt lat="44.51828" lon="1.21698">
        <ele>245.1</ele>
        <time>2026-07-12T05:41:07Z</time>
      </trkpt>
      <trkpt lat="44.51831" lon="1.21702">
        <ele>245.4</ele>
        <time>2026-07-12T05:41:08Z</time>
      </trkpt>
      <trkpt lat="44.51833" lon="1.21706">
        <ele>245.7</ele>
        <time>2026-07-12T05:41:09Z</time>
      </trkpt>
      <trkpt lat="44.51835" lon="1.2171">
        <ele>246.1</ele>
        <time>2026-07-12T05:41:10Z</time>
      </trkpt>
      <trkpt lat="44.51837" lon="1.21715">
        <ele>246.4</ele>
        <time>2026-07-12T05:41:11Z</time>
      </trkpt>
      <trkpt lat="44.51839" lon="1.21718">
        <ele>246.5</ele>
        <time>2026-07-12T05:41:12Z</time>
      </trkpt>
      <trkpt lat="44.51841" lon="1.21721">
        <ele>246.7</ele>
        <time>2026-07-12T05:41:13Z</time>
      </trkpt>
      <trkpt lat="44.51844" lon="1.21725">
        <ele>246.9</ele>
        <time>2026-07-12T05:41:14Z</time>
      </trkpt>
      <trkpt lat="44.51846" lon="1.21729">
        <ele>247.1</ele>
        <time>2026-07-12T05:41:15Z</time>
      </trkpt>
      <trkpt lat="44.51848" lon="1.21733">
        <ele>247.4</ele>
        <time>2026-07-12T05:41:16Z</time>
      </trkpt>
      <trkpt lat="44.5185" lon="1.21736">
        <ele>247.7</ele>
        <time>2026-07-12T05:41:17Z</time>
      </trkpt>
      <trkpt lat="44.51852" lon="1.2174">
        <ele>248</ele>
        <time>2026-07-12T05:41:18Z</time>
      </trkpt>
      <trkpt lat="44.51855" lon="1.21743">
        <ele>248.3</ele>
        <time>2026-07-12T05:41:19Z</time>
      </trkpt>
      <trkpt lat="44.51857" lon="1.21747">
        <ele>248.7</ele>
        <time>2026-07-12T05:41:20Z</time>
      </trkpt>
      <trkpt lat="44.51859" lon="1.21749">
        <ele>249</ele>
        <time>2026-07-12T05:41:21Z</time>
      </trkpt>
      <trkpt lat="44.51862" lon="1.21752">
        <ele>249.3</ele>
        <time>2026-07-12T05:41:22Z</time>
      </trkpt>
      <trkpt lat="44.51865" lon="1.21757">
        <ele>249.3</ele>
        <time>2026-07-12T05:41:23Z</time>
      </trkpt>
      <trkpt lat="44.51867" lon="1.2176">
        <ele>249.5</ele>
        <time>2026-07-12T05:41:24Z</time>
      </trkpt>
      <trkpt lat="44.51869" lon="1.21764">
        <ele>249.9</ele>
        <time>2026-07-12T05:41:25Z</time>
      </trkpt>
      <trkpt lat="44.51871" lon="1.21768">
        <ele>250.4</ele>
        <time>2026-07-12T05:41:26Z</time>
      </trkpt>
      <trkpt lat="44.51873" lon="1.21771">
        <ele>250.9</ele>
        <time>2026-07-12T05:41:27Z</time>
      </trkpt>
      <trkpt lat="44.51875" lon="1.21775">
        <ele>251.5</ele>
        <time>2026-07-12T05:41:28Z</time>
      </trkpt>
      <trkpt lat="44.51878" lon="1.2178">
        <ele>252.1</ele>
        <time>2026-07-12T05:41:29Z</time>
      </trkpt>
      <trkpt lat="44.51879" lon="1.21783">
        <ele>252.4</ele>
        <time>2026-07-12T05:41:30Z</time>
      </trkpt>
      <trkpt lat="44.51881" lon="1.21787">
        <ele>252.8</ele>
        <time>2026-07-12T05:41:31Z</time>
      </trkpt>
      <trkpt lat="44.51883" lon="1.21791">
        <ele>253.3</ele>
        <time>2026-07-12T05:41:32Z</time>
      </trkpt>
      <trkpt lat="44.51885" lon="1.21795">
        <ele>253.7</ele>
        <time>2026-07-12T05:41:33Z</time>
      </trkpt>
      <trkpt lat="44.51887" lon="1.21798">
        <ele>254.1</ele>
        <time>2026-07-12T05:41:34Z</time>
      </trkpt>
      <trkpt lat="44.51889" lon="1.21803">
        <ele>254.7</ele>
        <time>2026-07-12T05:41:35Z</time>
      </trkpt>
      <trkpt lat="44.5189" lon="1.21806">
        <ele>254.9</ele>
        <time>2026-07-12T05:41:36Z</time>
      </trkpt>
      <trkpt lat="44.51892" lon="1.2181">
        <ele>255.2</ele>
        <time>2026-07-12T05:41:37Z</time>
      </trkpt>
      <trkpt lat="44.51894" lon="1.21814">
        <ele>255.5</ele>
        <time>2026-07-12T05:41:38Z</time>
      </trkpt>
      <trkpt lat="44.51896" lon="1.21818">
        <ele>255.8</ele>
        <time>2026-07-12T05:41:39Z</time>
      </trkpt>
      <trkpt lat="44.51898" lon="1.21822">
        <ele>256.2</ele>
        <time>2026-07-12T05:41:40Z</time>
      </trkpt>
      <trkpt lat="44.519" lon="1.21826">
        <ele>256.7</ele>
        <time>2026-07-12T05:41:41Z</time>
      </trkpt>
      <trkpt lat="44.51901" lon="1.21829">
        <ele>257</ele>
        <time>2026-07-12T05:41:42Z</time>
      </trkpt>
      <trkpt lat="44.51904" lon="1.21833">
        <ele>257.3</ele>
        <time>2026-07-12T05:41:43Z</time>
      </trkpt>
      <trkpt lat="44.51906" lon="1.21837">
        <ele>257.6</ele>
        <time>2026-07-12T05:41:44Z</time>
      </trkpt>
      <trkpt lat="44.51908" lon="1.2184">
        <ele>257.9</ele>
        <time>2026-07-12T05:41:45Z</time>
      </trkpt>
      <trkpt lat="44.5191" lon="1.21844">
        <ele>258.1</ele>
        <time>2026-07-12T05:41:46Z</time>
      </trkpt>
      <trkpt lat="44.51912" lon="1.21847">
        <ele>258.4</ele>
        <time>2026-07-12T05:41:47Z</time>
      </trkpt>
      <trkpt lat="44.51914" lon="1.2185">
        <ele>258.7</ele>
        <time>2026-07-12T05:41:48Z</time>
      </trkpt>
      <trkpt lat="44.51916" lon="1.21854">
        <ele>259</ele>
        <time>2026-07-12T05:41:49Z</time>
      </trkpt>
      <trkpt lat="44.51918" lon="1.21857">
        <ele>259.3</ele>
        <time>2026-07-12T05:41:50Z</time>
      </trkpt>
      <trkpt lat="44.51921" lon="1.21861">
        <ele>259.8</ele>
        <time>2026-07-12T05:41:51Z</time>
      </trkpt>
      <trkpt lat="44.51922" lon="1.21864">
        <ele>260.1</ele>
        <time>2026-07-12T05:41:52Z</time>
      </trkpt>
      <trkpt lat="44.51924" lon="1.21868">
        <ele>260.5</ele>
        <time>2026-07-12T05:41:53Z</time>
      </trkpt>
      <trkpt lat="44.51926" lon="1.21872">
        <ele>260.8</ele>
        <time>2026-07-12T05:41:54Z</time>
      </trkpt>
      <trkpt lat="44.51928" lon="1.21874">
        <ele>261.1</ele>
        <time>2026-07-12T05:41:55Z</time>
      </trkpt>
      <trkpt lat="44.5193" lon="1.21878">
        <ele>261.5</ele>
        <time>2026-07-12T05:41:56Z</time>
      </trkpt>
      <trkpt lat="44.51932" lon="1.21881">
        <ele>261.7</ele>
        <time>2026-07-12T05:41:57Z</time>
      </trkpt>
      <trkpt lat="44.51934" lon="1.21884">
        <ele>262</ele>
        <time>2026-07-12T05:41:58Z</time>
      </trkpt>
      <trkpt lat="44.51937" lon="1.21887">
        <ele>262.3</ele>
        <time>2026-07-12T05:41:59Z</time>
      </trkpt>
      <trkpt lat="44.51939" lon="1.21891">
        <ele>262.6</ele>
        <time>2026-07-12T05:42:00Z</time>
      </trkpt>
      <trkpt lat="44.51941" lon="1.21892">
        <ele>262.8</ele>
        <time>2026-07-12T05:42:01Z</time>
      </trkpt>
      <trkpt lat="44.51944" lon="1.21895">
        <ele>263</ele>
        <time>2026-07-12T05:42:02Z</time>
      </trkpt>
      <trkpt lat="44.51945" lon="1.21897">
        <ele>263.2</ele>
        <time>2026-07-12T05:42:03Z</time>
      </trkpt>
      <trkpt lat="44.51948" lon="1.219">
        <ele>263.6</ele>
        <time>2026-07-12T05:42:04Z</time>
      </trkpt>
      <trkpt lat="44.5195" lon="1.21901">
        <ele>263.8</ele>
        <time>2026-07-12T05:42:05Z</time>
      </trkpt>
      <trkpt lat="44.51953" lon="1.21901">
        <ele>263.8</ele>
        <time>2026-07-12T05:42:06Z</time>
      </trkpt>
      <trkpt lat="44.51956" lon="1.21902">
        <ele>263.8</ele>
        <time>2026-07-12T05:42:07Z</time>
      </trkpt>
      <trkpt lat="44.5196" lon="1.21902">
        <ele>263.9</ele>
        <time>2026-07-12T05:42:08Z</time>
      </trkpt>
      <trkpt lat="44.51963" lon="1.21902">
        <ele>263.9</ele>
        <time>2026-07-12T05:42:09Z</time>
      </trkpt>
      <trkpt lat="44.51967" lon="1.21902">
        <ele>263.9</ele>
        <time>2026-07-12T05:42:10Z</time>
      </trkpt>
      <trkpt lat="44.51971" lon="1.21902">
        <ele>263.9</ele>
        <time>2026-07-12T05:42:11Z</time>
      </trkpt>
      <trkpt lat="44.51976" lon="1.21902">
        <ele>264</ele>
        <time>2026-07-12T05:42:12Z</time>
      </trkpt>
      <trkpt lat="44.51981" lon="1.21903">
        <ele>264.2</ele>
        <time>2026-07-12T05:42:13Z</time>
      </trkpt>
      <trkpt lat="44.51985" lon="1.21903">
        <ele>264.3</ele>
        <time>2026-07-12T05:42:14Z</time>
      </trkpt>
      <trkpt lat="44.51989" lon="1.21903">
        <ele>264.4</ele>
        <time>2026-07-12T05:42:15Z</time>
      </trkpt>
      <trkpt lat="44.51994" lon="1.21904">
        <ele>264.5</ele>
        <time>2026-07-12T05:42:16Z</time>
      </trkpt>
      <trkpt lat="44.51999" lon="1.21905">
        <ele>264.7</ele>
        <time>2026-07-12T05:42:17Z</time>
      </trkpt>
      <trkpt lat="44.52004" lon="1.21906">
        <ele>264.8</ele>
        <time>2026-07-12T05:42:18Z</time>
      </trkpt>
      <trkpt lat="44.52007" lon="1.21906">
        <ele>264.9</ele>
        <time>2026-07-12T05:42:19Z</time>
      </trkpt>
      <trkpt lat="44.52013" lon="1.21907">
        <ele>265</ele>
        <time>2026-07-12T05:42:20Z</time>
      </trkpt>
      <trkpt lat="44.52017" lon="1.21908">
        <ele>265.1</ele>
        <time>2026-07-12T05:42:21Z</time>
      </trkpt>
      <trkpt lat="44.52021" lon="1.2191">
        <ele>265.3</ele>
        <time>2026-07-12T05:42:22Z</time>
      </trkpt>
      <trkpt lat="44.52026" lon="1.21913">
        <ele>265.6</ele>
        <time>2026-07-12T05:42:23Z</time>
      </trkpt>
      <trkpt lat="44.52029" lon="1.21916">
        <ele>265.8</ele>
        <time>2026-07-12T05:42:24Z</time>
      </trkpt>
      <trkpt lat="44.52033" lon="1.21919">
        <ele>266</ele>
        <time>2026-07-12T05:42:25Z</time>
      </trkpt>
      <trkpt lat="44.52038" lon="1.21922">
        <ele>266.1</ele>
        <time>2026-07-12T05:42:26Z</time>
      </trkpt>
      <trkpt lat="44.52041" lon="1.21925">
        <ele>266.2</ele>
        <time>2026-07-12T05:42:27Z</time>
      </trkpt>
      <trkpt lat="44.52045" lon="1.21928">
        <ele>266.5</ele>
        <time>2026-07-12T05:42:28Z</time>
      </trkpt>
      <trkpt lat="44.52049" lon="1.21931">
        <ele>266.7</ele>
        <time>2026-07-12T05:42:29Z</time>
      </trkpt>
      <trkpt lat="44.52052" lon="1.21934">
        <ele>266.9</ele>
        <time>2026-07-12T05:42:30Z</time>
      </trkpt>
      <trkpt lat="44.52056" lon="1.21937">
        <ele>267.2</ele>
        <time>2026-07-12T05:42:31Z</time>
      </trkpt>
      <trkpt lat="44.52059" lon="1.2194">
        <ele>267.4</ele>
        <time>2026-07-12T05:42:32Z</time>
      </trkpt>
      <trkpt lat="44.52062" lon="1.21944">
        <ele>267.7</ele>
        <time>2026-07-12T05:42:33Z</time>
      </trkpt>
      <trkpt lat="44.52065" lon="1.21947">
        <ele>267.8</ele>
        <time>2026-07-12T05:42:34Z</time>
      </trkpt>
      <trkpt lat="44.52069" lon="1.21951">
        <ele>268</ele>
        <time>2026-07-12T05:42:35Z</time>
      </trkpt>
      <trkpt lat="44.52072" lon="1.21955">
        <ele>268.1</ele>
        <time>2026-07-12T05:42:36Z</time>
      </trkpt>
      <trkpt lat="44.52075" lon="1.21957">
        <ele>268.2</ele>
        <time>2026-07-12T05:42:37Z</time>
      </trkpt>
      <trkpt lat="44.52078" lon="1.21961">
        <ele>268.4</ele>
        <time>2026-07-12T05:42:38Z</time>
      </trkpt>
      <trkpt lat="44.52082" lon="1.21965">
        <ele>268.5</ele>
        <time>2026-07-12T05:42:39Z</time>
      </trkpt>
      <trkpt lat="44.52084" lon="1.21968">
        <ele>268.7</ele>
        <time>2026-07-12T05:42:40Z</time>
      </trkpt>
      <trkpt lat="44.52088" lon="1.21973">
        <ele>268.9</ele>
        <time>2026-07-12T05:42:41Z</time>
      </trkpt>
      <trkpt lat="44.5209" lon="1.21976">
        <ele>269.1</ele>
        <time>2026-07-12T05:42:42Z</time>
      </trkpt>
      <trkpt lat="44.52092" lon="1.21978">
        <ele>269.3</ele>
        <time>2026-07-12T05:42:43Z</time>
      </trkpt>
      <trkpt lat="44.52096" lon="1.21984">
        <ele>269.8</ele>
        <time>2026-07-12T05:42:44Z</time>
      </trkpt>
      <trkpt lat="44.52098" lon="1.21988">
        <ele>270.2</ele>
        <time>2026-07-12T05:42:45Z</time>
      </trkpt>
      <trkpt lat="44.521" lon="1.21991">
        <ele>270.5</ele>
        <time>2026-07-12T05:42:46Z</time>
      </trkpt>
      <trkpt lat="44.52101" lon="1.21996">
        <ele>270.9</ele>
        <time>2026-07-12T05:42:47Z</time>
      </trkpt>
      <trkpt lat="44.52103" lon="1.22001">
        <ele>271.4</ele>
        <time>2026-07-12T05:42:48Z</time>
      </trkpt>
      <trkpt lat="44.52105" lon="1.22005">
        <ele>271.7</ele>
        <time>2026-07-12T05:42:49Z</time>
      </trkpt>
      <trkpt lat="44.52107" lon="1.22009">
        <ele>272.1</ele>
        <time>2026-07-12T05:42:50Z</time>
      </trkpt>
      <trkpt lat="44.5211" lon="1.22014">
        <ele>272.5</ele>
        <time>2026-07-12T05:42:51Z</time>
      </trkpt>
      <trkpt lat="44.52112" lon="1.22017">
        <ele>272.8</ele>
        <time>2026-07-12T05:42:52Z</time>
      </trkpt>
      <trkpt lat="44.52115" lon="1.2202">
        <ele>273.2</ele>
        <time>2026-07-12T05:42:53Z</time>
      </trkpt>
      <trkpt lat="44.52119" lon="1.22024">
        <ele>273.6</ele>
        <time>2026-07-12T05:42:54Z</time>
      </trkpt>
      <trkpt lat="44.52121" lon="1.22026">
        <ele>273.9</ele>
        <time>2026-07-12T05:42:55Z</time>
      </trkpt>
      <trkpt lat="44.52125" lon="1.2203">
        <ele>274.1</ele>
        <time>2026-07-12T05:42:56Z</time>
      </trkpt>
      <trkpt lat="44.52128" lon="1.22033">
        <ele>274.4</ele>
        <time>2026-07-12T05:42:57Z</time>
      </trkpt>
      <trkpt lat="44.52132" lon="1.22037">
        <ele>274.6</ele>
        <time>2026-07-12T05:42:58Z</time>
      </trkpt>
      <trkpt lat="44.52133" lon="1.22038">
        <ele>274.8</ele>
        <time>2026-07-12T05:42:59Z</time>
      </trkpt>
      <trkpt lat="44.52136" lon="1.22041">
        <ele>275</ele>
        <time>2026-07-12T05:43:00Z</time>
      </trkpt>
      <trkpt lat="44.5214" lon="1.22045">
        <ele>275.3</ele>
        <time>2026-07-12T05:43:01Z</time>
      </trkpt>
      <trkpt lat="44.52143" lon="1.22048">
        <ele>275.6</ele>
        <time>2026-07-12T05:43:02Z</time>
      </trkpt>
      <trkpt lat="44.52147" lon="1.22052">
        <ele>276</ele>
        <time>2026-07-12T05:43:03Z</time>
      </trkpt>
      <trkpt lat="44.52151" lon="1.22056">
        <ele>276.5</ele>
        <time>2026-07-12T05:43:04Z</time>
      </trkpt>
      <trkpt lat="44.52154" lon="1.22059">
        <ele>276.8</ele>
        <time>2026-07-12T05:43:05Z</time>
      </trkpt>
      <trkpt lat="44.52157" lon="1.22062">
        <ele>277.1</ele>
        <time>2026-07-12T05:43:06Z</time>
      </trkpt>
      <trkpt lat="44.52159" lon="1.22065">
        <ele>277.4</ele>
        <time>2026-07-12T05:43:07Z</time>
      </trkpt>
      <trkpt lat="44.52163" lon="1.22069">
        <ele>277.8</ele>
        <time>2026-07-12T05:43:08Z</time>
      </trkpt>
      <trkpt lat="44.52165" lon="1.22071">
        <ele>278.1</ele>
        <time>2026-07-12T05:43:09Z</time>
      </trkpt>
      <trkpt lat="44.52169" lon="1.22074">
        <ele>278.5</ele>
        <time>2026-07-12T05:43:10Z</time>
      </trkpt>
      <trkpt lat="44.52172" lon="1.22077">
        <ele>278.9</ele>
        <time>2026-07-12T05:43:11Z</time>
      </trkpt>
      <trkpt lat="44.52174" lon="1.2208">
        <ele>279.2</ele>
        <time>2026-07-12T05:43:12Z</time>
      </trkpt>
      <trkpt lat="44.52176" lon="1.22084">
        <ele>279.7</ele>
        <time>2026-07-12T05:43:13Z</time>
      </trkpt>
      <trkpt lat="44.52179" lon="1.22087">
        <ele>280.1</ele>
        <time>2026-07-12T05:43:14Z</time>
      </trkpt>
      <trkpt lat="44.52181" lon="1.2209">
        <ele>280.5</ele>
        <time>2026-07-12T05:43:15Z</time>
      </trkpt>
      <trkpt lat="44.52183" lon="1.22093">
        <ele>280.8</ele>
        <time>2026-07-12T05:43:16Z</time>
      </trkpt>
      <trkpt lat="44.52185" lon="1.22095">
        <ele>281.1</ele>
        <time>2026-07-12T05:43:17Z</time>
      </trkpt>
      <trkpt lat="44.52187" lon="1.22097">
        <ele>281.4</ele>
        <time>2026-07-12T05:43:18Z</time>
      </trkpt>
      <trkpt lat="44.52188" lon="1.22099">
        <ele>281.7</ele>
        <time>2026-07-12T05:43:19Z</time>
      </trkpt>
      <trkpt lat="44.52189" lon="1.221">
        <ele>281.8</ele>
        <time>2026-07-12T05:43:20Z</time>
      </trkpt>
      <trkpt lat="44.52191" lon="1.22102">
        <ele>282.1</ele>
        <time>2026-07-12T05:43:21Z</time>
      </trkpt>
      <trkpt lat="44.52193" lon="1.22104">
        <ele>282.4</ele>
        <time>2026-07-12T05:43:22Z</time>
      </trkpt>
      <trkpt lat="44.52195" lon="1.22106">
        <ele>282.7</ele>
        <time>2026-07-12T05:43:23Z</time>
      </trkpt>
      <trkpt lat="44.52198" lon="1.2211">
        <ele>283</ele>
        <time>2026-07-12T05:43:24Z</time>
      </trkpt>
      <trkpt lat="44.522" lon="1.22113">
        <ele>283.3</ele>
        <time>2026-07-12T05:43:25Z</time>
      </trkpt>
      <trkpt lat="44.52202" lon="1.22116">
        <ele>283.5</ele>
        <time>2026-07-12T05:43:26Z</time>
      </trkpt>
      <trkpt lat="44.52205" lon="1.22119">
        <ele>283.8</ele>
        <time>2026-07-12T05:43:27Z</time>
      </trkpt>
      <trkpt lat="44.52208" lon="1.22122">
        <ele>284.1</ele>
        <time>2026-07-12T05:43:28Z</time>
      </trkpt>
      <trkpt lat="44.52211" lon="1.22126">
        <ele>284.4</ele>
        <time>2026-07-12T05:43:29Z</time>
      </trkpt>
      <trkpt lat="44.52212" lon="1.22128">
        <ele>284.7</ele>
        <time>2026-07-12T05:43:30Z</time>
      </trkpt>
      <trkpt lat="44.52213" lon="1.22132">
        <ele>284.9</ele>
        <time>2026-07-12T05:43:31Z</time>
      </trkpt>
      <trkpt lat="44.52212" lon="1.22136">
        <ele>285.1</ele>
        <time>2026-07-12T05:43:32Z</time>
      </trkpt>
      <trkpt lat="44.52212" lon="1.22139">
        <ele>285.2</ele>
        <time>2026-07-12T05:43:33Z</time>
      </trkpt>
      <trkpt lat="44.5221" lon="1.22143">
        <ele>285.3</ele>
        <time>2026-07-12T05:43:34Z</time>
      </trkpt>
      <trkpt lat="44.52209" lon="1.22147">
        <ele>285.4</ele>
        <time>2026-07-12T05:43:35Z</time>
      </trkpt>
      <trkpt lat="44.52207" lon="1.22149">
        <ele>285.4</ele>
        <time>2026-07-12T05:43:36Z</time>
      </trkpt>
      <trkpt lat="44.52206" lon="1.22151">
        <ele>285.4</ele>
        <time>2026-07-12T05:43:37Z</time>
      </trkpt>
      <trkpt lat="44.52205" lon="1.22154">
        <ele>285.5</ele>
        <time>2026-07-12T05:43:38Z</time>
      </trkpt>
      <trkpt lat="44.52205" lon="1.22159">
        <ele>285.8</ele>
        <time>2026-07-12T05:43:39Z</time>
      </trkpt>
      <trkpt lat="44.52205" lon="1.22165">
        <ele>286</ele>
        <time>2026-07-12T05:43:40Z</time>
      </trkpt>
      <trkpt lat="44.52205" lon="1.22169">
        <ele>286.2</ele>
        <time>2026-07-12T05:43:41Z</time>
      </trkpt>
      <trkpt lat="44.52206" lon="1.22172">
        <ele>286.2</ele>
        <time>2026-07-12T05:43:42Z</time>
      </trkpt>
      <trkpt lat="44.52206" lon="1.22175">
        <ele>286.2</ele>
        <time>2026-07-12T05:43:43Z</time>
      </trkpt>
      <trkpt lat="44.52207" lon="1.22179">
        <ele>286.2</ele>
        <time>2026-07-12T05:43:44Z</time>
      </trkpt>
      <trkpt lat="44.52207" lon="1.22181">
        <ele>286.2</ele>
        <time>2026-07-12T05:43:45Z</time>
      </trkpt>
      <trkpt lat="44.52207" lon="1.22182">
        <ele>286.2</ele>
        <time>2026-07-12T05:43:46Z</time>
      </trkpt>
      <trkpt lat="44.52207" lon="1.22182">
        <ele>286.2</ele>
        <time>2026-07-12T05:43:48Z</time>
      </trkpt>
      <trkpt lat="44.52215" lon="1.22184">
        <ele>286.4</ele>
        <time>2026-07-12T05:44:08Z</time>
      </trkpt>
      <trkpt lat="44.52216" lon="1.22184">
        <ele>286.5</ele>
        <time>2026-07-12T05:44:09Z</time>
      </trkpt>
      <trkpt lat="44.52218" lon="1.22185">
        <ele>286.5</ele>
        <time>2026-07-12T05:44:10Z</time>
      </trkpt>
      <trkpt lat="44.52219" lon="1.22186">
        <ele>286.5</ele>
        <time>2026-07-12T05:44:11Z</time>
      </trkpt>
      <trkpt lat="44.52219" lon="1.22187">
        <ele>286.5</ele>
        <time>2026-07-12T05:44:12Z</time>
      </trkpt>
      <trkpt lat="44.5222" lon="1.22188">
        <ele>286.4</ele>
        <time>2026-07-12T05:44:13Z</time>
      </trkpt>
      <trkpt lat="44.52219" lon="1.2219">
        <ele>286.3</ele>
        <time>2026-07-12T05:44:14Z</time>
      </trkpt>
      <trkpt lat="44.52218" lon="1.22196">
        <ele>285.8</ele>
        <time>2026-07-12T05:44:16Z</time>
      </trkpt>
      <trkpt lat="44.52218" lon="1.22205">
        <ele>284.8</ele>
        <time>2026-07-12T05:44:18Z</time>
      </trkpt>
      <trkpt lat="44.52218" lon="1.22217">
        <ele>283.6</ele>
        <time>2026-07-12T05:44:20Z</time>
      </trkpt>
      <trkpt lat="44.52221" lon="1.22223">
        <ele>283</ele>
        <time>2026-07-12T05:44:21Z</time>
      </trkpt>
      <trkpt lat="44.52223" lon="1.22228">
        <ele>282.1</ele>
        <time>2026-07-12T05:44:22Z</time>
      </trkpt>
      <trkpt lat="44.52224" lon="1.22235">
        <ele>281</ele>
        <time>2026-07-12T05:44:23Z</time>
      </trkpt>
      <trkpt lat="44.52226" lon="1.22243">
        <ele>279.8</ele>
        <time>2026-07-12T05:44:24Z</time>
      </trkpt>
      <trkpt lat="44.52232" lon="1.22258">
        <ele>277.3</ele>
        <time>2026-07-12T05:44:26Z</time>
      </trkpt>
      <trkpt lat="44.52233" lon="1.22266">
        <ele>275.9</ele>
        <time>2026-07-12T05:44:27Z</time>
      </trkpt>
      <trkpt lat="44.52235" lon="1.22273">
        <ele>274.4</ele>
        <time>2026-07-12T05:44:28Z</time>
      </trkpt>
      <trkpt lat="44.52236" lon="1.2228">
        <ele>273.2</ele>
        <time>2026-07-12T05:44:29Z</time>
      </trkpt>
      <trkpt lat="44.52235" lon="1.22286">
        <ele>272.3</ele>
        <time>2026-07-12T05:44:30Z</time>
      </trkpt>
      <trkpt lat="44.52234" lon="1.2229">
        <ele>271.7</ele>
        <time>2026-07-12T05:44:31Z</time>
      </trkpt>
      <trkpt lat="44.52234" lon="1.22294">
        <ele>271</ele>
        <time>2026-07-12T05:44:32Z</time>
      </trkpt>
      <trkpt lat="44.52235" lon="1.22298">
        <ele>270.3</ele>
        <time>2026-07-12T05:44:33Z</time>
      </trkpt>
      <trkpt lat="44.52234" lon="1.22304">
        <ele>269.4</ele>
        <time>2026-07-12T05:44:34Z</time>
      </trkpt>
      <trkpt lat="44.52229" lon="1.22314">
        <ele>268.3</ele>
        <time>2026-07-12T05:44:36Z</time>
      </trkpt>
      <trkpt lat="44.52226" lon="1.22321">
        <ele>267.5</ele>
        <time>2026-07-12T05:44:37Z</time>
      </trkpt>
      <trkpt lat="44.52224" lon="1.22328">
        <ele>266.6</ele>
        <time>2026-07-12T05:44:38Z</time>
      </trkpt>
      <trkpt lat="44.52221" lon="1.22336">
        <ele>265.5</ele>
        <time>2026-07-12T05:44:39Z</time>
      </trkpt>
      <trkpt lat="44.52219" lon="1.22345">
        <ele>263.8</ele>
        <time>2026-07-12T05:44:40Z</time>
      </trkpt>
      <trkpt lat="44.52216" lon="1.22354">
        <ele>262</ele>
        <time>2026-07-12T05:44:41Z</time>
      </trkpt>
      <trkpt lat="44.52214" lon="1.22362">
        <ele>260.4</ele>
        <time>2026-07-12T05:44:42Z</time>
      </trkpt>
      <trkpt lat="44.52213" lon="1.22369">
        <ele>259</ele>
        <time>2026-07-12T05:44:43Z</time>
      </trkpt>
      <trkpt lat="44.52214" lon="1.22377">
        <ele>257.5</ele>
        <time>2026-07-12T05:44:44Z</time>
      </trkpt>
      <trkpt lat="44.52217" lon="1.22385">
        <ele>255.9</ele>
        <time>2026-07-12T05:44:45Z</time>
      </trkpt>
      <trkpt lat="44.52219" lon="1.22392">
        <ele>254.4</ele>
        <time>2026-07-12T05:44:46Z</time>
      </trkpt>
      <trkpt lat="44.52222" lon="1.224">
        <ele>253</ele>
        <time>2026-07-12T05:44:47Z</time>
      </trkpt>
      <trkpt lat="44.52222" lon="1.22408">
        <ele>251.5</ele>
        <time>2026-07-12T05:44:48Z</time>
      </trkpt>
      <trkpt lat="44.52221" lon="1.22416">
        <ele>250</ele>
        <time>2026-07-12T05:44:49Z</time>
      </trkpt>
      <trkpt lat="44.52221" lon="1.22424">
        <ele>248.9</ele>
        <time>2026-07-12T05:44:50Z</time>
      </trkpt>
      <trkpt lat="44.52219" lon="1.22429">
        <ele>248</ele>
        <time>2026-07-12T05:44:51Z</time>
      </trkpt>
      <trkpt lat="44.52218" lon="1.22435">
        <ele>247.1</ele>
        <time>2026-07-12T05:44:52Z</time>
      </trkpt>
      <trkpt lat="44.52219" lon="1.22442">
        <ele>246.2</ele>
        <time>2026-07-12T05:44:53Z</time>
      </trkpt>
      <trkpt lat="44.52222" lon="1.2245">
        <ele>245.2</ele>
        <time>2026-07-12T05:44:54Z</time>
      </trkpt>
      <trkpt lat="44.52223" lon="1.22459">
        <ele>243.9</ele>
        <time>2026-07-12T05:44:55Z</time>
      </trkpt>
      <trkpt lat="44.52224" lon="1.2247">
        <ele>242.4</ele>
        <time>2026-07-12T05:44:56Z</time>
      </trkpt>
      <trkpt lat="44.52224" lon="1.22481">
        <ele>241.3</ele>
        <time>2026-07-12T05:44:57Z</time>
      </trkpt>
      <trkpt lat="44.52225" lon="1.22494">
        <ele>240.4</ele>
        <time>2026-07-12T05:44:58Z</time>
      </trkpt>
      <trkpt lat="44.52226" lon="1.22506">
        <ele>239.6</ele>
        <time>2026-07-12T05:44:59Z</time>
      </trkpt>
      <trkpt lat="44.52229" lon="1.22518">
        <ele>238.8</ele>
        <time>2026-07-12T05:45:00Z</time>
      </trkpt>
      <trkpt lat="44.52231" lon="1.2253">
        <ele>238.2</ele>
        <time>2026-07-12T05:45:01Z</time>
      </trkpt>
      <trkpt lat="44.52232" lon="1.2254">
        <ele>237.9</ele>
        <time>2026-07-12T05:45:02Z</time>
      </trkpt>
      <trkpt lat="44.52232" lon="1.2255">
        <ele>237.5</ele>
        <time>2026-07-12T05:45:03Z</time>
      </trkpt>
      <trkpt lat="44.52231" lon="1.22559">
        <ele>237.2</ele>
        <time>2026-07-12T05:45:04Z</time>
      </trkpt>
      <trkpt lat="44.5223" lon="1.22567">
        <ele>237</ele>
        <time>2026-07-12T05:45:05Z</time>
      </trkpt>
      <trkpt lat="44.52229" lon="1.22574">
        <ele>236.7</ele>
        <time>2026-07-12T05:45:06Z</time>
      </trkpt>
      <trkpt lat="44.52231" lon="1.22581">
        <ele>236.7</ele>
        <time>2026-07-12T05:45:07Z</time>
      </trkpt>
      <trkpt lat="44.52234" lon="1.22586">
        <ele>236.8</ele>
        <time>2026-07-12T05:45:08Z</time>
      </trkpt>
      <trkpt lat="44.52236" lon="1.22592">
        <ele>237</ele>
        <time>2026-07-12T05:45:09Z</time>
      </trkpt>
      <trkpt lat="44.52237" lon="1.22598">
        <ele>237.1</ele>
        <time>2026-07-12T05:45:10Z</time>
      </trkpt>
      <trkpt lat="44.52238" lon="1.22602">
        <ele>237.1</ele>
        <time>2026-07-12T05:45:11Z</time>
      </trkpt>
      <trkpt lat="44.52238" lon="1.22604">
        <ele>237.2</ele>
        <time>2026-07-12T05:45:12Z</time>
      </trkpt>
      <trkpt lat="44.52238" lon="1.22604">
        <ele>237.2</ele>
        <time>2026-07-12T05:45:14Z</time>
        <extensions>
          <visugpx:TrkExtension xmlns:visugpx="https://www.visugpx.com/editgpx/">
            <visugpx:node>1</visugpx:node>
            </visugpx:TrkExtension>
        </extensions>
      </trkpt>
      <trkpt lat="44.5224" lon="1.22608">
        <ele>237.3</ele>
        <time>2026-07-12T05:47:13Z</time>
      </trkpt>
      <trkpt lat="44.52248" lon="1.22629">
        <ele>237.1</ele>
        <time>2026-07-12T05:47:18Z</time>
      </trkpt>
      <trkpt lat="44.52251" lon="1.22632">
        <ele>237.3</ele>
        <time>2026-07-12T05:47:19Z</time>
      </trkpt>
      <trkpt lat="44.52254" lon="1.22634">
        <ele>237.3</ele>
        <time>2026-07-12T05:47:20Z</time>
      </trkpt>
      <trkpt lat="44.52256" lon="1.22636">
        <ele>237.3</ele>
        <time>2026-07-12T05:47:21Z</time>
      </trkpt>
      <trkpt lat="44.52258" lon="1.22638">
        <ele>237.3</ele>
        <time>2026-07-12T05:47:22Z</time>
      </trkpt>
      <trkpt lat="44.52258" lon="1.22642">
        <ele>237.2</ele>
        <time>2026-07-12T05:47:23Z</time>
      </trkpt>
      <trkpt lat="44.52259" lon="1.22645">
        <ele>237</ele>
        <time>2026-07-12T05:47:24Z</time>
      </trkpt>
      <trkpt lat="44.52258" lon="1.22649">
        <ele>236.8</ele>
        <time>2026-07-12T05:47:25Z</time>
      </trkpt>
      <trkpt lat="44.52258" lon="1.22653">
        <ele>236.6</ele>
        <time>2026-07-12T05:47:26Z</time>
      </trkpt>
      <trkpt lat="44.52256" lon="1.22657">
        <ele>236.4</ele>
        <time>2026-07-12T05:47:27Z</time>
      </trkpt>
      <trkpt lat="44.52257" lon="1.22661">
        <ele>236.3</ele>
        <time>2026-07-12T05:47:28Z</time>
      </trkpt>
      <trkpt lat="44.52262" lon="1.22667">
        <ele>235.9</ele>
        <time>2026-07-12T05:47:30Z</time>
      </trkpt>
      <trkpt lat="44.52272" lon="1.2267">
        <ele>235.5</ele>
        <time>2026-07-12T05:47:33Z</time>
      </trkpt>
      <trkpt lat="44.52276" lon="1.22671">
        <ele>235.4</ele>
        <time>2026-07-12T05:47:34Z</time>
      </trkpt>
      <trkpt lat="44.52284" lon="1.22672">
        <ele>235.3</ele>
        <time>2026-07-12T05:47:36Z</time>
      </trkpt>
      <trkpt lat="44.52301" lon="1.22676">
        <ele>234.4</ele>
        <time>2026-07-12T05:47:41Z</time>
      </trkpt>
      <trkpt lat="44.52304" lon="1.22677">
        <ele>234.2</ele>
        <time>2026-07-12T05:47:42Z</time>
      </trkpt>
      <trkpt lat="44.52307" lon="1.22678">
        <ele>233.9</ele>
        <time>2026-07-12T05:47:43Z</time>
      </trkpt>
      <trkpt lat="44.5231" lon="1.22679">
        <ele>233.6</ele>
        <time>2026-07-12T05:47:44Z</time>
      </trkpt>
      <trkpt lat="44.52313" lon="1.22679">
        <ele>233.5</ele>
        <time>2026-07-12T05:47:45Z</time>
      </trkpt>
      <trkpt lat="44.52316" lon="1.22679">
        <ele>233.5</ele>
        <time>2026-07-12T05:47:46Z</time>
      </trkpt>
      <trkpt lat="44.52319" lon="1.22679">
        <ele>233.3</ele>
        <time>2026-07-12T05:47:47Z</time>
      </trkpt>
      <trkpt lat="44.52338" lon="1.22685">
        <ele>232</ele>
        <time>2026-07-12T05:47:51Z</time>
      </trkpt>
      <trkpt lat="44.52344" lon="1.22685">
        <ele>231.9</ele>
        <time>2026-07-12T05:47:52Z</time>
      </trkpt>
      <trkpt lat="44.52368" lon="1.22686">
        <ele>231.2</ele>
        <time>2026-07-12T05:47:56Z</time>
      </trkpt>
      <trkpt lat="44.52382" lon="1.22684">
        <ele>230.5</ele>
        <time>2026-07-12T05:47:58Z</time>
      </trkpt>
      <trkpt lat="44.52388" lon="1.22685">
        <ele>230.1</ele>
        <time>2026-07-12T05:47:59Z</time>
      </trkpt>
      <trkpt lat="44.52394" lon="1.22687">
        <ele>229.4</ele>
        <time>2026-07-12T05:48:00Z</time>
      </trkpt>
      <trkpt lat="44.52417" lon="1.22693">
        <ele>226.9</ele>
        <time>2026-07-12T05:48:03Z</time>
      </trkpt>
      <trkpt lat="44.52425" lon="1.22698">
        <ele>224.4</ele>
        <time>2026-07-12T05:48:04Z</time>
      </trkpt>
      <trkpt lat="44.52434" lon="1.22705">
        <ele>222.1</ele>
        <time>2026-07-12T05:48:05Z</time>
      </trkpt>
      <trkpt lat="44.52459" lon="1.22727">
        <ele>216.3</ele>
        <time>2026-07-12T05:48:08Z</time>
      </trkpt>
      <trkpt lat="44.52467" lon="1.22734">
        <ele>214.2</ele>
        <time>2026-07-12T05:48:09Z</time>
      </trkpt>
      <trkpt lat="44.52475" lon="1.22742">
        <ele>212.5</ele>
        <time>2026-07-12T05:48:10Z</time>
      </trkpt>
      <trkpt lat="44.52481" lon="1.22753">
        <ele>210.3</ele>
        <time>2026-07-12T05:48:11Z</time>
      </trkpt>
      <trkpt lat="44.52488" lon="1.22766">
        <ele>207.2</ele>
        <time>2026-07-12T05:48:12Z</time>
      </trkpt>
      <trkpt lat="44.52494" lon="1.22779">
        <ele>205</ele>
        <time>2026-07-12T05:48:13Z</time>
      </trkpt>
      <trkpt lat="44.52501" lon="1.22793">
        <ele>203.2</ele>
        <time>2026-07-12T05:48:14Z</time>
      </trkpt>
      <trkpt lat="44.52508" lon="1.22806">
        <ele>200.8</ele>
        <time>2026-07-12T05:48:15Z</time>
      </trkpt>
      <trkpt lat="44.52515" lon="1.22819">
        <ele>198.1</ele>
        <time>2026-07-12T05:48:16Z</time>
      </trkpt>
      <trkpt lat="44.52522" lon="1.22829">
        <ele>196.7</ele>
        <time>2026-07-12T05:48:17Z</time>
      </trkpt>
      <trkpt lat="44.52528" lon="1.22837">
        <ele>195.8</ele>
        <time>2026-07-12T05:48:18Z</time>
      </trkpt>
      <trkpt lat="44.52535" lon="1.22841">
        <ele>193.6</ele>
        <time>2026-07-12T05:48:19Z</time>
      </trkpt>
      <trkpt lat="44.52542" lon="1.22843">
        <ele>192.1</ele>
        <time>2026-07-12T05:48:20Z</time>
      </trkpt>
      <trkpt lat="44.52549" lon="1.22844">
        <ele>191.1</ele>
        <time>2026-07-12T05:48:21Z</time>
      </trkpt>
      <trkpt lat="44.52553" lon="1.22845">
        <ele>190.4</ele>
        <time>2026-07-12T05:48:22Z</time>
      </trkpt>
      <trkpt lat="44.52554" lon="1.22845">
        <ele>190.3</ele>
        <time>2026-07-12T05:48:23Z</time>
      </trkpt>
      <trkpt lat="44.52553" lon="1.22845">
        <ele>190.3</ele>
        <time>2026-07-12T05:48:24Z</time>
      </trkpt>
      <trkpt lat="44.52552" lon="1.22847">
        <ele>190</ele>
        <time>2026-07-12T05:48:25Z</time>
      </trkpt>
      <trkpt lat="44.52549" lon="1.2285">
        <ele>189.6</ele>
        <time>2026-07-12T05:48:26Z</time>
      </trkpt>
      <trkpt lat="44.52543" lon="1.22857">
        <ele>188.1</ele>
        <time>2026-07-12T05:48:28Z</time>
      </trkpt>
      <trkpt lat="44.5254" lon="1.22861">
        <ele>187.1</ele>
        <time>2026-07-12T05:48:29Z</time>
      </trkpt>
      <trkpt lat="44.52538" lon="1.22866">
        <ele>186.3</ele>
        <time>2026-07-12T05:48:30Z</time>
      </trkpt>
      <trkpt lat="44.52536" lon="1.22868">
        <ele>185.7</ele>
        <time>2026-07-12T05:48:31Z</time>
      </trkpt>
      <trkpt lat="44.52535" lon="1.2287">
        <ele>185.5</ele>
        <time>2026-07-12T05:48:32Z</time>
      </trkpt>
      <trkpt lat="44.52533" lon="1.22872">
        <ele>185.3</ele>
        <time>2026-07-12T05:48:33Z</time>
      </trkpt>
      <trkpt lat="44.52527" lon="1.22875">
        <ele>184.8</ele>
        <time>2026-07-12T05:48:35Z</time>
      </trkpt>
      <trkpt lat="44.52524" lon="1.22876">
        <ele>184.2</ele>
        <time>2026-07-12T05:48:36Z</time>
      </trkpt>
      <trkpt lat="44.52519" lon="1.22876">
        <ele>183.6</ele>
        <time>2026-07-12T05:48:37Z</time>
      </trkpt>
      <trkpt lat="44.52515" lon="1.22875">
        <ele>183.1</ele>
        <time>2026-07-12T05:48:38Z</time>
      </trkpt>
      <trkpt lat="44.52511" lon="1.22875">
        <ele>182.7</ele>
        <time>2026-07-12T05:48:39Z</time>
      </trkpt>
      <trkpt lat="44.52509" lon="1.22875">
        <ele>182.3</ele>
        <time>2026-07-12T05:48:40Z</time>
      </trkpt>
      <trkpt lat="44.52508" lon="1.22876">
        <ele>181.9</ele>
        <time>2026-07-12T05:48:41Z</time>
      </trkpt>
      <trkpt lat="44.52508" lon="1.22879">
        <ele>181.3</ele>
        <time>2026-07-12T05:48:42Z</time>
      </trkpt>
      <trkpt lat="44.5251" lon="1.22892">
        <ele>178.8</ele>
        <time>2026-07-12T05:48:44Z</time>
      </trkpt>
      <trkpt lat="44.52511" lon="1.229">
        <ele>177</ele>
        <time>2026-07-12T05:48:45Z</time>
      </trkpt>
      <trkpt lat="44.52515" lon="1.22923">
        <ele>172.2</ele>
        <time>2026-07-12T05:48:48Z</time>
      </trkpt>
      <trkpt lat="44.52517" lon="1.22927">
        <ele>171.6</ele>
        <time>2026-07-12T05:48:49Z</time>
      </trkpt>
      <trkpt lat="44.52519" lon="1.22928">
        <ele>171.5</ele>
        <time>2026-07-12T05:48:50Z</time>
      </trkpt>
      <trkpt lat="44.5252" lon="1.22929">
        <ele>171.3</ele>
        <time>2026-07-12T05:48:51Z</time>
      </trkpt>
      <trkpt lat="44.5252" lon="1.22931">
        <ele>170.9</ele>
        <time>2026-07-12T05:48:52Z</time>
      </trkpt>
      <trkpt lat="44.52518" lon="1.22933">
        <ele>170.2</ele>
        <time>2026-07-12T05:48:53Z</time>
      </trkpt>
      <trkpt lat="44.52516" lon="1.22937">
        <ele>169.3</ele>
        <time>2026-07-12T05:48:54Z</time>
      </trkpt>
      <trkpt lat="44.52513" lon="1.22942">
        <ele>168</ele>
        <time>2026-07-12T05:48:55Z</time>
      </trkpt>
      <trkpt lat="44.5251" lon="1.22948">
        <ele>166.6</ele>
        <time>2026-07-12T05:48:56Z</time>
      </trkpt>
      <trkpt lat="44.52507" lon="1.22954">
        <ele>165.4</ele>
        <time>2026-07-12T05:48:57Z</time>
      </trkpt>
      <trkpt lat="44.52506" lon="1.22958">
        <ele>164.5</ele>
        <time>2026-07-12T05:48:58Z</time>
      </trkpt>
      <trkpt lat="44.52505" lon="1.22963">
        <ele>163.5</ele>
        <time>2026-07-12T05:48:59Z</time>
      </trkpt>
      <trkpt lat="44.52506" lon="1.22969">
        <ele>162.4</ele>
        <time>2026-07-12T05:49:00Z</time>
      </trkpt>
      <trkpt lat="44.52509" lon="1.22973">
        <ele>161.6</ele>
        <time>2026-07-12T05:49:01Z</time>
      </trkpt>
      <trkpt lat="44.52514" lon="1.22976">
        <ele>160.5</ele>
        <time>2026-07-12T05:49:02Z</time>
      </trkpt>
      <trkpt lat="44.5252" lon="1.22979">
        <ele>159.5</ele>
        <time>2026-07-12T05:49:03Z</time>
      </trkpt>
      <trkpt lat="44.52527" lon="1.22981">
        <ele>158.5</ele>
        <time>2026-07-12T05:49:04Z</time>
      </trkpt>
      <trkpt lat="44.52534" lon="1.22984">
        <ele>156.7</ele>
        <time>2026-07-12T05:49:05Z</time>
      </trkpt>
      <trkpt lat="44.52549" lon="1.22991">
        <ele>152.6</ele>
        <time>2026-07-12T05:49:07Z</time>
      </trkpt>
      <trkpt lat="44.52557" lon="1.22995">
        <ele>150.4</ele>
        <time>2026-07-12T05:49:08Z</time>
      </trkpt>
      <trkpt lat="44.52564" lon="1.23">
        <ele>148.7</ele>
        <time>2026-07-12T05:49:09Z</time>
      </trkpt>
      <trkpt lat="44.5257" lon="1.23005">
        <ele>147.5</ele>
        <time>2026-07-12T05:49:10Z</time>
      </trkpt>
      <trkpt lat="44.52576" lon="1.23009">
        <ele>146.4</ele>
        <time>2026-07-12T05:49:11Z</time>
      </trkpt>
      <trkpt lat="44.52581" lon="1.23014">
        <ele>145</ele>
        <time>2026-07-12T05:49:12Z</time>
      </trkpt>
      <trkpt lat="44.52583" lon="1.2302">
        <ele>143.8</ele>
        <time>2026-07-12T05:49:13Z</time>
      </trkpt>
      <trkpt lat="44.52582" lon="1.23026">
        <ele>142.3</ele>
        <time>2026-07-12T05:49:14Z</time>
      </trkpt>
      <trkpt lat="44.52581" lon="1.23034">
        <ele>140.9</ele>
        <time>2026-07-12T05:49:15Z</time>
      </trkpt>
      <trkpt lat="44.52581" lon="1.23042">
        <ele>139.5</ele>
        <time>2026-07-12T05:49:16Z</time>
      </trkpt>
      <trkpt lat="44.52584" lon="1.23051">
        <ele>137.8</ele>
        <time>2026-07-12T05:49:17Z</time>
      </trkpt>
      <trkpt lat="44.52586" lon="1.23059">
        <ele>135.7</ele>
        <time>2026-07-12T05:49:18Z</time>
      </trkpt>
      <trkpt lat="44.52588" lon="1.2307">
        <ele>133.2</ele>
        <time>2026-07-12T05:49:19Z</time>
      </trkpt>
      <trkpt lat="44.52589" lon="1.23081">
        <ele>130.8</ele>
        <time>2026-07-12T05:49:20Z</time>
      </trkpt>
      <trkpt lat="44.52591" lon="1.23091">
        <ele>128.4</ele>
        <time>2026-07-12T05:49:21Z</time>
      </trkpt>
      <trkpt lat="44.52593" lon="1.231">
        <ele>126.4</ele>
        <time>2026-07-12T05:49:22Z</time>
      </trkpt>
      <trkpt lat="44.52597" lon="1.23107">
        <ele>124.8</ele>
        <time>2026-07-12T05:49:23Z</time>
      </trkpt>
      <trkpt lat="44.52603" lon="1.23112">
        <ele>123.4</ele>
        <time>2026-07-12T05:49:24Z</time>
      </trkpt>
      <trkpt lat="44.5261" lon="1.23116">
        <ele>122.2</ele>
        <time>2026-07-12T05:49:25Z</time>
      </trkpt>
      <trkpt lat="44.52614" lon="1.23121">
        <ele>120.8</ele>
        <time>2026-07-12T05:49:26Z</time>
      </trkpt>
      <trkpt lat="44.52616" lon="1.23127">
        <ele>119.6</ele>
        <time>2026-07-12T05:49:27Z</time>
      </trkpt>
      <trkpt lat="44.52616" lon="1.23134">
        <ele>118.4</ele>
        <time>2026-07-12T05:49:28Z</time>
      </trkpt>
      <trkpt lat="44.52617" lon="1.23141">
        <ele>117.3</ele>
        <time>2026-07-12T05:49:29Z</time>
      </trkpt>
      <trkpt lat="44.52619" lon="1.23145">
        <ele>116.3</ele>
        <time>2026-07-12T05:49:30Z</time>
      </trkpt>
      <trkpt lat="44.52624" lon="1.23149">
        <ele>115.4</ele>
        <time>2026-07-12T05:49:31Z</time>
      </trkpt>
      <trkpt lat="44.5263" lon="1.23153">
        <ele>114.5</ele>
        <time>2026-07-12T05:49:32Z</time>
      </trkpt>
      <trkpt lat="44.52635" lon="1.23156">
        <ele>113.8</ele>
        <time>2026-07-12T05:49:33Z</time>
      </trkpt>
      <trkpt lat="44.52638" lon="1.2316">
        <ele>113.1</ele>
        <time>2026-07-12T05:49:34Z</time>
      </trkpt>
      <trkpt lat="44.52639" lon="1.23164">
        <ele>112.4</ele>
        <time>2026-07-12T05:49:35Z</time>
      </trkpt>
      <trkpt lat="44.52639" lon="1.2317">
        <ele>111.9</ele>
        <time>2026-07-12T05:49:36Z</time>
      </trkpt>
      <trkpt lat="44.52638" lon="1.23176">
        <ele>111.7</ele>
        <time>2026-07-12T05:49:37Z</time>
      </trkpt>
      <trkpt lat="44.52637" lon="1.23184">
        <ele>111.4</ele>
        <time>2026-07-12T05:49:38Z</time>
      </trkpt>
      <trkpt lat="44.52636" lon="1.23191">
        <ele>111</ele>
        <time>2026-07-12T05:49:39Z</time>
      </trkpt>
      <trkpt lat="44.52636" lon="1.23198">
        <ele>110.8</ele>
        <time>2026-07-12T05:49:40Z</time>
      </trkpt>
      <trkpt lat="44.52634" lon="1.23202">
        <ele>110.6</ele>
        <time>2026-07-12T05:49:41Z</time>
      </trkpt>
      <trkpt lat="44.52632" lon="1.23205">
        <ele>110.4</ele>
        <time>2026-07-12T05:49:42Z</time>
      </trkpt>
      <trkpt lat="44.52628" lon="1.23208">
        <ele>110.1</ele>
        <time>2026-07-12T05:49:43Z</time>
      </trkpt>
      <trkpt lat="44.52625" lon="1.23212">
        <ele>109.9</ele>
        <time>2026-07-12T05:49:44Z</time>
      </trkpt>
      <trkpt lat="44.52623" lon="1.23217">
        <ele>109.6</ele>
        <time>2026-07-12T05:49:45Z</time>
      </trkpt>
      <trkpt lat="44.52621" lon="1.23222">
        <ele>109.3</ele>
        <time>2026-07-12T05:49:46Z</time>
      </trkpt>
      <trkpt lat="44.52619" lon="1.23229">
        <ele>109.2</ele>
        <time>2026-07-12T05:49:47Z</time>
      </trkpt>
      <trkpt lat="44.52617" lon="1.23236">
        <ele>109.1</ele>
        <time>2026-07-12T05:49:48Z</time>
      </trkpt>
      <trkpt lat="44.52613" lon="1.23249">
        <ele>109</ele>
        <time>2026-07-12T05:49:50Z</time>
      </trkpt>
      <trkpt lat="44.52605" lon="1.23277">
        <ele>108.8</ele>
        <time>2026-07-12T05:49:54Z</time>
      </trkpt>
      <trkpt lat="44.52594" lon="1.23316">
        <ele>108</ele>
        <time>2026-07-12T05:50:00Z</time>
      </trkpt>
      <trkpt lat="44.52593" lon="1.23323">
        <ele>108</ele>
        <time>2026-07-12T05:50:01Z</time>
      </trkpt>
      <trkpt lat="44.52591" lon="1.23329">
        <ele>108</ele>
        <time>2026-07-12T05:50:02Z</time>
      </trkpt>
      <trkpt lat="44.52589" lon="1.23336">
        <ele>108</ele>
        <time>2026-07-12T05:50:03Z</time>
      </trkpt>
      <trkpt lat="44.52587" lon="1.23342">
        <ele>108</ele>
        <time>2026-07-12T05:50:04Z</time>
      </trkpt>
      <trkpt lat="44.52585" lon="1.23348">
        <ele>108</ele>
        <time>2026-07-12T05:50:05Z</time>
      </trkpt>
      <trkpt lat="44.52582" lon="1.23359">
        <ele>107.9</ele>
        <time>2026-07-12T05:50:07Z</time>
      </trkpt>
      <trkpt lat="44.52578" lon="1.23371">
        <ele>107.9</ele>
        <time>2026-07-12T05:50:09Z</time>
      </trkpt>
      <trkpt lat="44.52576" lon="1.23377">
        <ele>107.9</ele>
        <time>2026-07-12T05:50:10Z</time>
      </trkpt>
      <trkpt lat="44.52574" lon="1.23383">
        <ele>107.9</ele>
        <time>2026-07-12T05:50:11Z</time>
      </trkpt>
      <trkpt lat="44.52573" lon="1.23389">
        <ele>108</ele>
        <time>2026-07-12T05:50:12Z</time>
      </trkpt>
      <trkpt lat="44.52571" lon="1.23395">
        <ele>108</ele>
        <time>2026-07-12T05:50:13Z</time>
      </trkpt>
      <trkpt lat="44.52566" lon="1.23414">
        <ele>108</ele>
        <time>2026-07-12T05:50:16Z</time>
      </trkpt>
      <trkpt lat="44.52562" lon="1.23431">
        <ele>109.3</ele>
        <time>2026-07-12T05:50:19Z</time>
      </trkpt>
      <trkpt lat="44.52557" lon="1.2344">
        <ele>110.4</ele>
        <time>2026-07-12T05:50:21Z</time>
      </trkpt>
      <trkpt lat="44.52554" lon="1.23443">
        <ele>110.9</ele>
        <time>2026-07-12T05:50:22Z</time>
      </trkpt>
      <trkpt lat="44.5255" lon="1.23445">
        <ele>111.3</ele>
        <time>2026-07-12T05:50:23Z</time>
      </trkpt>
      <trkpt lat="44.52546" lon="1.23446">
        <ele>111.6</ele>
        <time>2026-07-12T05:50:24Z</time>
      </trkpt>
      <trkpt lat="44.52542" lon="1.23447">
        <ele>111.9</ele>
        <time>2026-07-12T05:50:25Z</time>
      </trkpt>
      <trkpt lat="44.5254" lon="1.23448">
        <ele>112.1</ele>
        <time>2026-07-12T05:50:26Z</time>
      </trkpt>
      <trkpt lat="44.52539" lon="1.23448">
        <ele>112.2</ele>
        <time>2026-07-12T05:50:27Z</time>
      </trkpt>
      <trkpt lat="44.52537" lon="1.23449">
        <ele>112.4</ele>
        <time>2026-07-12T05:50:28Z</time>
      </trkpt>
      <trkpt lat="44.52529" lon="1.23453">
        <ele>113.6</ele>
        <time>2026-07-12T05:50:31Z</time>
      </trkpt>
      <trkpt lat="44.52521" lon="1.23459">
        <ele>114.8</ele>
        <time>2026-07-12T05:50:34Z</time>
      </trkpt>
      <trkpt lat="44.52515" lon="1.23462">
        <ele>115.7</ele>
        <time>2026-07-12T05:50:36Z</time>
      </trkpt>
      <trkpt lat="44.52512" lon="1.23463">
        <ele>116.1</ele>
        <time>2026-07-12T05:50:37Z</time>
      </trkpt>
      <trkpt lat="44.525" lon="1.2347">
        <ele>118.3</ele>
        <time>2026-07-12T05:50:41Z</time>
      </trkpt>
      <trkpt lat="44.52497" lon="1.23472">
        <ele>118.8</ele>
        <time>2026-07-12T05:50:42Z</time>
      </trkpt>
      <trkpt lat="44.52492" lon="1.23477">
        <ele>120</ele>
        <time>2026-07-12T05:50:44Z</time>
      </trkpt>
      <trkpt lat="44.5249" lon="1.23481">
        <ele>120.6</ele>
        <time>2026-07-12T05:50:45Z</time>
      </trkpt>
      <trkpt lat="44.52488" lon="1.23483">
        <ele>121.1</ele>
        <time>2026-07-12T05:50:46Z</time>
      </trkpt>
      <trkpt lat="44.52485" lon="1.23485">
        <ele>121.6</ele>
        <time>2026-07-12T05:50:47Z</time>
      </trkpt>
      <trkpt lat="44.52482" lon="1.23488">
        <ele>122.1</ele>
        <time>2026-07-12T05:50:48Z</time>
      </trkpt>
      <trkpt lat="44.52479" lon="1.2349">
        <ele>122.6</ele>
        <time>2026-07-12T05:50:49Z</time>
      </trkpt>
      <trkpt lat="44.52475" lon="1.23492">
        <ele>123.1</ele>
        <time>2026-07-12T05:50:50Z</time>
      </trkpt>
      <trkpt lat="44.52472" lon="1.23493">
        <ele>123.5</ele>
        <time>2026-07-12T05:50:51Z</time>
      </trkpt>
      <trkpt lat="44.52469" lon="1.23495">
        <ele>123.9</ele>
        <time>2026-07-12T05:50:52Z</time>
      </trkpt>
      <trkpt lat="44.52466" lon="1.23496">
        <ele>124.2</ele>
        <time>2026-07-12T05:50:53Z</time>
      </trkpt>
      <trkpt lat="44.52463" lon="1.23498">
        <ele>124.6</ele>
        <time>2026-07-12T05:50:54Z</time>
      </trkpt>
      <trkpt lat="44.5246" lon="1.235">
        <ele>124.9</ele>
        <time>2026-07-12T05:50:55Z</time>
      </trkpt>
      <trkpt lat="44.52457" lon="1.23501">
        <ele>125.4</ele>
        <time>2026-07-12T05:50:56Z</time>
      </trkpt>
      <trkpt lat="44.52454" lon="1.23504">
        <ele>126</ele>
        <time>2026-07-12T05:50:57Z</time>
      </trkpt>
      <trkpt lat="44.52452" lon="1.23507">
        <ele>126.8</ele>
        <time>2026-07-12T05:50:58Z</time>
      </trkpt>
      <trkpt lat="44.52449" lon="1.23508">
        <ele>127.3</ele>
        <time>2026-07-12T05:50:59Z</time>
      </trkpt>
      <trkpt lat="44.52447" lon="1.2351">
        <ele>127.8</ele>
        <time>2026-07-12T05:51:00Z</time>
      </trkpt>
      <trkpt lat="44.52444" lon="1.23512">
        <ele>128.4</ele>
        <time>2026-07-12T05:51:01Z</time>
      </trkpt>
      <trkpt lat="44.52442" lon="1.23513">
        <ele>129</ele>
        <time>2026-07-12T05:51:02Z</time>
      </trkpt>
      <trkpt lat="44.52439" lon="1.23515">
        <ele>129.7</ele>
        <time>2026-07-12T05:51:03Z</time>
      </trkpt>
      <trkpt lat="44.52436" lon="1.23517">
        <ele>130.4</ele>
        <time>2026-07-12T05:51:04Z</time>
      </trkpt>
      <trkpt lat="44.52434" lon="1.23519">
        <ele>131</ele>
        <time>2026-07-12T05:51:05Z</time>
      </trkpt>
      <trkpt lat="44.52431" lon="1.2352">
        <ele>131.6</ele>
        <time>2026-07-12T05:51:06Z</time>
      </trkpt>
      <trkpt lat="44.52428" lon="1.23521">
        <ele>132.2</ele>
        <time>2026-07-12T05:51:07Z</time>
      </trkpt>
      <trkpt lat="44.52424" lon="1.23523">
        <ele>132.8</ele>
        <time>2026-07-12T05:51:08Z</time>
      </trkpt>
      <trkpt lat="44.52421" lon="1.23525">
        <ele>133.8</ele>
        <time>2026-07-12T05:51:09Z</time>
      </trkpt>
      <trkpt lat="44.52418" lon="1.23527">
        <ele>134.5</ele>
        <time>2026-07-12T05:51:10Z</time>
      </trkpt>
      <trkpt lat="44.52415" lon="1.23528">
        <ele>135</ele>
        <time>2026-07-12T05:51:11Z</time>
      </trkpt>
      <trkpt lat="44.52412" lon="1.23529">
        <ele>135.3</ele>
        <time>2026-07-12T05:51:12Z</time>
      </trkpt>
      <trkpt lat="44.5241" lon="1.23532">
        <ele>135.9</ele>
        <time>2026-07-12T05:51:13Z</time>
      </trkpt>
      <trkpt lat="44.52407" lon="1.23534">
        <ele>136.4</ele>
        <time>2026-07-12T05:51:14Z</time>
      </trkpt>
      <trkpt lat="44.52405" lon="1.23536">
        <ele>137</ele>
        <time>2026-07-12T05:51:15Z</time>
      </trkpt>
      <trkpt lat="44.52403" lon="1.23539">
        <ele>137.6</ele>
        <time>2026-07-12T05:51:16Z</time>
      </trkpt>
      <trkpt lat="44.52401" lon="1.23541">
        <ele>138.2</ele>
        <time>2026-07-12T05:51:17Z</time>
      </trkpt>
      <trkpt lat="44.52399" lon="1.23543">
        <ele>138.8</ele>
        <time>2026-07-12T05:51:18Z</time>
      </trkpt>
      <trkpt lat="44.52397" lon="1.23545">
        <ele>139.4</ele>
        <time>2026-07-12T05:51:19Z</time>
      </trkpt>
      <trkpt lat="44.52396" lon="1.23547">
        <ele>140.1</ele>
        <time>2026-07-12T05:51:20Z</time>
      </trkpt>
      <trkpt lat="44.52394" lon="1.23549">
        <ele>140.8</ele>
        <time>2026-07-12T05:51:21Z</time>
      </trkpt>
      <trkpt lat="44.52392" lon="1.23551">
        <ele>141.5</ele>
        <time>2026-07-12T05:51:22Z</time>
      </trkpt>
      <trkpt lat="44.5239" lon="1.23553">
        <ele>142.1</ele>
        <time>2026-07-12T05:51:23Z</time>
      </trkpt>
      <trkpt lat="44.52388" lon="1.23555">
        <ele>142.8</ele>
        <time>2026-07-12T05:51:24Z</time>
      </trkpt>
      <trkpt lat="44.52387" lon="1.23558">
        <ele>143.4</ele>
        <time>2026-07-12T05:51:25Z</time>
      </trkpt>
      <trkpt lat="44.52385" lon="1.23561">
        <ele>143.9</ele>
        <time>2026-07-12T05:51:26Z</time>
      </trkpt>
      <trkpt lat="44.52383" lon="1.23564">
        <ele>144.5</ele>
        <time>2026-07-12T05:51:27Z</time>
      </trkpt>
      <trkpt lat="44.52381" lon="1.23566">
        <ele>145</ele>
        <time>2026-07-12T05:51:28Z</time>
      </trkpt>
      <trkpt lat="44.52378" lon="1.23568">
        <ele>145.4</ele>
        <time>2026-07-12T05:51:29Z</time>
      </trkpt>
      <trkpt lat="44.52376" lon="1.2357">
        <ele>145.8</ele>
        <time>2026-07-12T05:51:30Z</time>
      </trkpt>
      <trkpt lat="44.52374" lon="1.23573">
        <ele>146.4</ele>
        <time>2026-07-12T05:51:31Z</time>
      </trkpt>
      <trkpt lat="44.52371" lon="1.23576">
        <ele>147.1</ele>
        <time>2026-07-12T05:51:32Z</time>
      </trkpt>
      <trkpt lat="44.52368" lon="1.23578">
        <ele>147.7</ele>
        <time>2026-07-12T05:51:33Z</time>
      </trkpt>
      <trkpt lat="44.52366" lon="1.2358">
        <ele>148.3</ele>
        <time>2026-07-12T05:51:34Z</time>
      </trkpt>
      <trkpt lat="44.52363" lon="1.23582">
        <ele>148.7</ele>
        <time>2026-07-12T05:51:35Z</time>
      </trkpt>
      <trkpt lat="44.5236" lon="1.23585">
        <ele>149.3</ele>
        <time>2026-07-12T05:51:36Z</time>
      </trkpt>
      <trkpt lat="44.52358" lon="1.23588">
        <ele>149.4</ele>
        <time>2026-07-12T05:51:37Z</time>
      </trkpt>
      <trkpt lat="44.52355" lon="1.2359">
        <ele>149.5</ele>
        <time>2026-07-12T05:51:38Z</time>
      </trkpt>
      <trkpt lat="44.52353" lon="1.23593">
        <ele>149.8</ele>
        <time>2026-07-12T05:51:39Z</time>
      </trkpt>
      <trkpt lat="44.5235" lon="1.23596">
        <ele>150</ele>
        <time>2026-07-12T05:51:40Z</time>
      </trkpt>
      <trkpt lat="44.52347" lon="1.23598">
        <ele>150.3</ele>
        <time>2026-07-12T05:51:41Z</time>
      </trkpt>
      <trkpt lat="44.52345" lon="1.23601">
        <ele>150.7</ele>
        <time>2026-07-12T05:51:42Z</time>
      </trkpt>
      <trkpt lat="44.52343" lon="1.23604">
        <ele>151.2</ele>
        <time>2026-07-12T05:51:43Z</time>
      </trkpt>
      <trkpt lat="44.52341" lon="1.23607">
        <ele>151.8</ele>
        <time>2026-07-12T05:51:44Z</time>
      </trkpt>
      <trkpt lat="44.52339" lon="1.23611">
        <ele>152.5</ele>
        <time>2026-07-12T05:51:45Z</time>
      </trkpt>
      <trkpt lat="44.52337" lon="1.23615">
        <ele>153.3</ele>
        <time>2026-07-12T05:51:46Z</time>
      </trkpt>
      <trkpt lat="44.52336" lon="1.23617">
        <ele>153.9</ele>
        <time>2026-07-12T05:51:47Z</time>
      </trkpt>
      <trkpt lat="44.52334" lon="1.2362">
        <ele>154.4</ele>
        <time>2026-07-12T05:51:48Z</time>
      </trkpt>
      <trkpt lat="44.52332" lon="1.23623">
        <ele>154.6</ele>
        <time>2026-07-12T05:51:49Z</time>
      </trkpt>
      <trkpt lat="44.52329" lon="1.23626">
        <ele>154.7</ele>
        <time>2026-07-12T05:51:50Z</time>
      </trkpt>
      <trkpt lat="44.52328" lon="1.23629">
        <ele>155</ele>
        <time>2026-07-12T05:51:51Z</time>
      </trkpt>
      <trkpt lat="44.52326" lon="1.23632">
        <ele>155.2</ele>
        <time>2026-07-12T05:51:52Z</time>
      </trkpt>
      <trkpt lat="44.52324" lon="1.23636">
        <ele>155.5</ele>
        <time>2026-07-12T05:51:53Z</time>
      </trkpt>
      <trkpt lat="44.52322" lon="1.23639">
        <ele>155.6</ele>
        <time>2026-07-12T05:51:54Z</time>
      </trkpt>
      <trkpt lat="44.5232" lon="1.23643">
        <ele>156.1</ele>
        <time>2026-07-12T05:51:55Z</time>
      </trkpt>
      <trkpt lat="44.52318" lon="1.23647">
        <ele>156.6</ele>
        <time>2026-07-12T05:51:56Z</time>
      </trkpt>
      <trkpt lat="44.52316" lon="1.2365">
        <ele>157</ele>
        <time>2026-07-12T05:51:57Z</time>
      </trkpt>
      <trkpt lat="44.52313" lon="1.23654">
        <ele>157.4</ele>
        <time>2026-07-12T05:51:58Z</time>
      </trkpt>
      <trkpt lat="44.52311" lon="1.23658">
        <ele>157.7</ele>
        <time>2026-07-12T05:51:59Z</time>
      </trkpt>
      <trkpt lat="44.52308" lon="1.23662">
        <ele>158.3</ele>
        <time>2026-07-12T05:52:00Z</time>
      </trkpt>
      <trkpt lat="44.52306" lon="1.23666">
        <ele>158.9</ele>
        <time>2026-07-12T05:52:01Z</time>
      </trkpt>
      <trkpt lat="44.52304" lon="1.2367">
        <ele>159</ele>
        <time>2026-07-12T05:52:02Z</time>
      </trkpt>
      <trkpt lat="44.52302" lon="1.23675">
        <ele>159.1</ele>
        <time>2026-07-12T05:52:03Z</time>
      </trkpt>
      <trkpt lat="44.523" lon="1.23679">
        <ele>159.4</ele>
        <time>2026-07-12T05:52:04Z</time>
      </trkpt>
      <trkpt lat="44.52298" lon="1.23684">
        <ele>159.7</ele>
        <time>2026-07-12T05:52:05Z</time>
      </trkpt>
      <trkpt lat="44.52296" lon="1.23688">
        <ele>160</ele>
        <time>2026-07-12T05:52:06Z</time>
      </trkpt>
      <trkpt lat="44.52294" lon="1.23692">
        <ele>160.2</ele>
        <time>2026-07-12T05:52:07Z</time>
      </trkpt>
      <trkpt lat="44.52292" lon="1.23697">
        <ele>160.5</ele>
        <time>2026-07-12T05:52:08Z</time>
      </trkpt>
      <trkpt lat="44.5229" lon="1.23701">
        <ele>161.1</ele>
        <time>2026-07-12T05:52:09Z</time>
      </trkpt>
      <trkpt lat="44.52288" lon="1.23705">
        <ele>161.5</ele>
        <time>2026-07-12T05:52:10Z</time>
      </trkpt>
      <trkpt lat="44.52286" lon="1.23709">
        <ele>161.9</ele>
        <time>2026-07-12T05:52:11Z</time>
      </trkpt>
      <trkpt lat="44.52284" lon="1.23713">
        <ele>162.5</ele>
        <time>2026-07-12T05:52:12Z</time>
      </trkpt>
      <trkpt lat="44.52282" lon="1.23717">
        <ele>162.9</ele>
        <time>2026-07-12T05:52:13Z</time>
      </trkpt>
      <trkpt lat="44.5228" lon="1.2372">
        <ele>163.3</ele>
        <time>2026-07-12T05:52:14Z</time>
      </trkpt>
      <trkpt lat="44.52278" lon="1.23724">
        <ele>163.7</ele>
        <time>2026-07-12T05:52:15Z</time>
      </trkpt>
      <trkpt lat="44.52276" lon="1.23728">
        <ele>164.1</ele>
        <time>2026-07-12T05:52:16Z</time>
      </trkpt>
      <trkpt lat="44.52274" lon="1.23732">
        <ele>164.6</ele>
        <time>2026-07-12T05:52:17Z</time>
      </trkpt>
      <trkpt lat="44.52273" lon="1.23735">
        <ele>165.1</ele>
        <time>2026-07-12T05:52:18Z</time>
      </trkpt>
      <trkpt lat="44.52271" lon="1.2374">
        <ele>165.9</ele>
        <time>2026-07-12T05:52:19Z</time>
      </trkpt>
      <trkpt lat="44.52269" lon="1.23743">
        <ele>166.4</ele>
        <time>2026-07-12T05:52:20Z</time>
      </trkpt>
      <trkpt lat="44.52267" lon="1.23747">
        <ele>166.9</ele>
        <time>2026-07-12T05:52:21Z</time>
      </trkpt>
      <trkpt lat="44.52265" lon="1.23751">
        <ele>167.5</ele>
        <time>2026-07-12T05:52:22Z</time>
      </trkpt>
      <trkpt lat="44.52263" lon="1.23754">
        <ele>168.2</ele>
        <time>2026-07-12T05:52:23Z</time>
      </trkpt>
      <trkpt lat="44.52262" lon="1.23758">
        <ele>168.7</ele>
        <time>2026-07-12T05:52:24Z</time>
      </trkpt>
      <trkpt lat="44.5226" lon="1.23761">
        <ele>169.1</ele>
        <time>2026-07-12T05:52:25Z</time>
      </trkpt>
      <trkpt lat="44.52258" lon="1.23764">
        <ele>169.5</ele>
        <time>2026-07-12T05:52:26Z</time>
      </trkpt>
      <trkpt lat="44.52256" lon="1.23767">
        <ele>170</ele>
        <time>2026-07-12T05:52:27Z</time>
      </trkpt>
      <trkpt lat="44.52254" lon="1.23769">
        <ele>170.4</ele>
        <time>2026-07-12T05:52:28Z</time>
      </trkpt>
      <trkpt lat="44.52253" lon="1.23772">
        <ele>171</ele>
        <time>2026-07-12T05:52:29Z</time>
      </trkpt>
      <trkpt lat="44.52251" lon="1.23776">
        <ele>171.5</ele>
        <time>2026-07-12T05:52:30Z</time>
      </trkpt>
      <trkpt lat="44.52249" lon="1.23778">
        <ele>172</ele>
        <time>2026-07-12T05:52:31Z</time>
      </trkpt>
      <trkpt lat="44.52247" lon="1.23781">
        <ele>172.2</ele>
        <time>2026-07-12T05:52:32Z</time>
      </trkpt>
      <trkpt lat="44.52246" lon="1.23784">
        <ele>172.7</ele>
        <time>2026-07-12T05:52:33Z</time>
      </trkpt>
      <trkpt lat="44.52244" lon="1.23787">
        <ele>173.3</ele>
        <time>2026-07-12T05:52:34Z</time>
      </trkpt>
      <trkpt lat="44.52242" lon="1.2379">
        <ele>173.9</ele>
        <time>2026-07-12T05:52:35Z</time>
      </trkpt>
      <trkpt lat="44.5224" lon="1.23794">
        <ele>174.6</ele>
        <time>2026-07-12T05:52:36Z</time>
      </trkpt>
      <trkpt lat="44.52239" lon="1.23797">
        <ele>175.2</ele>
        <time>2026-07-12T05:52:37Z</time>
      </trkpt>
      <trkpt lat="44.52237" lon="1.238">
        <ele>175.9</ele>
        <time>2026-07-12T05:52:38Z</time>
      </trkpt>
      <trkpt lat="44.52235" lon="1.23804">
        <ele>176.6</ele>
        <time>2026-07-12T05:52:39Z</time>
      </trkpt>
      <trkpt lat="44.52233" lon="1.23807">
        <ele>177.3</ele>
        <time>2026-07-12T05:52:40Z</time>
      </trkpt>
      <trkpt lat="44.52231" lon="1.23809">
        <ele>177.7</ele>
        <time>2026-07-12T05:52:41Z</time>
      </trkpt>
      <trkpt lat="44.52229" lon="1.23812">
        <ele>178.1</ele>
        <time>2026-07-12T05:52:42Z</time>
      </trkpt>
      <trkpt lat="44.52228" lon="1.23815">
        <ele>178.6</ele>
        <time>2026-07-12T05:52:43Z</time>
      </trkpt>
      <trkpt lat="44.52226" lon="1.23817">
        <ele>179</ele>
        <time>2026-07-12T05:52:44Z</time>
      </trkpt>
      <trkpt lat="44.52224" lon="1.2382">
        <ele>179.3</ele>
        <time>2026-07-12T05:52:45Z</time>
      </trkpt>
      <trkpt lat="44.52222" lon="1.23822">
        <ele>179.7</ele>
        <time>2026-07-12T05:52:46Z</time>
      </trkpt>
      <trkpt lat="44.5222" lon="1.23824">
        <ele>180.1</ele>
        <time>2026-07-12T05:52:47Z</time>
      </trkpt>
      <trkpt lat="44.52219" lon="1.23827">
        <ele>180.6</ele>
        <time>2026-07-12T05:52:48Z</time>
      </trkpt>
      <trkpt lat="44.52217" lon="1.2383">
        <ele>181.2</ele>
        <time>2026-07-12T05:52:49Z</time>
      </trkpt>
      <trkpt lat="44.52216" lon="1.23832">
        <ele>181.8</ele>
        <time>2026-07-12T05:52:50Z</time>
      </trkpt>
      <trkpt lat="44.52215" lon="1.23835">
        <ele>182.6</ele>
        <time>2026-07-12T05:52:51Z</time>
      </trkpt>
      <trkpt lat="44.52213" lon="1.23838">
        <ele>183.4</ele>
        <time>2026-07-12T05:52:52Z</time>
      </trkpt>
      <trkpt lat="44.52211" lon="1.23841">
        <ele>184</ele>
        <time>2026-07-12T05:52:53Z</time>
      </trkpt>
      <trkpt lat="44.5221" lon="1.23843">
        <ele>184.7</ele>
        <time>2026-07-12T05:52:54Z</time>
      </trkpt>
      <trkpt lat="44.52208" lon="1.23846">
        <ele>185.3</ele>
        <time>2026-07-12T05:52:55Z</time>
      </trkpt>
      <trkpt lat="44.52206" lon="1.23848">
        <ele>186</ele>
        <time>2026-07-12T05:52:56Z</time>
      </trkpt>
      <trkpt lat="44.52204" lon="1.23851">
        <ele>186.6</ele>
        <time>2026-07-12T05:52:57Z</time>
      </trkpt>
      <trkpt lat="44.52202" lon="1.23853">
        <ele>187.2</ele>
        <time>2026-07-12T05:52:58Z</time>
      </trkpt>
      <trkpt lat="44.522" lon="1.23855">
        <ele>187.8</ele>
        <time>2026-07-12T05:52:59Z</time>
      </trkpt>
      <trkpt lat="44.52199" lon="1.23858">
        <ele>188.4</ele>
        <time>2026-07-12T05:53:00Z</time>
      </trkpt>
      <trkpt lat="44.52197" lon="1.2386">
        <ele>188.9</ele>
        <time>2026-07-12T05:53:01Z</time>
      </trkpt>
      <trkpt lat="44.52195" lon="1.23862">
        <ele>189.4</ele>
        <time>2026-07-12T05:53:02Z</time>
      </trkpt>
      <trkpt lat="44.52193" lon="1.23865">
        <ele>189.8</ele>
        <time>2026-07-12T05:53:03Z</time>
      </trkpt>
      <trkpt lat="44.52191" lon="1.23867">
        <ele>190.4</ele>
        <time>2026-07-12T05:53:04Z</time>
      </trkpt>
      <trkpt lat="44.52189" lon="1.23871">
        <ele>191.1</ele>
        <time>2026-07-12T05:53:05Z</time>
      </trkpt>
      <trkpt lat="44.52188" lon="1.23873">
        <ele>191.7</ele>
        <time>2026-07-12T05:53:06Z</time>
      </trkpt>
      <trkpt lat="44.52185" lon="1.23875">
        <ele>192</ele>
        <time>2026-07-12T05:53:07Z</time>
      </trkpt>
      <trkpt lat="44.52183" lon="1.23877">
        <ele>192.3</ele>
        <time>2026-07-12T05:53:08Z</time>
      </trkpt>
      <trkpt lat="44.5218" lon="1.23879">
        <ele>192.7</ele>
        <time>2026-07-12T05:53:09Z</time>
      </trkpt>
      <trkpt lat="44.52178" lon="1.23881">
        <ele>193.1</ele>
        <time>2026-07-12T05:53:10Z</time>
      </trkpt>
      <trkpt lat="44.52175" lon="1.23883">
        <ele>193.4</ele>
        <time>2026-07-12T05:53:11Z</time>
      </trkpt>
      <trkpt lat="44.52172" lon="1.23884">
        <ele>193.8</ele>
        <time>2026-07-12T05:53:12Z</time>
      </trkpt>
      <trkpt lat="44.52169" lon="1.23886">
        <ele>194.2</ele>
        <time>2026-07-12T05:53:13Z</time>
      </trkpt>
      <trkpt lat="44.52166" lon="1.23888">
        <ele>194.6</ele>
        <time>2026-07-12T05:53:14Z</time>
      </trkpt>
      <trkpt lat="44.52163" lon="1.23889">
        <ele>195.1</ele>
        <time>2026-07-12T05:53:15Z</time>
      </trkpt>
      <trkpt lat="44.5216" lon="1.2389">
        <ele>195.4</ele>
        <time>2026-07-12T05:53:16Z</time>
      </trkpt>
      <trkpt lat="44.52158" lon="1.23892">
        <ele>195.8</ele>
        <time>2026-07-12T05:53:17Z</time>
      </trkpt>
      <trkpt lat="44.52155" lon="1.23894">
        <ele>196.3</ele>
        <time>2026-07-12T05:53:18Z</time>
      </trkpt>
      <trkpt lat="44.52153" lon="1.23896">
        <ele>196.8</ele>
        <time>2026-07-12T05:53:19Z</time>
      </trkpt>
      <trkpt lat="44.5215" lon="1.23898">
        <ele>197.3</ele>
        <time>2026-07-12T05:53:20Z</time>
      </trkpt>
      <trkpt lat="44.52148" lon="1.23899">
        <ele>197.8</ele>
        <time>2026-07-12T05:53:21Z</time>
      </trkpt>
      <trkpt lat="44.52146" lon="1.23902">
        <ele>198.3</ele>
        <time>2026-07-12T05:53:22Z</time>
      </trkpt>
      <trkpt lat="44.52143" lon="1.23903">
        <ele>198.7</ele>
        <time>2026-07-12T05:53:23Z</time>
      </trkpt>
      <trkpt lat="44.52141" lon="1.23905">
        <ele>199</ele>
        <time>2026-07-12T05:53:24Z</time>
      </trkpt>
      <trkpt lat="44.52138" lon="1.23906">
        <ele>199.4</ele>
        <time>2026-07-12T05:53:25Z</time>
      </trkpt>
      <trkpt lat="44.52135" lon="1.23907">
        <ele>199.8</ele>
        <time>2026-07-12T05:53:26Z</time>
      </trkpt>
      <trkpt lat="44.52132" lon="1.23908">
        <ele>200.1</ele>
        <time>2026-07-12T05:53:27Z</time>
      </trkpt>
      <trkpt lat="44.5213" lon="1.23908">
        <ele>200.3</ele>
        <time>2026-07-12T05:53:28Z</time>
      </trkpt>
      <trkpt lat="44.52127" lon="1.23908">
        <ele>200.3</ele>
        <time>2026-07-12T05:53:29Z</time>
      </trkpt>
      <trkpt lat="44.52124" lon="1.23907">
        <ele>200.3</ele>
        <time>2026-07-12T05:53:30Z</time>
      </trkpt>
      <trkpt lat="44.52121" lon="1.23906">
        <ele>200.3</ele>
        <time>2026-07-12T05:53:31Z</time>
      </trkpt>
      <trkpt lat="44.52117" lon="1.23906">
        <ele>200.5</ele>
        <time>2026-07-12T05:53:32Z</time>
      </trkpt>
      <trkpt lat="44.52113" lon="1.23906">
        <ele>200.7</ele>
        <time>2026-07-12T05:53:33Z</time>
      </trkpt>
      <trkpt lat="44.52109" lon="1.23907">
        <ele>201</ele>
        <time>2026-07-12T05:53:34Z</time>
      </trkpt>
      <trkpt lat="44.52106" lon="1.2391">
        <ele>201.3</ele>
        <time>2026-07-12T05:53:35Z</time>
      </trkpt>
      <trkpt lat="44.52103" lon="1.23913">
        <ele>201.6</ele>
        <time>2026-07-12T05:53:36Z</time>
      </trkpt>
      <trkpt lat="44.52101" lon="1.23917">
        <ele>202</ele>
        <time>2026-07-12T05:53:37Z</time>
      </trkpt>
      <trkpt lat="44.52098" lon="1.2392">
        <ele>202.3</ele>
        <time>2026-07-12T05:53:38Z</time>
      </trkpt>
      <trkpt lat="44.52095" lon="1.23923">
        <ele>202.7</ele>
        <time>2026-07-12T05:53:39Z</time>
      </trkpt>
      <trkpt lat="44.52092" lon="1.23927">
        <ele>202.9</ele>
        <time>2026-07-12T05:53:40Z</time>
      </trkpt>
      <trkpt lat="44.5209" lon="1.2393">
        <ele>203.2</ele>
        <time>2026-07-12T05:53:41Z</time>
      </trkpt>
      <trkpt lat="44.52087" lon="1.23934">
        <ele>203.4</ele>
        <time>2026-07-12T05:53:42Z</time>
      </trkpt>
      <trkpt lat="44.52084" lon="1.23938">
        <ele>203.6</ele>
        <time>2026-07-12T05:53:43Z</time>
      </trkpt>
      <trkpt lat="44.52081" lon="1.2394">
        <ele>203.6</ele>
        <time>2026-07-12T05:53:44Z</time>
      </trkpt>
      <trkpt lat="44.52077" lon="1.23942">
        <ele>203.4</ele>
        <time>2026-07-12T05:53:45Z</time>
      </trkpt>
      <trkpt lat="44.52073" lon="1.23945">
        <ele>203.3</ele>
        <time>2026-07-12T05:53:46Z</time>
      </trkpt>
      <trkpt lat="44.5207" lon="1.23948">
        <ele>203.1</ele>
        <time>2026-07-12T05:53:47Z</time>
      </trkpt>
      <trkpt lat="44.52067" lon="1.23952">
        <ele>202.9</ele>
        <time>2026-07-12T05:53:48Z</time>
      </trkpt>
      <trkpt lat="44.52065" lon="1.23955">
        <ele>202.8</ele>
        <time>2026-07-12T05:53:49Z</time>
      </trkpt>
      <trkpt lat="44.52063" lon="1.23959">
        <ele>202.7</ele>
        <time>2026-07-12T05:53:50Z</time>
      </trkpt>
      <trkpt lat="44.52061" lon="1.23961">
        <ele>202.5</ele>
        <time>2026-07-12T05:53:51Z</time>
      </trkpt>
      <trkpt lat="44.52058" lon="1.23963">
        <ele>202.3</ele>
        <time>2026-07-12T05:53:52Z</time>
      </trkpt>
      <trkpt lat="44.52055" lon="1.23964">
        <ele>202</ele>
        <time>2026-07-12T05:53:53Z</time>
      </trkpt>
      <trkpt lat="44.52052" lon="1.23964">
        <ele>201.6</ele>
        <time>2026-07-12T05:53:54Z</time>
      </trkpt>
      <trkpt lat="44.52048" lon="1.23963">
        <ele>201.1</ele>
        <time>2026-07-12T05:53:55Z</time>
      </trkpt>
      <trkpt lat="44.52044" lon="1.23962">
        <ele>200.6</ele>
        <time>2026-07-12T05:53:56Z</time>
      </trkpt>
      <trkpt lat="44.52039" lon="1.2396">
        <ele>200.2</ele>
        <time>2026-07-12T05:53:57Z</time>
      </trkpt>
      <trkpt lat="44.52035" lon="1.23957">
        <ele>199.9</ele>
        <time>2026-07-12T05:53:58Z</time>
      </trkpt>
      <trkpt lat="44.52031" lon="1.23953">
        <ele>199.7</ele>
        <time>2026-07-12T05:53:59Z</time>
      </trkpt>
      <trkpt lat="44.52028" lon="1.23948">
        <ele>199.7</ele>
        <time>2026-07-12T05:54:00Z</time>
      </trkpt>
      <trkpt lat="44.52024" lon="1.23943">
        <ele>199.8</ele>
        <time>2026-07-12T05:54:01Z</time>
      </trkpt>
      <trkpt lat="44.52021" lon="1.23939">
        <ele>199.7</ele>
        <time>2026-07-12T05:54:02Z</time>
      </trkpt>
      <trkpt lat="44.52017" lon="1.23936">
        <ele>199.6</ele>
        <time>2026-07-12T05:54:03Z</time>
      </trkpt>
      <trkpt lat="44.52013" lon="1.23935">
        <ele>199.4</ele>
        <time>2026-07-12T05:54:04Z</time>
      </trkpt>
      <trkpt lat="44.5201" lon="1.23937">
        <ele>199.1</ele>
        <time>2026-07-12T05:54:05Z</time>
      </trkpt>
      <trkpt lat="44.52008" lon="1.23943">
        <ele>198.7</ele>
        <time>2026-07-12T05:54:06Z</time>
      </trkpt>
      <trkpt lat="44.52008" lon="1.23949">
        <ele>198</ele>
        <time>2026-07-12T05:54:07Z</time>
      </trkpt>
      <trkpt lat="44.52008" lon="1.23957">
        <ele>197.1</ele>
        <time>2026-07-12T05:54:08Z</time>
      </trkpt>
      <trkpt lat="44.5201" lon="1.23965">
        <ele>196.3</ele>
        <time>2026-07-12T05:54:09Z</time>
      </trkpt>
      <trkpt lat="44.52012" lon="1.23974">
        <ele>195.6</ele>
        <time>2026-07-12T05:54:10Z</time>
      </trkpt>
      <trkpt lat="44.52015" lon="1.23983">
        <ele>194.8</ele>
        <time>2026-07-12T05:54:11Z</time>
      </trkpt>
      <trkpt lat="44.52026" lon="1.24022">
        <ele>192.4</ele>
        <time>2026-07-12T05:54:15Z</time>
      </trkpt>
      <trkpt lat="44.52029" lon="1.24032">
        <ele>191.9</ele>
        <time>2026-07-12T05:54:16Z</time>
      </trkpt>
      <trkpt lat="44.5203" lon="1.24041">
        <ele>191.5</ele>
        <time>2026-07-12T05:54:17Z</time>
      </trkpt>
      <trkpt lat="44.52031" lon="1.2405">
        <ele>191</ele>
        <time>2026-07-12T05:54:18Z</time>
      </trkpt>
      <trkpt lat="44.52031" lon="1.24057">
        <ele>190.4</ele>
        <time>2026-07-12T05:54:19Z</time>
      </trkpt>
      <trkpt lat="44.52032" lon="1.24065">
        <ele>190</ele>
        <time>2026-07-12T05:54:20Z</time>
      </trkpt>
      <trkpt lat="44.52031" lon="1.24072">
        <ele>189.5</ele>
        <time>2026-07-12T05:54:21Z</time>
      </trkpt>
      <trkpt lat="44.52031" lon="1.2408">
        <ele>188.8</ele>
        <time>2026-07-12T05:54:22Z</time>
      </trkpt>
      <trkpt lat="44.52031" lon="1.24089">
        <ele>188.1</ele>
        <time>2026-07-12T05:54:23Z</time>
      </trkpt>
      <trkpt lat="44.52029" lon="1.24108">
        <ele>186.7</ele>
        <time>2026-07-12T05:54:25Z</time>
      </trkpt>
      <trkpt lat="44.52026" lon="1.24141">
        <ele>182.8</ele>
        <time>2026-07-12T05:54:28Z</time>
      </trkpt>
      <trkpt lat="44.52026" lon="1.24153">
        <ele>181.6</ele>
        <time>2026-07-12T05:54:29Z</time>
      </trkpt>
      <trkpt lat="44.52028" lon="1.24177">
        <ele>179.4</ele>
        <time>2026-07-12T05:54:31Z</time>
      </trkpt>
      <trkpt lat="44.52028" lon="1.24188">
        <ele>178.2</ele>
        <time>2026-07-12T05:54:32Z</time>
      </trkpt>
      <trkpt lat="44.52028" lon="1.24197">
        <ele>176.9</ele>
        <time>2026-07-12T05:54:33Z</time>
      </trkpt>
      <trkpt lat="44.52028" lon="1.24207">
        <ele>175.7</ele>
        <time>2026-07-12T05:54:34Z</time>
      </trkpt>
      <trkpt lat="44.52028" lon="1.24217">
        <ele>174.5</ele>
        <time>2026-07-12T05:54:35Z</time>
      </trkpt>
      <trkpt lat="44.52028" lon="1.24228">
        <ele>173.3</ele>
        <time>2026-07-12T05:54:36Z</time>
      </trkpt>
      <trkpt lat="44.52029" lon="1.24238">
        <ele>172.1</ele>
        <time>2026-07-12T05:54:37Z</time>
      </trkpt>
      <trkpt lat="44.5203" lon="1.24247">
        <ele>171.1</ele>
        <time>2026-07-12T05:54:38Z</time>
      </trkpt>
      <trkpt lat="44.52031" lon="1.24255">
        <ele>170.1</ele>
        <time>2026-07-12T05:54:39Z</time>
      </trkpt>
      <trkpt lat="44.52031" lon="1.24262">
        <ele>169</ele>
        <time>2026-07-12T05:54:40Z</time>
      </trkpt>
      <trkpt lat="44.52031" lon="1.24268">
        <ele>168</ele>
        <time>2026-07-12T05:54:41Z</time>
      </trkpt>
      <trkpt lat="44.52031" lon="1.24274">
        <ele>167</ele>
        <time>2026-07-12T05:54:42Z</time>
      </trkpt>
      <trkpt lat="44.52032" lon="1.24281">
        <ele>165.8</ele>
        <time>2026-07-12T05:54:43Z</time>
      </trkpt>
      <trkpt lat="44.52034" lon="1.24288">
        <ele>164.5</ele>
        <time>2026-07-12T05:54:44Z</time>
      </trkpt>
      <trkpt lat="44.52036" lon="1.24294">
        <ele>163.3</ele>
        <time>2026-07-12T05:54:45Z</time>
      </trkpt>
      <trkpt lat="44.52038" lon="1.243">
        <ele>162.1</ele>
        <time>2026-07-12T05:54:46Z</time>
      </trkpt>
      <trkpt lat="44.52039" lon="1.24306">
        <ele>160.8</ele>
        <time>2026-07-12T05:54:47Z</time>
      </trkpt>
      <trkpt lat="44.5204" lon="1.24312">
        <ele>160.1</ele>
        <time>2026-07-12T05:54:48Z</time>
      </trkpt>
      <trkpt lat="44.52041" lon="1.24318">
        <ele>159.4</ele>
        <time>2026-07-12T05:54:49Z</time>
      </trkpt>
      <trkpt lat="44.52041" lon="1.24332">
        <ele>157.6</ele>
        <time>2026-07-12T05:54:51Z</time>
      </trkpt>
      <trkpt lat="44.52041" lon="1.2434">
        <ele>157.7</ele>
        <time>2026-07-12T05:54:52Z</time>
      </trkpt>
      <trkpt lat="44.5204" lon="1.24347">
        <ele>158</ele>
        <time>2026-07-12T05:54:53Z</time>
      </trkpt>
      <trkpt lat="44.52039" lon="1.24353">
        <ele>158</ele>
        <time>2026-07-12T05:54:54Z</time>
      </trkpt>
      <trkpt lat="44.52036" lon="1.24359">
        <ele>157.7</ele>
        <time>2026-07-12T05:54:55Z</time>
      </trkpt>
      <trkpt lat="44.52033" lon="1.24364">
        <ele>157.4</ele>
        <time>2026-07-12T05:54:56Z</time>
      </trkpt>
      <trkpt lat="44.52029" lon="1.24369">
        <ele>157.2</ele>
        <time>2026-07-12T05:54:57Z</time>
      </trkpt>
      <trkpt lat="44.52026" lon="1.24374">
        <ele>157.2</ele>
        <time>2026-07-12T05:54:58Z</time>
      </trkpt>
      <trkpt lat="44.52021" lon="1.24383">
        <ele>157.1</ele>
        <time>2026-07-12T05:55:00Z</time>
      </trkpt>
      <trkpt lat="44.5202" lon="1.24386">
        <ele>157.1</ele>
        <time>2026-07-12T05:55:01Z</time>
      </trkpt>
      <trkpt lat="44.52019" lon="1.24389">
        <ele>157.1</ele>
        <time>2026-07-12T05:55:02Z</time>
      </trkpt>
      <trkpt lat="44.52019" lon="1.24391">
        <ele>157.3</ele>
        <time>2026-07-12T05:55:03Z</time>
      </trkpt>
      <trkpt lat="44.52018" lon="1.24393">
        <ele>157.3</ele>
        <time>2026-07-12T05:55:04Z</time>
      </trkpt>
      <trkpt lat="44.52018" lon="1.24395">
        <ele>157.4</ele>
        <time>2026-07-12T05:55:05Z</time>
      </trkpt>
      <trkpt lat="44.52018" lon="1.24397">
        <ele>157.5</ele>
        <time>2026-07-12T05:55:06Z</time>
      </trkpt>
      <trkpt lat="44.52016" lon="1.24407">
        <ele>157.9</ele>
        <time>2026-07-12T05:55:10Z</time>
      </trkpt>
      <trkpt lat="44.52015" lon="1.2441">
        <ele>157.8</ele>
        <time>2026-07-12T05:55:11Z</time>
      </trkpt>
      <trkpt lat="44.52014" lon="1.24412">
        <ele>157.6</ele>
        <time>2026-07-12T05:55:12Z</time>
      </trkpt>
      <trkpt lat="44.52012" lon="1.24415">
        <ele>157.4</ele>
        <time>2026-07-12T05:55:13Z</time>
      </trkpt>
      <trkpt lat="44.5201" lon="1.24423">
        <ele>157.4</ele>
        <time>2026-07-12T05:55:15Z</time>
      </trkpt>
      <trkpt lat="44.5201" lon="1.24428">
        <ele>157.6</ele>
        <time>2026-07-12T05:55:16Z</time>
      </trkpt>
      <trkpt lat="44.52009" lon="1.24434">
        <ele>157.7</ele>
        <time>2026-07-12T05:55:17Z</time>
      </trkpt>
      <trkpt lat="44.52007" lon="1.24439">
        <ele>157.7</ele>
        <time>2026-07-12T05:55:18Z</time>
      </trkpt>
      <trkpt lat="44.52004" lon="1.24449">
        <ele>157.4</ele>
        <time>2026-07-12T05:55:20Z</time>
      </trkpt>
      <trkpt lat="44.52003" lon="1.24455">
        <ele>157.2</ele>
        <time>2026-07-12T05:55:21Z</time>
      </trkpt>
      <trkpt lat="44.52001" lon="1.24459">
        <ele>157</ele>
        <time>2026-07-12T05:55:22Z</time>
      </trkpt>
      <trkpt lat="44.52001" lon="1.24463">
        <ele>156.9</ele>
        <time>2026-07-12T05:55:23Z</time>
      </trkpt>
      <trkpt lat="44.52" lon="1.24466">
        <ele>156.8</ele>
        <time>2026-07-12T05:55:24Z</time>
      </trkpt>
      <trkpt lat="44.52" lon="1.2447">
        <ele>156.9</ele>
        <time>2026-07-12T05:55:25Z</time>
      </trkpt>
      <trkpt lat="44.51997" lon="1.24494">
        <ele>157.7</ele>
        <time>2026-07-12T05:55:30Z</time>
      </trkpt>
      <trkpt lat="44.51997" lon="1.24498">
        <ele>157.8</ele>
        <time>2026-07-12T05:55:31Z</time>
      </trkpt>
      <trkpt lat="44.51997" lon="1.24501">
        <ele>158</ele>
        <time>2026-07-12T05:55:32Z</time>
      </trkpt>
      <trkpt lat="44.51996" lon="1.24505">
        <ele>158.3</ele>
        <time>2026-07-12T05:55:33Z</time>
      </trkpt>
      <trkpt lat="44.51996" lon="1.24508">
        <ele>158.6</ele>
        <time>2026-07-12T05:55:34Z</time>
      </trkpt>
      <trkpt lat="44.51994" lon="1.2451">
        <ele>158.8</ele>
        <time>2026-07-12T05:55:35Z</time>
      </trkpt>
      <trkpt lat="44.51991" lon="1.24512">
        <ele>158.8</ele>
        <time>2026-07-12T05:55:36Z</time>
      </trkpt>
      <trkpt lat="44.51984" lon="1.24515">
        <ele>158.7</ele>
        <time>2026-07-12T05:55:38Z</time>
      </trkpt>
      <trkpt lat="44.5198" lon="1.24516">
        <ele>158.6</ele>
        <time>2026-07-12T05:55:39Z</time>
      </trkpt>
      <trkpt lat="44.51964" lon="1.24522">
        <ele>159.3</ele>
        <time>2026-07-12T05:55:43Z</time>
      </trkpt>
      <trkpt lat="44.5196" lon="1.24523">
        <ele>159.6</ele>
        <time>2026-07-12T05:55:44Z</time>
      </trkpt>
      <trkpt lat="44.51957" lon="1.24525">
        <ele>159.9</ele>
        <time>2026-07-12T05:55:45Z</time>
      </trkpt>
      <trkpt lat="44.51946" lon="1.24529">
        <ele>160.9</ele>
        <time>2026-07-12T05:55:48Z</time>
      </trkpt>
      <trkpt lat="44.51938" lon="1.24532">
        <ele>161.8</ele>
        <time>2026-07-12T05:55:50Z</time>
      </trkpt>
      <trkpt lat="44.51934" lon="1.24533">
        <ele>162.2</ele>
        <time>2026-07-12T05:55:51Z</time>
      </trkpt>
      <trkpt lat="44.51931" lon="1.24535">
        <ele>162.8</ele>
        <time>2026-07-12T05:55:52Z</time>
      </trkpt>
      <trkpt lat="44.51928" lon="1.24538">
        <ele>163.3</ele>
        <time>2026-07-12T05:55:53Z</time>
      </trkpt>
      <trkpt lat="44.51926" lon="1.24541">
        <ele>163.7</ele>
        <time>2026-07-12T05:55:54Z</time>
      </trkpt>
      <trkpt lat="44.51925" lon="1.24546">
        <ele>164</ele>
        <time>2026-07-12T05:55:55Z</time>
      </trkpt>
      <trkpt lat="44.51924" lon="1.2455">
        <ele>164.3</ele>
        <time>2026-07-12T05:55:56Z</time>
      </trkpt>
      <trkpt lat="44.51924" lon="1.24554">
        <ele>164.6</ele>
        <time>2026-07-12T05:55:57Z</time>
      </trkpt>
      <trkpt lat="44.51924" lon="1.24558">
        <ele>164.8</ele>
        <time>2026-07-12T05:55:58Z</time>
      </trkpt>
      <trkpt lat="44.51925" lon="1.24563">
        <ele>164.9</ele>
        <time>2026-07-12T05:55:59Z</time>
      </trkpt>
      <trkpt lat="44.51926" lon="1.24569">
        <ele>165.1</ele>
        <time>2026-07-12T05:56:00Z</time>
      </trkpt>
      <trkpt lat="44.51926" lon="1.24574">
        <ele>165.4</ele>
        <time>2026-07-12T05:56:01Z</time>
      </trkpt>
      <trkpt lat="44.51927" lon="1.2458">
        <ele>165.6</ele>
        <time>2026-07-12T05:56:02Z</time>
      </trkpt>
      <trkpt lat="44.51928" lon="1.24585">
        <ele>166</ele>
        <time>2026-07-12T05:56:03Z</time>
      </trkpt>
      <trkpt lat="44.51929" lon="1.2459">
        <ele>166.5</ele>
        <time>2026-07-12T05:56:04Z</time>
      </trkpt>
      <trkpt lat="44.5193" lon="1.24595">
        <ele>167</ele>
        <time>2026-07-12T05:56:05Z</time>
      </trkpt>
      <trkpt lat="44.51932" lon="1.24599">
        <ele>167.4</ele>
        <time>2026-07-12T05:56:06Z</time>
      </trkpt>
      <trkpt lat="44.51933" lon="1.24604">
        <ele>167.8</ele>
        <time>2026-07-12T05:56:07Z</time>
      </trkpt>
      <trkpt lat="44.51933" lon="1.24609">
        <ele>168.3</ele>
        <time>2026-07-12T05:56:08Z</time>
      </trkpt>
      <trkpt lat="44.51934" lon="1.24613">
        <ele>168.7</ele>
        <time>2026-07-12T05:56:09Z</time>
      </trkpt>
      <trkpt lat="44.51934" lon="1.24618">
        <ele>169.1</ele>
        <time>2026-07-12T05:56:10Z</time>
      </trkpt>
      <trkpt lat="44.51933" lon="1.24622">
        <ele>169.5</ele>
        <time>2026-07-12T05:56:11Z</time>
      </trkpt>
      <trkpt lat="44.51933" lon="1.24627">
        <ele>170</ele>
        <time>2026-07-12T05:56:12Z</time>
      </trkpt>
      <trkpt lat="44.51932" lon="1.24631">
        <ele>170.6</ele>
        <time>2026-07-12T05:56:13Z</time>
      </trkpt>
      <trkpt lat="44.5193" lon="1.24636">
        <ele>171.3</ele>
        <time>2026-07-12T05:56:14Z</time>
      </trkpt>
      <trkpt lat="44.51929" lon="1.24641">
        <ele>171.9</ele>
        <time>2026-07-12T05:56:15Z</time>
      </trkpt>
      <trkpt lat="44.51929" lon="1.24646">
        <ele>172.4</ele>
        <time>2026-07-12T05:56:16Z</time>
      </trkpt>
      <trkpt lat="44.51928" lon="1.24651">
        <ele>173</ele>
        <time>2026-07-12T05:56:17Z</time>
      </trkpt>
      <trkpt lat="44.51927" lon="1.24657">
        <ele>173.6</ele>
        <time>2026-07-12T05:56:18Z</time>
      </trkpt>
      <trkpt lat="44.51927" lon="1.24662">
        <ele>174.1</ele>
        <time>2026-07-12T05:56:19Z</time>
      </trkpt>
      <trkpt lat="44.51926" lon="1.24667">
        <ele>174.7</ele>
        <time>2026-07-12T05:56:20Z</time>
      </trkpt>
      <trkpt lat="44.51925" lon="1.24671">
        <ele>175.4</ele>
        <time>2026-07-12T05:56:21Z</time>
      </trkpt>
      <trkpt lat="44.51925" lon="1.24676">
        <ele>176.1</ele>
        <time>2026-07-12T05:56:22Z</time>
      </trkpt>
      <trkpt lat="44.51925" lon="1.2468">
        <ele>176.6</ele>
        <time>2026-07-12T05:56:23Z</time>
      </trkpt>
      <trkpt lat="44.51925" lon="1.24685">
        <ele>177.2</ele>
        <time>2026-07-12T05:56:24Z</time>
      </trkpt>
      <trkpt lat="44.51925" lon="1.2469">
        <ele>177.7</ele>
        <time>2026-07-12T05:56:25Z</time>
      </trkpt>
      <trkpt lat="44.51925" lon="1.24694">
        <ele>178.2</ele>
        <time>2026-07-12T05:56:26Z</time>
      </trkpt>
      <trkpt lat="44.51926" lon="1.24699">
        <ele>178.5</ele>
        <time>2026-07-12T05:56:27Z</time>
      </trkpt>
      <trkpt lat="44.51926" lon="1.24704">
        <ele>178.9</ele>
        <time>2026-07-12T05:56:28Z</time>
      </trkpt>
      <trkpt lat="44.51926" lon="1.24709">
        <ele>179.4</ele>
        <time>2026-07-12T05:56:29Z</time>
      </trkpt>
      <trkpt lat="44.51926" lon="1.24714">
        <ele>179.8</ele>
        <time>2026-07-12T05:56:30Z</time>
      </trkpt>
      <trkpt lat="44.51927" lon="1.24718">
        <ele>180.1</ele>
        <time>2026-07-12T05:56:31Z</time>
      </trkpt>
      <trkpt lat="44.51927" lon="1.24722">
        <ele>180.4</ele>
        <time>2026-07-12T05:56:32Z</time>
      </trkpt>
      <trkpt lat="44.51927" lon="1.24726">
        <ele>180.8</ele>
        <time>2026-07-12T05:56:33Z</time>
      </trkpt>
      <trkpt lat="44.51926" lon="1.24731">
        <ele>181.3</ele>
        <time>2026-07-12T05:56:34Z</time>
      </trkpt>
      <trkpt lat="44.51926" lon="1.24735">
        <ele>181.9</ele>
        <time>2026-07-12T05:56:35Z</time>
      </trkpt>
      <trkpt lat="44.51925" lon="1.2474">
        <ele>182.6</ele>
        <time>2026-07-12T05:56:36Z</time>
      </trkpt>
      <trkpt lat="44.51925" lon="1.24744">
        <ele>183.1</ele>
        <time>2026-07-12T05:56:37Z</time>
      </trkpt>
      <trkpt lat="44.51924" lon="1.24748">
        <ele>183.7</ele>
        <time>2026-07-12T05:56:38Z</time>
      </trkpt>
      <trkpt lat="44.51924" lon="1.24752">
        <ele>184.4</ele>
        <time>2026-07-12T05:56:39Z</time>
      </trkpt>
      <trkpt lat="44.51923" lon="1.24756">
        <ele>185.1</ele>
        <time>2026-07-12T05:56:40Z</time>
      </trkpt>
      <trkpt lat="44.51923" lon="1.24761">
        <ele>185.5</ele>
        <time>2026-07-12T05:56:41Z</time>
      </trkpt>
      <trkpt lat="44.51923" lon="1.24766">
        <ele>185.9</ele>
        <time>2026-07-12T05:56:42Z</time>
      </trkpt>
      <trkpt lat="44.51923" lon="1.24771">
        <ele>186.1</ele>
        <time>2026-07-12T05:56:43Z</time>
      </trkpt>
      <trkpt lat="44.51923" lon="1.24776">
        <ele>186.4</ele>
        <time>2026-07-12T05:56:44Z</time>
      </trkpt>
      <trkpt lat="44.51924" lon="1.24781">
        <ele>186.8</ele>
        <time>2026-07-12T05:56:45Z</time>
      </trkpt>
      <trkpt lat="44.51925" lon="1.24785">
        <ele>187.2</ele>
        <time>2026-07-12T05:56:46Z</time>
      </trkpt>
      <trkpt lat="44.51925" lon="1.24789">
        <ele>187.6</ele>
        <time>2026-07-12T05:56:47Z</time>
      </trkpt>
      <trkpt lat="44.51925" lon="1.24793">
        <ele>188.2</ele>
        <time>2026-07-12T05:56:48Z</time>
      </trkpt>
      <trkpt lat="44.51925" lon="1.24797">
        <ele>188.8</ele>
        <time>2026-07-12T05:56:49Z</time>
      </trkpt>
      <trkpt lat="44.51925" lon="1.24801">
        <ele>189.3</ele>
        <time>2026-07-12T05:56:50Z</time>
      </trkpt>
      <trkpt lat="44.51925" lon="1.24805">
        <ele>189.8</ele>
        <time>2026-07-12T05:56:51Z</time>
      </trkpt>
      <trkpt lat="44.51926" lon="1.24809">
        <ele>190.3</ele>
        <time>2026-07-12T05:56:52Z</time>
      </trkpt>
      <trkpt lat="44.51927" lon="1.24813">
        <ele>190.7</ele>
        <time>2026-07-12T05:56:53Z</time>
      </trkpt>
      <trkpt lat="44.51927" lon="1.24817">
        <ele>191.2</ele>
        <time>2026-07-12T05:56:54Z</time>
      </trkpt>
      <trkpt lat="44.51927" lon="1.24821">
        <ele>191.7</ele>
        <time>2026-07-12T05:56:55Z</time>
      </trkpt>
      <trkpt lat="44.51928" lon="1.24825">
        <ele>192.3</ele>
        <time>2026-07-12T05:56:56Z</time>
      </trkpt>
      <trkpt lat="44.51928" lon="1.24829">
        <ele>193</ele>
        <time>2026-07-12T05:56:57Z</time>
      </trkpt>
      <trkpt lat="44.51928" lon="1.24832">
        <ele>193.7</ele>
        <time>2026-07-12T05:56:58Z</time>
      </trkpt>
      <trkpt lat="44.51928" lon="1.24837">
        <ele>194.3</ele>
        <time>2026-07-12T05:56:59Z</time>
      </trkpt>
      <trkpt lat="44.51929" lon="1.24841">
        <ele>194.6</ele>
        <time>2026-07-12T05:57:00Z</time>
      </trkpt>
      <trkpt lat="44.51929" lon="1.24844">
        <ele>195</ele>
        <time>2026-07-12T05:57:01Z</time>
      </trkpt>
      <trkpt lat="44.5193" lon="1.24848">
        <ele>195.4</ele>
        <time>2026-07-12T05:57:02Z</time>
      </trkpt>
      <trkpt lat="44.5193" lon="1.24852">
        <ele>195.8</ele>
        <time>2026-07-12T05:57:03Z</time>
      </trkpt>
      <trkpt lat="44.51931" lon="1.24856">
        <ele>196.3</ele>
        <time>2026-07-12T05:57:04Z</time>
      </trkpt>
      <trkpt lat="44.51931" lon="1.2486">
        <ele>196.7</ele>
        <time>2026-07-12T05:57:05Z</time>
      </trkpt>
      <trkpt lat="44.51931" lon="1.24864">
        <ele>197.1</ele>
        <time>2026-07-12T05:57:06Z</time>
      </trkpt>
      <trkpt lat="44.51931" lon="1.24867">
        <ele>197.5</ele>
        <time>2026-07-12T05:57:07Z</time>
      </trkpt>
      <trkpt lat="44.51931" lon="1.24871">
        <ele>198</ele>
        <time>2026-07-12T05:57:08Z</time>
      </trkpt>
      <trkpt lat="44.51931" lon="1.24875">
        <ele>198.4</ele>
        <time>2026-07-12T05:57:09Z</time>
      </trkpt>
      <trkpt lat="44.5193" lon="1.24878">
        <ele>198.9</ele>
        <time>2026-07-12T05:57:10Z</time>
      </trkpt>
      <trkpt lat="44.5193" lon="1.24881">
        <ele>199.4</ele>
        <time>2026-07-12T05:57:11Z</time>
      </trkpt>
      <trkpt lat="44.51929" lon="1.24885">
        <ele>199.9</ele>
        <time>2026-07-12T05:57:12Z</time>
      </trkpt>
      <trkpt lat="44.51928" lon="1.24888">
        <ele>200.4</ele>
        <time>2026-07-12T05:57:13Z</time>
      </trkpt>
      <trkpt lat="44.51927" lon="1.2489">
        <ele>200.8</ele>
        <time>2026-07-12T05:57:14Z</time>
      </trkpt>
      <trkpt lat="44.51927" lon="1.24893">
        <ele>201.2</ele>
        <time>2026-07-12T05:57:15Z</time>
      </trkpt>
      <trkpt lat="44.51925" lon="1.24896">
        <ele>201.8</ele>
        <time>2026-07-12T05:57:16Z</time>
      </trkpt>
      <trkpt lat="44.51924" lon="1.24901">
        <ele>202.4</ele>
        <time>2026-07-12T05:57:17Z</time>
      </trkpt>
      <trkpt lat="44.51924" lon="1.24904">
        <ele>202.8</ele>
        <time>2026-07-12T05:57:18Z</time>
      </trkpt>
      <trkpt lat="44.51923" lon="1.24907">
        <ele>203.1</ele>
        <time>2026-07-12T05:57:19Z</time>
      </trkpt>
      <trkpt lat="44.51923" lon="1.2491">
        <ele>203.3</ele>
        <time>2026-07-12T05:57:20Z</time>
      </trkpt>
      <trkpt lat="44.51923" lon="1.24913">
        <ele>203.6</ele>
        <time>2026-07-12T05:57:21Z</time>
      </trkpt>
      <trkpt lat="44.51922" lon="1.24916">
        <ele>204</ele>
        <time>2026-07-12T05:57:22Z</time>
      </trkpt>
      <trkpt lat="44.51921" lon="1.24918">
        <ele>204.3</ele>
        <time>2026-07-12T05:57:23Z</time>
      </trkpt>
      <trkpt lat="44.5192" lon="1.24919">
        <ele>204.5</ele>
        <time>2026-07-12T05:57:24Z</time>
      </trkpt>
      <trkpt lat="44.5192" lon="1.24921">
        <ele>204.6</ele>
        <time>2026-07-12T05:57:25Z</time>
      </trkpt>
      <trkpt lat="44.51919" lon="1.24922">
        <ele>204.8</ele>
        <time>2026-07-12T05:57:26Z</time>
      </trkpt>
      <trkpt lat="44.51918" lon="1.24923">
        <ele>205</ele>
        <time>2026-07-12T05:57:27Z</time>
      </trkpt>
      <trkpt lat="44.51918" lon="1.24925">
        <ele>205.1</ele>
        <time>2026-07-12T05:57:28Z</time>
      </trkpt>
      <trkpt lat="44.51918" lon="1.24928">
        <ele>205.2</ele>
        <time>2026-07-12T05:57:29Z</time>
      </trkpt>
      <trkpt lat="44.51919" lon="1.24932">
        <ele>205.2</ele>
        <time>2026-07-12T05:57:30Z</time>
      </trkpt>
      <trkpt lat="44.5192" lon="1.24935">
        <ele>205.2</ele>
        <time>2026-07-12T05:57:31Z</time>
      </trkpt>
      <trkpt lat="44.51921" lon="1.24939">
        <ele>205.2</ele>
        <time>2026-07-12T05:57:32Z</time>
      </trkpt>
      <trkpt lat="44.51922" lon="1.24943">
        <ele>205.1</ele>
        <time>2026-07-12T05:57:33Z</time>
      </trkpt>
      <trkpt lat="44.51924" lon="1.24947">
        <ele>204.9</ele>
        <time>2026-07-12T05:57:34Z</time>
      </trkpt>
      <trkpt lat="44.51925" lon="1.24952">
        <ele>204.8</ele>
        <time>2026-07-12T05:57:35Z</time>
      </trkpt>
      <trkpt lat="44.51926" lon="1.24956">
        <ele>204.6</ele>
        <time>2026-07-12T05:57:36Z</time>
      </trkpt>
      <trkpt lat="44.51927" lon="1.24961">
        <ele>204.6</ele>
        <time>2026-07-12T05:57:37Z</time>
      </trkpt>
      <trkpt lat="44.51928" lon="1.24966">
        <ele>204.5</ele>
        <time>2026-07-12T05:57:38Z</time>
      </trkpt>
      <trkpt lat="44.51928" lon="1.24971">
        <ele>204.6</ele>
        <time>2026-07-12T05:57:39Z</time>
      </trkpt>
      <trkpt lat="44.51929" lon="1.24976">
        <ele>204.6</ele>
        <time>2026-07-12T05:57:40Z</time>
      </trkpt>
      <trkpt lat="44.51928" lon="1.24981">
        <ele>204.6</ele>
        <time>2026-07-12T05:57:41Z</time>
      </trkpt>
      <trkpt lat="44.51927" lon="1.24986">
        <ele>204.6</ele>
        <time>2026-07-12T05:57:42Z</time>
      </trkpt>
      <trkpt lat="44.51925" lon="1.2499">
        <ele>204.7</ele>
        <time>2026-07-12T05:57:43Z</time>
      </trkpt>
      <trkpt lat="44.51923" lon="1.24993">
        <ele>204.8</ele>
        <time>2026-07-12T05:57:44Z</time>
      </trkpt>
      <trkpt lat="44.51922" lon="1.24995">
        <ele>204.8</ele>
        <time>2026-07-12T05:57:45Z</time>
      </trkpt>
      <trkpt lat="44.51922" lon="1.24997">
        <ele>204.8</ele>
        <time>2026-07-12T05:57:46Z</time>
      </trkpt>
      <trkpt lat="44.51921" lon="1.24999">
        <ele>204.8</ele>
        <time>2026-07-12T05:57:47Z</time>
      </trkpt>
      <trkpt lat="44.5192" lon="1.25">
        <ele>204.9</ele>
        <time>2026-07-12T05:57:48Z</time>
      </trkpt>
      <trkpt lat="44.5192" lon="1.25001">
        <ele>204.9</ele>
        <time>2026-07-12T05:57:49Z</time>
      </trkpt>
      <trkpt lat="44.51919" lon="1.25002">
        <ele>204.9</ele>
        <time>2026-07-12T05:57:50Z</time>
      </trkpt>
      <trkpt lat="44.51918" lon="1.25002">
        <ele>204.9</ele>
        <time>2026-07-12T05:57:51Z</time>
      </trkpt>
      <trkpt lat="44.51918" lon="1.25001">
        <ele>205</ele>
        <time>2026-07-12T05:57:52Z</time>
      </trkpt>
      <trkpt lat="44.51918" lon="1.25001">
        <ele>205</ele>
        <time>2026-07-12T05:57:53Z</time>
      </trkpt>
      <trkpt lat="44.51918" lon="1.25001">
        <ele>205</ele>
        <time>2026-07-12T05:57:55Z</time>
      </trkpt>
      <trkpt lat="44.51914" lon="1.24998">
        <ele>204.8</ele>
        <time>2026-07-12T05:58:16Z</time>
      </trkpt>
      <trkpt lat="44.51912" lon="1.24997">
        <ele>204.7</ele>
        <time>2026-07-12T05:58:17Z</time>
      </trkpt>
      <trkpt lat="44.51904" lon="1.24996">
        <ele>204.2</ele>
        <time>2026-07-12T05:58:20Z</time>
      </trkpt>
      <trkpt lat="44.51901" lon="1.25">
        <ele>203.9</ele>
        <time>2026-07-12T05:58:21Z</time>
      </trkpt>
      <trkpt lat="44.51899" lon="1.25012">
        <ele>203.2</ele>
        <time>2026-07-12T05:58:23Z</time>
      </trkpt>
      <trkpt lat="44.51898" lon="1.25024">
        <ele>202.6</ele>
        <time>2026-07-12T05:58:25Z</time>
      </trkpt>
      <trkpt lat="44.51899" lon="1.25029">
        <ele>202.4</ele>
        <time>2026-07-12T05:58:26Z</time>
      </trkpt>
      <trkpt lat="44.51901" lon="1.25034">
        <ele>202.2</ele>
        <time>2026-07-12T05:58:27Z</time>
      </trkpt>
      <trkpt lat="44.51903" lon="1.25038">
        <ele>202.3</ele>
        <time>2026-07-12T05:58:28Z</time>
      </trkpt>
      <trkpt lat="44.51905" lon="1.25042">
        <ele>202.4</ele>
        <time>2026-07-12T05:58:29Z</time>
      </trkpt>
      <trkpt lat="44.51908" lon="1.25045">
        <ele>202.5</ele>
        <time>2026-07-12T05:58:30Z</time>
      </trkpt>
      <trkpt lat="44.51911" lon="1.25048">
        <ele>202.7</ele>
        <time>2026-07-12T05:58:31Z</time>
      </trkpt>
      <trkpt lat="44.51919" lon="1.25058">
        <ele>202.8</ele>
        <time>2026-07-12T05:58:34Z</time>
      </trkpt>
      <trkpt lat="44.51922" lon="1.2506">
        <ele>202.7</ele>
        <time>2026-07-12T05:58:35Z</time>
      </trkpt>
      <trkpt lat="44.51925" lon="1.25061">
        <ele>202.6</ele>
        <time>2026-07-12T05:58:36Z</time>
      </trkpt>
      <trkpt lat="44.51928" lon="1.25062">
        <ele>202.5</ele>
        <time>2026-07-12T05:58:37Z</time>
      </trkpt>
      <trkpt lat="44.51931" lon="1.25063">
        <ele>202.5</ele>
        <time>2026-07-12T05:58:38Z</time>
      </trkpt>
      <trkpt lat="44.51934" lon="1.25064">
        <ele>202.4</ele>
        <time>2026-07-12T05:58:39Z</time>
      </trkpt>
      <trkpt lat="44.51937" lon="1.25065">
        <ele>202.3</ele>
        <time>2026-07-12T05:58:40Z</time>
      </trkpt>
      <trkpt lat="44.51941" lon="1.25066">
        <ele>202.2</ele>
        <time>2026-07-12T05:58:41Z</time>
      </trkpt>
      <trkpt lat="44.51948" lon="1.25069">
        <ele>201.8</ele>
        <time>2026-07-12T05:58:43Z</time>
      </trkpt>
      <trkpt lat="44.51955" lon="1.25074">
        <ele>200.9</ele>
        <time>2026-07-12T05:58:45Z</time>
      </trkpt>
      <trkpt lat="44.51958" lon="1.25077">
        <ele>200.6</ele>
        <time>2026-07-12T05:58:46Z</time>
      </trkpt>
      <trkpt lat="44.51967" lon="1.25089">
        <ele>200</ele>
        <time>2026-07-12T05:58:49Z</time>
      </trkpt>
      <trkpt lat="44.51973" lon="1.25098">
        <ele>199.5</ele>
        <time>2026-07-12T05:58:51Z</time>
      </trkpt>
      <trkpt lat="44.51978" lon="1.25107">
        <ele>199.1</ele>
        <time>2026-07-12T05:58:53Z</time>
      </trkpt>
      <trkpt lat="44.51978" lon="1.25111">
        <ele>199</ele>
        <time>2026-07-12T05:58:54Z</time>
      </trkpt>
      <trkpt lat="44.51976" lon="1.25115">
        <ele>198.9</ele>
        <time>2026-07-12T05:58:55Z</time>
      </trkpt>
      <trkpt lat="44.51969" lon="1.25124">
        <ele>198.4</ele>
        <time>2026-07-12T05:58:57Z</time>
      </trkpt>
      <trkpt lat="44.51965" lon="1.25128">
        <ele>197.9</ele>
        <time>2026-07-12T05:58:58Z</time>
      </trkpt>
      <trkpt lat="44.51961" lon="1.25132">
        <ele>197.1</ele>
        <time>2026-07-12T05:58:59Z</time>
      </trkpt>
      <trkpt lat="44.51956" lon="1.25135">
        <ele>196.3</ele>
        <time>2026-07-12T05:59:00Z</time>
      </trkpt>
      <trkpt lat="44.51951" lon="1.25135">
        <ele>195.7</ele>
        <time>2026-07-12T05:59:01Z</time>
      </trkpt>
      <trkpt lat="44.51947" lon="1.25132">
        <ele>195.6</ele>
        <time>2026-07-12T05:59:02Z</time>
      </trkpt>
      <trkpt lat="44.51937" lon="1.25128">
        <ele>195.4</ele>
        <time>2026-07-12T05:59:04Z</time>
      </trkpt>
      <trkpt lat="44.51931" lon="1.25126">
        <ele>195</ele>
        <time>2026-07-12T05:59:05Z</time>
      </trkpt>
      <trkpt lat="44.51925" lon="1.25126">
        <ele>194.4</ele>
        <time>2026-07-12T05:59:06Z</time>
      </trkpt>
      <trkpt lat="44.51919" lon="1.25125">
        <ele>193.7</ele>
        <time>2026-07-12T05:59:07Z</time>
      </trkpt>
      <trkpt lat="44.51914" lon="1.25127">
        <ele>192.6</ele>
        <time>2026-07-12T05:59:08Z</time>
      </trkpt>
      <trkpt lat="44.51908" lon="1.2513">
        <ele>191.6</ele>
        <time>2026-07-12T05:59:09Z</time>
      </trkpt>
      <trkpt lat="44.51902" lon="1.25131">
        <ele>190.7</ele>
        <time>2026-07-12T05:59:10Z</time>
      </trkpt>
      <trkpt lat="44.51895" lon="1.25133">
        <ele>189.8</ele>
        <time>2026-07-12T05:59:11Z</time>
      </trkpt>
      <trkpt lat="44.51888" lon="1.25135">
        <ele>188.7</ele>
        <time>2026-07-12T05:59:12Z</time>
      </trkpt>
      <trkpt lat="44.51876" lon="1.25145">
        <ele>185.4</ele>
        <time>2026-07-12T05:59:14Z</time>
      </trkpt>
      <trkpt lat="44.51871" lon="1.25152">
        <ele>184</ele>
        <time>2026-07-12T05:59:15Z</time>
      </trkpt>
      <trkpt lat="44.51868" lon="1.2516">
        <ele>182.7</ele>
        <time>2026-07-12T05:59:16Z</time>
      </trkpt>
      <trkpt lat="44.51865" lon="1.25169">
        <ele>181.3</ele>
        <time>2026-07-12T05:59:17Z</time>
      </trkpt>
      <trkpt lat="44.51862" lon="1.25178">
        <ele>180.3</ele>
        <time>2026-07-12T05:59:18Z</time>
      </trkpt>
      <trkpt lat="44.51861" lon="1.25189">
        <ele>179.4</ele>
        <time>2026-07-12T05:59:19Z</time>
      </trkpt>
      <trkpt lat="44.5186" lon="1.25198">
        <ele>178.3</ele>
        <time>2026-07-12T05:59:20Z</time>
      </trkpt>
      <trkpt lat="44.51858" lon="1.25204">
        <ele>177.2</ele>
        <time>2026-07-12T05:59:21Z</time>
      </trkpt>
      <trkpt lat="44.51856" lon="1.25207">
        <ele>176.4</ele>
        <time>2026-07-12T05:59:22Z</time>
      </trkpt>
      <trkpt lat="44.51853" lon="1.25207">
        <ele>175.9</ele>
        <time>2026-07-12T05:59:23Z</time>
      </trkpt>
      <trkpt lat="44.51849" lon="1.25205">
        <ele>175.3</ele>
        <time>2026-07-12T05:59:24Z</time>
      </trkpt>
      <trkpt lat="44.51843" lon="1.25203">
        <ele>174.8</ele>
        <time>2026-07-12T05:59:25Z</time>
      </trkpt>
      <trkpt lat="44.51838" lon="1.252">
        <ele>174.2</ele>
        <time>2026-07-12T05:59:26Z</time>
      </trkpt>
      <trkpt lat="44.51832" lon="1.25197">
        <ele>173.5</ele>
        <time>2026-07-12T05:59:27Z</time>
      </trkpt>
      <trkpt lat="44.51818" lon="1.2519">
        <ele>172.6</ele>
        <time>2026-07-12T05:59:29Z</time>
      </trkpt>
      <trkpt lat="44.51811" lon="1.25187">
        <ele>172.3</ele>
        <time>2026-07-12T05:59:30Z</time>
      </trkpt>
      <trkpt lat="44.51805" lon="1.25184">
        <ele>172.2</ele>
        <time>2026-07-12T05:59:31Z</time>
      </trkpt>
      <trkpt lat="44.518" lon="1.25182">
        <ele>172.5</ele>
        <time>2026-07-12T05:59:32Z</time>
      </trkpt>
      <trkpt lat="44.51795" lon="1.25179">
        <ele>172.8</ele>
        <time>2026-07-12T05:59:33Z</time>
      </trkpt>
      <trkpt lat="44.5179" lon="1.25176">
        <ele>173</ele>
        <time>2026-07-12T05:59:34Z</time>
      </trkpt>
      <trkpt lat="44.51784" lon="1.25174">
        <ele>173.1</ele>
        <time>2026-07-12T05:59:35Z</time>
      </trkpt>
      <trkpt lat="44.51773" lon="1.25169">
        <ele>173</ele>
        <time>2026-07-12T05:59:37Z</time>
      </trkpt>
      <trkpt lat="44.51758" lon="1.25167">
        <ele>171.9</ele>
        <time>2026-07-12T05:59:39Z</time>
      </trkpt>
      <trkpt lat="44.51743" lon="1.25166">
        <ele>169.9</ele>
        <time>2026-07-12T05:59:41Z</time>
      </trkpt>
      <trkpt lat="44.51736" lon="1.25164">
        <ele>168.9</ele>
        <time>2026-07-12T05:59:42Z</time>
      </trkpt>
      <trkpt lat="44.5173" lon="1.25162">
        <ele>168.2</ele>
        <time>2026-07-12T05:59:43Z</time>
      </trkpt>
      <trkpt lat="44.51724" lon="1.25161">
        <ele>167.6</ele>
        <time>2026-07-12T05:59:44Z</time>
      </trkpt>
      <trkpt lat="44.51718" lon="1.25159">
        <ele>167.7</ele>
        <time>2026-07-12T05:59:45Z</time>
      </trkpt>
      <trkpt lat="44.51712" lon="1.25157">
        <ele>168</ele>
        <time>2026-07-12T05:59:46Z</time>
      </trkpt>
      <trkpt lat="44.51707" lon="1.25157">
        <ele>168</ele>
        <time>2026-07-12T05:59:47Z</time>
      </trkpt>
      <trkpt lat="44.51702" lon="1.25159">
        <ele>167.5</ele>
        <time>2026-07-12T05:59:48Z</time>
      </trkpt>
      <trkpt lat="44.51698" lon="1.25162">
        <ele>167</ele>
        <time>2026-07-12T05:59:49Z</time>
      </trkpt>
      <trkpt lat="44.51695" lon="1.25164">
        <ele>166.5</ele>
        <time>2026-07-12T05:59:50Z</time>
      </trkpt>
      <trkpt lat="44.51691" lon="1.25168">
        <ele>165.8</ele>
        <time>2026-07-12T05:59:51Z</time>
      </trkpt>
      <trkpt lat="44.51687" lon="1.2517">
        <ele>165.3</ele>
        <time>2026-07-12T05:59:52Z</time>
      </trkpt>
      <trkpt lat="44.51683" lon="1.25172">
        <ele>164.9</ele>
        <time>2026-07-12T05:59:53Z</time>
      </trkpt>
      <trkpt lat="44.51678" lon="1.25174">
        <ele>164.7</ele>
        <time>2026-07-12T05:59:54Z</time>
      </trkpt>
      <trkpt lat="44.51673" lon="1.25176">
        <ele>164.3</ele>
        <time>2026-07-12T05:59:55Z</time>
      </trkpt>
      <trkpt lat="44.51667" lon="1.25179">
        <ele>163.8</ele>
        <time>2026-07-12T05:59:56Z</time>
      </trkpt>
      <trkpt lat="44.5166" lon="1.25181">
        <ele>163.2</ele>
        <time>2026-07-12T05:59:57Z</time>
      </trkpt>
      <trkpt lat="44.51645" lon="1.25187">
        <ele>161.5</ele>
        <time>2026-07-12T05:59:59Z</time>
      </trkpt>
      <trkpt lat="44.51637" lon="1.25193">
        <ele>159.9</ele>
        <time>2026-07-12T06:00:00Z</time>
      </trkpt>
      <trkpt lat="44.51628" lon="1.25198">
        <ele>157.1</ele>
        <time>2026-07-12T06:00:01Z</time>
      </trkpt>
      <trkpt lat="44.51608" lon="1.25207">
        <ele>152.4</ele>
        <time>2026-07-12T06:00:03Z</time>
      </trkpt>
      <trkpt lat="44.51589" lon="1.25214">
        <ele>149.1</ele>
        <time>2026-07-12T06:00:05Z</time>
      </trkpt>
      <trkpt lat="44.51581" lon="1.25217">
        <ele>147.7</ele>
        <time>2026-07-12T06:00:06Z</time>
      </trkpt>
      <trkpt lat="44.51575" lon="1.25218">
        <ele>146.2</ele>
        <time>2026-07-12T06:00:07Z</time>
      </trkpt>
      <trkpt lat="44.51568" lon="1.25217">
        <ele>145.3</ele>
        <time>2026-07-12T06:00:08Z</time>
      </trkpt>
      <trkpt lat="44.51561" lon="1.25216">
        <ele>144.3</ele>
        <time>2026-07-12T06:00:09Z</time>
      </trkpt>
      <trkpt lat="44.51555" lon="1.25217">
        <ele>143.1</ele>
        <time>2026-07-12T06:00:10Z</time>
      </trkpt>
      <trkpt lat="44.51548" lon="1.25219">
        <ele>142.3</ele>
        <time>2026-07-12T06:00:11Z</time>
      </trkpt>
      <trkpt lat="44.51542" lon="1.25222">
        <ele>141.6</ele>
        <time>2026-07-12T06:00:12Z</time>
      </trkpt>
      <trkpt lat="44.51536" lon="1.25223">
        <ele>141.2</ele>
        <time>2026-07-12T06:00:13Z</time>
      </trkpt>
      <trkpt lat="44.51531" lon="1.25224">
        <ele>141</ele>
        <time>2026-07-12T06:00:14Z</time>
      </trkpt>
      <trkpt lat="44.51526" lon="1.25224">
        <ele>140.4</ele>
        <time>2026-07-12T06:00:15Z</time>
      </trkpt>
      <trkpt lat="44.51521" lon="1.25222">
        <ele>139.2</ele>
        <time>2026-07-12T06:00:16Z</time>
      </trkpt>
      <trkpt lat="44.51512" lon="1.25218">
        <ele>137.7</ele>
        <time>2026-07-12T06:00:17Z</time>
      </trkpt>
      <trkpt lat="44.51506" lon="1.25217">
        <ele>136.6</ele>
        <time>2026-07-12T06:00:18Z</time>
      </trkpt>
      <trkpt lat="44.51499" lon="1.25216">
        <ele>135.2</ele>
        <time>2026-07-12T06:00:19Z</time>
      </trkpt>
      <trkpt lat="44.51489" lon="1.25217">
        <ele>134.3</ele>
        <time>2026-07-12T06:00:20Z</time>
      </trkpt>
      <trkpt lat="44.5148" lon="1.25219">
        <ele>133.2</ele>
        <time>2026-07-12T06:00:21Z</time>
      </trkpt>
      <trkpt lat="44.51471" lon="1.25222">
        <ele>132.1</ele>
        <time>2026-07-12T06:00:22Z</time>
      </trkpt>
      <trkpt lat="44.51464" lon="1.25224">
        <ele>131.5</ele>
        <time>2026-07-12T06:00:23Z</time>
      </trkpt>
      <trkpt lat="44.51446" lon="1.25227">
        <ele>130.1</ele>
        <time>2026-07-12T06:00:25Z</time>
      </trkpt>
      <trkpt lat="44.5144" lon="1.25227">
        <ele>129.5</ele>
        <time>2026-07-12T06:00:26Z</time>
      </trkpt>
      <trkpt lat="44.51433" lon="1.25226">
        <ele>128.7</ele>
        <time>2026-07-12T06:00:27Z</time>
      </trkpt>
      <trkpt lat="44.51426" lon="1.25225">
        <ele>128</ele>
        <time>2026-07-12T06:00:28Z</time>
      </trkpt>
      <trkpt lat="44.51419" lon="1.25225">
        <ele>127.1</ele>
        <time>2026-07-12T06:00:29Z</time>
      </trkpt>
      <trkpt lat="44.51412" lon="1.25226">
        <ele>126.4</ele>
        <time>2026-07-12T06:00:30Z</time>
      </trkpt>
      <trkpt lat="44.51405" lon="1.25227">
        <ele>125.8</ele>
        <time>2026-07-12T06:00:31Z</time>
      </trkpt>
      <trkpt lat="44.5139" lon="1.25229">
        <ele>124.7</ele>
        <time>2026-07-12T06:00:33Z</time>
      </trkpt>
      <trkpt lat="44.51375" lon="1.25229">
        <ele>123.8</ele>
        <time>2026-07-12T06:00:35Z</time>
      </trkpt>
      <trkpt lat="44.51367" lon="1.25229">
        <ele>123.3</ele>
        <time>2026-07-12T06:00:36Z</time>
      </trkpt>
      <trkpt lat="44.51351" lon="1.2523">
        <ele>122.6</ele>
        <time>2026-07-12T06:00:38Z</time>
      </trkpt>
      <trkpt lat="44.51343" lon="1.2523">
        <ele>122.2</ele>
        <time>2026-07-12T06:00:39Z</time>
      </trkpt>
      <trkpt lat="44.51334" lon="1.25233">
        <ele>121.4</ele>
        <time>2026-07-12T06:00:40Z</time>
      </trkpt>
      <trkpt lat="44.51326" lon="1.25237">
        <ele>120.6</ele>
        <time>2026-07-12T06:00:41Z</time>
      </trkpt>
      <trkpt lat="44.51318" lon="1.25241">
        <ele>119.6</ele>
        <time>2026-07-12T06:00:42Z</time>
      </trkpt>
      <trkpt lat="44.51294" lon="1.25249">
        <ele>116.3</ele>
        <time>2026-07-12T06:00:45Z</time>
      </trkpt>
      <trkpt lat="44.51288" lon="1.2525">
        <ele>115.7</ele>
        <time>2026-07-12T06:00:46Z</time>
      </trkpt>
      <trkpt lat="44.51283" lon="1.2525">
        <ele>115.4</ele>
        <time>2026-07-12T06:00:47Z</time>
      </trkpt>
      <trkpt lat="44.5128" lon="1.25252">
        <ele>115.2</ele>
        <time>2026-07-12T06:00:48Z</time>
      </trkpt>
      <trkpt lat="44.51276" lon="1.25255">
        <ele>115.2</ele>
        <time>2026-07-12T06:00:49Z</time>
      </trkpt>
      <trkpt lat="44.51274" lon="1.25259">
        <ele>115.4</ele>
        <time>2026-07-12T06:00:50Z</time>
      </trkpt>
      <trkpt lat="44.51273" lon="1.25264">
        <ele>115.6</ele>
        <time>2026-07-12T06:00:51Z</time>
      </trkpt>
      <trkpt lat="44.51272" lon="1.25269">
        <ele>115.7</ele>
        <time>2026-07-12T06:00:52Z</time>
      </trkpt>
      <trkpt lat="44.51271" lon="1.25274">
        <ele>115.8</ele>
        <time>2026-07-12T06:00:53Z</time>
      </trkpt>
      <trkpt lat="44.5127" lon="1.25278">
        <ele>115.9</ele>
        <time>2026-07-12T06:00:54Z</time>
      </trkpt>
      <trkpt lat="44.51269" lon="1.25283">
        <ele>116.2</ele>
        <time>2026-07-12T06:00:55Z</time>
      </trkpt>
      <trkpt lat="44.51267" lon="1.25295">
        <ele>116.8</ele>
        <time>2026-07-12T06:00:58Z</time>
      </trkpt>
      <trkpt lat="44.51267" lon="1.253">
        <ele>117.1</ele>
        <time>2026-07-12T06:00:59Z</time>
      </trkpt>
      <trkpt lat="44.51267" lon="1.25304">
        <ele>117.4</ele>
        <time>2026-07-12T06:01:00Z</time>
      </trkpt>
      <trkpt lat="44.51267" lon="1.25309">
        <ele>117.5</ele>
        <time>2026-07-12T06:01:01Z</time>
      </trkpt>
      <trkpt lat="44.51267" lon="1.25313">
        <ele>117.6</ele>
        <time>2026-07-12T06:01:02Z</time>
      </trkpt>
      <trkpt lat="44.51268" lon="1.25318">
        <ele>117.7</ele>
        <time>2026-07-12T06:01:03Z</time>
      </trkpt>
      <trkpt lat="44.5127" lon="1.25334">
        <ele>118.5</ele>
        <time>2026-07-12T06:01:06Z</time>
      </trkpt>
      <trkpt lat="44.51273" lon="1.25345">
        <ele>118.3</ele>
        <time>2026-07-12T06:01:08Z</time>
      </trkpt>
      <trkpt lat="44.51278" lon="1.25371">
        <ele>117.2</ele>
        <time>2026-07-12T06:01:13Z</time>
      </trkpt>
      <trkpt lat="44.51291" lon="1.25419">
        <ele>120.1</ele>
        <time>2026-07-12T06:01:21Z</time>
      </trkpt>
      <trkpt lat="44.51296" lon="1.25442">
        <ele>120.4</ele>
        <time>2026-07-12T06:01:24Z</time>
      </trkpt>
      <trkpt lat="44.51303" lon="1.25473">
        <ele>120.9</ele>
        <time>2026-07-12T06:01:28Z</time>
      </trkpt>
      <trkpt lat="44.51305" lon="1.25481">
        <ele>120.5</ele>
        <time>2026-07-12T06:01:29Z</time>
      </trkpt>
      <trkpt lat="44.51313" lon="1.25502">
        <ele>119.9</ele>
        <time>2026-07-12T06:01:32Z</time>
      </trkpt>
      <trkpt lat="44.51319" lon="1.25516">
        <ele>120.2</ele>
        <time>2026-07-12T06:01:34Z</time>
      </trkpt>
      <trkpt lat="44.51326" lon="1.25529">
        <ele>120.3</ele>
        <time>2026-07-12T06:01:36Z</time>
      </trkpt>
      <trkpt lat="44.51336" lon="1.2555">
        <ele>121.9</ele>
        <time>2026-07-12T06:01:39Z</time>
      </trkpt>
      <trkpt lat="44.51339" lon="1.25556">
        <ele>122.3</ele>
        <time>2026-07-12T06:01:40Z</time>
      </trkpt>
      <trkpt lat="44.51343" lon="1.25563">
        <ele>122.5</ele>
        <time>2026-07-12T06:01:41Z</time>
      </trkpt>
      <trkpt lat="44.51345" lon="1.25569">
        <ele>122.7</ele>
        <time>2026-07-12T06:01:42Z</time>
      </trkpt>
      <trkpt lat="44.51348" lon="1.25578">
        <ele>123</ele>
        <time>2026-07-12T06:01:43Z</time>
      </trkpt>
      <trkpt lat="44.51351" lon="1.25585">
        <ele>123.3</ele>
        <time>2026-07-12T06:01:44Z</time>
      </trkpt>
      <trkpt lat="44.51353" lon="1.25592">
        <ele>123.4</ele>
        <time>2026-07-12T06:01:45Z</time>
      </trkpt>
      <trkpt lat="44.51356" lon="1.256">
        <ele>123.4</ele>
        <time>2026-07-12T06:01:46Z</time>
      </trkpt>
      <trkpt lat="44.51358" lon="1.25607">
        <ele>123.4</ele>
        <time>2026-07-12T06:01:47Z</time>
      </trkpt>
      <trkpt lat="44.5136" lon="1.25615">
        <ele>123.5</ele>
        <time>2026-07-12T06:01:48Z</time>
      </trkpt>
      <trkpt lat="44.51362" lon="1.25623">
        <ele>123.7</ele>
        <time>2026-07-12T06:01:49Z</time>
      </trkpt>
      <trkpt lat="44.51364" lon="1.2563">
        <ele>123.9</ele>
        <time>2026-07-12T06:01:50Z</time>
      </trkpt>
      <trkpt lat="44.51366" lon="1.25638">
        <ele>124</ele>
        <time>2026-07-12T06:01:51Z</time>
      </trkpt>
      <trkpt lat="44.51368" lon="1.25646">
        <ele>124.3</ele>
        <time>2026-07-12T06:01:52Z</time>
      </trkpt>
      <trkpt lat="44.51369" lon="1.25654">
        <ele>124.4</ele>
        <time>2026-07-12T06:01:53Z</time>
      </trkpt>
      <trkpt lat="44.5137" lon="1.25662">
        <ele>124.4</ele>
        <time>2026-07-12T06:01:54Z</time>
      </trkpt>
      <trkpt lat="44.51371" lon="1.2567">
        <ele>124.6</ele>
        <time>2026-07-12T06:01:55Z</time>
      </trkpt>
      <trkpt lat="44.51372" lon="1.25678">
        <ele>124.8</ele>
        <time>2026-07-12T06:01:56Z</time>
      </trkpt>
      <trkpt lat="44.51373" lon="1.25686">
        <ele>124.9</ele>
        <time>2026-07-12T06:01:57Z</time>
      </trkpt>
      <trkpt lat="44.51373" lon="1.25695">
        <ele>124.9</ele>
        <time>2026-07-12T06:01:58Z</time>
      </trkpt>
      <trkpt lat="44.51373" lon="1.25704">
        <ele>124.6</ele>
        <time>2026-07-12T06:01:59Z</time>
      </trkpt>
      <trkpt lat="44.51372" lon="1.25712">
        <ele>124.2</ele>
        <time>2026-07-12T06:02:00Z</time>
      </trkpt>
      <trkpt lat="44.51372" lon="1.25721">
        <ele>123.7</ele>
        <time>2026-07-12T06:02:01Z</time>
      </trkpt>
      <trkpt lat="44.51371" lon="1.2573">
        <ele>123.8</ele>
        <time>2026-07-12T06:02:02Z</time>
      </trkpt>
      <trkpt lat="44.5137" lon="1.25739">
        <ele>123.9</ele>
        <time>2026-07-12T06:02:03Z</time>
      </trkpt>
      <trkpt lat="44.51369" lon="1.25747">
        <ele>123.9</ele>
        <time>2026-07-12T06:02:04Z</time>
      </trkpt>
      <trkpt lat="44.51367" lon="1.25756">
        <ele>123.6</ele>
        <time>2026-07-12T06:02:05Z</time>
      </trkpt>
      <trkpt lat="44.51365" lon="1.25765">
        <ele>123.1</ele>
        <time>2026-07-12T06:02:06Z</time>
      </trkpt>
      <trkpt lat="44.51363" lon="1.25772">
        <ele>122.6</ele>
        <time>2026-07-12T06:02:07Z</time>
      </trkpt>
      <trkpt lat="44.51361" lon="1.25783">
        <ele>122</ele>
        <time>2026-07-12T06:02:08Z</time>
      </trkpt>
      <trkpt lat="44.51358" lon="1.25792">
        <ele>121.7</ele>
        <time>2026-07-12T06:02:09Z</time>
      </trkpt>
      <trkpt lat="44.51355" lon="1.25801">
        <ele>121.2</ele>
        <time>2026-07-12T06:02:10Z</time>
      </trkpt>
      <trkpt lat="44.51352" lon="1.25809">
        <ele>120.5</ele>
        <time>2026-07-12T06:02:11Z</time>
      </trkpt>
      <trkpt lat="44.51349" lon="1.25818">
        <ele>119.8</ele>
        <time>2026-07-12T06:02:12Z</time>
      </trkpt>
      <trkpt lat="44.51345" lon="1.25827">
        <ele>119.3</ele>
        <time>2026-07-12T06:02:13Z</time>
      </trkpt>
      <trkpt lat="44.51342" lon="1.25836">
        <ele>118.9</ele>
        <time>2026-07-12T06:02:14Z</time>
      </trkpt>
      <trkpt lat="44.51331" lon="1.25863">
        <ele>117.7</ele>
        <time>2026-07-12T06:02:17Z</time>
      </trkpt>
      <trkpt lat="44.51328" lon="1.25872">
        <ele>117.7</ele>
        <time>2026-07-12T06:02:18Z</time>
      </trkpt>
      <trkpt lat="44.51326" lon="1.25881">
        <ele>117.6</ele>
        <time>2026-07-12T06:02:19Z</time>
      </trkpt>
      <trkpt lat="44.51324" lon="1.2589">
        <ele>117.6</ele>
        <time>2026-07-12T06:02:20Z</time>
      </trkpt>
      <trkpt lat="44.51322" lon="1.25908">
        <ele>117.3</ele>
        <time>2026-07-12T06:02:22Z</time>
      </trkpt>
      <trkpt lat="44.51321" lon="1.25916">
        <ele>117.4</ele>
        <time>2026-07-12T06:02:23Z</time>
      </trkpt>
      <trkpt lat="44.51321" lon="1.25925">
        <ele>117.3</ele>
        <time>2026-07-12T06:02:24Z</time>
      </trkpt>
      <trkpt lat="44.51321" lon="1.25931">
        <ele>117.2</ele>
        <time>2026-07-12T06:02:25Z</time>
      </trkpt>
      <trkpt lat="44.5132" lon="1.25941">
        <ele>117.2</ele>
        <time>2026-07-12T06:02:26Z</time>
      </trkpt>
      <trkpt lat="44.5132" lon="1.25956">
        <ele>117</ele>
        <time>2026-07-12T06:02:28Z</time>
      </trkpt>
      <trkpt lat="44.5132" lon="1.25964">
        <ele>117</ele>
        <time>2026-07-12T06:02:29Z</time>
      </trkpt>
      <trkpt lat="44.5132" lon="1.25971">
        <ele>117.1</ele>
        <time>2026-07-12T06:02:30Z</time>
      </trkpt>
      <trkpt lat="44.5132" lon="1.25978">
        <ele>117.2</ele>
        <time>2026-07-12T06:02:31Z</time>
      </trkpt>
      <trkpt lat="44.51321" lon="1.25985">
        <ele>117.3</ele>
        <time>2026-07-12T06:02:32Z</time>
      </trkpt>
      <trkpt lat="44.51322" lon="1.25999">
        <ele>117.6</ele>
        <time>2026-07-12T06:02:34Z</time>
      </trkpt>
      <trkpt lat="44.51323" lon="1.26006">
        <ele>117.5</ele>
        <time>2026-07-12T06:02:35Z</time>
      </trkpt>
      <trkpt lat="44.51323" lon="1.26013">
        <ele>117.4</ele>
        <time>2026-07-12T06:02:36Z</time>
      </trkpt>
      <trkpt lat="44.51324" lon="1.2602">
        <ele>117.3</ele>
        <time>2026-07-12T06:02:37Z</time>
      </trkpt>
      <trkpt lat="44.51325" lon="1.26027">
        <ele>117.2</ele>
        <time>2026-07-12T06:02:38Z</time>
      </trkpt>
      <trkpt lat="44.51325" lon="1.2604">
        <ele>117.1</ele>
        <time>2026-07-12T06:02:40Z</time>
      </trkpt>
      <trkpt lat="44.51325" lon="1.26045">
        <ele>116.9</ele>
        <time>2026-07-12T06:02:41Z</time>
      </trkpt>
      <trkpt lat="44.51324" lon="1.26049">
        <ele>116.7</ele>
        <time>2026-07-12T06:02:42Z</time>
      </trkpt>
      <trkpt lat="44.51322" lon="1.26053">
        <ele>116.4</ele>
        <time>2026-07-12T06:02:43Z</time>
      </trkpt>
      <trkpt lat="44.51319" lon="1.26056">
        <ele>116</ele>
        <time>2026-07-12T06:02:44Z</time>
      </trkpt>
      <trkpt lat="44.51317" lon="1.26058">
        <ele>115.5</ele>
        <time>2026-07-12T06:02:45Z</time>
      </trkpt>
      <trkpt lat="44.51312" lon="1.26059">
        <ele>114.8</ele>
        <time>2026-07-12T06:02:46Z</time>
      </trkpt>
      <trkpt lat="44.51308" lon="1.2606">
        <ele>114.2</ele>
        <time>2026-07-12T06:02:47Z</time>
      </trkpt>
      <trkpt lat="44.51304" lon="1.26061">
        <ele>113.8</ele>
        <time>2026-07-12T06:02:48Z</time>
      </trkpt>
      <trkpt lat="44.513" lon="1.26063">
        <ele>113.6</ele>
        <time>2026-07-12T06:02:49Z</time>
      </trkpt>
      <trkpt lat="44.51297" lon="1.26066">
        <ele>113.4</ele>
        <time>2026-07-12T06:02:50Z</time>
      </trkpt>
      <trkpt lat="44.51293" lon="1.26069">
        <ele>113.3</ele>
        <time>2026-07-12T06:02:51Z</time>
      </trkpt>
      <trkpt lat="44.51291" lon="1.26072">
        <ele>113.2</ele>
        <time>2026-07-12T06:02:52Z</time>
      </trkpt>
      <trkpt lat="44.51281" lon="1.26086">
        <ele>113.1</ele>
        <time>2026-07-12T06:02:56Z</time>
      </trkpt>
      <trkpt lat="44.51279" lon="1.2609">
        <ele>113.2</ele>
        <time>2026-07-12T06:02:57Z</time>
      </trkpt>
      <trkpt lat="44.51277" lon="1.26094">
        <ele>113.4</ele>
        <time>2026-07-12T06:02:58Z</time>
      </trkpt>
      <trkpt lat="44.51274" lon="1.26097">
        <ele>113.6</ele>
        <time>2026-07-12T06:02:59Z</time>
      </trkpt>
      <trkpt lat="44.51267" lon="1.26102">
        <ele>113.8</ele>
        <time>2026-07-12T06:03:01Z</time>
      </trkpt>
      <trkpt lat="44.51262" lon="1.26104">
        <ele>113.9</ele>
        <time>2026-07-12T06:03:02Z</time>
      </trkpt>
      <trkpt lat="44.51249" lon="1.2611">
        <ele>114</ele>
        <time>2026-07-12T06:03:05Z</time>
      </trkpt>
      <trkpt lat="44.51245" lon="1.26111">
        <ele>114</ele>
        <time>2026-07-12T06:03:06Z</time>
      </trkpt>
      <trkpt lat="44.51242" lon="1.26112">
        <ele>114</ele>
        <time>2026-07-12T06:03:07Z</time>
      </trkpt>
      <trkpt lat="44.51238" lon="1.26114">
        <ele>114</ele>
        <time>2026-07-12T06:03:08Z</time>
      </trkpt>
      <trkpt lat="44.51214" lon="1.26125">
        <ele>114.1</ele>
        <time>2026-07-12T06:03:14Z</time>
      </trkpt>
      <trkpt lat="44.5121" lon="1.26126">
        <ele>114.2</ele>
        <time>2026-07-12T06:03:15Z</time>
      </trkpt>
      <trkpt lat="44.51206" lon="1.26127">
        <ele>114.3</ele>
        <time>2026-07-12T06:03:16Z</time>
      </trkpt>
      <trkpt lat="44.51202" lon="1.26129">
        <ele>114.5</ele>
        <time>2026-07-12T06:03:17Z</time>
      </trkpt>
      <trkpt lat="44.51191" lon="1.26133">
        <ele>114.9</ele>
        <time>2026-07-12T06:03:20Z</time>
      </trkpt>
      <trkpt lat="44.51188" lon="1.26134">
        <ele>115.1</ele>
        <time>2026-07-12T06:03:21Z</time>
      </trkpt>
      <trkpt lat="44.51183" lon="1.26136">
        <ele>115.3</ele>
        <time>2026-07-12T06:03:22Z</time>
      </trkpt>
      <trkpt lat="44.5118" lon="1.26137">
        <ele>115.5</ele>
        <time>2026-07-12T06:03:23Z</time>
      </trkpt>
      <trkpt lat="44.51177" lon="1.26138">
        <ele>115.6</ele>
        <time>2026-07-12T06:03:24Z</time>
      </trkpt>
      <trkpt lat="44.51173" lon="1.26139">
        <ele>115.8</ele>
        <time>2026-07-12T06:03:25Z</time>
      </trkpt>
      <trkpt lat="44.5117" lon="1.2614">
        <ele>115.9</ele>
        <time>2026-07-12T06:03:26Z</time>
      </trkpt>
      <trkpt lat="44.51167" lon="1.26141">
        <ele>116.1</ele>
        <time>2026-07-12T06:03:27Z</time>
      </trkpt>
      <trkpt lat="44.51164" lon="1.26142">
        <ele>116.7</ele>
        <time>2026-07-12T06:03:28Z</time>
      </trkpt>
      <trkpt lat="44.51161" lon="1.26143">
        <ele>117.1</ele>
        <time>2026-07-12T06:03:29Z</time>
      </trkpt>
      <trkpt lat="44.51159" lon="1.26145">
        <ele>117.6</ele>
        <time>2026-07-12T06:03:30Z</time>
      </trkpt>
      <trkpt lat="44.51158" lon="1.26147">
        <ele>118</ele>
        <time>2026-07-12T06:03:31Z</time>
      </trkpt>
      <trkpt lat="44.51157" lon="1.26151">
        <ele>118.4</ele>
        <time>2026-07-12T06:03:32Z</time>
      </trkpt>
      <trkpt lat="44.51156" lon="1.26155">
        <ele>118.7</ele>
        <time>2026-07-12T06:03:33Z</time>
      </trkpt>
      <trkpt lat="44.51157" lon="1.26161">
        <ele>118.7</ele>
        <time>2026-07-12T06:03:34Z</time>
      </trkpt>
      <trkpt lat="44.51158" lon="1.26166">
        <ele>118.8</ele>
        <time>2026-07-12T06:03:35Z</time>
      </trkpt>
      <trkpt lat="44.51159" lon="1.26173">
        <ele>118.9</ele>
        <time>2026-07-12T06:03:36Z</time>
      </trkpt>
      <trkpt lat="44.5116" lon="1.26184">
        <ele>119</ele>
        <time>2026-07-12T06:03:38Z</time>
      </trkpt>
      <trkpt lat="44.5116" lon="1.26189">
        <ele>119.2</ele>
        <time>2026-07-12T06:03:39Z</time>
      </trkpt>
      <trkpt lat="44.5116" lon="1.26195">
        <ele>119.3</ele>
        <time>2026-07-12T06:03:40Z</time>
      </trkpt>
      <trkpt lat="44.5116" lon="1.262">
        <ele>119.9</ele>
        <time>2026-07-12T06:03:41Z</time>
      </trkpt>
      <trkpt lat="44.5116" lon="1.26204">
        <ele>120.4</ele>
        <time>2026-07-12T06:03:42Z</time>
      </trkpt>
      <trkpt lat="44.5116" lon="1.26213">
        <ele>121.5</ele>
        <time>2026-07-12T06:03:44Z</time>
      </trkpt>
      <trkpt lat="44.5116" lon="1.26218">
        <ele>122.1</ele>
        <time>2026-07-12T06:03:45Z</time>
      </trkpt>
      <trkpt lat="44.5116" lon="1.26222">
        <ele>122.8</ele>
        <time>2026-07-12T06:03:46Z</time>
      </trkpt>
      <trkpt lat="44.51159" lon="1.26227">
        <ele>123.1</ele>
        <time>2026-07-12T06:03:47Z</time>
      </trkpt>
      <trkpt lat="44.51159" lon="1.26231">
        <ele>123.5</ele>
        <time>2026-07-12T06:03:48Z</time>
      </trkpt>
      <trkpt lat="44.51158" lon="1.26236">
        <ele>124</ele>
        <time>2026-07-12T06:03:49Z</time>
      </trkpt>
      <trkpt lat="44.51158" lon="1.2624">
        <ele>124.4</ele>
        <time>2026-07-12T06:03:50Z</time>
      </trkpt>
      <trkpt lat="44.51157" lon="1.26245">
        <ele>124.8</ele>
        <time>2026-07-12T06:03:51Z</time>
      </trkpt>
      <trkpt lat="44.51157" lon="1.26249">
        <ele>125.3</ele>
        <time>2026-07-12T06:03:52Z</time>
      </trkpt>
      <trkpt lat="44.51156" lon="1.26254">
        <ele>125.7</ele>
        <time>2026-07-12T06:03:53Z</time>
      </trkpt>
      <trkpt lat="44.51156" lon="1.26258">
        <ele>126.1</ele>
        <time>2026-07-12T06:03:54Z</time>
      </trkpt>
      <trkpt lat="44.51156" lon="1.26263">
        <ele>126.4</ele>
        <time>2026-07-12T06:03:55Z</time>
      </trkpt>
      <trkpt lat="44.51155" lon="1.26267">
        <ele>126.9</ele>
        <time>2026-07-12T06:03:56Z</time>
      </trkpt>
      <trkpt lat="44.51154" lon="1.26271">
        <ele>127.5</ele>
        <time>2026-07-12T06:03:57Z</time>
      </trkpt>
      <trkpt lat="44.51153" lon="1.26275">
        <ele>127.9</ele>
        <time>2026-07-12T06:03:58Z</time>
      </trkpt>
      <trkpt lat="44.51152" lon="1.26278">
        <ele>128.3</ele>
        <time>2026-07-12T06:03:59Z</time>
      </trkpt>
      <trkpt lat="44.51151" lon="1.26282">
        <ele>128.6</ele>
        <time>2026-07-12T06:04:00Z</time>
      </trkpt>
      <trkpt lat="44.5115" lon="1.26285">
        <ele>129</ele>
        <time>2026-07-12T06:04:01Z</time>
      </trkpt>
      <trkpt lat="44.5115" lon="1.26289">
        <ele>129.2</ele>
        <time>2026-07-12T06:04:02Z</time>
      </trkpt>
      <trkpt lat="44.51149" lon="1.26292">
        <ele>129.5</ele>
        <time>2026-07-12T06:04:03Z</time>
      </trkpt>
      <trkpt lat="44.51148" lon="1.26295">
        <ele>129.8</ele>
        <time>2026-07-12T06:04:04Z</time>
      </trkpt>
      <trkpt lat="44.51146" lon="1.26297">
        <ele>130.1</ele>
        <time>2026-07-12T06:04:05Z</time>
      </trkpt>
      <trkpt lat="44.51144" lon="1.26299">
        <ele>130.4</ele>
        <time>2026-07-12T06:04:06Z</time>
      </trkpt>
      <trkpt lat="44.51142" lon="1.263">
        <ele>130.7</ele>
        <time>2026-07-12T06:04:07Z</time>
      </trkpt>
      <trkpt lat="44.5114" lon="1.26301">
        <ele>130.9</ele>
        <time>2026-07-12T06:04:08Z</time>
      </trkpt>
      <trkpt lat="44.51138" lon="1.26303">
        <ele>131.3</ele>
        <time>2026-07-12T06:04:09Z</time>
      </trkpt>
      <trkpt lat="44.51136" lon="1.26305">
        <ele>131.9</ele>
        <time>2026-07-12T06:04:10Z</time>
      </trkpt>
      <trkpt lat="44.51134" lon="1.26307">
        <ele>132.5</ele>
        <time>2026-07-12T06:04:11Z</time>
      </trkpt>
      <trkpt lat="44.51132" lon="1.2631">
        <ele>133.5</ele>
        <time>2026-07-12T06:04:12Z</time>
      </trkpt>
      <trkpt lat="44.5113" lon="1.26313">
        <ele>134.4</ele>
        <time>2026-07-12T06:04:13Z</time>
      </trkpt>
      <trkpt lat="44.51128" lon="1.26316">
        <ele>135.1</ele>
        <time>2026-07-12T06:04:14Z</time>
      </trkpt>
      <trkpt lat="44.51126" lon="1.26318">
        <ele>135.7</ele>
        <time>2026-07-12T06:04:15Z</time>
      </trkpt>
      <trkpt lat="44.51125" lon="1.26321">
        <ele>136.1</ele>
        <time>2026-07-12T06:04:16Z</time>
      </trkpt>
      <trkpt lat="44.51123" lon="1.26323">
        <ele>136.6</ele>
        <time>2026-07-12T06:04:17Z</time>
      </trkpt>
      <trkpt lat="44.51121" lon="1.26325">
        <ele>137</ele>
        <time>2026-07-12T06:04:18Z</time>
      </trkpt>
      <trkpt lat="44.51118" lon="1.26326">
        <ele>137.3</ele>
        <time>2026-07-12T06:04:19Z</time>
      </trkpt>
      <trkpt lat="44.51116" lon="1.26326">
        <ele>137.6</ele>
        <time>2026-07-12T06:04:20Z</time>
      </trkpt>
      <trkpt lat="44.51114" lon="1.26325">
        <ele>137.9</ele>
        <time>2026-07-12T06:04:21Z</time>
      </trkpt>
      <trkpt lat="44.51112" lon="1.26322">
        <ele>138.2</ele>
        <time>2026-07-12T06:04:22Z</time>
      </trkpt>
      <trkpt lat="44.51111" lon="1.26318">
        <ele>138.5</ele>
        <time>2026-07-12T06:04:23Z</time>
      </trkpt>
      <trkpt lat="44.5111" lon="1.26314">
        <ele>138.6</ele>
        <time>2026-07-12T06:04:24Z</time>
      </trkpt>
      <trkpt lat="44.51109" lon="1.26309">
        <ele>138.8</ele>
        <time>2026-07-12T06:04:25Z</time>
      </trkpt>
      <trkpt lat="44.51107" lon="1.26305">
        <ele>139</ele>
        <time>2026-07-12T06:04:26Z</time>
      </trkpt>
      <trkpt lat="44.51106" lon="1.263">
        <ele>139.4</ele>
        <time>2026-07-12T06:04:27Z</time>
      </trkpt>
      <trkpt lat="44.51106" lon="1.26296">
        <ele>139.7</ele>
        <time>2026-07-12T06:04:28Z</time>
      </trkpt>
      <trkpt lat="44.51105" lon="1.26292">
        <ele>140.1</ele>
        <time>2026-07-12T06:04:29Z</time>
      </trkpt>
      <trkpt lat="44.51105" lon="1.26288">
        <ele>140.5</ele>
        <time>2026-07-12T06:04:30Z</time>
      </trkpt>
      <trkpt lat="44.51104" lon="1.26284">
        <ele>140.9</ele>
        <time>2026-07-12T06:04:31Z</time>
      </trkpt>
      <trkpt lat="44.51103" lon="1.26281">
        <ele>141.4</ele>
        <time>2026-07-12T06:04:32Z</time>
      </trkpt>
      <trkpt lat="44.51103" lon="1.26277">
        <ele>141.9</ele>
        <time>2026-07-12T06:04:33Z</time>
      </trkpt>
      <trkpt lat="44.51102" lon="1.26274">
        <ele>142.3</ele>
        <time>2026-07-12T06:04:34Z</time>
      </trkpt>
      <trkpt lat="44.51102" lon="1.2627">
        <ele>142.6</ele>
        <time>2026-07-12T06:04:35Z</time>
      </trkpt>
      <trkpt lat="44.51101" lon="1.26266">
        <ele>143</ele>
        <time>2026-07-12T06:04:36Z</time>
      </trkpt>
      <trkpt lat="44.511" lon="1.26262">
        <ele>143.5</ele>
        <time>2026-07-12T06:04:37Z</time>
      </trkpt>
      <trkpt lat="44.51099" lon="1.26258">
        <ele>144.1</ele>
        <time>2026-07-12T06:04:38Z</time>
      </trkpt>
      <trkpt lat="44.51097" lon="1.26255">
        <ele>144.6</ele>
        <time>2026-07-12T06:04:39Z</time>
      </trkpt>
      <trkpt lat="44.51096" lon="1.26252">
        <ele>145.2</ele>
        <time>2026-07-12T06:04:40Z</time>
      </trkpt>
      <trkpt lat="44.51095" lon="1.26249">
        <ele>145.6</ele>
        <time>2026-07-12T06:04:41Z</time>
      </trkpt>
      <trkpt lat="44.51093" lon="1.26245">
        <ele>145.9</ele>
        <time>2026-07-12T06:04:42Z</time>
      </trkpt>
      <trkpt lat="44.51092" lon="1.26242">
        <ele>146.2</ele>
        <time>2026-07-12T06:04:43Z</time>
      </trkpt>
      <trkpt lat="44.5109" lon="1.26238">
        <ele>146.7</ele>
        <time>2026-07-12T06:04:44Z</time>
      </trkpt>
      <trkpt lat="44.51088" lon="1.26235">
        <ele>147.1</ele>
        <time>2026-07-12T06:04:45Z</time>
      </trkpt>
      <trkpt lat="44.51087" lon="1.26232">
        <ele>147.6</ele>
        <time>2026-07-12T06:04:46Z</time>
      </trkpt>
      <trkpt lat="44.51085" lon="1.26228">
        <ele>148.2</ele>
        <time>2026-07-12T06:04:47Z</time>
      </trkpt>
      <trkpt lat="44.51084" lon="1.26225">
        <ele>148.8</ele>
        <time>2026-07-12T06:04:48Z</time>
      </trkpt>
      <trkpt lat="44.51082" lon="1.26221">
        <ele>149.2</ele>
        <time>2026-07-12T06:04:49Z</time>
      </trkpt>
      <trkpt lat="44.5108" lon="1.26218">
        <ele>149.2</ele>
        <time>2026-07-12T06:04:50Z</time>
      </trkpt>
      <trkpt lat="44.51078" lon="1.26215">
        <ele>149.2</ele>
        <time>2026-07-12T06:04:51Z</time>
      </trkpt>
      <trkpt lat="44.51077" lon="1.26212">
        <ele>149.2</ele>
        <time>2026-07-12T06:04:52Z</time>
      </trkpt>
      <trkpt lat="44.51074" lon="1.2621">
        <ele>149.5</ele>
        <time>2026-07-12T06:04:53Z</time>
      </trkpt>
      <trkpt lat="44.51071" lon="1.26209">
        <ele>150.1</ele>
        <time>2026-07-12T06:04:54Z</time>
      </trkpt>
      <trkpt lat="44.51068" lon="1.26209">
        <ele>150.7</ele>
        <time>2026-07-12T06:04:55Z</time>
      </trkpt>
      <trkpt lat="44.51066" lon="1.26209">
        <ele>151.3</ele>
        <time>2026-07-12T06:04:56Z</time>
      </trkpt>
      <trkpt lat="44.51064" lon="1.2621">
        <ele>151.9</ele>
        <time>2026-07-12T06:04:57Z</time>
      </trkpt>
      <trkpt lat="44.51061" lon="1.26211">
        <ele>152.6</ele>
        <time>2026-07-12T06:04:58Z</time>
      </trkpt>
      <trkpt lat="44.51059" lon="1.26212">
        <ele>153.3</ele>
        <time>2026-07-12T06:04:59Z</time>
      </trkpt>
      <trkpt lat="44.51056" lon="1.26212">
        <ele>154.1</ele>
        <time>2026-07-12T06:05:00Z</time>
      </trkpt>
      <trkpt lat="44.51053" lon="1.26213">
        <ele>154.6</ele>
        <time>2026-07-12T06:05:01Z</time>
      </trkpt>
      <trkpt lat="44.5105" lon="1.26214">
        <ele>155.1</ele>
        <time>2026-07-12T06:05:02Z</time>
      </trkpt>
      <trkpt lat="44.51047" lon="1.26214">
        <ele>155.5</ele>
        <time>2026-07-12T06:05:03Z</time>
      </trkpt>
      <trkpt lat="44.51044" lon="1.26216">
        <ele>156</ele>
        <time>2026-07-12T06:05:04Z</time>
      </trkpt>
      <trkpt lat="44.51041" lon="1.26216">
        <ele>156.6</ele>
        <time>2026-07-12T06:05:05Z</time>
      </trkpt>
      <trkpt lat="44.51037" lon="1.26218">
        <ele>157.2</ele>
        <time>2026-07-12T06:05:06Z</time>
      </trkpt>
      <trkpt lat="44.51034" lon="1.26218">
        <ele>157.7</ele>
        <time>2026-07-12T06:05:07Z</time>
      </trkpt>
      <trkpt lat="44.51031" lon="1.26219">
        <ele>158</ele>
        <time>2026-07-12T06:05:08Z</time>
      </trkpt>
      <trkpt lat="44.51028" lon="1.26218">
        <ele>158.3</ele>
        <time>2026-07-12T06:05:09Z</time>
      </trkpt>
      <trkpt lat="44.51025" lon="1.26218">
        <ele>158.9</ele>
        <time>2026-07-12T06:05:10Z</time>
      </trkpt>
      <trkpt lat="44.51022" lon="1.26218">
        <ele>159.5</ele>
        <time>2026-07-12T06:05:11Z</time>
      </trkpt>
      <trkpt lat="44.51019" lon="1.26218">
        <ele>160.1</ele>
        <time>2026-07-12T06:05:12Z</time>
      </trkpt>
      <trkpt lat="44.51017" lon="1.26217">
        <ele>160.5</ele>
        <time>2026-07-12T06:05:13Z</time>
      </trkpt>
      <trkpt lat="44.51014" lon="1.26216">
        <ele>161</ele>
        <time>2026-07-12T06:05:14Z</time>
      </trkpt>
      <trkpt lat="44.51011" lon="1.26215">
        <ele>161.4</ele>
        <time>2026-07-12T06:05:15Z</time>
      </trkpt>
      <trkpt lat="44.51008" lon="1.26214">
        <ele>161.7</ele>
        <time>2026-07-12T06:05:16Z</time>
      </trkpt>
      <trkpt lat="44.51005" lon="1.26213">
        <ele>162.3</ele>
        <time>2026-07-12T06:05:17Z</time>
      </trkpt>
      <trkpt lat="44.51002" lon="1.26212">
        <ele>162.7</ele>
        <time>2026-07-12T06:05:18Z</time>
      </trkpt>
      <trkpt lat="44.50999" lon="1.26211">
        <ele>163.2</ele>
        <time>2026-07-12T06:05:19Z</time>
      </trkpt>
      <trkpt lat="44.50996" lon="1.2621">
        <ele>163.8</ele>
        <time>2026-07-12T06:05:20Z</time>
      </trkpt>
      <trkpt lat="44.50993" lon="1.26209">
        <ele>164.4</ele>
        <time>2026-07-12T06:05:21Z</time>
      </trkpt>
      <trkpt lat="44.5099" lon="1.26208">
        <ele>164.8</ele>
        <time>2026-07-12T06:05:22Z</time>
      </trkpt>
      <trkpt lat="44.50988" lon="1.26207">
        <ele>165.3</ele>
        <time>2026-07-12T06:05:23Z</time>
      </trkpt>
      <trkpt lat="44.50985" lon="1.26206">
        <ele>165.8</ele>
        <time>2026-07-12T06:05:24Z</time>
      </trkpt>
      <trkpt lat="44.50983" lon="1.26205">
        <ele>166.2</ele>
        <time>2026-07-12T06:05:25Z</time>
      </trkpt>
      <trkpt lat="44.5098" lon="1.26204">
        <ele>166.6</ele>
        <time>2026-07-12T06:05:26Z</time>
      </trkpt>
      <trkpt lat="44.50977" lon="1.26202">
        <ele>167.1</ele>
        <time>2026-07-12T06:05:27Z</time>
      </trkpt>
      <trkpt lat="44.50974" lon="1.26201">
        <ele>167.7</ele>
        <time>2026-07-12T06:05:28Z</time>
      </trkpt>
      <trkpt lat="44.50972" lon="1.262">
        <ele>168.2</ele>
        <time>2026-07-12T06:05:29Z</time>
      </trkpt>
      <trkpt lat="44.50969" lon="1.26199">
        <ele>168.6</ele>
        <time>2026-07-12T06:05:30Z</time>
      </trkpt>
      <trkpt lat="44.50966" lon="1.26198">
        <ele>169.2</ele>
        <time>2026-07-12T06:05:31Z</time>
      </trkpt>
      <trkpt lat="44.50963" lon="1.26196">
        <ele>169.7</ele>
        <time>2026-07-12T06:05:32Z</time>
      </trkpt>
      <trkpt lat="44.5096" lon="1.26195">
        <ele>170.1</ele>
        <time>2026-07-12T06:05:33Z</time>
      </trkpt>
      <trkpt lat="44.50957" lon="1.26193">
        <ele>170.6</ele>
        <time>2026-07-12T06:05:34Z</time>
      </trkpt>
      <trkpt lat="44.50954" lon="1.26192">
        <ele>171.1</ele>
        <time>2026-07-12T06:05:35Z</time>
      </trkpt>
      <trkpt lat="44.50951" lon="1.2619">
        <ele>171.5</ele>
        <time>2026-07-12T06:05:36Z</time>
      </trkpt>
      <trkpt lat="44.50947" lon="1.26188">
        <ele>171.8</ele>
        <time>2026-07-12T06:05:37Z</time>
      </trkpt>
      <trkpt lat="44.50945" lon="1.26186">
        <ele>172</ele>
        <time>2026-07-12T06:05:38Z</time>
      </trkpt>
      <trkpt lat="44.50941" lon="1.26184">
        <ele>172.5</ele>
        <time>2026-07-12T06:05:39Z</time>
      </trkpt>
      <trkpt lat="44.50939" lon="1.26182">
        <ele>172.8</ele>
        <time>2026-07-12T06:05:40Z</time>
      </trkpt>
      <trkpt lat="44.50936" lon="1.26179">
        <ele>173.1</ele>
        <time>2026-07-12T06:05:41Z</time>
      </trkpt>
      <trkpt lat="44.50934" lon="1.26175">
        <ele>173</ele>
        <time>2026-07-12T06:05:42Z</time>
      </trkpt>
      <trkpt lat="44.50933" lon="1.26171">
        <ele>172.6</ele>
        <time>2026-07-12T06:05:43Z</time>
      </trkpt>
      <trkpt lat="44.50931" lon="1.26167">
        <ele>172.2</ele>
        <time>2026-07-12T06:05:44Z</time>
      </trkpt>
      <trkpt lat="44.5093" lon="1.26163">
        <ele>172.3</ele>
        <time>2026-07-12T06:05:45Z</time>
      </trkpt>
      <trkpt lat="44.50929" lon="1.26159">
        <ele>172.7</ele>
        <time>2026-07-12T06:05:46Z</time>
      </trkpt>
      <trkpt lat="44.50927" lon="1.26154">
        <ele>173.2</ele>
        <time>2026-07-12T06:05:47Z</time>
      </trkpt>
      <trkpt lat="44.50926" lon="1.2615">
        <ele>173.5</ele>
        <time>2026-07-12T06:05:48Z</time>
      </trkpt>
      <trkpt lat="44.50925" lon="1.26146">
        <ele>173.6</ele>
        <time>2026-07-12T06:05:49Z</time>
      </trkpt>
      <trkpt lat="44.50924" lon="1.26142">
        <ele>173.9</ele>
        <time>2026-07-12T06:05:50Z</time>
      </trkpt>
      <trkpt lat="44.50923" lon="1.26137">
        <ele>174</ele>
        <time>2026-07-12T06:05:51Z</time>
      </trkpt>
      <trkpt lat="44.50922" lon="1.26133">
        <ele>174.2</ele>
        <time>2026-07-12T06:05:52Z</time>
      </trkpt>
      <trkpt lat="44.5092" lon="1.2613">
        <ele>174.7</ele>
        <time>2026-07-12T06:05:53Z</time>
      </trkpt>
      <trkpt lat="44.50917" lon="1.26125">
        <ele>175.3</ele>
        <time>2026-07-12T06:05:54Z</time>
      </trkpt>
      <trkpt lat="44.50914" lon="1.26121">
        <ele>175.7</ele>
        <time>2026-07-12T06:05:55Z</time>
      </trkpt>
      <trkpt lat="44.5091" lon="1.26118">
        <ele>176.2</ele>
        <time>2026-07-12T06:05:56Z</time>
      </trkpt>
      <trkpt lat="44.50906" lon="1.26115">
        <ele>176.7</ele>
        <time>2026-07-12T06:05:57Z</time>
      </trkpt>
      <trkpt lat="44.50903" lon="1.26114">
        <ele>177.4</ele>
        <time>2026-07-12T06:05:58Z</time>
      </trkpt>
      <trkpt lat="44.50899" lon="1.26113">
        <ele>178.2</ele>
        <time>2026-07-12T06:05:59Z</time>
      </trkpt>
      <trkpt lat="44.50895" lon="1.26112">
        <ele>178.8</ele>
        <time>2026-07-12T06:06:00Z</time>
      </trkpt>
      <trkpt lat="44.50891" lon="1.2611">
        <ele>179.5</ele>
        <time>2026-07-12T06:06:01Z</time>
      </trkpt>
      <trkpt lat="44.50887" lon="1.26109">
        <ele>180</ele>
        <time>2026-07-12T06:06:02Z</time>
      </trkpt>
      <trkpt lat="44.50884" lon="1.26108">
        <ele>180.3</ele>
        <time>2026-07-12T06:06:03Z</time>
      </trkpt>
      <trkpt lat="44.5088" lon="1.26106">
        <ele>180.5</ele>
        <time>2026-07-12T06:06:04Z</time>
      </trkpt>
      <trkpt lat="44.50877" lon="1.26104">
        <ele>180.9</ele>
        <time>2026-07-12T06:06:05Z</time>
      </trkpt>
      <trkpt lat="44.50873" lon="1.26103">
        <ele>181.4</ele>
        <time>2026-07-12T06:06:06Z</time>
      </trkpt>
      <trkpt lat="44.50868" lon="1.26103">
        <ele>182</ele>
        <time>2026-07-12T06:06:07Z</time>
      </trkpt>
      <trkpt lat="44.50865" lon="1.26102">
        <ele>182.5</ele>
        <time>2026-07-12T06:06:08Z</time>
      </trkpt>
      <trkpt lat="44.50861" lon="1.26102">
        <ele>183.1</ele>
        <time>2026-07-12T06:06:09Z</time>
      </trkpt>
      <trkpt lat="44.50856" lon="1.26102">
        <ele>183.8</ele>
        <time>2026-07-12T06:06:10Z</time>
      </trkpt>
      <trkpt lat="44.50852" lon="1.26102">
        <ele>184.5</ele>
        <time>2026-07-12T06:06:11Z</time>
      </trkpt>
      <trkpt lat="44.50849" lon="1.26102">
        <ele>185.1</ele>
        <time>2026-07-12T06:06:12Z</time>
      </trkpt>
      <trkpt lat="44.50845" lon="1.26102">
        <ele>185.7</ele>
        <time>2026-07-12T06:06:13Z</time>
      </trkpt>
      <trkpt lat="44.50842" lon="1.26103">
        <ele>186.2</ele>
        <time>2026-07-12T06:06:14Z</time>
      </trkpt>
      <trkpt lat="44.50839" lon="1.26104">
        <ele>186.6</ele>
        <time>2026-07-12T06:06:15Z</time>
      </trkpt>
      <trkpt lat="44.50836" lon="1.26104">
        <ele>187.1</ele>
        <time>2026-07-12T06:06:16Z</time>
      </trkpt>
      <trkpt lat="44.50833" lon="1.26105">
        <ele>187.5</ele>
        <time>2026-07-12T06:06:17Z</time>
      </trkpt>
      <trkpt lat="44.5083" lon="1.26106">
        <ele>188</ele>
        <time>2026-07-12T06:06:18Z</time>
      </trkpt>
      <trkpt lat="44.50827" lon="1.26107">
        <ele>188.6</ele>
        <time>2026-07-12T06:06:19Z</time>
      </trkpt>
      <trkpt lat="44.50824" lon="1.26107">
        <ele>189.2</ele>
        <time>2026-07-12T06:06:20Z</time>
      </trkpt>
      <trkpt lat="44.50822" lon="1.26107">
        <ele>189.8</ele>
        <time>2026-07-12T06:06:21Z</time>
      </trkpt>
      <trkpt lat="44.50819" lon="1.26107">
        <ele>190.3</ele>
        <time>2026-07-12T06:06:22Z</time>
      </trkpt>
      <trkpt lat="44.50816" lon="1.26108">
        <ele>190.9</ele>
        <time>2026-07-12T06:06:23Z</time>
      </trkpt>
      <trkpt lat="44.50814" lon="1.26108">
        <ele>191.4</ele>
        <time>2026-07-12T06:06:24Z</time>
      </trkpt>
      <trkpt lat="44.50811" lon="1.26108">
        <ele>192</ele>
        <time>2026-07-12T06:06:25Z</time>
      </trkpt>
      <trkpt lat="44.50807" lon="1.26108">
        <ele>192.7</ele>
        <time>2026-07-12T06:06:26Z</time>
      </trkpt>
      <trkpt lat="44.50805" lon="1.26108">
        <ele>193.3</ele>
        <time>2026-07-12T06:06:27Z</time>
      </trkpt>
      <trkpt lat="44.50802" lon="1.26109">
        <ele>193.6</ele>
        <time>2026-07-12T06:06:28Z</time>
      </trkpt>
      <trkpt lat="44.50799" lon="1.26109">
        <ele>194</ele>
        <time>2026-07-12T06:06:29Z</time>
      </trkpt>
      <trkpt lat="44.50796" lon="1.2611">
        <ele>194.4</ele>
        <time>2026-07-12T06:06:30Z</time>
      </trkpt>
      <trkpt lat="44.50794" lon="1.2611">
        <ele>194.8</ele>
        <time>2026-07-12T06:06:31Z</time>
      </trkpt>
      <trkpt lat="44.50791" lon="1.2611">
        <ele>195.1</ele>
        <time>2026-07-12T06:06:32Z</time>
      </trkpt>
      <trkpt lat="44.50788" lon="1.2611">
        <ele>195.6</ele>
        <time>2026-07-12T06:06:33Z</time>
      </trkpt>
      <trkpt lat="44.50786" lon="1.2611">
        <ele>195.9</ele>
        <time>2026-07-12T06:06:34Z</time>
      </trkpt>
      <trkpt lat="44.50783" lon="1.26109">
        <ele>196.4</ele>
        <time>2026-07-12T06:06:35Z</time>
      </trkpt>
      <trkpt lat="44.50781" lon="1.26109">
        <ele>196.7</ele>
        <time>2026-07-12T06:06:36Z</time>
      </trkpt>
      <trkpt lat="44.50778" lon="1.26108">
        <ele>197.2</ele>
        <time>2026-07-12T06:06:37Z</time>
      </trkpt>
      <trkpt lat="44.50775" lon="1.26108">
        <ele>197.7</ele>
        <time>2026-07-12T06:06:38Z</time>
      </trkpt>
      <trkpt lat="44.50773" lon="1.26107">
        <ele>198.2</ele>
        <time>2026-07-12T06:06:39Z</time>
      </trkpt>
      <trkpt lat="44.5077" lon="1.26107">
        <ele>198.6</ele>
        <time>2026-07-12T06:06:40Z</time>
      </trkpt>
      <trkpt lat="44.50767" lon="1.26108">
        <ele>199.1</ele>
        <time>2026-07-12T06:06:41Z</time>
      </trkpt>
      <trkpt lat="44.50764" lon="1.26108">
        <ele>199.6</ele>
        <time>2026-07-12T06:06:42Z</time>
      </trkpt>
      <trkpt lat="44.50761" lon="1.26109">
        <ele>200.1</ele>
        <time>2026-07-12T06:06:43Z</time>
      </trkpt>
      <trkpt lat="44.50758" lon="1.2611">
        <ele>200.6</ele>
        <time>2026-07-12T06:06:44Z</time>
      </trkpt>
      <trkpt lat="44.50755" lon="1.26111">
        <ele>201.1</ele>
        <time>2026-07-12T06:06:45Z</time>
      </trkpt>
      <trkpt lat="44.50752" lon="1.26112">
        <ele>201.7</ele>
        <time>2026-07-12T06:06:46Z</time>
      </trkpt>
      <trkpt lat="44.50749" lon="1.26113">
        <ele>202.2</ele>
        <time>2026-07-12T06:06:47Z</time>
      </trkpt>
      <trkpt lat="44.50746" lon="1.26114">
        <ele>202.5</ele>
        <time>2026-07-12T06:06:48Z</time>
      </trkpt>
      <trkpt lat="44.50744" lon="1.26115">
        <ele>202.7</ele>
        <time>2026-07-12T06:06:49Z</time>
      </trkpt>
      <trkpt lat="44.5074" lon="1.26116">
        <ele>203.1</ele>
        <time>2026-07-12T06:06:50Z</time>
      </trkpt>
      <trkpt lat="44.50737" lon="1.26117">
        <ele>203.3</ele>
        <time>2026-07-12T06:06:51Z</time>
      </trkpt>
      <trkpt lat="44.50735" lon="1.26117">
        <ele>203.5</ele>
        <time>2026-07-12T06:06:52Z</time>
      </trkpt>
      <trkpt lat="44.50732" lon="1.26118">
        <ele>203.8</ele>
        <time>2026-07-12T06:06:53Z</time>
      </trkpt>
      <trkpt lat="44.50729" lon="1.26121">
        <ele>204.2</ele>
        <time>2026-07-12T06:06:54Z</time>
      </trkpt>
      <trkpt lat="44.50727" lon="1.26123">
        <ele>204.5</ele>
        <time>2026-07-12T06:06:55Z</time>
      </trkpt>
      <trkpt lat="44.50724" lon="1.26127">
        <ele>205</ele>
        <time>2026-07-12T06:06:56Z</time>
      </trkpt>
      <trkpt lat="44.50722" lon="1.2613">
        <ele>205.3</ele>
        <time>2026-07-12T06:06:57Z</time>
      </trkpt>
      <trkpt lat="44.50719" lon="1.26132">
        <ele>205.5</ele>
        <time>2026-07-12T06:06:58Z</time>
      </trkpt>
      <trkpt lat="44.50718" lon="1.26134">
        <ele>205.6</ele>
        <time>2026-07-12T06:06:59Z</time>
      </trkpt>
      <trkpt lat="44.50716" lon="1.26137">
        <ele>205.8</ele>
        <time>2026-07-12T06:07:00Z</time>
      </trkpt>
      <trkpt lat="44.50715" lon="1.26141">
        <ele>206.2</ele>
        <time>2026-07-12T06:07:01Z</time>
      </trkpt>
      <trkpt lat="44.50714" lon="1.26145">
        <ele>206.7</ele>
        <time>2026-07-12T06:07:02Z</time>
      </trkpt>
      <trkpt lat="44.50714" lon="1.26149">
        <ele>207</ele>
        <time>2026-07-12T06:07:03Z</time>
      </trkpt>
      <trkpt lat="44.50714" lon="1.26153">
        <ele>207.6</ele>
        <time>2026-07-12T06:07:04Z</time>
      </trkpt>
      <trkpt lat="44.50714" lon="1.26157">
        <ele>207.9</ele>
        <time>2026-07-12T06:07:05Z</time>
      </trkpt>
      <trkpt lat="44.50713" lon="1.26161">
        <ele>208.4</ele>
        <time>2026-07-12T06:07:06Z</time>
      </trkpt>
      <trkpt lat="44.50713" lon="1.26164">
        <ele>208.7</ele>
        <time>2026-07-12T06:07:07Z</time>
      </trkpt>
      <trkpt lat="44.50712" lon="1.26167">
        <ele>209.1</ele>
        <time>2026-07-12T06:07:08Z</time>
      </trkpt>
      <trkpt lat="44.50712" lon="1.2617">
        <ele>209.4</ele>
        <time>2026-07-12T06:07:09Z</time>
      </trkpt>
      <trkpt lat="44.5071" lon="1.26174">
        <ele>209.9</ele>
        <time>2026-07-12T06:07:10Z</time>
      </trkpt>
      <trkpt lat="44.50709" lon="1.26178">
        <ele>210.4</ele>
        <time>2026-07-12T06:07:11Z</time>
      </trkpt>
      <trkpt lat="44.50708" lon="1.26181">
        <ele>210.8</ele>
        <time>2026-07-12T06:07:12Z</time>
      </trkpt>
      <trkpt lat="44.50708" lon="1.26183">
        <ele>211.1</ele>
        <time>2026-07-12T06:07:13Z</time>
      </trkpt>
      <trkpt lat="44.50708" lon="1.26186">
        <ele>211.4</ele>
        <time>2026-07-12T06:07:14Z</time>
      </trkpt>
      <trkpt lat="44.50707" lon="1.26189">
        <ele>211.8</ele>
        <time>2026-07-12T06:07:15Z</time>
      </trkpt>
      <trkpt lat="44.50708" lon="1.26191">
        <ele>212.1</ele>
        <time>2026-07-12T06:07:16Z</time>
      </trkpt>
      <trkpt lat="44.50707" lon="1.26193">
        <ele>212.4</ele>
        <time>2026-07-12T06:07:17Z</time>
      </trkpt>
      <trkpt lat="44.50707" lon="1.26195">
        <ele>212.6</ele>
        <time>2026-07-12T06:07:18Z</time>
      </trkpt>
      <trkpt lat="44.50706" lon="1.26197">
        <ele>212.9</ele>
        <time>2026-07-12T06:07:19Z</time>
      </trkpt>
      <trkpt lat="44.50706" lon="1.26199">
        <ele>213.1</ele>
        <time>2026-07-12T06:07:20Z</time>
      </trkpt>
      <trkpt lat="44.50706" lon="1.262">
        <ele>213.4</ele>
        <time>2026-07-12T06:07:21Z</time>
      </trkpt>
      <trkpt lat="44.50705" lon="1.26202">
        <ele>213.7</ele>
        <time>2026-07-12T06:07:22Z</time>
      </trkpt>
      <trkpt lat="44.50705" lon="1.26204">
        <ele>213.9</ele>
        <time>2026-07-12T06:07:23Z</time>
      </trkpt>
      <trkpt lat="44.50705" lon="1.26207">
        <ele>214.2</ele>
        <time>2026-07-12T06:07:24Z</time>
      </trkpt>
      <trkpt lat="44.50706" lon="1.26209">
        <ele>214.5</ele>
        <time>2026-07-12T06:07:25Z</time>
      </trkpt>
      <trkpt lat="44.50707" lon="1.26212">
        <ele>214.8</ele>
        <time>2026-07-12T06:07:26Z</time>
      </trkpt>
      <trkpt lat="44.50709" lon="1.26215">
        <ele>215.1</ele>
        <time>2026-07-12T06:07:27Z</time>
      </trkpt>
      <trkpt lat="44.5071" lon="1.26217">
        <ele>215.2</ele>
        <time>2026-07-12T06:07:28Z</time>
      </trkpt>
      <trkpt lat="44.50712" lon="1.2622">
        <ele>215.4</ele>
        <time>2026-07-12T06:07:29Z</time>
      </trkpt>
      <trkpt lat="44.50714" lon="1.26222">
        <ele>215.7</ele>
        <time>2026-07-12T06:07:30Z</time>
      </trkpt>
      <trkpt lat="44.50715" lon="1.26225">
        <ele>215.9</ele>
        <time>2026-07-12T06:07:31Z</time>
      </trkpt>
      <trkpt lat="44.50718" lon="1.26228">
        <ele>216.1</ele>
        <time>2026-07-12T06:07:32Z</time>
      </trkpt>
      <trkpt lat="44.5072" lon="1.2623">
        <ele>216.3</ele>
        <time>2026-07-12T06:07:33Z</time>
      </trkpt>
      <trkpt lat="44.50723" lon="1.26233">
        <ele>216.5</ele>
        <time>2026-07-12T06:07:34Z</time>
      </trkpt>
      <trkpt lat="44.50725" lon="1.26236">
        <ele>216.7</ele>
        <time>2026-07-12T06:07:35Z</time>
      </trkpt>
      <trkpt lat="44.50728" lon="1.26239">
        <ele>216.9</ele>
        <time>2026-07-12T06:07:36Z</time>
      </trkpt>
      <trkpt lat="44.5073" lon="1.26243">
        <ele>217.3</ele>
        <time>2026-07-12T06:07:37Z</time>
      </trkpt>
      <trkpt lat="44.50732" lon="1.26247">
        <ele>217.6</ele>
        <time>2026-07-12T06:07:38Z</time>
      </trkpt>
      <trkpt lat="44.50733" lon="1.26251">
        <ele>217.9</ele>
        <time>2026-07-12T06:07:39Z</time>
      </trkpt>
      <trkpt lat="44.50734" lon="1.26255">
        <ele>218.1</ele>
        <time>2026-07-12T06:07:40Z</time>
      </trkpt>
      <trkpt lat="44.50733" lon="1.26258">
        <ele>218.3</ele>
        <time>2026-07-12T06:07:41Z</time>
      </trkpt>
      <trkpt lat="44.50731" lon="1.26261">
        <ele>218.7</ele>
        <time>2026-07-12T06:07:42Z</time>
      </trkpt>
      <trkpt lat="44.50729" lon="1.26264">
        <ele>219.2</ele>
        <time>2026-07-12T06:07:43Z</time>
      </trkpt>
      <trkpt lat="44.50725" lon="1.26266">
        <ele>219.7</ele>
        <time>2026-07-12T06:07:44Z</time>
      </trkpt>
      <trkpt lat="44.50723" lon="1.26267">
        <ele>220.2</ele>
        <time>2026-07-12T06:07:45Z</time>
      </trkpt>
      <trkpt lat="44.5072" lon="1.26269">
        <ele>220.6</ele>
        <time>2026-07-12T06:07:46Z</time>
      </trkpt>
      <trkpt lat="44.50717" lon="1.26272">
        <ele>221.1</ele>
        <time>2026-07-12T06:07:47Z</time>
      </trkpt>
      <trkpt lat="44.50715" lon="1.26274">
        <ele>221.5</ele>
        <time>2026-07-12T06:07:48Z</time>
      </trkpt>
      <trkpt lat="44.50713" lon="1.26277">
        <ele>222</ele>
        <time>2026-07-12T06:07:49Z</time>
      </trkpt>
      <trkpt lat="44.50711" lon="1.26279">
        <ele>222.3</ele>
        <time>2026-07-12T06:07:50Z</time>
      </trkpt>
      <trkpt lat="44.50708" lon="1.26283">
        <ele>222.7</ele>
        <time>2026-07-12T06:07:51Z</time>
      </trkpt>
      <trkpt lat="44.50706" lon="1.26285">
        <ele>223.1</ele>
        <time>2026-07-12T06:07:52Z</time>
      </trkpt>
      <trkpt lat="44.50703" lon="1.26288">
        <ele>223.5</ele>
        <time>2026-07-12T06:07:53Z</time>
      </trkpt>
      <trkpt lat="44.50701" lon="1.2629">
        <ele>224</ele>
        <time>2026-07-12T06:07:54Z</time>
      </trkpt>
      <trkpt lat="44.50698" lon="1.26292">
        <ele>224.4</ele>
        <time>2026-07-12T06:07:55Z</time>
      </trkpt>
      <trkpt lat="44.50695" lon="1.26294">
        <ele>225</ele>
        <time>2026-07-12T06:07:56Z</time>
      </trkpt>
      <trkpt lat="44.50692" lon="1.26296">
        <ele>225.5</ele>
        <time>2026-07-12T06:07:57Z</time>
      </trkpt>
      <trkpt lat="44.5069" lon="1.26299">
        <ele>226</ele>
        <time>2026-07-12T06:07:58Z</time>
      </trkpt>
      <trkpt lat="44.50687" lon="1.26301">
        <ele>226.4</ele>
        <time>2026-07-12T06:07:59Z</time>
      </trkpt>
      <trkpt lat="44.50685" lon="1.26304">
        <ele>226.9</ele>
        <time>2026-07-12T06:08:00Z</time>
      </trkpt>
      <trkpt lat="44.50682" lon="1.26306">
        <ele>227.4</ele>
        <time>2026-07-12T06:08:01Z</time>
      </trkpt>
      <trkpt lat="44.5068" lon="1.26308">
        <ele>227.7</ele>
        <time>2026-07-12T06:08:02Z</time>
      </trkpt>
      <trkpt lat="44.50677" lon="1.2631">
        <ele>228.2</ele>
        <time>2026-07-12T06:08:03Z</time>
      </trkpt>
      <trkpt lat="44.50674" lon="1.26312">
        <ele>228.6</ele>
        <time>2026-07-12T06:08:04Z</time>
      </trkpt>
      <trkpt lat="44.50671" lon="1.26314">
        <ele>229.1</ele>
        <time>2026-07-12T06:08:05Z</time>
      </trkpt>
      <trkpt lat="44.50668" lon="1.26315">
        <ele>229.5</ele>
        <time>2026-07-12T06:08:06Z</time>
      </trkpt>
      <trkpt lat="44.50665" lon="1.26318">
        <ele>230.1</ele>
        <time>2026-07-12T06:08:07Z</time>
      </trkpt>
      <trkpt lat="44.50662" lon="1.26319">
        <ele>230.6</ele>
        <time>2026-07-12T06:08:08Z</time>
      </trkpt>
      <trkpt lat="44.50659" lon="1.26321">
        <ele>231.1</ele>
        <time>2026-07-12T06:08:09Z</time>
      </trkpt>
      <trkpt lat="44.50656" lon="1.26323">
        <ele>231.6</ele>
        <time>2026-07-12T06:08:10Z</time>
      </trkpt>
      <trkpt lat="44.50654" lon="1.26325">
        <ele>232</ele>
        <time>2026-07-12T06:08:11Z</time>
      </trkpt>
      <trkpt lat="44.50651" lon="1.26327">
        <ele>232.7</ele>
        <time>2026-07-12T06:08:12Z</time>
      </trkpt>
      <trkpt lat="44.50648" lon="1.26329">
        <ele>233.2</ele>
        <time>2026-07-12T06:08:13Z</time>
      </trkpt>
      <trkpt lat="44.50646" lon="1.26331">
        <ele>233.8</ele>
        <time>2026-07-12T06:08:14Z</time>
      </trkpt>
      <trkpt lat="44.50644" lon="1.26333">
        <ele>234.2</ele>
        <time>2026-07-12T06:08:15Z</time>
      </trkpt>
      <trkpt lat="44.50641" lon="1.26335">
        <ele>234.7</ele>
        <time>2026-07-12T06:08:16Z</time>
      </trkpt>
      <trkpt lat="44.50638" lon="1.26338">
        <ele>235.2</ele>
        <time>2026-07-12T06:08:17Z</time>
      </trkpt>
      <trkpt lat="44.50636" lon="1.2634">
        <ele>235.6</ele>
        <time>2026-07-12T06:08:18Z</time>
      </trkpt>
      <trkpt lat="44.50634" lon="1.26342">
        <ele>235.9</ele>
        <time>2026-07-12T06:08:19Z</time>
      </trkpt>
      <trkpt lat="44.50631" lon="1.26344">
        <ele>236.3</ele>
        <time>2026-07-12T06:08:20Z</time>
      </trkpt>
      <trkpt lat="44.50629" lon="1.26347">
        <ele>236.7</ele>
        <time>2026-07-12T06:08:21Z</time>
      </trkpt>
      <trkpt lat="44.50626" lon="1.26349">
        <ele>237.2</ele>
        <time>2026-07-12T06:08:22Z</time>
      </trkpt>
      <trkpt lat="44.50624" lon="1.26352">
        <ele>237.7</ele>
        <time>2026-07-12T06:08:23Z</time>
      </trkpt>
      <trkpt lat="44.50621" lon="1.26354">
        <ele>238.1</ele>
        <time>2026-07-12T06:08:24Z</time>
      </trkpt>
      <trkpt lat="44.50619" lon="1.26357">
        <ele>238.7</ele>
        <time>2026-07-12T06:08:25Z</time>
      </trkpt>
      <trkpt lat="44.50616" lon="1.2636">
        <ele>239.2</ele>
        <time>2026-07-12T06:08:26Z</time>
      </trkpt>
      <trkpt lat="44.50614" lon="1.26363">
        <ele>239.7</ele>
        <time>2026-07-12T06:08:27Z</time>
      </trkpt>
      <trkpt lat="44.50611" lon="1.26365">
        <ele>240.2</ele>
        <time>2026-07-12T06:08:28Z</time>
      </trkpt>
      <trkpt lat="44.50609" lon="1.26368">
        <ele>240.5</ele>
        <time>2026-07-12T06:08:29Z</time>
      </trkpt>
      <trkpt lat="44.50607" lon="1.26371">
        <ele>240.9</ele>
        <time>2026-07-12T06:08:30Z</time>
      </trkpt>
      <trkpt lat="44.50605" lon="1.26373">
        <ele>241.2</ele>
        <time>2026-07-12T06:08:31Z</time>
      </trkpt>
      <trkpt lat="44.50602" lon="1.26376">
        <ele>241.7</ele>
        <time>2026-07-12T06:08:32Z</time>
      </trkpt>
      <trkpt lat="44.50599" lon="1.26379">
        <ele>242.2</ele>
        <time>2026-07-12T06:08:33Z</time>
      </trkpt>
      <trkpt lat="44.50597" lon="1.26383">
        <ele>242.7</ele>
        <time>2026-07-12T06:08:34Z</time>
      </trkpt>
      <trkpt lat="44.50594" lon="1.26386">
        <ele>243.3</ele>
        <time>2026-07-12T06:08:35Z</time>
      </trkpt>
      <trkpt lat="44.50592" lon="1.2639">
        <ele>243.8</ele>
        <time>2026-07-12T06:08:36Z</time>
      </trkpt>
      <trkpt lat="44.5059" lon="1.26393">
        <ele>244.1</ele>
        <time>2026-07-12T06:08:37Z</time>
      </trkpt>
      <trkpt lat="44.50589" lon="1.26396">
        <ele>244.4</ele>
        <time>2026-07-12T06:08:38Z</time>
      </trkpt>
      <trkpt lat="44.50587" lon="1.26398">
        <ele>244.7</ele>
        <time>2026-07-12T06:08:39Z</time>
      </trkpt>
      <trkpt lat="44.50586" lon="1.264">
        <ele>244.9</ele>
        <time>2026-07-12T06:08:40Z</time>
      </trkpt>
      <trkpt lat="44.50586" lon="1.26402">
        <ele>245.1</ele>
        <time>2026-07-12T06:08:41Z</time>
      </trkpt>
      <trkpt lat="44.50585" lon="1.26404">
        <ele>245.2</ele>
        <time>2026-07-12T06:08:42Z</time>
      </trkpt>
      <trkpt lat="44.50584" lon="1.26407">
        <ele>245.5</ele>
        <time>2026-07-12T06:08:43Z</time>
      </trkpt>
      <trkpt lat="44.50583" lon="1.26409">
        <ele>245.7</ele>
        <time>2026-07-12T06:08:44Z</time>
      </trkpt>
      <trkpt lat="44.50581" lon="1.26411">
        <ele>245.9</ele>
        <time>2026-07-12T06:08:45Z</time>
      </trkpt>
      <trkpt lat="44.5058" lon="1.26414">
        <ele>246.1</ele>
        <time>2026-07-12T06:08:46Z</time>
      </trkpt>
      <trkpt lat="44.50579" lon="1.26416">
        <ele>246.3</ele>
        <time>2026-07-12T06:08:47Z</time>
      </trkpt>
      <trkpt lat="44.50577" lon="1.26419">
        <ele>246.4</ele>
        <time>2026-07-12T06:08:48Z</time>
      </trkpt>
      <trkpt lat="44.50575" lon="1.26423">
        <ele>246.5</ele>
        <time>2026-07-12T06:08:49Z</time>
      </trkpt>
      <trkpt lat="44.50573" lon="1.26427">
        <ele>246.6</ele>
        <time>2026-07-12T06:08:50Z</time>
      </trkpt>
      <trkpt lat="44.50572" lon="1.2643">
        <ele>246.8</ele>
        <time>2026-07-12T06:08:51Z</time>
      </trkpt>
      <trkpt lat="44.5057" lon="1.26434">
        <ele>246.9</ele>
        <time>2026-07-12T06:08:52Z</time>
      </trkpt>
      <trkpt lat="44.50569" lon="1.26438">
        <ele>247.1</ele>
        <time>2026-07-12T06:08:53Z</time>
      </trkpt>
      <trkpt lat="44.50567" lon="1.26442">
        <ele>247.3</ele>
        <time>2026-07-12T06:08:54Z</time>
      </trkpt>
      <trkpt lat="44.50565" lon="1.26446">
        <ele>247.6</ele>
        <time>2026-07-12T06:08:55Z</time>
      </trkpt>
      <trkpt lat="44.50563" lon="1.2645">
        <ele>247.9</ele>
        <time>2026-07-12T06:08:56Z</time>
      </trkpt>
      <trkpt lat="44.50561" lon="1.26454">
        <ele>248.1</ele>
        <time>2026-07-12T06:08:57Z</time>
      </trkpt>
      <trkpt lat="44.50559" lon="1.26458">
        <ele>248.5</ele>
        <time>2026-07-12T06:08:58Z</time>
      </trkpt>
      <trkpt lat="44.50556" lon="1.26463">
        <ele>248.9</ele>
        <time>2026-07-12T06:08:59Z</time>
      </trkpt>
      <trkpt lat="44.50554" lon="1.26468">
        <ele>249</ele>
        <time>2026-07-12T06:09:00Z</time>
      </trkpt>
      <trkpt lat="44.50552" lon="1.26472">
        <ele>249</ele>
        <time>2026-07-12T06:09:01Z</time>
      </trkpt>
      <trkpt lat="44.5055" lon="1.26477">
        <ele>249</ele>
        <time>2026-07-12T06:09:02Z</time>
      </trkpt>
      <trkpt lat="44.50548" lon="1.26482">
        <ele>249.1</ele>
        <time>2026-07-12T06:09:03Z</time>
      </trkpt>
      <trkpt lat="44.50546" lon="1.26486">
        <ele>249.2</ele>
        <time>2026-07-12T06:09:04Z</time>
      </trkpt>
      <trkpt lat="44.50544" lon="1.2649">
        <ele>249.3</ele>
        <time>2026-07-12T06:09:05Z</time>
      </trkpt>
      <trkpt lat="44.50541" lon="1.26494">
        <ele>249.4</ele>
        <time>2026-07-12T06:09:06Z</time>
      </trkpt>
      <trkpt lat="44.50539" lon="1.26498">
        <ele>249.6</ele>
        <time>2026-07-12T06:09:07Z</time>
      </trkpt>
      <trkpt lat="44.50536" lon="1.26503">
        <ele>249.7</ele>
        <time>2026-07-12T06:09:08Z</time>
      </trkpt>
      <trkpt lat="44.50534" lon="1.26507">
        <ele>249.9</ele>
        <time>2026-07-12T06:09:09Z</time>
      </trkpt>
      <trkpt lat="44.5053" lon="1.26512">
        <ele>250.3</ele>
        <time>2026-07-12T06:09:10Z</time>
      </trkpt>
      <trkpt lat="44.50528" lon="1.26516">
        <ele>250.5</ele>
        <time>2026-07-12T06:09:11Z</time>
      </trkpt>
      <trkpt lat="44.50526" lon="1.2652">
        <ele>250.4</ele>
        <time>2026-07-12T06:09:12Z</time>
      </trkpt>
      <trkpt lat="44.50524" lon="1.26524">
        <ele>250.2</ele>
        <time>2026-07-12T06:09:13Z</time>
      </trkpt>
      <trkpt lat="44.50522" lon="1.26528">
        <ele>250.1</ele>
        <time>2026-07-12T06:09:14Z</time>
      </trkpt>
      <trkpt lat="44.5052" lon="1.26533">
        <ele>249.8</ele>
        <time>2026-07-12T06:09:15Z</time>
      </trkpt>
      <trkpt lat="44.50519" lon="1.26537">
        <ele>249.6</ele>
        <time>2026-07-12T06:09:16Z</time>
      </trkpt>
      <trkpt lat="44.50516" lon="1.26541">
        <ele>249.4</ele>
        <time>2026-07-12T06:09:17Z</time>
      </trkpt>
      <trkpt lat="44.50515" lon="1.26546">
        <ele>249.3</ele>
        <time>2026-07-12T06:09:18Z</time>
      </trkpt>
      <trkpt lat="44.50513" lon="1.2655">
        <ele>249.4</ele>
        <time>2026-07-12T06:09:19Z</time>
      </trkpt>
      <trkpt lat="44.50511" lon="1.26553">
        <ele>249.5</ele>
        <time>2026-07-12T06:09:20Z</time>
      </trkpt>
      <trkpt lat="44.50508" lon="1.26557">
        <ele>249.5</ele>
        <time>2026-07-12T06:09:21Z</time>
      </trkpt>
      <trkpt lat="44.50505" lon="1.26561">
        <ele>249.3</ele>
        <time>2026-07-12T06:09:22Z</time>
      </trkpt>
      <trkpt lat="44.50502" lon="1.26564">
        <ele>249.2</ele>
        <time>2026-07-12T06:09:23Z</time>
      </trkpt>
      <trkpt lat="44.50499" lon="1.26567">
        <ele>249.2</ele>
        <time>2026-07-12T06:09:24Z</time>
      </trkpt>
      <trkpt lat="44.50497" lon="1.26569">
        <ele>249</ele>
        <time>2026-07-12T06:09:25Z</time>
      </trkpt>
      <trkpt lat="44.50493" lon="1.26572">
        <ele>248.9</ele>
        <time>2026-07-12T06:09:26Z</time>
      </trkpt>
      <trkpt lat="44.5049" lon="1.26574">
        <ele>248.9</ele>
        <time>2026-07-12T06:09:27Z</time>
      </trkpt>
      <trkpt lat="44.50487" lon="1.26577">
        <ele>249.1</ele>
        <time>2026-07-12T06:09:28Z</time>
      </trkpt>
      <trkpt lat="44.50483" lon="1.2658">
        <ele>249.6</ele>
        <time>2026-07-12T06:09:29Z</time>
      </trkpt>
      <trkpt lat="44.50479" lon="1.26582">
        <ele>250.1</ele>
        <time>2026-07-12T06:09:30Z</time>
      </trkpt>
      <trkpt lat="44.50475" lon="1.26586">
        <ele>250.3</ele>
        <time>2026-07-12T06:09:31Z</time>
      </trkpt>
      <trkpt lat="44.50471" lon="1.26588">
        <ele>250.1</ele>
        <time>2026-07-12T06:09:32Z</time>
      </trkpt>
      <trkpt lat="44.50469" lon="1.2659">
        <ele>249.8</ele>
        <time>2026-07-12T06:09:33Z</time>
      </trkpt>
      <trkpt lat="44.50465" lon="1.26594">
        <ele>249.5</ele>
        <time>2026-07-12T06:09:34Z</time>
      </trkpt>
      <trkpt lat="44.50462" lon="1.26597">
        <ele>249.3</ele>
        <time>2026-07-12T06:09:35Z</time>
      </trkpt>
      <trkpt lat="44.50459" lon="1.266">
        <ele>249.2</ele>
        <time>2026-07-12T06:09:36Z</time>
      </trkpt>
      <trkpt lat="44.50449" lon="1.26611">
        <ele>250.2</ele>
        <time>2026-07-12T06:09:39Z</time>
      </trkpt>
      <trkpt lat="44.50422" lon="1.26637">
        <ele>252.3</ele>
        <time>2026-07-12T06:09:47Z</time>
      </trkpt>
      <trkpt lat="44.50405" lon="1.26652">
        <ele>253.4</ele>
        <time>2026-07-12T06:09:52Z</time>
      </trkpt>
      <trkpt lat="44.50389" lon="1.26663">
        <ele>254.8</ele>
        <time>2026-07-12T06:09:56Z</time>
      </trkpt>
      <trkpt lat="44.50386" lon="1.26666">
        <ele>255.1</ele>
        <time>2026-07-12T06:09:57Z</time>
      </trkpt>
      <trkpt lat="44.50377" lon="1.26674">
        <ele>255.4</ele>
        <time>2026-07-12T06:10:00Z</time>
      </trkpt>
      <trkpt lat="44.50373" lon="1.26676">
        <ele>255.6</ele>
        <time>2026-07-12T06:10:01Z</time>
      </trkpt>
      <trkpt lat="44.50366" lon="1.26682">
        <ele>256.1</ele>
        <time>2026-07-12T06:10:03Z</time>
      </trkpt>
      <trkpt lat="44.50363" lon="1.26685">
        <ele>256.6</ele>
        <time>2026-07-12T06:10:04Z</time>
      </trkpt>
      <trkpt lat="44.50359" lon="1.26689">
        <ele>256.8</ele>
        <time>2026-07-12T06:10:05Z</time>
      </trkpt>
      <trkpt lat="44.50356" lon="1.26691">
        <ele>257.1</ele>
        <time>2026-07-12T06:10:06Z</time>
      </trkpt>
      <trkpt lat="44.50353" lon="1.26694">
        <ele>257.3</ele>
        <time>2026-07-12T06:10:07Z</time>
      </trkpt>
      <trkpt lat="44.50349" lon="1.26697">
        <ele>257.4</ele>
        <time>2026-07-12T06:10:08Z</time>
      </trkpt>
      <trkpt lat="44.50346" lon="1.267">
        <ele>257.5</ele>
        <time>2026-07-12T06:10:09Z</time>
      </trkpt>
      <trkpt lat="44.50342" lon="1.26703">
        <ele>257.6</ele>
        <time>2026-07-12T06:10:10Z</time>
      </trkpt>
      <trkpt lat="44.50339" lon="1.26706">
        <ele>257.7</ele>
        <time>2026-07-12T06:10:11Z</time>
      </trkpt>
      <trkpt lat="44.50335" lon="1.26709">
        <ele>257.9</ele>
        <time>2026-07-12T06:10:12Z</time>
      </trkpt>
      <trkpt lat="44.50332" lon="1.26712">
        <ele>258</ele>
        <time>2026-07-12T06:10:13Z</time>
      </trkpt>
      <trkpt lat="44.50329" lon="1.26714">
        <ele>258</ele>
        <time>2026-07-12T06:10:14Z</time>
      </trkpt>
      <trkpt lat="44.50325" lon="1.26717">
        <ele>258</ele>
        <time>2026-07-12T06:10:15Z</time>
      </trkpt>
      <trkpt lat="44.50323" lon="1.26719">
        <ele>258</ele>
        <time>2026-07-12T06:10:16Z</time>
      </trkpt>
      <trkpt lat="44.50318" lon="1.26723">
        <ele>257.9</ele>
        <time>2026-07-12T06:10:17Z</time>
      </trkpt>
      <trkpt lat="44.50314" lon="1.26727">
        <ele>257.8</ele>
        <time>2026-07-12T06:10:18Z</time>
      </trkpt>
      <trkpt lat="44.5031" lon="1.2673">
        <ele>257.7</ele>
        <time>2026-07-12T06:10:19Z</time>
      </trkpt>
      <trkpt lat="44.50306" lon="1.26732">
        <ele>257.6</ele>
        <time>2026-07-12T06:10:20Z</time>
      </trkpt>
      <trkpt lat="44.50303" lon="1.26734">
        <ele>257.6</ele>
        <time>2026-07-12T06:10:21Z</time>
      </trkpt>
      <trkpt lat="44.503" lon="1.26735">
        <ele>257.5</ele>
        <time>2026-07-12T06:10:22Z</time>
      </trkpt>
      <trkpt lat="44.503" lon="1.26736">
        <ele>257.5</ele>
        <time>2026-07-12T06:10:23Z</time>
      </trkpt>
      <trkpt lat="44.503" lon="1.26736">
        <ele>257.5</ele>
        <time>2026-07-12T06:10:24Z</time>
      </trkpt>
      <trkpt lat="44.503" lon="1.26736">
        <ele>257.5</ele>
        <time>2026-07-12T06:10:25Z</time>
      </trkpt>
      <trkpt lat="44.50295" lon="1.2674">
        <ele>257.3</ele>
        <time>2026-07-12T06:11:46Z</time>
      </trkpt>
      <trkpt lat="44.50288" lon="1.26747">
        <ele>257.1</ele>
        <time>2026-07-12T06:11:48Z</time>
      </trkpt>
      <trkpt lat="44.50266" lon="1.2676">
        <ele>255.6</ele>
        <time>2026-07-12T06:11:53Z</time>
      </trkpt>
      <trkpt lat="44.50226" lon="1.26785">
        <ele>256.6</ele>
        <time>2026-07-12T06:12:01Z</time>
      </trkpt>
      <trkpt lat="44.50221" lon="1.26789">
        <ele>256.4</ele>
        <time>2026-07-12T06:12:02Z</time>
      </trkpt>
      <trkpt lat="44.50198" lon="1.2681">
        <ele>257.1</ele>
        <time>2026-07-12T06:12:07Z</time>
      </trkpt>
      <trkpt lat="44.50166" lon="1.26838">
        <ele>256.9</ele>
        <time>2026-07-12T06:12:14Z</time>
      </trkpt>
      <trkpt lat="44.50132" lon="1.26865">
        <ele>253.2</ele>
        <time>2026-07-12T06:12:20Z</time>
      </trkpt>
      <trkpt lat="44.50113" lon="1.26884">
        <ele>252</ele>
        <time>2026-07-12T06:12:23Z</time>
      </trkpt>
      <trkpt lat="44.50108" lon="1.2689">
        <ele>251.6</ele>
        <time>2026-07-12T06:12:24Z</time>
      </trkpt>
      <trkpt lat="44.50088" lon="1.26926">
        <ele>249.8</ele>
        <time>2026-07-12T06:12:28Z</time>
      </trkpt>
      <trkpt lat="44.50081" lon="1.26941">
        <ele>250</ele>
        <time>2026-07-12T06:12:30Z</time>
      </trkpt>
      <trkpt lat="44.50077" lon="1.26948">
        <ele>249.6</ele>
        <time>2026-07-12T06:12:31Z</time>
      </trkpt>
      <trkpt lat="44.50072" lon="1.26956">
        <ele>249.4</ele>
        <time>2026-07-12T06:12:32Z</time>
      </trkpt>
      <trkpt lat="44.50069" lon="1.26961">
        <ele>249.5</ele>
        <time>2026-07-12T06:12:33Z</time>
      </trkpt>
      <trkpt lat="44.50065" lon="1.26966">
        <ele>249.9</ele>
        <time>2026-07-12T06:12:34Z</time>
      </trkpt>
      <trkpt lat="44.50061" lon="1.26972">
        <ele>250.5</ele>
        <time>2026-07-12T06:12:35Z</time>
      </trkpt>
      <trkpt lat="44.50057" lon="1.26979">
        <ele>250.5</ele>
        <time>2026-07-12T06:12:36Z</time>
      </trkpt>
      <trkpt lat="44.50055" lon="1.26986">
        <ele>250.5</ele>
        <time>2026-07-12T06:12:37Z</time>
      </trkpt>
      <trkpt lat="44.50053" lon="1.26993">
        <ele>250.2</ele>
        <time>2026-07-12T06:12:38Z</time>
      </trkpt>
      <trkpt lat="44.50051" lon="1.26999">
        <ele>250.2</ele>
        <time>2026-07-12T06:12:39Z</time>
      </trkpt>
      <trkpt lat="44.50049" lon="1.27006">
        <ele>250.5</ele>
        <time>2026-07-12T06:12:40Z</time>
      </trkpt>
      <trkpt lat="44.50047" lon="1.27011">
        <ele>251</ele>
        <time>2026-07-12T06:12:41Z</time>
      </trkpt>
      <trkpt lat="44.50045" lon="1.27016">
        <ele>251.4</ele>
        <time>2026-07-12T06:12:42Z</time>
      </trkpt>
      <trkpt lat="44.50043" lon="1.27021">
        <ele>252</ele>
        <time>2026-07-12T06:12:43Z</time>
      </trkpt>
      <trkpt lat="44.50041" lon="1.27026">
        <ele>252.5</ele>
        <time>2026-07-12T06:12:44Z</time>
      </trkpt>
      <trkpt lat="44.50039" lon="1.27032">
        <ele>253.2</ele>
        <time>2026-07-12T06:12:45Z</time>
      </trkpt>
      <trkpt lat="44.50036" lon="1.27042">
        <ele>254.3</ele>
        <time>2026-07-12T06:12:47Z</time>
      </trkpt>
      <trkpt lat="44.50034" lon="1.27047">
        <ele>254.8</ele>
        <time>2026-07-12T06:12:48Z</time>
      </trkpt>
      <trkpt lat="44.50033" lon="1.27051">
        <ele>255.3</ele>
        <time>2026-07-12T06:12:49Z</time>
      </trkpt>
      <trkpt lat="44.50031" lon="1.27056">
        <ele>255.8</ele>
        <time>2026-07-12T06:12:50Z</time>
      </trkpt>
      <trkpt lat="44.5003" lon="1.27062">
        <ele>256.3</ele>
        <time>2026-07-12T06:12:51Z</time>
      </trkpt>
      <trkpt lat="44.50028" lon="1.27067">
        <ele>256.8</ele>
        <time>2026-07-12T06:12:52Z</time>
      </trkpt>
      <trkpt lat="44.50025" lon="1.27076">
        <ele>257.3</ele>
        <time>2026-07-12T06:12:54Z</time>
      </trkpt>
      <trkpt lat="44.50023" lon="1.27081">
        <ele>257.5</ele>
        <time>2026-07-12T06:12:55Z</time>
      </trkpt>
      <trkpt lat="44.50021" lon="1.27085">
        <ele>257.6</ele>
        <time>2026-07-12T06:12:56Z</time>
      </trkpt>
      <trkpt lat="44.50019" lon="1.2709">
        <ele>257.5</ele>
        <time>2026-07-12T06:12:57Z</time>
      </trkpt>
      <trkpt lat="44.50018" lon="1.27094">
        <ele>257.5</ele>
        <time>2026-07-12T06:12:58Z</time>
      </trkpt>
      <trkpt lat="44.50016" lon="1.27098">
        <ele>257.6</ele>
        <time>2026-07-12T06:12:59Z</time>
      </trkpt>
      <trkpt lat="44.50014" lon="1.27105">
        <ele>257.8</ele>
        <time>2026-07-12T06:13:00Z</time>
      </trkpt>
      <trkpt lat="44.50012" lon="1.27109">
        <ele>257.9</ele>
        <time>2026-07-12T06:13:01Z</time>
      </trkpt>
      <trkpt lat="44.50009" lon="1.27114">
        <ele>258</ele>
        <time>2026-07-12T06:13:02Z</time>
      </trkpt>
      <trkpt lat="44.50007" lon="1.2712">
        <ele>258.1</ele>
        <time>2026-07-12T06:13:03Z</time>
      </trkpt>
      <trkpt lat="44.50004" lon="1.27125">
        <ele>258.3</ele>
        <time>2026-07-12T06:13:04Z</time>
      </trkpt>
      <trkpt lat="44.50002" lon="1.2713">
        <ele>258.5</ele>
        <time>2026-07-12T06:13:05Z</time>
      </trkpt>
      <trkpt lat="44.49999" lon="1.27135">
        <ele>258.8</ele>
        <time>2026-07-12T06:13:06Z</time>
      </trkpt>
      <trkpt lat="44.49997" lon="1.27141">
        <ele>258.7</ele>
        <time>2026-07-12T06:13:07Z</time>
      </trkpt>
      <trkpt lat="44.49994" lon="1.27148">
        <ele>258.3</ele>
        <time>2026-07-12T06:13:08Z</time>
      </trkpt>
      <trkpt lat="44.49992" lon="1.27154">
        <ele>258</ele>
        <time>2026-07-12T06:13:09Z</time>
      </trkpt>
      <trkpt lat="44.4999" lon="1.27159">
        <ele>257.8</ele>
        <time>2026-07-12T06:13:10Z</time>
      </trkpt>
      <trkpt lat="44.49987" lon="1.27166">
        <ele>257.6</ele>
        <time>2026-07-12T06:13:11Z</time>
      </trkpt>
      <trkpt lat="44.49984" lon="1.27175">
        <ele>257.1</ele>
        <time>2026-07-12T06:13:12Z</time>
      </trkpt>
      <trkpt lat="44.49981" lon="1.2718">
        <ele>256.9</ele>
        <time>2026-07-12T06:13:13Z</time>
      </trkpt>
      <trkpt lat="44.49978" lon="1.27188">
        <ele>256.7</ele>
        <time>2026-07-12T06:13:14Z</time>
      </trkpt>
      <trkpt lat="44.49975" lon="1.27194">
        <ele>256.8</ele>
        <time>2026-07-12T06:13:15Z</time>
      </trkpt>
      <trkpt lat="44.49972" lon="1.272">
        <ele>256.6</ele>
        <time>2026-07-12T06:13:16Z</time>
      </trkpt>
      <trkpt lat="44.49969" lon="1.27207">
        <ele>256.1</ele>
        <time>2026-07-12T06:13:17Z</time>
      </trkpt>
      <trkpt lat="44.49965" lon="1.27216">
        <ele>255.7</ele>
        <time>2026-07-12T06:13:18Z</time>
      </trkpt>
      <trkpt lat="44.49963" lon="1.27222">
        <ele>255.7</ele>
        <time>2026-07-12T06:13:19Z</time>
      </trkpt>
      <trkpt lat="44.49961" lon="1.27228">
        <ele>255.8</ele>
        <time>2026-07-12T06:13:20Z</time>
      </trkpt>
      <trkpt lat="44.49958" lon="1.27234">
        <ele>256.1</ele>
        <time>2026-07-12T06:13:21Z</time>
      </trkpt>
      <trkpt lat="44.49953" lon="1.2724">
        <ele>256.6</ele>
        <time>2026-07-12T06:13:22Z</time>
      </trkpt>
      <trkpt lat="44.4995" lon="1.27244">
        <ele>257</ele>
        <time>2026-07-12T06:13:23Z</time>
      </trkpt>
      <trkpt lat="44.49948" lon="1.27248">
        <ele>257.5</ele>
        <time>2026-07-12T06:13:24Z</time>
      </trkpt>
      <trkpt lat="44.49945" lon="1.27251">
        <ele>258</ele>
        <time>2026-07-12T06:13:25Z</time>
      </trkpt>
      <trkpt lat="44.49942" lon="1.27253">
        <ele>258.2</ele>
        <time>2026-07-12T06:13:26Z</time>
      </trkpt>
      <trkpt lat="44.49939" lon="1.27256">
        <ele>258.3</ele>
        <time>2026-07-12T06:13:27Z</time>
      </trkpt>
      <trkpt lat="44.49932" lon="1.27269">
        <ele>259.2</ele>
        <time>2026-07-12T06:13:30Z</time>
      </trkpt>
      <trkpt lat="44.49922" lon="1.27298">
        <ele>261.5</ele>
        <time>2026-07-12T06:13:36Z</time>
      </trkpt>
      <trkpt lat="44.4992" lon="1.27304">
        <ele>261.9</ele>
        <time>2026-07-12T06:13:37Z</time>
      </trkpt>
      <trkpt lat="44.49916" lon="1.27326">
        <ele>263.4</ele>
        <time>2026-07-12T06:13:41Z</time>
      </trkpt>
      <trkpt lat="44.49912" lon="1.27344">
        <ele>264.4</ele>
        <time>2026-07-12T06:13:45Z</time>
      </trkpt>
      <trkpt lat="44.49908" lon="1.27353">
        <ele>264.8</ele>
        <time>2026-07-12T06:14:01Z</time>
      </trkpt>
      <trkpt lat="44.49908" lon="1.27355">
        <ele>264.9</ele>
        <time>2026-07-12T06:14:02Z</time>
      </trkpt>
      <trkpt lat="44.49907" lon="1.27357">
        <ele>265</ele>
        <time>2026-07-12T06:14:03Z</time>
      </trkpt>
      <trkpt lat="44.49906" lon="1.27359">
        <ele>265.1</ele>
        <time>2026-07-12T06:14:04Z</time>
      </trkpt>
      <trkpt lat="44.49904" lon="1.27361">
        <ele>265.1</ele>
        <time>2026-07-12T06:14:05Z</time>
      </trkpt>
      <trkpt lat="44.49903" lon="1.27362">
        <ele>265.1</ele>
        <time>2026-07-12T06:14:06Z</time>
      </trkpt>
      <trkpt lat="44.49903" lon="1.27364">
        <ele>265.2</ele>
        <time>2026-07-12T06:14:07Z</time>
      </trkpt>
      <trkpt lat="44.49901" lon="1.27366">
        <ele>265.2</ele>
        <time>2026-07-12T06:14:08Z</time>
      </trkpt>
      <trkpt lat="44.499" lon="1.27368">
        <ele>265.2</ele>
        <time>2026-07-12T06:14:09Z</time>
      </trkpt>
      <trkpt lat="44.49899" lon="1.2737">
        <ele>265.3</ele>
        <time>2026-07-12T06:14:10Z</time>
      </trkpt>
      <trkpt lat="44.49898" lon="1.27372">
        <ele>265.3</ele>
        <time>2026-07-12T06:14:11Z</time>
      </trkpt>
      <trkpt lat="44.49898" lon="1.27373">
        <ele>265.4</ele>
        <time>2026-07-12T06:14:13Z</time>
      </trkpt>
      <trkpt lat="44.49895" lon="1.27381">
        <ele>265.7</ele>
        <time>2026-07-12T06:19:06Z</time>
      </trkpt>
      <trkpt lat="44.4989" lon="1.27396">
        <ele>266.5</ele>
        <time>2026-07-12T06:19:10Z</time>
      </trkpt>
      <trkpt lat="44.49888" lon="1.27399">
        <ele>266.7</ele>
        <time>2026-07-12T06:19:11Z</time>
      </trkpt>
      <trkpt lat="44.49879" lon="1.27424">
        <ele>267.2</ele>
        <time>2026-07-12T06:19:17Z</time>
      </trkpt>
      <trkpt lat="44.49868" lon="1.27451">
        <ele>267.1</ele>
        <time>2026-07-12T06:19:23Z</time>
      </trkpt>
      <trkpt lat="44.49863" lon="1.2746">
        <ele>267.3</ele>
        <time>2026-07-12T06:19:25Z</time>
      </trkpt>
      <trkpt lat="44.49852" lon="1.27478">
        <ele>267.4</ele>
        <time>2026-07-12T06:19:29Z</time>
      </trkpt>
      <trkpt lat="44.49833" lon="1.27511">
        <ele>267.8</ele>
        <time>2026-07-12T06:19:36Z</time>
      </trkpt>
      <trkpt lat="44.49818" lon="1.27535">
        <ele>268.5</ele>
        <time>2026-07-12T06:19:41Z</time>
      </trkpt>
      <trkpt lat="44.49815" lon="1.2754">
        <ele>268.6</ele>
        <time>2026-07-12T06:19:42Z</time>
      </trkpt>
      <trkpt lat="44.49806" lon="1.27552">
        <ele>268.8</ele>
        <time>2026-07-12T06:19:45Z</time>
      </trkpt>
      <trkpt lat="44.49799" lon="1.27559">
        <ele>268.9</ele>
        <time>2026-07-12T06:19:47Z</time>
      </trkpt>
      <trkpt lat="44.49792" lon="1.27567">
        <ele>268.9</ele>
        <time>2026-07-12T06:19:49Z</time>
      </trkpt>
      <trkpt lat="44.49785" lon="1.27576">
        <ele>269</ele>
        <time>2026-07-12T06:19:51Z</time>
      </trkpt>
      <trkpt lat="44.49773" lon="1.27589">
        <ele>268.8</ele>
        <time>2026-07-12T06:19:54Z</time>
      </trkpt>
      <trkpt lat="44.49761" lon="1.27601">
        <ele>268.4</ele>
        <time>2026-07-12T06:19:57Z</time>
      </trkpt>
      <trkpt lat="44.49754" lon="1.27609">
        <ele>268.1</ele>
        <time>2026-07-12T06:19:59Z</time>
      </trkpt>
      <trkpt lat="44.49736" lon="1.27632">
        <ele>266.5</ele>
        <time>2026-07-12T06:20:03Z</time>
      </trkpt>
      <trkpt lat="44.49714" lon="1.27666">
        <ele>262.6</ele>
        <time>2026-07-12T06:20:08Z</time>
      </trkpt>
      <trkpt lat="44.49699" lon="1.27687">
        <ele>262.3</ele>
        <time>2026-07-12T06:20:11Z</time>
      </trkpt>
      <trkpt lat="44.49695" lon="1.27694">
        <ele>262</ele>
        <time>2026-07-12T06:20:12Z</time>
      </trkpt>
      <trkpt lat="44.49691" lon="1.277">
        <ele>262.2</ele>
        <time>2026-07-12T06:20:13Z</time>
      </trkpt>
      <trkpt lat="44.49687" lon="1.27707">
        <ele>262.3</ele>
        <time>2026-07-12T06:20:14Z</time>
      </trkpt>
      <trkpt lat="44.49684" lon="1.27714">
        <ele>262.4</ele>
        <time>2026-07-12T06:20:15Z</time>
      </trkpt>
      <trkpt lat="44.49682" lon="1.27721">
        <ele>262.5</ele>
        <time>2026-07-12T06:20:16Z</time>
      </trkpt>
      <trkpt lat="44.49678" lon="1.27737">
        <ele>262.9</ele>
        <time>2026-07-12T06:20:18Z</time>
      </trkpt>
      <trkpt lat="44.49675" lon="1.27744">
        <ele>263.1</ele>
        <time>2026-07-12T06:20:19Z</time>
      </trkpt>
      <trkpt lat="44.49661" lon="1.2777">
        <ele>262.5</ele>
        <time>2026-07-12T06:20:23Z</time>
      </trkpt>
      <trkpt lat="44.49651" lon="1.27792">
        <ele>262.4</ele>
        <time>2026-07-12T06:20:26Z</time>
      </trkpt>
      <trkpt lat="44.4964" lon="1.27812">
        <ele>262.1</ele>
        <time>2026-07-12T06:20:29Z</time>
      </trkpt>
      <trkpt lat="44.49628" lon="1.27832">
        <ele>261.6</ele>
        <time>2026-07-12T06:20:32Z</time>
      </trkpt>
      <trkpt lat="44.49624" lon="1.27837">
        <ele>261.3</ele>
        <time>2026-07-12T06:20:33Z</time>
      </trkpt>
      <trkpt lat="44.49619" lon="1.27843">
        <ele>261.1</ele>
        <time>2026-07-12T06:20:34Z</time>
      </trkpt>
      <trkpt lat="44.49608" lon="1.27859">
        <ele>261.8</ele>
        <time>2026-07-12T06:20:37Z</time>
      </trkpt>
      <trkpt lat="44.49604" lon="1.27864">
        <ele>261.7</ele>
        <time>2026-07-12T06:20:38Z</time>
      </trkpt>
      <trkpt lat="44.496" lon="1.27869">
        <ele>261.7</ele>
        <time>2026-07-12T06:20:39Z</time>
      </trkpt>
      <trkpt lat="44.49596" lon="1.27874">
        <ele>261.8</ele>
        <time>2026-07-12T06:20:40Z</time>
      </trkpt>
      <trkpt lat="44.49592" lon="1.27879">
        <ele>262</ele>
        <time>2026-07-12T06:20:41Z</time>
      </trkpt>
      <trkpt lat="44.49589" lon="1.27885">
        <ele>262.4</ele>
        <time>2026-07-12T06:20:42Z</time>
      </trkpt>
      <trkpt lat="44.49587" lon="1.27891">
        <ele>262.9</ele>
        <time>2026-07-12T06:20:43Z</time>
      </trkpt>
      <trkpt lat="44.49584" lon="1.27896">
        <ele>263.4</ele>
        <time>2026-07-12T06:20:44Z</time>
      </trkpt>
      <trkpt lat="44.49583" lon="1.27901">
        <ele>263.9</ele>
        <time>2026-07-12T06:20:45Z</time>
      </trkpt>
      <trkpt lat="44.49583" lon="1.27906">
        <ele>264.2</ele>
        <time>2026-07-12T06:20:46Z</time>
      </trkpt>
      <trkpt lat="44.49583" lon="1.2791">
        <ele>264.5</ele>
        <time>2026-07-12T06:20:47Z</time>
      </trkpt>
      <trkpt lat="44.49585" lon="1.27915">
        <ele>264.7</ele>
        <time>2026-07-12T06:20:48Z</time>
      </trkpt>
      <trkpt lat="44.4959" lon="1.27923">
        <ele>264.8</ele>
        <time>2026-07-12T06:20:50Z</time>
      </trkpt>
      <trkpt lat="44.49593" lon="1.27927">
        <ele>264.9</ele>
        <time>2026-07-12T06:20:51Z</time>
      </trkpt>
      <trkpt lat="44.49595" lon="1.27932">
        <ele>265</ele>
        <time>2026-07-12T06:20:52Z</time>
      </trkpt>
      <trkpt lat="44.4961" lon="1.27952">
        <ele>266.1</ele>
        <time>2026-07-12T06:20:57Z</time>
      </trkpt>
      <trkpt lat="44.49621" lon="1.27967">
        <ele>267.5</ele>
        <time>2026-07-12T06:21:01Z</time>
      </trkpt>
      <trkpt lat="44.49623" lon="1.27971">
        <ele>267.9</ele>
        <time>2026-07-12T06:21:02Z</time>
      </trkpt>
      <trkpt lat="44.49626" lon="1.27974">
        <ele>268.1</ele>
        <time>2026-07-12T06:21:03Z</time>
      </trkpt>
      <trkpt lat="44.49629" lon="1.27977">
        <ele>268.2</ele>
        <time>2026-07-12T06:21:04Z</time>
      </trkpt>
      <trkpt lat="44.49632" lon="1.2798">
        <ele>268.3</ele>
        <time>2026-07-12T06:21:05Z</time>
      </trkpt>
      <trkpt lat="44.49634" lon="1.27984">
        <ele>268.5</ele>
        <time>2026-07-12T06:21:06Z</time>
      </trkpt>
      <trkpt lat="44.49637" lon="1.27987">
        <ele>268.6</ele>
        <time>2026-07-12T06:21:07Z</time>
      </trkpt>
      <trkpt lat="44.4964" lon="1.2799">
        <ele>268.9</ele>
        <time>2026-07-12T06:21:08Z</time>
      </trkpt>
      <trkpt lat="44.49642" lon="1.27994">
        <ele>269.3</ele>
        <time>2026-07-12T06:21:09Z</time>
      </trkpt>
      <trkpt lat="44.49644" lon="1.27997">
        <ele>269.6</ele>
        <time>2026-07-12T06:21:10Z</time>
      </trkpt>
      <trkpt lat="44.49647" lon="1.28">
        <ele>270</ele>
        <time>2026-07-12T06:21:11Z</time>
      </trkpt>
      <trkpt lat="44.4965" lon="1.28004">
        <ele>270.3</ele>
        <time>2026-07-12T06:21:12Z</time>
      </trkpt>
      <trkpt lat="44.49652" lon="1.28007">
        <ele>270.6</ele>
        <time>2026-07-12T06:21:13Z</time>
      </trkpt>
      <trkpt lat="44.49655" lon="1.2801">
        <ele>270.9</ele>
        <time>2026-07-12T06:21:14Z</time>
      </trkpt>
      <trkpt lat="44.49658" lon="1.28013">
        <ele>271.1</ele>
        <time>2026-07-12T06:21:15Z</time>
      </trkpt>
      <trkpt lat="44.4966" lon="1.28016">
        <ele>271.3</ele>
        <time>2026-07-12T06:21:16Z</time>
      </trkpt>
      <trkpt lat="44.49662" lon="1.28019">
        <ele>271.5</ele>
        <time>2026-07-12T06:21:17Z</time>
      </trkpt>
      <trkpt lat="44.49664" lon="1.28022">
        <ele>271.6</ele>
        <time>2026-07-12T06:21:18Z</time>
      </trkpt>
      <trkpt lat="44.49666" lon="1.28026">
        <ele>271.9</ele>
        <time>2026-07-12T06:21:19Z</time>
      </trkpt>
      <trkpt lat="44.49667" lon="1.2803">
        <ele>271.8</ele>
        <time>2026-07-12T06:21:20Z</time>
      </trkpt>
      <trkpt lat="44.49667" lon="1.28034">
        <ele>271.3</ele>
        <time>2026-07-12T06:21:21Z</time>
      </trkpt>
      <trkpt lat="44.49666" lon="1.28039">
        <ele>270.8</ele>
        <time>2026-07-12T06:21:22Z</time>
      </trkpt>
      <trkpt lat="44.49665" lon="1.28043">
        <ele>270.6</ele>
        <time>2026-07-12T06:21:23Z</time>
      </trkpt>
      <trkpt lat="44.49662" lon="1.28045">
        <ele>270.5</ele>
        <time>2026-07-12T06:21:24Z</time>
      </trkpt>
      <trkpt lat="44.4966" lon="1.28047">
        <ele>270.7</ele>
        <time>2026-07-12T06:21:25Z</time>
      </trkpt>
      <trkpt lat="44.49657" lon="1.28049">
        <ele>270.9</ele>
        <time>2026-07-12T06:21:26Z</time>
      </trkpt>
      <trkpt lat="44.49653" lon="1.28051">
        <ele>271.2</ele>
        <time>2026-07-12T06:21:27Z</time>
      </trkpt>
      <trkpt lat="44.4965" lon="1.28053">
        <ele>271.4</ele>
        <time>2026-07-12T06:21:28Z</time>
      </trkpt>
      <trkpt lat="44.49648" lon="1.28056">
        <ele>271.7</ele>
        <time>2026-07-12T06:21:29Z</time>
      </trkpt>
      <trkpt lat="44.49645" lon="1.28058">
        <ele>271.8</ele>
        <time>2026-07-12T06:21:30Z</time>
      </trkpt>
      <trkpt lat="44.49642" lon="1.28061">
        <ele>272</ele>
        <time>2026-07-12T06:21:31Z</time>
      </trkpt>
      <trkpt lat="44.49639" lon="1.28063">
        <ele>272.2</ele>
        <time>2026-07-12T06:21:32Z</time>
      </trkpt>
      <trkpt lat="44.49636" lon="1.28066">
        <ele>272.1</ele>
        <time>2026-07-12T06:21:33Z</time>
      </trkpt>
      <trkpt lat="44.49633" lon="1.28068">
        <ele>272.1</ele>
        <time>2026-07-12T06:21:34Z</time>
      </trkpt>
      <trkpt lat="44.4963" lon="1.28071">
        <ele>272.2</ele>
        <time>2026-07-12T06:21:35Z</time>
      </trkpt>
      <trkpt lat="44.49627" lon="1.28073">
        <ele>272.4</ele>
        <time>2026-07-12T06:21:36Z</time>
      </trkpt>
      <trkpt lat="44.49624" lon="1.28075">
        <ele>272.6</ele>
        <time>2026-07-12T06:21:37Z</time>
      </trkpt>
      <trkpt lat="44.49621" lon="1.28077">
        <ele>272.8</ele>
        <time>2026-07-12T06:21:38Z</time>
      </trkpt>
      <trkpt lat="44.49618" lon="1.28079">
        <ele>273.2</ele>
        <time>2026-07-12T06:21:39Z</time>
      </trkpt>
      <trkpt lat="44.49614" lon="1.28081">
        <ele>273.6</ele>
        <time>2026-07-12T06:21:40Z</time>
      </trkpt>
      <trkpt lat="44.49611" lon="1.28083">
        <ele>274</ele>
        <time>2026-07-12T06:21:41Z</time>
      </trkpt>
      <trkpt lat="44.49607" lon="1.28085">
        <ele>273.9</ele>
        <time>2026-07-12T06:21:42Z</time>
      </trkpt>
      <trkpt lat="44.49603" lon="1.28087">
        <ele>273.8</ele>
        <time>2026-07-12T06:21:43Z</time>
      </trkpt>
      <trkpt lat="44.49599" lon="1.2809">
        <ele>273.6</ele>
        <time>2026-07-12T06:21:44Z</time>
      </trkpt>
      <trkpt lat="44.49595" lon="1.28092">
        <ele>273.6</ele>
        <time>2026-07-12T06:21:45Z</time>
      </trkpt>
      <trkpt lat="44.49591" lon="1.28094">
        <ele>273.5</ele>
        <time>2026-07-12T06:21:46Z</time>
      </trkpt>
      <trkpt lat="44.49587" lon="1.28096">
        <ele>273.5</ele>
        <time>2026-07-12T06:21:47Z</time>
      </trkpt>
      <trkpt lat="44.49583" lon="1.28099">
        <ele>273.5</ele>
        <time>2026-07-12T06:21:48Z</time>
      </trkpt>
      <trkpt lat="44.49579" lon="1.28102">
        <ele>273.4</ele>
        <time>2026-07-12T06:21:49Z</time>
      </trkpt>
      <trkpt lat="44.49575" lon="1.28105">
        <ele>273.5</ele>
        <time>2026-07-12T06:21:50Z</time>
      </trkpt>
      <trkpt lat="44.49572" lon="1.28108">
        <ele>273.5</ele>
        <time>2026-07-12T06:21:51Z</time>
      </trkpt>
      <trkpt lat="44.49568" lon="1.28112">
        <ele>273.5</ele>
        <time>2026-07-12T06:21:52Z</time>
      </trkpt>
      <trkpt lat="44.49564" lon="1.28116">
        <ele>273.3</ele>
        <time>2026-07-12T06:21:53Z</time>
      </trkpt>
      <trkpt lat="44.4956" lon="1.2812">
        <ele>273.1</ele>
        <time>2026-07-12T06:21:54Z</time>
      </trkpt>
      <trkpt lat="44.49556" lon="1.28124">
        <ele>273.1</ele>
        <time>2026-07-12T06:21:55Z</time>
      </trkpt>
      <trkpt lat="44.49552" lon="1.28128">
        <ele>272.8</ele>
        <time>2026-07-12T06:21:56Z</time>
      </trkpt>
      <trkpt lat="44.49549" lon="1.28132">
        <ele>272.6</ele>
        <time>2026-07-12T06:21:57Z</time>
      </trkpt>
      <trkpt lat="44.49546" lon="1.28136">
        <ele>272.5</ele>
        <time>2026-07-12T06:21:58Z</time>
      </trkpt>
      <trkpt lat="44.49542" lon="1.2814">
        <ele>272.4</ele>
        <time>2026-07-12T06:21:59Z</time>
      </trkpt>
      <trkpt lat="44.49539" lon="1.28144">
        <ele>272.4</ele>
        <time>2026-07-12T06:22:00Z</time>
      </trkpt>
      <trkpt lat="44.49532" lon="1.28153">
        <ele>272.6</ele>
        <time>2026-07-12T06:22:02Z</time>
      </trkpt>
      <trkpt lat="44.49525" lon="1.28162">
        <ele>272.8</ele>
        <time>2026-07-12T06:22:04Z</time>
      </trkpt>
      <trkpt lat="44.49518" lon="1.28172">
        <ele>272.1</ele>
        <time>2026-07-12T06:22:06Z</time>
      </trkpt>
      <trkpt lat="44.49498" lon="1.28193">
        <ele>270.9</ele>
        <time>2026-07-12T06:22:11Z</time>
      </trkpt>
      <trkpt lat="44.49468" lon="1.2822">
        <ele>268.6</ele>
        <time>2026-07-12T06:22:17Z</time>
      </trkpt>
      <trkpt lat="44.49462" lon="1.28224">
        <ele>267.8</ele>
        <time>2026-07-12T06:22:18Z</time>
      </trkpt>
      <trkpt lat="44.49455" lon="1.28227">
        <ele>266.8</ele>
        <time>2026-07-12T06:22:19Z</time>
      </trkpt>
      <trkpt lat="44.49441" lon="1.28234">
        <ele>264.8</ele>
        <time>2026-07-12T06:22:21Z</time>
      </trkpt>
      <trkpt lat="44.49426" lon="1.28245">
        <ele>262.9</ele>
        <time>2026-07-12T06:22:23Z</time>
      </trkpt>
      <trkpt lat="44.49403" lon="1.28263">
        <ele>261</ele>
        <time>2026-07-12T06:22:26Z</time>
      </trkpt>
      <trkpt lat="44.49396" lon="1.28268">
        <ele>260.9</ele>
        <time>2026-07-12T06:22:27Z</time>
      </trkpt>
      <trkpt lat="44.4939" lon="1.28273">
        <ele>261</ele>
        <time>2026-07-12T06:22:28Z</time>
      </trkpt>
      <trkpt lat="44.49386" lon="1.28277">
        <ele>260.9</ele>
        <time>2026-07-12T06:22:29Z</time>
      </trkpt>
      <trkpt lat="44.49383" lon="1.2828">
        <ele>260.7</ele>
        <time>2026-07-12T06:22:30Z</time>
      </trkpt>
      <trkpt lat="44.4938" lon="1.28284">
        <ele>260.6</ele>
        <time>2026-07-12T06:22:31Z</time>
      </trkpt>
      <trkpt lat="44.49377" lon="1.28288">
        <ele>260.5</ele>
        <time>2026-07-12T06:22:32Z</time>
      </trkpt>
      <trkpt lat="44.49368" lon="1.28296">
        <ele>260.6</ele>
        <time>2026-07-12T06:22:34Z</time>
      </trkpt>
      <trkpt lat="44.49364" lon="1.283">
        <ele>260.7</ele>
        <time>2026-07-12T06:22:35Z</time>
      </trkpt>
      <trkpt lat="44.49355" lon="1.28306">
        <ele>261</ele>
        <time>2026-07-12T06:22:37Z</time>
      </trkpt>
      <trkpt lat="44.49325" lon="1.28327">
        <ele>261.8</ele>
        <time>2026-07-12T06:22:44Z</time>
      </trkpt>
      <trkpt lat="44.49321" lon="1.2833">
        <ele>261.9</ele>
        <time>2026-07-12T06:22:45Z</time>
      </trkpt>
      <trkpt lat="44.49317" lon="1.28332">
        <ele>262</ele>
        <time>2026-07-12T06:22:46Z</time>
      </trkpt>
      <trkpt lat="44.49313" lon="1.28335">
        <ele>262.1</ele>
        <time>2026-07-12T06:22:47Z</time>
      </trkpt>
      <trkpt lat="44.49309" lon="1.28337">
        <ele>262.3</ele>
        <time>2026-07-12T06:22:48Z</time>
      </trkpt>
      <trkpt lat="44.49304" lon="1.28339">
        <ele>262.5</ele>
        <time>2026-07-12T06:22:49Z</time>
      </trkpt>
      <trkpt lat="44.493" lon="1.28341">
        <ele>262.7</ele>
        <time>2026-07-12T06:22:50Z</time>
      </trkpt>
      <trkpt lat="44.49296" lon="1.28343">
        <ele>263</ele>
        <time>2026-07-12T06:22:51Z</time>
      </trkpt>
      <trkpt lat="44.49291" lon="1.28345">
        <ele>263.3</ele>
        <time>2026-07-12T06:22:52Z</time>
      </trkpt>
      <trkpt lat="44.49287" lon="1.28346">
        <ele>263.6</ele>
        <time>2026-07-12T06:22:53Z</time>
      </trkpt>
      <trkpt lat="44.49283" lon="1.28348">
        <ele>263.9</ele>
        <time>2026-07-12T06:22:54Z</time>
      </trkpt>
      <trkpt lat="44.49258" lon="1.28359">
        <ele>264.2</ele>
        <time>2026-07-12T06:23:00Z</time>
      </trkpt>
      <trkpt lat="44.49254" lon="1.28361">
        <ele>264.1</ele>
        <time>2026-07-12T06:23:01Z</time>
      </trkpt>
      <trkpt lat="44.49251" lon="1.28362">
        <ele>264.1</ele>
        <time>2026-07-12T06:23:02Z</time>
      </trkpt>
      <trkpt lat="44.49247" lon="1.28364">
        <ele>264.1</ele>
        <time>2026-07-12T06:23:03Z</time>
      </trkpt>
      <trkpt lat="44.49244" lon="1.28366">
        <ele>264.1</ele>
        <time>2026-07-12T06:23:04Z</time>
      </trkpt>
      <trkpt lat="44.4924" lon="1.28368">
        <ele>264</ele>
        <time>2026-07-12T06:23:05Z</time>
      </trkpt>
      <trkpt lat="44.49236" lon="1.2837">
        <ele>263.8</ele>
        <time>2026-07-12T06:23:06Z</time>
      </trkpt>
      <trkpt lat="44.49233" lon="1.28372">
        <ele>263.7</ele>
        <time>2026-07-12T06:23:07Z</time>
      </trkpt>
      <trkpt lat="44.49229" lon="1.28374">
        <ele>263.5</ele>
        <time>2026-07-12T06:23:08Z</time>
      </trkpt>
      <trkpt lat="44.49221" lon="1.28377">
        <ele>262.8</ele>
        <time>2026-07-12T06:23:10Z</time>
      </trkpt>
      <trkpt lat="44.49203" lon="1.28385">
        <ele>260.6</ele>
        <time>2026-07-12T06:23:14Z</time>
      </trkpt>
      <trkpt lat="44.49188" lon="1.28396">
        <ele>259.4</ele>
        <time>2026-07-12T06:23:17Z</time>
      </trkpt>
      <trkpt lat="44.49161" lon="1.28424">
        <ele>256.7</ele>
        <time>2026-07-12T06:23:22Z</time>
      </trkpt>
      <trkpt lat="44.49157" lon="1.28429">
        <ele>256.3</ele>
        <time>2026-07-12T06:23:23Z</time>
      </trkpt>
      <trkpt lat="44.49146" lon="1.28437">
        <ele>254.7</ele>
        <time>2026-07-12T06:23:25Z</time>
      </trkpt>
      <trkpt lat="44.49141" lon="1.28441">
        <ele>253.9</ele>
        <time>2026-07-12T06:23:26Z</time>
      </trkpt>
      <trkpt lat="44.49135" lon="1.28446">
        <ele>253.4</ele>
        <time>2026-07-12T06:23:27Z</time>
      </trkpt>
      <trkpt lat="44.49129" lon="1.28452">
        <ele>253.1</ele>
        <time>2026-07-12T06:23:28Z</time>
      </trkpt>
      <trkpt lat="44.49123" lon="1.28456">
        <ele>252.6</ele>
        <time>2026-07-12T06:23:29Z</time>
      </trkpt>
      <trkpt lat="44.49109" lon="1.28465">
        <ele>251.4</ele>
        <time>2026-07-12T06:23:31Z</time>
      </trkpt>
      <trkpt lat="44.49086" lon="1.28476">
        <ele>249.1</ele>
        <time>2026-07-12T06:23:34Z</time>
      </trkpt>
      <trkpt lat="44.49079" lon="1.28479">
        <ele>248.9</ele>
        <time>2026-07-12T06:23:35Z</time>
      </trkpt>
      <trkpt lat="44.49072" lon="1.28483">
        <ele>249.4</ele>
        <time>2026-07-12T06:23:36Z</time>
      </trkpt>
      <trkpt lat="44.49066" lon="1.28487">
        <ele>249.8</ele>
        <time>2026-07-12T06:23:37Z</time>
      </trkpt>
      <trkpt lat="44.49061" lon="1.28491">
        <ele>250.1</ele>
        <time>2026-07-12T06:23:38Z</time>
      </trkpt>
      <trkpt lat="44.49057" lon="1.28494">
        <ele>250.4</ele>
        <time>2026-07-12T06:23:39Z</time>
      </trkpt>
      <trkpt lat="44.49055" lon="1.28497">
        <ele>250.7</ele>
        <time>2026-07-12T06:23:40Z</time>
      </trkpt>
      <trkpt lat="44.49054" lon="1.28499">
        <ele>250.8</ele>
        <time>2026-07-12T06:23:41Z</time>
      </trkpt>
      <trkpt lat="44.49053" lon="1.285">
        <ele>250.8</ele>
        <time>2026-07-12T06:23:42Z</time>
      </trkpt>
      <trkpt lat="44.49051" lon="1.28501">
        <ele>250.6</ele>
        <time>2026-07-12T06:23:43Z</time>
      </trkpt>
      <trkpt lat="44.4905" lon="1.285">
        <ele>250.7</ele>
        <time>2026-07-12T06:23:44Z</time>
      </trkpt>
      <trkpt lat="44.49048" lon="1.28499">
        <ele>250.6</ele>
        <time>2026-07-12T06:23:45Z</time>
      </trkpt>
      <trkpt lat="44.49044" lon="1.28496">
        <ele>250.4</ele>
        <time>2026-07-12T06:23:47Z</time>
      </trkpt>
      <trkpt lat="44.49042" lon="1.28494">
        <ele>250.3</ele>
        <time>2026-07-12T06:23:48Z</time>
      </trkpt>
      <trkpt lat="44.49035" lon="1.28492">
        <ele>250.2</ele>
        <time>2026-07-12T06:23:50Z</time>
      </trkpt>
      <trkpt lat="44.49028" lon="1.2849">
        <ele>250.4</ele>
        <time>2026-07-12T06:23:53Z</time>
      </trkpt>
      <trkpt lat="44.49016" lon="1.28484">
        <ele>250.2</ele>
        <time>2026-07-12T06:23:57Z</time>
      </trkpt>
      <trkpt lat="44.49014" lon="1.28483">
        <ele>250.4</ele>
        <time>2026-07-12T06:23:58Z</time>
      </trkpt>
      <trkpt lat="44.49012" lon="1.28482">
        <ele>250.7</ele>
        <time>2026-07-12T06:23:59Z</time>
      </trkpt>
      <trkpt lat="44.49009" lon="1.28481">
        <ele>251.2</ele>
        <time>2026-07-12T06:24:00Z</time>
      </trkpt>
      <trkpt lat="44.49006" lon="1.28479">
        <ele>251.7</ele>
        <time>2026-07-12T06:24:01Z</time>
      </trkpt>
      <trkpt lat="44.48997" lon="1.28476">
        <ele>252.7</ele>
        <time>2026-07-12T06:24:03Z</time>
      </trkpt>
      <trkpt lat="44.48992" lon="1.28473">
        <ele>252.6</ele>
        <time>2026-07-12T06:24:04Z</time>
      </trkpt>
      <trkpt lat="44.48988" lon="1.2847">
        <ele>252</ele>
        <time>2026-07-12T06:24:05Z</time>
      </trkpt>
      <trkpt lat="44.48977" lon="1.28462">
        <ele>250.9</ele>
        <time>2026-07-12T06:24:07Z</time>
      </trkpt>
      <trkpt lat="44.48967" lon="1.28456">
        <ele>251.3</ele>
        <time>2026-07-12T06:24:09Z</time>
      </trkpt>
      <trkpt lat="44.48962" lon="1.28454">
        <ele>251.5</ele>
        <time>2026-07-12T06:24:10Z</time>
      </trkpt>
      <trkpt lat="44.48952" lon="1.2845">
        <ele>252.5</ele>
        <time>2026-07-12T06:24:12Z</time>
      </trkpt>
      <trkpt lat="44.48942" lon="1.28443">
        <ele>253.7</ele>
        <time>2026-07-12T06:24:14Z</time>
      </trkpt>
      <trkpt lat="44.4893" lon="1.28439">
        <ele>252.4</ele>
        <time>2026-07-12T06:24:16Z</time>
      </trkpt>
      <trkpt lat="44.48918" lon="1.28439">
        <ele>251.5</ele>
        <time>2026-07-12T06:24:18Z</time>
      </trkpt>
      <trkpt lat="44.48913" lon="1.28437">
        <ele>251.1</ele>
        <time>2026-07-12T06:24:19Z</time>
      </trkpt>
      <trkpt lat="44.48908" lon="1.28437">
        <ele>250.6</ele>
        <time>2026-07-12T06:24:20Z</time>
      </trkpt>
      <trkpt lat="44.48897" lon="1.28436">
        <ele>249.5</ele>
        <time>2026-07-12T06:24:22Z</time>
      </trkpt>
      <trkpt lat="44.48891" lon="1.28434">
        <ele>249.2</ele>
        <time>2026-07-12T06:24:23Z</time>
      </trkpt>
      <trkpt lat="44.48859" lon="1.28426">
        <ele>246.3</ele>
        <time>2026-07-12T06:24:28Z</time>
      </trkpt>
      <trkpt lat="44.48848" lon="1.28417">
        <ele>247.7</ele>
        <time>2026-07-12T06:24:30Z</time>
      </trkpt>
      <trkpt lat="44.48834" lon="1.28414">
        <ele>245.8</ele>
        <time>2026-07-12T06:24:32Z</time>
      </trkpt>
      <trkpt lat="44.48826" lon="1.28416">
        <ele>245.4</ele>
        <time>2026-07-12T06:24:33Z</time>
      </trkpt>
      <trkpt lat="44.48819" lon="1.28416">
        <ele>244.9</ele>
        <time>2026-07-12T06:24:34Z</time>
      </trkpt>
      <trkpt lat="44.48813" lon="1.28416">
        <ele>244.4</ele>
        <time>2026-07-12T06:24:35Z</time>
      </trkpt>
      <trkpt lat="44.48806" lon="1.28416">
        <ele>243.9</ele>
        <time>2026-07-12T06:24:36Z</time>
      </trkpt>
      <trkpt lat="44.48799" lon="1.28415">
        <ele>243.6</ele>
        <time>2026-07-12T06:24:37Z</time>
      </trkpt>
      <trkpt lat="44.48792" lon="1.28415">
        <ele>243.3</ele>
        <time>2026-07-12T06:24:38Z</time>
      </trkpt>
      <trkpt lat="44.48786" lon="1.28414">
        <ele>243</ele>
        <time>2026-07-12T06:24:39Z</time>
      </trkpt>
      <trkpt lat="44.48774" lon="1.28412">
        <ele>242.4</ele>
        <time>2026-07-12T06:24:41Z</time>
      </trkpt>
      <trkpt lat="44.48769" lon="1.28412">
        <ele>242</ele>
        <time>2026-07-12T06:24:42Z</time>
      </trkpt>
      <trkpt lat="44.48764" lon="1.28411">
        <ele>241.7</ele>
        <time>2026-07-12T06:24:43Z</time>
      </trkpt>
      <trkpt lat="44.48758" lon="1.28409">
        <ele>241.5</ele>
        <time>2026-07-12T06:24:44Z</time>
      </trkpt>
      <trkpt lat="44.48747" lon="1.28406">
        <ele>241.5</ele>
        <time>2026-07-12T06:24:46Z</time>
      </trkpt>
      <trkpt lat="44.48736" lon="1.28407">
        <ele>241.2</ele>
        <time>2026-07-12T06:24:48Z</time>
      </trkpt>
      <trkpt lat="44.48732" lon="1.28408">
        <ele>241</ele>
        <time>2026-07-12T06:24:49Z</time>
      </trkpt>
      <trkpt lat="44.48728" lon="1.28408">
        <ele>241</ele>
        <time>2026-07-12T06:24:50Z</time>
      </trkpt>
      <trkpt lat="44.48723" lon="1.28407">
        <ele>241</ele>
        <time>2026-07-12T06:24:51Z</time>
      </trkpt>
      <trkpt lat="44.48715" lon="1.28403">
        <ele>240.6</ele>
        <time>2026-07-12T06:24:53Z</time>
      </trkpt>
      <trkpt lat="44.48713" lon="1.28399">
        <ele>241.2</ele>
        <time>2026-07-12T06:24:54Z</time>
      </trkpt>
      <trkpt lat="44.4871" lon="1.28395">
        <ele>241.8</ele>
        <time>2026-07-12T06:24:55Z</time>
      </trkpt>
      <trkpt lat="44.48708" lon="1.28394">
        <ele>241.9</ele>
        <time>2026-07-12T06:24:56Z</time>
      </trkpt>
      <trkpt lat="44.48705" lon="1.28395">
        <ele>241.2</ele>
        <time>2026-07-12T06:24:57Z</time>
      </trkpt>
      <trkpt lat="44.487" lon="1.28395">
        <ele>240.6</ele>
        <time>2026-07-12T06:24:58Z</time>
      </trkpt>
      <trkpt lat="44.48695" lon="1.28394">
        <ele>240.2</ele>
        <time>2026-07-12T06:24:59Z</time>
      </trkpt>
      <trkpt lat="44.4869" lon="1.28393">
        <ele>239.8</ele>
        <time>2026-07-12T06:25:00Z</time>
      </trkpt>
      <trkpt lat="44.48659" lon="1.28391">
        <ele>237.9</ele>
        <time>2026-07-12T06:25:05Z</time>
      </trkpt>
      <trkpt lat="44.48652" lon="1.28391">
        <ele>237.5</ele>
        <time>2026-07-12T06:25:06Z</time>
      </trkpt>
      <trkpt lat="44.48646" lon="1.28391">
        <ele>237.3</ele>
        <time>2026-07-12T06:25:07Z</time>
      </trkpt>
      <trkpt lat="44.4864" lon="1.2839">
        <ele>237.5</ele>
        <time>2026-07-12T06:25:08Z</time>
      </trkpt>
      <trkpt lat="44.48635" lon="1.28387">
        <ele>237.9</ele>
        <time>2026-07-12T06:25:09Z</time>
      </trkpt>
      <trkpt lat="44.48623" lon="1.2838">
        <ele>237.8</ele>
        <time>2026-07-12T06:25:11Z</time>
      </trkpt>
      <trkpt lat="44.48607" lon="1.28374">
        <ele>238.3</ele>
        <time>2026-07-12T06:25:14Z</time>
      </trkpt>
      <trkpt lat="44.48602" lon="1.28372">
        <ele>238.8</ele>
        <time>2026-07-12T06:25:15Z</time>
      </trkpt>
      <trkpt lat="44.48596" lon="1.2837">
        <ele>239.3</ele>
        <time>2026-07-12T06:25:16Z</time>
      </trkpt>
      <trkpt lat="44.48591" lon="1.28368">
        <ele>239.9</ele>
        <time>2026-07-12T06:25:17Z</time>
      </trkpt>
      <trkpt lat="44.48587" lon="1.28367">
        <ele>240.5</ele>
        <time>2026-07-12T06:25:18Z</time>
      </trkpt>
      <trkpt lat="44.48582" lon="1.28365">
        <ele>241.2</ele>
        <time>2026-07-12T06:25:19Z</time>
      </trkpt>
      <trkpt lat="44.48578" lon="1.28364">
        <ele>242</ele>
        <time>2026-07-12T06:25:20Z</time>
      </trkpt>
      <trkpt lat="44.48575" lon="1.28362">
        <ele>242.8</ele>
        <time>2026-07-12T06:25:21Z</time>
      </trkpt>
      <trkpt lat="44.48572" lon="1.2836">
        <ele>243.2</ele>
        <time>2026-07-12T06:25:22Z</time>
      </trkpt>
      <trkpt lat="44.48569" lon="1.28358">
        <ele>243.5</ele>
        <time>2026-07-12T06:25:23Z</time>
      </trkpt>
      <trkpt lat="44.48566" lon="1.28357">
        <ele>243.7</ele>
        <time>2026-07-12T06:25:24Z</time>
      </trkpt>
      <trkpt lat="44.48565" lon="1.28355">
        <ele>243.9</ele>
        <time>2026-07-12T06:25:25Z</time>
      </trkpt>
      <trkpt lat="44.48565" lon="1.28353">
        <ele>243.8</ele>
        <time>2026-07-12T06:25:26Z</time>
      </trkpt>
      <trkpt lat="44.48565" lon="1.28352">
        <ele>243.8</ele>
        <time>2026-07-12T06:25:27Z</time>
      </trkpt>
      <trkpt lat="44.48565" lon="1.28352">
        <ele>243.8</ele>
        <time>2026-07-12T06:25:28Z</time>
      </trkpt>
      <trkpt lat="44.48565" lon="1.28352">
        <ele>243.8</ele>
        <time>2026-07-12T06:25:29Z</time>
      </trkpt>
      <trkpt lat="44.4856" lon="1.28355">
        <ele>244.3</ele>
        <time>2026-07-12T06:49:00Z</time>
      </trkpt>
      <trkpt lat="44.48557" lon="1.28357">
        <ele>244.7</ele>
        <time>2026-07-12T06:49:02Z</time>
      </trkpt>
      <trkpt lat="44.48555" lon="1.28357">
        <ele>244.9</ele>
        <time>2026-07-12T06:49:03Z</time>
      </trkpt>
      <trkpt lat="44.48553" lon="1.28357">
        <ele>244.9</ele>
        <time>2026-07-12T06:49:04Z</time>
      </trkpt>
      <trkpt lat="44.48551" lon="1.28355">
        <ele>244.9</ele>
        <time>2026-07-12T06:49:05Z</time>
      </trkpt>
      <trkpt lat="44.48549" lon="1.28354">
        <ele>244.9</ele>
        <time>2026-07-12T06:49:06Z</time>
      </trkpt>
      <trkpt lat="44.48548" lon="1.28352">
        <ele>244.8</ele>
        <time>2026-07-12T06:49:07Z</time>
      </trkpt>
      <trkpt lat="44.48546" lon="1.28347">
        <ele>244.6</ele>
        <time>2026-07-12T06:49:09Z</time>
      </trkpt>
      <trkpt lat="44.48546" lon="1.28344">
        <ele>244.5</ele>
        <time>2026-07-12T06:49:10Z</time>
      </trkpt>
      <trkpt lat="44.48545" lon="1.2834">
        <ele>244.3</ele>
        <time>2026-07-12T06:49:11Z</time>
      </trkpt>
      <trkpt lat="44.48542" lon="1.28328">
        <ele>243.6</ele>
        <time>2026-07-12T06:49:14Z</time>
      </trkpt>
      <trkpt lat="44.48542" lon="1.2831">
        <ele>242.3</ele>
        <time>2026-07-12T06:49:18Z</time>
      </trkpt>
      <trkpt lat="44.48544" lon="1.283">
        <ele>241.4</ele>
        <time>2026-07-12T06:49:20Z</time>
      </trkpt>
      <trkpt lat="44.4855" lon="1.28276">
        <ele>238.7</ele>
        <time>2026-07-12T06:49:25Z</time>
      </trkpt>
      <trkpt lat="44.48552" lon="1.2827">
        <ele>237.8</ele>
        <time>2026-07-12T06:49:26Z</time>
      </trkpt>
      <trkpt lat="44.48555" lon="1.28264">
        <ele>237</ele>
        <time>2026-07-12T06:49:27Z</time>
      </trkpt>
      <trkpt lat="44.48563" lon="1.28253">
        <ele>235.5</ele>
        <time>2026-07-12T06:49:29Z</time>
      </trkpt>
      <trkpt lat="44.48568" lon="1.28248">
        <ele>234.7</ele>
        <time>2026-07-12T06:49:30Z</time>
      </trkpt>
      <trkpt lat="44.48572" lon="1.28244">
        <ele>234.1</ele>
        <time>2026-07-12T06:49:31Z</time>
      </trkpt>
      <trkpt lat="44.48577" lon="1.2824">
        <ele>233.7</ele>
        <time>2026-07-12T06:49:32Z</time>
      </trkpt>
      <trkpt lat="44.48587" lon="1.28234">
        <ele>232.9</ele>
        <time>2026-07-12T06:49:34Z</time>
      </trkpt>
      <trkpt lat="44.48592" lon="1.28232">
        <ele>232.2</ele>
        <time>2026-07-12T06:49:35Z</time>
      </trkpt>
      <trkpt lat="44.48597" lon="1.28232">
        <ele>231.7</ele>
        <time>2026-07-12T06:49:36Z</time>
      </trkpt>
      <trkpt lat="44.48601" lon="1.28234">
        <ele>231.3</ele>
        <time>2026-07-12T06:49:37Z</time>
      </trkpt>
      <trkpt lat="44.48606" lon="1.28236">
        <ele>231.1</ele>
        <time>2026-07-12T06:49:38Z</time>
      </trkpt>
      <trkpt lat="44.4861" lon="1.2824">
        <ele>231</ele>
        <time>2026-07-12T06:49:39Z</time>
      </trkpt>
      <trkpt lat="44.48615" lon="1.28244">
        <ele>230.3</ele>
        <time>2026-07-12T06:49:40Z</time>
      </trkpt>
      <trkpt lat="44.48631" lon="1.28259">
        <ele>228.1</ele>
        <time>2026-07-12T06:49:43Z</time>
      </trkpt>
      <trkpt lat="44.48643" lon="1.28269">
        <ele>227.1</ele>
        <time>2026-07-12T06:49:45Z</time>
      </trkpt>
      <trkpt lat="44.48655" lon="1.28275">
        <ele>226.6</ele>
        <time>2026-07-12T06:49:47Z</time>
      </trkpt>
      <trkpt lat="44.48669" lon="1.28277">
        <ele>225.6</ele>
        <time>2026-07-12T06:49:49Z</time>
      </trkpt>
      <trkpt lat="44.48676" lon="1.28276">
        <ele>225.3</ele>
        <time>2026-07-12T06:49:50Z</time>
      </trkpt>
      <trkpt lat="44.48683" lon="1.28275">
        <ele>224.8</ele>
        <time>2026-07-12T06:49:51Z</time>
      </trkpt>
      <trkpt lat="44.48689" lon="1.28273">
        <ele>224.1</ele>
        <time>2026-07-12T06:49:52Z</time>
      </trkpt>
      <trkpt lat="44.48708" lon="1.28264">
        <ele>222.2</ele>
        <time>2026-07-12T06:49:55Z</time>
      </trkpt>
      <trkpt lat="44.48715" lon="1.2826">
        <ele>221.4</ele>
        <time>2026-07-12T06:49:56Z</time>
      </trkpt>
      <trkpt lat="44.48729" lon="1.28253">
        <ele>219.3</ele>
        <time>2026-07-12T06:49:58Z</time>
      </trkpt>
      <trkpt lat="44.48735" lon="1.28251">
        <ele>218.2</ele>
        <time>2026-07-12T06:49:59Z</time>
      </trkpt>
      <trkpt lat="44.48741" lon="1.28249">
        <ele>217.4</ele>
        <time>2026-07-12T06:50:00Z</time>
      </trkpt>
      <trkpt lat="44.48747" lon="1.28249">
        <ele>217</ele>
        <time>2026-07-12T06:50:01Z</time>
      </trkpt>
      <trkpt lat="44.48752" lon="1.2825">
        <ele>216.6</ele>
        <time>2026-07-12T06:50:02Z</time>
      </trkpt>
      <trkpt lat="44.48756" lon="1.28251">
        <ele>216</ele>
        <time>2026-07-12T06:50:03Z</time>
      </trkpt>
      <trkpt lat="44.4876" lon="1.2825">
        <ele>215.2</ele>
        <time>2026-07-12T06:50:04Z</time>
      </trkpt>
      <trkpt lat="44.48764" lon="1.28249">
        <ele>214.2</ele>
        <time>2026-07-12T06:50:05Z</time>
      </trkpt>
      <trkpt lat="44.48766" lon="1.28245">
        <ele>213.2</ele>
        <time>2026-07-12T06:50:06Z</time>
      </trkpt>
      <trkpt lat="44.48766" lon="1.28241">
        <ele>212.2</ele>
        <time>2026-07-12T06:50:07Z</time>
      </trkpt>
      <trkpt lat="44.48764" lon="1.28236">
        <ele>211.3</ele>
        <time>2026-07-12T06:50:08Z</time>
      </trkpt>
      <trkpt lat="44.48762" lon="1.28231">
        <ele>210.6</ele>
        <time>2026-07-12T06:50:09Z</time>
      </trkpt>
      <trkpt lat="44.48758" lon="1.28226">
        <ele>210.4</ele>
        <time>2026-07-12T06:50:10Z</time>
      </trkpt>
      <trkpt lat="44.48752" lon="1.28222">
        <ele>210.6</ele>
        <time>2026-07-12T06:50:11Z</time>
      </trkpt>
      <trkpt lat="44.48745" lon="1.28219">
        <ele>209.8</ele>
        <time>2026-07-12T06:50:12Z</time>
      </trkpt>
      <trkpt lat="44.48738" lon="1.28218">
        <ele>209.1</ele>
        <time>2026-07-12T06:50:13Z</time>
      </trkpt>
      <trkpt lat="44.48732" lon="1.28217">
        <ele>208.5</ele>
        <time>2026-07-12T06:50:14Z</time>
      </trkpt>
      <trkpt lat="44.48724" lon="1.28216">
        <ele>208</ele>
        <time>2026-07-12T06:50:15Z</time>
      </trkpt>
      <trkpt lat="44.48701" lon="1.28214">
        <ele>206.3</ele>
        <time>2026-07-12T06:50:18Z</time>
      </trkpt>
      <trkpt lat="44.48693" lon="1.28213">
        <ele>205.8</ele>
        <time>2026-07-12T06:50:19Z</time>
      </trkpt>
      <trkpt lat="44.48686" lon="1.2821">
        <ele>206.3</ele>
        <time>2026-07-12T06:50:20Z</time>
      </trkpt>
      <trkpt lat="44.4868" lon="1.28205">
        <ele>206.2</ele>
        <time>2026-07-12T06:50:21Z</time>
      </trkpt>
      <trkpt lat="44.48675" lon="1.28197">
        <ele>205.3</ele>
        <time>2026-07-12T06:50:22Z</time>
      </trkpt>
      <trkpt lat="44.48672" lon="1.28188">
        <ele>204.7</ele>
        <time>2026-07-12T06:50:23Z</time>
      </trkpt>
      <trkpt lat="44.4867" lon="1.28177">
        <ele>203.8</ele>
        <time>2026-07-12T06:50:24Z</time>
      </trkpt>
      <trkpt lat="44.4867" lon="1.28165">
        <ele>202.7</ele>
        <time>2026-07-12T06:50:25Z</time>
      </trkpt>
      <trkpt lat="44.48671" lon="1.28154">
        <ele>202.3</ele>
        <time>2026-07-12T06:50:26Z</time>
      </trkpt>
      <trkpt lat="44.48672" lon="1.28142">
        <ele>201.4</ele>
        <time>2026-07-12T06:50:27Z</time>
      </trkpt>
      <trkpt lat="44.48675" lon="1.28131">
        <ele>200.3</ele>
        <time>2026-07-12T06:50:28Z</time>
      </trkpt>
      <trkpt lat="44.48677" lon="1.28119">
        <ele>199</ele>
        <time>2026-07-12T06:50:29Z</time>
      </trkpt>
      <trkpt lat="44.48681" lon="1.28107">
        <ele>197.5</ele>
        <time>2026-07-12T06:50:30Z</time>
      </trkpt>
      <trkpt lat="44.48685" lon="1.28084">
        <ele>195.7</ele>
        <time>2026-07-12T06:50:32Z</time>
      </trkpt>
      <trkpt lat="44.48686" lon="1.28075">
        <ele>194.9</ele>
        <time>2026-07-12T06:50:33Z</time>
      </trkpt>
      <trkpt lat="44.48685" lon="1.28068">
        <ele>194.5</ele>
        <time>2026-07-12T06:50:34Z</time>
      </trkpt>
      <trkpt lat="44.48685" lon="1.28061">
        <ele>194</ele>
        <time>2026-07-12T06:50:35Z</time>
      </trkpt>
      <trkpt lat="44.48686" lon="1.28055">
        <ele>193.5</ele>
        <time>2026-07-12T06:50:36Z</time>
      </trkpt>
      <trkpt lat="44.48688" lon="1.28052">
        <ele>192.5</ele>
        <time>2026-07-12T06:50:37Z</time>
      </trkpt>
      <trkpt lat="44.4869" lon="1.2805">
        <ele>191.8</ele>
        <time>2026-07-12T06:50:38Z</time>
      </trkpt>
      <trkpt lat="44.48692" lon="1.28051">
        <ele>191.6</ele>
        <time>2026-07-12T06:50:39Z</time>
      </trkpt>
      <trkpt lat="44.48694" lon="1.28053">
        <ele>191.6</ele>
        <time>2026-07-12T06:50:40Z</time>
      </trkpt>
      <trkpt lat="44.48696" lon="1.28058">
        <ele>191.5</ele>
        <time>2026-07-12T06:50:41Z</time>
      </trkpt>
      <trkpt lat="44.48696" lon="1.28064">
        <ele>191.3</ele>
        <time>2026-07-12T06:50:42Z</time>
      </trkpt>
      <trkpt lat="44.48696" lon="1.28078">
        <ele>191.2</ele>
        <time>2026-07-12T06:50:44Z</time>
      </trkpt>
      <trkpt lat="44.48696" lon="1.28086">
        <ele>191.1</ele>
        <time>2026-07-12T06:50:45Z</time>
      </trkpt>
      <trkpt lat="44.48696" lon="1.28095">
        <ele>190.9</ele>
        <time>2026-07-12T06:50:46Z</time>
      </trkpt>
      <trkpt lat="44.48697" lon="1.28103">
        <ele>190.2</ele>
        <time>2026-07-12T06:50:47Z</time>
      </trkpt>
      <trkpt lat="44.48698" lon="1.28112">
        <ele>189.5</ele>
        <time>2026-07-12T06:50:48Z</time>
      </trkpt>
      <trkpt lat="44.48699" lon="1.28121">
        <ele>189.2</ele>
        <time>2026-07-12T06:50:49Z</time>
      </trkpt>
      <trkpt lat="44.48701" lon="1.2813">
        <ele>188.7</ele>
        <time>2026-07-12T06:50:50Z</time>
      </trkpt>
      <trkpt lat="44.48703" lon="1.28138">
        <ele>188.1</ele>
        <time>2026-07-12T06:50:51Z</time>
      </trkpt>
      <trkpt lat="44.48707" lon="1.28143">
        <ele>187.8</ele>
        <time>2026-07-12T06:50:52Z</time>
      </trkpt>
      <trkpt lat="44.48711" lon="1.28148">
        <ele>187.7</ele>
        <time>2026-07-12T06:50:53Z</time>
      </trkpt>
      <trkpt lat="44.48716" lon="1.28151">
        <ele>187.3</ele>
        <time>2026-07-12T06:50:54Z</time>
      </trkpt>
      <trkpt lat="44.48722" lon="1.28152">
        <ele>186.4</ele>
        <time>2026-07-12T06:50:55Z</time>
      </trkpt>
      <trkpt lat="44.48726" lon="1.2815">
        <ele>185.7</ele>
        <time>2026-07-12T06:50:56Z</time>
      </trkpt>
      <trkpt lat="44.4873" lon="1.28147">
        <ele>184.6</ele>
        <time>2026-07-12T06:50:57Z</time>
      </trkpt>
      <trkpt lat="44.48734" lon="1.28145">
        <ele>183.9</ele>
        <time>2026-07-12T06:50:58Z</time>
      </trkpt>
      <trkpt lat="44.48738" lon="1.28144">
        <ele>183.2</ele>
        <time>2026-07-12T06:50:59Z</time>
      </trkpt>
      <trkpt lat="44.48742" lon="1.28142">
        <ele>182.4</ele>
        <time>2026-07-12T06:51:00Z</time>
      </trkpt>
      <trkpt lat="44.48746" lon="1.28141">
        <ele>181.9</ele>
        <time>2026-07-12T06:51:01Z</time>
      </trkpt>
      <trkpt lat="44.48755" lon="1.28135">
        <ele>180.3</ele>
        <time>2026-07-12T06:51:03Z</time>
      </trkpt>
      <trkpt lat="44.4876" lon="1.28134">
        <ele>180</ele>
        <time>2026-07-12T06:51:04Z</time>
      </trkpt>
      <trkpt lat="44.48773" lon="1.28129">
        <ele>179.4</ele>
        <time>2026-07-12T06:51:07Z</time>
      </trkpt>
      <trkpt lat="44.48776" lon="1.28127">
        <ele>178.8</ele>
        <time>2026-07-12T06:51:08Z</time>
      </trkpt>
      <trkpt lat="44.48778" lon="1.28125">
        <ele>177.9</ele>
        <time>2026-07-12T06:51:09Z</time>
      </trkpt>
      <trkpt lat="44.48777" lon="1.28122">
        <ele>177</ele>
        <time>2026-07-12T06:51:10Z</time>
      </trkpt>
      <trkpt lat="44.48769" lon="1.28121">
        <ele>176.5</ele>
        <time>2026-07-12T06:51:12Z</time>
      </trkpt>
      <trkpt lat="44.48761" lon="1.28122">
        <ele>176.4</ele>
        <time>2026-07-12T06:51:14Z</time>
      </trkpt>
      <trkpt lat="44.48745" lon="1.2812">
        <ele>176.3</ele>
        <time>2026-07-12T06:51:18Z</time>
      </trkpt>
      <trkpt lat="44.4874" lon="1.28116">
        <ele>176.3</ele>
        <time>2026-07-12T06:51:19Z</time>
      </trkpt>
      <trkpt lat="44.48736" lon="1.28111">
        <ele>176</ele>
        <time>2026-07-12T06:51:20Z</time>
      </trkpt>
      <trkpt lat="44.48734" lon="1.28105">
        <ele>176</ele>
        <time>2026-07-12T06:51:21Z</time>
      </trkpt>
      <trkpt lat="44.48734" lon="1.28097">
        <ele>175.6</ele>
        <time>2026-07-12T06:51:22Z</time>
      </trkpt>
      <trkpt lat="44.48736" lon="1.28081">
        <ele>174</ele>
        <time>2026-07-12T06:51:24Z</time>
      </trkpt>
      <trkpt lat="44.48739" lon="1.28075">
        <ele>173.3</ele>
        <time>2026-07-12T06:51:25Z</time>
      </trkpt>
      <trkpt lat="44.48741" lon="1.28069">
        <ele>172.7</ele>
        <time>2026-07-12T06:51:26Z</time>
      </trkpt>
      <trkpt lat="44.48742" lon="1.28064">
        <ele>172.4</ele>
        <time>2026-07-12T06:51:27Z</time>
      </trkpt>
      <trkpt lat="44.48744" lon="1.2806">
        <ele>172</ele>
        <time>2026-07-12T06:51:28Z</time>
      </trkpt>
      <trkpt lat="44.48746" lon="1.28054">
        <ele>171.5</ele>
        <time>2026-07-12T06:51:29Z</time>
      </trkpt>
      <trkpt lat="44.48748" lon="1.28049">
        <ele>171</ele>
        <time>2026-07-12T06:51:30Z</time>
      </trkpt>
      <trkpt lat="44.4875" lon="1.28042">
        <ele>170.5</ele>
        <time>2026-07-12T06:51:31Z</time>
      </trkpt>
      <trkpt lat="44.48752" lon="1.28026">
        <ele>169.9</ele>
        <time>2026-07-12T06:51:33Z</time>
      </trkpt>
      <trkpt lat="44.48753" lon="1.28018">
        <ele>168.6</ele>
        <time>2026-07-12T06:51:34Z</time>
      </trkpt>
      <trkpt lat="44.48754" lon="1.28002">
        <ele>166.7</ele>
        <time>2026-07-12T06:51:36Z</time>
      </trkpt>
      <trkpt lat="44.48751" lon="1.27986">
        <ele>165.6</ele>
        <time>2026-07-12T06:51:38Z</time>
      </trkpt>
      <trkpt lat="44.48749" lon="1.27978">
        <ele>165.2</ele>
        <time>2026-07-12T06:51:39Z</time>
      </trkpt>
      <trkpt lat="44.48746" lon="1.27972">
        <ele>165.1</ele>
        <time>2026-07-12T06:51:40Z</time>
      </trkpt>
      <trkpt lat="44.48742" lon="1.27966">
        <ele>165.1</ele>
        <time>2026-07-12T06:51:41Z</time>
      </trkpt>
      <trkpt lat="44.48739" lon="1.2796">
        <ele>164.5</ele>
        <time>2026-07-12T06:51:42Z</time>
      </trkpt>
      <trkpt lat="44.48737" lon="1.27954">
        <ele>163.7</ele>
        <time>2026-07-12T06:51:43Z</time>
      </trkpt>
      <trkpt lat="44.48734" lon="1.27947">
        <ele>163</ele>
        <time>2026-07-12T06:51:44Z</time>
      </trkpt>
      <trkpt lat="44.48731" lon="1.2794">
        <ele>162.4</ele>
        <time>2026-07-12T06:51:45Z</time>
      </trkpt>
      <trkpt lat="44.48727" lon="1.27934">
        <ele>161.8</ele>
        <time>2026-07-12T06:51:46Z</time>
      </trkpt>
      <trkpt lat="44.48717" lon="1.27923">
        <ele>159.9</ele>
        <time>2026-07-12T06:51:48Z</time>
      </trkpt>
      <trkpt lat="44.48711" lon="1.27917">
        <ele>158.6</ele>
        <time>2026-07-12T06:51:49Z</time>
      </trkpt>
      <trkpt lat="44.487" lon="1.27911">
        <ele>157.2</ele>
        <time>2026-07-12T06:51:51Z</time>
      </trkpt>
      <trkpt lat="44.48694" lon="1.2791">
        <ele>156.9</ele>
        <time>2026-07-12T06:51:52Z</time>
      </trkpt>
      <trkpt lat="44.4869" lon="1.2791">
        <ele>156.3</ele>
        <time>2026-07-12T06:51:53Z</time>
      </trkpt>
      <trkpt lat="44.48686" lon="1.27909">
        <ele>155.6</ele>
        <time>2026-07-12T06:51:54Z</time>
      </trkpt>
      <trkpt lat="44.48682" lon="1.27907">
        <ele>154.5</ele>
        <time>2026-07-12T06:51:55Z</time>
      </trkpt>
      <trkpt lat="44.48683" lon="1.27905">
        <ele>153.7</ele>
        <time>2026-07-12T06:51:56Z</time>
      </trkpt>
      <trkpt lat="44.48685" lon="1.27904">
        <ele>153.5</ele>
        <time>2026-07-12T06:51:57Z</time>
      </trkpt>
      <trkpt lat="44.48688" lon="1.27903">
        <ele>153.9</ele>
        <time>2026-07-12T06:51:58Z</time>
      </trkpt>
      <trkpt lat="44.48692" lon="1.27902">
        <ele>154.3</ele>
        <time>2026-07-12T06:51:59Z</time>
      </trkpt>
      <trkpt lat="44.48696" lon="1.27902">
        <ele>154.6</ele>
        <time>2026-07-12T06:52:00Z</time>
      </trkpt>
      <trkpt lat="44.487" lon="1.27901">
        <ele>154.4</ele>
        <time>2026-07-12T06:52:01Z</time>
      </trkpt>
      <trkpt lat="44.48709" lon="1.27899">
        <ele>153.8</ele>
        <time>2026-07-12T06:52:03Z</time>
      </trkpt>
      <trkpt lat="44.48714" lon="1.279">
        <ele>153.8</ele>
        <time>2026-07-12T06:52:04Z</time>
      </trkpt>
      <trkpt lat="44.48723" lon="1.27903">
        <ele>154.2</ele>
        <time>2026-07-12T06:52:06Z</time>
      </trkpt>
      <trkpt lat="44.48728" lon="1.27904">
        <ele>153.6</ele>
        <time>2026-07-12T06:52:07Z</time>
      </trkpt>
      <trkpt lat="44.48737" lon="1.27901">
        <ele>151.2</ele>
        <time>2026-07-12T06:52:09Z</time>
      </trkpt>
      <trkpt lat="44.48737" lon="1.27899">
        <ele>150.7</ele>
        <time>2026-07-12T06:52:10Z</time>
      </trkpt>
      <trkpt lat="44.48735" lon="1.27895">
        <ele>150.3</ele>
        <time>2026-07-12T06:52:11Z</time>
      </trkpt>
      <trkpt lat="44.48731" lon="1.27892">
        <ele>150.1</ele>
        <time>2026-07-12T06:52:12Z</time>
      </trkpt>
      <trkpt lat="44.48723" lon="1.27885">
        <ele>149.8</ele>
        <time>2026-07-12T06:52:14Z</time>
      </trkpt>
      <trkpt lat="44.48717" lon="1.27882">
        <ele>148.7</ele>
        <time>2026-07-12T06:52:15Z</time>
      </trkpt>
      <trkpt lat="44.48706" lon="1.27875">
        <ele>146.6</ele>
        <time>2026-07-12T06:52:17Z</time>
      </trkpt>
      <trkpt lat="44.48699" lon="1.27875">
        <ele>146.4</ele>
        <time>2026-07-12T06:52:18Z</time>
      </trkpt>
      <trkpt lat="44.48692" lon="1.27875">
        <ele>145.9</ele>
        <time>2026-07-12T06:52:19Z</time>
      </trkpt>
      <trkpt lat="44.48681" lon="1.27875">
        <ele>142.8</ele>
        <time>2026-07-12T06:52:21Z</time>
      </trkpt>
      <trkpt lat="44.48678" lon="1.27872">
        <ele>141</ele>
        <time>2026-07-12T06:52:22Z</time>
      </trkpt>
      <trkpt lat="44.48678" lon="1.27869">
        <ele>140</ele>
        <time>2026-07-12T06:52:23Z</time>
      </trkpt>
      <trkpt lat="44.48681" lon="1.27865">
        <ele>139.7</ele>
        <time>2026-07-12T06:52:24Z</time>
      </trkpt>
      <trkpt lat="44.48686" lon="1.27862">
        <ele>139.8</ele>
        <time>2026-07-12T06:52:25Z</time>
      </trkpt>
      <trkpt lat="44.48691" lon="1.27859">
        <ele>140.4</ele>
        <time>2026-07-12T06:52:26Z</time>
      </trkpt>
      <trkpt lat="44.48696" lon="1.27857">
        <ele>140.8</ele>
        <time>2026-07-12T06:52:27Z</time>
      </trkpt>
      <trkpt lat="44.48702" lon="1.27855">
        <ele>140.1</ele>
        <time>2026-07-12T06:52:28Z</time>
      </trkpt>
      <trkpt lat="44.48706" lon="1.27854">
        <ele>139.6</ele>
        <time>2026-07-12T06:52:29Z</time>
      </trkpt>
      <trkpt lat="44.48712" lon="1.27853">
        <ele>139.3</ele>
        <time>2026-07-12T06:52:30Z</time>
      </trkpt>
      <trkpt lat="44.48724" lon="1.27852">
        <ele>138.8</ele>
        <time>2026-07-12T06:52:32Z</time>
      </trkpt>
      <trkpt lat="44.48742" lon="1.27855">
        <ele>138.4</ele>
        <time>2026-07-12T06:52:35Z</time>
      </trkpt>
      <trkpt lat="44.48747" lon="1.27856">
        <ele>138.1</ele>
        <time>2026-07-12T06:52:36Z</time>
      </trkpt>
      <trkpt lat="44.48752" lon="1.27858">
        <ele>137.7</ele>
        <time>2026-07-12T06:52:37Z</time>
      </trkpt>
      <trkpt lat="44.48756" lon="1.2786">
        <ele>137.4</ele>
        <time>2026-07-12T06:52:38Z</time>
      </trkpt>
      <trkpt lat="44.48759" lon="1.2786">
        <ele>137.1</ele>
        <time>2026-07-12T06:52:39Z</time>
      </trkpt>
      <trkpt lat="44.48761" lon="1.2786">
        <ele>136.8</ele>
        <time>2026-07-12T06:52:40Z</time>
      </trkpt>
      <trkpt lat="44.48764" lon="1.27858">
        <ele>136.6</ele>
        <time>2026-07-12T06:52:41Z</time>
      </trkpt>
      <trkpt lat="44.48767" lon="1.27857">
        <ele>136.4</ele>
        <time>2026-07-12T06:52:42Z</time>
      </trkpt>
      <trkpt lat="44.48769" lon="1.27855">
        <ele>136.3</ele>
        <time>2026-07-12T06:52:43Z</time>
      </trkpt>
      <trkpt lat="44.4877" lon="1.27855">
        <ele>136.3</ele>
        <time>2026-07-12T06:52:44Z</time>
      </trkpt>
      <trkpt lat="44.4877" lon="1.27853">
        <ele>136.4</ele>
        <time>2026-07-12T06:52:45Z</time>
      </trkpt>
      <trkpt lat="44.48768" lon="1.27852">
        <ele>136.5</ele>
        <time>2026-07-12T06:52:46Z</time>
      </trkpt>
      <trkpt lat="44.48767" lon="1.27853">
        <ele>136.6</ele>
        <time>2026-07-12T06:52:47Z</time>
      </trkpt>
      <trkpt lat="44.48761" lon="1.27852">
        <ele>137</ele>
        <time>2026-07-12T06:52:49Z</time>
      </trkpt>
      <trkpt lat="44.48759" lon="1.27852">
        <ele>137.2</ele>
        <time>2026-07-12T06:52:50Z</time>
      </trkpt>
      <trkpt lat="44.48756" lon="1.2785">
        <ele>137.3</ele>
        <time>2026-07-12T06:52:51Z</time>
      </trkpt>
      <trkpt lat="44.48753" lon="1.27847">
        <ele>137.4</ele>
        <time>2026-07-12T06:52:52Z</time>
      </trkpt>
      <trkpt lat="44.48749" lon="1.27845">
        <ele>137.4</ele>
        <time>2026-07-12T06:52:53Z</time>
      </trkpt>
      <trkpt lat="44.48746" lon="1.27843">
        <ele>137</ele>
        <time>2026-07-12T06:52:54Z</time>
      </trkpt>
      <trkpt lat="44.48723" lon="1.27827">
        <ele>133.4</ele>
        <time>2026-07-12T06:52:59Z</time>
      </trkpt>
      <trkpt lat="44.48717" lon="1.27822">
        <ele>133.3</ele>
        <time>2026-07-12T06:53:00Z</time>
      </trkpt>
      <trkpt lat="44.48709" lon="1.27816">
        <ele>132</ele>
        <time>2026-07-12T06:53:01Z</time>
      </trkpt>
      <trkpt lat="44.48695" lon="1.27804">
        <ele>125.4</ele>
        <time>2026-07-12T06:53:03Z</time>
      </trkpt>
      <trkpt lat="44.48681" lon="1.27793">
        <ele>124.5</ele>
        <time>2026-07-12T06:53:05Z</time>
      </trkpt>
      <trkpt lat="44.48675" lon="1.27792">
        <ele>123.6</ele>
        <time>2026-07-12T06:53:06Z</time>
      </trkpt>
      <trkpt lat="44.4867" lon="1.27792">
        <ele>122.6</ele>
        <time>2026-07-12T06:53:07Z</time>
      </trkpt>
      <trkpt lat="44.48665" lon="1.27793">
        <ele>121.7</ele>
        <time>2026-07-12T06:53:08Z</time>
      </trkpt>
      <trkpt lat="44.48662" lon="1.27796">
        <ele>120.8</ele>
        <time>2026-07-12T06:53:09Z</time>
      </trkpt>
      <trkpt lat="44.48659" lon="1.27799">
        <ele>120</ele>
        <time>2026-07-12T06:53:10Z</time>
      </trkpt>
      <trkpt lat="44.48657" lon="1.27805">
        <ele>119</ele>
        <time>2026-07-12T06:53:11Z</time>
      </trkpt>
      <trkpt lat="44.48655" lon="1.27811">
        <ele>119.2</ele>
        <time>2026-07-12T06:53:12Z</time>
      </trkpt>
      <trkpt lat="44.48653" lon="1.27818">
        <ele>119.4</ele>
        <time>2026-07-12T06:53:13Z</time>
      </trkpt>
      <trkpt lat="44.4865" lon="1.27826">
        <ele>119.2</ele>
        <time>2026-07-12T06:53:14Z</time>
      </trkpt>
      <trkpt lat="44.48646" lon="1.27832">
        <ele>118.6</ele>
        <time>2026-07-12T06:53:15Z</time>
      </trkpt>
      <trkpt lat="44.48642" lon="1.27838">
        <ele>118.4</ele>
        <time>2026-07-12T06:53:16Z</time>
      </trkpt>
      <trkpt lat="44.48637" lon="1.27843">
        <ele>118</ele>
        <time>2026-07-12T06:53:17Z</time>
      </trkpt>
      <trkpt lat="44.4863" lon="1.27848">
        <ele>117.8</ele>
        <time>2026-07-12T06:53:18Z</time>
      </trkpt>
      <trkpt lat="44.48625" lon="1.27852">
        <ele>117.4</ele>
        <time>2026-07-12T06:53:19Z</time>
      </trkpt>
      <trkpt lat="44.48618" lon="1.27855">
        <ele>116.6</ele>
        <time>2026-07-12T06:53:20Z</time>
      </trkpt>
      <trkpt lat="44.4861" lon="1.27858">
        <ele>115.3</ele>
        <time>2026-07-12T06:53:21Z</time>
      </trkpt>
      <trkpt lat="44.48604" lon="1.27859">
        <ele>114.7</ele>
        <time>2026-07-12T06:53:22Z</time>
      </trkpt>
      <trkpt lat="44.48595" lon="1.27859">
        <ele>113.8</ele>
        <time>2026-07-12T06:53:23Z</time>
      </trkpt>
      <trkpt lat="44.48567" lon="1.27857">
        <ele>111.5</ele>
        <time>2026-07-12T06:53:26Z</time>
      </trkpt>
      <trkpt lat="44.48536" lon="1.2785">
        <ele>107.9</ele>
        <time>2026-07-12T06:53:29Z</time>
      </trkpt>
      <trkpt lat="44.48525" lon="1.27847">
        <ele>106.1</ele>
        <time>2026-07-12T06:53:30Z</time>
      </trkpt>
      <trkpt lat="44.48506" lon="1.27845">
        <ele>103.8</ele>
        <time>2026-07-12T06:53:32Z</time>
      </trkpt>
      <trkpt lat="44.485" lon="1.27844">
        <ele>103.1</ele>
        <time>2026-07-12T06:53:33Z</time>
      </trkpt>
      <trkpt lat="44.48496" lon="1.27843">
        <ele>102.8</ele>
        <time>2026-07-12T06:53:34Z</time>
      </trkpt>
      <trkpt lat="44.48493" lon="1.27844">
        <ele>102.8</ele>
        <time>2026-07-12T06:53:35Z</time>
      </trkpt>
      <trkpt lat="44.4849" lon="1.27847">
        <ele>102.9</ele>
        <time>2026-07-12T06:53:36Z</time>
      </trkpt>
      <trkpt lat="44.48487" lon="1.27849">
        <ele>102.9</ele>
        <time>2026-07-12T06:53:37Z</time>
      </trkpt>
      <trkpt lat="44.48484" lon="1.27851">
        <ele>102.8</ele>
        <time>2026-07-12T06:53:38Z</time>
      </trkpt>
      <trkpt lat="44.48481" lon="1.27855">
        <ele>102.7</ele>
        <time>2026-07-12T06:53:39Z</time>
      </trkpt>
      <trkpt lat="44.48478" lon="1.27859">
        <ele>102.6</ele>
        <time>2026-07-12T06:53:40Z</time>
      </trkpt>
      <trkpt lat="44.48476" lon="1.27865">
        <ele>102.6</ele>
        <time>2026-07-12T06:53:41Z</time>
      </trkpt>
      <trkpt lat="44.48473" lon="1.2787">
        <ele>102.5</ele>
        <time>2026-07-12T06:53:42Z</time>
      </trkpt>
      <trkpt lat="44.48468" lon="1.27882">
        <ele>101.6</ele>
        <time>2026-07-12T06:53:44Z</time>
      </trkpt>
      <trkpt lat="44.48466" lon="1.27887">
        <ele>101.3</ele>
        <time>2026-07-12T06:53:45Z</time>
      </trkpt>
      <trkpt lat="44.48464" lon="1.27893">
        <ele>101.5</ele>
        <time>2026-07-12T06:53:46Z</time>
      </trkpt>
      <trkpt lat="44.48463" lon="1.279">
        <ele>102.2</ele>
        <time>2026-07-12T06:53:47Z</time>
      </trkpt>
      <trkpt lat="44.48462" lon="1.27907">
        <ele>103</ele>
        <time>2026-07-12T06:53:48Z</time>
      </trkpt>
      <trkpt lat="44.48457" lon="1.27928">
        <ele>105.1</ele>
        <time>2026-07-12T06:53:52Z</time>
      </trkpt>
      <trkpt lat="44.48455" lon="1.27933">
        <ele>105.2</ele>
        <time>2026-07-12T06:53:53Z</time>
      </trkpt>
      <trkpt lat="44.48453" lon="1.27938">
        <ele>105</ele>
        <time>2026-07-12T06:53:54Z</time>
      </trkpt>
      <trkpt lat="44.4845" lon="1.27944">
        <ele>104.6</ele>
        <time>2026-07-12T06:53:55Z</time>
      </trkpt>
      <trkpt lat="44.48446" lon="1.27955">
        <ele>104.5</ele>
        <time>2026-07-12T06:53:57Z</time>
      </trkpt>
      <trkpt lat="44.48435" lon="1.27982">
        <ele>106.1</ele>
        <time>2026-07-12T06:54:02Z</time>
      </trkpt>
      <trkpt lat="44.48432" lon="1.27989">
        <ele>106.7</ele>
        <time>2026-07-12T06:54:03Z</time>
      </trkpt>
      <trkpt lat="44.48413" lon="1.28031">
        <ele>106.3</ele>
        <time>2026-07-12T06:54:11Z</time>
      </trkpt>
      <trkpt lat="44.48395" lon="1.28068">
        <ele>108.2</ele>
        <time>2026-07-12T06:54:18Z</time>
      </trkpt>
      <trkpt lat="44.48391" lon="1.28074">
        <ele>106.9</ele>
        <time>2026-07-12T06:54:19Z</time>
      </trkpt>
      <trkpt lat="44.48382" lon="1.28089">
        <ele>107.3</ele>
        <time>2026-07-12T06:54:22Z</time>
      </trkpt>
      <trkpt lat="44.48373" lon="1.28104">
        <ele>107.8</ele>
        <time>2026-07-12T06:54:25Z</time>
      </trkpt>
      <trkpt lat="44.4837" lon="1.28109">
        <ele>107.4</ele>
        <time>2026-07-12T06:54:26Z</time>
      </trkpt>
      <trkpt lat="44.48368" lon="1.28115">
        <ele>107.2</ele>
        <time>2026-07-12T06:54:27Z</time>
      </trkpt>
      <trkpt lat="44.48365" lon="1.28119">
        <ele>106.2</ele>
        <time>2026-07-12T06:54:28Z</time>
      </trkpt>
      <trkpt lat="44.48354" lon="1.28136">
        <ele>104.4</ele>
        <time>2026-07-12T06:54:32Z</time>
      </trkpt>
      <trkpt lat="44.48351" lon="1.28142">
        <ele>105.1</ele>
        <time>2026-07-12T06:54:33Z</time>
      </trkpt>
      <trkpt lat="44.48348" lon="1.28145">
        <ele>105.9</ele>
        <time>2026-07-12T06:54:34Z</time>
      </trkpt>
      <trkpt lat="44.48342" lon="1.28155">
        <ele>107</ele>
        <time>2026-07-12T06:54:36Z</time>
      </trkpt>
      <trkpt lat="44.48333" lon="1.28168">
        <ele>106.3</ele>
        <time>2026-07-12T06:54:39Z</time>
      </trkpt>
      <trkpt lat="44.48321" lon="1.28186">
        <ele>106.6</ele>
        <time>2026-07-12T06:54:43Z</time>
      </trkpt>
      <trkpt lat="44.48311" lon="1.28199">
        <ele>107.1</ele>
        <time>2026-07-12T06:54:46Z</time>
      </trkpt>
      <trkpt lat="44.48301" lon="1.28212">
        <ele>107.2</ele>
        <time>2026-07-12T06:54:49Z</time>
      </trkpt>
      <trkpt lat="44.48295" lon="1.28222">
        <ele>107.3</ele>
        <time>2026-07-12T06:54:51Z</time>
      </trkpt>
      <trkpt lat="44.4827" lon="1.28254">
        <ele>108</ele>
        <time>2026-07-12T06:54:58Z</time>
      </trkpt>
      <trkpt lat="44.48257" lon="1.28271">
        <ele>107.5</ele>
        <time>2026-07-12T06:55:02Z</time>
      </trkpt>
      <trkpt lat="44.48251" lon="1.28281">
        <ele>107.9</ele>
        <time>2026-07-12T06:55:04Z</time>
      </trkpt>
      <trkpt lat="44.48249" lon="1.28286">
        <ele>108.8</ele>
        <time>2026-07-12T06:55:05Z</time>
      </trkpt>
      <trkpt lat="44.48246" lon="1.2829">
        <ele>109.7</ele>
        <time>2026-07-12T06:55:06Z</time>
      </trkpt>
      <trkpt lat="44.48243" lon="1.28295">
        <ele>110.4</ele>
        <time>2026-07-12T06:55:07Z</time>
      </trkpt>
      <trkpt lat="44.48239" lon="1.28299">
        <ele>110.5</ele>
        <time>2026-07-12T06:55:08Z</time>
      </trkpt>
      <trkpt lat="44.48235" lon="1.28303">
        <ele>110.5</ele>
        <time>2026-07-12T06:55:09Z</time>
      </trkpt>
      <trkpt lat="44.48232" lon="1.28307">
        <ele>110.6</ele>
        <time>2026-07-12T06:55:10Z</time>
      </trkpt>
      <trkpt lat="44.48226" lon="1.28316">
        <ele>111.7</ele>
        <time>2026-07-12T06:55:12Z</time>
      </trkpt>
      <trkpt lat="44.48212" lon="1.28333">
        <ele>112.9</ele>
        <time>2026-07-12T06:55:16Z</time>
      </trkpt>
      <trkpt lat="44.48199" lon="1.28357">
        <ele>112.5</ele>
        <time>2026-07-12T06:55:21Z</time>
      </trkpt>
      <trkpt lat="44.48194" lon="1.28367">
        <ele>112.9</ele>
        <time>2026-07-12T06:55:23Z</time>
      </trkpt>
      <trkpt lat="44.48191" lon="1.28372">
        <ele>114.5</ele>
        <time>2026-07-12T06:55:24Z</time>
      </trkpt>
      <trkpt lat="44.48188" lon="1.28379">
        <ele>115.8</ele>
        <time>2026-07-12T06:55:25Z</time>
      </trkpt>
      <trkpt lat="44.48184" lon="1.28389">
        <ele>117.5</ele>
        <time>2026-07-12T06:55:27Z</time>
      </trkpt>
      <trkpt lat="44.48183" lon="1.28394">
        <ele>120.5</ele>
        <time>2026-07-12T06:55:28Z</time>
      </trkpt>
      <trkpt lat="44.48183" lon="1.28398">
        <ele>123.1</ele>
        <time>2026-07-12T06:55:29Z</time>
      </trkpt>
      <trkpt lat="44.48182" lon="1.28402">
        <ele>125.5</ele>
        <time>2026-07-12T06:55:30Z</time>
      </trkpt>
      <trkpt lat="44.48182" lon="1.28406">
        <ele>127.8</ele>
        <time>2026-07-12T06:55:31Z</time>
      </trkpt>
      <trkpt lat="44.48181" lon="1.2841">
        <ele>130.1</ele>
        <time>2026-07-12T06:55:32Z</time>
      </trkpt>
      <trkpt lat="44.4818" lon="1.28417">
        <ele>133.8</ele>
        <time>2026-07-12T06:55:33Z</time>
      </trkpt>
      <trkpt lat="44.48179" lon="1.28424">
        <ele>137.4</ele>
        <time>2026-07-12T06:55:34Z</time>
      </trkpt>
      <trkpt lat="44.48178" lon="1.28431">
        <ele>141.3</ele>
        <time>2026-07-12T06:55:35Z</time>
      </trkpt>
      <trkpt lat="44.48176" lon="1.28437">
        <ele>145.4</ele>
        <time>2026-07-12T06:55:36Z</time>
      </trkpt>
      <trkpt lat="44.48175" lon="1.28444">
        <ele>149.8</ele>
        <time>2026-07-12T06:55:37Z</time>
      </trkpt>
      <trkpt lat="44.48174" lon="1.28451">
        <ele>152</ele>
        <time>2026-07-12T06:55:38Z</time>
      </trkpt>
      <trkpt lat="44.48173" lon="1.28458">
        <ele>154.1</ele>
        <time>2026-07-12T06:55:39Z</time>
      </trkpt>
      <trkpt lat="44.48172" lon="1.28465">
        <ele>156.2</ele>
        <time>2026-07-12T06:55:40Z</time>
      </trkpt>
      <trkpt lat="44.48171" lon="1.28472">
        <ele>158.2</ele>
        <time>2026-07-12T06:55:41Z</time>
      </trkpt>
      <trkpt lat="44.4817" lon="1.28478">
        <ele>159.7</ele>
        <time>2026-07-12T06:55:42Z</time>
      </trkpt>
      <trkpt lat="44.48169" lon="1.28485">
        <ele>161.2</ele>
        <time>2026-07-12T06:55:43Z</time>
      </trkpt>
      <trkpt lat="44.48168" lon="1.28492">
        <ele>162.8</ele>
        <time>2026-07-12T06:55:44Z</time>
      </trkpt>
      <trkpt lat="44.48166" lon="1.28499">
        <ele>164.5</ele>
        <time>2026-07-12T06:55:45Z</time>
      </trkpt>
      <trkpt lat="44.48165" lon="1.28506">
        <ele>164.7</ele>
        <time>2026-07-12T06:55:46Z</time>
      </trkpt>
      <trkpt lat="44.48164" lon="1.28512">
        <ele>164.7</ele>
        <time>2026-07-12T06:55:47Z</time>
      </trkpt>
      <trkpt lat="44.48163" lon="1.28519">
        <ele>164.9</ele>
        <time>2026-07-12T06:55:48Z</time>
      </trkpt>
      <trkpt lat="44.48162" lon="1.28526">
        <ele>165.2</ele>
        <time>2026-07-12T06:55:49Z</time>
      </trkpt>
      <trkpt lat="44.48161" lon="1.28533">
        <ele>162.7</ele>
        <time>2026-07-12T06:55:50Z</time>
      </trkpt>
      <trkpt lat="44.4816" lon="1.2854">
        <ele>159.4</ele>
        <time>2026-07-12T06:55:51Z</time>
      </trkpt>
      <trkpt lat="44.48159" lon="1.28546">
        <ele>156.3</ele>
        <time>2026-07-12T06:55:52Z</time>
      </trkpt>
      <trkpt lat="44.48158" lon="1.28553">
        <ele>153.4</ele>
        <time>2026-07-12T06:55:53Z</time>
      </trkpt>
      <trkpt lat="44.48156" lon="1.2856">
        <ele>149.5</ele>
        <time>2026-07-12T06:55:54Z</time>
      </trkpt>
      <trkpt lat="44.48155" lon="1.28567">
        <ele>145.2</ele>
        <time>2026-07-12T06:55:55Z</time>
      </trkpt>
      <trkpt lat="44.48154" lon="1.28574">
        <ele>140.8</ele>
        <time>2026-07-12T06:55:56Z</time>
      </trkpt>
      <trkpt lat="44.48153" lon="1.2858">
        <ele>136.4</ele>
        <time>2026-07-12T06:55:57Z</time>
      </trkpt>
      <trkpt lat="44.48152" lon="1.28587">
        <ele>131.3</ele>
        <time>2026-07-12T06:55:58Z</time>
      </trkpt>
      <trkpt lat="44.48151" lon="1.28594">
        <ele>125.4</ele>
        <time>2026-07-12T06:55:59Z</time>
      </trkpt>
      <trkpt lat="44.4815" lon="1.28601">
        <ele>119.4</ele>
        <time>2026-07-12T06:56:00Z</time>
      </trkpt>
      <trkpt lat="44.48149" lon="1.28608">
        <ele>113.1</ele>
        <time>2026-07-12T06:56:01Z</time>
      </trkpt>
      <trkpt lat="44.48148" lon="1.28615">
        <ele>108.7</ele>
        <time>2026-07-12T06:56:02Z</time>
      </trkpt>
      <trkpt lat="44.48146" lon="1.28621">
        <ele>106.1</ele>
        <time>2026-07-12T06:56:03Z</time>
      </trkpt>
      <trkpt lat="44.48145" lon="1.28628">
        <ele>103.6</ele>
        <time>2026-07-12T06:56:04Z</time>
      </trkpt>
      <trkpt lat="44.48144" lon="1.28635">
        <ele>101.1</ele>
        <time>2026-07-12T06:56:05Z</time>
      </trkpt>
      <trkpt lat="44.48143" lon="1.28642">
        <ele>99.3</ele>
        <time>2026-07-12T06:56:06Z</time>
      </trkpt>
      <trkpt lat="44.48143" lon="1.28655">
        <ele>97.7</ele>
        <time>2026-07-12T06:56:08Z</time>
      </trkpt>
      <trkpt lat="44.48145" lon="1.28662">
        <ele>96.8</ele>
        <time>2026-07-12T06:56:09Z</time>
      </trkpt>
      <trkpt lat="44.48146" lon="1.28669">
        <ele>96.3</ele>
        <time>2026-07-12T06:56:10Z</time>
      </trkpt>
      <trkpt lat="44.48147" lon="1.28677">
        <ele>96.5</ele>
        <time>2026-07-12T06:56:11Z</time>
      </trkpt>
      <trkpt lat="44.48148" lon="1.28684">
        <ele>96.8</ele>
        <time>2026-07-12T06:56:12Z</time>
      </trkpt>
      <trkpt lat="44.4815" lon="1.28693">
        <ele>97</ele>
        <time>2026-07-12T06:56:13Z</time>
      </trkpt>
      <trkpt lat="44.4815" lon="1.287">
        <ele>97</ele>
        <time>2026-07-12T06:56:14Z</time>
      </trkpt>
      <trkpt lat="44.4815" lon="1.28707">
        <ele>97</ele>
        <time>2026-07-12T06:56:15Z</time>
      </trkpt>
      <trkpt lat="44.48151" lon="1.28713">
        <ele>97</ele>
        <time>2026-07-12T06:56:16Z</time>
      </trkpt>
      <trkpt lat="44.48151" lon="1.2872">
        <ele>97</ele>
        <time>2026-07-12T06:56:17Z</time>
      </trkpt>
      <trkpt lat="44.48152" lon="1.28726">
        <ele>97</ele>
        <time>2026-07-12T06:56:18Z</time>
      </trkpt>
      <trkpt lat="44.48153" lon="1.28733">
        <ele>97</ele>
        <time>2026-07-12T06:56:19Z</time>
      </trkpt>
      <trkpt lat="44.48153" lon="1.2874">
        <ele>97</ele>
        <time>2026-07-12T06:56:20Z</time>
      </trkpt>
      <trkpt lat="44.48153" lon="1.28746">
        <ele>97</ele>
        <time>2026-07-12T06:56:21Z</time>
      </trkpt>
      <trkpt lat="44.48153" lon="1.28752">
        <ele>97.5</ele>
        <time>2026-07-12T06:56:22Z</time>
      </trkpt>
      <trkpt lat="44.48154" lon="1.28759">
        <ele>98.9</ele>
        <time>2026-07-12T06:56:23Z</time>
      </trkpt>
      <trkpt lat="44.48154" lon="1.28765">
        <ele>100.3</ele>
        <time>2026-07-12T06:56:24Z</time>
      </trkpt>
      <trkpt lat="44.48154" lon="1.28771">
        <ele>101.7</ele>
        <time>2026-07-12T06:56:25Z</time>
      </trkpt>
      <trkpt lat="44.48155" lon="1.28777">
        <ele>103.1</ele>
        <time>2026-07-12T06:56:26Z</time>
      </trkpt>
      <trkpt lat="44.48155" lon="1.2879">
        <ele>104.5</ele>
        <time>2026-07-12T06:56:28Z</time>
      </trkpt>
      <trkpt lat="44.48156" lon="1.28803">
        <ele>105.8</ele>
        <time>2026-07-12T06:56:30Z</time>
      </trkpt>
      <trkpt lat="44.48156" lon="1.28809">
        <ele>106.1</ele>
        <time>2026-07-12T06:56:31Z</time>
      </trkpt>
      <trkpt lat="44.48156" lon="1.28821">
        <ele>106.7</ele>
        <time>2026-07-12T06:56:33Z</time>
      </trkpt>
      <trkpt lat="44.48156" lon="1.28827">
        <ele>107</ele>
        <time>2026-07-12T06:56:34Z</time>
      </trkpt>
      <trkpt lat="44.48156" lon="1.28833">
        <ele>107.4</ele>
        <time>2026-07-12T06:56:35Z</time>
      </trkpt>
      <trkpt lat="44.48157" lon="1.28839">
        <ele>107.6</ele>
        <time>2026-07-12T06:56:36Z</time>
      </trkpt>
      <trkpt lat="44.48157" lon="1.28845">
        <ele>107.9</ele>
        <time>2026-07-12T06:56:37Z</time>
      </trkpt>
      <trkpt lat="44.48158" lon="1.28851">
        <ele>108.2</ele>
        <time>2026-07-12T06:56:38Z</time>
      </trkpt>
      <trkpt lat="44.48158" lon="1.28857">
        <ele>108.5</ele>
        <time>2026-07-12T06:56:39Z</time>
      </trkpt>
      <trkpt lat="44.48159" lon="1.28863">
        <ele>108.9</ele>
        <time>2026-07-12T06:56:40Z</time>
      </trkpt>
      <trkpt lat="44.4816" lon="1.28882">
        <ele>110.8</ele>
        <time>2026-07-12T06:56:43Z</time>
      </trkpt>
      <trkpt lat="44.4816" lon="1.28888">
        <ele>111.3</ele>
        <time>2026-07-12T06:56:44Z</time>
      </trkpt>
      <trkpt lat="44.48164" lon="1.28926">
        <ele>112.8</ele>
        <time>2026-07-12T06:56:50Z</time>
      </trkpt>
      <trkpt lat="44.48168" lon="1.28945">
        <ele>112.7</ele>
        <time>2026-07-12T06:56:53Z</time>
      </trkpt>
      <trkpt lat="44.48174" lon="1.28976">
        <ele>108.5</ele>
        <time>2026-07-12T06:56:58Z</time>
      </trkpt>
      <trkpt lat="44.48177" lon="1.28994">
        <ele>107.3</ele>
        <time>2026-07-12T06:57:01Z</time>
      </trkpt>
      <trkpt lat="44.48182" lon="1.29007">
        <ele>107.9</ele>
        <time>2026-07-12T06:57:03Z</time>
      </trkpt>
      <trkpt lat="44.48184" lon="1.29013">
        <ele>108.6</ele>
        <time>2026-07-12T06:57:04Z</time>
      </trkpt>
      <trkpt lat="44.48187" lon="1.29026">
        <ele>110.3</ele>
        <time>2026-07-12T06:57:06Z</time>
      </trkpt>
      <trkpt lat="44.48192" lon="1.29044">
        <ele>112.6</ele>
        <time>2026-07-12T06:57:09Z</time>
      </trkpt>
      <trkpt lat="44.48193" lon="1.2905">
        <ele>113.4</ele>
        <time>2026-07-12T06:57:10Z</time>
      </trkpt>
      <trkpt lat="44.48203" lon="1.2908">
        <ele>109.3</ele>
        <time>2026-07-12T06:57:15Z</time>
      </trkpt>
      <trkpt lat="44.48205" lon="1.29085">
        <ele>108.9</ele>
        <time>2026-07-12T06:57:16Z</time>
      </trkpt>
      <trkpt lat="44.48209" lon="1.29097">
        <ele>109.1</ele>
        <time>2026-07-12T06:57:18Z</time>
      </trkpt>
      <trkpt lat="44.48213" lon="1.2911">
        <ele>110.2</ele>
        <time>2026-07-12T06:57:20Z</time>
      </trkpt>
      <trkpt lat="44.48218" lon="1.29127">
        <ele>112.9</ele>
        <time>2026-07-12T06:57:23Z</time>
      </trkpt>
      <trkpt lat="44.4822" lon="1.29134">
        <ele>113.8</ele>
        <time>2026-07-12T06:57:24Z</time>
      </trkpt>
      <trkpt lat="44.48222" lon="1.2914">
        <ele>114.6</ele>
        <time>2026-07-12T06:57:25Z</time>
      </trkpt>
      <trkpt lat="44.48231" lon="1.29163">
        <ele>110</ele>
        <time>2026-07-12T06:57:29Z</time>
      </trkpt>
      <trkpt lat="44.48233" lon="1.29169">
        <ele>109.6</ele>
        <time>2026-07-12T06:57:30Z</time>
      </trkpt>
      <trkpt lat="44.48235" lon="1.29175">
        <ele>109.5</ele>
        <time>2026-07-12T06:57:31Z</time>
      </trkpt>
      <trkpt lat="44.48237" lon="1.29182">
        <ele>109.6</ele>
        <time>2026-07-12T06:57:32Z</time>
      </trkpt>
      <trkpt lat="44.48246" lon="1.29201">
        <ele>112.1</ele>
        <time>2026-07-12T06:57:35Z</time>
      </trkpt>
      <trkpt lat="44.48248" lon="1.29205">
        <ele>113.1</ele>
        <time>2026-07-12T06:57:36Z</time>
      </trkpt>
      <trkpt lat="44.4825" lon="1.2921">
        <ele>114.2</ele>
        <time>2026-07-12T06:57:37Z</time>
      </trkpt>
      <trkpt lat="44.48252" lon="1.29214">
        <ele>114.5</ele>
        <time>2026-07-12T06:57:38Z</time>
      </trkpt>
      <trkpt lat="44.48252" lon="1.29217">
        <ele>115</ele>
        <time>2026-07-12T06:57:39Z</time>
      </trkpt>
      <trkpt lat="44.48253" lon="1.29221">
        <ele>115.4</ele>
        <time>2026-07-12T06:57:40Z</time>
      </trkpt>
      <trkpt lat="44.48262" lon="1.29253">
        <ele>114.6</ele>
        <time>2026-07-12T06:57:47Z</time>
      </trkpt>
      <trkpt lat="44.48263" lon="1.29256">
        <ele>114.8</ele>
        <time>2026-07-12T06:57:48Z</time>
      </trkpt>
      <trkpt lat="44.48264" lon="1.2926">
        <ele>115</ele>
        <time>2026-07-12T06:57:49Z</time>
      </trkpt>
      <trkpt lat="44.48264" lon="1.29264">
        <ele>115.3</ele>
        <time>2026-07-12T06:57:50Z</time>
      </trkpt>
      <trkpt lat="44.48266" lon="1.29272">
        <ele>115.8</ele>
        <time>2026-07-12T06:57:52Z</time>
      </trkpt>
      <trkpt lat="44.48268" lon="1.29276">
        <ele>116.2</ele>
        <time>2026-07-12T06:57:53Z</time>
      </trkpt>
      <trkpt lat="44.48269" lon="1.2928">
        <ele>116.5</ele>
        <time>2026-07-12T06:57:54Z</time>
      </trkpt>
      <trkpt lat="44.48271" lon="1.29282">
        <ele>116.7</ele>
        <time>2026-07-12T06:57:55Z</time>
      </trkpt>
      <trkpt lat="44.48274" lon="1.29284">
        <ele>116.9</ele>
        <time>2026-07-12T06:57:56Z</time>
      </trkpt>
      <trkpt lat="44.48276" lon="1.29284">
        <ele>117.1</ele>
        <time>2026-07-12T06:57:57Z</time>
      </trkpt>
      <trkpt lat="44.48279" lon="1.29283">
        <ele>117.3</ele>
        <time>2026-07-12T06:57:58Z</time>
      </trkpt>
      <trkpt lat="44.48279" lon="1.29279">
        <ele>117.2</ele>
        <time>2026-07-12T06:57:59Z</time>
      </trkpt>
      <trkpt lat="44.48278" lon="1.29269">
        <ele>116.4</ele>
        <time>2026-07-12T06:58:01Z</time>
      </trkpt>
      <trkpt lat="44.48272" lon="1.29235">
        <ele>113.8</ele>
        <time>2026-07-12T06:58:06Z</time>
      </trkpt>
      <trkpt lat="44.48273" lon="1.29218">
        <ele>112.3</ele>
        <time>2026-07-12T06:58:08Z</time>
      </trkpt>
      <trkpt lat="44.48273" lon="1.29204">
        <ele>110.6</ele>
        <time>2026-07-12T06:58:10Z</time>
      </trkpt>
      <trkpt lat="44.48272" lon="1.29199">
        <ele>110.1</ele>
        <time>2026-07-12T06:58:11Z</time>
      </trkpt>
      <trkpt lat="44.4827" lon="1.29195">
        <ele>109.9</ele>
        <time>2026-07-12T06:58:12Z</time>
      </trkpt>
      <trkpt lat="44.48266" lon="1.29193">
        <ele>110.1</ele>
        <time>2026-07-12T06:58:13Z</time>
      </trkpt>
      <trkpt lat="44.48262" lon="1.29192">
        <ele>110.4</ele>
        <time>2026-07-12T06:58:14Z</time>
      </trkpt>
      <trkpt lat="44.48258" lon="1.29193">
        <ele>111</ele>
        <time>2026-07-12T06:58:15Z</time>
      </trkpt>
      <trkpt lat="44.48253" lon="1.29194">
        <ele>111.6</ele>
        <time>2026-07-12T06:58:16Z</time>
      </trkpt>
      <trkpt lat="44.48249" lon="1.29196">
        <ele>112</ele>
        <time>2026-07-12T06:58:17Z</time>
      </trkpt>
      <trkpt lat="44.48244" lon="1.29199">
        <ele>111.4</ele>
        <time>2026-07-12T06:58:18Z</time>
      </trkpt>
      <trkpt lat="44.48239" lon="1.29201">
        <ele>110.7</ele>
        <time>2026-07-12T06:58:19Z</time>
      </trkpt>
      <trkpt lat="44.48234" lon="1.29203">
        <ele>109.9</ele>
        <time>2026-07-12T06:58:20Z</time>
      </trkpt>
      <trkpt lat="44.4823" lon="1.29206">
        <ele>109</ele>
        <time>2026-07-12T06:58:21Z</time>
      </trkpt>
      <trkpt lat="44.48225" lon="1.29207">
        <ele>108.2</ele>
        <time>2026-07-12T06:58:22Z</time>
      </trkpt>
      <trkpt lat="44.48213" lon="1.29209">
        <ele>107</ele>
        <time>2026-07-12T06:58:25Z</time>
      </trkpt>
      <trkpt lat="44.48209" lon="1.29208">
        <ele>106.8</ele>
        <time>2026-07-12T06:58:26Z</time>
      </trkpt>
      <trkpt lat="44.48205" lon="1.29208">
        <ele>106.5</ele>
        <time>2026-07-12T06:58:27Z</time>
      </trkpt>
      <trkpt lat="44.4819" lon="1.29207">
        <ele>105.9</ele>
        <time>2026-07-12T06:58:30Z</time>
      </trkpt>
      <trkpt lat="44.48164" lon="1.29207">
        <ele>105.4</ele>
        <time>2026-07-12T06:58:35Z</time>
      </trkpt>
      <trkpt lat="44.48153" lon="1.29207">
        <ele>105.4</ele>
        <time>2026-07-12T06:58:37Z</time>
      </trkpt>
      <trkpt lat="44.48121" lon="1.29205">
        <ele>105.1</ele>
        <time>2026-07-12T06:58:43Z</time>
      </trkpt>
      <trkpt lat="44.48116" lon="1.29205">
        <ele>105.1</ele>
        <time>2026-07-12T06:58:44Z</time>
      </trkpt>
      <trkpt lat="44.48101" lon="1.29205">
        <ele>105</ele>
        <time>2026-07-12T06:58:47Z</time>
      </trkpt>
      <trkpt lat="44.48096" lon="1.29205">
        <ele>105</ele>
        <time>2026-07-12T06:58:48Z</time>
      </trkpt>
      <trkpt lat="44.48091" lon="1.29204">
        <ele>105</ele>
        <time>2026-07-12T06:58:49Z</time>
      </trkpt>
      <trkpt lat="44.48086" lon="1.29202">
        <ele>105</ele>
        <time>2026-07-12T06:58:50Z</time>
      </trkpt>
      <trkpt lat="44.48082" lon="1.29199">
        <ele>104.9</ele>
        <time>2026-07-12T06:58:51Z</time>
      </trkpt>
      <trkpt lat="44.48078" lon="1.29193">
        <ele>104.6</ele>
        <time>2026-07-12T06:58:52Z</time>
      </trkpt>
      <trkpt lat="44.48076" lon="1.29186">
        <ele>104.3</ele>
        <time>2026-07-12T06:58:53Z</time>
      </trkpt>
      <trkpt lat="44.48075" lon="1.29171">
        <ele>103.8</ele>
        <time>2026-07-12T06:58:55Z</time>
      </trkpt>
      <trkpt lat="44.48074" lon="1.29164">
        <ele>103.7</ele>
        <time>2026-07-12T06:58:56Z</time>
      </trkpt>
      <trkpt lat="44.48074" lon="1.29156">
        <ele>103.7</ele>
        <time>2026-07-12T06:58:57Z</time>
      </trkpt>
      <trkpt lat="44.48074" lon="1.29149">
        <ele>103.7</ele>
        <time>2026-07-12T06:58:58Z</time>
      </trkpt>
      <trkpt lat="44.48071" lon="1.29086">
        <ele>102.5</ele>
        <time>2026-07-12T06:59:06Z</time>
      </trkpt>
      <trkpt lat="44.4807" lon="1.29064">
        <ele>102.5</ele>
        <time>2026-07-12T06:59:09Z</time>
      </trkpt>
      <trkpt lat="44.48069" lon="1.29057">
        <ele>102.5</ele>
        <time>2026-07-12T06:59:10Z</time>
      </trkpt>
      <trkpt lat="44.48068" lon="1.2905">
        <ele>102.6</ele>
        <time>2026-07-12T06:59:11Z</time>
      </trkpt>
      <trkpt lat="44.48068" lon="1.29043">
        <ele>102.7</ele>
        <time>2026-07-12T06:59:12Z</time>
      </trkpt>
      <trkpt lat="44.48067" lon="1.29037">
        <ele>102.8</ele>
        <time>2026-07-12T06:59:13Z</time>
      </trkpt>
      <trkpt lat="44.48066" lon="1.2903">
        <ele>103</ele>
        <time>2026-07-12T06:59:14Z</time>
      </trkpt>
      <trkpt lat="44.48065" lon="1.29023">
        <ele>103</ele>
        <time>2026-07-12T06:59:15Z</time>
      </trkpt>
      <trkpt lat="44.48064" lon="1.29016">
        <ele>103</ele>
        <time>2026-07-12T06:59:16Z</time>
      </trkpt>
      <trkpt lat="44.48062" lon="1.2901">
        <ele>103</ele>
        <time>2026-07-12T06:59:17Z</time>
      </trkpt>
      <trkpt lat="44.48061" lon="1.29003">
        <ele>103</ele>
        <time>2026-07-12T06:59:18Z</time>
      </trkpt>
      <trkpt lat="44.48059" lon="1.28997">
        <ele>103</ele>
        <time>2026-07-12T06:59:19Z</time>
      </trkpt>
      <trkpt lat="44.48051" lon="1.28963">
        <ele>102.8</ele>
        <time>2026-07-12T06:59:24Z</time>
      </trkpt>
      <trkpt lat="44.48049" lon="1.28957">
        <ele>102.8</ele>
        <time>2026-07-12T06:59:25Z</time>
      </trkpt>
      <trkpt lat="44.48046" lon="1.28929">
        <ele>102.3</ele>
        <time>2026-07-12T06:59:29Z</time>
      </trkpt>
      <trkpt lat="44.4804" lon="1.28886">
        <ele>101.8</ele>
        <time>2026-07-12T06:59:35Z</time>
      </trkpt>
      <trkpt lat="44.48038" lon="1.28879">
        <ele>101.4</ele>
        <time>2026-07-12T06:59:36Z</time>
      </trkpt>
      <trkpt lat="44.48036" lon="1.28873">
        <ele>101</ele>
        <time>2026-07-12T06:59:37Z</time>
      </trkpt>
      <trkpt lat="44.48032" lon="1.2887">
        <ele>100.7</ele>
        <time>2026-07-12T06:59:38Z</time>
      </trkpt>
      <trkpt lat="44.48027" lon="1.28868">
        <ele>100.4</ele>
        <time>2026-07-12T06:59:39Z</time>
      </trkpt>
      <trkpt lat="44.48017" lon="1.28873">
        <ele>99.8</ele>
        <time>2026-07-12T06:59:41Z</time>
      </trkpt>
      <trkpt lat="44.48013" lon="1.28878">
        <ele>99.9</ele>
        <time>2026-07-12T06:59:42Z</time>
      </trkpt>
      <trkpt lat="44.48009" lon="1.28883">
        <ele>100.1</ele>
        <time>2026-07-12T06:59:43Z</time>
      </trkpt>
      <trkpt lat="44.48007" lon="1.28888">
        <ele>100.3</ele>
        <time>2026-07-12T06:59:44Z</time>
      </trkpt>
      <trkpt lat="44.48004" lon="1.28893">
        <ele>100.5</ele>
        <time>2026-07-12T06:59:45Z</time>
      </trkpt>
      <trkpt lat="44.48001" lon="1.28898">
        <ele>100.7</ele>
        <time>2026-07-12T06:59:46Z</time>
      </trkpt>
      <trkpt lat="44.47999" lon="1.28904">
        <ele>100.9</ele>
        <time>2026-07-12T06:59:47Z</time>
      </trkpt>
      <trkpt lat="44.47996" lon="1.2891">
        <ele>101.1</ele>
        <time>2026-07-12T06:59:48Z</time>
      </trkpt>
      <trkpt lat="44.47994" lon="1.28915">
        <ele>101.2</ele>
        <time>2026-07-12T06:59:49Z</time>
      </trkpt>
      <trkpt lat="44.47991" lon="1.2892">
        <ele>101.1</ele>
        <time>2026-07-12T06:59:50Z</time>
      </trkpt>
      <trkpt lat="44.47985" lon="1.2893">
        <ele>101.2</ele>
        <time>2026-07-12T06:59:52Z</time>
      </trkpt>
      <trkpt lat="44.47982" lon="1.28935">
        <ele>101.3</ele>
        <time>2026-07-12T06:59:53Z</time>
      </trkpt>
      <trkpt lat="44.47973" lon="1.28949">
        <ele>102</ele>
        <time>2026-07-12T06:59:56Z</time>
      </trkpt>
      <trkpt lat="44.47964" lon="1.28964">
        <ele>101.5</ele>
        <time>2026-07-12T06:59:59Z</time>
      </trkpt>
      <trkpt lat="44.47956" lon="1.28973">
        <ele>101.4</ele>
        <time>2026-07-12T07:00:01Z</time>
      </trkpt>
      <trkpt lat="44.47944" lon="1.28983">
        <ele>101.7</ele>
        <time>2026-07-12T07:00:04Z</time>
      </trkpt>
      <trkpt lat="44.47935" lon="1.28988">
        <ele>101.9</ele>
        <time>2026-07-12T07:00:06Z</time>
      </trkpt>
      <trkpt lat="44.47919" lon="1.29001">
        <ele>103</ele>
        <time>2026-07-12T07:00:10Z</time>
      </trkpt>
      <trkpt lat="44.47915" lon="1.29004">
        <ele>102.8</ele>
        <time>2026-07-12T07:00:11Z</time>
      </trkpt>
      <trkpt lat="44.47912" lon="1.29008">
        <ele>102.6</ele>
        <time>2026-07-12T07:00:12Z</time>
      </trkpt>
      <trkpt lat="44.47909" lon="1.29012">
        <ele>102.6</ele>
        <time>2026-07-12T07:00:13Z</time>
      </trkpt>
      <trkpt lat="44.47906" lon="1.29015">
        <ele>102.8</ele>
        <time>2026-07-12T07:00:14Z</time>
      </trkpt>
      <trkpt lat="44.47902" lon="1.29023">
        <ele>103.5</ele>
        <time>2026-07-12T07:00:16Z</time>
      </trkpt>
      <trkpt lat="44.47899" lon="1.29024">
        <ele>103.8</ele>
        <time>2026-07-12T07:00:17Z</time>
      </trkpt>
      <trkpt lat="44.47897" lon="1.29023">
        <ele>103.8</ele>
        <time>2026-07-12T07:00:18Z</time>
      </trkpt>
      <trkpt lat="44.47895" lon="1.2902">
        <ele>103.2</ele>
        <time>2026-07-12T07:00:19Z</time>
      </trkpt>
      <trkpt lat="44.47893" lon="1.29009">
        <ele>101.2</ele>
        <time>2026-07-12T07:00:21Z</time>
      </trkpt>
      <trkpt lat="44.47892" lon="1.29003">
        <ele>99.9</ele>
        <time>2026-07-12T07:00:22Z</time>
      </trkpt>
      <trkpt lat="44.47891" lon="1.28996">
        <ele>98.9</ele>
        <time>2026-07-12T07:00:23Z</time>
      </trkpt>
      <trkpt lat="44.4789" lon="1.28989">
        <ele>98.3</ele>
        <time>2026-07-12T07:00:24Z</time>
      </trkpt>
      <trkpt lat="44.47887" lon="1.28976">
        <ele>97</ele>
        <time>2026-07-12T07:00:26Z</time>
      </trkpt>
      <trkpt lat="44.47885" lon="1.28969">
        <ele>96.4</ele>
        <time>2026-07-12T07:00:27Z</time>
      </trkpt>
      <trkpt lat="44.47881" lon="1.28947">
        <ele>94.8</ele>
        <time>2026-07-12T07:00:30Z</time>
      </trkpt>
      <trkpt lat="44.47879" lon="1.2894">
        <ele>94.5</ele>
        <time>2026-07-12T07:00:31Z</time>
      </trkpt>
      <trkpt lat="44.47878" lon="1.28932">
        <ele>94.3</ele>
        <time>2026-07-12T07:00:32Z</time>
      </trkpt>
      <trkpt lat="44.47877" lon="1.28925">
        <ele>94.2</ele>
        <time>2026-07-12T07:00:33Z</time>
      </trkpt>
      <trkpt lat="44.47875" lon="1.28917">
        <ele>94</ele>
        <time>2026-07-12T07:00:34Z</time>
      </trkpt>
      <trkpt lat="44.47873" lon="1.28909">
        <ele>94</ele>
        <time>2026-07-12T07:00:35Z</time>
      </trkpt>
      <trkpt lat="44.47872" lon="1.28902">
        <ele>94</ele>
        <time>2026-07-12T07:00:36Z</time>
      </trkpt>
      <trkpt lat="44.4787" lon="1.28894">
        <ele>94</ele>
        <time>2026-07-12T07:00:37Z</time>
      </trkpt>
      <trkpt lat="44.47868" lon="1.28887">
        <ele>94.1</ele>
        <time>2026-07-12T07:00:38Z</time>
      </trkpt>
      <trkpt lat="44.47867" lon="1.2888">
        <ele>94.6</ele>
        <time>2026-07-12T07:00:39Z</time>
      </trkpt>
      <trkpt lat="44.47865" lon="1.28872">
        <ele>95.1</ele>
        <time>2026-07-12T07:00:40Z</time>
      </trkpt>
      <trkpt lat="44.47864" lon="1.28864">
        <ele>95.7</ele>
        <time>2026-07-12T07:00:41Z</time>
      </trkpt>
      <trkpt lat="44.47862" lon="1.28857">
        <ele>96.1</ele>
        <time>2026-07-12T07:00:42Z</time>
      </trkpt>
      <trkpt lat="44.47859" lon="1.28849">
        <ele>96.5</ele>
        <time>2026-07-12T07:00:43Z</time>
      </trkpt>
      <trkpt lat="44.47857" lon="1.28841">
        <ele>96.8</ele>
        <time>2026-07-12T07:00:44Z</time>
      </trkpt>
      <trkpt lat="44.47856" lon="1.28833">
        <ele>97.2</ele>
        <time>2026-07-12T07:00:45Z</time>
      </trkpt>
      <trkpt lat="44.47854" lon="1.28826">
        <ele>97.5</ele>
        <time>2026-07-12T07:00:46Z</time>
      </trkpt>
      <trkpt lat="44.47849" lon="1.2879">
        <ele>101.9</ele>
        <time>2026-07-12T07:00:51Z</time>
      </trkpt>
      <trkpt lat="44.47849" lon="1.28783">
        <ele>103.1</ele>
        <time>2026-07-12T07:00:52Z</time>
      </trkpt>
      <trkpt lat="44.47848" lon="1.28775">
        <ele>104</ele>
        <time>2026-07-12T07:00:53Z</time>
      </trkpt>
      <trkpt lat="44.47848" lon="1.28768">
        <ele>104.1</ele>
        <time>2026-07-12T07:00:54Z</time>
      </trkpt>
      <trkpt lat="44.47839" lon="1.28723">
        <ele>105.4</ele>
        <time>2026-07-12T07:01:00Z</time>
      </trkpt>
      <trkpt lat="44.47822" lon="1.2865">
        <ele>103.4</ele>
        <time>2026-07-12T07:01:10Z</time>
      </trkpt>
      <trkpt lat="44.47821" lon="1.28642">
        <ele>103.1</ele>
        <time>2026-07-12T07:01:11Z</time>
      </trkpt>
      <trkpt lat="44.47812" lon="1.28601">
        <ele>102.3</ele>
        <time>2026-07-12T07:01:16Z</time>
      </trkpt>
      <trkpt lat="44.47807" lon="1.28586">
        <ele>102.1</ele>
        <time>2026-07-12T07:01:18Z</time>
      </trkpt>
      <trkpt lat="44.47798" lon="1.28565">
        <ele>95.9</ele>
        <time>2026-07-12T07:01:21Z</time>
      </trkpt>
      <trkpt lat="44.47796" lon="1.28558">
        <ele>93.6</ele>
        <time>2026-07-12T07:01:22Z</time>
      </trkpt>
      <trkpt lat="44.47794" lon="1.2855">
        <ele>92.9</ele>
        <time>2026-07-12T07:01:23Z</time>
      </trkpt>
      <trkpt lat="44.47792" lon="1.28543">
        <ele>92.8</ele>
        <time>2026-07-12T07:01:24Z</time>
      </trkpt>
      <trkpt lat="44.47791" lon="1.28535">
        <ele>92.7</ele>
        <time>2026-07-12T07:01:25Z</time>
      </trkpt>
      <trkpt lat="44.47788" lon="1.28528">
        <ele>92.6</ele>
        <time>2026-07-12T07:01:26Z</time>
      </trkpt>
      <trkpt lat="44.4777" lon="1.28458">
        <ele>93.5</ele>
        <time>2026-07-12T07:01:35Z</time>
      </trkpt>
      <trkpt lat="44.47754" lon="1.28397">
        <ele>101.1</ele>
        <time>2026-07-12T07:01:43Z</time>
      </trkpt>
      <trkpt lat="44.47739" lon="1.28334">
        <ele>101.2</ele>
        <time>2026-07-12T07:01:51Z</time>
      </trkpt>
      <trkpt lat="44.47738" lon="1.28326">
        <ele>101.1</ele>
        <time>2026-07-12T07:01:52Z</time>
      </trkpt>
      <trkpt lat="44.47733" lon="1.28302">
        <ele>100.9</ele>
        <time>2026-07-12T07:01:55Z</time>
      </trkpt>
      <trkpt lat="44.47731" lon="1.28294">
        <ele>100.9</ele>
        <time>2026-07-12T07:01:56Z</time>
      </trkpt>
      <trkpt lat="44.47721" lon="1.28246">
        <ele>100.8</ele>
        <time>2026-07-12T07:02:02Z</time>
      </trkpt>
      <trkpt lat="44.47719" lon="1.28231">
        <ele>100.4</ele>
        <time>2026-07-12T07:02:04Z</time>
      </trkpt>
      <trkpt lat="44.47719" lon="1.28224">
        <ele>100.2</ele>
        <time>2026-07-12T07:02:05Z</time>
      </trkpt>
      <trkpt lat="44.47719" lon="1.28218">
        <ele>100.3</ele>
        <time>2026-07-12T07:02:06Z</time>
      </trkpt>
      <trkpt lat="44.47717" lon="1.28212">
        <ele>100.5</ele>
        <time>2026-07-12T07:02:07Z</time>
      </trkpt>
      <trkpt lat="44.47713" lon="1.28207">
        <ele>100.7</ele>
        <time>2026-07-12T07:02:08Z</time>
      </trkpt>
      <trkpt lat="44.4771" lon="1.28201">
        <ele>100.9</ele>
        <time>2026-07-12T07:02:09Z</time>
      </trkpt>
      <trkpt lat="44.47707" lon="1.28195">
        <ele>101</ele>
        <time>2026-07-12T07:02:10Z</time>
      </trkpt>
      <trkpt lat="44.47699" lon="1.28187">
        <ele>101</ele>
        <time>2026-07-12T07:02:12Z</time>
      </trkpt>
      <trkpt lat="44.47694" lon="1.28185">
        <ele>101</ele>
        <time>2026-07-12T07:02:13Z</time>
      </trkpt>
      <trkpt lat="44.47688" lon="1.28184">
        <ele>101.1</ele>
        <time>2026-07-12T07:02:14Z</time>
      </trkpt>
      <trkpt lat="44.47682" lon="1.28184">
        <ele>101.2</ele>
        <time>2026-07-12T07:02:15Z</time>
      </trkpt>
      <trkpt lat="44.47676" lon="1.28184">
        <ele>101.2</ele>
        <time>2026-07-12T07:02:16Z</time>
      </trkpt>
      <trkpt lat="44.47665" lon="1.28186">
        <ele>101.3</ele>
        <time>2026-07-12T07:02:18Z</time>
      </trkpt>
      <trkpt lat="44.47608" lon="1.2819">
        <ele>101.2</ele>
        <time>2026-07-12T07:02:28Z</time>
      </trkpt>
      <trkpt lat="44.47567" lon="1.28193">
        <ele>101</ele>
        <time>2026-07-12T07:02:35Z</time>
      </trkpt>
      <trkpt lat="44.47551" lon="1.28192">
        <ele>101.2</ele>
        <time>2026-07-12T07:02:38Z</time>
      </trkpt>
      <trkpt lat="44.47546" lon="1.2819">
        <ele>101.4</ele>
        <time>2026-07-12T07:02:39Z</time>
      </trkpt>
      <trkpt lat="44.47541" lon="1.28187">
        <ele>101.6</ele>
        <time>2026-07-12T07:02:40Z</time>
      </trkpt>
      <trkpt lat="44.47537" lon="1.28183">
        <ele>101.8</ele>
        <time>2026-07-12T07:02:41Z</time>
      </trkpt>
      <trkpt lat="44.47532" lon="1.28178">
        <ele>101.9</ele>
        <time>2026-07-12T07:02:42Z</time>
      </trkpt>
      <trkpt lat="44.47528" lon="1.28172">
        <ele>102</ele>
        <time>2026-07-12T07:02:43Z</time>
      </trkpt>
      <trkpt lat="44.47525" lon="1.28167">
        <ele>102</ele>
        <time>2026-07-12T07:02:44Z</time>
      </trkpt>
      <trkpt lat="44.47522" lon="1.2816">
        <ele>102.2</ele>
        <time>2026-07-12T07:02:45Z</time>
      </trkpt>
      <trkpt lat="44.47519" lon="1.28153">
        <ele>102.3</ele>
        <time>2026-07-12T07:02:46Z</time>
      </trkpt>
      <trkpt lat="44.47517" lon="1.28146">
        <ele>102.5</ele>
        <time>2026-07-12T07:02:47Z</time>
      </trkpt>
      <trkpt lat="44.47516" lon="1.28139">
        <ele>102.6</ele>
        <time>2026-07-12T07:02:48Z</time>
      </trkpt>
      <trkpt lat="44.4751" lon="1.2811">
        <ele>103.4</ele>
        <time>2026-07-12T07:02:52Z</time>
      </trkpt>
      <trkpt lat="44.47509" lon="1.28103">
        <ele>103.8</ele>
        <time>2026-07-12T07:02:53Z</time>
      </trkpt>
      <trkpt lat="44.47507" lon="1.28096">
        <ele>104.1</ele>
        <time>2026-07-12T07:02:54Z</time>
      </trkpt>
      <trkpt lat="44.47501" lon="1.28059">
        <ele>105.1</ele>
        <time>2026-07-12T07:02:59Z</time>
      </trkpt>
      <trkpt lat="44.475" lon="1.28052">
        <ele>105.2</ele>
        <time>2026-07-12T07:03:00Z</time>
      </trkpt>
      <trkpt lat="44.47499" lon="1.28044">
        <ele>105.4</ele>
        <time>2026-07-12T07:03:01Z</time>
      </trkpt>
      <trkpt lat="44.47495" lon="1.28015">
        <ele>106.7</ele>
        <time>2026-07-12T07:03:05Z</time>
      </trkpt>
      <trkpt lat="44.47494" lon="1.28008">
        <ele>107.1</ele>
        <time>2026-07-12T07:03:06Z</time>
      </trkpt>
      <trkpt lat="44.47494" lon="1.28001">
        <ele>107.5</ele>
        <time>2026-07-12T07:03:07Z</time>
      </trkpt>
      <trkpt lat="44.47493" lon="1.27994">
        <ele>108</ele>
        <time>2026-07-12T07:03:08Z</time>
      </trkpt>
      <trkpt lat="44.47492" lon="1.27987">
        <ele>108.5</ele>
        <time>2026-07-12T07:03:09Z</time>
      </trkpt>
      <trkpt lat="44.47491" lon="1.2798">
        <ele>109</ele>
        <time>2026-07-12T07:03:10Z</time>
      </trkpt>
      <trkpt lat="44.47489" lon="1.27973">
        <ele>109.4</ele>
        <time>2026-07-12T07:03:11Z</time>
      </trkpt>
      <trkpt lat="44.47489" lon="1.27966">
        <ele>109.7</ele>
        <time>2026-07-12T07:03:12Z</time>
      </trkpt>
      <trkpt lat="44.47488" lon="1.27959">
        <ele>110</ele>
        <time>2026-07-12T07:03:13Z</time>
      </trkpt>
      <trkpt lat="44.47487" lon="1.27952">
        <ele>110.3</ele>
        <time>2026-07-12T07:03:14Z</time>
      </trkpt>
      <trkpt lat="44.47487" lon="1.27945">
        <ele>110.6</ele>
        <time>2026-07-12T07:03:15Z</time>
      </trkpt>
      <trkpt lat="44.47487" lon="1.27938">
        <ele>110.6</ele>
        <time>2026-07-12T07:03:16Z</time>
      </trkpt>
      <trkpt lat="44.47486" lon="1.27931">
        <ele>110.5</ele>
        <time>2026-07-12T07:03:17Z</time>
      </trkpt>
      <trkpt lat="44.47486" lon="1.27923">
        <ele>110.5</ele>
        <time>2026-07-12T07:03:18Z</time>
      </trkpt>
      <trkpt lat="44.47486" lon="1.27917">
        <ele>110.5</ele>
        <time>2026-07-12T07:03:19Z</time>
      </trkpt>
      <trkpt lat="44.47486" lon="1.2791">
        <ele>110.7</ele>
        <time>2026-07-12T07:03:20Z</time>
      </trkpt>
      <trkpt lat="44.47487" lon="1.27903">
        <ele>111.1</ele>
        <time>2026-07-12T07:03:21Z</time>
      </trkpt>
      <trkpt lat="44.47488" lon="1.27896">
        <ele>111.5</ele>
        <time>2026-07-12T07:03:22Z</time>
      </trkpt>
      <trkpt lat="44.47491" lon="1.27891">
        <ele>111.9</ele>
        <time>2026-07-12T07:03:23Z</time>
      </trkpt>
      <trkpt lat="44.47494" lon="1.27886">
        <ele>112.7</ele>
        <time>2026-07-12T07:03:24Z</time>
      </trkpt>
      <trkpt lat="44.47498" lon="1.27883">
        <ele>113.4</ele>
        <time>2026-07-12T07:03:25Z</time>
      </trkpt>
      <trkpt lat="44.47501" lon="1.2788">
        <ele>114</ele>
        <time>2026-07-12T07:03:26Z</time>
      </trkpt>
      <trkpt lat="44.47505" lon="1.27877">
        <ele>114.5</ele>
        <time>2026-07-12T07:03:27Z</time>
      </trkpt>
      <trkpt lat="44.47508" lon="1.27874">
        <ele>114.9</ele>
        <time>2026-07-12T07:03:28Z</time>
      </trkpt>
      <trkpt lat="44.47512" lon="1.27871">
        <ele>115.1</ele>
        <time>2026-07-12T07:03:29Z</time>
      </trkpt>
      <trkpt lat="44.47515" lon="1.27868">
        <ele>115.3</ele>
        <time>2026-07-12T07:03:30Z</time>
      </trkpt>
      <trkpt lat="44.47519" lon="1.27865">
        <ele>115.3</ele>
        <time>2026-07-12T07:03:31Z</time>
      </trkpt>
      <trkpt lat="44.47523" lon="1.27861">
        <ele>115.2</ele>
        <time>2026-07-12T07:03:32Z</time>
      </trkpt>
      <trkpt lat="44.47527" lon="1.27858">
        <ele>115.4</ele>
        <time>2026-07-12T07:03:33Z</time>
      </trkpt>
      <trkpt lat="44.4753" lon="1.27855">
        <ele>115.9</ele>
        <time>2026-07-12T07:03:34Z</time>
      </trkpt>
      <trkpt lat="44.47534" lon="1.27852">
        <ele>116.6</ele>
        <time>2026-07-12T07:03:35Z</time>
      </trkpt>
      <trkpt lat="44.47537" lon="1.27848">
        <ele>117.3</ele>
        <time>2026-07-12T07:03:36Z</time>
      </trkpt>
      <trkpt lat="44.4754" lon="1.27845">
        <ele>117.8</ele>
        <time>2026-07-12T07:03:37Z</time>
      </trkpt>
      <trkpt lat="44.47543" lon="1.2784">
        <ele>118.2</ele>
        <time>2026-07-12T07:03:38Z</time>
      </trkpt>
      <trkpt lat="44.47546" lon="1.27836">
        <ele>118.6</ele>
        <time>2026-07-12T07:03:39Z</time>
      </trkpt>
      <trkpt lat="44.47548" lon="1.27831">
        <ele>118.8</ele>
        <time>2026-07-12T07:03:40Z</time>
      </trkpt>
      <trkpt lat="44.4755" lon="1.27825">
        <ele>118.8</ele>
        <time>2026-07-12T07:03:41Z</time>
      </trkpt>
      <trkpt lat="44.47552" lon="1.27819">
        <ele>118.7</ele>
        <time>2026-07-12T07:03:42Z</time>
      </trkpt>
      <trkpt lat="44.47554" lon="1.27814">
        <ele>118.4</ele>
        <time>2026-07-12T07:03:43Z</time>
      </trkpt>
      <trkpt lat="44.47555" lon="1.27808">
        <ele>118.1</ele>
        <time>2026-07-12T07:03:44Z</time>
      </trkpt>
      <trkpt lat="44.47556" lon="1.27803">
        <ele>118.4</ele>
        <time>2026-07-12T07:03:45Z</time>
      </trkpt>
      <trkpt lat="44.47557" lon="1.27797">
        <ele>119.2</ele>
        <time>2026-07-12T07:03:46Z</time>
      </trkpt>
      <trkpt lat="44.47558" lon="1.27791">
        <ele>119.9</ele>
        <time>2026-07-12T07:03:47Z</time>
      </trkpt>
      <trkpt lat="44.47559" lon="1.27786">
        <ele>120.5</ele>
        <time>2026-07-12T07:03:48Z</time>
      </trkpt>
      <trkpt lat="44.4756" lon="1.2778">
        <ele>121.2</ele>
        <time>2026-07-12T07:03:49Z</time>
      </trkpt>
      <trkpt lat="44.4756" lon="1.27774">
        <ele>121.7</ele>
        <time>2026-07-12T07:03:50Z</time>
      </trkpt>
      <trkpt lat="44.47561" lon="1.27768">
        <ele>122.1</ele>
        <time>2026-07-12T07:03:51Z</time>
      </trkpt>
      <trkpt lat="44.47561" lon="1.27762">
        <ele>122.5</ele>
        <time>2026-07-12T07:03:52Z</time>
      </trkpt>
      <trkpt lat="44.47561" lon="1.27756">
        <ele>122.8</ele>
        <time>2026-07-12T07:03:53Z</time>
      </trkpt>
      <trkpt lat="44.47562" lon="1.27751">
        <ele>123.2</ele>
        <time>2026-07-12T07:03:54Z</time>
      </trkpt>
      <trkpt lat="44.47563" lon="1.27745">
        <ele>123.7</ele>
        <time>2026-07-12T07:03:55Z</time>
      </trkpt>
      <trkpt lat="44.47565" lon="1.2774">
        <ele>124.2</ele>
        <time>2026-07-12T07:03:56Z</time>
      </trkpt>
      <trkpt lat="44.47565" lon="1.27735">
        <ele>124.6</ele>
        <time>2026-07-12T07:03:57Z</time>
      </trkpt>
      <trkpt lat="44.47567" lon="1.27729">
        <ele>125</ele>
        <time>2026-07-12T07:03:58Z</time>
      </trkpt>
      <trkpt lat="44.47568" lon="1.27724">
        <ele>125.4</ele>
        <time>2026-07-12T07:03:59Z</time>
      </trkpt>
      <trkpt lat="44.47569" lon="1.27719">
        <ele>125.8</ele>
        <time>2026-07-12T07:04:00Z</time>
      </trkpt>
      <trkpt lat="44.47571" lon="1.27714">
        <ele>126.2</ele>
        <time>2026-07-12T07:04:01Z</time>
      </trkpt>
      <trkpt lat="44.47572" lon="1.27709">
        <ele>126.6</ele>
        <time>2026-07-12T07:04:02Z</time>
      </trkpt>
      <trkpt lat="44.47573" lon="1.27704">
        <ele>126.9</ele>
        <time>2026-07-12T07:04:03Z</time>
      </trkpt>
      <trkpt lat="44.47575" lon="1.27699">
        <ele>127.2</ele>
        <time>2026-07-12T07:04:04Z</time>
      </trkpt>
      <trkpt lat="44.47576" lon="1.27695">
        <ele>127.5</ele>
        <time>2026-07-12T07:04:05Z</time>
      </trkpt>
      <trkpt lat="44.47577" lon="1.2769">
        <ele>127.8</ele>
        <time>2026-07-12T07:04:06Z</time>
      </trkpt>
      <trkpt lat="44.47578" lon="1.27685">
        <ele>128</ele>
        <time>2026-07-12T07:04:07Z</time>
      </trkpt>
      <trkpt lat="44.47579" lon="1.27681">
        <ele>128.3</ele>
        <time>2026-07-12T07:04:08Z</time>
      </trkpt>
      <trkpt lat="44.4758" lon="1.27676">
        <ele>128.6</ele>
        <time>2026-07-12T07:04:09Z</time>
      </trkpt>
      <trkpt lat="44.47582" lon="1.27671">
        <ele>128.8</ele>
        <time>2026-07-12T07:04:10Z</time>
      </trkpt>
      <trkpt lat="44.47583" lon="1.27666">
        <ele>129.1</ele>
        <time>2026-07-12T07:04:11Z</time>
      </trkpt>
      <trkpt lat="44.47584" lon="1.27661">
        <ele>129.4</ele>
        <time>2026-07-12T07:04:12Z</time>
      </trkpt>
      <trkpt lat="44.47585" lon="1.27657">
        <ele>129.7</ele>
        <time>2026-07-12T07:04:13Z</time>
      </trkpt>
      <trkpt lat="44.47586" lon="1.27652">
        <ele>130.1</ele>
        <time>2026-07-12T07:04:14Z</time>
      </trkpt>
      <trkpt lat="44.47588" lon="1.27647">
        <ele>130.3</ele>
        <time>2026-07-12T07:04:15Z</time>
      </trkpt>
      <trkpt lat="44.47589" lon="1.27643">
        <ele>130.6</ele>
        <time>2026-07-12T07:04:16Z</time>
      </trkpt>
      <trkpt lat="44.4759" lon="1.27639">
        <ele>130.7</ele>
        <time>2026-07-12T07:04:17Z</time>
      </trkpt>
      <trkpt lat="44.47592" lon="1.27635">
        <ele>131</ele>
        <time>2026-07-12T07:04:18Z</time>
      </trkpt>
      <trkpt lat="44.47594" lon="1.2763">
        <ele>131.2</ele>
        <time>2026-07-12T07:04:19Z</time>
      </trkpt>
      <trkpt lat="44.47597" lon="1.27627">
        <ele>131.4</ele>
        <time>2026-07-12T07:04:20Z</time>
      </trkpt>
      <trkpt lat="44.47601" lon="1.27625">
        <ele>131.4</ele>
        <time>2026-07-12T07:04:21Z</time>
      </trkpt>
      <trkpt lat="44.47604" lon="1.27623">
        <ele>131.4</ele>
        <time>2026-07-12T07:04:22Z</time>
      </trkpt>
      <trkpt lat="44.47608" lon="1.27621">
        <ele>131.4</ele>
        <time>2026-07-12T07:04:23Z</time>
      </trkpt>
      <trkpt lat="44.47612" lon="1.27619">
        <ele>131.5</ele>
        <time>2026-07-12T07:04:24Z</time>
      </trkpt>
      <trkpt lat="44.47616" lon="1.27617">
        <ele>131.7</ele>
        <time>2026-07-12T07:04:25Z</time>
      </trkpt>
      <trkpt lat="44.4762" lon="1.27615">
        <ele>131.8</ele>
        <time>2026-07-12T07:04:26Z</time>
      </trkpt>
      <trkpt lat="44.47624" lon="1.27613">
        <ele>131.9</ele>
        <time>2026-07-12T07:04:27Z</time>
      </trkpt>
      <trkpt lat="44.47628" lon="1.27611">
        <ele>132</ele>
        <time>2026-07-12T07:04:28Z</time>
      </trkpt>
      <trkpt lat="44.47632" lon="1.27609">
        <ele>132.1</ele>
        <time>2026-07-12T07:04:29Z</time>
      </trkpt>
      <trkpt lat="44.47636" lon="1.27607">
        <ele>132.1</ele>
        <time>2026-07-12T07:04:30Z</time>
      </trkpt>
      <trkpt lat="44.47641" lon="1.27605">
        <ele>132.3</ele>
        <time>2026-07-12T07:04:31Z</time>
      </trkpt>
      <trkpt lat="44.47645" lon="1.27603">
        <ele>132.7</ele>
        <time>2026-07-12T07:04:32Z</time>
      </trkpt>
      <trkpt lat="44.47649" lon="1.27601">
        <ele>132.9</ele>
        <time>2026-07-12T07:04:33Z</time>
      </trkpt>
      <trkpt lat="44.47653" lon="1.27598">
        <ele>133.2</ele>
        <time>2026-07-12T07:04:34Z</time>
      </trkpt>
      <trkpt lat="44.47656" lon="1.27596">
        <ele>133.5</ele>
        <time>2026-07-12T07:04:35Z</time>
      </trkpt>
      <trkpt lat="44.4766" lon="1.27592">
        <ele>133.7</ele>
        <time>2026-07-12T07:04:36Z</time>
      </trkpt>
      <trkpt lat="44.47663" lon="1.27588">
        <ele>133.8</ele>
        <time>2026-07-12T07:04:37Z</time>
      </trkpt>
      <trkpt lat="44.47665" lon="1.27584">
        <ele>133.9</ele>
        <time>2026-07-12T07:04:38Z</time>
      </trkpt>
      <trkpt lat="44.47666" lon="1.27578">
        <ele>134</ele>
        <time>2026-07-12T07:04:39Z</time>
      </trkpt>
      <trkpt lat="44.47667" lon="1.27572">
        <ele>134</ele>
        <time>2026-07-12T07:04:40Z</time>
      </trkpt>
      <trkpt lat="44.47666" lon="1.27565">
        <ele>134</ele>
        <time>2026-07-12T07:04:41Z</time>
      </trkpt>
      <trkpt lat="44.47664" lon="1.2756">
        <ele>134</ele>
        <time>2026-07-12T07:04:42Z</time>
      </trkpt>
      <trkpt lat="44.47661" lon="1.27554">
        <ele>134</ele>
        <time>2026-07-12T07:04:43Z</time>
      </trkpt>
      <trkpt lat="44.47658" lon="1.27549">
        <ele>134</ele>
        <time>2026-07-12T07:04:44Z</time>
      </trkpt>
      <trkpt lat="44.47656" lon="1.27543">
        <ele>134</ele>
        <time>2026-07-12T07:04:45Z</time>
      </trkpt>
      <trkpt lat="44.47653" lon="1.27538">
        <ele>134</ele>
        <time>2026-07-12T07:04:46Z</time>
      </trkpt>
      <trkpt lat="44.4765" lon="1.27533">
        <ele>134</ele>
        <time>2026-07-12T07:04:47Z</time>
      </trkpt>
      <trkpt lat="44.47647" lon="1.27527">
        <ele>134</ele>
        <time>2026-07-12T07:04:48Z</time>
      </trkpt>
      <trkpt lat="44.47645" lon="1.27522">
        <ele>134.2</ele>
        <time>2026-07-12T07:04:49Z</time>
      </trkpt>
      <trkpt lat="44.47642" lon="1.27516">
        <ele>134.4</ele>
        <time>2026-07-12T07:04:50Z</time>
      </trkpt>
      <trkpt lat="44.47639" lon="1.27511">
        <ele>134.6</ele>
        <time>2026-07-12T07:04:51Z</time>
      </trkpt>
      <trkpt lat="44.47637" lon="1.27506">
        <ele>134.8</ele>
        <time>2026-07-12T07:04:52Z</time>
      </trkpt>
      <trkpt lat="44.47634" lon="1.27501">
        <ele>135</ele>
        <time>2026-07-12T07:04:53Z</time>
      </trkpt>
      <trkpt lat="44.47632" lon="1.27495">
        <ele>135.1</ele>
        <time>2026-07-12T07:04:54Z</time>
      </trkpt>
      <trkpt lat="44.4763" lon="1.2749">
        <ele>135.2</ele>
        <time>2026-07-12T07:04:55Z</time>
      </trkpt>
      <trkpt lat="44.47628" lon="1.27484">
        <ele>135.5</ele>
        <time>2026-07-12T07:04:56Z</time>
      </trkpt>
      <trkpt lat="44.47626" lon="1.27479">
        <ele>135.7</ele>
        <time>2026-07-12T07:04:57Z</time>
      </trkpt>
      <trkpt lat="44.47624" lon="1.27473">
        <ele>136.1</ele>
        <time>2026-07-12T07:04:58Z</time>
      </trkpt>
      <trkpt lat="44.47622" lon="1.27468">
        <ele>136.3</ele>
        <time>2026-07-12T07:04:59Z</time>
      </trkpt>
      <trkpt lat="44.47619" lon="1.27463">
        <ele>136.4</ele>
        <time>2026-07-12T07:05:00Z</time>
      </trkpt>
      <trkpt lat="44.47617" lon="1.27458">
        <ele>136.6</ele>
        <time>2026-07-12T07:05:01Z</time>
      </trkpt>
      <trkpt lat="44.47615" lon="1.27453">
        <ele>136.7</ele>
        <time>2026-07-12T07:05:02Z</time>
      </trkpt>
      <trkpt lat="44.47613" lon="1.27448">
        <ele>136.8</ele>
        <time>2026-07-12T07:05:03Z</time>
      </trkpt>
      <trkpt lat="44.47611" lon="1.27443">
        <ele>137</ele>
        <time>2026-07-12T07:05:04Z</time>
      </trkpt>
      <trkpt lat="44.47609" lon="1.27438">
        <ele>137.1</ele>
        <time>2026-07-12T07:05:05Z</time>
      </trkpt>
      <trkpt lat="44.47607" lon="1.27433">
        <ele>137.1</ele>
        <time>2026-07-12T07:05:06Z</time>
      </trkpt>
      <trkpt lat="44.47607" lon="1.27428">
        <ele>137.2</ele>
        <time>2026-07-12T07:05:07Z</time>
      </trkpt>
      <trkpt lat="44.47608" lon="1.27422">
        <ele>137.1</ele>
        <time>2026-07-12T07:05:08Z</time>
      </trkpt>
      <trkpt lat="44.4761" lon="1.27418">
        <ele>137</ele>
        <time>2026-07-12T07:05:09Z</time>
      </trkpt>
      <trkpt lat="44.47614" lon="1.27415">
        <ele>136.5</ele>
        <time>2026-07-12T07:05:10Z</time>
      </trkpt>
      <trkpt lat="44.47619" lon="1.27413">
        <ele>135.9</ele>
        <time>2026-07-12T07:05:11Z</time>
      </trkpt>
      <trkpt lat="44.47624" lon="1.27411">
        <ele>135.2</ele>
        <time>2026-07-12T07:05:12Z</time>
      </trkpt>
      <trkpt lat="44.47628" lon="1.27408">
        <ele>134.6</ele>
        <time>2026-07-12T07:05:13Z</time>
      </trkpt>
      <trkpt lat="44.47629" lon="1.27404">
        <ele>134.1</ele>
        <time>2026-07-12T07:05:14Z</time>
      </trkpt>
      <trkpt lat="44.47629" lon="1.27398">
        <ele>133.7</ele>
        <time>2026-07-12T07:05:15Z</time>
      </trkpt>
      <trkpt lat="44.47628" lon="1.27392">
        <ele>133.4</ele>
        <time>2026-07-12T07:05:16Z</time>
      </trkpt>
      <trkpt lat="44.47627" lon="1.27385">
        <ele>133.2</ele>
        <time>2026-07-12T07:05:17Z</time>
      </trkpt>
      <trkpt lat="44.47626" lon="1.27378">
        <ele>133</ele>
        <time>2026-07-12T07:05:18Z</time>
      </trkpt>
      <trkpt lat="44.47625" lon="1.27372">
        <ele>132.9</ele>
        <time>2026-07-12T07:05:19Z</time>
      </trkpt>
      <trkpt lat="44.47624" lon="1.27365">
        <ele>132.8</ele>
        <time>2026-07-12T07:05:20Z</time>
      </trkpt>
      <trkpt lat="44.47622" lon="1.27358">
        <ele>132.8</ele>
        <time>2026-07-12T07:05:21Z</time>
      </trkpt>
      <trkpt lat="44.47621" lon="1.27351">
        <ele>132.9</ele>
        <time>2026-07-12T07:05:22Z</time>
      </trkpt>
      <trkpt lat="44.47619" lon="1.27338">
        <ele>133.1</ele>
        <time>2026-07-12T07:05:24Z</time>
      </trkpt>
      <trkpt lat="44.47618" lon="1.27332">
        <ele>133.3</ele>
        <time>2026-07-12T07:05:25Z</time>
      </trkpt>
      <trkpt lat="44.47615" lon="1.27314">
        <ele>134.4</ele>
        <time>2026-07-12T07:05:28Z</time>
      </trkpt>
      <trkpt lat="44.47615" lon="1.27308">
        <ele>134.7</ele>
        <time>2026-07-12T07:05:29Z</time>
      </trkpt>
      <trkpt lat="44.47614" lon="1.27302">
        <ele>135</ele>
        <time>2026-07-12T07:05:30Z</time>
      </trkpt>
      <trkpt lat="44.47613" lon="1.27296">
        <ele>135.5</ele>
        <time>2026-07-12T07:05:31Z</time>
      </trkpt>
      <trkpt lat="44.47612" lon="1.27291">
        <ele>136</ele>
        <time>2026-07-12T07:05:32Z</time>
      </trkpt>
      <trkpt lat="44.47611" lon="1.27285">
        <ele>136.5</ele>
        <time>2026-07-12T07:05:33Z</time>
      </trkpt>
      <trkpt lat="44.4761" lon="1.27279">
        <ele>136.9</ele>
        <time>2026-07-12T07:05:34Z</time>
      </trkpt>
      <trkpt lat="44.4761" lon="1.27274">
        <ele>137.4</ele>
        <time>2026-07-12T07:05:35Z</time>
      </trkpt>
      <trkpt lat="44.47609" lon="1.27268">
        <ele>137.9</ele>
        <time>2026-07-12T07:05:36Z</time>
      </trkpt>
      <trkpt lat="44.47607" lon="1.27252">
        <ele>139.2</ele>
        <time>2026-07-12T07:05:39Z</time>
      </trkpt>
      <trkpt lat="44.47606" lon="1.27247">
        <ele>139.6</ele>
        <time>2026-07-12T07:05:40Z</time>
      </trkpt>
      <trkpt lat="44.47605" lon="1.27242">
        <ele>140.1</ele>
        <time>2026-07-12T07:05:41Z</time>
      </trkpt>
      <trkpt lat="44.47604" lon="1.27237">
        <ele>140.6</ele>
        <time>2026-07-12T07:05:42Z</time>
      </trkpt>
      <trkpt lat="44.47603" lon="1.27231">
        <ele>141.1</ele>
        <time>2026-07-12T07:05:43Z</time>
      </trkpt>
      <trkpt lat="44.47603" lon="1.27226">
        <ele>141.6</ele>
        <time>2026-07-12T07:05:44Z</time>
      </trkpt>
      <trkpt lat="44.47602" lon="1.27221">
        <ele>142.1</ele>
        <time>2026-07-12T07:05:45Z</time>
      </trkpt>
      <trkpt lat="44.47603" lon="1.27216">
        <ele>142.9</ele>
        <time>2026-07-12T07:05:46Z</time>
      </trkpt>
      <trkpt lat="44.47605" lon="1.27212">
        <ele>143.5</ele>
        <time>2026-07-12T07:05:47Z</time>
      </trkpt>
      <trkpt lat="44.47607" lon="1.27208">
        <ele>144</ele>
        <time>2026-07-12T07:05:48Z</time>
      </trkpt>
      <trkpt lat="44.47609" lon="1.27204">
        <ele>144.5</ele>
        <time>2026-07-12T07:05:49Z</time>
      </trkpt>
      <trkpt lat="44.47612" lon="1.272">
        <ele>144.8</ele>
        <time>2026-07-12T07:05:50Z</time>
      </trkpt>
      <trkpt lat="44.47615" lon="1.27197">
        <ele>144.9</ele>
        <time>2026-07-12T07:05:51Z</time>
      </trkpt>
      <trkpt lat="44.47617" lon="1.27193">
        <ele>145</ele>
        <time>2026-07-12T07:05:52Z</time>
      </trkpt>
      <trkpt lat="44.4762" lon="1.27189">
        <ele>145</ele>
        <time>2026-07-12T07:05:53Z</time>
      </trkpt>
      <trkpt lat="44.47622" lon="1.27185">
        <ele>145.2</ele>
        <time>2026-07-12T07:05:54Z</time>
      </trkpt>
      <trkpt lat="44.47623" lon="1.2718">
        <ele>145.5</ele>
        <time>2026-07-12T07:05:55Z</time>
      </trkpt>
      <trkpt lat="44.47624" lon="1.27175">
        <ele>146.1</ele>
        <time>2026-07-12T07:05:56Z</time>
      </trkpt>
      <trkpt lat="44.47625" lon="1.2717">
        <ele>146.6</ele>
        <time>2026-07-12T07:05:57Z</time>
      </trkpt>
      <trkpt lat="44.47627" lon="1.27165">
        <ele>147.3</ele>
        <time>2026-07-12T07:05:58Z</time>
      </trkpt>
      <trkpt lat="44.47628" lon="1.27161">
        <ele>148.3</ele>
        <time>2026-07-12T07:05:59Z</time>
      </trkpt>
      <trkpt lat="44.4763" lon="1.27158">
        <ele>149</ele>
        <time>2026-07-12T07:06:00Z</time>
      </trkpt>
      <trkpt lat="44.47632" lon="1.27155">
        <ele>149.7</ele>
        <time>2026-07-12T07:06:01Z</time>
      </trkpt>
      <trkpt lat="44.47634" lon="1.27152">
        <ele>150.4</ele>
        <time>2026-07-12T07:06:02Z</time>
      </trkpt>
      <trkpt lat="44.47636" lon="1.27149">
        <ele>151.1</ele>
        <time>2026-07-12T07:06:03Z</time>
      </trkpt>
      <trkpt lat="44.47639" lon="1.27147">
        <ele>151.6</ele>
        <time>2026-07-12T07:06:04Z</time>
      </trkpt>
      <trkpt lat="44.4764" lon="1.27145">
        <ele>152.1</ele>
        <time>2026-07-12T07:06:05Z</time>
      </trkpt>
      <trkpt lat="44.47642" lon="1.27141">
        <ele>152.7</ele>
        <time>2026-07-12T07:06:06Z</time>
      </trkpt>
      <trkpt lat="44.47644" lon="1.27138">
        <ele>153.2</ele>
        <time>2026-07-12T07:06:07Z</time>
      </trkpt>
      <trkpt lat="44.47646" lon="1.27135">
        <ele>153.5</ele>
        <time>2026-07-12T07:06:08Z</time>
      </trkpt>
      <trkpt lat="44.47648" lon="1.27133">
        <ele>154</ele>
        <time>2026-07-12T07:06:09Z</time>
      </trkpt>
      <trkpt lat="44.47649" lon="1.2713">
        <ele>154.3</ele>
        <time>2026-07-12T07:06:10Z</time>
      </trkpt>
      <trkpt lat="44.47651" lon="1.27127">
        <ele>154.6</ele>
        <time>2026-07-12T07:06:11Z</time>
      </trkpt>
      <trkpt lat="44.47653" lon="1.27124">
        <ele>155</ele>
        <time>2026-07-12T07:06:12Z</time>
      </trkpt>
      <trkpt lat="44.47654" lon="1.27121">
        <ele>155.4</ele>
        <time>2026-07-12T07:06:13Z</time>
      </trkpt>
      <trkpt lat="44.47656" lon="1.27117">
        <ele>155.9</ele>
        <time>2026-07-12T07:06:14Z</time>
      </trkpt>
      <trkpt lat="44.47658" lon="1.27114">
        <ele>156.4</ele>
        <time>2026-07-12T07:06:15Z</time>
      </trkpt>
      <trkpt lat="44.47659" lon="1.27111">
        <ele>156.8</ele>
        <time>2026-07-12T07:06:16Z</time>
      </trkpt>
      <trkpt lat="44.47661" lon="1.27107">
        <ele>157.2</ele>
        <time>2026-07-12T07:06:17Z</time>
      </trkpt>
      <trkpt lat="44.47662" lon="1.27104">
        <ele>157.6</ele>
        <time>2026-07-12T07:06:18Z</time>
      </trkpt>
      <trkpt lat="44.47663" lon="1.27101">
        <ele>158</ele>
        <time>2026-07-12T07:06:19Z</time>
      </trkpt>
      <trkpt lat="44.47665" lon="1.27097">
        <ele>158.4</ele>
        <time>2026-07-12T07:06:20Z</time>
      </trkpt>
      <trkpt lat="44.47667" lon="1.27093">
        <ele>158.9</ele>
        <time>2026-07-12T07:06:21Z</time>
      </trkpt>
      <trkpt lat="44.47668" lon="1.27089">
        <ele>159.6</ele>
        <time>2026-07-12T07:06:22Z</time>
      </trkpt>
      <trkpt lat="44.47669" lon="1.27086">
        <ele>160.1</ele>
        <time>2026-07-12T07:06:23Z</time>
      </trkpt>
      <trkpt lat="44.47671" lon="1.27083">
        <ele>160.6</ele>
        <time>2026-07-12T07:06:24Z</time>
      </trkpt>
      <trkpt lat="44.47673" lon="1.2708">
        <ele>161</ele>
        <time>2026-07-12T07:06:25Z</time>
      </trkpt>
      <trkpt lat="44.47675" lon="1.27078">
        <ele>161.4</ele>
        <time>2026-07-12T07:06:26Z</time>
      </trkpt>
      <trkpt lat="44.47677" lon="1.27074">
        <ele>161.9</ele>
        <time>2026-07-12T07:06:27Z</time>
      </trkpt>
      <trkpt lat="44.47679" lon="1.27071">
        <ele>162.4</ele>
        <time>2026-07-12T07:06:28Z</time>
      </trkpt>
      <trkpt lat="44.47682" lon="1.27068">
        <ele>162.9</ele>
        <time>2026-07-12T07:06:29Z</time>
      </trkpt>
      <trkpt lat="44.47684" lon="1.27066">
        <ele>163.3</ele>
        <time>2026-07-12T07:06:30Z</time>
      </trkpt>
      <trkpt lat="44.47685" lon="1.27062">
        <ele>163.8</ele>
        <time>2026-07-12T07:06:31Z</time>
      </trkpt>
      <trkpt lat="44.47687" lon="1.27059">
        <ele>164.4</ele>
        <time>2026-07-12T07:06:32Z</time>
      </trkpt>
      <trkpt lat="44.47689" lon="1.27057">
        <ele>164.7</ele>
        <time>2026-07-12T07:06:33Z</time>
      </trkpt>
      <trkpt lat="44.47691" lon="1.27053">
        <ele>165.3</ele>
        <time>2026-07-12T07:06:34Z</time>
      </trkpt>
      <trkpt lat="44.47693" lon="1.2705">
        <ele>165.8</ele>
        <time>2026-07-12T07:06:35Z</time>
      </trkpt>
      <trkpt lat="44.47695" lon="1.27047">
        <ele>166.3</ele>
        <time>2026-07-12T07:06:36Z</time>
      </trkpt>
      <trkpt lat="44.47697" lon="1.27045">
        <ele>166.8</ele>
        <time>2026-07-12T07:06:37Z</time>
      </trkpt>
      <trkpt lat="44.47699" lon="1.27042">
        <ele>167.3</ele>
        <time>2026-07-12T07:06:38Z</time>
      </trkpt>
      <trkpt lat="44.47701" lon="1.27039">
        <ele>167.9</ele>
        <time>2026-07-12T07:06:39Z</time>
      </trkpt>
      <trkpt lat="44.47703" lon="1.27036">
        <ele>168.6</ele>
        <time>2026-07-12T07:06:40Z</time>
      </trkpt>
      <trkpt lat="44.47704" lon="1.27033">
        <ele>169</ele>
        <time>2026-07-12T07:06:41Z</time>
      </trkpt>
      <trkpt lat="44.47706" lon="1.2703">
        <ele>169.6</ele>
        <time>2026-07-12T07:06:42Z</time>
      </trkpt>
      <trkpt lat="44.47708" lon="1.27027">
        <ele>170.3</ele>
        <time>2026-07-12T07:06:43Z</time>
      </trkpt>
      <trkpt lat="44.47711" lon="1.27024">
        <ele>170.7</ele>
        <time>2026-07-12T07:06:44Z</time>
      </trkpt>
      <trkpt lat="44.47713" lon="1.27022">
        <ele>171.2</ele>
        <time>2026-07-12T07:06:45Z</time>
      </trkpt>
      <trkpt lat="44.47715" lon="1.27019">
        <ele>171.7</ele>
        <time>2026-07-12T07:06:46Z</time>
      </trkpt>
      <trkpt lat="44.47717" lon="1.27017">
        <ele>172</ele>
        <time>2026-07-12T07:06:47Z</time>
      </trkpt>
      <trkpt lat="44.47719" lon="1.27015">
        <ele>172.1</ele>
        <time>2026-07-12T07:06:48Z</time>
      </trkpt>
      <trkpt lat="44.47721" lon="1.27012">
        <ele>172.7</ele>
        <time>2026-07-12T07:06:49Z</time>
      </trkpt>
      <trkpt lat="44.47723" lon="1.2701">
        <ele>173.1</ele>
        <time>2026-07-12T07:06:50Z</time>
      </trkpt>
      <trkpt lat="44.47726" lon="1.27006">
        <ele>173.7</ele>
        <time>2026-07-12T07:06:51Z</time>
      </trkpt>
      <trkpt lat="44.47728" lon="1.27004">
        <ele>174</ele>
        <time>2026-07-12T07:06:52Z</time>
      </trkpt>
      <trkpt lat="44.4773" lon="1.27001">
        <ele>174.4</ele>
        <time>2026-07-12T07:06:53Z</time>
      </trkpt>
      <trkpt lat="44.47732" lon="1.26998">
        <ele>174.9</ele>
        <time>2026-07-12T07:06:54Z</time>
      </trkpt>
      <trkpt lat="44.47734" lon="1.26995">
        <ele>175.5</ele>
        <time>2026-07-12T07:06:55Z</time>
      </trkpt>
      <trkpt lat="44.47736" lon="1.26991">
        <ele>176.1</ele>
        <time>2026-07-12T07:06:56Z</time>
      </trkpt>
      <trkpt lat="44.47739" lon="1.26988">
        <ele>176.5</ele>
        <time>2026-07-12T07:06:57Z</time>
      </trkpt>
      <trkpt lat="44.47742" lon="1.26985">
        <ele>176.9</ele>
        <time>2026-07-12T07:06:58Z</time>
      </trkpt>
      <trkpt lat="44.47744" lon="1.26983">
        <ele>177.2</ele>
        <time>2026-07-12T07:06:59Z</time>
      </trkpt>
      <trkpt lat="44.47747" lon="1.2698">
        <ele>177.5</ele>
        <time>2026-07-12T07:07:00Z</time>
      </trkpt>
      <trkpt lat="44.47749" lon="1.26977">
        <ele>177.8</ele>
        <time>2026-07-12T07:07:01Z</time>
      </trkpt>
      <trkpt lat="44.47752" lon="1.26974">
        <ele>178.4</ele>
        <time>2026-07-12T07:07:02Z</time>
      </trkpt>
      <trkpt lat="44.47754" lon="1.26971">
        <ele>179</ele>
        <time>2026-07-12T07:07:03Z</time>
      </trkpt>
      <trkpt lat="44.47757" lon="1.26969">
        <ele>179.6</ele>
        <time>2026-07-12T07:07:04Z</time>
      </trkpt>
      <trkpt lat="44.47759" lon="1.26966">
        <ele>180.1</ele>
        <time>2026-07-12T07:07:05Z</time>
      </trkpt>
      <trkpt lat="44.47762" lon="1.26963">
        <ele>180.7</ele>
        <time>2026-07-12T07:07:06Z</time>
      </trkpt>
      <trkpt lat="44.47764" lon="1.26961">
        <ele>181.2</ele>
        <time>2026-07-12T07:07:07Z</time>
      </trkpt>
      <trkpt lat="44.47766" lon="1.26959">
        <ele>181.8</ele>
        <time>2026-07-12T07:07:08Z</time>
      </trkpt>
      <trkpt lat="44.47768" lon="1.26956">
        <ele>182.4</ele>
        <time>2026-07-12T07:07:09Z</time>
      </trkpt>
      <trkpt lat="44.47769" lon="1.26954">
        <ele>182.9</ele>
        <time>2026-07-12T07:07:10Z</time>
      </trkpt>
      <trkpt lat="44.47772" lon="1.26952">
        <ele>183.4</ele>
        <time>2026-07-12T07:07:11Z</time>
      </trkpt>
      <trkpt lat="44.47774" lon="1.2695">
        <ele>183.8</ele>
        <time>2026-07-12T07:07:12Z</time>
      </trkpt>
      <trkpt lat="44.47776" lon="1.26948">
        <ele>184.2</ele>
        <time>2026-07-12T07:07:13Z</time>
      </trkpt>
      <trkpt lat="44.47778" lon="1.26946">
        <ele>184.5</ele>
        <time>2026-07-12T07:07:14Z</time>
      </trkpt>
      <trkpt lat="44.4778" lon="1.26944">
        <ele>185</ele>
        <time>2026-07-12T07:07:15Z</time>
      </trkpt>
      <trkpt lat="44.47783" lon="1.26941">
        <ele>185.4</ele>
        <time>2026-07-12T07:07:16Z</time>
      </trkpt>
      <trkpt lat="44.47785" lon="1.26939">
        <ele>185.7</ele>
        <time>2026-07-12T07:07:17Z</time>
      </trkpt>
      <trkpt lat="44.47788" lon="1.26937">
        <ele>186</ele>
        <time>2026-07-12T07:07:18Z</time>
      </trkpt>
      <trkpt lat="44.47791" lon="1.26934">
        <ele>186.5</ele>
        <time>2026-07-12T07:07:19Z</time>
      </trkpt>
      <trkpt lat="44.47794" lon="1.26932">
        <ele>187</ele>
        <time>2026-07-12T07:07:20Z</time>
      </trkpt>
      <trkpt lat="44.47796" lon="1.26929">
        <ele>187.5</ele>
        <time>2026-07-12T07:07:21Z</time>
      </trkpt>
      <trkpt lat="44.47799" lon="1.26926">
        <ele>187.9</ele>
        <time>2026-07-12T07:07:22Z</time>
      </trkpt>
      <trkpt lat="44.47802" lon="1.26924">
        <ele>188.5</ele>
        <time>2026-07-12T07:07:23Z</time>
      </trkpt>
      <trkpt lat="44.47805" lon="1.26921">
        <ele>188.9</ele>
        <time>2026-07-12T07:07:24Z</time>
      </trkpt>
      <trkpt lat="44.47808" lon="1.26918">
        <ele>189.1</ele>
        <time>2026-07-12T07:07:25Z</time>
      </trkpt>
      <trkpt lat="44.47811" lon="1.26915">
        <ele>189.5</ele>
        <time>2026-07-12T07:07:26Z</time>
      </trkpt>
      <trkpt lat="44.47813" lon="1.26912">
        <ele>190</ele>
        <time>2026-07-12T07:07:27Z</time>
      </trkpt>
      <trkpt lat="44.47816" lon="1.26909">
        <ele>190.6</ele>
        <time>2026-07-12T07:07:28Z</time>
      </trkpt>
      <trkpt lat="44.47818" lon="1.26906">
        <ele>191.1</ele>
        <time>2026-07-12T07:07:29Z</time>
      </trkpt>
      <trkpt lat="44.47821" lon="1.26903">
        <ele>191.6</ele>
        <time>2026-07-12T07:07:30Z</time>
      </trkpt>
      <trkpt lat="44.47823" lon="1.26901">
        <ele>192</ele>
        <time>2026-07-12T07:07:31Z</time>
      </trkpt>
      <trkpt lat="44.47826" lon="1.26898">
        <ele>192.3</ele>
        <time>2026-07-12T07:07:32Z</time>
      </trkpt>
      <trkpt lat="44.47828" lon="1.26895">
        <ele>192.9</ele>
        <time>2026-07-12T07:07:33Z</time>
      </trkpt>
      <trkpt lat="44.4783" lon="1.26893">
        <ele>193.4</ele>
        <time>2026-07-12T07:07:34Z</time>
      </trkpt>
      <trkpt lat="44.47833" lon="1.2689">
        <ele>193.6</ele>
        <time>2026-07-12T07:07:35Z</time>
      </trkpt>
      <trkpt lat="44.47836" lon="1.26888">
        <ele>194</ele>
        <time>2026-07-12T07:07:36Z</time>
      </trkpt>
      <trkpt lat="44.47838" lon="1.26886">
        <ele>194.6</ele>
        <time>2026-07-12T07:07:37Z</time>
      </trkpt>
      <trkpt lat="44.4784" lon="1.26883">
        <ele>195.2</ele>
        <time>2026-07-12T07:07:38Z</time>
      </trkpt>
      <trkpt lat="44.47843" lon="1.26881">
        <ele>195.8</ele>
        <time>2026-07-12T07:07:39Z</time>
      </trkpt>
      <trkpt lat="44.47846" lon="1.26878">
        <ele>196.3</ele>
        <time>2026-07-12T07:07:40Z</time>
      </trkpt>
      <trkpt lat="44.47848" lon="1.26876">
        <ele>196.7</ele>
        <time>2026-07-12T07:07:41Z</time>
      </trkpt>
      <trkpt lat="44.47851" lon="1.26874">
        <ele>197.1</ele>
        <time>2026-07-12T07:07:42Z</time>
      </trkpt>
      <trkpt lat="44.47854" lon="1.26873">
        <ele>197.2</ele>
        <time>2026-07-12T07:07:43Z</time>
      </trkpt>
      <trkpt lat="44.47856" lon="1.26872">
        <ele>197.5</ele>
        <time>2026-07-12T07:07:44Z</time>
      </trkpt>
      <trkpt lat="44.47859" lon="1.2687">
        <ele>197.8</ele>
        <time>2026-07-12T07:07:45Z</time>
      </trkpt>
      <trkpt lat="44.47861" lon="1.26868">
        <ele>198.2</ele>
        <time>2026-07-12T07:07:46Z</time>
      </trkpt>
      <trkpt lat="44.47863" lon="1.26866">
        <ele>198.8</ele>
        <time>2026-07-12T07:07:47Z</time>
      </trkpt>
      <trkpt lat="44.47865" lon="1.26863">
        <ele>199.5</ele>
        <time>2026-07-12T07:07:48Z</time>
      </trkpt>
      <trkpt lat="44.47865" lon="1.26861">
        <ele>200.2</ele>
        <time>2026-07-12T07:07:49Z</time>
      </trkpt>
      <trkpt lat="44.47865" lon="1.2686">
        <ele>200.8</ele>
        <time>2026-07-12T07:07:50Z</time>
      </trkpt>
      <trkpt lat="44.47863" lon="1.2686">
        <ele>200.9</ele>
        <time>2026-07-12T07:07:51Z</time>
      </trkpt>
      <trkpt lat="44.47861" lon="1.26861">
        <ele>201.1</ele>
        <time>2026-07-12T07:07:52Z</time>
      </trkpt>
      <trkpt lat="44.47858" lon="1.26862">
        <ele>201.1</ele>
        <time>2026-07-12T07:07:53Z</time>
      </trkpt>
      <trkpt lat="44.47854" lon="1.26862">
        <ele>201.4</ele>
        <time>2026-07-12T07:07:54Z</time>
      </trkpt>
      <trkpt lat="44.47851" lon="1.26862">
        <ele>201.7</ele>
        <time>2026-07-12T07:07:55Z</time>
      </trkpt>
      <trkpt lat="44.47847" lon="1.26863">
        <ele>201.9</ele>
        <time>2026-07-12T07:07:56Z</time>
      </trkpt>
      <trkpt lat="44.47843" lon="1.26863">
        <ele>202.2</ele>
        <time>2026-07-12T07:07:57Z</time>
      </trkpt>
      <trkpt lat="44.47839" lon="1.26864">
        <ele>202.4</ele>
        <time>2026-07-12T07:07:58Z</time>
      </trkpt>
      <trkpt lat="44.47835" lon="1.26864">
        <ele>202.6</ele>
        <time>2026-07-12T07:07:59Z</time>
      </trkpt>
      <trkpt lat="44.47831" lon="1.26865">
        <ele>203</ele>
        <time>2026-07-12T07:08:00Z</time>
      </trkpt>
      <trkpt lat="44.47827" lon="1.26865">
        <ele>203.4</ele>
        <time>2026-07-12T07:08:01Z</time>
      </trkpt>
      <trkpt lat="44.47824" lon="1.26865">
        <ele>204</ele>
        <time>2026-07-12T07:08:02Z</time>
      </trkpt>
      <trkpt lat="44.4782" lon="1.26865">
        <ele>204.4</ele>
        <time>2026-07-12T07:08:03Z</time>
      </trkpt>
      <trkpt lat="44.47817" lon="1.26866">
        <ele>204.9</ele>
        <time>2026-07-12T07:08:04Z</time>
      </trkpt>
      <trkpt lat="44.47813" lon="1.26866">
        <ele>205.3</ele>
        <time>2026-07-12T07:08:05Z</time>
      </trkpt>
      <trkpt lat="44.4781" lon="1.26866">
        <ele>205.7</ele>
        <time>2026-07-12T07:08:06Z</time>
      </trkpt>
      <trkpt lat="44.47806" lon="1.26866">
        <ele>206.2</ele>
        <time>2026-07-12T07:08:07Z</time>
      </trkpt>
      <trkpt lat="44.47803" lon="1.26867">
        <ele>206.6</ele>
        <time>2026-07-12T07:08:08Z</time>
      </trkpt>
      <trkpt lat="44.47799" lon="1.26867">
        <ele>207</ele>
        <time>2026-07-12T07:08:09Z</time>
      </trkpt>
      <trkpt lat="44.47795" lon="1.26867">
        <ele>207.4</ele>
        <time>2026-07-12T07:08:10Z</time>
      </trkpt>
      <trkpt lat="44.47792" lon="1.26867">
        <ele>207.8</ele>
        <time>2026-07-12T07:08:11Z</time>
      </trkpt>
      <trkpt lat="44.47788" lon="1.26868">
        <ele>208.2</ele>
        <time>2026-07-12T07:08:12Z</time>
      </trkpt>
      <trkpt lat="44.47785" lon="1.26868">
        <ele>208.7</ele>
        <time>2026-07-12T07:08:13Z</time>
      </trkpt>
      <trkpt lat="44.47781" lon="1.26868">
        <ele>209</ele>
        <time>2026-07-12T07:08:14Z</time>
      </trkpt>
      <trkpt lat="44.47778" lon="1.26868">
        <ele>209.5</ele>
        <time>2026-07-12T07:08:15Z</time>
      </trkpt>
      <trkpt lat="44.47774" lon="1.26869">
        <ele>209.8</ele>
        <time>2026-07-12T07:08:16Z</time>
      </trkpt>
      <trkpt lat="44.4777" lon="1.26869">
        <ele>210.3</ele>
        <time>2026-07-12T07:08:17Z</time>
      </trkpt>
      <trkpt lat="44.47767" lon="1.26869">
        <ele>210.8</ele>
        <time>2026-07-12T07:08:18Z</time>
      </trkpt>
      <trkpt lat="44.47764" lon="1.26869">
        <ele>211.1</ele>
        <time>2026-07-12T07:08:19Z</time>
      </trkpt>
      <trkpt lat="44.4776" lon="1.26869">
        <ele>211.4</ele>
        <time>2026-07-12T07:08:20Z</time>
      </trkpt>
      <trkpt lat="44.47757" lon="1.2687">
        <ele>211.5</ele>
        <time>2026-07-12T07:08:21Z</time>
      </trkpt>
      <trkpt lat="44.47754" lon="1.26871">
        <ele>211.7</ele>
        <time>2026-07-12T07:08:22Z</time>
      </trkpt>
      <trkpt lat="44.4775" lon="1.26871">
        <ele>212</ele>
        <time>2026-07-12T07:08:23Z</time>
      </trkpt>
      <trkpt lat="44.47747" lon="1.26871">
        <ele>212.6</ele>
        <time>2026-07-12T07:08:24Z</time>
      </trkpt>
      <trkpt lat="44.47743" lon="1.26872">
        <ele>213.1</ele>
        <time>2026-07-12T07:08:25Z</time>
      </trkpt>
      <trkpt lat="44.47741" lon="1.26872">
        <ele>213.5</ele>
        <time>2026-07-12T07:08:26Z</time>
      </trkpt>
      <trkpt lat="44.47738" lon="1.26873">
        <ele>213.9</ele>
        <time>2026-07-12T07:08:27Z</time>
      </trkpt>
      <trkpt lat="44.47734" lon="1.26873">
        <ele>214.4</ele>
        <time>2026-07-12T07:08:28Z</time>
      </trkpt>
      <trkpt lat="44.4773" lon="1.26874">
        <ele>214.8</ele>
        <time>2026-07-12T07:08:29Z</time>
      </trkpt>
      <trkpt lat="44.47726" lon="1.26875">
        <ele>215.3</ele>
        <time>2026-07-12T07:08:30Z</time>
      </trkpt>
      <trkpt lat="44.47723" lon="1.26876">
        <ele>215.6</ele>
        <time>2026-07-12T07:08:31Z</time>
      </trkpt>
      <trkpt lat="44.4772" lon="1.26877">
        <ele>215.8</ele>
        <time>2026-07-12T07:08:32Z</time>
      </trkpt>
      <trkpt lat="44.47717" lon="1.26878">
        <ele>216.1</ele>
        <time>2026-07-12T07:08:33Z</time>
      </trkpt>
      <trkpt lat="44.47714" lon="1.26878">
        <ele>216.4</ele>
        <time>2026-07-12T07:08:34Z</time>
      </trkpt>
      <trkpt lat="44.47712" lon="1.2688">
        <ele>216.6</ele>
        <time>2026-07-12T07:08:35Z</time>
      </trkpt>
      <trkpt lat="44.47708" lon="1.26881">
        <ele>216.9</ele>
        <time>2026-07-12T07:08:36Z</time>
      </trkpt>
      <trkpt lat="44.47705" lon="1.26881">
        <ele>217.2</ele>
        <time>2026-07-12T07:08:37Z</time>
      </trkpt>
      <trkpt lat="44.47702" lon="1.26882">
        <ele>217.5</ele>
        <time>2026-07-12T07:08:38Z</time>
      </trkpt>
      <trkpt lat="44.477" lon="1.26884">
        <ele>217.6</ele>
        <time>2026-07-12T07:08:39Z</time>
      </trkpt>
      <trkpt lat="44.47698" lon="1.26884">
        <ele>218</ele>
        <time>2026-07-12T07:08:40Z</time>
      </trkpt>
      <trkpt lat="44.47697" lon="1.26882">
        <ele>218.9</ele>
        <time>2026-07-12T07:08:41Z</time>
      </trkpt>
      <trkpt lat="44.47697" lon="1.26879">
        <ele>219.7</ele>
        <time>2026-07-12T07:08:42Z</time>
      </trkpt>
      <trkpt lat="44.47699" lon="1.26877">
        <ele>220.1</ele>
        <time>2026-07-12T07:08:43Z</time>
      </trkpt>
      <trkpt lat="44.47701" lon="1.26874">
        <ele>220.6</ele>
        <time>2026-07-12T07:08:44Z</time>
      </trkpt>
      <trkpt lat="44.47704" lon="1.26871">
        <ele>221.2</ele>
        <time>2026-07-12T07:08:45Z</time>
      </trkpt>
      <trkpt lat="44.47706" lon="1.26868">
        <ele>221.8</ele>
        <time>2026-07-12T07:08:46Z</time>
      </trkpt>
      <trkpt lat="44.47708" lon="1.26864">
        <ele>222.4</ele>
        <time>2026-07-12T07:08:47Z</time>
      </trkpt>
      <trkpt lat="44.47711" lon="1.26862">
        <ele>222.9</ele>
        <time>2026-07-12T07:08:48Z</time>
      </trkpt>
      <trkpt lat="44.47713" lon="1.26859">
        <ele>223.2</ele>
        <time>2026-07-12T07:08:49Z</time>
      </trkpt>
      <trkpt lat="44.47715" lon="1.26856">
        <ele>223.7</ele>
        <time>2026-07-12T07:08:50Z</time>
      </trkpt>
      <trkpt lat="44.47718" lon="1.26853">
        <ele>224.2</ele>
        <time>2026-07-12T07:08:51Z</time>
      </trkpt>
      <trkpt lat="44.4772" lon="1.2685">
        <ele>224.7</ele>
        <time>2026-07-12T07:08:52Z</time>
      </trkpt>
      <trkpt lat="44.47723" lon="1.26847">
        <ele>225.4</ele>
        <time>2026-07-12T07:08:53Z</time>
      </trkpt>
      <trkpt lat="44.47725" lon="1.26844">
        <ele>226.1</ele>
        <time>2026-07-12T07:08:54Z</time>
      </trkpt>
      <trkpt lat="44.47727" lon="1.26842">
        <ele>226.7</ele>
        <time>2026-07-12T07:08:55Z</time>
      </trkpt>
      <trkpt lat="44.47728" lon="1.26839">
        <ele>227.4</ele>
        <time>2026-07-12T07:08:56Z</time>
      </trkpt>
      <trkpt lat="44.4773" lon="1.26837">
        <ele>228</ele>
        <time>2026-07-12T07:08:57Z</time>
      </trkpt>
      <trkpt lat="44.47733" lon="1.26834">
        <ele>228.6</ele>
        <time>2026-07-12T07:08:58Z</time>
      </trkpt>
      <trkpt lat="44.47735" lon="1.26832">
        <ele>228.9</ele>
        <time>2026-07-12T07:08:59Z</time>
      </trkpt>
      <trkpt lat="44.47738" lon="1.26829">
        <ele>229.2</ele>
        <time>2026-07-12T07:09:00Z</time>
      </trkpt>
      <trkpt lat="44.47741" lon="1.26826">
        <ele>229.6</ele>
        <time>2026-07-12T07:09:01Z</time>
      </trkpt>
      <trkpt lat="44.47743" lon="1.26824">
        <ele>230</ele>
        <time>2026-07-12T07:09:02Z</time>
      </trkpt>
      <trkpt lat="44.47746" lon="1.26822">
        <ele>230.2</ele>
        <time>2026-07-12T07:09:03Z</time>
      </trkpt>
      <trkpt lat="44.47748" lon="1.2682">
        <ele>230.5</ele>
        <time>2026-07-12T07:09:04Z</time>
      </trkpt>
      <trkpt lat="44.4775" lon="1.26817">
        <ele>231</ele>
        <time>2026-07-12T07:09:05Z</time>
      </trkpt>
      <trkpt lat="44.47752" lon="1.26814">
        <ele>231.6</ele>
        <time>2026-07-12T07:09:06Z</time>
      </trkpt>
      <trkpt lat="44.47753" lon="1.26811">
        <ele>232.5</ele>
        <time>2026-07-12T07:09:07Z</time>
      </trkpt>
      <trkpt lat="44.47752" lon="1.26807">
        <ele>233.4</ele>
        <time>2026-07-12T07:09:08Z</time>
      </trkpt>
      <trkpt lat="44.47751" lon="1.26804">
        <ele>234.2</ele>
        <time>2026-07-12T07:09:09Z</time>
      </trkpt>
      <trkpt lat="44.47749" lon="1.268">
        <ele>234.8</ele>
        <time>2026-07-12T07:09:10Z</time>
      </trkpt>
      <trkpt lat="44.47748" lon="1.26797">
        <ele>235.3</ele>
        <time>2026-07-12T07:09:11Z</time>
      </trkpt>
      <trkpt lat="44.47747" lon="1.26794">
        <ele>235.8</ele>
        <time>2026-07-12T07:09:12Z</time>
      </trkpt>
      <trkpt lat="44.47746" lon="1.26791">
        <ele>236.2</ele>
        <time>2026-07-12T07:09:13Z</time>
      </trkpt>
      <trkpt lat="44.47746" lon="1.26789">
        <ele>236.5</ele>
        <time>2026-07-12T07:09:14Z</time>
      </trkpt>
      <trkpt lat="44.47745" lon="1.26787">
        <ele>236.8</ele>
        <time>2026-07-12T07:09:15Z</time>
      </trkpt>
      <trkpt lat="44.47744" lon="1.26785">
        <ele>237.2</ele>
        <time>2026-07-12T07:09:16Z</time>
      </trkpt>
      <trkpt lat="44.47743" lon="1.26782">
        <ele>237.6</ele>
        <time>2026-07-12T07:09:17Z</time>
      </trkpt>
      <trkpt lat="44.47742" lon="1.26779">
        <ele>238.1</ele>
        <time>2026-07-12T07:09:18Z</time>
      </trkpt>
      <trkpt lat="44.47741" lon="1.26776">
        <ele>238.5</ele>
        <time>2026-07-12T07:09:19Z</time>
      </trkpt>
      <trkpt lat="44.4774" lon="1.26772">
        <ele>238.9</ele>
        <time>2026-07-12T07:09:20Z</time>
      </trkpt>
      <trkpt lat="44.47738" lon="1.26768">
        <ele>239.3</ele>
        <time>2026-07-12T07:09:21Z</time>
      </trkpt>
      <trkpt lat="44.47736" lon="1.26765">
        <ele>239.7</ele>
        <time>2026-07-12T07:09:22Z</time>
      </trkpt>
      <trkpt lat="44.47735" lon="1.26761">
        <ele>240</ele>
        <time>2026-07-12T07:09:23Z</time>
      </trkpt>
      <trkpt lat="44.47734" lon="1.26757">
        <ele>240.4</ele>
        <time>2026-07-12T07:09:24Z</time>
      </trkpt>
      <trkpt lat="44.47732" lon="1.26753">
        <ele>240.7</ele>
        <time>2026-07-12T07:09:25Z</time>
      </trkpt>
      <trkpt lat="44.47731" lon="1.2675">
        <ele>241</ele>
        <time>2026-07-12T07:09:26Z</time>
      </trkpt>
      <trkpt lat="44.47729" lon="1.26744">
        <ele>241.6</ele>
        <time>2026-07-12T07:09:27Z</time>
      </trkpt>
      <trkpt lat="44.47727" lon="1.2674">
        <ele>242.1</ele>
        <time>2026-07-12T07:09:28Z</time>
      </trkpt>
      <trkpt lat="44.47725" lon="1.26735">
        <ele>242.6</ele>
        <time>2026-07-12T07:09:29Z</time>
      </trkpt>
      <trkpt lat="44.47722" lon="1.26732">
        <ele>242.9</ele>
        <time>2026-07-12T07:09:30Z</time>
      </trkpt>
      <trkpt lat="44.4772" lon="1.26728">
        <ele>243.4</ele>
        <time>2026-07-12T07:09:31Z</time>
      </trkpt>
      <trkpt lat="44.47719" lon="1.26723">
        <ele>243.9</ele>
        <time>2026-07-12T07:09:32Z</time>
      </trkpt>
      <trkpt lat="44.47717" lon="1.26718">
        <ele>244.3</ele>
        <time>2026-07-12T07:09:33Z</time>
      </trkpt>
      <trkpt lat="44.47716" lon="1.26714">
        <ele>244.6</ele>
        <time>2026-07-12T07:09:34Z</time>
      </trkpt>
      <trkpt lat="44.47714" lon="1.2671">
        <ele>244.9</ele>
        <time>2026-07-12T07:09:35Z</time>
      </trkpt>
      <trkpt lat="44.47713" lon="1.26705">
        <ele>245.2</ele>
        <time>2026-07-12T07:09:36Z</time>
      </trkpt>
      <trkpt lat="44.47711" lon="1.26701">
        <ele>245.6</ele>
        <time>2026-07-12T07:09:37Z</time>
      </trkpt>
      <trkpt lat="44.4771" lon="1.26696">
        <ele>245.9</ele>
        <time>2026-07-12T07:09:38Z</time>
      </trkpt>
      <trkpt lat="44.47708" lon="1.26691">
        <ele>246</ele>
        <time>2026-07-12T07:09:39Z</time>
      </trkpt>
      <trkpt lat="44.47706" lon="1.26687">
        <ele>246</ele>
        <time>2026-07-12T07:09:40Z</time>
      </trkpt>
      <trkpt lat="44.47704" lon="1.26682">
        <ele>245.9</ele>
        <time>2026-07-12T07:09:41Z</time>
      </trkpt>
      <trkpt lat="44.47702" lon="1.26679">
        <ele>245.7</ele>
        <time>2026-07-12T07:09:42Z</time>
      </trkpt>
      <trkpt lat="44.47699" lon="1.26677">
        <ele>245.6</ele>
        <time>2026-07-12T07:09:43Z</time>
      </trkpt>
      <trkpt lat="44.47696" lon="1.26677">
        <ele>245.4</ele>
        <time>2026-07-12T07:09:44Z</time>
      </trkpt>
      <trkpt lat="44.47691" lon="1.2668">
        <ele>245.6</ele>
        <time>2026-07-12T07:09:45Z</time>
      </trkpt>
      <trkpt lat="44.47687" lon="1.26685">
        <ele>245.7</ele>
        <time>2026-07-12T07:09:46Z</time>
      </trkpt>
      <trkpt lat="44.47683" lon="1.26689">
        <ele>245.9</ele>
        <time>2026-07-12T07:09:47Z</time>
      </trkpt>
      <trkpt lat="44.47681" lon="1.26694">
        <ele>246</ele>
        <time>2026-07-12T07:09:48Z</time>
      </trkpt>
      <trkpt lat="44.47678" lon="1.26697">
        <ele>245.9</ele>
        <time>2026-07-12T07:09:49Z</time>
      </trkpt>
      <trkpt lat="44.47675" lon="1.26699">
        <ele>245.9</ele>
        <time>2026-07-12T07:09:50Z</time>
      </trkpt>
      <trkpt lat="44.47672" lon="1.26697">
        <ele>246</ele>
        <time>2026-07-12T07:09:51Z</time>
      </trkpt>
      <trkpt lat="44.47669" lon="1.26693">
        <ele>246</ele>
        <time>2026-07-12T07:09:52Z</time>
      </trkpt>
      <trkpt lat="44.47666" lon="1.26688">
        <ele>246</ele>
        <time>2026-07-12T07:09:53Z</time>
      </trkpt>
      <trkpt lat="44.47661" lon="1.26685">
        <ele>246.2</ele>
        <time>2026-07-12T07:09:54Z</time>
      </trkpt>
      <trkpt lat="44.47657" lon="1.26683">
        <ele>246.4</ele>
        <time>2026-07-12T07:09:55Z</time>
      </trkpt>
      <trkpt lat="44.47652" lon="1.26684">
        <ele>246.6</ele>
        <time>2026-07-12T07:09:56Z</time>
      </trkpt>
      <trkpt lat="44.47647" lon="1.26686">
        <ele>246.6</ele>
        <time>2026-07-12T07:09:57Z</time>
      </trkpt>
      <trkpt lat="44.47643" lon="1.26689">
        <ele>246.5</ele>
        <time>2026-07-12T07:09:58Z</time>
      </trkpt>
      <trkpt lat="44.47638" lon="1.26691">
        <ele>246.5</ele>
        <time>2026-07-12T07:09:59Z</time>
      </trkpt>
      <trkpt lat="44.47633" lon="1.26693">
        <ele>246.9</ele>
        <time>2026-07-12T07:10:00Z</time>
      </trkpt>
      <trkpt lat="44.47627" lon="1.26694">
        <ele>247.3</ele>
        <time>2026-07-12T07:10:01Z</time>
      </trkpt>
      <trkpt lat="44.47623" lon="1.26695">
        <ele>247.7</ele>
        <time>2026-07-12T07:10:02Z</time>
      </trkpt>
      <trkpt lat="44.47618" lon="1.26696">
        <ele>248.1</ele>
        <time>2026-07-12T07:10:03Z</time>
      </trkpt>
      <trkpt lat="44.47613" lon="1.26697">
        <ele>248.6</ele>
        <time>2026-07-12T07:10:04Z</time>
      </trkpt>
      <trkpt lat="44.47608" lon="1.26698">
        <ele>248.8</ele>
        <time>2026-07-12T07:10:05Z</time>
      </trkpt>
      <trkpt lat="44.47604" lon="1.26699">
        <ele>248.9</ele>
        <time>2026-07-12T07:10:06Z</time>
      </trkpt>
      <trkpt lat="44.476" lon="1.26701">
        <ele>249.1</ele>
        <time>2026-07-12T07:10:07Z</time>
      </trkpt>
      <trkpt lat="44.47596" lon="1.26701">
        <ele>249.2</ele>
        <time>2026-07-12T07:10:08Z</time>
      </trkpt>
      <trkpt lat="44.47594" lon="1.267">
        <ele>249.5</ele>
        <time>2026-07-12T07:10:09Z</time>
      </trkpt>
      <trkpt lat="44.47593" lon="1.26697">
        <ele>250</ele>
        <time>2026-07-12T07:10:10Z</time>
      </trkpt>
      <trkpt lat="44.47593" lon="1.26693">
        <ele>250.4</ele>
        <time>2026-07-12T07:10:11Z</time>
      </trkpt>
      <trkpt lat="44.47591" lon="1.26689">
        <ele>250.8</ele>
        <time>2026-07-12T07:10:12Z</time>
      </trkpt>
      <trkpt lat="44.47589" lon="1.26685">
        <ele>251.3</ele>
        <time>2026-07-12T07:10:13Z</time>
      </trkpt>
      <trkpt lat="44.47589" lon="1.26681">
        <ele>251.5</ele>
        <time>2026-07-12T07:10:14Z</time>
      </trkpt>
      <trkpt lat="44.47589" lon="1.26677">
        <ele>251.8</ele>
        <time>2026-07-12T07:10:15Z</time>
      </trkpt>
      <trkpt lat="44.47588" lon="1.26673">
        <ele>252.2</ele>
        <time>2026-07-12T07:10:16Z</time>
      </trkpt>
      <trkpt lat="44.47586" lon="1.26671">
        <ele>252.5</ele>
        <time>2026-07-12T07:10:17Z</time>
      </trkpt>
      <trkpt lat="44.47585" lon="1.26668">
        <ele>252.8</ele>
        <time>2026-07-12T07:10:18Z</time>
      </trkpt>
      <trkpt lat="44.47583" lon="1.26666">
        <ele>253</ele>
        <time>2026-07-12T07:10:19Z</time>
      </trkpt>
      <trkpt lat="44.47582" lon="1.26663">
        <ele>253.2</ele>
        <time>2026-07-12T07:10:20Z</time>
      </trkpt>
      <trkpt lat="44.47581" lon="1.26658">
        <ele>253.4</ele>
        <time>2026-07-12T07:10:21Z</time>
      </trkpt>
      <trkpt lat="44.47579" lon="1.26654">
        <ele>253.6</ele>
        <time>2026-07-12T07:10:22Z</time>
      </trkpt>
      <trkpt lat="44.47578" lon="1.2665">
        <ele>253.8</ele>
        <time>2026-07-12T07:10:23Z</time>
      </trkpt>
      <trkpt lat="44.47579" lon="1.26645">
        <ele>253.9</ele>
        <time>2026-07-12T07:10:24Z</time>
      </trkpt>
      <trkpt lat="44.47578" lon="1.26641">
        <ele>254.1</ele>
        <time>2026-07-12T07:10:25Z</time>
      </trkpt>
      <trkpt lat="44.47576" lon="1.26636">
        <ele>254.3</ele>
        <time>2026-07-12T07:10:26Z</time>
      </trkpt>
      <trkpt lat="44.47575" lon="1.26631">
        <ele>254.5</ele>
        <time>2026-07-12T07:10:27Z</time>
      </trkpt>
      <trkpt lat="44.47574" lon="1.26626">
        <ele>254.6</ele>
        <time>2026-07-12T07:10:28Z</time>
      </trkpt>
      <trkpt lat="44.47575" lon="1.2662">
        <ele>254.8</ele>
        <time>2026-07-12T07:10:29Z</time>
      </trkpt>
      <trkpt lat="44.47576" lon="1.26614">
        <ele>254.9</ele>
        <time>2026-07-12T07:10:30Z</time>
      </trkpt>
      <trkpt lat="44.47577" lon="1.26608">
        <ele>255.1</ele>
        <time>2026-07-12T07:10:31Z</time>
      </trkpt>
      <trkpt lat="44.4758" lon="1.26603">
        <ele>255.3</ele>
        <time>2026-07-12T07:10:32Z</time>
      </trkpt>
      <trkpt lat="44.47581" lon="1.26597">
        <ele>255.5</ele>
        <time>2026-07-12T07:10:33Z</time>
      </trkpt>
      <trkpt lat="44.47579" lon="1.2659">
        <ele>255.8</ele>
        <time>2026-07-12T07:10:34Z</time>
      </trkpt>
      <trkpt lat="44.47578" lon="1.26585">
        <ele>256</ele>
        <time>2026-07-12T07:10:35Z</time>
      </trkpt>
      <trkpt lat="44.47576" lon="1.26579">
        <ele>256</ele>
        <time>2026-07-12T07:10:36Z</time>
      </trkpt>
      <trkpt lat="44.47575" lon="1.26573">
        <ele>256</ele>
        <time>2026-07-12T07:10:37Z</time>
      </trkpt>
      <trkpt lat="44.47573" lon="1.26567">
        <ele>256</ele>
        <time>2026-07-12T07:10:38Z</time>
      </trkpt>
      <trkpt lat="44.47572" lon="1.26561">
        <ele>256</ele>
        <time>2026-07-12T07:10:39Z</time>
      </trkpt>
      <trkpt lat="44.47571" lon="1.26554">
        <ele>256</ele>
        <time>2026-07-12T07:10:40Z</time>
      </trkpt>
      <trkpt lat="44.47571" lon="1.26549">
        <ele>256.1</ele>
        <time>2026-07-12T07:10:41Z</time>
      </trkpt>
      <trkpt lat="44.47571" lon="1.26542">
        <ele>256.2</ele>
        <time>2026-07-12T07:10:42Z</time>
      </trkpt>
      <trkpt lat="44.47571" lon="1.26534">
        <ele>256.4</ele>
        <time>2026-07-12T07:10:43Z</time>
      </trkpt>
      <trkpt lat="44.4757" lon="1.26528">
        <ele>256.5</ele>
        <time>2026-07-12T07:10:44Z</time>
      </trkpt>
      <trkpt lat="44.4757" lon="1.26522">
        <ele>256.6</ele>
        <time>2026-07-12T07:10:45Z</time>
      </trkpt>
      <trkpt lat="44.4757" lon="1.26516">
        <ele>256.7</ele>
        <time>2026-07-12T07:10:46Z</time>
      </trkpt>
      <trkpt lat="44.47569" lon="1.26509">
        <ele>256.8</ele>
        <time>2026-07-12T07:10:47Z</time>
      </trkpt>
      <trkpt lat="44.47571" lon="1.26503">
        <ele>256.9</ele>
        <time>2026-07-12T07:10:48Z</time>
      </trkpt>
      <trkpt lat="44.47571" lon="1.26499">
        <ele>257</ele>
        <time>2026-07-12T07:10:49Z</time>
      </trkpt>
      <trkpt lat="44.4757" lon="1.26498">
        <ele>257</ele>
        <time>2026-07-12T07:10:50Z</time>
      </trkpt>
      <trkpt lat="44.47568" lon="1.26496">
        <ele>257</ele>
        <time>2026-07-12T07:10:51Z</time>
      </trkpt>
      <trkpt lat="44.47567" lon="1.26495">
        <ele>257</ele>
        <time>2026-07-12T07:10:52Z</time>
      </trkpt>
      <trkpt lat="44.47567" lon="1.26493">
        <ele>257</ele>
        <time>2026-07-12T07:10:53Z</time>
      </trkpt>
      <trkpt lat="44.47566" lon="1.26491">
        <ele>257</ele>
        <time>2026-07-12T07:10:54Z</time>
      </trkpt>
      <trkpt lat="44.47564" lon="1.26489">
        <ele>257</ele>
        <time>2026-07-12T07:10:55Z</time>
      </trkpt>
      <trkpt lat="44.47561" lon="1.26489">
        <ele>257</ele>
        <time>2026-07-12T07:10:56Z</time>
      </trkpt>
      <trkpt lat="44.47558" lon="1.26491">
        <ele>257</ele>
        <time>2026-07-12T07:10:57Z</time>
      </trkpt>
      <trkpt lat="44.47555" lon="1.26494">
        <ele>257</ele>
        <time>2026-07-12T07:10:58Z</time>
      </trkpt>
      <trkpt lat="44.47553" lon="1.26495">
        <ele>256.9</ele>
        <time>2026-07-12T07:10:59Z</time>
      </trkpt>
      <trkpt lat="44.4755" lon="1.26495">
        <ele>256.7</ele>
        <time>2026-07-12T07:11:00Z</time>
      </trkpt>
      <trkpt lat="44.47547" lon="1.26496">
        <ele>256.6</ele>
        <time>2026-07-12T07:11:01Z</time>
      </trkpt>
      <trkpt lat="44.47545" lon="1.26496">
        <ele>256.5</ele>
        <time>2026-07-12T07:11:02Z</time>
      </trkpt>
      <trkpt lat="44.47542" lon="1.26496">
        <ele>256.3</ele>
        <time>2026-07-12T07:11:03Z</time>
      </trkpt>
      <trkpt lat="44.47539" lon="1.26496">
        <ele>256.2</ele>
        <time>2026-07-12T07:11:04Z</time>
      </trkpt>
      <trkpt lat="44.47536" lon="1.26496">
        <ele>256.1</ele>
        <time>2026-07-12T07:11:05Z</time>
      </trkpt>
      <trkpt lat="44.47534" lon="1.26494">
        <ele>255.9</ele>
        <time>2026-07-12T07:11:06Z</time>
      </trkpt>
      <trkpt lat="44.47533" lon="1.26491">
        <ele>255.7</ele>
        <time>2026-07-12T07:11:07Z</time>
      </trkpt>
      <trkpt lat="44.47532" lon="1.26485">
        <ele>255.2</ele>
        <time>2026-07-12T07:11:09Z</time>
      </trkpt>
      <trkpt lat="44.4753" lon="1.26482">
        <ele>254.9</ele>
        <time>2026-07-12T07:11:10Z</time>
      </trkpt>
      <trkpt lat="44.47526" lon="1.26466">
        <ele>253.1</ele>
        <time>2026-07-12T07:11:13Z</time>
      </trkpt>
      <trkpt lat="44.47525" lon="1.26458">
        <ele>252.2</ele>
        <time>2026-07-12T07:11:14Z</time>
      </trkpt>
      <trkpt lat="44.47522" lon="1.2645">
        <ele>251.1</ele>
        <time>2026-07-12T07:11:15Z</time>
      </trkpt>
      <trkpt lat="44.47512" lon="1.26434">
        <ele>248.7</ele>
        <time>2026-07-12T07:11:17Z</time>
      </trkpt>
      <trkpt lat="44.47506" lon="1.26425">
        <ele>247.3</ele>
        <time>2026-07-12T07:11:18Z</time>
      </trkpt>
      <trkpt lat="44.47493" lon="1.26406">
        <ele>245.1</ele>
        <time>2026-07-12T07:11:20Z</time>
      </trkpt>
      <trkpt lat="44.47485" lon="1.26396">
        <ele>244.4</ele>
        <time>2026-07-12T07:11:21Z</time>
      </trkpt>
      <trkpt lat="44.47477" lon="1.26385">
        <ele>243.7</ele>
        <time>2026-07-12T07:11:22Z</time>
      </trkpt>
      <trkpt lat="44.47463" lon="1.26363">
        <ele>242.1</ele>
        <time>2026-07-12T07:11:24Z</time>
      </trkpt>
      <trkpt lat="44.47455" lon="1.26351">
        <ele>241.4</ele>
        <time>2026-07-12T07:11:25Z</time>
      </trkpt>
      <trkpt lat="44.47448" lon="1.26339">
        <ele>241</ele>
        <time>2026-07-12T07:11:26Z</time>
      </trkpt>
      <trkpt lat="44.47441" lon="1.26327">
        <ele>240.5</ele>
        <time>2026-07-12T07:11:27Z</time>
      </trkpt>
      <trkpt lat="44.47434" lon="1.26316">
        <ele>239.6</ele>
        <time>2026-07-12T07:11:28Z</time>
      </trkpt>
      <trkpt lat="44.47426" lon="1.26305">
        <ele>239</ele>
        <time>2026-07-12T07:11:29Z</time>
      </trkpt>
      <trkpt lat="44.47411" lon="1.2629">
        <ele>237.8</ele>
        <time>2026-07-12T07:11:31Z</time>
      </trkpt>
      <trkpt lat="44.47404" lon="1.26284">
        <ele>236.8</ele>
        <time>2026-07-12T07:11:32Z</time>
      </trkpt>
      <trkpt lat="44.47399" lon="1.26279">
        <ele>236.1</ele>
        <time>2026-07-12T07:11:33Z</time>
      </trkpt>
      <trkpt lat="44.47393" lon="1.26277">
        <ele>235.4</ele>
        <time>2026-07-12T07:11:34Z</time>
      </trkpt>
      <trkpt lat="44.47389" lon="1.26277">
        <ele>234.8</ele>
        <time>2026-07-12T07:11:35Z</time>
      </trkpt>
      <trkpt lat="44.47385" lon="1.2628">
        <ele>233.9</ele>
        <time>2026-07-12T07:11:36Z</time>
      </trkpt>
      <trkpt lat="44.47382" lon="1.26285">
        <ele>232.9</ele>
        <time>2026-07-12T07:11:37Z</time>
      </trkpt>
      <trkpt lat="44.4738" lon="1.26292">
        <ele>232.8</ele>
        <time>2026-07-12T07:11:38Z</time>
      </trkpt>
      <trkpt lat="44.47379" lon="1.26299">
        <ele>232.9</ele>
        <time>2026-07-12T07:11:39Z</time>
      </trkpt>
      <trkpt lat="44.47379" lon="1.26307">
        <ele>233.1</ele>
        <time>2026-07-12T07:11:40Z</time>
      </trkpt>
      <trkpt lat="44.47378" lon="1.26315">
        <ele>233.2</ele>
        <time>2026-07-12T07:11:41Z</time>
      </trkpt>
      <trkpt lat="44.47378" lon="1.26322">
        <ele>233.3</ele>
        <time>2026-07-12T07:11:42Z</time>
      </trkpt>
      <trkpt lat="44.47374" lon="1.26354">
        <ele>234.3</ele>
        <time>2026-07-12T07:11:46Z</time>
      </trkpt>
      <trkpt lat="44.47371" lon="1.26378">
        <ele>234.6</ele>
        <time>2026-07-12T07:11:49Z</time>
      </trkpt>
      <trkpt lat="44.47363" lon="1.26411">
        <ele>234.1</ele>
        <time>2026-07-12T07:11:53Z</time>
      </trkpt>
      <trkpt lat="44.47357" lon="1.26427">
        <ele>231.6</ele>
        <time>2026-07-12T07:11:55Z</time>
      </trkpt>
      <trkpt lat="44.47356" lon="1.26435">
        <ele>230.3</ele>
        <time>2026-07-12T07:11:56Z</time>
      </trkpt>
      <trkpt lat="44.47356" lon="1.26443">
        <ele>229.6</ele>
        <time>2026-07-12T07:11:57Z</time>
      </trkpt>
      <trkpt lat="44.47358" lon="1.2645">
        <ele>228.6</ele>
        <time>2026-07-12T07:11:58Z</time>
      </trkpt>
      <trkpt lat="44.47368" lon="1.26461">
        <ele>227.6</ele>
        <time>2026-07-12T07:12:00Z</time>
      </trkpt>
      <trkpt lat="44.47374" lon="1.26468">
        <ele>226.9</ele>
        <time>2026-07-12T07:12:01Z</time>
      </trkpt>
      <trkpt lat="44.4738" lon="1.26475">
        <ele>226.6</ele>
        <time>2026-07-12T07:12:02Z</time>
      </trkpt>
      <trkpt lat="44.47396" lon="1.26498">
        <ele>226.8</ele>
        <time>2026-07-12T07:12:05Z</time>
      </trkpt>
      <trkpt lat="44.474" lon="1.26506">
        <ele>226.9</ele>
        <time>2026-07-12T07:12:06Z</time>
      </trkpt>
      <trkpt lat="44.47402" lon="1.26515">
        <ele>226.6</ele>
        <time>2026-07-12T07:12:07Z</time>
      </trkpt>
      <trkpt lat="44.47403" lon="1.26525">
        <ele>225.8</ele>
        <time>2026-07-12T07:12:08Z</time>
      </trkpt>
      <trkpt lat="44.47403" lon="1.26536">
        <ele>225.4</ele>
        <time>2026-07-12T07:12:09Z</time>
      </trkpt>
      <trkpt lat="44.47403" lon="1.26547">
        <ele>225.3</ele>
        <time>2026-07-12T07:12:10Z</time>
      </trkpt>
      <trkpt lat="44.47403" lon="1.26558">
        <ele>225.1</ele>
        <time>2026-07-12T07:12:11Z</time>
      </trkpt>
      <trkpt lat="44.474" lon="1.26567">
        <ele>224.8</ele>
        <time>2026-07-12T07:12:12Z</time>
      </trkpt>
      <trkpt lat="44.47394" lon="1.26574">
        <ele>223.4</ele>
        <time>2026-07-12T07:12:13Z</time>
      </trkpt>
      <trkpt lat="44.47387" lon="1.26578">
        <ele>221.6</ele>
        <time>2026-07-12T07:12:14Z</time>
      </trkpt>
      <trkpt lat="44.47378" lon="1.26579">
        <ele>220.9</ele>
        <time>2026-07-12T07:12:15Z</time>
      </trkpt>
      <trkpt lat="44.47362" lon="1.26571">
        <ele>218.7</ele>
        <time>2026-07-12T07:12:17Z</time>
      </trkpt>
      <trkpt lat="44.47347" lon="1.26551">
        <ele>217.9</ele>
        <time>2026-07-12T07:12:19Z</time>
      </trkpt>
      <trkpt lat="44.47339" lon="1.26542">
        <ele>216.6</ele>
        <time>2026-07-12T07:12:20Z</time>
      </trkpt>
      <trkpt lat="44.47321" lon="1.26528">
        <ele>214</ele>
        <time>2026-07-12T07:12:22Z</time>
      </trkpt>
      <trkpt lat="44.47312" lon="1.26521">
        <ele>213.2</ele>
        <time>2026-07-12T07:12:23Z</time>
      </trkpt>
      <trkpt lat="44.47303" lon="1.2651">
        <ele>211</ele>
        <time>2026-07-12T07:12:24Z</time>
      </trkpt>
      <trkpt lat="44.47294" lon="1.26498">
        <ele>209.2</ele>
        <time>2026-07-12T07:12:25Z</time>
      </trkpt>
      <trkpt lat="44.47284" lon="1.26486">
        <ele>208.1</ele>
        <time>2026-07-12T07:12:26Z</time>
      </trkpt>
      <trkpt lat="44.47268" lon="1.26459">
        <ele>205.2</ele>
        <time>2026-07-12T07:12:28Z</time>
      </trkpt>
      <trkpt lat="44.47262" lon="1.26444">
        <ele>203.2</ele>
        <time>2026-07-12T07:12:29Z</time>
      </trkpt>
      <trkpt lat="44.47257" lon="1.26428">
        <ele>201.1</ele>
        <time>2026-07-12T07:12:30Z</time>
      </trkpt>
      <trkpt lat="44.47253" lon="1.2641">
        <ele>198.3</ele>
        <time>2026-07-12T07:12:31Z</time>
      </trkpt>
      <trkpt lat="44.47249" lon="1.26392">
        <ele>195.5</ele>
        <time>2026-07-12T07:12:32Z</time>
      </trkpt>
      <trkpt lat="44.47248" lon="1.26375">
        <ele>193.4</ele>
        <time>2026-07-12T07:12:33Z</time>
      </trkpt>
      <trkpt lat="44.4725" lon="1.26358">
        <ele>191.7</ele>
        <time>2026-07-12T07:12:34Z</time>
      </trkpt>
      <trkpt lat="44.47253" lon="1.26343">
        <ele>190.3</ele>
        <time>2026-07-12T07:12:35Z</time>
      </trkpt>
      <trkpt lat="44.47254" lon="1.26328">
        <ele>188.5</ele>
        <time>2026-07-12T07:12:36Z</time>
      </trkpt>
      <trkpt lat="44.47253" lon="1.26311">
        <ele>186.1</ele>
        <time>2026-07-12T07:12:37Z</time>
      </trkpt>
      <trkpt lat="44.47251" lon="1.26294">
        <ele>183.5</ele>
        <time>2026-07-12T07:12:38Z</time>
      </trkpt>
      <trkpt lat="44.47248" lon="1.26278">
        <ele>181.2</ele>
        <time>2026-07-12T07:12:39Z</time>
      </trkpt>
      <trkpt lat="44.47246" lon="1.26261">
        <ele>179.1</ele>
        <time>2026-07-12T07:12:40Z</time>
      </trkpt>
      <trkpt lat="44.47244" lon="1.26245">
        <ele>177.1</ele>
        <time>2026-07-12T07:12:41Z</time>
      </trkpt>
      <trkpt lat="44.47244" lon="1.26229">
        <ele>175.3</ele>
        <time>2026-07-12T07:12:42Z</time>
      </trkpt>
      <trkpt lat="44.47244" lon="1.26214">
        <ele>173.3</ele>
        <time>2026-07-12T07:12:43Z</time>
      </trkpt>
      <trkpt lat="44.47244" lon="1.26197">
        <ele>171.4</ele>
        <time>2026-07-12T07:12:44Z</time>
      </trkpt>
      <trkpt lat="44.47244" lon="1.26181">
        <ele>169.2</ele>
        <time>2026-07-12T07:12:45Z</time>
      </trkpt>
      <trkpt lat="44.47244" lon="1.26164">
        <ele>167.1</ele>
        <time>2026-07-12T07:12:46Z</time>
      </trkpt>
      <trkpt lat="44.47244" lon="1.26148">
        <ele>165.5</ele>
        <time>2026-07-12T07:12:47Z</time>
      </trkpt>
      <trkpt lat="44.47244" lon="1.26132">
        <ele>163.9</ele>
        <time>2026-07-12T07:12:48Z</time>
      </trkpt>
      <trkpt lat="44.47246" lon="1.26115">
        <ele>162.4</ele>
        <time>2026-07-12T07:12:49Z</time>
      </trkpt>
      <trkpt lat="44.4725" lon="1.26087">
        <ele>161.1</ele>
        <time>2026-07-12T07:12:51Z</time>
      </trkpt>
      <trkpt lat="44.47252" lon="1.26073">
        <ele>160.7</ele>
        <time>2026-07-12T07:12:52Z</time>
      </trkpt>
      <trkpt lat="44.47251" lon="1.26058">
        <ele>159.6</ele>
        <time>2026-07-12T07:12:53Z</time>
      </trkpt>
      <trkpt lat="44.47249" lon="1.2604">
        <ele>157.9</ele>
        <time>2026-07-12T07:12:54Z</time>
      </trkpt>
      <trkpt lat="44.47248" lon="1.26028">
        <ele>157.1</ele>
        <time>2026-07-12T07:12:55Z</time>
      </trkpt>
      <trkpt lat="44.47245" lon="1.26011">
        <ele>157</ele>
        <time>2026-07-12T07:12:56Z</time>
      </trkpt>
      <trkpt lat="44.47243" lon="1.25996">
        <ele>156.5</ele>
        <time>2026-07-12T07:12:57Z</time>
      </trkpt>
      <trkpt lat="44.4724" lon="1.25982">
        <ele>155.4</ele>
        <time>2026-07-12T07:12:58Z</time>
      </trkpt>
      <trkpt lat="44.47236" lon="1.25968">
        <ele>153.9</ele>
        <time>2026-07-12T07:12:59Z</time>
      </trkpt>
      <trkpt lat="44.47231" lon="1.25954">
        <ele>152</ele>
        <time>2026-07-12T07:13:00Z</time>
      </trkpt>
      <trkpt lat="44.47224" lon="1.25942">
        <ele>149.8</ele>
        <time>2026-07-12T07:13:01Z</time>
      </trkpt>
      <trkpt lat="44.47216" lon="1.25932">
        <ele>149.2</ele>
        <time>2026-07-12T07:13:02Z</time>
      </trkpt>
      <trkpt lat="44.47206" lon="1.25923">
        <ele>147.8</ele>
        <time>2026-07-12T07:13:03Z</time>
      </trkpt>
      <trkpt lat="44.47197" lon="1.25915">
        <ele>145.7</ele>
        <time>2026-07-12T07:13:04Z</time>
      </trkpt>
      <trkpt lat="44.47186" lon="1.25907">
        <ele>145.2</ele>
        <time>2026-07-12T07:13:05Z</time>
      </trkpt>
      <trkpt lat="44.47176" lon="1.25899">
        <ele>144.2</ele>
        <time>2026-07-12T07:13:06Z</time>
      </trkpt>
      <trkpt lat="44.47168" lon="1.25893">
        <ele>142.5</ele>
        <time>2026-07-12T07:13:07Z</time>
      </trkpt>
      <trkpt lat="44.47161" lon="1.25885">
        <ele>141.9</ele>
        <time>2026-07-12T07:13:08Z</time>
      </trkpt>
      <trkpt lat="44.47156" lon="1.25876">
        <ele>142.2</ele>
        <time>2026-07-12T07:13:09Z</time>
      </trkpt>
      <trkpt lat="44.47151" lon="1.25865">
        <ele>142.1</ele>
        <time>2026-07-12T07:13:10Z</time>
      </trkpt>
      <trkpt lat="44.47146" lon="1.25855">
        <ele>141.7</ele>
        <time>2026-07-12T07:13:11Z</time>
      </trkpt>
      <trkpt lat="44.47134" lon="1.25836">
        <ele>139.3</ele>
        <time>2026-07-12T07:13:13Z</time>
      </trkpt>
      <trkpt lat="44.47129" lon="1.25825">
        <ele>139.3</ele>
        <time>2026-07-12T07:13:14Z</time>
      </trkpt>
      <trkpt lat="44.47124" lon="1.25813">
        <ele>138.7</ele>
        <time>2026-07-12T07:13:15Z</time>
      </trkpt>
      <trkpt lat="44.47119" lon="1.25801">
        <ele>137.3</ele>
        <time>2026-07-12T07:13:16Z</time>
      </trkpt>
      <trkpt lat="44.47114" lon="1.25788">
        <ele>135.9</ele>
        <time>2026-07-12T07:13:17Z</time>
      </trkpt>
      <trkpt lat="44.47109" lon="1.25776">
        <ele>135</ele>
        <time>2026-07-12T07:13:18Z</time>
      </trkpt>
      <trkpt lat="44.47097" lon="1.25751">
        <ele>134</ele>
        <time>2026-07-12T07:13:20Z</time>
      </trkpt>
      <trkpt lat="44.47091" lon="1.2574">
        <ele>133.4</ele>
        <time>2026-07-12T07:13:21Z</time>
      </trkpt>
      <trkpt lat="44.47085" lon="1.25729">
        <ele>132.2</ele>
        <time>2026-07-12T07:13:22Z</time>
      </trkpt>
      <trkpt lat="44.47078" lon="1.25718">
        <ele>132.1</ele>
        <time>2026-07-12T07:13:23Z</time>
      </trkpt>
      <trkpt lat="44.4707" lon="1.25709">
        <ele>132</ele>
        <time>2026-07-12T07:13:24Z</time>
      </trkpt>
      <trkpt lat="44.47055" lon="1.25693">
        <ele>130.9</ele>
        <time>2026-07-12T07:13:26Z</time>
      </trkpt>
      <trkpt lat="44.47043" lon="1.2567">
        <ele>129.7</ele>
        <time>2026-07-12T07:13:28Z</time>
      </trkpt>
      <trkpt lat="44.47039" lon="1.25656">
        <ele>129</ele>
        <time>2026-07-12T07:13:29Z</time>
      </trkpt>
      <trkpt lat="44.47035" lon="1.25642">
        <ele>128</ele>
        <time>2026-07-12T07:13:30Z</time>
      </trkpt>
      <trkpt lat="44.47032" lon="1.25625">
        <ele>127.4</ele>
        <time>2026-07-12T07:13:31Z</time>
      </trkpt>
      <trkpt lat="44.47026" lon="1.25596">
        <ele>126.7</ele>
        <time>2026-07-12T07:13:33Z</time>
      </trkpt>
      <trkpt lat="44.47018" lon="1.25537">
        <ele>124.3</ele>
        <time>2026-07-12T07:13:37Z</time>
      </trkpt>
      <trkpt lat="44.47014" lon="1.25494">
        <ele>123.6</ele>
        <time>2026-07-12T07:13:40Z</time>
      </trkpt>
      <trkpt lat="44.47013" lon="1.2548">
        <ele>123.7</ele>
        <time>2026-07-12T07:13:41Z</time>
      </trkpt>
      <trkpt lat="44.47012" lon="1.25461">
        <ele>123.4</ele>
        <time>2026-07-12T07:13:42Z</time>
      </trkpt>
      <trkpt lat="44.47014" lon="1.25432">
        <ele>122.3</ele>
        <time>2026-07-12T07:13:44Z</time>
      </trkpt>
      <trkpt lat="44.47017" lon="1.25418">
        <ele>121.3</ele>
        <time>2026-07-12T07:13:45Z</time>
      </trkpt>
      <trkpt lat="44.47025" lon="1.25389">
        <ele>119.7</ele>
        <time>2026-07-12T07:13:47Z</time>
      </trkpt>
      <trkpt lat="44.47029" lon="1.25358">
        <ele>118.9</ele>
        <time>2026-07-12T07:13:49Z</time>
      </trkpt>
      <trkpt lat="44.4703" lon="1.25328">
        <ele>117.6</ele>
        <time>2026-07-12T07:13:51Z</time>
      </trkpt>
      <trkpt lat="44.4703" lon="1.25297">
        <ele>116.4</ele>
        <time>2026-07-12T07:13:53Z</time>
      </trkpt>
      <trkpt lat="44.47032" lon="1.25266">
        <ele>115.5</ele>
        <time>2026-07-12T07:13:55Z</time>
      </trkpt>
      <trkpt lat="44.47036" lon="1.25236">
        <ele>114.3</ele>
        <time>2026-07-12T07:13:57Z</time>
      </trkpt>
      <trkpt lat="44.47045" lon="1.25194">
        <ele>109.4</ele>
        <time>2026-07-12T07:14:00Z</time>
      </trkpt>
      <trkpt lat="44.47048" lon="1.2518">
        <ele>110</ele>
        <time>2026-07-12T07:14:01Z</time>
      </trkpt>
      <trkpt lat="44.47052" lon="1.25167">
        <ele>110.9</ele>
        <time>2026-07-12T07:14:02Z</time>
      </trkpt>
      <trkpt lat="44.47056" lon="1.25155">
        <ele>111.8</ele>
        <time>2026-07-12T07:14:03Z</time>
      </trkpt>
      <trkpt lat="44.47062" lon="1.25146">
        <ele>112.2</ele>
        <time>2026-07-12T07:14:04Z</time>
      </trkpt>
      <trkpt lat="44.47069" lon="1.25139">
        <ele>112.5</ele>
        <time>2026-07-12T07:14:05Z</time>
      </trkpt>
      <trkpt lat="44.47075" lon="1.25136">
        <ele>113.4</ele>
        <time>2026-07-12T07:14:06Z</time>
      </trkpt>
      <trkpt lat="44.47081" lon="1.25134">
        <ele>113.6</ele>
        <time>2026-07-12T07:14:07Z</time>
      </trkpt>
      <trkpt lat="44.47085" lon="1.25134">
        <ele>113.6</ele>
        <time>2026-07-12T07:14:08Z</time>
      </trkpt>
      <trkpt lat="44.47091" lon="1.25134">
        <ele>113.5</ele>
        <time>2026-07-12T07:14:09Z</time>
      </trkpt>
      <trkpt lat="44.47098" lon="1.25134">
        <ele>113.2</ele>
        <time>2026-07-12T07:14:10Z</time>
      </trkpt>
      <trkpt lat="44.47104" lon="1.25135">
        <ele>112.8</ele>
        <time>2026-07-12T07:14:11Z</time>
      </trkpt>
      <trkpt lat="44.47129" lon="1.25139">
        <ele>111.1</ele>
        <time>2026-07-12T07:14:15Z</time>
      </trkpt>
      <trkpt lat="44.47134" lon="1.2514">
        <ele>110.9</ele>
        <time>2026-07-12T07:14:16Z</time>
      </trkpt>
      <trkpt lat="44.4714" lon="1.2514">
        <ele>110.9</ele>
        <time>2026-07-12T07:14:17Z</time>
      </trkpt>
      <trkpt lat="44.47186" lon="1.25138">
        <ele>110</ele>
        <time>2026-07-12T07:14:24Z</time>
      </trkpt>
      <trkpt lat="44.47193" lon="1.25135">
        <ele>110.2</ele>
        <time>2026-07-12T07:14:25Z</time>
      </trkpt>
      <trkpt lat="44.47203" lon="1.25127">
        <ele>111</ele>
        <time>2026-07-12T07:14:27Z</time>
      </trkpt>
      <trkpt lat="44.47207" lon="1.25121">
        <ele>111.6</ele>
        <time>2026-07-12T07:14:28Z</time>
      </trkpt>
      <trkpt lat="44.47211" lon="1.25116">
        <ele>112</ele>
        <time>2026-07-12T07:14:29Z</time>
      </trkpt>
      <trkpt lat="44.47222" lon="1.25102">
        <ele>113</ele>
        <time>2026-07-12T07:14:32Z</time>
      </trkpt>
      <trkpt lat="44.47225" lon="1.25098">
        <ele>113.3</ele>
        <time>2026-07-12T07:14:33Z</time>
      </trkpt>
      <trkpt lat="44.4723" lon="1.25093">
        <ele>113</ele>
        <time>2026-07-12T07:14:34Z</time>
      </trkpt>
      <trkpt lat="44.47237" lon="1.25091">
        <ele>111.8</ele>
        <time>2026-07-12T07:14:35Z</time>
      </trkpt>
      <trkpt lat="44.47243" lon="1.25087">
        <ele>110.7</ele>
        <time>2026-07-12T07:14:36Z</time>
      </trkpt>
      <trkpt lat="44.47253" lon="1.25077">
        <ele>109.9</ele>
        <time>2026-07-12T07:14:38Z</time>
      </trkpt>
      <trkpt lat="44.47266" lon="1.25068">
        <ele>110.3</ele>
        <time>2026-07-12T07:14:41Z</time>
      </trkpt>
      <trkpt lat="44.4727" lon="1.25068">
        <ele>110.1</ele>
        <time>2026-07-12T07:14:42Z</time>
      </trkpt>
      <trkpt lat="44.47273" lon="1.2507">
        <ele>109.7</ele>
        <time>2026-07-12T07:14:43Z</time>
      </trkpt>
      <trkpt lat="44.47277" lon="1.25073">
        <ele>109.4</ele>
        <time>2026-07-12T07:14:44Z</time>
      </trkpt>
      <trkpt lat="44.47282" lon="1.25084">
        <ele>108.2</ele>
        <time>2026-07-12T07:14:46Z</time>
      </trkpt>
      <trkpt lat="44.47285" lon="1.2509">
        <ele>107.2</ele>
        <time>2026-07-12T07:14:47Z</time>
      </trkpt>
      <trkpt lat="44.47294" lon="1.25103">
        <ele>105.6</ele>
        <time>2026-07-12T07:14:49Z</time>
      </trkpt>
      <trkpt lat="44.47303" lon="1.25116">
        <ele>105.1</ele>
        <time>2026-07-12T07:14:51Z</time>
      </trkpt>
      <trkpt lat="44.47311" lon="1.25128">
        <ele>105</ele>
        <time>2026-07-12T07:14:53Z</time>
      </trkpt>
      <trkpt lat="44.47315" lon="1.25134">
        <ele>105.2</ele>
        <time>2026-07-12T07:14:54Z</time>
      </trkpt>
      <trkpt lat="44.47319" lon="1.2514">
        <ele>105.5</ele>
        <time>2026-07-12T07:14:55Z</time>
      </trkpt>
      <trkpt lat="44.47323" lon="1.25145">
        <ele>105.9</ele>
        <time>2026-07-12T07:14:56Z</time>
      </trkpt>
      <trkpt lat="44.47327" lon="1.25151">
        <ele>106.4</ele>
        <time>2026-07-12T07:14:57Z</time>
      </trkpt>
      <trkpt lat="44.4733" lon="1.25156">
        <ele>106.9</ele>
        <time>2026-07-12T07:14:58Z</time>
      </trkpt>
      <trkpt lat="44.47332" lon="1.25161">
        <ele>107.4</ele>
        <time>2026-07-12T07:14:59Z</time>
      </trkpt>
      <trkpt lat="44.47334" lon="1.25166">
        <ele>107.9</ele>
        <time>2026-07-12T07:15:00Z</time>
      </trkpt>
      <trkpt lat="44.47335" lon="1.25168">
        <ele>108.2</ele>
        <time>2026-07-12T07:15:01Z</time>
      </trkpt>
      <trkpt lat="44.47337" lon="1.25169">
        <ele>108.2</ele>
        <time>2026-07-12T07:15:02Z</time>
      </trkpt>
      <trkpt lat="44.47337" lon="1.25169">
        <ele>108.2</ele>
        <time>2026-07-12T07:15:03Z</time>
      </trkpt>
      <trkpt lat="44.47337" lon="1.25169">
        <ele>108.2</ele>
        <time>2026-07-12T07:15:05Z</time>
      </trkpt>
      <trkpt lat="44.4734" lon="1.25165">
        <ele>107.9</ele>
        <time>2026-07-12T07:25:02Z</time>
      </trkpt>
      <trkpt lat="44.47352" lon="1.25152">
        <ele>107.3</ele>
        <time>2026-07-12T07:25:08Z</time>
      </trkpt>
      <trkpt lat="44.47365" lon="1.25131">
        <ele>106.6</ele>
        <time>2026-07-12T07:25:13Z</time>
      </trkpt>
      <trkpt lat="44.47388" lon="1.25101">
        <ele>106</ele>
        <time>2026-07-12T07:25:19Z</time>
      </trkpt>
      <trkpt lat="44.47392" lon="1.25097">
        <ele>105.8</ele>
        <time>2026-07-12T07:25:20Z</time>
      </trkpt>
      <trkpt lat="44.47411" lon="1.25076">
        <ele>104.4</ele>
        <time>2026-07-12T07:25:24Z</time>
      </trkpt>
      <trkpt lat="44.47415" lon="1.2507">
        <ele>104</ele>
        <time>2026-07-12T07:25:25Z</time>
      </trkpt>
      <trkpt lat="44.47419" lon="1.25064">
        <ele>103.2</ele>
        <time>2026-07-12T07:25:26Z</time>
      </trkpt>
      <trkpt lat="44.47424" lon="1.25057">
        <ele>102.5</ele>
        <time>2026-07-12T07:25:27Z</time>
      </trkpt>
      <trkpt lat="44.47431" lon="1.25041">
        <ele>102</ele>
        <time>2026-07-12T07:25:29Z</time>
      </trkpt>
      <trkpt lat="44.47439" lon="1.25012">
        <ele>101.3</ele>
        <time>2026-07-12T07:25:32Z</time>
      </trkpt>
      <trkpt lat="44.47442" lon="1.25002">
        <ele>101.1</ele>
        <time>2026-07-12T07:25:33Z</time>
      </trkpt>
      <trkpt lat="44.47445" lon="1.24993">
        <ele>100.7</ele>
        <time>2026-07-12T07:25:34Z</time>
      </trkpt>
      <trkpt lat="44.47447" lon="1.24984">
        <ele>100.4</ele>
        <time>2026-07-12T07:25:35Z</time>
      </trkpt>
      <trkpt lat="44.47454" lon="1.24956">
        <ele>99.8</ele>
        <time>2026-07-12T07:25:38Z</time>
      </trkpt>
      <trkpt lat="44.47456" lon="1.24948">
        <ele>99.6</ele>
        <time>2026-07-12T07:25:39Z</time>
      </trkpt>
      <trkpt lat="44.47461" lon="1.2493">
        <ele>99.2</ele>
        <time>2026-07-12T07:25:41Z</time>
      </trkpt>
      <trkpt lat="44.47463" lon="1.24922">
        <ele>99.1</ele>
        <time>2026-07-12T07:25:42Z</time>
      </trkpt>
      <trkpt lat="44.47466" lon="1.24913">
        <ele>98.9</ele>
        <time>2026-07-12T07:25:43Z</time>
      </trkpt>
      <trkpt lat="44.47468" lon="1.24904">
        <ele>98.6</ele>
        <time>2026-07-12T07:25:44Z</time>
      </trkpt>
      <trkpt lat="44.4747" lon="1.24895">
        <ele>98.3</ele>
        <time>2026-07-12T07:25:45Z</time>
      </trkpt>
      <trkpt lat="44.47476" lon="1.24871">
        <ele>98</ele>
        <time>2026-07-12T07:25:48Z</time>
      </trkpt>
      <trkpt lat="44.4748" lon="1.24855">
        <ele>98</ele>
        <time>2026-07-12T07:25:50Z</time>
      </trkpt>
      <trkpt lat="44.47482" lon="1.24847">
        <ele>98</ele>
        <time>2026-07-12T07:25:51Z</time>
      </trkpt>
      <trkpt lat="44.47484" lon="1.24839">
        <ele>98</ele>
        <time>2026-07-12T07:25:52Z</time>
      </trkpt>
      <trkpt lat="44.47486" lon="1.24831">
        <ele>98</ele>
        <time>2026-07-12T07:25:53Z</time>
      </trkpt>
      <trkpt lat="44.47488" lon="1.24823">
        <ele>98</ele>
        <time>2026-07-12T07:25:54Z</time>
      </trkpt>
      <trkpt lat="44.47491" lon="1.24807">
        <ele>98</ele>
        <time>2026-07-12T07:25:56Z</time>
      </trkpt>
      <trkpt lat="44.47498" lon="1.24784">
        <ele>97.3</ele>
        <time>2026-07-12T07:25:59Z</time>
      </trkpt>
      <trkpt lat="44.47504" lon="1.24763">
        <ele>96.7</ele>
        <time>2026-07-12T07:26:02Z</time>
      </trkpt>
      <trkpt lat="44.47508" lon="1.24757">
        <ele>96.8</ele>
        <time>2026-07-12T07:26:03Z</time>
      </trkpt>
      <trkpt lat="44.47512" lon="1.24753">
        <ele>96.9</ele>
        <time>2026-07-12T07:26:04Z</time>
      </trkpt>
      <trkpt lat="44.47516" lon="1.24748">
        <ele>97.2</ele>
        <time>2026-07-12T07:26:05Z</time>
      </trkpt>
      <trkpt lat="44.47521" lon="1.24746">
        <ele>97.4</ele>
        <time>2026-07-12T07:26:06Z</time>
      </trkpt>
      <trkpt lat="44.47526" lon="1.24744">
        <ele>97.7</ele>
        <time>2026-07-12T07:26:07Z</time>
      </trkpt>
      <trkpt lat="44.47531" lon="1.24744">
        <ele>97.8</ele>
        <time>2026-07-12T07:26:08Z</time>
      </trkpt>
      <trkpt lat="44.47536" lon="1.24744">
        <ele>97.8</ele>
        <time>2026-07-12T07:26:09Z</time>
      </trkpt>
      <trkpt lat="44.47541" lon="1.24745">
        <ele>97.8</ele>
        <time>2026-07-12T07:26:10Z</time>
      </trkpt>
      <trkpt lat="44.47545" lon="1.24747">
        <ele>97.9</ele>
        <time>2026-07-12T07:26:11Z</time>
      </trkpt>
      <trkpt lat="44.4755" lon="1.24748">
        <ele>97.9</ele>
        <time>2026-07-12T07:26:12Z</time>
      </trkpt>
      <trkpt lat="44.47555" lon="1.24749">
        <ele>98</ele>
        <time>2026-07-12T07:26:13Z</time>
      </trkpt>
      <trkpt lat="44.4756" lon="1.24751">
        <ele>98</ele>
        <time>2026-07-12T07:26:14Z</time>
      </trkpt>
      <trkpt lat="44.47564" lon="1.24752">
        <ele>98</ele>
        <time>2026-07-12T07:26:15Z</time>
      </trkpt>
      <trkpt lat="44.47569" lon="1.24754">
        <ele>98.1</ele>
        <time>2026-07-12T07:26:16Z</time>
      </trkpt>
      <trkpt lat="44.47573" lon="1.24756">
        <ele>98.1</ele>
        <time>2026-07-12T07:26:17Z</time>
      </trkpt>
      <trkpt lat="44.47581" lon="1.24758">
        <ele>98.3</ele>
        <time>2026-07-12T07:26:19Z</time>
      </trkpt>
      <trkpt lat="44.4759" lon="1.24761">
        <ele>98.5</ele>
        <time>2026-07-12T07:26:21Z</time>
      </trkpt>
      <trkpt lat="44.47594" lon="1.24762">
        <ele>98.6</ele>
        <time>2026-07-12T07:26:22Z</time>
      </trkpt>
      <trkpt lat="44.47598" lon="1.24761">
        <ele>98.7</ele>
        <time>2026-07-12T07:26:23Z</time>
      </trkpt>
      <trkpt lat="44.476" lon="1.24759">
        <ele>98.7</ele>
        <time>2026-07-12T07:26:24Z</time>
      </trkpt>
      <trkpt lat="44.47601" lon="1.24756">
        <ele>98.7</ele>
        <time>2026-07-12T07:26:25Z</time>
      </trkpt>
      <trkpt lat="44.47602" lon="1.24752">
        <ele>98.7</ele>
        <time>2026-07-12T07:26:26Z</time>
      </trkpt>
      <trkpt lat="44.47603" lon="1.24748">
        <ele>98.7</ele>
        <time>2026-07-12T07:26:27Z</time>
      </trkpt>
      <trkpt lat="44.47605" lon="1.24744">
        <ele>98.8</ele>
        <time>2026-07-12T07:26:28Z</time>
      </trkpt>
      <trkpt lat="44.4761" lon="1.24736">
        <ele>98.9</ele>
        <time>2026-07-12T07:26:30Z</time>
      </trkpt>
      <trkpt lat="44.47618" lon="1.24709">
        <ele>99</ele>
        <time>2026-07-12T07:26:35Z</time>
      </trkpt>
      <trkpt lat="44.47618" lon="1.24703">
        <ele>99</ele>
        <time>2026-07-12T07:26:36Z</time>
      </trkpt>
      <trkpt lat="44.47619" lon="1.24675">
        <ele>98.3</ele>
        <time>2026-07-12T07:26:40Z</time>
      </trkpt>
      <trkpt lat="44.47619" lon="1.2466">
        <ele>97.8</ele>
        <time>2026-07-12T07:26:42Z</time>
      </trkpt>
      <trkpt lat="44.4762" lon="1.24628">
        <ele>97</ele>
        <time>2026-07-12T07:26:46Z</time>
      </trkpt>
      <trkpt lat="44.4762" lon="1.2458">
        <ele>95.8</ele>
        <time>2026-07-12T07:26:52Z</time>
      </trkpt>
      <trkpt lat="44.47617" lon="1.24567">
        <ele>94.9</ele>
        <time>2026-07-12T07:26:54Z</time>
      </trkpt>
      <trkpt lat="44.47615" lon="1.2456">
        <ele>94.5</ele>
        <time>2026-07-12T07:26:55Z</time>
      </trkpt>
      <trkpt lat="44.47613" lon="1.24555">
        <ele>94</ele>
        <time>2026-07-12T07:26:56Z</time>
      </trkpt>
      <trkpt lat="44.47609" lon="1.24551">
        <ele>93.7</ele>
        <time>2026-07-12T07:26:57Z</time>
      </trkpt>
      <trkpt lat="44.47605" lon="1.24548">
        <ele>93.6</ele>
        <time>2026-07-12T07:26:58Z</time>
      </trkpt>
      <trkpt lat="44.47595" lon="1.24547">
        <ele>93.8</ele>
        <time>2026-07-12T07:27:00Z</time>
      </trkpt>
      <trkpt lat="44.4759" lon="1.24547">
        <ele>93.9</ele>
        <time>2026-07-12T07:27:01Z</time>
      </trkpt>
      <trkpt lat="44.47584" lon="1.24547">
        <ele>94</ele>
        <time>2026-07-12T07:27:02Z</time>
      </trkpt>
      <trkpt lat="44.47579" lon="1.24547">
        <ele>94</ele>
        <time>2026-07-12T07:27:03Z</time>
      </trkpt>
      <trkpt lat="44.47559" lon="1.24549">
        <ele>94.3</ele>
        <time>2026-07-12T07:27:07Z</time>
      </trkpt>
      <trkpt lat="44.4755" lon="1.24554">
        <ele>94.5</ele>
        <time>2026-07-12T07:27:09Z</time>
      </trkpt>
      <trkpt lat="44.4754" lon="1.24562">
        <ele>94.2</ele>
        <time>2026-07-12T07:27:11Z</time>
      </trkpt>
      <trkpt lat="44.47535" lon="1.24564">
        <ele>94.1</ele>
        <time>2026-07-12T07:27:12Z</time>
      </trkpt>
      <trkpt lat="44.4753" lon="1.24565">
        <ele>93.8</ele>
        <time>2026-07-12T07:27:13Z</time>
      </trkpt>
      <trkpt lat="44.47526" lon="1.24565">
        <ele>93.7</ele>
        <time>2026-07-12T07:27:14Z</time>
      </trkpt>
      <trkpt lat="44.47521" lon="1.24563">
        <ele>93.8</ele>
        <time>2026-07-12T07:27:15Z</time>
      </trkpt>
      <trkpt lat="44.47517" lon="1.2456">
        <ele>93.7</ele>
        <time>2026-07-12T07:27:16Z</time>
      </trkpt>
      <trkpt lat="44.47512" lon="1.24557">
        <ele>93.7</ele>
        <time>2026-07-12T07:27:17Z</time>
      </trkpt>
      <trkpt lat="44.47502" lon="1.2455">
        <ele>93.5</ele>
        <time>2026-07-12T07:27:19Z</time>
      </trkpt>
      <trkpt lat="44.4749" lon="1.24546">
        <ele>93.3</ele>
        <time>2026-07-12T07:27:21Z</time>
      </trkpt>
      <trkpt lat="44.47484" lon="1.24545">
        <ele>93.2</ele>
        <time>2026-07-12T07:27:22Z</time>
      </trkpt>
      <trkpt lat="44.47472" lon="1.24545">
        <ele>93.2</ele>
        <time>2026-07-12T07:27:24Z</time>
      </trkpt>
      <trkpt lat="44.4745" lon="1.24547">
        <ele>93.4</ele>
        <time>2026-07-12T07:27:28Z</time>
      </trkpt>
      <trkpt lat="44.47433" lon="1.24551">
        <ele>93.7</ele>
        <time>2026-07-12T07:27:31Z</time>
      </trkpt>
      <trkpt lat="44.47428" lon="1.24552">
        <ele>93.8</ele>
        <time>2026-07-12T07:27:32Z</time>
      </trkpt>
      <trkpt lat="44.47422" lon="1.24553">
        <ele>93.8</ele>
        <time>2026-07-12T07:27:33Z</time>
      </trkpt>
      <trkpt lat="44.47417" lon="1.24553">
        <ele>93.8</ele>
        <time>2026-07-12T07:27:34Z</time>
      </trkpt>
      <trkpt lat="44.47412" lon="1.24552">
        <ele>93.8</ele>
        <time>2026-07-12T07:27:35Z</time>
      </trkpt>
      <trkpt lat="44.47407" lon="1.24553">
        <ele>93.8</ele>
        <time>2026-07-12T07:27:36Z</time>
      </trkpt>
      <trkpt lat="44.47401" lon="1.24553">
        <ele>93.8</ele>
        <time>2026-07-12T07:27:37Z</time>
      </trkpt>
      <trkpt lat="44.47384" lon="1.24554">
        <ele>93.9</ele>
        <time>2026-07-12T07:27:40Z</time>
      </trkpt>
      <trkpt lat="44.47363" lon="1.24554">
        <ele>93.9</ele>
        <time>2026-07-12T07:27:44Z</time>
      </trkpt>
      <trkpt lat="44.47352" lon="1.24552">
        <ele>93.8</ele>
        <time>2026-07-12T07:27:46Z</time>
      </trkpt>
      <trkpt lat="44.47347" lon="1.24552">
        <ele>93.7</ele>
        <time>2026-07-12T07:27:47Z</time>
      </trkpt>
      <trkpt lat="44.47303" lon="1.24551">
        <ele>94.5</ele>
        <time>2026-07-12T07:27:55Z</time>
      </trkpt>
      <trkpt lat="44.47265" lon="1.24553">
        <ele>94.7</ele>
        <time>2026-07-12T07:28:02Z</time>
      </trkpt>
      <trkpt lat="44.47237" lon="1.24554">
        <ele>94.7</ele>
        <time>2026-07-12T07:28:07Z</time>
      </trkpt>
      <trkpt lat="44.47232" lon="1.24554">
        <ele>94.8</ele>
        <time>2026-07-12T07:28:08Z</time>
      </trkpt>
      <trkpt lat="44.47188" lon="1.24558">
        <ele>95.1</ele>
        <time>2026-07-12T07:28:16Z</time>
      </trkpt>
      <trkpt lat="44.47177" lon="1.24556">
        <ele>95</ele>
        <time>2026-07-12T07:28:18Z</time>
      </trkpt>
      <trkpt lat="44.47148" lon="1.24549">
        <ele>94.3</ele>
        <time>2026-07-12T07:28:23Z</time>
      </trkpt>
      <trkpt lat="44.47096" lon="1.24533">
        <ele>93.6</ele>
        <time>2026-07-12T07:28:32Z</time>
      </trkpt>
      <trkpt lat="44.47086" lon="1.2453">
        <ele>94</ele>
        <time>2026-07-12T07:28:34Z</time>
      </trkpt>
      <trkpt lat="44.4708" lon="1.24528">
        <ele>94.2</ele>
        <time>2026-07-12T07:28:35Z</time>
      </trkpt>
      <trkpt lat="44.47074" lon="1.24527">
        <ele>94.3</ele>
        <time>2026-07-12T07:28:36Z</time>
      </trkpt>
      <trkpt lat="44.47069" lon="1.24525">
        <ele>94.3</ele>
        <time>2026-07-12T07:28:37Z</time>
      </trkpt>
      <trkpt lat="44.47064" lon="1.24524">
        <ele>94.3</ele>
        <time>2026-07-12T07:28:38Z</time>
      </trkpt>
      <trkpt lat="44.4706" lon="1.24523">
        <ele>94.3</ele>
        <time>2026-07-12T07:28:39Z</time>
      </trkpt>
      <trkpt lat="44.47055" lon="1.24522">
        <ele>94.3</ele>
        <time>2026-07-12T07:28:40Z</time>
      </trkpt>
      <trkpt lat="44.47044" lon="1.24518">
        <ele>94.2</ele>
        <time>2026-07-12T07:28:42Z</time>
      </trkpt>
      <trkpt lat="44.47029" lon="1.2451">
        <ele>93.4</ele>
        <time>2026-07-12T07:28:45Z</time>
      </trkpt>
      <trkpt lat="44.47024" lon="1.24507">
        <ele>93.2</ele>
        <time>2026-07-12T07:28:46Z</time>
      </trkpt>
      <trkpt lat="44.47018" lon="1.24504">
        <ele>93.2</ele>
        <time>2026-07-12T07:28:47Z</time>
      </trkpt>
      <trkpt lat="44.46996" lon="1.24493">
        <ele>93.4</ele>
        <time>2026-07-12T07:28:51Z</time>
      </trkpt>
      <trkpt lat="44.46946" lon="1.24466">
        <ele>94.2</ele>
        <time>2026-07-12T07:29:00Z</time>
      </trkpt>
      <trkpt lat="44.46907" lon="1.24442">
        <ele>94.2</ele>
        <time>2026-07-12T07:29:07Z</time>
      </trkpt>
      <trkpt lat="44.46898" lon="1.24433">
        <ele>94.2</ele>
        <time>2026-07-12T07:29:09Z</time>
      </trkpt>
      <trkpt lat="44.46893" lon="1.24429">
        <ele>93.9</ele>
        <time>2026-07-12T07:29:10Z</time>
      </trkpt>
      <trkpt lat="44.46883" lon="1.24424">
        <ele>94.7</ele>
        <time>2026-07-12T07:29:12Z</time>
      </trkpt>
      <trkpt lat="44.46878" lon="1.24421">
        <ele>95.3</ele>
        <time>2026-07-12T07:29:13Z</time>
      </trkpt>
      <trkpt lat="44.46874" lon="1.24418">
        <ele>95.9</ele>
        <time>2026-07-12T07:29:14Z</time>
      </trkpt>
      <trkpt lat="44.4687" lon="1.24415">
        <ele>96.5</ele>
        <time>2026-07-12T07:29:15Z</time>
      </trkpt>
      <trkpt lat="44.46867" lon="1.2441">
        <ele>96.7</ele>
        <time>2026-07-12T07:29:16Z</time>
      </trkpt>
      <trkpt lat="44.46863" lon="1.24405">
        <ele>96.5</ele>
        <time>2026-07-12T07:29:17Z</time>
      </trkpt>
      <trkpt lat="44.4686" lon="1.244">
        <ele>96.3</ele>
        <time>2026-07-12T07:29:18Z</time>
      </trkpt>
      <trkpt lat="44.4684" lon="1.24364">
        <ele>96.2</ele>
        <time>2026-07-12T07:29:24Z</time>
      </trkpt>
      <trkpt lat="44.46837" lon="1.24357">
        <ele>95.9</ele>
        <time>2026-07-12T07:29:25Z</time>
      </trkpt>
      <trkpt lat="44.46822" lon="1.24324">
        <ele>97.3</ele>
        <time>2026-07-12T07:29:30Z</time>
      </trkpt>
      <trkpt lat="44.46812" lon="1.24298">
        <ele>99</ele>
        <time>2026-07-12T07:29:34Z</time>
      </trkpt>
      <trkpt lat="44.4681" lon="1.24291">
        <ele>98.5</ele>
        <time>2026-07-12T07:29:35Z</time>
      </trkpt>
      <trkpt lat="44.46809" lon="1.24284">
        <ele>97.7</ele>
        <time>2026-07-12T07:29:36Z</time>
      </trkpt>
      <trkpt lat="44.46807" lon="1.24277">
        <ele>96.8</ele>
        <time>2026-07-12T07:29:37Z</time>
      </trkpt>
      <trkpt lat="44.46803" lon="1.24256">
        <ele>96.8</ele>
        <time>2026-07-12T07:29:40Z</time>
      </trkpt>
      <trkpt lat="44.46801" lon="1.24242">
        <ele>96.9</ele>
        <time>2026-07-12T07:29:42Z</time>
      </trkpt>
      <trkpt lat="44.46802" lon="1.24229">
        <ele>95.9</ele>
        <time>2026-07-12T07:29:44Z</time>
      </trkpt>
      <trkpt lat="44.46802" lon="1.24222">
        <ele>95.1</ele>
        <time>2026-07-12T07:29:45Z</time>
      </trkpt>
      <trkpt lat="44.46802" lon="1.24215">
        <ele>95.3</ele>
        <time>2026-07-12T07:29:46Z</time>
      </trkpt>
      <trkpt lat="44.46801" lon="1.24151">
        <ele>97.2</ele>
        <time>2026-07-12T07:29:54Z</time>
      </trkpt>
      <trkpt lat="44.46801" lon="1.24143">
        <ele>97.4</ele>
        <time>2026-07-12T07:29:55Z</time>
      </trkpt>
      <trkpt lat="44.46802" lon="1.24112">
        <ele>95.9</ele>
        <time>2026-07-12T07:29:59Z</time>
      </trkpt>
      <trkpt lat="44.46801" lon="1.24096">
        <ele>96</ele>
        <time>2026-07-12T07:30:01Z</time>
      </trkpt>
      <trkpt lat="44.46802" lon="1.24089">
        <ele>95.7</ele>
        <time>2026-07-12T07:30:02Z</time>
      </trkpt>
      <trkpt lat="44.46801" lon="1.24085">
        <ele>96</ele>
        <time>2026-07-12T07:30:03Z</time>
      </trkpt>
      <trkpt lat="44.46802" lon="1.24082">
        <ele>95.5</ele>
        <time>2026-07-12T07:30:04Z</time>
      </trkpt>
      <trkpt lat="44.46802" lon="1.2408">
        <ele>95.2</ele>
        <time>2026-07-12T07:30:05Z</time>
      </trkpt>
      <trkpt lat="44.46802" lon="1.24079">
        <ele>95.3</ele>
        <time>2026-07-12T07:30:06Z</time>
      </trkpt>
      <trkpt lat="44.46801" lon="1.24079">
        <ele>95.8</ele>
        <time>2026-07-12T07:30:07Z</time>
      </trkpt>
      <trkpt lat="44.46801" lon="1.24079">
        <ele>96.2</ele>
        <time>2026-07-12T07:30:08Z</time>
      </trkpt>
      <trkpt lat="44.46801" lon="1.24079">
        <ele>96.2</ele>
        <time>2026-07-12T07:30:09Z</time>
      </trkpt>
      <trkpt lat="44.46799" lon="1.24071">
        <ele>97.6</ele>
        <time>2026-07-12T07:30:54Z</time>
      </trkpt>
      <trkpt lat="44.46798" lon="1.24069">
        <ele>97.8</ele>
        <time>2026-07-12T07:30:55Z</time>
      </trkpt>
      <trkpt lat="44.46798" lon="1.24062">
        <ele>97.9</ele>
        <time>2026-07-12T07:30:57Z</time>
      </trkpt>
      <trkpt lat="44.46797" lon="1.24053">
        <ele>97.6</ele>
        <time>2026-07-12T07:30:59Z</time>
      </trkpt>
      <trkpt lat="44.46797" lon="1.24021">
        <ele>97.8</ele>
        <time>2026-07-12T07:31:05Z</time>
      </trkpt>
      <trkpt lat="44.46798" lon="1.24017">
        <ele>98</ele>
        <time>2026-07-12T07:31:06Z</time>
      </trkpt>
      <trkpt lat="44.46798" lon="1.24013">
        <ele>98.7</ele>
        <time>2026-07-12T07:31:07Z</time>
      </trkpt>
      <trkpt lat="44.46797" lon="1.24008">
        <ele>99.5</ele>
        <time>2026-07-12T07:31:08Z</time>
      </trkpt>
      <trkpt lat="44.46797" lon="1.23997">
        <ele>101.4</ele>
        <time>2026-07-12T07:31:10Z</time>
      </trkpt>
      <trkpt lat="44.46797" lon="1.23961">
        <ele>103.3</ele>
        <time>2026-07-12T07:31:16Z</time>
      </trkpt>
      <trkpt lat="44.468" lon="1.23939">
        <ele>101</ele>
        <time>2026-07-12T07:31:20Z</time>
      </trkpt>
      <trkpt lat="44.46802" lon="1.23933">
        <ele>100</ele>
        <time>2026-07-12T07:31:21Z</time>
      </trkpt>
      <trkpt lat="44.46806" lon="1.23917">
        <ele>97</ele>
        <time>2026-07-12T07:31:24Z</time>
      </trkpt>
      <trkpt lat="44.46808" lon="1.23907">
        <ele>100.9</ele>
        <time>2026-07-12T07:31:26Z</time>
      </trkpt>
      <trkpt lat="44.4681" lon="1.23901">
        <ele>102.6</ele>
        <time>2026-07-12T07:31:27Z</time>
      </trkpt>
      <trkpt lat="44.46814" lon="1.23891">
        <ele>104.1</ele>
        <time>2026-07-12T07:31:29Z</time>
      </trkpt>
      <trkpt lat="44.4683" lon="1.23857">
        <ele>97.4</ele>
        <time>2026-07-12T07:31:35Z</time>
      </trkpt>
      <trkpt lat="44.46834" lon="1.23851">
        <ele>96</ele>
        <time>2026-07-12T07:31:36Z</time>
      </trkpt>
      <trkpt lat="44.46841" lon="1.2384">
        <ele>97.8</ele>
        <time>2026-07-12T07:31:38Z</time>
      </trkpt>
      <trkpt lat="44.46847" lon="1.23827">
        <ele>99.7</ele>
        <time>2026-07-12T07:31:40Z</time>
      </trkpt>
      <trkpt lat="44.4685" lon="1.23821">
        <ele>100.5</ele>
        <time>2026-07-12T07:31:41Z</time>
      </trkpt>
      <trkpt lat="44.46853" lon="1.23815">
        <ele>99.9</ele>
        <time>2026-07-12T07:31:42Z</time>
      </trkpt>
      <trkpt lat="44.46861" lon="1.23804">
        <ele>97.7</ele>
        <time>2026-07-12T07:31:44Z</time>
      </trkpt>
      <trkpt lat="44.46868" lon="1.23795">
        <ele>103.3</ele>
        <time>2026-07-12T07:31:46Z</time>
      </trkpt>
      <trkpt lat="44.46878" lon="1.23788">
        <ele>101.8</ele>
        <time>2026-07-12T07:31:48Z</time>
      </trkpt>
      <trkpt lat="44.46883" lon="1.23785">
        <ele>98.8</ele>
        <time>2026-07-12T07:31:49Z</time>
      </trkpt>
      <trkpt lat="44.46894" lon="1.23779">
        <ele>94.3</ele>
        <time>2026-07-12T07:31:51Z</time>
      </trkpt>
      <trkpt lat="44.469" lon="1.23775">
        <ele>97.2</ele>
        <time>2026-07-12T07:31:52Z</time>
      </trkpt>
      <trkpt lat="44.46916" lon="1.23764">
        <ele>105.2</ele>
        <time>2026-07-12T07:31:55Z</time>
      </trkpt>
      <trkpt lat="44.46922" lon="1.23761">
        <ele>104.7</ele>
        <time>2026-07-12T07:31:56Z</time>
      </trkpt>
      <trkpt lat="44.46934" lon="1.23755">
        <ele>99.6</ele>
        <time>2026-07-12T07:31:58Z</time>
      </trkpt>
      <trkpt lat="44.46963" lon="1.2373">
        <ele>98.3</ele>
        <time>2026-07-12T07:32:04Z</time>
      </trkpt>
      <trkpt lat="44.46967" lon="1.23725">
        <ele>96.7</ele>
        <time>2026-07-12T07:32:05Z</time>
      </trkpt>
      <trkpt lat="44.46971" lon="1.23721">
        <ele>94.1</ele>
        <time>2026-07-12T07:32:06Z</time>
      </trkpt>
      <trkpt lat="44.46984" lon="1.23706">
        <ele>94.5</ele>
        <time>2026-07-12T07:32:09Z</time>
      </trkpt>
      <trkpt lat="44.46988" lon="1.23701">
        <ele>94.3</ele>
        <time>2026-07-12T07:32:10Z</time>
      </trkpt>
      <trkpt lat="44.46992" lon="1.23696">
        <ele>93.9</ele>
        <time>2026-07-12T07:32:11Z</time>
      </trkpt>
      <trkpt lat="44.46996" lon="1.23692">
        <ele>93.2</ele>
        <time>2026-07-12T07:32:12Z</time>
      </trkpt>
      <trkpt lat="44.47002" lon="1.23688">
        <ele>92.4</ele>
        <time>2026-07-12T07:32:13Z</time>
      </trkpt>
      <trkpt lat="44.4701" lon="1.23679">
        <ele>92.3</ele>
        <time>2026-07-12T07:32:15Z</time>
      </trkpt>
      <trkpt lat="44.47014" lon="1.23675">
        <ele>92.2</ele>
        <time>2026-07-12T07:32:16Z</time>
      </trkpt>
      <trkpt lat="44.47016" lon="1.23669">
        <ele>92.2</ele>
        <time>2026-07-12T07:32:17Z</time>
      </trkpt>
      <trkpt lat="44.47017" lon="1.23664">
        <ele>92.7</ele>
        <time>2026-07-12T07:32:18Z</time>
      </trkpt>
      <trkpt lat="44.47018" lon="1.23658">
        <ele>93.5</ele>
        <time>2026-07-12T07:32:19Z</time>
      </trkpt>
      <trkpt lat="44.47019" lon="1.23653">
        <ele>94.1</ele>
        <time>2026-07-12T07:32:20Z</time>
      </trkpt>
      <trkpt lat="44.47021" lon="1.23649">
        <ele>94.4</ele>
        <time>2026-07-12T07:32:21Z</time>
      </trkpt>
      <trkpt lat="44.47023" lon="1.23646">
        <ele>94.7</ele>
        <time>2026-07-12T07:32:22Z</time>
      </trkpt>
      <trkpt lat="44.47025" lon="1.23642">
        <ele>94.9</ele>
        <time>2026-07-12T07:32:23Z</time>
      </trkpt>
      <trkpt lat="44.47028" lon="1.23639">
        <ele>95</ele>
        <time>2026-07-12T07:32:24Z</time>
      </trkpt>
      <trkpt lat="44.47032" lon="1.23634">
        <ele>95.9</ele>
        <time>2026-07-12T07:32:26Z</time>
      </trkpt>
      <trkpt lat="44.47035" lon="1.23631">
        <ele>96.2</ele>
        <time>2026-07-12T07:32:27Z</time>
      </trkpt>
      <trkpt lat="44.47039" lon="1.23629">
        <ele>96.3</ele>
        <time>2026-07-12T07:32:28Z</time>
      </trkpt>
      <trkpt lat="44.47041" lon="1.23626">
        <ele>96.5</ele>
        <time>2026-07-12T07:32:29Z</time>
      </trkpt>
      <trkpt lat="44.47057" lon="1.23612">
        <ele>96.8</ele>
        <time>2026-07-12T07:32:35Z</time>
      </trkpt>
      <trkpt lat="44.47059" lon="1.2361">
        <ele>96.9</ele>
        <time>2026-07-12T07:32:36Z</time>
      </trkpt>
      <trkpt lat="44.4706" lon="1.23608">
        <ele>96.9</ele>
        <time>2026-07-12T07:32:37Z</time>
      </trkpt>
      <trkpt lat="44.47061" lon="1.23605">
        <ele>97.1</ele>
        <time>2026-07-12T07:32:38Z</time>
      </trkpt>
      <trkpt lat="44.47062" lon="1.23602">
        <ele>97.3</ele>
        <time>2026-07-12T07:32:39Z</time>
      </trkpt>
      <trkpt lat="44.47061" lon="1.236">
        <ele>97.5</ele>
        <time>2026-07-12T07:32:40Z</time>
      </trkpt>
      <trkpt lat="44.4706" lon="1.23598">
        <ele>97.7</ele>
        <time>2026-07-12T07:32:41Z</time>
      </trkpt>
      <trkpt lat="44.47059" lon="1.23598">
        <ele>97.8</ele>
        <time>2026-07-12T07:32:42Z</time>
      </trkpt>
      <trkpt lat="44.47056" lon="1.23599">
        <ele>97.9</ele>
        <time>2026-07-12T07:32:43Z</time>
      </trkpt>
      <trkpt lat="44.4705" lon="1.23601">
        <ele>99.7</ele>
        <time>2026-07-12T07:32:45Z</time>
      </trkpt>
      <trkpt lat="44.47048" lon="1.23603">
        <ele>100.3</ele>
        <time>2026-07-12T07:32:46Z</time>
      </trkpt>
      <trkpt lat="44.47045" lon="1.23605">
        <ele>100.6</ele>
        <time>2026-07-12T07:32:47Z</time>
      </trkpt>
      <trkpt lat="44.47042" lon="1.23608">
        <ele>100.9</ele>
        <time>2026-07-12T07:32:48Z</time>
      </trkpt>
      <trkpt lat="44.47039" lon="1.2361">
        <ele>101.1</ele>
        <time>2026-07-12T07:32:49Z</time>
      </trkpt>
      <trkpt lat="44.47036" lon="1.23612">
        <ele>101.1</ele>
        <time>2026-07-12T07:32:50Z</time>
      </trkpt>
      <trkpt lat="44.47033" lon="1.23614">
        <ele>101.1</ele>
        <time>2026-07-12T07:32:51Z</time>
      </trkpt>
      <trkpt lat="44.47031" lon="1.23616">
        <ele>100.9</ele>
        <time>2026-07-12T07:32:52Z</time>
      </trkpt>
      <trkpt lat="44.47029" lon="1.23618">
        <ele>100.7</ele>
        <time>2026-07-12T07:32:53Z</time>
      </trkpt>
      <trkpt lat="44.47026" lon="1.23621">
        <ele>100.8</ele>
        <time>2026-07-12T07:32:54Z</time>
      </trkpt>
      <trkpt lat="44.47023" lon="1.23622">
        <ele>101.3</ele>
        <time>2026-07-12T07:32:55Z</time>
      </trkpt>
      <trkpt lat="44.4702" lon="1.23624">
        <ele>101.4</ele>
        <time>2026-07-12T07:32:56Z</time>
      </trkpt>
      <trkpt lat="44.47017" lon="1.23626">
        <ele>101.6</ele>
        <time>2026-07-12T07:32:57Z</time>
      </trkpt>
      <trkpt lat="44.47015" lon="1.23627">
        <ele>101.9</ele>
        <time>2026-07-12T07:32:58Z</time>
      </trkpt>
      <trkpt lat="44.47013" lon="1.23628">
        <ele>101.6</ele>
        <time>2026-07-12T07:32:59Z</time>
      </trkpt>
      <trkpt lat="44.47012" lon="1.23631">
        <ele>100.7</ele>
        <time>2026-07-12T07:33:00Z</time>
      </trkpt>
      <trkpt lat="44.47012" lon="1.23633">
        <ele>99.9</ele>
        <time>2026-07-12T07:33:01Z</time>
      </trkpt>
      <trkpt lat="44.47011" lon="1.23634">
        <ele>99.7</ele>
        <time>2026-07-12T07:33:02Z</time>
      </trkpt>
      <trkpt lat="44.4701" lon="1.23634">
        <ele>99.6</ele>
        <time>2026-07-12T07:33:03Z</time>
      </trkpt>
      <trkpt lat="44.4701" lon="1.23634">
        <ele>99.6</ele>
        <time>2026-07-12T07:33:05Z</time>
      </trkpt>
      <trkpt lat="44.47006" lon="1.23636">
        <ele>99.8</ele>
        <time>2026-07-12T07:33:47Z</time>
      </trkpt>
      <trkpt lat="44.47005" lon="1.23636">
        <ele>99.6</ele>
        <time>2026-07-12T07:33:48Z</time>
      </trkpt>
      <trkpt lat="44.47004" lon="1.23637">
        <ele>99.5</ele>
        <time>2026-07-12T07:33:49Z</time>
      </trkpt>
      <trkpt lat="44.47003" lon="1.23637">
        <ele>99.4</ele>
        <time>2026-07-12T07:33:50Z</time>
      </trkpt>
      <trkpt lat="44.47003" lon="1.23637">
        <ele>99.4</ele>
        <time>2026-07-12T07:33:52Z</time>
      </trkpt>
      <trkpt lat="44.46998" lon="1.23639">
        <ele>99.5</ele>
        <time>2026-07-12T07:34:31Z</time>
      </trkpt>
      <trkpt lat="44.46996" lon="1.2364">
        <ele>99.9</ele>
        <time>2026-07-12T07:34:32Z</time>
      </trkpt>
      <trkpt lat="44.46988" lon="1.23638">
        <ele>102.2</ele>
        <time>2026-07-12T07:34:35Z</time>
      </trkpt>
      <trkpt lat="44.46985" lon="1.23637">
        <ele>103.6</ele>
        <time>2026-07-12T07:34:36Z</time>
      </trkpt>
      <trkpt lat="44.46981" lon="1.23635">
        <ele>105</ele>
        <time>2026-07-12T07:34:37Z</time>
      </trkpt>
      <trkpt lat="44.46979" lon="1.23635">
        <ele>105.8</ele>
        <time>2026-07-12T07:34:38Z</time>
      </trkpt>
      <trkpt lat="44.46976" lon="1.23634">
        <ele>106.6</ele>
        <time>2026-07-12T07:34:39Z</time>
      </trkpt>
      <trkpt lat="44.46973" lon="1.23633">
        <ele>107.3</ele>
        <time>2026-07-12T07:34:40Z</time>
      </trkpt>
      <trkpt lat="44.46971" lon="1.23632">
        <ele>108</ele>
        <time>2026-07-12T07:34:41Z</time>
      </trkpt>
      <trkpt lat="44.46968" lon="1.23631">
        <ele>108.7</ele>
        <time>2026-07-12T07:34:42Z</time>
      </trkpt>
      <trkpt lat="44.46966" lon="1.2363">
        <ele>109.3</ele>
        <time>2026-07-12T07:34:43Z</time>
      </trkpt>
      <trkpt lat="44.46951" lon="1.2363">
        <ele>112</ele>
        <time>2026-07-12T07:34:48Z</time>
      </trkpt>
      <trkpt lat="44.46947" lon="1.23631">
        <ele>112</ele>
        <time>2026-07-12T07:34:49Z</time>
      </trkpt>
      <trkpt lat="44.46944" lon="1.23632">
        <ele>112.2</ele>
        <time>2026-07-12T07:34:50Z</time>
      </trkpt>
      <trkpt lat="44.46941" lon="1.23633">
        <ele>112.2</ele>
        <time>2026-07-12T07:34:51Z</time>
      </trkpt>
      <trkpt lat="44.46938" lon="1.23635">
        <ele>111.9</ele>
        <time>2026-07-12T07:34:52Z</time>
      </trkpt>
      <trkpt lat="44.46935" lon="1.23636">
        <ele>111.9</ele>
        <time>2026-07-12T07:34:53Z</time>
      </trkpt>
      <trkpt lat="44.46932" lon="1.23638">
        <ele>111.8</ele>
        <time>2026-07-12T07:34:54Z</time>
      </trkpt>
      <trkpt lat="44.46928" lon="1.23638">
        <ele>112</ele>
        <time>2026-07-12T07:34:55Z</time>
      </trkpt>
      <trkpt lat="44.46925" lon="1.23639">
        <ele>112.2</ele>
        <time>2026-07-12T07:34:56Z</time>
      </trkpt>
      <trkpt lat="44.46921" lon="1.2364">
        <ele>112.8</ele>
        <time>2026-07-12T07:34:57Z</time>
      </trkpt>
      <trkpt lat="44.46918" lon="1.23641">
        <ele>113.3</ele>
        <time>2026-07-12T07:34:58Z</time>
      </trkpt>
      <trkpt lat="44.46914" lon="1.23641">
        <ele>114.2</ele>
        <time>2026-07-12T07:34:59Z</time>
      </trkpt>
      <trkpt lat="44.46911" lon="1.23643">
        <ele>115.2</ele>
        <time>2026-07-12T07:35:00Z</time>
      </trkpt>
      <trkpt lat="44.46907" lon="1.23644">
        <ele>116.1</ele>
        <time>2026-07-12T07:35:01Z</time>
      </trkpt>
      <trkpt lat="44.46905" lon="1.23647">
        <ele>116.8</ele>
        <time>2026-07-12T07:35:02Z</time>
      </trkpt>
      <trkpt lat="44.46903" lon="1.23649">
        <ele>117.2</ele>
        <time>2026-07-12T07:35:03Z</time>
      </trkpt>
      <trkpt lat="44.469" lon="1.23649">
        <ele>117.6</ele>
        <time>2026-07-12T07:35:04Z</time>
      </trkpt>
      <trkpt lat="44.46896" lon="1.23649">
        <ele>118</ele>
        <time>2026-07-12T07:35:05Z</time>
      </trkpt>
      <trkpt lat="44.46893" lon="1.23651">
        <ele>118.3</ele>
        <time>2026-07-12T07:35:06Z</time>
      </trkpt>
      <trkpt lat="44.46889" lon="1.23653">
        <ele>118.4</ele>
        <time>2026-07-12T07:35:07Z</time>
      </trkpt>
      <trkpt lat="44.46886" lon="1.23655">
        <ele>118.4</ele>
        <time>2026-07-12T07:35:08Z</time>
      </trkpt>
      <trkpt lat="44.46883" lon="1.23656">
        <ele>118.4</ele>
        <time>2026-07-12T07:35:09Z</time>
      </trkpt>
      <trkpt lat="44.46881" lon="1.23658">
        <ele>118.4</ele>
        <time>2026-07-12T07:35:10Z</time>
      </trkpt>
      <trkpt lat="44.46878" lon="1.23659">
        <ele>118.3</ele>
        <time>2026-07-12T07:35:11Z</time>
      </trkpt>
      <trkpt lat="44.46875" lon="1.23661">
        <ele>118.2</ele>
        <time>2026-07-12T07:35:12Z</time>
      </trkpt>
      <trkpt lat="44.46872" lon="1.23662">
        <ele>118.2</ele>
        <time>2026-07-12T07:35:13Z</time>
      </trkpt>
      <trkpt lat="44.46869" lon="1.23662">
        <ele>118.3</ele>
        <time>2026-07-12T07:35:14Z</time>
      </trkpt>
      <trkpt lat="44.46866" lon="1.23663">
        <ele>118.3</ele>
        <time>2026-07-12T07:35:15Z</time>
      </trkpt>
      <trkpt lat="44.46863" lon="1.23664">
        <ele>118.3</ele>
        <time>2026-07-12T07:35:16Z</time>
      </trkpt>
      <trkpt lat="44.4686" lon="1.23665">
        <ele>118.5</ele>
        <time>2026-07-12T07:35:17Z</time>
      </trkpt>
      <trkpt lat="44.46857" lon="1.23666">
        <ele>118.8</ele>
        <time>2026-07-12T07:35:18Z</time>
      </trkpt>
      <trkpt lat="44.46854" lon="1.23668">
        <ele>119.2</ele>
        <time>2026-07-12T07:35:19Z</time>
      </trkpt>
      <trkpt lat="44.46851" lon="1.23669">
        <ele>119.6</ele>
        <time>2026-07-12T07:35:20Z</time>
      </trkpt>
      <trkpt lat="44.46848" lon="1.23669">
        <ele>120</ele>
        <time>2026-07-12T07:35:21Z</time>
      </trkpt>
      <trkpt lat="44.46846" lon="1.23668">
        <ele>120.3</ele>
        <time>2026-07-12T07:35:22Z</time>
      </trkpt>
      <trkpt lat="44.46844" lon="1.23667">
        <ele>120.6</ele>
        <time>2026-07-12T07:35:23Z</time>
      </trkpt>
      <trkpt lat="44.46841" lon="1.23667">
        <ele>121</ele>
        <time>2026-07-12T07:35:24Z</time>
      </trkpt>
      <trkpt lat="44.46838" lon="1.23669">
        <ele>121.4</ele>
        <time>2026-07-12T07:35:25Z</time>
      </trkpt>
      <trkpt lat="44.46837" lon="1.23673">
        <ele>121.7</ele>
        <time>2026-07-12T07:35:26Z</time>
      </trkpt>
      <trkpt lat="44.46836" lon="1.23676">
        <ele>122</ele>
        <time>2026-07-12T07:35:27Z</time>
      </trkpt>
      <trkpt lat="44.46835" lon="1.23678">
        <ele>122.2</ele>
        <time>2026-07-12T07:35:28Z</time>
      </trkpt>
      <trkpt lat="44.46835" lon="1.23681">
        <ele>122.4</ele>
        <time>2026-07-12T07:35:29Z</time>
      </trkpt>
      <trkpt lat="44.46835" lon="1.23685">
        <ele>122.5</ele>
        <time>2026-07-12T07:35:30Z</time>
      </trkpt>
      <trkpt lat="44.46852" lon="1.23772">
        <ele>127.1</ele>
        <time>2026-07-12T07:35:51Z</time>
      </trkpt>
      <trkpt lat="44.46863" lon="1.23769">
        <ele>124.1</ele>
        <time>2026-07-12T07:35:56Z</time>
      </trkpt>
      <trkpt lat="44.46866" lon="1.23768">
        <ele>122.4</ele>
        <time>2026-07-12T07:35:57Z</time>
      </trkpt>
      <trkpt lat="44.46869" lon="1.23766">
        <ele>121</ele>
        <time>2026-07-12T07:35:58Z</time>
      </trkpt>
      <trkpt lat="44.46875" lon="1.23758">
        <ele>122.3</ele>
        <time>2026-07-12T07:36:00Z</time>
      </trkpt>
      <trkpt lat="44.46877" lon="1.23753">
        <ele>124.9</ele>
        <time>2026-07-12T07:36:01Z</time>
      </trkpt>
      <trkpt lat="44.46879" lon="1.23749">
        <ele>127</ele>
        <time>2026-07-12T07:36:02Z</time>
      </trkpt>
      <trkpt lat="44.46897" lon="1.2374">
        <ele>125.4</ele>
        <time>2026-07-12T07:36:11Z</time>
      </trkpt>
      <trkpt lat="44.46899" lon="1.2374">
        <ele>125.2</ele>
        <time>2026-07-12T07:36:12Z</time>
      </trkpt>
      <trkpt lat="44.469" lon="1.2374">
        <ele>125</ele>
        <time>2026-07-12T07:36:13Z</time>
      </trkpt>
      <trkpt lat="44.46902" lon="1.23739">
        <ele>124.8</ele>
        <time>2026-07-12T07:36:14Z</time>
      </trkpt>
      <trkpt lat="44.46904" lon="1.23738">
        <ele>124.8</ele>
        <time>2026-07-12T07:36:15Z</time>
      </trkpt>
      <trkpt lat="44.46906" lon="1.23734">
        <ele>125.5</ele>
        <time>2026-07-12T07:36:16Z</time>
      </trkpt>
      <trkpt lat="44.46907" lon="1.2373">
        <ele>126.6</ele>
        <time>2026-07-12T07:36:17Z</time>
      </trkpt>
      <trkpt lat="44.46906" lon="1.23725">
        <ele>127.7</ele>
        <time>2026-07-12T07:36:18Z</time>
      </trkpt>
      <trkpt lat="44.46925" lon="1.23697">
        <ele>127.9</ele>
        <time>2026-07-12T07:36:27Z</time>
      </trkpt>
      <trkpt lat="44.46928" lon="1.23695">
        <ele>127.7</ele>
        <time>2026-07-12T07:36:28Z</time>
      </trkpt>
      <trkpt lat="44.46931" lon="1.23692">
        <ele>127.1</ele>
        <time>2026-07-12T07:36:29Z</time>
      </trkpt>
      <trkpt lat="44.46933" lon="1.2369">
        <ele>126.5</ele>
        <time>2026-07-12T07:36:30Z</time>
      </trkpt>
      <trkpt lat="44.46935" lon="1.23687">
        <ele>126</ele>
        <time>2026-07-12T07:36:31Z</time>
      </trkpt>
      <trkpt lat="44.46937" lon="1.23685">
        <ele>125.7</ele>
        <time>2026-07-12T07:36:32Z</time>
      </trkpt>
      <trkpt lat="44.46938" lon="1.23682">
        <ele>125.4</ele>
        <time>2026-07-12T07:36:33Z</time>
      </trkpt>
      <trkpt lat="44.4694" lon="1.23681">
        <ele>125.3</ele>
        <time>2026-07-12T07:36:34Z</time>
      </trkpt>
      <trkpt lat="44.4694" lon="1.23679">
        <ele>125.2</ele>
        <time>2026-07-12T07:36:35Z</time>
      </trkpt>
      <trkpt lat="44.46941" lon="1.23677">
        <ele>125.1</ele>
        <time>2026-07-12T07:36:36Z</time>
      </trkpt>
      <trkpt lat="44.46941" lon="1.23677">
        <ele>125.2</ele>
        <time>2026-07-12T07:36:37Z</time>
      </trkpt>
      <trkpt lat="44.46941" lon="1.23677">
        <ele>125.2</ele>
        <time>2026-07-12T07:36:38Z</time>
      </trkpt>
      <trkpt lat="44.46941" lon="1.23676">
        <ele>125.1</ele>
        <time>2026-07-12T07:36:39Z</time>
      </trkpt>
      <trkpt lat="44.46941" lon="1.23675">
        <ele>125</ele>
        <time>2026-07-12T07:36:40Z</time>
      </trkpt>
      <trkpt lat="44.46942" lon="1.23674">
        <ele>125</ele>
        <time>2026-07-12T07:36:43Z</time>
      </trkpt>
      <trkpt lat="44.46939" lon="1.23682">
        <ele>125.4</ele>
        <time>2026-07-12T07:52:47Z</time>
      </trkpt>
      <trkpt lat="44.46938" lon="1.23684">
        <ele>125.6</ele>
        <time>2026-07-12T07:52:48Z</time>
      </trkpt>
      <trkpt lat="44.46937" lon="1.23685">
        <ele>125.7</ele>
        <time>2026-07-12T07:52:49Z</time>
      </trkpt>
      <trkpt lat="44.46936" lon="1.23686">
        <ele>125.9</ele>
        <time>2026-07-12T07:52:50Z</time>
      </trkpt>
      <trkpt lat="44.46929" lon="1.23684">
        <ele>125.5</ele>
        <time>2026-07-12T07:52:54Z</time>
      </trkpt>
      <trkpt lat="44.46912" lon="1.23684">
        <ele>124.8</ele>
      </trkpt>
      <trkpt lat="44.46893" lon="1.23705">
        <ele>124.5</ele>
      </trkpt>
      <trkpt lat="44.46844" lon="1.23723">
        <ele>125.1</ele>
      </trkpt>
      <trkpt lat="44.46835" lon="1.2368">
        <ele>122.3</ele>
        <time>2026-07-12T07:54:27Z</time>
      </trkpt>
      <trkpt lat="44.46832" lon="1.23677">
        <ele>122.5</ele>
        <time>2026-07-12T07:54:28Z</time>
      </trkpt>
      <trkpt lat="44.46828" lon="1.23676">
        <ele>122.8</ele>
        <time>2026-07-12T07:54:29Z</time>
      </trkpt>
      <trkpt lat="44.46825" lon="1.23677">
        <ele>123.2</ele>
        <time>2026-07-12T07:54:30Z</time>
      </trkpt>
      <trkpt lat="44.46821" lon="1.23677">
        <ele>123.5</ele>
        <time>2026-07-12T07:54:31Z</time>
      </trkpt>
      <trkpt lat="44.46814" lon="1.23678">
        <ele>124.2</ele>
        <time>2026-07-12T07:54:33Z</time>
      </trkpt>
      <trkpt lat="44.4681" lon="1.23679">
        <ele>124.6</ele>
        <time>2026-07-12T07:54:34Z</time>
      </trkpt>
      <trkpt lat="44.46806" lon="1.2368">
        <ele>124.9</ele>
        <time>2026-07-12T07:54:35Z</time>
      </trkpt>
      <trkpt lat="44.46799" lon="1.23681">
        <ele>126.2</ele>
        <time>2026-07-12T07:54:37Z</time>
      </trkpt>
      <trkpt lat="44.46795" lon="1.23683">
        <ele>126.7</ele>
        <time>2026-07-12T07:54:38Z</time>
      </trkpt>
      <trkpt lat="44.46789" lon="1.23687">
        <ele>127.5</ele>
        <time>2026-07-12T07:54:40Z</time>
      </trkpt>
      <trkpt lat="44.46785" lon="1.23689">
        <ele>127.8</ele>
        <time>2026-07-12T07:54:41Z</time>
      </trkpt>
      <trkpt lat="44.46782" lon="1.2369">
        <ele>128.1</ele>
        <time>2026-07-12T07:54:42Z</time>
      </trkpt>
      <trkpt lat="44.46775" lon="1.23693">
        <ele>128.5</ele>
        <time>2026-07-12T07:54:44Z</time>
      </trkpt>
      <trkpt lat="44.4677" lon="1.23697">
        <ele>128.9</ele>
        <time>2026-07-12T07:54:46Z</time>
      </trkpt>
      <trkpt lat="44.46767" lon="1.23699">
        <ele>129.2</ele>
        <time>2026-07-12T07:54:47Z</time>
      </trkpt>
      <trkpt lat="44.46764" lon="1.23701">
        <ele>129.5</ele>
        <time>2026-07-12T07:54:48Z</time>
      </trkpt>
      <trkpt lat="44.46761" lon="1.23703">
        <ele>129.8</ele>
        <time>2026-07-12T07:54:49Z</time>
      </trkpt>
      <trkpt lat="44.46754" lon="1.23706">
        <ele>130.3</ele>
        <time>2026-07-12T07:54:51Z</time>
      </trkpt>
      <trkpt lat="44.46743" lon="1.23712">
        <ele>131.3</ele>
        <time>2026-07-12T07:54:54Z</time>
      </trkpt>
      <trkpt lat="44.46734" lon="1.23715">
        <ele>131.9</ele>
        <time>2026-07-12T07:54:56Z</time>
      </trkpt>
      <trkpt lat="44.4673" lon="1.23717">
        <ele>132.1</ele>
        <time>2026-07-12T07:54:57Z</time>
      </trkpt>
      <trkpt lat="44.46726" lon="1.23719">
        <ele>132.2</ele>
        <time>2026-07-12T07:54:58Z</time>
      </trkpt>
      <trkpt lat="44.46722" lon="1.23721">
        <ele>132.2</ele>
        <time>2026-07-12T07:54:59Z</time>
      </trkpt>
      <trkpt lat="44.46718" lon="1.23723">
        <ele>132.4</ele>
        <time>2026-07-12T07:55:00Z</time>
      </trkpt>
      <trkpt lat="44.46714" lon="1.23724">
        <ele>132.8</ele>
        <time>2026-07-12T07:55:01Z</time>
      </trkpt>
      <trkpt lat="44.4671" lon="1.23726">
        <ele>133.2</ele>
        <time>2026-07-12T07:55:02Z</time>
      </trkpt>
      <trkpt lat="44.46706" lon="1.23727">
        <ele>133.6</ele>
        <time>2026-07-12T07:55:03Z</time>
      </trkpt>
      <trkpt lat="44.46701" lon="1.23728">
        <ele>134</ele>
        <time>2026-07-12T07:55:04Z</time>
      </trkpt>
      <trkpt lat="44.46697" lon="1.23728">
        <ele>134.4</ele>
        <time>2026-07-12T07:55:05Z</time>
      </trkpt>
      <trkpt lat="44.46693" lon="1.23727">
        <ele>134.8</ele>
        <time>2026-07-12T07:55:06Z</time>
      </trkpt>
      <trkpt lat="44.46689" lon="1.23726">
        <ele>135.2</ele>
        <time>2026-07-12T07:55:07Z</time>
      </trkpt>
      <trkpt lat="44.46684" lon="1.23725">
        <ele>135.5</ele>
        <time>2026-07-12T07:55:08Z</time>
      </trkpt>
      <trkpt lat="44.4668" lon="1.23724">
        <ele>135.9</ele>
        <time>2026-07-12T07:55:09Z</time>
      </trkpt>
      <trkpt lat="44.46676" lon="1.23723">
        <ele>136.3</ele>
        <time>2026-07-12T07:55:10Z</time>
      </trkpt>
      <trkpt lat="44.46671" lon="1.23722">
        <ele>136.7</ele>
        <time>2026-07-12T07:55:11Z</time>
      </trkpt>
      <trkpt lat="44.46667" lon="1.23721">
        <ele>137.3</ele>
        <time>2026-07-12T07:55:12Z</time>
      </trkpt>
      <trkpt lat="44.46662" lon="1.23721">
        <ele>137.9</ele>
        <time>2026-07-12T07:55:13Z</time>
      </trkpt>
      <trkpt lat="44.46657" lon="1.2372">
        <ele>138.5</ele>
        <time>2026-07-12T07:55:14Z</time>
      </trkpt>
      <trkpt lat="44.46653" lon="1.23719">
        <ele>139.1</ele>
        <time>2026-07-12T07:55:15Z</time>
      </trkpt>
      <trkpt lat="44.46648" lon="1.23719">
        <ele>139.5</ele>
        <time>2026-07-12T07:55:16Z</time>
      </trkpt>
      <trkpt lat="44.46643" lon="1.23719">
        <ele>139.8</ele>
        <time>2026-07-12T07:55:17Z</time>
      </trkpt>
      <trkpt lat="44.46639" lon="1.23719">
        <ele>140.2</ele>
        <time>2026-07-12T07:55:18Z</time>
      </trkpt>
      <trkpt lat="44.46634" lon="1.23719">
        <ele>140.6</ele>
        <time>2026-07-12T07:55:19Z</time>
      </trkpt>
      <trkpt lat="44.46629" lon="1.23719">
        <ele>141.2</ele>
        <time>2026-07-12T07:55:20Z</time>
      </trkpt>
      <trkpt lat="44.46624" lon="1.23719">
        <ele>141.8</ele>
        <time>2026-07-12T07:55:21Z</time>
      </trkpt>
      <trkpt lat="44.46619" lon="1.23719">
        <ele>142.3</ele>
        <time>2026-07-12T07:55:22Z</time>
      </trkpt>
      <trkpt lat="44.46614" lon="1.23719">
        <ele>142.8</ele>
        <time>2026-07-12T07:55:23Z</time>
      </trkpt>
      <trkpt lat="44.4661" lon="1.2372">
        <ele>143</ele>
        <time>2026-07-12T07:55:24Z</time>
      </trkpt>
      <trkpt lat="44.46605" lon="1.23721">
        <ele>143.3</ele>
        <time>2026-07-12T07:55:25Z</time>
      </trkpt>
      <trkpt lat="44.466" lon="1.23721">
        <ele>143.6</ele>
        <time>2026-07-12T07:55:26Z</time>
      </trkpt>
      <trkpt lat="44.46596" lon="1.23722">
        <ele>143.9</ele>
        <time>2026-07-12T07:55:27Z</time>
      </trkpt>
      <trkpt lat="44.46592" lon="1.23722">
        <ele>144.1</ele>
        <time>2026-07-12T07:55:28Z</time>
      </trkpt>
      <trkpt lat="44.46588" lon="1.23723">
        <ele>144.5</ele>
        <time>2026-07-12T07:55:29Z</time>
      </trkpt>
      <trkpt lat="44.46583" lon="1.23723">
        <ele>144.9</ele>
        <time>2026-07-12T07:55:30Z</time>
      </trkpt>
      <trkpt lat="44.46579" lon="1.23724">
        <ele>145.8</ele>
        <time>2026-07-12T07:55:31Z</time>
      </trkpt>
      <trkpt lat="44.46574" lon="1.23725">
        <ele>146.7</ele>
        <time>2026-07-12T07:55:32Z</time>
      </trkpt>
      <trkpt lat="44.46569" lon="1.23726">
        <ele>147.4</ele>
        <time>2026-07-12T07:55:33Z</time>
      </trkpt>
      <trkpt lat="44.46564" lon="1.23727">
        <ele>148</ele>
        <time>2026-07-12T07:55:34Z</time>
      </trkpt>
      <trkpt lat="44.4656" lon="1.23729">
        <ele>148.6</ele>
        <time>2026-07-12T07:55:35Z</time>
      </trkpt>
      <trkpt lat="44.46555" lon="1.2373">
        <ele>149.2</ele>
        <time>2026-07-12T07:55:36Z</time>
      </trkpt>
      <trkpt lat="44.4655" lon="1.23731">
        <ele>149.8</ele>
        <time>2026-07-12T07:55:37Z</time>
      </trkpt>
      <trkpt lat="44.46546" lon="1.23733">
        <ele>150.2</ele>
        <time>2026-07-12T07:55:38Z</time>
      </trkpt>
      <trkpt lat="44.46541" lon="1.23735">
        <ele>150.7</ele>
        <time>2026-07-12T07:55:39Z</time>
      </trkpt>
      <trkpt lat="44.46537" lon="1.23737">
        <ele>151.1</ele>
        <time>2026-07-12T07:55:40Z</time>
      </trkpt>
      <trkpt lat="44.46532" lon="1.23739">
        <ele>151.5</ele>
        <time>2026-07-12T07:55:41Z</time>
      </trkpt>
      <trkpt lat="44.46528" lon="1.2374">
        <ele>151.8</ele>
        <time>2026-07-12T07:55:42Z</time>
      </trkpt>
      <trkpt lat="44.46523" lon="1.23742">
        <ele>152.2</ele>
        <time>2026-07-12T07:55:43Z</time>
      </trkpt>
      <trkpt lat="44.46519" lon="1.23744">
        <ele>152.7</ele>
        <time>2026-07-12T07:55:44Z</time>
      </trkpt>
      <trkpt lat="44.46515" lon="1.23746">
        <ele>153</ele>
        <time>2026-07-12T07:55:45Z</time>
      </trkpt>
      <trkpt lat="44.4651" lon="1.23748">
        <ele>153.4</ele>
        <time>2026-07-12T07:55:46Z</time>
      </trkpt>
      <trkpt lat="44.46506" lon="1.2375">
        <ele>153.7</ele>
        <time>2026-07-12T07:55:47Z</time>
      </trkpt>
      <trkpt lat="44.46502" lon="1.23752">
        <ele>154.1</ele>
        <time>2026-07-12T07:55:48Z</time>
      </trkpt>
      <trkpt lat="44.46499" lon="1.23754">
        <ele>154.2</ele>
        <time>2026-07-12T07:55:49Z</time>
      </trkpt>
      <trkpt lat="44.46496" lon="1.23756">
        <ele>154.6</ele>
        <time>2026-07-12T07:55:50Z</time>
      </trkpt>
      <trkpt lat="44.46493" lon="1.23757">
        <ele>154.9</ele>
        <time>2026-07-12T07:55:51Z</time>
      </trkpt>
      <trkpt lat="44.4649" lon="1.23759">
        <ele>155.2</ele>
        <time>2026-07-12T07:55:52Z</time>
      </trkpt>
      <trkpt lat="44.46487" lon="1.2376">
        <ele>155.6</ele>
        <time>2026-07-12T07:55:53Z</time>
      </trkpt>
      <trkpt lat="44.46484" lon="1.23761">
        <ele>156</ele>
        <time>2026-07-12T07:55:54Z</time>
      </trkpt>
      <trkpt lat="44.46482" lon="1.23762">
        <ele>156.2</ele>
        <time>2026-07-12T07:55:55Z</time>
      </trkpt>
      <trkpt lat="44.46479" lon="1.23763">
        <ele>156.5</ele>
        <time>2026-07-12T07:55:56Z</time>
      </trkpt>
      <trkpt lat="44.46477" lon="1.23764">
        <ele>156.9</ele>
        <time>2026-07-12T07:55:57Z</time>
      </trkpt>
      <trkpt lat="44.46474" lon="1.23766">
        <ele>157</ele>
        <time>2026-07-12T07:55:58Z</time>
      </trkpt>
      <trkpt lat="44.46472" lon="1.23768">
        <ele>157</ele>
        <time>2026-07-12T07:55:59Z</time>
      </trkpt>
      <trkpt lat="44.46469" lon="1.2377">
        <ele>157.2</ele>
        <time>2026-07-12T07:56:00Z</time>
      </trkpt>
      <trkpt lat="44.46467" lon="1.23772">
        <ele>157.5</ele>
        <time>2026-07-12T07:56:01Z</time>
      </trkpt>
      <trkpt lat="44.46464" lon="1.23774">
        <ele>157.8</ele>
        <time>2026-07-12T07:56:02Z</time>
      </trkpt>
      <trkpt lat="44.46461" lon="1.23776">
        <ele>158.1</ele>
        <time>2026-07-12T07:56:03Z</time>
      </trkpt>
      <trkpt lat="44.46458" lon="1.23778">
        <ele>158.6</ele>
        <time>2026-07-12T07:56:04Z</time>
      </trkpt>
      <trkpt lat="44.46455" lon="1.2378">
        <ele>159.2</ele>
        <time>2026-07-12T07:56:05Z</time>
      </trkpt>
      <trkpt lat="44.46451" lon="1.23783">
        <ele>159.7</ele>
        <time>2026-07-12T07:56:06Z</time>
      </trkpt>
      <trkpt lat="44.46448" lon="1.23786">
        <ele>160.1</ele>
        <time>2026-07-12T07:56:07Z</time>
      </trkpt>
      <trkpt lat="44.46444" lon="1.23789">
        <ele>160.5</ele>
        <time>2026-07-12T07:56:08Z</time>
      </trkpt>
      <trkpt lat="44.46441" lon="1.23792">
        <ele>161.2</ele>
        <time>2026-07-12T07:56:09Z</time>
      </trkpt>
      <trkpt lat="44.46438" lon="1.23796">
        <ele>161.7</ele>
        <time>2026-07-12T07:56:10Z</time>
      </trkpt>
      <trkpt lat="44.46435" lon="1.23799">
        <ele>161.9</ele>
        <time>2026-07-12T07:56:11Z</time>
      </trkpt>
      <trkpt lat="44.46432" lon="1.23803">
        <ele>162.2</ele>
        <time>2026-07-12T07:56:12Z</time>
      </trkpt>
      <trkpt lat="44.46429" lon="1.23806">
        <ele>162.5</ele>
        <time>2026-07-12T07:56:13Z</time>
      </trkpt>
      <trkpt lat="44.46425" lon="1.2381">
        <ele>163</ele>
        <time>2026-07-12T07:56:14Z</time>
      </trkpt>
      <trkpt lat="44.46422" lon="1.23813">
        <ele>163.3</ele>
        <time>2026-07-12T07:56:15Z</time>
      </trkpt>
      <trkpt lat="44.46418" lon="1.23817">
        <ele>163.7</ele>
        <time>2026-07-12T07:56:16Z</time>
      </trkpt>
      <trkpt lat="44.46415" lon="1.2382">
        <ele>164.1</ele>
        <time>2026-07-12T07:56:17Z</time>
      </trkpt>
      <trkpt lat="44.46411" lon="1.23823">
        <ele>164.5</ele>
        <time>2026-07-12T07:56:18Z</time>
      </trkpt>
      <trkpt lat="44.46408" lon="1.23826">
        <ele>164.9</ele>
        <time>2026-07-12T07:56:19Z</time>
      </trkpt>
      <trkpt lat="44.46405" lon="1.23829">
        <ele>165.3</ele>
        <time>2026-07-12T07:56:20Z</time>
      </trkpt>
      <trkpt lat="44.46402" lon="1.23832">
        <ele>165.6</ele>
        <time>2026-07-12T07:56:21Z</time>
      </trkpt>
      <trkpt lat="44.46398" lon="1.23836">
        <ele>166.1</ele>
        <time>2026-07-12T07:56:22Z</time>
      </trkpt>
      <trkpt lat="44.46395" lon="1.23838">
        <ele>166.6</ele>
        <time>2026-07-12T07:56:23Z</time>
      </trkpt>
      <trkpt lat="44.46392" lon="1.23841">
        <ele>167</ele>
        <time>2026-07-12T07:56:24Z</time>
      </trkpt>
      <trkpt lat="44.46388" lon="1.23843">
        <ele>167.3</ele>
        <time>2026-07-12T07:56:25Z</time>
      </trkpt>
      <trkpt lat="44.46385" lon="1.23846">
        <ele>167.2</ele>
        <time>2026-07-12T07:56:26Z</time>
      </trkpt>
      <trkpt lat="44.46382" lon="1.23848">
        <ele>167.2</ele>
        <time>2026-07-12T07:56:27Z</time>
      </trkpt>
      <trkpt lat="44.46378" lon="1.23849">
        <ele>167.4</ele>
        <time>2026-07-12T07:56:28Z</time>
      </trkpt>
      <trkpt lat="44.46375" lon="1.2385">
        <ele>167.7</ele>
        <time>2026-07-12T07:56:29Z</time>
      </trkpt>
      <trkpt lat="44.46371" lon="1.23851">
        <ele>168</ele>
        <time>2026-07-12T07:56:30Z</time>
      </trkpt>
      <trkpt lat="44.46367" lon="1.23852">
        <ele>168.4</ele>
        <time>2026-07-12T07:56:31Z</time>
      </trkpt>
      <trkpt lat="44.46363" lon="1.23853">
        <ele>168.8</ele>
        <time>2026-07-12T07:56:32Z</time>
      </trkpt>
      <trkpt lat="44.46359" lon="1.23854">
        <ele>169.1</ele>
        <time>2026-07-12T07:56:33Z</time>
      </trkpt>
      <trkpt lat="44.46355" lon="1.23854">
        <ele>169.6</ele>
        <time>2026-07-12T07:56:34Z</time>
      </trkpt>
      <trkpt lat="44.46351" lon="1.23855">
        <ele>170.2</ele>
        <time>2026-07-12T07:56:35Z</time>
      </trkpt>
      <trkpt lat="44.46347" lon="1.23855">
        <ele>170.9</ele>
        <time>2026-07-12T07:56:36Z</time>
      </trkpt>
      <trkpt lat="44.46343" lon="1.23856">
        <ele>171.7</ele>
        <time>2026-07-12T07:56:37Z</time>
      </trkpt>
      <trkpt lat="44.46339" lon="1.23856">
        <ele>172.3</ele>
        <time>2026-07-12T07:56:38Z</time>
      </trkpt>
      <trkpt lat="44.46335" lon="1.23856">
        <ele>173.1</ele>
        <time>2026-07-12T07:56:39Z</time>
      </trkpt>
      <trkpt lat="44.46331" lon="1.23857">
        <ele>173.7</ele>
        <time>2026-07-12T07:56:40Z</time>
      </trkpt>
      <trkpt lat="44.46327" lon="1.23858">
        <ele>174.1</ele>
        <time>2026-07-12T07:56:41Z</time>
      </trkpt>
      <trkpt lat="44.46323" lon="1.23859">
        <ele>174.6</ele>
        <time>2026-07-12T07:56:42Z</time>
      </trkpt>
      <trkpt lat="44.46319" lon="1.23859">
        <ele>175.1</ele>
        <time>2026-07-12T07:56:43Z</time>
      </trkpt>
      <trkpt lat="44.46315" lon="1.2386">
        <ele>175.7</ele>
        <time>2026-07-12T07:56:44Z</time>
      </trkpt>
      <trkpt lat="44.46311" lon="1.2386">
        <ele>176.2</ele>
        <time>2026-07-12T07:56:45Z</time>
      </trkpt>
      <trkpt lat="44.46307" lon="1.23861">
        <ele>176.7</ele>
        <time>2026-07-12T07:56:46Z</time>
      </trkpt>
      <trkpt lat="44.46303" lon="1.23862">
        <ele>177.3</ele>
        <time>2026-07-12T07:56:47Z</time>
      </trkpt>
      <trkpt lat="44.463" lon="1.23863">
        <ele>177.9</ele>
        <time>2026-07-12T07:56:48Z</time>
      </trkpt>
      <trkpt lat="44.46296" lon="1.23864">
        <ele>178.4</ele>
        <time>2026-07-12T07:56:49Z</time>
      </trkpt>
      <trkpt lat="44.46292" lon="1.23865">
        <ele>178.8</ele>
        <time>2026-07-12T07:56:50Z</time>
      </trkpt>
      <trkpt lat="44.46289" lon="1.23866">
        <ele>179.3</ele>
        <time>2026-07-12T07:56:51Z</time>
      </trkpt>
      <trkpt lat="44.46285" lon="1.23866">
        <ele>179.8</ele>
        <time>2026-07-12T07:56:52Z</time>
      </trkpt>
      <trkpt lat="44.46282" lon="1.23867">
        <ele>180.3</ele>
        <time>2026-07-12T07:56:53Z</time>
      </trkpt>
      <trkpt lat="44.46278" lon="1.23868">
        <ele>180.9</ele>
        <time>2026-07-12T07:56:54Z</time>
      </trkpt>
      <trkpt lat="44.46274" lon="1.23868">
        <ele>181.2</ele>
        <time>2026-07-12T07:56:55Z</time>
      </trkpt>
      <trkpt lat="44.4627" lon="1.23869">
        <ele>181.5</ele>
        <time>2026-07-12T07:56:56Z</time>
      </trkpt>
      <trkpt lat="44.46266" lon="1.2387">
        <ele>181.8</ele>
        <time>2026-07-12T07:56:57Z</time>
      </trkpt>
      <trkpt lat="44.46262" lon="1.2387">
        <ele>182.2</ele>
        <time>2026-07-12T07:56:58Z</time>
      </trkpt>
      <trkpt lat="44.46258" lon="1.2387">
        <ele>182.7</ele>
        <time>2026-07-12T07:56:59Z</time>
      </trkpt>
      <trkpt lat="44.46254" lon="1.2387">
        <ele>183.1</ele>
        <time>2026-07-12T07:57:00Z</time>
      </trkpt>
      <trkpt lat="44.46251" lon="1.23871">
        <ele>183.5</ele>
        <time>2026-07-12T07:57:01Z</time>
      </trkpt>
      <trkpt lat="44.46247" lon="1.23871">
        <ele>183.8</ele>
        <time>2026-07-12T07:57:02Z</time>
      </trkpt>
      <trkpt lat="44.46242" lon="1.23872">
        <ele>184.2</ele>
        <time>2026-07-12T07:57:03Z</time>
      </trkpt>
      <trkpt lat="44.46238" lon="1.23871">
        <ele>184.7</ele>
        <time>2026-07-12T07:57:04Z</time>
      </trkpt>
      <trkpt lat="44.46234" lon="1.23871">
        <ele>185.4</ele>
        <time>2026-07-12T07:57:05Z</time>
      </trkpt>
      <trkpt lat="44.4623" lon="1.23871">
        <ele>185.9</ele>
        <time>2026-07-12T07:57:06Z</time>
      </trkpt>
      <trkpt lat="44.46226" lon="1.23871">
        <ele>186.4</ele>
        <time>2026-07-12T07:57:07Z</time>
      </trkpt>
      <trkpt lat="44.46222" lon="1.23871">
        <ele>186.9</ele>
        <time>2026-07-12T07:57:08Z</time>
      </trkpt>
      <trkpt lat="44.46217" lon="1.23871">
        <ele>187.5</ele>
        <time>2026-07-12T07:57:09Z</time>
      </trkpt>
      <trkpt lat="44.46213" lon="1.23871">
        <ele>188.1</ele>
        <time>2026-07-12T07:57:10Z</time>
      </trkpt>
      <trkpt lat="44.46207" lon="1.23871">
        <ele>188.9</ele>
        <time>2026-07-12T07:57:11Z</time>
      </trkpt>
      <trkpt lat="44.46203" lon="1.23872">
        <ele>189.3</ele>
        <time>2026-07-12T07:57:12Z</time>
      </trkpt>
      <trkpt lat="44.462" lon="1.23872">
        <ele>189.7</ele>
        <time>2026-07-12T07:57:13Z</time>
      </trkpt>
      <trkpt lat="44.46195" lon="1.23873">
        <ele>190.2</ele>
        <time>2026-07-12T07:57:14Z</time>
      </trkpt>
      <trkpt lat="44.46191" lon="1.23873">
        <ele>190.9</ele>
        <time>2026-07-12T07:57:15Z</time>
      </trkpt>
      <trkpt lat="44.46186" lon="1.23874">
        <ele>191.7</ele>
        <time>2026-07-12T07:57:16Z</time>
      </trkpt>
      <trkpt lat="44.46182" lon="1.23875">
        <ele>192.5</ele>
        <time>2026-07-12T07:57:17Z</time>
      </trkpt>
      <trkpt lat="44.46177" lon="1.23876">
        <ele>193.2</ele>
        <time>2026-07-12T07:57:18Z</time>
      </trkpt>
      <trkpt lat="44.46173" lon="1.23878">
        <ele>193.6</ele>
        <time>2026-07-12T07:57:19Z</time>
      </trkpt>
      <trkpt lat="44.46169" lon="1.23879">
        <ele>193.9</ele>
        <time>2026-07-12T07:57:20Z</time>
      </trkpt>
      <trkpt lat="44.46165" lon="1.23881">
        <ele>194.4</ele>
        <time>2026-07-12T07:57:21Z</time>
      </trkpt>
      <trkpt lat="44.46161" lon="1.23883">
        <ele>195.1</ele>
        <time>2026-07-12T07:57:22Z</time>
      </trkpt>
      <trkpt lat="44.46157" lon="1.23885">
        <ele>195.6</ele>
        <time>2026-07-12T07:57:23Z</time>
      </trkpt>
      <trkpt lat="44.46153" lon="1.23887">
        <ele>196.1</ele>
        <time>2026-07-12T07:57:24Z</time>
      </trkpt>
      <trkpt lat="44.46149" lon="1.23889">
        <ele>196.7</ele>
        <time>2026-07-12T07:57:25Z</time>
      </trkpt>
      <trkpt lat="44.46145" lon="1.23892">
        <ele>197.6</ele>
        <time>2026-07-12T07:57:26Z</time>
      </trkpt>
      <trkpt lat="44.46142" lon="1.23895">
        <ele>198.2</ele>
        <time>2026-07-12T07:57:27Z</time>
      </trkpt>
      <trkpt lat="44.46138" lon="1.23898">
        <ele>198.9</ele>
        <time>2026-07-12T07:57:28Z</time>
      </trkpt>
      <trkpt lat="44.46135" lon="1.23902">
        <ele>199.3</ele>
        <time>2026-07-12T07:57:29Z</time>
      </trkpt>
      <trkpt lat="44.46132" lon="1.23905">
        <ele>199.8</ele>
        <time>2026-07-12T07:57:30Z</time>
      </trkpt>
      <trkpt lat="44.46128" lon="1.23909">
        <ele>200.1</ele>
        <time>2026-07-12T07:57:31Z</time>
      </trkpt>
      <trkpt lat="44.46125" lon="1.23911">
        <ele>200.6</ele>
        <time>2026-07-12T07:57:32Z</time>
      </trkpt>
      <trkpt lat="44.46121" lon="1.23914">
        <ele>200.9</ele>
        <time>2026-07-12T07:57:33Z</time>
      </trkpt>
      <trkpt lat="44.46118" lon="1.23917">
        <ele>201.2</ele>
        <time>2026-07-12T07:57:34Z</time>
      </trkpt>
      <trkpt lat="44.46117" lon="1.23922">
        <ele>202.2</ele>
        <time>2026-07-12T07:57:35Z</time>
      </trkpt>
      <trkpt lat="44.46116" lon="1.23927">
        <ele>202.9</ele>
        <time>2026-07-12T07:57:36Z</time>
      </trkpt>
      <trkpt lat="44.46117" lon="1.23933">
        <ele>203.3</ele>
        <time>2026-07-12T07:57:37Z</time>
      </trkpt>
      <trkpt lat="44.46119" lon="1.23939">
        <ele>203.5</ele>
        <time>2026-07-12T07:57:38Z</time>
      </trkpt>
      <trkpt lat="44.46121" lon="1.23943">
        <ele>203.4</ele>
        <time>2026-07-12T07:57:39Z</time>
      </trkpt>
      <trkpt lat="44.46124" lon="1.23947">
        <ele>203.5</ele>
        <time>2026-07-12T07:57:40Z</time>
      </trkpt>
      <trkpt lat="44.46129" lon="1.23951">
        <ele>203.8</ele>
        <time>2026-07-12T07:57:41Z</time>
      </trkpt>
      <trkpt lat="44.46133" lon="1.23954">
        <ele>204</ele>
        <time>2026-07-12T07:57:42Z</time>
      </trkpt>
      <trkpt lat="44.46138" lon="1.23957">
        <ele>203.9</ele>
        <time>2026-07-12T07:57:43Z</time>
      </trkpt>
      <trkpt lat="44.46142" lon="1.23961">
        <ele>204.3</ele>
        <time>2026-07-12T07:57:44Z</time>
      </trkpt>
      <trkpt lat="44.46147" lon="1.23964">
        <ele>205</ele>
        <time>2026-07-12T07:57:45Z</time>
      </trkpt>
      <trkpt lat="44.46153" lon="1.23967">
        <ele>205.6</ele>
        <time>2026-07-12T07:57:46Z</time>
      </trkpt>
      <trkpt lat="44.46158" lon="1.2397">
        <ele>206.1</ele>
        <time>2026-07-12T07:57:47Z</time>
      </trkpt>
      <trkpt lat="44.46163" lon="1.23973">
        <ele>206.6</ele>
        <time>2026-07-12T07:57:48Z</time>
      </trkpt>
      <trkpt lat="44.46168" lon="1.23976">
        <ele>207.1</ele>
        <time>2026-07-12T07:57:49Z</time>
      </trkpt>
      <trkpt lat="44.46173" lon="1.23978">
        <ele>207.5</ele>
        <time>2026-07-12T07:57:50Z</time>
      </trkpt>
      <trkpt lat="44.46179" lon="1.23981">
        <ele>207.8</ele>
        <time>2026-07-12T07:57:51Z</time>
      </trkpt>
      <trkpt lat="44.46184" lon="1.23985">
        <ele>208.4</ele>
        <time>2026-07-12T07:57:52Z</time>
      </trkpt>
      <trkpt lat="44.4619" lon="1.23988">
        <ele>208.9</ele>
        <time>2026-07-12T07:57:53Z</time>
      </trkpt>
      <trkpt lat="44.46195" lon="1.23991">
        <ele>209.4</ele>
        <time>2026-07-12T07:57:54Z</time>
      </trkpt>
      <trkpt lat="44.462" lon="1.23994">
        <ele>209.8</ele>
        <time>2026-07-12T07:57:55Z</time>
      </trkpt>
      <trkpt lat="44.46205" lon="1.23998">
        <ele>210.2</ele>
        <time>2026-07-12T07:57:56Z</time>
      </trkpt>
      <trkpt lat="44.4621" lon="1.24001">
        <ele>210.6</ele>
        <time>2026-07-12T07:57:57Z</time>
      </trkpt>
      <trkpt lat="44.46215" lon="1.24005">
        <ele>211.2</ele>
        <time>2026-07-12T07:57:58Z</time>
      </trkpt>
      <trkpt lat="44.46219" lon="1.24008">
        <ele>211.5</ele>
        <time>2026-07-12T07:57:59Z</time>
      </trkpt>
      <trkpt lat="44.46223" lon="1.24011">
        <ele>211.8</ele>
        <time>2026-07-12T07:58:00Z</time>
      </trkpt>
      <trkpt lat="44.46227" lon="1.24014">
        <ele>212.3</ele>
        <time>2026-07-12T07:58:01Z</time>
      </trkpt>
      <trkpt lat="44.4623" lon="1.24016">
        <ele>212.8</ele>
        <time>2026-07-12T07:58:02Z</time>
      </trkpt>
      <trkpt lat="44.46233" lon="1.24018">
        <ele>213.1</ele>
        <time>2026-07-12T07:58:03Z</time>
      </trkpt>
      <trkpt lat="44.46237" lon="1.24021">
        <ele>213.5</ele>
        <time>2026-07-12T07:58:04Z</time>
      </trkpt>
      <trkpt lat="44.4624" lon="1.24023">
        <ele>214</ele>
        <time>2026-07-12T07:58:05Z</time>
      </trkpt>
      <trkpt lat="44.46243" lon="1.24025">
        <ele>214.2</ele>
        <time>2026-07-12T07:58:06Z</time>
      </trkpt>
      <trkpt lat="44.46246" lon="1.24028">
        <ele>214.5</ele>
        <time>2026-07-12T07:58:07Z</time>
      </trkpt>
      <trkpt lat="44.4625" lon="1.2403">
        <ele>214.7</ele>
        <time>2026-07-12T07:58:08Z</time>
      </trkpt>
      <trkpt lat="44.46253" lon="1.24032">
        <ele>214.9</ele>
        <time>2026-07-12T07:58:09Z</time>
      </trkpt>
      <trkpt lat="44.46257" lon="1.24034">
        <ele>215.2</ele>
        <time>2026-07-12T07:58:10Z</time>
      </trkpt>
      <trkpt lat="44.4626" lon="1.24036">
        <ele>215.5</ele>
        <time>2026-07-12T07:58:11Z</time>
      </trkpt>
      <trkpt lat="44.46264" lon="1.24039">
        <ele>215.9</ele>
        <time>2026-07-12T07:58:12Z</time>
      </trkpt>
      <trkpt lat="44.46267" lon="1.24041">
        <ele>216.2</ele>
        <time>2026-07-12T07:58:13Z</time>
      </trkpt>
      <trkpt lat="44.4627" lon="1.24043">
        <ele>216.6</ele>
        <time>2026-07-12T07:58:14Z</time>
      </trkpt>
      <trkpt lat="44.46274" lon="1.24045">
        <ele>216.8</ele>
        <time>2026-07-12T07:58:15Z</time>
      </trkpt>
      <trkpt lat="44.46277" lon="1.24046">
        <ele>217.1</ele>
        <time>2026-07-12T07:58:16Z</time>
      </trkpt>
      <trkpt lat="44.4628" lon="1.24048">
        <ele>217.5</ele>
        <time>2026-07-12T07:58:17Z</time>
      </trkpt>
      <trkpt lat="44.46283" lon="1.2405">
        <ele>218.1</ele>
        <time>2026-07-12T07:58:18Z</time>
      </trkpt>
      <trkpt lat="44.46287" lon="1.24052">
        <ele>218.7</ele>
        <time>2026-07-12T07:58:19Z</time>
      </trkpt>
      <trkpt lat="44.4629" lon="1.24053">
        <ele>219.2</ele>
        <time>2026-07-12T07:58:20Z</time>
      </trkpt>
      <trkpt lat="44.46294" lon="1.24055">
        <ele>219.7</ele>
        <time>2026-07-12T07:58:21Z</time>
      </trkpt>
      <trkpt lat="44.46297" lon="1.24056">
        <ele>220.1</ele>
        <time>2026-07-12T07:58:22Z</time>
      </trkpt>
      <trkpt lat="44.463" lon="1.24057">
        <ele>220.4</ele>
        <time>2026-07-12T07:58:23Z</time>
      </trkpt>
      <trkpt lat="44.46304" lon="1.24058">
        <ele>220.7</ele>
        <time>2026-07-12T07:58:24Z</time>
      </trkpt>
      <trkpt lat="44.46308" lon="1.2406">
        <ele>221</ele>
        <time>2026-07-12T07:58:25Z</time>
      </trkpt>
      <trkpt lat="44.46311" lon="1.24061">
        <ele>221.4</ele>
        <time>2026-07-12T07:58:26Z</time>
      </trkpt>
      <trkpt lat="44.46315" lon="1.24062">
        <ele>221.6</ele>
        <time>2026-07-12T07:58:27Z</time>
      </trkpt>
      <trkpt lat="44.46318" lon="1.24064">
        <ele>221.9</ele>
        <time>2026-07-12T07:58:28Z</time>
      </trkpt>
      <trkpt lat="44.46322" lon="1.24065">
        <ele>222.1</ele>
        <time>2026-07-12T07:58:29Z</time>
      </trkpt>
      <trkpt lat="44.46325" lon="1.24066">
        <ele>222.3</ele>
        <time>2026-07-12T07:58:30Z</time>
      </trkpt>
      <trkpt lat="44.46329" lon="1.24067">
        <ele>222.6</ele>
        <time>2026-07-12T07:58:31Z</time>
      </trkpt>
      <trkpt lat="44.46332" lon="1.24069">
        <ele>222.8</ele>
        <time>2026-07-12T07:58:32Z</time>
      </trkpt>
      <trkpt lat="44.46336" lon="1.2407">
        <ele>223.2</ele>
        <time>2026-07-12T07:58:33Z</time>
      </trkpt>
      <trkpt lat="44.46339" lon="1.24072">
        <ele>223.7</ele>
        <time>2026-07-12T07:58:34Z</time>
      </trkpt>
      <trkpt lat="44.4634" lon="1.24074">
        <ele>224.4</ele>
        <time>2026-07-12T07:58:35Z</time>
      </trkpt>
      <trkpt lat="44.46341" lon="1.24077">
        <ele>225.1</ele>
        <time>2026-07-12T07:58:36Z</time>
      </trkpt>
      <trkpt lat="44.4634" lon="1.2408">
        <ele>225.8</ele>
        <time>2026-07-12T07:58:37Z</time>
      </trkpt>
      <trkpt lat="44.46338" lon="1.24083">
        <ele>226.2</ele>
        <time>2026-07-12T07:58:38Z</time>
      </trkpt>
      <trkpt lat="44.46335" lon="1.24084">
        <ele>226.3</ele>
        <time>2026-07-12T07:58:39Z</time>
      </trkpt>
      <trkpt lat="44.46332" lon="1.24085">
        <ele>226.4</ele>
        <time>2026-07-12T07:58:40Z</time>
      </trkpt>
      <trkpt lat="44.46328" lon="1.24086">
        <ele>226.7</ele>
        <time>2026-07-12T07:58:41Z</time>
      </trkpt>
      <trkpt lat="44.46323" lon="1.24088">
        <ele>227</ele>
        <time>2026-07-12T07:58:42Z</time>
      </trkpt>
      <trkpt lat="44.46319" lon="1.24089">
        <ele>227.4</ele>
        <time>2026-07-12T07:58:43Z</time>
      </trkpt>
      <trkpt lat="44.46315" lon="1.24091">
        <ele>227.7</ele>
        <time>2026-07-12T07:58:44Z</time>
      </trkpt>
      <trkpt lat="44.46312" lon="1.24093">
        <ele>228</ele>
        <time>2026-07-12T07:58:45Z</time>
      </trkpt>
      <trkpt lat="44.46308" lon="1.24094">
        <ele>228.2</ele>
        <time>2026-07-12T07:58:46Z</time>
      </trkpt>
      <trkpt lat="44.46305" lon="1.24096">
        <ele>228.3</ele>
        <time>2026-07-12T07:58:47Z</time>
      </trkpt>
      <trkpt lat="44.46302" lon="1.24097">
        <ele>228.5</ele>
        <time>2026-07-12T07:58:48Z</time>
      </trkpt>
      <trkpt lat="44.46298" lon="1.24099">
        <ele>228.7</ele>
        <time>2026-07-12T07:58:49Z</time>
      </trkpt>
      <trkpt lat="44.46294" lon="1.241">
        <ele>228.8</ele>
        <time>2026-07-12T07:58:50Z</time>
      </trkpt>
      <trkpt lat="44.46291" lon="1.24102">
        <ele>229</ele>
        <time>2026-07-12T07:58:51Z</time>
      </trkpt>
      <trkpt lat="44.46288" lon="1.24103">
        <ele>229.1</ele>
        <time>2026-07-12T07:58:52Z</time>
      </trkpt>
      <trkpt lat="44.46285" lon="1.24104">
        <ele>229.3</ele>
        <time>2026-07-12T07:58:53Z</time>
      </trkpt>
      <trkpt lat="44.46282" lon="1.24105">
        <ele>229.4</ele>
        <time>2026-07-12T07:58:54Z</time>
      </trkpt>
      <trkpt lat="44.46279" lon="1.24106">
        <ele>229.5</ele>
        <time>2026-07-12T07:58:55Z</time>
      </trkpt>
      <trkpt lat="44.46276" lon="1.24108">
        <ele>229.8</ele>
        <time>2026-07-12T07:58:56Z</time>
      </trkpt>
      <trkpt lat="44.46274" lon="1.24111">
        <ele>230.2</ele>
        <time>2026-07-12T07:58:57Z</time>
      </trkpt>
      <trkpt lat="44.46273" lon="1.24114">
        <ele>230.5</ele>
        <time>2026-07-12T07:58:58Z</time>
      </trkpt>
      <trkpt lat="44.46274" lon="1.24117">
        <ele>230.5</ele>
        <time>2026-07-12T07:58:59Z</time>
      </trkpt>
      <trkpt lat="44.46277" lon="1.2412">
        <ele>230.4</ele>
        <time>2026-07-12T07:59:00Z</time>
      </trkpt>
      <trkpt lat="44.4628" lon="1.24122">
        <ele>230.4</ele>
        <time>2026-07-12T07:59:01Z</time>
      </trkpt>
      <trkpt lat="44.46283" lon="1.24123">
        <ele>230.4</ele>
        <time>2026-07-12T07:59:02Z</time>
      </trkpt>
      <trkpt lat="44.46287" lon="1.24124">
        <ele>230.3</ele>
        <time>2026-07-12T07:59:03Z</time>
      </trkpt>
      <trkpt lat="44.46291" lon="1.24124">
        <ele>230.2</ele>
        <time>2026-07-12T07:59:04Z</time>
      </trkpt>
      <trkpt lat="44.46295" lon="1.24123">
        <ele>230.2</ele>
        <time>2026-07-12T07:59:05Z</time>
      </trkpt>
      <trkpt lat="44.463" lon="1.24123">
        <ele>230.1</ele>
        <time>2026-07-12T07:59:06Z</time>
      </trkpt>
      <trkpt lat="44.46304" lon="1.24123">
        <ele>230</ele>
        <time>2026-07-12T07:59:07Z</time>
      </trkpt>
      <trkpt lat="44.46308" lon="1.24123">
        <ele>230</ele>
        <time>2026-07-12T07:59:08Z</time>
      </trkpt>
      <trkpt lat="44.46312" lon="1.24124">
        <ele>230.1</ele>
        <time>2026-07-12T07:59:09Z</time>
      </trkpt>
      <trkpt lat="44.46316" lon="1.24124">
        <ele>230.2</ele>
        <time>2026-07-12T07:59:10Z</time>
      </trkpt>
      <trkpt lat="44.4632" lon="1.24125">
        <ele>230.3</ele>
        <time>2026-07-12T07:59:11Z</time>
      </trkpt>
      <trkpt lat="44.46324" lon="1.24126">
        <ele>230.3</ele>
        <time>2026-07-12T07:59:12Z</time>
      </trkpt>
      <trkpt lat="44.46328" lon="1.24126">
        <ele>230.4</ele>
        <time>2026-07-12T07:59:13Z</time>
      </trkpt>
      <trkpt lat="44.46331" lon="1.24127">
        <ele>230.4</ele>
        <time>2026-07-12T07:59:14Z</time>
      </trkpt>
      <trkpt lat="44.46335" lon="1.24127">
        <ele>230.5</ele>
        <time>2026-07-12T07:59:15Z</time>
      </trkpt>
      <trkpt lat="44.46338" lon="1.24128">
        <ele>230.6</ele>
        <time>2026-07-12T07:59:16Z</time>
      </trkpt>
      <trkpt lat="44.4634" lon="1.24129">
        <ele>230.7</ele>
        <time>2026-07-12T07:59:17Z</time>
      </trkpt>
      <trkpt lat="44.46342" lon="1.24129">
        <ele>230.7</ele>
        <time>2026-07-12T07:59:18Z</time>
      </trkpt>
      <trkpt lat="44.46343" lon="1.24129">
        <ele>230.8</ele>
        <time>2026-07-12T07:59:19Z</time>
      </trkpt>
      <trkpt lat="44.46344" lon="1.24129">
        <ele>230.8</ele>
        <time>2026-07-12T07:59:20Z</time>
      </trkpt>
      <trkpt lat="44.46344" lon="1.24129">
        <ele>230.8</ele>
        <time>2026-07-12T07:59:22Z</time>
      </trkpt>
      <trkpt lat="44.46351" lon="1.2413">
        <ele>231.2</ele>
        <time>2026-07-12T08:00:07Z</time>
      </trkpt>
      <trkpt lat="44.46359" lon="1.24131">
        <ele>231.6</ele>
        <time>2026-07-12T08:00:09Z</time>
      </trkpt>
      <trkpt lat="44.46383" lon="1.24135">
        <ele>234.1</ele>
        <time>2026-07-12T08:00:14Z</time>
      </trkpt>
      <trkpt lat="44.46392" lon="1.24137">
        <ele>235.1</ele>
        <time>2026-07-12T08:00:16Z</time>
      </trkpt>
      <trkpt lat="44.46407" lon="1.24138">
        <ele>236.2</ele>
        <time>2026-07-12T08:00:19Z</time>
      </trkpt>
      <trkpt lat="44.4642" lon="1.2414">
        <ele>237.5</ele>
        <time>2026-07-12T08:00:22Z</time>
      </trkpt>
      <trkpt lat="44.46425" lon="1.2414">
        <ele>238.1</ele>
        <time>2026-07-12T08:00:23Z</time>
      </trkpt>
      <trkpt lat="44.46429" lon="1.2414">
        <ele>238.7</ele>
        <time>2026-07-12T08:00:24Z</time>
      </trkpt>
      <trkpt lat="44.46433" lon="1.2414">
        <ele>239.3</ele>
        <time>2026-07-12T08:00:25Z</time>
      </trkpt>
      <trkpt lat="44.46437" lon="1.24141">
        <ele>239.9</ele>
        <time>2026-07-12T08:00:26Z</time>
      </trkpt>
      <trkpt lat="44.46441" lon="1.24141">
        <ele>240.4</ele>
        <time>2026-07-12T08:00:27Z</time>
      </trkpt>
      <trkpt lat="44.46445" lon="1.24142">
        <ele>241</ele>
        <time>2026-07-12T08:00:28Z</time>
      </trkpt>
      <trkpt lat="44.46449" lon="1.24143">
        <ele>241.5</ele>
        <time>2026-07-12T08:00:29Z</time>
      </trkpt>
      <trkpt lat="44.46454" lon="1.24143">
        <ele>242</ele>
        <time>2026-07-12T08:00:30Z</time>
      </trkpt>
      <trkpt lat="44.46458" lon="1.24144">
        <ele>242.4</ele>
        <time>2026-07-12T08:00:31Z</time>
      </trkpt>
      <trkpt lat="44.46462" lon="1.24144">
        <ele>242.9</ele>
        <time>2026-07-12T08:00:32Z</time>
      </trkpt>
      <trkpt lat="44.46466" lon="1.24144">
        <ele>243.3</ele>
        <time>2026-07-12T08:00:33Z</time>
      </trkpt>
      <trkpt lat="44.4647" lon="1.24145">
        <ele>243.8</ele>
        <time>2026-07-12T08:00:34Z</time>
      </trkpt>
      <trkpt lat="44.46474" lon="1.24146">
        <ele>244</ele>
        <time>2026-07-12T08:00:35Z</time>
      </trkpt>
      <trkpt lat="44.46479" lon="1.24147">
        <ele>244.1</ele>
        <time>2026-07-12T08:00:36Z</time>
      </trkpt>
      <trkpt lat="44.46483" lon="1.24147">
        <ele>244.1</ele>
        <time>2026-07-12T08:00:37Z</time>
      </trkpt>
      <trkpt lat="44.46486" lon="1.24147">
        <ele>244.2</ele>
        <time>2026-07-12T08:00:38Z</time>
      </trkpt>
      <trkpt lat="44.46489" lon="1.24147">
        <ele>244.2</ele>
        <time>2026-07-12T08:00:39Z</time>
      </trkpt>
      <trkpt lat="44.46491" lon="1.24146">
        <ele>244.3</ele>
        <time>2026-07-12T08:00:40Z</time>
      </trkpt>
      <trkpt lat="44.46493" lon="1.24144">
        <ele>244.5</ele>
        <time>2026-07-12T08:00:41Z</time>
      </trkpt>
      <trkpt lat="44.46495" lon="1.24141">
        <ele>244.7</ele>
        <time>2026-07-12T08:00:42Z</time>
      </trkpt>
      <trkpt lat="44.46497" lon="1.2414">
        <ele>244.8</ele>
        <time>2026-07-12T08:00:43Z</time>
      </trkpt>
      <trkpt lat="44.46498" lon="1.24139">
        <ele>244.9</ele>
        <time>2026-07-12T08:00:44Z</time>
      </trkpt>
      <trkpt lat="44.465" lon="1.2414">
        <ele>244.9</ele>
        <time>2026-07-12T08:00:45Z</time>
      </trkpt>
      <trkpt lat="44.465" lon="1.24141">
        <ele>244.9</ele>
        <time>2026-07-12T08:00:46Z</time>
      </trkpt>
      <trkpt lat="44.465" lon="1.24141">
        <ele>244.9</ele>
        <time>2026-07-12T08:00:47Z</time>
      </trkpt>
      <trkpt lat="44.465" lon="1.24141">
        <ele>244.9</ele>
        <time>2026-07-12T08:00:48Z</time>
      </trkpt>
      <trkpt lat="44.46503" lon="1.24144">
        <ele>244.4</ele>
        <time>2026-07-12T08:01:15Z</time>
      </trkpt>
      <trkpt lat="44.46504" lon="1.24145">
        <ele>244.2</ele>
        <time>2026-07-12T08:01:16Z</time>
      </trkpt>
      <trkpt lat="44.46504" lon="1.24147">
        <ele>244</ele>
        <time>2026-07-12T08:01:17Z</time>
      </trkpt>
      <trkpt lat="44.46504" lon="1.24148">
        <ele>244</ele>
        <time>2026-07-12T08:01:19Z</time>
      </trkpt>
      <trkpt lat="44.46505" lon="1.24156">
        <ele>243.4</ele>
        <time>2026-07-12T08:01:28Z</time>
      </trkpt>
      <trkpt lat="44.46506" lon="1.24162">
        <ele>242.9</ele>
        <time>2026-07-12T08:01:29Z</time>
      </trkpt>
      <trkpt lat="44.46507" lon="1.24168">
        <ele>242.5</ele>
        <time>2026-07-12T08:01:30Z</time>
      </trkpt>
      <trkpt lat="44.46514" lon="1.24182">
        <ele>241.8</ele>
        <time>2026-07-12T08:01:32Z</time>
      </trkpt>
      <trkpt lat="44.46518" lon="1.24188">
        <ele>241.2</ele>
        <time>2026-07-12T08:01:33Z</time>
      </trkpt>
      <trkpt lat="44.46523" lon="1.24194">
        <ele>240.5</ele>
        <time>2026-07-12T08:01:34Z</time>
      </trkpt>
      <trkpt lat="44.46529" lon="1.242">
        <ele>239.6</ele>
        <time>2026-07-12T08:01:35Z</time>
      </trkpt>
      <trkpt lat="44.46533" lon="1.24206">
        <ele>238.7</ele>
        <time>2026-07-12T08:01:36Z</time>
      </trkpt>
      <trkpt lat="44.46537" lon="1.24212">
        <ele>237.9</ele>
        <time>2026-07-12T08:01:37Z</time>
      </trkpt>
      <trkpt lat="44.46539" lon="1.2422">
        <ele>237.4</ele>
        <time>2026-07-12T08:01:38Z</time>
      </trkpt>
      <trkpt lat="44.4654" lon="1.24228">
        <ele>237.2</ele>
        <time>2026-07-12T08:01:39Z</time>
      </trkpt>
      <trkpt lat="44.46539" lon="1.24237">
        <ele>237.3</ele>
        <time>2026-07-12T08:01:40Z</time>
      </trkpt>
      <trkpt lat="44.46538" lon="1.24245">
        <ele>237.3</ele>
        <time>2026-07-12T08:01:41Z</time>
      </trkpt>
      <trkpt lat="44.46537" lon="1.24252">
        <ele>237.3</ele>
        <time>2026-07-12T08:01:42Z</time>
      </trkpt>
      <trkpt lat="44.46537" lon="1.24259">
        <ele>237.3</ele>
        <time>2026-07-12T08:01:43Z</time>
      </trkpt>
      <trkpt lat="44.46537" lon="1.24264">
        <ele>237.2</ele>
        <time>2026-07-12T08:01:44Z</time>
      </trkpt>
      <trkpt lat="44.46539" lon="1.24269">
        <ele>237.1</ele>
        <time>2026-07-12T08:01:45Z</time>
      </trkpt>
      <trkpt lat="44.46541" lon="1.24273">
        <ele>237</ele>
        <time>2026-07-12T08:01:46Z</time>
      </trkpt>
      <trkpt lat="44.46543" lon="1.24276">
        <ele>237</ele>
        <time>2026-07-12T08:01:47Z</time>
      </trkpt>
      <trkpt lat="44.46545" lon="1.2428">
        <ele>236.9</ele>
        <time>2026-07-12T08:01:48Z</time>
      </trkpt>
      <trkpt lat="44.46548" lon="1.24284">
        <ele>236.7</ele>
        <time>2026-07-12T08:01:49Z</time>
      </trkpt>
      <trkpt lat="44.4656" lon="1.243">
        <ele>236.3</ele>
        <time>2026-07-12T08:01:53Z</time>
      </trkpt>
      <trkpt lat="44.4656" lon="1.24304">
        <ele>236.2</ele>
        <time>2026-07-12T08:01:54Z</time>
      </trkpt>
      <trkpt lat="44.4656" lon="1.24309">
        <ele>236.1</ele>
        <time>2026-07-12T08:01:55Z</time>
      </trkpt>
      <trkpt lat="44.46557" lon="1.2432">
        <ele>235.6</ele>
        <time>2026-07-12T08:01:57Z</time>
      </trkpt>
      <trkpt lat="44.46556" lon="1.24325">
        <ele>235.3</ele>
        <time>2026-07-12T08:01:58Z</time>
      </trkpt>
      <trkpt lat="44.46556" lon="1.24337">
        <ele>234.8</ele>
        <time>2026-07-12T08:02:00Z</time>
      </trkpt>
      <trkpt lat="44.46557" lon="1.24342">
        <ele>234.6</ele>
        <time>2026-07-12T08:02:01Z</time>
      </trkpt>
      <trkpt lat="44.46559" lon="1.24346">
        <ele>234.5</ele>
        <time>2026-07-12T08:02:02Z</time>
      </trkpt>
      <trkpt lat="44.46561" lon="1.24349">
        <ele>234.8</ele>
        <time>2026-07-12T08:02:03Z</time>
      </trkpt>
      <trkpt lat="44.46563" lon="1.24352">
        <ele>235</ele>
        <time>2026-07-12T08:02:04Z</time>
      </trkpt>
      <trkpt lat="44.46565" lon="1.24355">
        <ele>235.2</ele>
        <time>2026-07-12T08:02:05Z</time>
      </trkpt>
      <trkpt lat="44.46567" lon="1.24358">
        <ele>235.5</ele>
        <time>2026-07-12T08:02:06Z</time>
      </trkpt>
      <trkpt lat="44.46579" lon="1.2438">
        <ele>237.9</ele>
        <time>2026-07-12T08:02:12Z</time>
      </trkpt>
      <trkpt lat="44.46581" lon="1.24383">
        <ele>238.3</ele>
        <time>2026-07-12T08:02:13Z</time>
      </trkpt>
      <trkpt lat="44.46582" lon="1.24385">
        <ele>238.5</ele>
        <time>2026-07-12T08:02:14Z</time>
      </trkpt>
      <trkpt lat="44.46582" lon="1.24386">
        <ele>238.6</ele>
        <time>2026-07-12T08:02:15Z</time>
      </trkpt>
      <trkpt lat="44.46582" lon="1.24387">
        <ele>238.6</ele>
        <time>2026-07-12T08:02:16Z</time>
      </trkpt>
      <trkpt lat="44.46582" lon="1.24388">
        <ele>238.7</ele>
        <time>2026-07-12T08:02:18Z</time>
      </trkpt>
      <trkpt lat="44.46586" lon="1.24387">
        <ele>237.6</ele>
        <time>2026-07-12T08:05:54Z</time>
      </trkpt>
      <trkpt lat="44.46586" lon="1.24386">
        <ele>237.5</ele>
        <time>2026-07-12T08:05:55Z</time>
      </trkpt>
      <trkpt lat="44.46586" lon="1.24384">
        <ele>237.7</ele>
        <time>2026-07-12T08:05:56Z</time>
      </trkpt>
      <trkpt lat="44.46585" lon="1.24383">
        <ele>238.1</ele>
        <time>2026-07-12T08:05:57Z</time>
      </trkpt>
      <trkpt lat="44.46583" lon="1.24381">
        <ele>239</ele>
        <time>2026-07-12T08:05:59Z</time>
      </trkpt>
      <trkpt lat="44.46583" lon="1.24381">
        <ele>238.8</ele>
        <time>2026-07-12T08:06:00Z</time>
      </trkpt>
      <trkpt lat="44.46582" lon="1.24381">
        <ele>238.6</ele>
        <time>2026-07-12T08:06:01Z</time>
      </trkpt>
      <trkpt lat="44.46581" lon="1.2438">
        <ele>238.2</ele>
        <time>2026-07-12T08:06:02Z</time>
      </trkpt>
      <trkpt lat="44.46577" lon="1.24376">
        <ele>237.4</ele>
        <time>2026-07-12T08:06:04Z</time>
      </trkpt>
      <trkpt lat="44.46575" lon="1.24372">
        <ele>236.9</ele>
        <time>2026-07-12T08:06:05Z</time>
      </trkpt>
      <trkpt lat="44.46573" lon="1.24369">
        <ele>236.5</ele>
        <time>2026-07-12T08:06:06Z</time>
      </trkpt>
      <trkpt lat="44.46564" lon="1.24351">
        <ele>235.2</ele>
        <time>2026-07-12T08:06:10Z</time>
      </trkpt>
      <trkpt lat="44.46561" lon="1.24347">
        <ele>234.9</ele>
        <time>2026-07-12T08:06:11Z</time>
      </trkpt>
      <trkpt lat="44.4655" lon="1.24334">
        <ele>234.1</ele>
        <time>2026-07-12T08:06:14Z</time>
      </trkpt>
      <trkpt lat="44.46543" lon="1.24324">
        <ele>233.9</ele>
        <time>2026-07-12T08:06:16Z</time>
      </trkpt>
      <trkpt lat="44.46539" lon="1.2432">
        <ele>234</ele>
        <time>2026-07-12T08:06:17Z</time>
      </trkpt>
      <trkpt lat="44.46536" lon="1.24315">
        <ele>234.2</ele>
        <time>2026-07-12T08:06:18Z</time>
      </trkpt>
      <trkpt lat="44.46506" lon="1.24285">
        <ele>236.3</ele>
        <time>2026-07-12T08:06:26Z</time>
      </trkpt>
      <trkpt lat="44.46471" lon="1.24252">
        <ele>237.6</ele>
        <time>2026-07-12T08:06:35Z</time>
      </trkpt>
      <trkpt lat="44.46467" lon="1.24249">
        <ele>237.6</ele>
        <time>2026-07-12T08:06:36Z</time>
      </trkpt>
      <trkpt lat="44.46456" lon="1.24235">
        <ele>237.8</ele>
        <time>2026-07-12T08:06:39Z</time>
      </trkpt>
      <trkpt lat="44.46448" lon="1.24227">
        <ele>237.9</ele>
        <time>2026-07-12T08:06:41Z</time>
      </trkpt>
      <trkpt lat="44.46417" lon="1.24192">
        <ele>235.2</ele>
        <time>2026-07-12T08:06:48Z</time>
      </trkpt>
      <trkpt lat="44.46387" lon="1.24164">
        <ele>233</ele>
        <time>2026-07-12T08:06:53Z</time>
      </trkpt>
      <trkpt lat="44.46358" lon="1.24143">
        <ele>231.5</ele>
        <time>2026-07-12T08:06:57Z</time>
      </trkpt>
      <trkpt lat="44.46343" lon="1.24134">
        <ele>230.8</ele>
        <time>2026-07-12T08:06:59Z</time>
      </trkpt>
      <trkpt lat="44.46336" lon="1.2413">
        <ele>230.5</ele>
        <time>2026-07-12T08:07:00Z</time>
      </trkpt>
      <trkpt lat="44.46314" lon="1.24122">
        <ele>230.2</ele>
        <time>2026-07-12T08:07:03Z</time>
      </trkpt>
      <trkpt lat="44.46307" lon="1.2412">
        <ele>230</ele>
        <time>2026-07-12T08:07:04Z</time>
      </trkpt>
      <trkpt lat="44.463" lon="1.24119">
        <ele>230.1</ele>
        <time>2026-07-12T08:07:05Z</time>
      </trkpt>
      <trkpt lat="44.46294" lon="1.24118">
        <ele>230.1</ele>
        <time>2026-07-12T08:07:06Z</time>
      </trkpt>
      <trkpt lat="44.46288" lon="1.24117">
        <ele>230.1</ele>
        <time>2026-07-12T08:07:07Z</time>
      </trkpt>
      <trkpt lat="44.46282" lon="1.24115">
        <ele>230.1</ele>
        <time>2026-07-12T08:07:08Z</time>
      </trkpt>
      <trkpt lat="44.46277" lon="1.24113">
        <ele>230.1</ele>
        <time>2026-07-12T08:07:09Z</time>
      </trkpt>
      <trkpt lat="44.46272" lon="1.24112">
        <ele>230.4</ele>
        <time>2026-07-12T08:07:10Z</time>
      </trkpt>
      <trkpt lat="44.46268" lon="1.24111">
        <ele>230.7</ele>
        <time>2026-07-12T08:07:11Z</time>
      </trkpt>
      <trkpt lat="44.46263" lon="1.24111">
        <ele>231</ele>
        <time>2026-07-12T08:07:12Z</time>
      </trkpt>
      <trkpt lat="44.46242" lon="1.24109">
        <ele>232.4</ele>
        <time>2026-07-12T08:07:16Z</time>
      </trkpt>
      <trkpt lat="44.46227" lon="1.24109">
        <ele>233.4</ele>
        <time>2026-07-12T08:07:19Z</time>
      </trkpt>
      <trkpt lat="44.46202" lon="1.24106">
        <ele>235.6</ele>
        <time>2026-07-12T08:07:24Z</time>
      </trkpt>
      <trkpt lat="44.46197" lon="1.24105">
        <ele>236.1</ele>
        <time>2026-07-12T08:07:25Z</time>
      </trkpt>
      <trkpt lat="44.46187" lon="1.24104">
        <ele>237.3</ele>
        <time>2026-07-12T08:07:27Z</time>
      </trkpt>
      <trkpt lat="44.46182" lon="1.24103">
        <ele>237.9</ele>
        <time>2026-07-12T08:07:28Z</time>
      </trkpt>
      <trkpt lat="44.46173" lon="1.24102">
        <ele>239.1</ele>
        <time>2026-07-12T08:07:30Z</time>
      </trkpt>
      <trkpt lat="44.46168" lon="1.24101">
        <ele>239.7</ele>
        <time>2026-07-12T08:07:31Z</time>
      </trkpt>
      <trkpt lat="44.46163" lon="1.241">
        <ele>240.1</ele>
        <time>2026-07-12T08:07:32Z</time>
      </trkpt>
      <trkpt lat="44.46158" lon="1.24099">
        <ele>240.6</ele>
        <time>2026-07-12T08:07:33Z</time>
      </trkpt>
      <trkpt lat="44.46153" lon="1.24098">
        <ele>241</ele>
        <time>2026-07-12T08:07:34Z</time>
      </trkpt>
      <trkpt lat="44.46144" lon="1.24095">
        <ele>241.7</ele>
        <time>2026-07-12T08:07:36Z</time>
      </trkpt>
      <trkpt lat="44.46139" lon="1.24094">
        <ele>242.1</ele>
        <time>2026-07-12T08:07:37Z</time>
      </trkpt>
      <trkpt lat="44.46134" lon="1.24092">
        <ele>242.3</ele>
        <time>2026-07-12T08:07:38Z</time>
      </trkpt>
      <trkpt lat="44.46129" lon="1.24091">
        <ele>242.4</ele>
        <time>2026-07-12T08:07:39Z</time>
      </trkpt>
      <trkpt lat="44.46125" lon="1.24089">
        <ele>242.6</ele>
        <time>2026-07-12T08:07:40Z</time>
      </trkpt>
      <trkpt lat="44.4612" lon="1.24087">
        <ele>242.7</ele>
        <time>2026-07-12T08:07:41Z</time>
      </trkpt>
      <trkpt lat="44.46115" lon="1.24085">
        <ele>242.9</ele>
        <time>2026-07-12T08:07:42Z</time>
      </trkpt>
      <trkpt lat="44.4611" lon="1.24083">
        <ele>243.1</ele>
        <time>2026-07-12T08:07:43Z</time>
      </trkpt>
      <trkpt lat="44.46105" lon="1.24082">
        <ele>243.3</ele>
        <time>2026-07-12T08:07:44Z</time>
      </trkpt>
      <trkpt lat="44.461" lon="1.2408">
        <ele>243.4</ele>
        <time>2026-07-12T08:07:45Z</time>
      </trkpt>
      <trkpt lat="44.46095" lon="1.24078">
        <ele>243.5</ele>
        <time>2026-07-12T08:07:46Z</time>
      </trkpt>
      <trkpt lat="44.46091" lon="1.24076">
        <ele>243.7</ele>
        <time>2026-07-12T08:07:47Z</time>
      </trkpt>
      <trkpt lat="44.46086" lon="1.24074">
        <ele>243.8</ele>
        <time>2026-07-12T08:07:48Z</time>
      </trkpt>
      <trkpt lat="44.46081" lon="1.24072">
        <ele>243.9</ele>
        <time>2026-07-12T08:07:49Z</time>
      </trkpt>
      <trkpt lat="44.46076" lon="1.2407">
        <ele>244</ele>
        <time>2026-07-12T08:07:50Z</time>
      </trkpt>
      <trkpt lat="44.46071" lon="1.24068">
        <ele>244.2</ele>
        <time>2026-07-12T08:07:51Z</time>
      </trkpt>
      <trkpt lat="44.46067" lon="1.24066">
        <ele>244.4</ele>
        <time>2026-07-12T08:07:52Z</time>
      </trkpt>
      <trkpt lat="44.46062" lon="1.24063">
        <ele>244.7</ele>
        <time>2026-07-12T08:07:53Z</time>
      </trkpt>
      <trkpt lat="44.46058" lon="1.24061">
        <ele>245</ele>
        <time>2026-07-12T08:07:54Z</time>
      </trkpt>
      <trkpt lat="44.46053" lon="1.24059">
        <ele>245.2</ele>
        <time>2026-07-12T08:07:55Z</time>
      </trkpt>
      <trkpt lat="44.46048" lon="1.24057">
        <ele>245.3</ele>
        <time>2026-07-12T08:07:56Z</time>
      </trkpt>
      <trkpt lat="44.46043" lon="1.24054">
        <ele>245.4</ele>
        <time>2026-07-12T08:07:57Z</time>
      </trkpt>
      <trkpt lat="44.46039" lon="1.24051">
        <ele>245.5</ele>
        <time>2026-07-12T08:07:58Z</time>
      </trkpt>
      <trkpt lat="44.46034" lon="1.24049">
        <ele>245.7</ele>
        <time>2026-07-12T08:07:59Z</time>
      </trkpt>
      <trkpt lat="44.4603" lon="1.24046">
        <ele>245.9</ele>
        <time>2026-07-12T08:08:00Z</time>
      </trkpt>
      <trkpt lat="44.46025" lon="1.24044">
        <ele>246.1</ele>
        <time>2026-07-12T08:08:01Z</time>
      </trkpt>
      <trkpt lat="44.46021" lon="1.24042">
        <ele>246.4</ele>
        <time>2026-07-12T08:08:02Z</time>
      </trkpt>
      <trkpt lat="44.46016" lon="1.2404">
        <ele>246.7</ele>
        <time>2026-07-12T08:08:03Z</time>
      </trkpt>
      <trkpt lat="44.46012" lon="1.24038">
        <ele>246.9</ele>
        <time>2026-07-12T08:08:04Z</time>
      </trkpt>
      <trkpt lat="44.46008" lon="1.24035">
        <ele>247.2</ele>
        <time>2026-07-12T08:08:05Z</time>
      </trkpt>
      <trkpt lat="44.46004" lon="1.24032">
        <ele>247.6</ele>
        <time>2026-07-12T08:08:06Z</time>
      </trkpt>
      <trkpt lat="44.45999" lon="1.24029">
        <ele>248</ele>
        <time>2026-07-12T08:08:07Z</time>
      </trkpt>
      <trkpt lat="44.45994" lon="1.24026">
        <ele>248.2</ele>
        <time>2026-07-12T08:08:08Z</time>
      </trkpt>
      <trkpt lat="44.4599" lon="1.24023">
        <ele>248.4</ele>
        <time>2026-07-12T08:08:09Z</time>
      </trkpt>
      <trkpt lat="44.45986" lon="1.2402">
        <ele>248.6</ele>
        <time>2026-07-12T08:08:10Z</time>
      </trkpt>
      <trkpt lat="44.45982" lon="1.24018">
        <ele>248.9</ele>
        <time>2026-07-12T08:08:11Z</time>
      </trkpt>
      <trkpt lat="44.45977" lon="1.24015">
        <ele>249.2</ele>
        <time>2026-07-12T08:08:12Z</time>
      </trkpt>
      <trkpt lat="44.45973" lon="1.24012">
        <ele>249.5</ele>
        <time>2026-07-12T08:08:13Z</time>
      </trkpt>
      <trkpt lat="44.45968" lon="1.24009">
        <ele>249.8</ele>
        <time>2026-07-12T08:08:14Z</time>
      </trkpt>
      <trkpt lat="44.45964" lon="1.24006">
        <ele>250</ele>
        <time>2026-07-12T08:08:15Z</time>
      </trkpt>
      <trkpt lat="44.4596" lon="1.24003">
        <ele>250.3</ele>
        <time>2026-07-12T08:08:16Z</time>
      </trkpt>
      <trkpt lat="44.45956" lon="1.24">
        <ele>250.6</ele>
        <time>2026-07-12T08:08:17Z</time>
      </trkpt>
      <trkpt lat="44.45951" lon="1.23998">
        <ele>250.9</ele>
        <time>2026-07-12T08:08:18Z</time>
      </trkpt>
      <trkpt lat="44.45947" lon="1.23995">
        <ele>251.2</ele>
        <time>2026-07-12T08:08:19Z</time>
      </trkpt>
      <trkpt lat="44.45943" lon="1.23992">
        <ele>251.6</ele>
        <time>2026-07-12T08:08:20Z</time>
      </trkpt>
      <trkpt lat="44.45939" lon="1.2399">
        <ele>252.1</ele>
        <time>2026-07-12T08:08:21Z</time>
      </trkpt>
      <trkpt lat="44.45936" lon="1.23987">
        <ele>252.6</ele>
        <time>2026-07-12T08:08:22Z</time>
      </trkpt>
      <trkpt lat="44.45932" lon="1.23984">
        <ele>253.1</ele>
        <time>2026-07-12T08:08:23Z</time>
      </trkpt>
      <trkpt lat="44.45928" lon="1.23981">
        <ele>253.6</ele>
        <time>2026-07-12T08:08:24Z</time>
      </trkpt>
      <trkpt lat="44.45925" lon="1.23977">
        <ele>254</ele>
        <time>2026-07-12T08:08:25Z</time>
      </trkpt>
      <trkpt lat="44.45923" lon="1.23973">
        <ele>254.5</ele>
        <time>2026-07-12T08:08:26Z</time>
      </trkpt>
      <trkpt lat="44.45921" lon="1.23969">
        <ele>254.9</ele>
        <time>2026-07-12T08:08:27Z</time>
      </trkpt>
      <trkpt lat="44.45919" lon="1.23965">
        <ele>255.4</ele>
        <time>2026-07-12T08:08:28Z</time>
      </trkpt>
      <trkpt lat="44.45916" lon="1.2396">
        <ele>255.9</ele>
        <time>2026-07-12T08:08:29Z</time>
      </trkpt>
      <trkpt lat="44.45914" lon="1.23957">
        <ele>256.4</ele>
        <time>2026-07-12T08:08:30Z</time>
      </trkpt>
      <trkpt lat="44.45911" lon="1.23953">
        <ele>257</ele>
        <time>2026-07-12T08:08:31Z</time>
      </trkpt>
      <trkpt lat="44.45909" lon="1.23949">
        <ele>257.6</ele>
        <time>2026-07-12T08:08:32Z</time>
      </trkpt>
      <trkpt lat="44.45907" lon="1.23944">
        <ele>258.1</ele>
        <time>2026-07-12T08:08:33Z</time>
      </trkpt>
      <trkpt lat="44.45904" lon="1.2394">
        <ele>258.7</ele>
        <time>2026-07-12T08:08:34Z</time>
      </trkpt>
      <trkpt lat="44.45902" lon="1.23936">
        <ele>259.3</ele>
        <time>2026-07-12T08:08:35Z</time>
      </trkpt>
      <trkpt lat="44.459" lon="1.23932">
        <ele>260</ele>
        <time>2026-07-12T08:08:36Z</time>
      </trkpt>
      <trkpt lat="44.45898" lon="1.23928">
        <ele>260.6</ele>
        <time>2026-07-12T08:08:37Z</time>
      </trkpt>
      <trkpt lat="44.45896" lon="1.23925">
        <ele>261.2</ele>
        <time>2026-07-12T08:08:38Z</time>
      </trkpt>
      <trkpt lat="44.45894" lon="1.23921">
        <ele>261.9</ele>
        <time>2026-07-12T08:08:39Z</time>
      </trkpt>
      <trkpt lat="44.45892" lon="1.23917">
        <ele>262.5</ele>
        <time>2026-07-12T08:08:40Z</time>
      </trkpt>
      <trkpt lat="44.4589" lon="1.23913">
        <ele>263.1</ele>
        <time>2026-07-12T08:08:41Z</time>
      </trkpt>
      <trkpt lat="44.45887" lon="1.23909">
        <ele>263.7</ele>
        <time>2026-07-12T08:08:42Z</time>
      </trkpt>
      <trkpt lat="44.45885" lon="1.23906">
        <ele>264.2</ele>
        <time>2026-07-12T08:08:43Z</time>
      </trkpt>
      <trkpt lat="44.45883" lon="1.23902">
        <ele>264.7</ele>
        <time>2026-07-12T08:08:44Z</time>
      </trkpt>
      <trkpt lat="44.45881" lon="1.23898">
        <ele>265.2</ele>
        <time>2026-07-12T08:08:45Z</time>
      </trkpt>
      <trkpt lat="44.45879" lon="1.23894">
        <ele>265.7</ele>
        <time>2026-07-12T08:08:46Z</time>
      </trkpt>
      <trkpt lat="44.45877" lon="1.2389">
        <ele>266.2</ele>
        <time>2026-07-12T08:08:47Z</time>
      </trkpt>
      <trkpt lat="44.45875" lon="1.23887">
        <ele>266.6</ele>
        <time>2026-07-12T08:08:48Z</time>
      </trkpt>
      <trkpt lat="44.45872" lon="1.23883">
        <ele>267</ele>
        <time>2026-07-12T08:08:49Z</time>
      </trkpt>
      <trkpt lat="44.4587" lon="1.2388">
        <ele>267.4</ele>
        <time>2026-07-12T08:08:50Z</time>
      </trkpt>
      <trkpt lat="44.45867" lon="1.23876">
        <ele>267.8</ele>
        <time>2026-07-12T08:08:51Z</time>
      </trkpt>
      <trkpt lat="44.45865" lon="1.23872">
        <ele>268.2</ele>
        <time>2026-07-12T08:08:52Z</time>
      </trkpt>
      <trkpt lat="44.45862" lon="1.23868">
        <ele>268.7</ele>
        <time>2026-07-12T08:08:53Z</time>
      </trkpt>
      <trkpt lat="44.4586" lon="1.23863">
        <ele>269</ele>
        <time>2026-07-12T08:08:54Z</time>
      </trkpt>
      <trkpt lat="44.45858" lon="1.23859">
        <ele>269.2</ele>
        <time>2026-07-12T08:08:55Z</time>
      </trkpt>
      <trkpt lat="44.45859" lon="1.23854">
        <ele>269.1</ele>
        <time>2026-07-12T08:08:56Z</time>
      </trkpt>
      <trkpt lat="44.45863" lon="1.23851">
        <ele>268.9</ele>
        <time>2026-07-12T08:08:57Z</time>
      </trkpt>
      <trkpt lat="44.45867" lon="1.23848">
        <ele>268.5</ele>
        <time>2026-07-12T08:08:58Z</time>
      </trkpt>
      <trkpt lat="44.45872" lon="1.23845">
        <ele>268</ele>
        <time>2026-07-12T08:08:59Z</time>
      </trkpt>
      <trkpt lat="44.45876" lon="1.23841">
        <ele>267.7</ele>
        <time>2026-07-12T08:09:00Z</time>
      </trkpt>
      <trkpt lat="44.45879" lon="1.23835">
        <ele>267.7</ele>
        <time>2026-07-12T08:09:01Z</time>
      </trkpt>
      <trkpt lat="44.45879" lon="1.23828">
        <ele>267.8</ele>
        <time>2026-07-12T08:09:02Z</time>
      </trkpt>
      <trkpt lat="44.45878" lon="1.23821">
        <ele>267.9</ele>
        <time>2026-07-12T08:09:03Z</time>
      </trkpt>
      <trkpt lat="44.45877" lon="1.23814">
        <ele>268.2</ele>
        <time>2026-07-12T08:09:04Z</time>
      </trkpt>
      <trkpt lat="44.45875" lon="1.23807">
        <ele>268.4</ele>
        <time>2026-07-12T08:09:05Z</time>
      </trkpt>
      <trkpt lat="44.45874" lon="1.238">
        <ele>268.6</ele>
        <time>2026-07-12T08:09:06Z</time>
      </trkpt>
      <trkpt lat="44.45873" lon="1.23793">
        <ele>268.8</ele>
        <time>2026-07-12T08:09:07Z</time>
      </trkpt>
      <trkpt lat="44.45871" lon="1.23786">
        <ele>268.9</ele>
        <time>2026-07-12T08:09:08Z</time>
      </trkpt>
      <trkpt lat="44.4587" lon="1.23779">
        <ele>269.1</ele>
        <time>2026-07-12T08:09:09Z</time>
      </trkpt>
      <trkpt lat="44.45868" lon="1.23772">
        <ele>269.1</ele>
        <time>2026-07-12T08:09:10Z</time>
      </trkpt>
      <trkpt lat="44.45867" lon="1.23765">
        <ele>269</ele>
        <time>2026-07-12T08:09:11Z</time>
      </trkpt>
      <trkpt lat="44.45866" lon="1.23758">
        <ele>268.9</ele>
        <time>2026-07-12T08:09:12Z</time>
      </trkpt>
      <trkpt lat="44.45865" lon="1.23751">
        <ele>268.8</ele>
        <time>2026-07-12T08:09:13Z</time>
      </trkpt>
      <trkpt lat="44.45863" lon="1.23744">
        <ele>268.6</ele>
        <time>2026-07-12T08:09:14Z</time>
      </trkpt>
      <trkpt lat="44.45862" lon="1.23737">
        <ele>268.5</ele>
        <time>2026-07-12T08:09:15Z</time>
      </trkpt>
      <trkpt lat="44.45859" lon="1.23732">
        <ele>268.6</ele>
        <time>2026-07-12T08:09:16Z</time>
      </trkpt>
      <trkpt lat="44.45855" lon="1.23729">
        <ele>268.8</ele>
        <time>2026-07-12T08:09:17Z</time>
      </trkpt>
      <trkpt lat="44.45851" lon="1.23729">
        <ele>269.3</ele>
        <time>2026-07-12T08:09:18Z</time>
      </trkpt>
      <trkpt lat="44.45846" lon="1.23731">
        <ele>269.8</ele>
        <time>2026-07-12T08:09:19Z</time>
      </trkpt>
      <trkpt lat="44.45842" lon="1.23732">
        <ele>270.2</ele>
        <time>2026-07-12T08:09:20Z</time>
      </trkpt>
      <trkpt lat="44.45837" lon="1.23734">
        <ele>270.6</ele>
        <time>2026-07-12T08:09:21Z</time>
      </trkpt>
      <trkpt lat="44.45833" lon="1.23736">
        <ele>271</ele>
        <time>2026-07-12T08:09:22Z</time>
      </trkpt>
      <trkpt lat="44.45829" lon="1.23737">
        <ele>271.2</ele>
        <time>2026-07-12T08:09:23Z</time>
      </trkpt>
      <trkpt lat="44.45824" lon="1.23739">
        <ele>271.3</ele>
        <time>2026-07-12T08:09:24Z</time>
      </trkpt>
      <trkpt lat="44.45819" lon="1.23741">
        <ele>271.5</ele>
        <time>2026-07-12T08:09:25Z</time>
      </trkpt>
      <trkpt lat="44.45815" lon="1.23742">
        <ele>271.6</ele>
        <time>2026-07-12T08:09:26Z</time>
      </trkpt>
      <trkpt lat="44.45812" lon="1.23744">
        <ele>271.8</ele>
        <time>2026-07-12T08:09:27Z</time>
      </trkpt>
      <trkpt lat="44.45808" lon="1.23745">
        <ele>271.9</ele>
        <time>2026-07-12T08:09:28Z</time>
      </trkpt>
      <trkpt lat="44.45805" lon="1.23744">
        <ele>272</ele>
        <time>2026-07-12T08:09:29Z</time>
      </trkpt>
      <trkpt lat="44.45803" lon="1.23741">
        <ele>272</ele>
        <time>2026-07-12T08:09:30Z</time>
      </trkpt>
      <trkpt lat="44.45802" lon="1.23737">
        <ele>271.9</ele>
        <time>2026-07-12T08:09:31Z</time>
      </trkpt>
      <trkpt lat="44.45803" lon="1.23731">
        <ele>271.9</ele>
        <time>2026-07-12T08:09:32Z</time>
      </trkpt>
      <trkpt lat="44.45805" lon="1.23726">
        <ele>272</ele>
        <time>2026-07-12T08:09:33Z</time>
      </trkpt>
      <trkpt lat="44.45807" lon="1.2372">
        <ele>271.9</ele>
        <time>2026-07-12T08:09:34Z</time>
      </trkpt>
      <trkpt lat="44.45808" lon="1.23714">
        <ele>271.6</ele>
        <time>2026-07-12T08:09:35Z</time>
      </trkpt>
      <trkpt lat="44.4581" lon="1.23708">
        <ele>271.4</ele>
        <time>2026-07-12T08:09:36Z</time>
      </trkpt>
      <trkpt lat="44.45811" lon="1.23701">
        <ele>271.2</ele>
        <time>2026-07-12T08:09:37Z</time>
      </trkpt>
      <trkpt lat="44.45812" lon="1.23694">
        <ele>271</ele>
        <time>2026-07-12T08:09:38Z</time>
      </trkpt>
      <trkpt lat="44.45813" lon="1.23687">
        <ele>270.9</ele>
        <time>2026-07-12T08:09:39Z</time>
      </trkpt>
      <trkpt lat="44.45814" lon="1.23679">
        <ele>270.8</ele>
        <time>2026-07-12T08:09:40Z</time>
      </trkpt>
      <trkpt lat="44.45815" lon="1.23671">
        <ele>270.7</ele>
        <time>2026-07-12T08:09:41Z</time>
      </trkpt>
      <trkpt lat="44.45816" lon="1.23664">
        <ele>270.6</ele>
        <time>2026-07-12T08:09:42Z</time>
      </trkpt>
      <trkpt lat="44.45817" lon="1.23656">
        <ele>270.6</ele>
        <time>2026-07-12T08:09:43Z</time>
      </trkpt>
      <trkpt lat="44.45818" lon="1.23648">
        <ele>270.6</ele>
        <time>2026-07-12T08:09:44Z</time>
      </trkpt>
      <trkpt lat="44.45818" lon="1.2364">
        <ele>270.6</ele>
        <time>2026-07-12T08:09:45Z</time>
      </trkpt>
      <trkpt lat="44.45818" lon="1.23633">
        <ele>270.5</ele>
        <time>2026-07-12T08:09:46Z</time>
      </trkpt>
      <trkpt lat="44.45818" lon="1.23625">
        <ele>270.6</ele>
        <time>2026-07-12T08:09:47Z</time>
      </trkpt>
      <trkpt lat="44.45817" lon="1.23617">
        <ele>270.6</ele>
        <time>2026-07-12T08:09:48Z</time>
      </trkpt>
      <trkpt lat="44.45813" lon="1.23587">
        <ele>270.5</ele>
        <time>2026-07-12T08:09:52Z</time>
      </trkpt>
      <trkpt lat="44.45809" lon="1.23565">
        <ele>270.8</ele>
        <time>2026-07-12T08:09:55Z</time>
      </trkpt>
      <trkpt lat="44.45809" lon="1.23558">
        <ele>270.9</ele>
        <time>2026-07-12T08:09:56Z</time>
      </trkpt>
      <trkpt lat="44.45809" lon="1.23551">
        <ele>270.9</ele>
        <time>2026-07-12T08:09:57Z</time>
      </trkpt>
      <trkpt lat="44.45809" lon="1.23544">
        <ele>270.9</ele>
        <time>2026-07-12T08:09:58Z</time>
      </trkpt>
      <trkpt lat="44.4581" lon="1.23537">
        <ele>270.8</ele>
        <time>2026-07-12T08:09:59Z</time>
      </trkpt>
      <trkpt lat="44.45811" lon="1.2353">
        <ele>270.8</ele>
        <time>2026-07-12T08:10:00Z</time>
      </trkpt>
      <trkpt lat="44.45813" lon="1.23523">
        <ele>270.5</ele>
        <time>2026-07-12T08:10:01Z</time>
      </trkpt>
      <trkpt lat="44.45819" lon="1.2351">
        <ele>269.8</ele>
        <time>2026-07-12T08:10:03Z</time>
      </trkpt>
      <trkpt lat="44.4583" lon="1.23482">
        <ele>268.6</ele>
        <time>2026-07-12T08:10:07Z</time>
      </trkpt>
      <trkpt lat="44.45832" lon="1.23473">
        <ele>268</ele>
        <time>2026-07-12T08:10:08Z</time>
      </trkpt>
      <trkpt lat="44.45844" lon="1.23425">
        <ele>264.9</ele>
        <time>2026-07-12T08:10:13Z</time>
      </trkpt>
      <trkpt lat="44.45846" lon="1.23415">
        <ele>264.5</ele>
        <time>2026-07-12T08:10:14Z</time>
      </trkpt>
      <trkpt lat="44.45849" lon="1.23406">
        <ele>263.9</ele>
        <time>2026-07-12T08:10:15Z</time>
      </trkpt>
      <trkpt lat="44.45857" lon="1.23378">
        <ele>262.6</ele>
        <time>2026-07-12T08:10:18Z</time>
      </trkpt>
      <trkpt lat="44.45861" lon="1.23361">
        <ele>262</ele>
        <time>2026-07-12T08:10:20Z</time>
      </trkpt>
      <trkpt lat="44.45863" lon="1.23352">
        <ele>261.3</ele>
        <time>2026-07-12T08:10:21Z</time>
      </trkpt>
      <trkpt lat="44.45864" lon="1.23344">
        <ele>260.7</ele>
        <time>2026-07-12T08:10:22Z</time>
      </trkpt>
      <trkpt lat="44.45865" lon="1.23336">
        <ele>260.2</ele>
        <time>2026-07-12T08:10:23Z</time>
      </trkpt>
      <trkpt lat="44.45865" lon="1.23328">
        <ele>260</ele>
        <time>2026-07-12T08:10:24Z</time>
      </trkpt>
      <trkpt lat="44.45864" lon="1.2332">
        <ele>259.9</ele>
        <time>2026-07-12T08:10:25Z</time>
      </trkpt>
      <trkpt lat="44.45864" lon="1.23312">
        <ele>259.9</ele>
        <time>2026-07-12T08:10:26Z</time>
      </trkpt>
      <trkpt lat="44.45863" lon="1.23305">
        <ele>259.9</ele>
        <time>2026-07-12T08:10:27Z</time>
      </trkpt>
      <trkpt lat="44.45861" lon="1.23297">
        <ele>259.7</ele>
        <time>2026-07-12T08:10:28Z</time>
      </trkpt>
      <trkpt lat="44.45858" lon="1.23275">
        <ele>259.1</ele>
        <time>2026-07-12T08:10:31Z</time>
      </trkpt>
      <trkpt lat="44.45856" lon="1.23267">
        <ele>259.1</ele>
        <time>2026-07-12T08:10:32Z</time>
      </trkpt>
      <trkpt lat="44.45845" lon="1.23216">
        <ele>258</ele>
        <time>2026-07-12T08:10:39Z</time>
      </trkpt>
      <trkpt lat="44.45841" lon="1.23201">
        <ele>258</ele>
        <time>2026-07-12T08:10:41Z</time>
      </trkpt>
      <trkpt lat="44.45827" lon="1.23137">
        <ele>256.7</ele>
        <time>2026-07-12T08:10:49Z</time>
      </trkpt>
      <trkpt lat="44.45818" lon="1.23104">
        <ele>255.7</ele>
        <time>2026-07-12T08:10:53Z</time>
      </trkpt>
      <trkpt lat="44.45815" lon="1.23096">
        <ele>255.5</ele>
        <time>2026-07-12T08:10:54Z</time>
      </trkpt>
      <trkpt lat="44.45803" lon="1.23076">
        <ele>254.8</ele>
        <time>2026-07-12T08:10:57Z</time>
      </trkpt>
      <trkpt lat="44.45796" lon="1.23064">
        <ele>254.3</ele>
        <time>2026-07-12T08:10:59Z</time>
      </trkpt>
      <trkpt lat="44.45794" lon="1.23056">
        <ele>254.1</ele>
        <time>2026-07-12T08:11:00Z</time>
      </trkpt>
      <trkpt lat="44.45792" lon="1.23048">
        <ele>254.3</ele>
        <time>2026-07-12T08:11:01Z</time>
      </trkpt>
      <trkpt lat="44.4579" lon="1.2304">
        <ele>254.4</ele>
        <time>2026-07-12T08:11:02Z</time>
      </trkpt>
      <trkpt lat="44.45789" lon="1.23032">
        <ele>254.7</ele>
        <time>2026-07-12T08:11:03Z</time>
      </trkpt>
      <trkpt lat="44.4579" lon="1.23024">
        <ele>255</ele>
        <time>2026-07-12T08:11:04Z</time>
      </trkpt>
      <trkpt lat="44.45791" lon="1.23017">
        <ele>255.3</ele>
        <time>2026-07-12T08:11:05Z</time>
      </trkpt>
      <trkpt lat="44.45793" lon="1.23009">
        <ele>255.8</ele>
        <time>2026-07-12T08:11:06Z</time>
      </trkpt>
      <trkpt lat="44.45794" lon="1.23002">
        <ele>256.3</ele>
        <time>2026-07-12T08:11:07Z</time>
      </trkpt>
      <trkpt lat="44.45795" lon="1.22994">
        <ele>256.6</ele>
        <time>2026-07-12T08:11:08Z</time>
      </trkpt>
      <trkpt lat="44.45796" lon="1.22987">
        <ele>256.8</ele>
        <time>2026-07-12T08:11:09Z</time>
      </trkpt>
      <trkpt lat="44.45797" lon="1.22971">
        <ele>257.1</ele>
        <time>2026-07-12T08:11:11Z</time>
      </trkpt>
      <trkpt lat="44.45799" lon="1.22964">
        <ele>257</ele>
        <time>2026-07-12T08:11:12Z</time>
      </trkpt>
      <trkpt lat="44.45803" lon="1.22958">
        <ele>257.2</ele>
        <time>2026-07-12T08:11:13Z</time>
      </trkpt>
      <trkpt lat="44.45807" lon="1.22953">
        <ele>257.3</ele>
        <time>2026-07-12T08:11:14Z</time>
      </trkpt>
      <trkpt lat="44.45812" lon="1.22947">
        <ele>257.1</ele>
        <time>2026-07-12T08:11:15Z</time>
      </trkpt>
      <trkpt lat="44.45816" lon="1.22942">
        <ele>256.8</ele>
        <time>2026-07-12T08:11:16Z</time>
      </trkpt>
      <trkpt lat="44.45826" lon="1.22932">
        <ele>256.1</ele>
        <time>2026-07-12T08:11:18Z</time>
      </trkpt>
      <trkpt lat="44.45857" lon="1.22905">
        <ele>253.3</ele>
        <time>2026-07-12T08:11:23Z</time>
      </trkpt>
      <trkpt lat="44.45878" lon="1.22891">
        <ele>252.3</ele>
        <time>2026-07-12T08:11:26Z</time>
      </trkpt>
      <trkpt lat="44.45885" lon="1.22886">
        <ele>252.5</ele>
        <time>2026-07-12T08:11:27Z</time>
      </trkpt>
      <trkpt lat="44.45897" lon="1.22875">
        <ele>252.4</ele>
        <time>2026-07-12T08:11:29Z</time>
      </trkpt>
      <trkpt lat="44.45902" lon="1.22869">
        <ele>252.6</ele>
        <time>2026-07-12T08:11:30Z</time>
      </trkpt>
      <trkpt lat="44.45907" lon="1.22863">
        <ele>253</ele>
        <time>2026-07-12T08:11:31Z</time>
      </trkpt>
      <trkpt lat="44.45912" lon="1.22857">
        <ele>253.4</ele>
        <time>2026-07-12T08:11:32Z</time>
      </trkpt>
      <trkpt lat="44.45917" lon="1.22852">
        <ele>254</ele>
        <time>2026-07-12T08:11:33Z</time>
      </trkpt>
      <trkpt lat="44.45921" lon="1.22847">
        <ele>254.1</ele>
        <time>2026-07-12T08:11:34Z</time>
      </trkpt>
      <trkpt lat="44.45925" lon="1.22841">
        <ele>254.2</ele>
        <time>2026-07-12T08:11:35Z</time>
      </trkpt>
      <trkpt lat="44.45929" lon="1.22836">
        <ele>254.4</ele>
        <time>2026-07-12T08:11:36Z</time>
      </trkpt>
      <trkpt lat="44.45933" lon="1.22831">
        <ele>254.5</ele>
        <time>2026-07-12T08:11:37Z</time>
      </trkpt>
      <trkpt lat="44.45936" lon="1.22826">
        <ele>254.5</ele>
        <time>2026-07-12T08:11:38Z</time>
      </trkpt>
      <trkpt lat="44.45939" lon="1.22822">
        <ele>254.6</ele>
        <time>2026-07-12T08:11:39Z</time>
      </trkpt>
      <trkpt lat="44.45941" lon="1.22817">
        <ele>254.7</ele>
        <time>2026-07-12T08:11:40Z</time>
      </trkpt>
      <trkpt lat="44.45944" lon="1.22813">
        <ele>255</ele>
        <time>2026-07-12T08:11:41Z</time>
      </trkpt>
      <trkpt lat="44.45967" lon="1.22785">
        <ele>255.4</ele>
        <time>2026-07-12T08:11:47Z</time>
      </trkpt>
      <trkpt lat="44.45976" lon="1.22775">
        <ele>255.8</ele>
        <time>2026-07-12T08:11:49Z</time>
      </trkpt>
      <trkpt lat="44.45988" lon="1.22756">
        <ele>255.1</ele>
        <time>2026-07-12T08:11:52Z</time>
      </trkpt>
      <trkpt lat="44.46004" lon="1.22732">
        <ele>254.9</ele>
        <time>2026-07-12T08:11:56Z</time>
      </trkpt>
      <trkpt lat="44.46011" lon="1.22718">
        <ele>254.9</ele>
        <time>2026-07-12T08:11:58Z</time>
      </trkpt>
      <trkpt lat="44.46014" lon="1.22711">
        <ele>254.8</ele>
        <time>2026-07-12T08:11:59Z</time>
      </trkpt>
      <trkpt lat="44.46035" lon="1.2265">
        <ele>254.4</ele>
        <time>2026-07-12T08:12:07Z</time>
      </trkpt>
      <trkpt lat="44.4605" lon="1.22605">
        <ele>254.2</ele>
        <time>2026-07-12T08:12:13Z</time>
      </trkpt>
      <trkpt lat="44.4607" lon="1.22551">
        <ele>253.3</ele>
        <time>2026-07-12T08:12:20Z</time>
      </trkpt>
      <trkpt lat="44.46073" lon="1.22534">
        <ele>252.8</ele>
        <time>2026-07-12T08:12:22Z</time>
      </trkpt>
      <trkpt lat="44.46083" lon="1.22468">
        <ele>252</ele>
        <time>2026-07-12T08:12:30Z</time>
      </trkpt>
      <trkpt lat="44.46085" lon="1.2246">
        <ele>251.9</ele>
        <time>2026-07-12T08:12:31Z</time>
      </trkpt>
      <trkpt lat="44.46087" lon="1.22452">
        <ele>251.9</ele>
        <time>2026-07-12T08:12:32Z</time>
      </trkpt>
      <trkpt lat="44.46095" lon="1.22421">
        <ele>251.6</ele>
        <time>2026-07-12T08:12:36Z</time>
      </trkpt>
      <trkpt lat="44.46098" lon="1.22413">
        <ele>251.4</ele>
        <time>2026-07-12T08:12:37Z</time>
      </trkpt>
      <trkpt lat="44.46099" lon="1.22406">
        <ele>251</ele>
        <time>2026-07-12T08:12:38Z</time>
      </trkpt>
      <trkpt lat="44.46101" lon="1.22398">
        <ele>250.7</ele>
        <time>2026-07-12T08:12:39Z</time>
      </trkpt>
      <trkpt lat="44.46102" lon="1.22392">
        <ele>250.4</ele>
        <time>2026-07-12T08:12:40Z</time>
      </trkpt>
      <trkpt lat="44.46103" lon="1.22385">
        <ele>250.4</ele>
        <time>2026-07-12T08:12:41Z</time>
      </trkpt>
      <trkpt lat="44.46105" lon="1.22378">
        <ele>250.5</ele>
        <time>2026-07-12T08:12:42Z</time>
      </trkpt>
      <trkpt lat="44.46106" lon="1.22371">
        <ele>250.7</ele>
        <time>2026-07-12T08:12:43Z</time>
      </trkpt>
      <trkpt lat="44.46111" lon="1.22339">
        <ele>251.8</ele>
        <time>2026-07-12T08:12:47Z</time>
      </trkpt>
      <trkpt lat="44.46113" lon="1.22325">
        <ele>251.7</ele>
        <time>2026-07-12T08:12:49Z</time>
      </trkpt>
      <trkpt lat="44.46114" lon="1.22318">
        <ele>251.6</ele>
        <time>2026-07-12T08:12:50Z</time>
      </trkpt>
      <trkpt lat="44.46115" lon="1.22312">
        <ele>251.6</ele>
        <time>2026-07-12T08:12:51Z</time>
      </trkpt>
      <trkpt lat="44.46115" lon="1.22305">
        <ele>251.6</ele>
        <time>2026-07-12T08:12:52Z</time>
      </trkpt>
      <trkpt lat="44.46117" lon="1.22299">
        <ele>251.6</ele>
        <time>2026-07-12T08:12:53Z</time>
      </trkpt>
      <trkpt lat="44.46118" lon="1.22293">
        <ele>251.7</ele>
        <time>2026-07-12T08:12:54Z</time>
      </trkpt>
      <trkpt lat="44.46121" lon="1.22281">
        <ele>251.8</ele>
        <time>2026-07-12T08:12:56Z</time>
      </trkpt>
      <trkpt lat="44.4613" lon="1.22259">
        <ele>251.7</ele>
        <time>2026-07-12T08:13:00Z</time>
      </trkpt>
      <trkpt lat="44.46131" lon="1.22254">
        <ele>251.7</ele>
        <time>2026-07-12T08:13:01Z</time>
      </trkpt>
      <trkpt lat="44.46131" lon="1.22249">
        <ele>251.9</ele>
        <time>2026-07-12T08:13:02Z</time>
      </trkpt>
      <trkpt lat="44.46135" lon="1.22241">
        <ele>251.7</ele>
        <time>2026-07-12T08:13:22Z</time>
      </trkpt>
      <trkpt lat="44.46138" lon="1.22235">
        <ele>251.6</ele>
        <time>2026-07-12T08:13:24Z</time>
      </trkpt>
      <trkpt lat="44.46138" lon="1.22232">
        <ele>251.7</ele>
        <time>2026-07-12T08:13:25Z</time>
      </trkpt>
      <trkpt lat="44.46138" lon="1.22229">
        <ele>251.8</ele>
        <time>2026-07-12T08:13:26Z</time>
      </trkpt>
      <trkpt lat="44.46138" lon="1.22225">
        <ele>252</ele>
        <time>2026-07-12T08:13:27Z</time>
      </trkpt>
      <trkpt lat="44.46136" lon="1.2222">
        <ele>252.2</ele>
        <time>2026-07-12T08:13:29Z</time>
      </trkpt>
      <trkpt lat="44.4614" lon="1.22214">
        <ele>251.7</ele>
        <time>2026-07-12T08:13:32Z</time>
      </trkpt>
      <trkpt lat="44.46142" lon="1.22215">
        <ele>251.4</ele>
        <time>2026-07-12T08:13:33Z</time>
      </trkpt>
      <trkpt lat="44.46144" lon="1.22215">
        <ele>251.1</ele>
        <time>2026-07-12T08:13:34Z</time>
      </trkpt>
      <trkpt lat="44.46145" lon="1.22216">
        <ele>250.9</ele>
        <time>2026-07-12T08:13:35Z</time>
      </trkpt>
      <trkpt lat="44.46147" lon="1.22215">
        <ele>250.5</ele>
        <time>2026-07-12T08:13:36Z</time>
      </trkpt>
      <trkpt lat="44.46149" lon="1.22215">
        <ele>250.2</ele>
        <time>2026-07-12T08:13:37Z</time>
      </trkpt>
      <trkpt lat="44.46151" lon="1.22216">
        <ele>249.8</ele>
        <time>2026-07-12T08:13:38Z</time>
      </trkpt>
      <trkpt lat="44.46157" lon="1.22212">
        <ele>248.8</ele>
        <time>2026-07-12T08:13:40Z</time>
      </trkpt>
      <trkpt lat="44.46159" lon="1.22208">
        <ele>248.4</ele>
        <time>2026-07-12T08:13:41Z</time>
      </trkpt>
      <trkpt lat="44.4616" lon="1.22205">
        <ele>248.2</ele>
        <time>2026-07-12T08:13:42Z</time>
      </trkpt>
      <trkpt lat="44.46162" lon="1.22203">
        <ele>247.9</ele>
        <time>2026-07-12T08:13:43Z</time>
      </trkpt>
      <trkpt lat="44.46163" lon="1.22201">
        <ele>247.6</ele>
        <time>2026-07-12T08:13:44Z</time>
      </trkpt>
      <trkpt lat="44.46164" lon="1.222">
        <ele>247.4</ele>
        <time>2026-07-12T08:13:45Z</time>
      </trkpt>
      <trkpt lat="44.46166" lon="1.22201">
        <ele>247.2</ele>
        <time>2026-07-12T08:13:46Z</time>
      </trkpt>
      <trkpt lat="44.46168" lon="1.22202">
        <ele>246.9</ele>
        <time>2026-07-12T08:13:47Z</time>
      </trkpt>
      <trkpt lat="44.4617" lon="1.22203">
        <ele>246.5</ele>
        <time>2026-07-12T08:13:48Z</time>
      </trkpt>
      <trkpt lat="44.46173" lon="1.22203">
        <ele>246</ele>
        <time>2026-07-12T08:13:49Z</time>
      </trkpt>
      <trkpt lat="44.46176" lon="1.22203">
        <ele>245.6</ele>
        <time>2026-07-12T08:13:50Z</time>
      </trkpt>
      <trkpt lat="44.46178" lon="1.22203">
        <ele>245.3</ele>
        <time>2026-07-12T08:13:51Z</time>
      </trkpt>
      <trkpt lat="44.4618" lon="1.22203">
        <ele>244.9</ele>
        <time>2026-07-12T08:13:52Z</time>
      </trkpt>
      <trkpt lat="44.46195" lon="1.22203">
        <ele>242.7</ele>
        <time>2026-07-12T08:13:56Z</time>
      </trkpt>
      <trkpt lat="44.462" lon="1.222">
        <ele>242.2</ele>
        <time>2026-07-12T08:13:57Z</time>
      </trkpt>
      <trkpt lat="44.46206" lon="1.22196">
        <ele>241.6</ele>
        <time>2026-07-12T08:13:58Z</time>
      </trkpt>
      <trkpt lat="44.46212" lon="1.22192">
        <ele>240.9</ele>
        <time>2026-07-12T08:13:59Z</time>
      </trkpt>
      <trkpt lat="44.46219" lon="1.22188">
        <ele>239.8</ele>
        <time>2026-07-12T08:14:00Z</time>
      </trkpt>
      <trkpt lat="44.46224" lon="1.22184">
        <ele>238.8</ele>
        <time>2026-07-12T08:14:01Z</time>
      </trkpt>
      <trkpt lat="44.46229" lon="1.2218">
        <ele>238.2</ele>
        <time>2026-07-12T08:14:02Z</time>
      </trkpt>
      <trkpt lat="44.46234" lon="1.22176">
        <ele>237.7</ele>
        <time>2026-07-12T08:14:03Z</time>
      </trkpt>
      <trkpt lat="44.46239" lon="1.22172">
        <ele>237.3</ele>
        <time>2026-07-12T08:14:04Z</time>
      </trkpt>
      <trkpt lat="44.46244" lon="1.22169">
        <ele>237.1</ele>
        <time>2026-07-12T08:14:05Z</time>
      </trkpt>
      <trkpt lat="44.46248" lon="1.22166">
        <ele>236.9</ele>
        <time>2026-07-12T08:14:06Z</time>
      </trkpt>
      <trkpt lat="44.46252" lon="1.22163">
        <ele>236.6</ele>
        <time>2026-07-12T08:14:07Z</time>
      </trkpt>
      <trkpt lat="44.46257" lon="1.2216">
        <ele>236.2</ele>
        <time>2026-07-12T08:14:08Z</time>
      </trkpt>
      <trkpt lat="44.46261" lon="1.22157">
        <ele>235.8</ele>
        <time>2026-07-12T08:14:09Z</time>
      </trkpt>
      <trkpt lat="44.46264" lon="1.22153">
        <ele>235.5</ele>
        <time>2026-07-12T08:14:10Z</time>
      </trkpt>
      <trkpt lat="44.46268" lon="1.22148">
        <ele>235.2</ele>
        <time>2026-07-12T08:14:11Z</time>
      </trkpt>
      <trkpt lat="44.46272" lon="1.22144">
        <ele>235</ele>
        <time>2026-07-12T08:14:12Z</time>
      </trkpt>
      <trkpt lat="44.46285" lon="1.22132">
        <ele>234.4</ele>
        <time>2026-07-12T08:14:15Z</time>
      </trkpt>
      <trkpt lat="44.46289" lon="1.22129">
        <ele>234.2</ele>
        <time>2026-07-12T08:14:16Z</time>
      </trkpt>
      <trkpt lat="44.46293" lon="1.22125">
        <ele>234</ele>
        <time>2026-07-12T08:14:17Z</time>
      </trkpt>
      <trkpt lat="44.46296" lon="1.22118">
        <ele>233.8</ele>
        <time>2026-07-12T08:14:18Z</time>
      </trkpt>
      <trkpt lat="44.463" lon="1.22113">
        <ele>233.8</ele>
        <time>2026-07-12T08:14:19Z</time>
      </trkpt>
      <trkpt lat="44.46308" lon="1.22101">
        <ele>233.2</ele>
        <time>2026-07-12T08:14:21Z</time>
      </trkpt>
      <trkpt lat="44.46311" lon="1.22095">
        <ele>232.8</ele>
        <time>2026-07-12T08:14:22Z</time>
      </trkpt>
      <trkpt lat="44.46318" lon="1.22074">
        <ele>232.1</ele>
        <time>2026-07-12T08:14:25Z</time>
      </trkpt>
      <trkpt lat="44.46321" lon="1.22068">
        <ele>232</ele>
        <time>2026-07-12T08:14:26Z</time>
      </trkpt>
      <trkpt lat="44.46324" lon="1.22061">
        <ele>231.8</ele>
        <time>2026-07-12T08:14:27Z</time>
      </trkpt>
      <trkpt lat="44.4634" lon="1.22034">
        <ele>230.6</ele>
        <time>2026-07-12T08:14:31Z</time>
      </trkpt>
      <trkpt lat="44.4635" lon="1.22026">
        <ele>230.5</ele>
        <time>2026-07-12T08:14:33Z</time>
      </trkpt>
      <trkpt lat="44.46355" lon="1.22026">
        <ele>230.7</ele>
        <time>2026-07-12T08:14:34Z</time>
      </trkpt>
      <trkpt lat="44.4636" lon="1.22027">
        <ele>230.9</ele>
        <time>2026-07-12T08:14:35Z</time>
      </trkpt>
      <trkpt lat="44.46365" lon="1.22027">
        <ele>231.1</ele>
        <time>2026-07-12T08:14:36Z</time>
      </trkpt>
      <trkpt lat="44.46369" lon="1.22028">
        <ele>231.3</ele>
        <time>2026-07-12T08:14:37Z</time>
      </trkpt>
      <trkpt lat="44.46374" lon="1.2203">
        <ele>231.5</ele>
        <time>2026-07-12T08:14:38Z</time>
      </trkpt>
      <trkpt lat="44.4638" lon="1.22032">
        <ele>231.6</ele>
        <time>2026-07-12T08:14:39Z</time>
      </trkpt>
      <trkpt lat="44.46397" lon="1.22034">
        <ele>231.7</ele>
        <time>2026-07-12T08:14:42Z</time>
      </trkpt>
      <trkpt lat="44.46413" lon="1.22037">
        <ele>231.4</ele>
        <time>2026-07-12T08:14:45Z</time>
      </trkpt>
      <trkpt lat="44.46423" lon="1.2204">
        <ele>231.2</ele>
        <time>2026-07-12T08:14:47Z</time>
      </trkpt>
      <trkpt lat="44.46439" lon="1.22051">
        <ele>231</ele>
        <time>2026-07-12T08:14:50Z</time>
      </trkpt>
      <trkpt lat="44.46445" lon="1.22056">
        <ele>231</ele>
        <time>2026-07-12T08:14:51Z</time>
      </trkpt>
      <trkpt lat="44.46475" lon="1.22088">
        <ele>228.5</ele>
        <time>2026-07-12T08:14:57Z</time>
      </trkpt>
      <trkpt lat="44.46498" lon="1.22112">
        <ele>226.8</ele>
        <time>2026-07-12T08:15:01Z</time>
      </trkpt>
      <trkpt lat="44.46514" lon="1.22131">
        <ele>226</ele>
        <time>2026-07-12T08:15:04Z</time>
      </trkpt>
      <trkpt lat="44.46521" lon="1.2214">
        <ele>225.7</ele>
        <time>2026-07-12T08:15:05Z</time>
      </trkpt>
      <trkpt lat="44.46534" lon="1.22163">
        <ele>224.2</ele>
        <time>2026-07-12T08:15:08Z</time>
      </trkpt>
      <trkpt lat="44.46549" lon="1.22199">
        <ele>222.7</ele>
        <time>2026-07-12T08:15:12Z</time>
      </trkpt>
      <trkpt lat="44.46557" lon="1.22216">
        <ele>221.4</ele>
        <time>2026-07-12T08:15:14Z</time>
      </trkpt>
      <trkpt lat="44.46564" lon="1.22234">
        <ele>220.3</ele>
        <time>2026-07-12T08:15:16Z</time>
      </trkpt>
      <trkpt lat="44.46567" lon="1.22241">
        <ele>219.9</ele>
        <time>2026-07-12T08:15:17Z</time>
      </trkpt>
      <trkpt lat="44.46571" lon="1.22246">
        <ele>219.6</ele>
        <time>2026-07-12T08:15:18Z</time>
      </trkpt>
      <trkpt lat="44.46574" lon="1.22249">
        <ele>219.4</ele>
        <time>2026-07-12T08:15:19Z</time>
      </trkpt>
      <trkpt lat="44.46577" lon="1.2225">
        <ele>219.2</ele>
        <time>2026-07-12T08:15:20Z</time>
      </trkpt>
      <trkpt lat="44.46581" lon="1.22249">
        <ele>219.1</ele>
        <time>2026-07-12T08:15:21Z</time>
      </trkpt>
      <trkpt lat="44.46584" lon="1.22247">
        <ele>219.1</ele>
        <time>2026-07-12T08:15:22Z</time>
      </trkpt>
      <trkpt lat="44.46587" lon="1.22244">
        <ele>218.8</ele>
        <time>2026-07-12T08:15:23Z</time>
      </trkpt>
      <trkpt lat="44.46592" lon="1.2224">
        <ele>218.6</ele>
        <time>2026-07-12T08:15:24Z</time>
      </trkpt>
      <trkpt lat="44.466" lon="1.22232">
        <ele>218.2</ele>
        <time>2026-07-12T08:15:26Z</time>
      </trkpt>
      <trkpt lat="44.46605" lon="1.22228">
        <ele>218.1</ele>
        <time>2026-07-12T08:15:27Z</time>
      </trkpt>
      <trkpt lat="44.46609" lon="1.22223">
        <ele>218.1</ele>
        <time>2026-07-12T08:15:28Z</time>
      </trkpt>
      <trkpt lat="44.46624" lon="1.22209">
        <ele>217.5</ele>
        <time>2026-07-12T08:15:31Z</time>
      </trkpt>
      <trkpt lat="44.46634" lon="1.22199">
        <ele>217.2</ele>
        <time>2026-07-12T08:15:33Z</time>
      </trkpt>
      <trkpt lat="44.4665" lon="1.22185">
        <ele>216.5</ele>
        <time>2026-07-12T08:15:36Z</time>
      </trkpt>
      <trkpt lat="44.46656" lon="1.22182">
        <ele>216.1</ele>
        <time>2026-07-12T08:15:37Z</time>
      </trkpt>
      <trkpt lat="44.46663" lon="1.22179">
        <ele>215.7</ele>
        <time>2026-07-12T08:15:38Z</time>
      </trkpt>
      <trkpt lat="44.46696" lon="1.22169">
        <ele>214</ele>
        <time>2026-07-12T08:15:43Z</time>
      </trkpt>
      <trkpt lat="44.46708" lon="1.22163">
        <ele>213.4</ele>
        <time>2026-07-12T08:15:45Z</time>
      </trkpt>
      <trkpt lat="44.46715" lon="1.22159">
        <ele>213.2</ele>
        <time>2026-07-12T08:15:46Z</time>
      </trkpt>
      <trkpt lat="44.46748" lon="1.22139">
        <ele>212.1</ele>
        <time>2026-07-12T08:15:51Z</time>
      </trkpt>
      <trkpt lat="44.46759" lon="1.22131">
        <ele>211.8</ele>
        <time>2026-07-12T08:15:53Z</time>
      </trkpt>
      <trkpt lat="44.46781" lon="1.22109">
        <ele>212.1</ele>
        <time>2026-07-12T08:15:57Z</time>
      </trkpt>
      <trkpt lat="44.46792" lon="1.22096">
        <ele>212.3</ele>
        <time>2026-07-12T08:15:59Z</time>
      </trkpt>
      <trkpt lat="44.46796" lon="1.22092">
        <ele>212.4</ele>
        <time>2026-07-12T08:16:00Z</time>
      </trkpt>
      <trkpt lat="44.46801" lon="1.22087">
        <ele>212.7</ele>
        <time>2026-07-12T08:16:01Z</time>
      </trkpt>
      <trkpt lat="44.46806" lon="1.22082">
        <ele>213</ele>
        <time>2026-07-12T08:16:02Z</time>
      </trkpt>
      <trkpt lat="44.4681" lon="1.22078">
        <ele>212.8</ele>
        <time>2026-07-12T08:16:03Z</time>
      </trkpt>
      <trkpt lat="44.46815" lon="1.22075">
        <ele>212.8</ele>
        <time>2026-07-12T08:16:04Z</time>
      </trkpt>
      <trkpt lat="44.46831" lon="1.22066">
        <ele>212.9</ele>
        <time>2026-07-12T08:16:07Z</time>
      </trkpt>
      <trkpt lat="44.46841" lon="1.22059">
        <ele>213.5</ele>
        <time>2026-07-12T08:16:09Z</time>
      </trkpt>
      <trkpt lat="44.46847" lon="1.22055">
        <ele>214</ele>
        <time>2026-07-12T08:16:10Z</time>
      </trkpt>
      <trkpt lat="44.46871" lon="1.2204">
        <ele>215.4</ele>
        <time>2026-07-12T08:16:15Z</time>
      </trkpt>
      <trkpt lat="44.46875" lon="1.22038">
        <ele>215.8</ele>
        <time>2026-07-12T08:16:16Z</time>
      </trkpt>
      <trkpt lat="44.4688" lon="1.22036">
        <ele>216.4</ele>
        <time>2026-07-12T08:16:17Z</time>
      </trkpt>
      <trkpt lat="44.46884" lon="1.22033">
        <ele>217</ele>
        <time>2026-07-12T08:16:18Z</time>
      </trkpt>
      <trkpt lat="44.46899" lon="1.22028">
        <ele>218.3</ele>
        <time>2026-07-12T08:16:21Z</time>
      </trkpt>
      <trkpt lat="44.4691" lon="1.22029">
        <ele>218.6</ele>
        <time>2026-07-12T08:16:23Z</time>
      </trkpt>
      <trkpt lat="44.46916" lon="1.22029">
        <ele>218.7</ele>
        <time>2026-07-12T08:16:24Z</time>
      </trkpt>
      <trkpt lat="44.46922" lon="1.22029">
        <ele>218.1</ele>
        <time>2026-07-12T08:16:25Z</time>
      </trkpt>
      <trkpt lat="44.46927" lon="1.22028">
        <ele>217.5</ele>
        <time>2026-07-12T08:16:26Z</time>
      </trkpt>
      <trkpt lat="44.46933" lon="1.22025">
        <ele>216.8</ele>
        <time>2026-07-12T08:16:27Z</time>
      </trkpt>
      <trkpt lat="44.46937" lon="1.22023">
        <ele>216.3</ele>
        <time>2026-07-12T08:16:28Z</time>
      </trkpt>
      <trkpt lat="44.46944" lon="1.22019">
        <ele>215.7</ele>
        <time>2026-07-12T08:16:29Z</time>
      </trkpt>
      <trkpt lat="44.4695" lon="1.22014">
        <ele>215.7</ele>
        <time>2026-07-12T08:16:30Z</time>
      </trkpt>
      <trkpt lat="44.46955" lon="1.22009">
        <ele>215.8</ele>
        <time>2026-07-12T08:16:31Z</time>
      </trkpt>
      <trkpt lat="44.46962" lon="1.22003">
        <ele>216.1</ele>
        <time>2026-07-12T08:16:32Z</time>
      </trkpt>
      <trkpt lat="44.46969" lon="1.21999">
        <ele>216.1</ele>
        <time>2026-07-12T08:16:33Z</time>
      </trkpt>
      <trkpt lat="44.46974" lon="1.21996">
        <ele>216</ele>
        <time>2026-07-12T08:16:34Z</time>
      </trkpt>
      <trkpt lat="44.46982" lon="1.21994">
        <ele>216</ele>
        <time>2026-07-12T08:16:35Z</time>
      </trkpt>
      <trkpt lat="44.46987" lon="1.21993">
        <ele>216</ele>
        <time>2026-07-12T08:16:36Z</time>
      </trkpt>
      <trkpt lat="44.46995" lon="1.21991">
        <ele>216</ele>
        <time>2026-07-12T08:16:37Z</time>
      </trkpt>
      <trkpt lat="44.46999" lon="1.21989">
        <ele>216</ele>
        <time>2026-07-12T08:16:38Z</time>
      </trkpt>
      <trkpt lat="44.47005" lon="1.21988">
        <ele>216.2</ele>
        <time>2026-07-12T08:16:39Z</time>
      </trkpt>
      <trkpt lat="44.47012" lon="1.21985">
        <ele>216.5</ele>
        <time>2026-07-12T08:16:40Z</time>
      </trkpt>
      <trkpt lat="44.47018" lon="1.21983">
        <ele>216.8</ele>
        <time>2026-07-12T08:16:41Z</time>
      </trkpt>
      <trkpt lat="44.47023" lon="1.21981">
        <ele>217.1</ele>
        <time>2026-07-12T08:16:42Z</time>
      </trkpt>
      <trkpt lat="44.47029" lon="1.2198">
        <ele>217.5</ele>
        <time>2026-07-12T08:16:43Z</time>
      </trkpt>
      <trkpt lat="44.47034" lon="1.21977">
        <ele>217.8</ele>
        <time>2026-07-12T08:16:44Z</time>
      </trkpt>
      <trkpt lat="44.47038" lon="1.21975">
        <ele>218.1</ele>
        <time>2026-07-12T08:16:45Z</time>
      </trkpt>
      <trkpt lat="44.47043" lon="1.21972">
        <ele>218.6</ele>
        <time>2026-07-12T08:16:46Z</time>
      </trkpt>
      <trkpt lat="44.47048" lon="1.21968">
        <ele>218.9</ele>
        <time>2026-07-12T08:16:47Z</time>
      </trkpt>
      <trkpt lat="44.47053" lon="1.21963">
        <ele>219.5</ele>
        <time>2026-07-12T08:16:48Z</time>
      </trkpt>
      <trkpt lat="44.47057" lon="1.21958">
        <ele>220.1</ele>
        <time>2026-07-12T08:16:49Z</time>
      </trkpt>
      <trkpt lat="44.47061" lon="1.21953">
        <ele>220.8</ele>
        <time>2026-07-12T08:16:50Z</time>
      </trkpt>
      <trkpt lat="44.47065" lon="1.21949">
        <ele>221.4</ele>
        <time>2026-07-12T08:16:51Z</time>
      </trkpt>
      <trkpt lat="44.47069" lon="1.21944">
        <ele>221.9</ele>
        <time>2026-07-12T08:16:52Z</time>
      </trkpt>
      <trkpt lat="44.47073" lon="1.2194">
        <ele>222.3</ele>
        <time>2026-07-12T08:16:53Z</time>
      </trkpt>
      <trkpt lat="44.47076" lon="1.21936">
        <ele>222.6</ele>
        <time>2026-07-12T08:16:54Z</time>
      </trkpt>
      <trkpt lat="44.47081" lon="1.21933">
        <ele>222.9</ele>
        <time>2026-07-12T08:16:55Z</time>
      </trkpt>
      <trkpt lat="44.47085" lon="1.21929">
        <ele>223.1</ele>
        <time>2026-07-12T08:16:56Z</time>
      </trkpt>
      <trkpt lat="44.47091" lon="1.21926">
        <ele>223.5</ele>
        <time>2026-07-12T08:16:57Z</time>
      </trkpt>
      <trkpt lat="44.47096" lon="1.21922">
        <ele>223.9</ele>
        <time>2026-07-12T08:16:58Z</time>
      </trkpt>
      <trkpt lat="44.47106" lon="1.21916">
        <ele>224.6</ele>
        <time>2026-07-12T08:17:00Z</time>
      </trkpt>
      <trkpt lat="44.47118" lon="1.21912">
        <ele>225.5</ele>
        <time>2026-07-12T08:17:02Z</time>
      </trkpt>
      <trkpt lat="44.47123" lon="1.2191">
        <ele>225.9</ele>
        <time>2026-07-12T08:17:03Z</time>
      </trkpt>
      <trkpt lat="44.47128" lon="1.21909">
        <ele>226.4</ele>
        <time>2026-07-12T08:17:04Z</time>
      </trkpt>
      <trkpt lat="44.47134" lon="1.21909">
        <ele>226.9</ele>
        <time>2026-07-12T08:17:05Z</time>
      </trkpt>
      <trkpt lat="44.47139" lon="1.21908">
        <ele>227.4</ele>
        <time>2026-07-12T08:17:06Z</time>
      </trkpt>
      <trkpt lat="44.47145" lon="1.21907">
        <ele>227.4</ele>
        <time>2026-07-12T08:17:07Z</time>
      </trkpt>
      <trkpt lat="44.4715" lon="1.21906">
        <ele>227.5</ele>
        <time>2026-07-12T08:17:08Z</time>
      </trkpt>
      <trkpt lat="44.47156" lon="1.21905">
        <ele>227.5</ele>
        <time>2026-07-12T08:17:09Z</time>
      </trkpt>
      <trkpt lat="44.47161" lon="1.21904">
        <ele>227.5</ele>
        <time>2026-07-12T08:17:10Z</time>
      </trkpt>
      <trkpt lat="44.47168" lon="1.21903">
        <ele>227.6</ele>
        <time>2026-07-12T08:17:11Z</time>
      </trkpt>
      <trkpt lat="44.47174" lon="1.21902">
        <ele>227.8</ele>
        <time>2026-07-12T08:17:12Z</time>
      </trkpt>
      <trkpt lat="44.47179" lon="1.21901">
        <ele>228</ele>
        <time>2026-07-12T08:17:13Z</time>
      </trkpt>
      <trkpt lat="44.47185" lon="1.219">
        <ele>228.2</ele>
        <time>2026-07-12T08:17:14Z</time>
      </trkpt>
      <trkpt lat="44.4719" lon="1.21899">
        <ele>228.2</ele>
        <time>2026-07-12T08:17:15Z</time>
      </trkpt>
      <trkpt lat="44.47195" lon="1.21898">
        <ele>228.4</ele>
        <time>2026-07-12T08:17:16Z</time>
      </trkpt>
      <trkpt lat="44.47201" lon="1.21896">
        <ele>228.9</ele>
        <time>2026-07-12T08:17:17Z</time>
      </trkpt>
      <trkpt lat="44.47206" lon="1.21895">
        <ele>229.4</ele>
        <time>2026-07-12T08:17:18Z</time>
      </trkpt>
      <trkpt lat="44.47211" lon="1.21894">
        <ele>230</ele>
        <time>2026-07-12T08:17:19Z</time>
      </trkpt>
      <trkpt lat="44.47216" lon="1.21893">
        <ele>230.6</ele>
        <time>2026-07-12T08:17:20Z</time>
      </trkpt>
      <trkpt lat="44.47221" lon="1.21892">
        <ele>231.2</ele>
        <time>2026-07-12T08:17:21Z</time>
      </trkpt>
      <trkpt lat="44.47226" lon="1.21891">
        <ele>231.7</ele>
        <time>2026-07-12T08:17:22Z</time>
      </trkpt>
      <trkpt lat="44.47231" lon="1.2189">
        <ele>232.1</ele>
        <time>2026-07-12T08:17:23Z</time>
      </trkpt>
      <trkpt lat="44.47236" lon="1.21889">
        <ele>232.5</ele>
        <time>2026-07-12T08:17:24Z</time>
      </trkpt>
      <trkpt lat="44.47241" lon="1.21888">
        <ele>232.9</ele>
        <time>2026-07-12T08:17:25Z</time>
      </trkpt>
      <trkpt lat="44.47246" lon="1.21887">
        <ele>233.4</ele>
        <time>2026-07-12T08:17:26Z</time>
      </trkpt>
      <trkpt lat="44.47252" lon="1.21886">
        <ele>233.8</ele>
        <time>2026-07-12T08:17:27Z</time>
      </trkpt>
      <trkpt lat="44.47257" lon="1.21885">
        <ele>234.1</ele>
        <time>2026-07-12T08:17:28Z</time>
      </trkpt>
      <trkpt lat="44.47262" lon="1.21884">
        <ele>234.3</ele>
        <time>2026-07-12T08:17:29Z</time>
      </trkpt>
      <trkpt lat="44.47267" lon="1.21882">
        <ele>234.5</ele>
        <time>2026-07-12T08:17:30Z</time>
      </trkpt>
      <trkpt lat="44.47273" lon="1.21881">
        <ele>234.8</ele>
        <time>2026-07-12T08:17:31Z</time>
      </trkpt>
      <trkpt lat="44.47277" lon="1.2188">
        <ele>235</ele>
        <time>2026-07-12T08:17:32Z</time>
      </trkpt>
      <trkpt lat="44.47284" lon="1.21879">
        <ele>234.9</ele>
        <time>2026-07-12T08:17:33Z</time>
      </trkpt>
      <trkpt lat="44.47289" lon="1.21878">
        <ele>234.8</ele>
        <time>2026-07-12T08:17:34Z</time>
      </trkpt>
      <trkpt lat="44.47295" lon="1.21878">
        <ele>234.8</ele>
        <time>2026-07-12T08:17:35Z</time>
      </trkpt>
      <trkpt lat="44.47301" lon="1.21878">
        <ele>234.8</ele>
        <time>2026-07-12T08:17:36Z</time>
      </trkpt>
      <trkpt lat="44.47305" lon="1.21878">
        <ele>234.8</ele>
        <time>2026-07-12T08:17:37Z</time>
      </trkpt>
      <trkpt lat="44.47312" lon="1.21879">
        <ele>234.8</ele>
        <time>2026-07-12T08:17:38Z</time>
      </trkpt>
      <trkpt lat="44.47318" lon="1.2188">
        <ele>234.8</ele>
        <time>2026-07-12T08:17:39Z</time>
      </trkpt>
      <trkpt lat="44.47324" lon="1.21882">
        <ele>234.8</ele>
        <time>2026-07-12T08:17:40Z</time>
      </trkpt>
      <trkpt lat="44.4733" lon="1.21884">
        <ele>234.8</ele>
        <time>2026-07-12T08:17:41Z</time>
      </trkpt>
      <trkpt lat="44.47335" lon="1.21886">
        <ele>234.9</ele>
        <time>2026-07-12T08:17:42Z</time>
      </trkpt>
      <trkpt lat="44.47341" lon="1.21887">
        <ele>235.2</ele>
        <time>2026-07-12T08:17:43Z</time>
      </trkpt>
      <trkpt lat="44.47346" lon="1.21889">
        <ele>235.5</ele>
        <time>2026-07-12T08:17:44Z</time>
      </trkpt>
      <trkpt lat="44.47351" lon="1.21892">
        <ele>235.8</ele>
        <time>2026-07-12T08:17:45Z</time>
      </trkpt>
      <trkpt lat="44.47356" lon="1.21895">
        <ele>236.1</ele>
        <time>2026-07-12T08:17:46Z</time>
      </trkpt>
      <trkpt lat="44.47361" lon="1.21898">
        <ele>236.3</ele>
        <time>2026-07-12T08:17:47Z</time>
      </trkpt>
      <trkpt lat="44.47366" lon="1.21902">
        <ele>236.2</ele>
        <time>2026-07-12T08:17:48Z</time>
      </trkpt>
      <trkpt lat="44.4737" lon="1.21906">
        <ele>236.2</ele>
        <time>2026-07-12T08:17:49Z</time>
      </trkpt>
      <trkpt lat="44.47376" lon="1.21911">
        <ele>236.1</ele>
        <time>2026-07-12T08:17:50Z</time>
      </trkpt>
      <trkpt lat="44.47382" lon="1.21915">
        <ele>236.2</ele>
        <time>2026-07-12T08:17:51Z</time>
      </trkpt>
      <trkpt lat="44.47387" lon="1.21919">
        <ele>236.1</ele>
        <time>2026-07-12T08:17:52Z</time>
      </trkpt>
      <trkpt lat="44.47392" lon="1.21922">
        <ele>236</ele>
        <time>2026-07-12T08:17:53Z</time>
      </trkpt>
      <trkpt lat="44.47397" lon="1.21925">
        <ele>236.1</ele>
        <time>2026-07-12T08:17:54Z</time>
      </trkpt>
      <trkpt lat="44.47403" lon="1.21929">
        <ele>236.2</ele>
        <time>2026-07-12T08:17:55Z</time>
      </trkpt>
      <trkpt lat="44.47408" lon="1.21932">
        <ele>236.4</ele>
        <time>2026-07-12T08:17:56Z</time>
      </trkpt>
      <trkpt lat="44.47413" lon="1.21935">
        <ele>236.6</ele>
        <time>2026-07-12T08:17:57Z</time>
      </trkpt>
      <trkpt lat="44.47418" lon="1.21938">
        <ele>236.8</ele>
        <time>2026-07-12T08:17:58Z</time>
      </trkpt>
      <trkpt lat="44.47423" lon="1.21941">
        <ele>237.3</ele>
        <time>2026-07-12T08:17:59Z</time>
      </trkpt>
      <trkpt lat="44.47428" lon="1.21944">
        <ele>237.8</ele>
        <time>2026-07-12T08:18:00Z</time>
      </trkpt>
      <trkpt lat="44.47433" lon="1.21946">
        <ele>238.1</ele>
        <time>2026-07-12T08:18:01Z</time>
      </trkpt>
      <trkpt lat="44.47438" lon="1.21949">
        <ele>238.4</ele>
        <time>2026-07-12T08:18:02Z</time>
      </trkpt>
      <trkpt lat="44.47443" lon="1.21952">
        <ele>238.6</ele>
        <time>2026-07-12T08:18:03Z</time>
      </trkpt>
      <trkpt lat="44.47447" lon="1.21955">
        <ele>238.9</ele>
        <time>2026-07-12T08:18:04Z</time>
      </trkpt>
      <trkpt lat="44.47452" lon="1.21957">
        <ele>239.2</ele>
        <time>2026-07-12T08:18:05Z</time>
      </trkpt>
      <trkpt lat="44.47458" lon="1.21959">
        <ele>239.7</ele>
        <time>2026-07-12T08:18:06Z</time>
      </trkpt>
      <trkpt lat="44.47463" lon="1.21961">
        <ele>240.1</ele>
        <time>2026-07-12T08:18:07Z</time>
      </trkpt>
      <trkpt lat="44.47468" lon="1.21962">
        <ele>240.6</ele>
        <time>2026-07-12T08:18:08Z</time>
      </trkpt>
      <trkpt lat="44.47473" lon="1.21962">
        <ele>241</ele>
        <time>2026-07-12T08:18:09Z</time>
      </trkpt>
      <trkpt lat="44.47477" lon="1.21963">
        <ele>241.5</ele>
        <time>2026-07-12T08:18:10Z</time>
      </trkpt>
      <trkpt lat="44.47482" lon="1.21964">
        <ele>242</ele>
        <time>2026-07-12T08:18:11Z</time>
      </trkpt>
      <trkpt lat="44.47487" lon="1.21965">
        <ele>242.6</ele>
        <time>2026-07-12T08:18:12Z</time>
      </trkpt>
      <trkpt lat="44.47492" lon="1.21967">
        <ele>243.1</ele>
        <time>2026-07-12T08:18:13Z</time>
      </trkpt>
      <trkpt lat="44.47496" lon="1.21968">
        <ele>243.6</ele>
        <time>2026-07-12T08:18:14Z</time>
      </trkpt>
      <trkpt lat="44.47501" lon="1.21969">
        <ele>244.1</ele>
        <time>2026-07-12T08:18:15Z</time>
      </trkpt>
      <trkpt lat="44.47506" lon="1.2197">
        <ele>244.7</ele>
        <time>2026-07-12T08:18:16Z</time>
      </trkpt>
      <trkpt lat="44.47598" lon="1.21944">
        <ele>258.1</ele>
        <time>2026-07-12T08:19:12Z</time>
      </trkpt>
      <trkpt lat="44.47607" lon="1.21932">
        <ele>259.6</ele>
        <time>2026-07-12T08:19:15Z</time>
      </trkpt>
      <trkpt lat="44.4761" lon="1.21928">
        <ele>260.1</ele>
        <time>2026-07-12T08:19:16Z</time>
      </trkpt>
      <trkpt lat="44.47614" lon="1.2192">
        <ele>261</ele>
        <time>2026-07-12T08:19:18Z</time>
      </trkpt>
      <trkpt lat="44.47618" lon="1.21911">
        <ele>261.9</ele>
        <time>2026-07-12T08:19:20Z</time>
      </trkpt>
      <trkpt lat="44.47619" lon="1.21905">
        <ele>262.4</ele>
        <time>2026-07-12T08:19:21Z</time>
      </trkpt>
      <trkpt lat="44.47619" lon="1.219">
        <ele>262.8</ele>
        <time>2026-07-12T08:19:22Z</time>
      </trkpt>
      <trkpt lat="44.47619" lon="1.21895">
        <ele>263.1</ele>
        <time>2026-07-12T08:19:23Z</time>
      </trkpt>
      <trkpt lat="44.47618" lon="1.2189">
        <ele>263.4</ele>
        <time>2026-07-12T08:19:24Z</time>
      </trkpt>
      <trkpt lat="44.47617" lon="1.21885">
        <ele>263.8</ele>
        <time>2026-07-12T08:19:25Z</time>
      </trkpt>
      <trkpt lat="44.47616" lon="1.2188">
        <ele>264.1</ele>
        <time>2026-07-12T08:19:26Z</time>
      </trkpt>
      <trkpt lat="44.47615" lon="1.21874">
        <ele>264.4</ele>
        <time>2026-07-12T08:19:27Z</time>
      </trkpt>
      <trkpt lat="44.47615" lon="1.21869">
        <ele>264.8</ele>
        <time>2026-07-12T08:19:28Z</time>
      </trkpt>
      <trkpt lat="44.47616" lon="1.21864">
        <ele>265.3</ele>
        <time>2026-07-12T08:19:29Z</time>
      </trkpt>
      <trkpt lat="44.47617" lon="1.21859">
        <ele>265.7</ele>
        <time>2026-07-12T08:19:30Z</time>
      </trkpt>
      <trkpt lat="44.47617" lon="1.21854">
        <ele>265.9</ele>
        <time>2026-07-12T08:19:31Z</time>
      </trkpt>
      <trkpt lat="44.47618" lon="1.21848">
        <ele>266.2</ele>
        <time>2026-07-12T08:19:32Z</time>
      </trkpt>
      <trkpt lat="44.47619" lon="1.21844">
        <ele>266.5</ele>
        <time>2026-07-12T08:19:33Z</time>
      </trkpt>
      <trkpt lat="44.47619" lon="1.21839">
        <ele>266.6</ele>
        <time>2026-07-12T08:19:34Z</time>
      </trkpt>
      <trkpt lat="44.47618" lon="1.21833">
        <ele>266.8</ele>
        <time>2026-07-12T08:19:35Z</time>
      </trkpt>
      <trkpt lat="44.47616" lon="1.21827">
        <ele>267</ele>
        <time>2026-07-12T08:19:36Z</time>
      </trkpt>
      <trkpt lat="44.47613" lon="1.21821">
        <ele>267.1</ele>
        <time>2026-07-12T08:19:37Z</time>
      </trkpt>
      <trkpt lat="44.47611" lon="1.21816">
        <ele>267.2</ele>
        <time>2026-07-12T08:19:38Z</time>
      </trkpt>
      <trkpt lat="44.47608" lon="1.21809">
        <ele>267.4</ele>
        <time>2026-07-12T08:19:39Z</time>
      </trkpt>
      <trkpt lat="44.47607" lon="1.21803">
        <ele>267.4</ele>
        <time>2026-07-12T08:19:40Z</time>
      </trkpt>
      <trkpt lat="44.47605" lon="1.21796">
        <ele>267.1</ele>
        <time>2026-07-12T08:19:41Z</time>
      </trkpt>
      <trkpt lat="44.47604" lon="1.21788">
        <ele>267</ele>
        <time>2026-07-12T08:19:42Z</time>
      </trkpt>
      <trkpt lat="44.47602" lon="1.21781">
        <ele>266.7</ele>
        <time>2026-07-12T08:19:43Z</time>
      </trkpt>
      <trkpt lat="44.476" lon="1.21773">
        <ele>266.5</ele>
        <time>2026-07-12T08:19:44Z</time>
      </trkpt>
      <trkpt lat="44.47598" lon="1.21766">
        <ele>266.3</ele>
        <time>2026-07-12T08:19:45Z</time>
      </trkpt>
      <trkpt lat="44.47597" lon="1.21758">
        <ele>266.3</ele>
        <time>2026-07-12T08:19:46Z</time>
      </trkpt>
      <trkpt lat="44.47599" lon="1.21751">
        <ele>266.8</ele>
        <time>2026-07-12T08:19:47Z</time>
      </trkpt>
      <trkpt lat="44.47601" lon="1.21745">
        <ele>267.1</ele>
        <time>2026-07-12T08:19:48Z</time>
      </trkpt>
      <trkpt lat="44.47602" lon="1.21738">
        <ele>267.4</ele>
        <time>2026-07-12T08:19:49Z</time>
      </trkpt>
      <trkpt lat="44.47604" lon="1.2173">
        <ele>267.7</ele>
        <time>2026-07-12T08:19:50Z</time>
      </trkpt>
      <trkpt lat="44.47604" lon="1.21722">
        <ele>267.7</ele>
        <time>2026-07-12T08:19:51Z</time>
      </trkpt>
      <trkpt lat="44.47604" lon="1.21714">
        <ele>267.6</ele>
        <time>2026-07-12T08:19:52Z</time>
      </trkpt>
      <trkpt lat="44.47605" lon="1.21707">
        <ele>267.5</ele>
        <time>2026-07-12T08:19:53Z</time>
      </trkpt>
      <trkpt lat="44.47608" lon="1.217">
        <ele>267.7</ele>
        <time>2026-07-12T08:19:54Z</time>
      </trkpt>
      <trkpt lat="44.47611" lon="1.21694">
        <ele>268</ele>
        <time>2026-07-12T08:19:55Z</time>
      </trkpt>
      <trkpt lat="44.47614" lon="1.21689">
        <ele>268.4</ele>
        <time>2026-07-12T08:19:56Z</time>
      </trkpt>
      <trkpt lat="44.47618" lon="1.21683">
        <ele>268.8</ele>
        <time>2026-07-12T08:19:57Z</time>
      </trkpt>
      <trkpt lat="44.47621" lon="1.21678">
        <ele>269.2</ele>
        <time>2026-07-12T08:19:58Z</time>
      </trkpt>
      <trkpt lat="44.47624" lon="1.21674">
        <ele>269.5</ele>
        <time>2026-07-12T08:19:59Z</time>
      </trkpt>
      <trkpt lat="44.47627" lon="1.21669">
        <ele>269.8</ele>
        <time>2026-07-12T08:20:00Z</time>
      </trkpt>
      <trkpt lat="44.4763" lon="1.21662">
        <ele>269.9</ele>
        <time>2026-07-12T08:20:01Z</time>
      </trkpt>
      <trkpt lat="44.47631" lon="1.21656">
        <ele>269.9</ele>
        <time>2026-07-12T08:20:02Z</time>
      </trkpt>
      <trkpt lat="44.47633" lon="1.2165">
        <ele>269.9</ele>
        <time>2026-07-12T08:20:03Z</time>
      </trkpt>
      <trkpt lat="44.47636" lon="1.21646">
        <ele>270.1</ele>
        <time>2026-07-12T08:20:04Z</time>
      </trkpt>
      <trkpt lat="44.47639" lon="1.21643">
        <ele>270.2</ele>
        <time>2026-07-12T08:20:05Z</time>
      </trkpt>
      <trkpt lat="44.47643" lon="1.2164">
        <ele>270.3</ele>
        <time>2026-07-12T08:20:06Z</time>
      </trkpt>
      <trkpt lat="44.47647" lon="1.21638">
        <ele>270.5</ele>
        <time>2026-07-12T08:20:07Z</time>
      </trkpt>
      <trkpt lat="44.4765" lon="1.21634">
        <ele>270.5</ele>
        <time>2026-07-12T08:20:08Z</time>
      </trkpt>
      <trkpt lat="44.47653" lon="1.21628">
        <ele>270.4</ele>
        <time>2026-07-12T08:20:09Z</time>
      </trkpt>
      <trkpt lat="44.47655" lon="1.21621">
        <ele>270.2</ele>
        <time>2026-07-12T08:20:10Z</time>
      </trkpt>
      <trkpt lat="44.47657" lon="1.21616">
        <ele>269.9</ele>
        <time>2026-07-12T08:20:11Z</time>
      </trkpt>
      <trkpt lat="44.4766" lon="1.21609">
        <ele>269.6</ele>
        <time>2026-07-12T08:20:12Z</time>
      </trkpt>
      <trkpt lat="44.47663" lon="1.21602">
        <ele>269.3</ele>
        <time>2026-07-12T08:20:13Z</time>
      </trkpt>
      <trkpt lat="44.47667" lon="1.21594">
        <ele>268.8</ele>
        <time>2026-07-12T08:20:14Z</time>
      </trkpt>
      <trkpt lat="44.47671" lon="1.21588">
        <ele>268.3</ele>
        <time>2026-07-12T08:20:15Z</time>
      </trkpt>
      <trkpt lat="44.47675" lon="1.21581">
        <ele>267.9</ele>
        <time>2026-07-12T08:20:16Z</time>
      </trkpt>
      <trkpt lat="44.4768" lon="1.21575">
        <ele>267.7</ele>
        <time>2026-07-12T08:20:17Z</time>
      </trkpt>
      <trkpt lat="44.47686" lon="1.21571">
        <ele>267.6</ele>
        <time>2026-07-12T08:20:18Z</time>
      </trkpt>
      <trkpt lat="44.47691" lon="1.21569">
        <ele>267.5</ele>
        <time>2026-07-12T08:20:19Z</time>
      </trkpt>
      <trkpt lat="44.47698" lon="1.21569">
        <ele>267.3</ele>
        <time>2026-07-12T08:20:20Z</time>
      </trkpt>
      <trkpt lat="44.47705" lon="1.2157">
        <ele>267.1</ele>
        <time>2026-07-12T08:20:21Z</time>
      </trkpt>
      <trkpt lat="44.47711" lon="1.2157">
        <ele>266.9</ele>
        <time>2026-07-12T08:20:22Z</time>
      </trkpt>
      <trkpt lat="44.47717" lon="1.21569">
        <ele>266.7</ele>
        <time>2026-07-12T08:20:23Z</time>
      </trkpt>
      <trkpt lat="44.4772" lon="1.21564">
        <ele>266.4</ele>
        <time>2026-07-12T08:20:24Z</time>
      </trkpt>
      <trkpt lat="44.4773" lon="1.2155">
        <ele>265.1</ele>
        <time>2026-07-12T08:20:26Z</time>
      </trkpt>
      <trkpt lat="44.47735" lon="1.21547">
        <ele>264.5</ele>
        <time>2026-07-12T08:20:27Z</time>
      </trkpt>
      <trkpt lat="44.47738" lon="1.21549">
        <ele>264.4</ele>
        <time>2026-07-12T08:20:28Z</time>
      </trkpt>
      <trkpt lat="44.47741" lon="1.21552">
        <ele>264.4</ele>
        <time>2026-07-12T08:20:29Z</time>
      </trkpt>
      <trkpt lat="44.47746" lon="1.21556">
        <ele>264.3</ele>
        <time>2026-07-12T08:20:30Z</time>
      </trkpt>
      <trkpt lat="44.47757" lon="1.21558">
        <ele>263.4</ele>
        <time>2026-07-12T08:20:32Z</time>
      </trkpt>
      <trkpt lat="44.47759" lon="1.21559">
        <ele>263.2</ele>
        <time>2026-07-12T08:20:33Z</time>
      </trkpt>
      <trkpt lat="44.47762" lon="1.21562">
        <ele>262.9</ele>
        <time>2026-07-12T08:20:34Z</time>
      </trkpt>
      <trkpt lat="44.47764" lon="1.21565">
        <ele>262.9</ele>
        <time>2026-07-12T08:20:35Z</time>
      </trkpt>
      <trkpt lat="44.47766" lon="1.21574">
        <ele>262.9</ele>
        <time>2026-07-12T08:20:37Z</time>
      </trkpt>
      <trkpt lat="44.47768" lon="1.21579">
        <ele>262.9</ele>
        <time>2026-07-12T08:20:38Z</time>
      </trkpt>
      <trkpt lat="44.47774" lon="1.21589">
        <ele>262.7</ele>
        <time>2026-07-12T08:20:40Z</time>
      </trkpt>
      <trkpt lat="44.47778" lon="1.21594">
        <ele>262.4</ele>
        <time>2026-07-12T08:20:41Z</time>
      </trkpt>
      <trkpt lat="44.47783" lon="1.21598">
        <ele>261.6</ele>
        <time>2026-07-12T08:20:42Z</time>
      </trkpt>
      <trkpt lat="44.4779" lon="1.21601">
        <ele>260.7</ele>
        <time>2026-07-12T08:20:43Z</time>
      </trkpt>
      <trkpt lat="44.47796" lon="1.21603">
        <ele>259.6</ele>
        <time>2026-07-12T08:20:44Z</time>
      </trkpt>
      <trkpt lat="44.47803" lon="1.21604">
        <ele>258.4</ele>
        <time>2026-07-12T08:20:45Z</time>
      </trkpt>
      <trkpt lat="44.47811" lon="1.21603">
        <ele>257.4</ele>
        <time>2026-07-12T08:20:46Z</time>
      </trkpt>
      <trkpt lat="44.47819" lon="1.216">
        <ele>256.5</ele>
        <time>2026-07-12T08:20:47Z</time>
      </trkpt>
      <trkpt lat="44.47826" lon="1.21599">
        <ele>255.8</ele>
        <time>2026-07-12T08:20:48Z</time>
      </trkpt>
      <trkpt lat="44.47833" lon="1.21601">
        <ele>255</ele>
        <time>2026-07-12T08:20:49Z</time>
      </trkpt>
      <trkpt lat="44.47839" lon="1.21609">
        <ele>254</ele>
        <time>2026-07-12T08:20:50Z</time>
      </trkpt>
      <trkpt lat="44.47844" lon="1.21615">
        <ele>252.8</ele>
        <time>2026-07-12T08:20:51Z</time>
      </trkpt>
      <trkpt lat="44.47851" lon="1.2162">
        <ele>251.4</ele>
        <time>2026-07-12T08:20:52Z</time>
      </trkpt>
      <trkpt lat="44.47858" lon="1.2162">
        <ele>250.2</ele>
        <time>2026-07-12T08:20:53Z</time>
      </trkpt>
      <trkpt lat="44.47865" lon="1.21618">
        <ele>249.5</ele>
        <time>2026-07-12T08:20:54Z</time>
      </trkpt>
      <trkpt lat="44.47874" lon="1.21616">
        <ele>248.9</ele>
        <time>2026-07-12T08:20:55Z</time>
      </trkpt>
      <trkpt lat="44.47883" lon="1.21616">
        <ele>248.3</ele>
        <time>2026-07-12T08:20:56Z</time>
      </trkpt>
      <trkpt lat="44.47892" lon="1.21619">
        <ele>247.5</ele>
        <time>2026-07-12T08:20:57Z</time>
      </trkpt>
      <trkpt lat="44.47899" lon="1.21626">
        <ele>246.8</ele>
        <time>2026-07-12T08:20:58Z</time>
      </trkpt>
      <trkpt lat="44.47904" lon="1.21634">
        <ele>246.1</ele>
        <time>2026-07-12T08:20:59Z</time>
      </trkpt>
      <trkpt lat="44.47911" lon="1.21639">
        <ele>245.4</ele>
        <time>2026-07-12T08:21:00Z</time>
      </trkpt>
      <trkpt lat="44.47917" lon="1.21641">
        <ele>244.9</ele>
        <time>2026-07-12T08:21:01Z</time>
      </trkpt>
      <trkpt lat="44.47921" lon="1.21645">
        <ele>244.3</ele>
        <time>2026-07-12T08:21:02Z</time>
      </trkpt>
      <trkpt lat="44.47924" lon="1.21654">
        <ele>243.7</ele>
        <time>2026-07-12T08:21:03Z</time>
      </trkpt>
      <trkpt lat="44.47927" lon="1.21663">
        <ele>243.1</ele>
        <time>2026-07-12T08:21:04Z</time>
      </trkpt>
      <trkpt lat="44.4793" lon="1.21672">
        <ele>242</ele>
        <time>2026-07-12T08:21:05Z</time>
      </trkpt>
      <trkpt lat="44.47936" lon="1.21679">
        <ele>240.8</ele>
        <time>2026-07-12T08:21:06Z</time>
      </trkpt>
      <trkpt lat="44.47942" lon="1.21683">
        <ele>240</ele>
        <time>2026-07-12T08:21:07Z</time>
      </trkpt>
      <trkpt lat="44.4795" lon="1.21684">
        <ele>239.2</ele>
        <time>2026-07-12T08:21:08Z</time>
      </trkpt>
      <trkpt lat="44.47959" lon="1.21684">
        <ele>238.5</ele>
        <time>2026-07-12T08:21:09Z</time>
      </trkpt>
      <trkpt lat="44.47968" lon="1.21682">
        <ele>237.8</ele>
        <time>2026-07-12T08:21:10Z</time>
      </trkpt>
      <trkpt lat="44.47976" lon="1.21679">
        <ele>237</ele>
        <time>2026-07-12T08:21:11Z</time>
      </trkpt>
      <trkpt lat="44.47983" lon="1.21676">
        <ele>236.1</ele>
        <time>2026-07-12T08:21:12Z</time>
      </trkpt>
      <trkpt lat="44.4799" lon="1.21675">
        <ele>235.2</ele>
        <time>2026-07-12T08:21:13Z</time>
      </trkpt>
      <trkpt lat="44.47996" lon="1.21677">
        <ele>234.3</ele>
        <time>2026-07-12T08:21:14Z</time>
      </trkpt>
      <trkpt lat="44.48" lon="1.21683">
        <ele>233.3</ele>
        <time>2026-07-12T08:21:15Z</time>
      </trkpt>
      <trkpt lat="44.48004" lon="1.21693">
        <ele>232.1</ele>
        <time>2026-07-12T08:21:16Z</time>
      </trkpt>
      <trkpt lat="44.48007" lon="1.21704">
        <ele>230.4</ele>
        <time>2026-07-12T08:21:17Z</time>
      </trkpt>
      <trkpt lat="44.48004" lon="1.21722">
        <ele>229.1</ele>
        <time>2026-07-12T08:21:19Z</time>
      </trkpt>
      <trkpt lat="44.48" lon="1.2173">
        <ele>228.1</ele>
        <time>2026-07-12T08:21:20Z</time>
      </trkpt>
      <trkpt lat="44.47988" lon="1.21746">
        <ele>225.6</ele>
        <time>2026-07-12T08:21:22Z</time>
      </trkpt>
      <trkpt lat="44.47984" lon="1.21756">
        <ele>225.6</ele>
        <time>2026-07-12T08:21:23Z</time>
      </trkpt>
      <trkpt lat="44.47984" lon="1.21766">
        <ele>225.9</ele>
        <time>2026-07-12T08:21:24Z</time>
      </trkpt>
      <trkpt lat="44.47988" lon="1.21773">
        <ele>225.4</ele>
        <time>2026-07-12T08:21:25Z</time>
      </trkpt>
      <trkpt lat="44.47994" lon="1.21781">
        <ele>224.6</ele>
        <time>2026-07-12T08:21:26Z</time>
      </trkpt>
      <trkpt lat="44.48" lon="1.2179">
        <ele>224.3</ele>
        <time>2026-07-12T08:21:27Z</time>
      </trkpt>
      <trkpt lat="44.48006" lon="1.21799">
        <ele>223.6</ele>
        <time>2026-07-12T08:21:28Z</time>
      </trkpt>
      <trkpt lat="44.48017" lon="1.21816">
        <ele>222.2</ele>
        <time>2026-07-12T08:21:30Z</time>
      </trkpt>
      <trkpt lat="44.48028" lon="1.21835">
        <ele>220</ele>
        <time>2026-07-12T08:21:32Z</time>
      </trkpt>
      <trkpt lat="44.48033" lon="1.21845">
        <ele>219.3</ele>
        <time>2026-07-12T08:21:33Z</time>
      </trkpt>
      <trkpt lat="44.48042" lon="1.21865">
        <ele>217.9</ele>
        <time>2026-07-12T08:21:35Z</time>
      </trkpt>
      <trkpt lat="44.48047" lon="1.21877">
        <ele>216.8</ele>
        <time>2026-07-12T08:21:36Z</time>
      </trkpt>
      <trkpt lat="44.48058" lon="1.21902">
        <ele>214.4</ele>
        <time>2026-07-12T08:21:38Z</time>
      </trkpt>
      <trkpt lat="44.48062" lon="1.21916">
        <ele>213.3</ele>
        <time>2026-07-12T08:21:39Z</time>
      </trkpt>
      <trkpt lat="44.48069" lon="1.21941">
        <ele>212.5</ele>
        <time>2026-07-12T08:21:41Z</time>
      </trkpt>
      <trkpt lat="44.48074" lon="1.21952">
        <ele>211.9</ele>
        <time>2026-07-12T08:21:42Z</time>
      </trkpt>
      <trkpt lat="44.48079" lon="1.21962">
        <ele>211.3</ele>
        <time>2026-07-12T08:21:43Z</time>
      </trkpt>
      <trkpt lat="44.48086" lon="1.21967">
        <ele>210.5</ele>
        <time>2026-07-12T08:21:44Z</time>
      </trkpt>
      <trkpt lat="44.48095" lon="1.21971">
        <ele>209.7</ele>
        <time>2026-07-12T08:21:45Z</time>
      </trkpt>
      <trkpt lat="44.48105" lon="1.21973">
        <ele>208.7</ele>
        <time>2026-07-12T08:21:46Z</time>
      </trkpt>
      <trkpt lat="44.48116" lon="1.21976">
        <ele>207.1</ele>
        <time>2026-07-12T08:21:47Z</time>
      </trkpt>
      <trkpt lat="44.48126" lon="1.2198">
        <ele>205.4</ele>
        <time>2026-07-12T08:21:48Z</time>
      </trkpt>
      <trkpt lat="44.48135" lon="1.21983">
        <ele>204</ele>
        <time>2026-07-12T08:21:49Z</time>
      </trkpt>
      <trkpt lat="44.48143" lon="1.21988">
        <ele>202.8</ele>
        <time>2026-07-12T08:21:50Z</time>
      </trkpt>
      <trkpt lat="44.48149" lon="1.21995">
        <ele>201.6</ele>
        <time>2026-07-12T08:21:51Z</time>
      </trkpt>
      <trkpt lat="44.48155" lon="1.22003">
        <ele>200.5</ele>
        <time>2026-07-12T08:21:52Z</time>
      </trkpt>
      <trkpt lat="44.48162" lon="1.2201">
        <ele>199</ele>
        <time>2026-07-12T08:21:53Z</time>
      </trkpt>
      <trkpt lat="44.48168" lon="1.22015">
        <ele>197.7</ele>
        <time>2026-07-12T08:21:54Z</time>
      </trkpt>
      <trkpt lat="44.48174" lon="1.22017">
        <ele>196.6</ele>
        <time>2026-07-12T08:21:55Z</time>
      </trkpt>
      <trkpt lat="44.48179" lon="1.22016">
        <ele>195.6</ele>
        <time>2026-07-12T08:21:56Z</time>
      </trkpt>
      <trkpt lat="44.48184" lon="1.22015">
        <ele>194.6</ele>
        <time>2026-07-12T08:21:57Z</time>
      </trkpt>
      <trkpt lat="44.48188" lon="1.22012">
        <ele>193.7</ele>
        <time>2026-07-12T08:21:58Z</time>
      </trkpt>
      <trkpt lat="44.48193" lon="1.22008">
        <ele>192.6</ele>
        <time>2026-07-12T08:21:59Z</time>
      </trkpt>
      <trkpt lat="44.48199" lon="1.22003">
        <ele>190.5</ele>
        <time>2026-07-12T08:22:00Z</time>
      </trkpt>
      <trkpt lat="44.48207" lon="1.21999">
        <ele>188.1</ele>
        <time>2026-07-12T08:22:01Z</time>
      </trkpt>
      <trkpt lat="44.48213" lon="1.21995">
        <ele>185.7</ele>
        <time>2026-07-12T08:22:02Z</time>
      </trkpt>
      <trkpt lat="44.4822" lon="1.21992">
        <ele>183.3</ele>
        <time>2026-07-12T08:22:03Z</time>
      </trkpt>
      <trkpt lat="44.48227" lon="1.21989">
        <ele>181.3</ele>
        <time>2026-07-12T08:22:04Z</time>
      </trkpt>
      <trkpt lat="44.48234" lon="1.21984">
        <ele>179.3</ele>
        <time>2026-07-12T08:22:05Z</time>
      </trkpt>
      <trkpt lat="44.48241" lon="1.21977">
        <ele>177</ele>
        <time>2026-07-12T08:22:06Z</time>
      </trkpt>
      <trkpt lat="44.48247" lon="1.21966">
        <ele>174.4</ele>
        <time>2026-07-12T08:22:07Z</time>
      </trkpt>
      <trkpt lat="44.48253" lon="1.21956">
        <ele>172.3</ele>
        <time>2026-07-12T08:22:08Z</time>
      </trkpt>
      <trkpt lat="44.48258" lon="1.21946">
        <ele>170.4</ele>
        <time>2026-07-12T08:22:09Z</time>
      </trkpt>
      <trkpt lat="44.48265" lon="1.21939">
        <ele>168.3</ele>
        <time>2026-07-12T08:22:10Z</time>
      </trkpt>
      <trkpt lat="44.48273" lon="1.21934">
        <ele>166.2</ele>
        <time>2026-07-12T08:22:11Z</time>
      </trkpt>
      <trkpt lat="44.48282" lon="1.21931">
        <ele>164.2</ele>
        <time>2026-07-12T08:22:12Z</time>
      </trkpt>
      <trkpt lat="44.48291" lon="1.21931">
        <ele>162.5</ele>
        <time>2026-07-12T08:22:13Z</time>
      </trkpt>
      <trkpt lat="44.483" lon="1.21932">
        <ele>160.9</ele>
        <time>2026-07-12T08:22:14Z</time>
      </trkpt>
      <trkpt lat="44.48309" lon="1.21933">
        <ele>159</ele>
        <time>2026-07-12T08:22:15Z</time>
      </trkpt>
      <trkpt lat="44.48319" lon="1.21933">
        <ele>157.1</ele>
        <time>2026-07-12T08:22:16Z</time>
      </trkpt>
      <trkpt lat="44.48328" lon="1.21933">
        <ele>155.3</ele>
        <time>2026-07-12T08:22:17Z</time>
      </trkpt>
      <trkpt lat="44.48336" lon="1.21934">
        <ele>153.8</ele>
        <time>2026-07-12T08:22:18Z</time>
      </trkpt>
      <trkpt lat="44.48343" lon="1.21936">
        <ele>152.3</ele>
        <time>2026-07-12T08:22:19Z</time>
      </trkpt>
      <trkpt lat="44.48351" lon="1.21936">
        <ele>150.9</ele>
        <time>2026-07-12T08:22:20Z</time>
      </trkpt>
      <trkpt lat="44.48357" lon="1.21936">
        <ele>149.5</ele>
        <time>2026-07-12T08:22:21Z</time>
      </trkpt>
      <trkpt lat="44.48363" lon="1.21936">
        <ele>148.1</ele>
        <time>2026-07-12T08:22:22Z</time>
      </trkpt>
      <trkpt lat="44.4837" lon="1.21938">
        <ele>146.6</ele>
        <time>2026-07-12T08:22:23Z</time>
      </trkpt>
      <trkpt lat="44.48378" lon="1.21942">
        <ele>144.8</ele>
        <time>2026-07-12T08:22:24Z</time>
      </trkpt>
      <trkpt lat="44.48385" lon="1.21942">
        <ele>143</ele>
        <time>2026-07-12T08:22:25Z</time>
      </trkpt>
      <trkpt lat="44.48391" lon="1.2194">
        <ele>141.7</ele>
        <time>2026-07-12T08:22:26Z</time>
      </trkpt>
      <trkpt lat="44.484" lon="1.21938">
        <ele>140.5</ele>
        <time>2026-07-12T08:22:27Z</time>
      </trkpt>
      <trkpt lat="44.48408" lon="1.21937">
        <ele>139.4</ele>
        <time>2026-07-12T08:22:28Z</time>
      </trkpt>
      <trkpt lat="44.48418" lon="1.21935">
        <ele>138.3</ele>
        <time>2026-07-12T08:22:29Z</time>
      </trkpt>
      <trkpt lat="44.48427" lon="1.21933">
        <ele>137.9</ele>
        <time>2026-07-12T08:22:30Z</time>
      </trkpt>
      <trkpt lat="44.48436" lon="1.21932">
        <ele>137.5</ele>
        <time>2026-07-12T08:22:31Z</time>
      </trkpt>
      <trkpt lat="44.48443" lon="1.2193">
        <ele>137.1</ele>
        <time>2026-07-12T08:22:32Z</time>
      </trkpt>
      <trkpt lat="44.48447" lon="1.21929">
        <ele>136.9</ele>
        <time>2026-07-12T08:22:33Z</time>
      </trkpt>
      <trkpt lat="44.48451" lon="1.21929">
        <ele>136.7</ele>
        <time>2026-07-12T08:22:34Z</time>
      </trkpt>
      <trkpt lat="44.48455" lon="1.21929">
        <ele>136.5</ele>
        <time>2026-07-12T08:22:35Z</time>
      </trkpt>
      <trkpt lat="44.48458" lon="1.21929">
        <ele>136.3</ele>
        <time>2026-07-12T08:22:36Z</time>
      </trkpt>
      <trkpt lat="44.48461" lon="1.21928">
        <ele>136.2</ele>
        <time>2026-07-12T08:22:37Z</time>
      </trkpt>
      <trkpt lat="44.48465" lon="1.21925">
        <ele>136.1</ele>
        <time>2026-07-12T08:22:38Z</time>
      </trkpt>
      <trkpt lat="44.48468" lon="1.21923">
        <ele>136</ele>
        <time>2026-07-12T08:22:39Z</time>
      </trkpt>
      <trkpt lat="44.48471" lon="1.21919">
        <ele>136</ele>
        <time>2026-07-12T08:22:40Z</time>
      </trkpt>
      <trkpt lat="44.48474" lon="1.21917">
        <ele>135.9</ele>
        <time>2026-07-12T08:22:41Z</time>
      </trkpt>
      <trkpt lat="44.48478" lon="1.21916">
        <ele>135.8</ele>
        <time>2026-07-12T08:22:42Z</time>
      </trkpt>
      <trkpt lat="44.48481" lon="1.21915">
        <ele>135.6</ele>
        <time>2026-07-12T08:22:43Z</time>
      </trkpt>
      <trkpt lat="44.48485" lon="1.21914">
        <ele>135.5</ele>
        <time>2026-07-12T08:22:44Z</time>
      </trkpt>
      <trkpt lat="44.48488" lon="1.21912">
        <ele>135.4</ele>
        <time>2026-07-12T08:22:45Z</time>
      </trkpt>
      <trkpt lat="44.48495" lon="1.21909">
        <ele>135.1</ele>
        <time>2026-07-12T08:22:47Z</time>
      </trkpt>
      <trkpt lat="44.48499" lon="1.21908">
        <ele>135</ele>
        <time>2026-07-12T08:22:48Z</time>
      </trkpt>
      <trkpt lat="44.48502" lon="1.21907">
        <ele>134.9</ele>
        <time>2026-07-12T08:22:49Z</time>
      </trkpt>
      <trkpt lat="44.48505" lon="1.21905">
        <ele>134.8</ele>
        <time>2026-07-12T08:22:50Z</time>
      </trkpt>
      <trkpt lat="44.48508" lon="1.21904">
        <ele>134.7</ele>
        <time>2026-07-12T08:22:51Z</time>
      </trkpt>
      <trkpt lat="44.48511" lon="1.21902">
        <ele>134.6</ele>
        <time>2026-07-12T08:22:52Z</time>
      </trkpt>
      <trkpt lat="44.48515" lon="1.21902">
        <ele>134.5</ele>
        <time>2026-07-12T08:22:53Z</time>
      </trkpt>
      <trkpt lat="44.48527" lon="1.21895">
        <ele>134</ele>
        <time>2026-07-12T08:22:56Z</time>
      </trkpt>
      <trkpt lat="44.48535" lon="1.21891">
        <ele>133.7</ele>
        <time>2026-07-12T08:22:58Z</time>
      </trkpt>
      <trkpt lat="44.48542" lon="1.21882">
        <ele>133.5</ele>
        <time>2026-07-12T08:23:00Z</time>
      </trkpt>
      <trkpt lat="44.48546" lon="1.21877">
        <ele>133.3</ele>
        <time>2026-07-12T08:23:01Z</time>
      </trkpt>
      <trkpt lat="44.48552" lon="1.21866">
        <ele>133.1</ele>
        <time>2026-07-12T08:23:03Z</time>
      </trkpt>
      <trkpt lat="44.48564" lon="1.21841">
        <ele>132.7</ele>
        <time>2026-07-12T08:23:07Z</time>
      </trkpt>
      <trkpt lat="44.48584" lon="1.21797">
        <ele>132</ele>
        <time>2026-07-12T08:23:14Z</time>
      </trkpt>
      <trkpt lat="44.48591" lon="1.21785">
        <ele>131.7</ele>
        <time>2026-07-12T08:23:16Z</time>
      </trkpt>
      <trkpt lat="44.48609" lon="1.21759">
        <ele>131.7</ele>
        <time>2026-07-12T08:23:21Z</time>
      </trkpt>
      <trkpt lat="44.48618" lon="1.2175">
        <ele>131.5</ele>
        <time>2026-07-12T08:23:23Z</time>
      </trkpt>
      <trkpt lat="44.48659" lon="1.21721">
        <ele>129.6</ele>
        <time>2026-07-12T08:23:31Z</time>
      </trkpt>
      <trkpt lat="44.48676" lon="1.21708">
        <ele>129.2</ele>
        <time>2026-07-12T08:23:34Z</time>
      </trkpt>
      <trkpt lat="44.48688" lon="1.217">
        <ele>128.6</ele>
        <time>2026-07-12T08:23:36Z</time>
      </trkpt>
      <trkpt lat="44.48711" lon="1.21683">
        <ele>127.4</ele>
        <time>2026-07-12T08:23:40Z</time>
      </trkpt>
      <trkpt lat="44.48735" lon="1.21665">
        <ele>126.5</ele>
        <time>2026-07-12T08:23:44Z</time>
      </trkpt>
      <trkpt lat="44.48741" lon="1.21661">
        <ele>126.3</ele>
        <time>2026-07-12T08:23:45Z</time>
      </trkpt>
      <trkpt lat="44.48771" lon="1.21639">
        <ele>125.2</ele>
        <time>2026-07-12T08:23:50Z</time>
      </trkpt>
      <trkpt lat="44.48807" lon="1.21613">
        <ele>123.9</ele>
        <time>2026-07-12T08:23:56Z</time>
      </trkpt>
      <trkpt lat="44.48813" lon="1.21609">
        <ele>123.7</ele>
        <time>2026-07-12T08:23:57Z</time>
      </trkpt>
      <trkpt lat="44.48845" lon="1.21592">
        <ele>122.6</ele>
        <time>2026-07-12T08:24:02Z</time>
      </trkpt>
      <trkpt lat="44.4885" lon="1.21592">
        <ele>122.4</ele>
        <time>2026-07-12T08:24:03Z</time>
      </trkpt>
      <trkpt lat="44.48859" lon="1.21592">
        <ele>122.1</ele>
        <time>2026-07-12T08:24:04Z</time>
      </trkpt>
      <trkpt lat="44.48864" lon="1.21594">
        <ele>121.9</ele>
        <time>2026-07-12T08:24:05Z</time>
      </trkpt>
      <trkpt lat="44.48871" lon="1.21596">
        <ele>121.6</ele>
        <time>2026-07-12T08:24:06Z</time>
      </trkpt>
      <trkpt lat="44.48878" lon="1.21599">
        <ele>121.4</ele>
        <time>2026-07-12T08:24:07Z</time>
      </trkpt>
      <trkpt lat="44.48886" lon="1.216">
        <ele>121.1</ele>
        <time>2026-07-12T08:24:08Z</time>
      </trkpt>
      <trkpt lat="44.48901" lon="1.21598">
        <ele>120.6</ele>
        <time>2026-07-12T08:24:10Z</time>
      </trkpt>
      <trkpt lat="44.4891" lon="1.21594">
        <ele>120.1</ele>
        <time>2026-07-12T08:24:11Z</time>
      </trkpt>
      <trkpt lat="44.48917" lon="1.21589">
        <ele>119.4</ele>
        <time>2026-07-12T08:24:12Z</time>
      </trkpt>
      <trkpt lat="44.48924" lon="1.21584">
        <ele>119.1</ele>
        <time>2026-07-12T08:24:13Z</time>
      </trkpt>
      <trkpt lat="44.48951" lon="1.21565">
        <ele>118.9</ele>
        <time>2026-07-12T08:24:17Z</time>
      </trkpt>
      <trkpt lat="44.48958" lon="1.21561">
        <ele>118.7</ele>
        <time>2026-07-12T08:24:18Z</time>
      </trkpt>
      <trkpt lat="44.48972" lon="1.21553">
        <ele>118</ele>
        <time>2026-07-12T08:24:20Z</time>
      </trkpt>
      <trkpt lat="44.48979" lon="1.21549">
        <ele>117.9</ele>
        <time>2026-07-12T08:24:21Z</time>
      </trkpt>
      <trkpt lat="44.48985" lon="1.21545">
        <ele>117.8</ele>
        <time>2026-07-12T08:24:22Z</time>
      </trkpt>
      <trkpt lat="44.48998" lon="1.21537">
        <ele>117.4</ele>
        <time>2026-07-12T08:24:24Z</time>
      </trkpt>
      <trkpt lat="44.49004" lon="1.21533">
        <ele>117.3</ele>
        <time>2026-07-12T08:24:25Z</time>
      </trkpt>
      <trkpt lat="44.49009" lon="1.21528">
        <ele>117.3</ele>
        <time>2026-07-12T08:24:26Z</time>
      </trkpt>
      <trkpt lat="44.49014" lon="1.21522">
        <ele>117.3</ele>
        <time>2026-07-12T08:24:27Z</time>
      </trkpt>
      <trkpt lat="44.49019" lon="1.21517">
        <ele>117.2</ele>
        <time>2026-07-12T08:24:28Z</time>
      </trkpt>
      <trkpt lat="44.49024" lon="1.21512">
        <ele>116.9</ele>
        <time>2026-07-12T08:24:29Z</time>
      </trkpt>
      <trkpt lat="44.49029" lon="1.21506">
        <ele>116.5</ele>
        <time>2026-07-12T08:24:30Z</time>
      </trkpt>
      <trkpt lat="44.49033" lon="1.21501">
        <ele>116.2</ele>
        <time>2026-07-12T08:24:31Z</time>
      </trkpt>
      <trkpt lat="44.49038" lon="1.21495">
        <ele>116.2</ele>
        <time>2026-07-12T08:24:32Z</time>
      </trkpt>
      <trkpt lat="44.49043" lon="1.21488">
        <ele>116.1</ele>
        <time>2026-07-12T08:24:33Z</time>
      </trkpt>
      <trkpt lat="44.49047" lon="1.21482">
        <ele>115.8</ele>
        <time>2026-07-12T08:24:34Z</time>
      </trkpt>
      <trkpt lat="44.49051" lon="1.21475">
        <ele>115.3</ele>
        <time>2026-07-12T08:24:35Z</time>
      </trkpt>
      <trkpt lat="44.49056" lon="1.21468">
        <ele>115</ele>
        <time>2026-07-12T08:24:36Z</time>
      </trkpt>
      <trkpt lat="44.49086" lon="1.21428">
        <ele>113.5</ele>
        <time>2026-07-12T08:24:42Z</time>
      </trkpt>
      <trkpt lat="44.49125" lon="1.21398">
        <ele>112.2</ele>
        <time>2026-07-12T08:24:48Z</time>
      </trkpt>
      <trkpt lat="44.49145" lon="1.21389">
        <ele>110.8</ele>
        <time>2026-07-12T08:24:51Z</time>
      </trkpt>
      <trkpt lat="44.49165" lon="1.21383">
        <ele>110.7</ele>
        <time>2026-07-12T08:24:54Z</time>
      </trkpt>
      <trkpt lat="44.49172" lon="1.2138">
        <ele>110.8</ele>
        <time>2026-07-12T08:24:55Z</time>
      </trkpt>
      <trkpt lat="44.49178" lon="1.21378">
        <ele>110.7</ele>
        <time>2026-07-12T08:24:56Z</time>
      </trkpt>
      <trkpt lat="44.49183" lon="1.21375">
        <ele>110.6</ele>
        <time>2026-07-12T08:24:57Z</time>
      </trkpt>
      <trkpt lat="44.49188" lon="1.21371">
        <ele>110.4</ele>
        <time>2026-07-12T08:24:58Z</time>
      </trkpt>
      <trkpt lat="44.49193" lon="1.21368">
        <ele>110.1</ele>
        <time>2026-07-12T08:24:59Z</time>
      </trkpt>
      <trkpt lat="44.49197" lon="1.21365">
        <ele>109.9</ele>
        <time>2026-07-12T08:25:00Z</time>
      </trkpt>
      <trkpt lat="44.49201" lon="1.21363">
        <ele>109.8</ele>
        <time>2026-07-12T08:25:01Z</time>
      </trkpt>
      <trkpt lat="44.49205" lon="1.21359">
        <ele>109.7</ele>
        <time>2026-07-12T08:25:02Z</time>
      </trkpt>
      <trkpt lat="44.49215" lon="1.21352">
        <ele>109.6</ele>
        <time>2026-07-12T08:25:04Z</time>
      </trkpt>
      <trkpt lat="44.49224" lon="1.21345">
        <ele>109.5</ele>
        <time>2026-07-12T08:25:06Z</time>
      </trkpt>
      <trkpt lat="44.49228" lon="1.21342">
        <ele>109.4</ele>
        <time>2026-07-12T08:25:07Z</time>
      </trkpt>
      <trkpt lat="44.49231" lon="1.21339">
        <ele>109.2</ele>
        <time>2026-07-12T08:25:08Z</time>
      </trkpt>
      <trkpt lat="44.49235" lon="1.21336">
        <ele>109</ele>
        <time>2026-07-12T08:25:09Z</time>
      </trkpt>
      <trkpt lat="44.49239" lon="1.21333">
        <ele>108.8</ele>
        <time>2026-07-12T08:25:10Z</time>
      </trkpt>
      <trkpt lat="44.49242" lon="1.21329">
        <ele>108.6</ele>
        <time>2026-07-12T08:25:11Z</time>
      </trkpt>
      <trkpt lat="44.49245" lon="1.21325">
        <ele>108.4</ele>
        <time>2026-07-12T08:25:12Z</time>
      </trkpt>
      <trkpt lat="44.49255" lon="1.21314">
        <ele>107.9</ele>
        <time>2026-07-12T08:25:15Z</time>
      </trkpt>
      <trkpt lat="44.49264" lon="1.21302">
        <ele>107.5</ele>
        <time>2026-07-12T08:25:18Z</time>
      </trkpt>
      <trkpt lat="44.49275" lon="1.21283">
        <ele>107.1</ele>
        <time>2026-07-12T08:25:22Z</time>
      </trkpt>
      <trkpt lat="44.49282" lon="1.21276">
        <ele>107</ele>
        <time>2026-07-12T08:25:24Z</time>
      </trkpt>
      <trkpt lat="44.49287" lon="1.21274">
        <ele>107</ele>
        <time>2026-07-12T08:25:25Z</time>
      </trkpt>
      <trkpt lat="44.49291" lon="1.21274">
        <ele>106.9</ele>
        <time>2026-07-12T08:25:26Z</time>
      </trkpt>
      <trkpt lat="44.49296" lon="1.21276">
        <ele>107</ele>
        <time>2026-07-12T08:25:27Z</time>
      </trkpt>
      <trkpt lat="44.49301" lon="1.21278">
        <ele>107</ele>
        <time>2026-07-12T08:25:28Z</time>
      </trkpt>
      <trkpt lat="44.49306" lon="1.21279">
        <ele>107</ele>
        <time>2026-07-12T08:25:29Z</time>
      </trkpt>
      <trkpt lat="44.49332" lon="1.21291">
        <ele>105.6</ele>
        <time>2026-07-12T08:25:34Z</time>
      </trkpt>
      <trkpt lat="44.49349" lon="1.21301">
        <ele>104.6</ele>
        <time>2026-07-12T08:25:37Z</time>
      </trkpt>
      <trkpt lat="44.4937" lon="1.21321">
        <ele>104.4</ele>
        <time>2026-07-12T08:25:41Z</time>
      </trkpt>
      <trkpt lat="44.49384" lon="1.21339">
        <ele>104.3</ele>
        <time>2026-07-12T08:25:44Z</time>
      </trkpt>
      <trkpt lat="44.49406" lon="1.21371">
        <ele>103.8</ele>
        <time>2026-07-12T08:25:49Z</time>
      </trkpt>
      <trkpt lat="44.49425" lon="1.21405">
        <ele>103.2</ele>
        <time>2026-07-12T08:25:54Z</time>
      </trkpt>
      <trkpt lat="44.49436" lon="1.21427">
        <ele>102.6</ele>
        <time>2026-07-12T08:25:57Z</time>
      </trkpt>
      <trkpt lat="44.49459" lon="1.21459">
        <ele>102.3</ele>
        <time>2026-07-12T08:26:02Z</time>
      </trkpt>
      <trkpt lat="44.49488" lon="1.21482">
        <ele>101.4</ele>
        <time>2026-07-12T08:26:07Z</time>
      </trkpt>
      <trkpt lat="44.49495" lon="1.21486">
        <ele>101.2</ele>
        <time>2026-07-12T08:26:08Z</time>
      </trkpt>
      <trkpt lat="44.49543" lon="1.21516">
        <ele>99</ele>
        <time>2026-07-12T08:26:15Z</time>
      </trkpt>
      <trkpt lat="44.49556" lon="1.21526">
        <ele>98.1</ele>
        <time>2026-07-12T08:26:17Z</time>
      </trkpt>
      <trkpt lat="44.49568" lon="1.21535">
        <ele>98.6</ele>
        <time>2026-07-12T08:26:19Z</time>
      </trkpt>
      <trkpt lat="44.49573" lon="1.2154">
        <ele>98.7</ele>
        <time>2026-07-12T08:26:20Z</time>
      </trkpt>
      <trkpt lat="44.49578" lon="1.21544">
        <ele>98.6</ele>
        <time>2026-07-12T08:26:21Z</time>
      </trkpt>
      <trkpt lat="44.49581" lon="1.21548">
        <ele>98.4</ele>
        <time>2026-07-12T08:26:22Z</time>
      </trkpt>
      <trkpt lat="44.49583" lon="1.21551">
        <ele>98.2</ele>
        <time>2026-07-12T08:26:23Z</time>
      </trkpt>
      <trkpt lat="44.49585" lon="1.21554">
        <ele>98</ele>
        <time>2026-07-12T08:26:24Z</time>
      </trkpt>
      <trkpt lat="44.49587" lon="1.21558">
        <ele>97.7</ele>
        <time>2026-07-12T08:26:25Z</time>
      </trkpt>
      <trkpt lat="44.49595" lon="1.21571">
        <ele>97.1</ele>
        <time>2026-07-12T08:26:28Z</time>
      </trkpt>
      <trkpt lat="44.49598" lon="1.21576">
        <ele>97</ele>
        <time>2026-07-12T08:26:29Z</time>
      </trkpt>
      <trkpt lat="44.49604" lon="1.21588">
        <ele>96.8</ele>
        <time>2026-07-12T08:26:31Z</time>
      </trkpt>
      <trkpt lat="44.49615" lon="1.21606">
        <ele>96.2</ele>
        <time>2026-07-12T08:26:34Z</time>
      </trkpt>
      <trkpt lat="44.49618" lon="1.21612">
        <ele>96</ele>
        <time>2026-07-12T08:26:35Z</time>
      </trkpt>
      <trkpt lat="44.49653" lon="1.21674">
        <ele>95.5</ele>
        <time>2026-07-12T08:26:45Z</time>
      </trkpt>
      <trkpt lat="44.49656" lon="1.2168">
        <ele>95.6</ele>
        <time>2026-07-12T08:26:46Z</time>
      </trkpt>
      <trkpt lat="44.49677" lon="1.21717">
        <ele>95.1</ele>
        <time>2026-07-12T08:26:52Z</time>
      </trkpt>
      <trkpt lat="44.49692" lon="1.21743">
        <ele>95</ele>
        <time>2026-07-12T08:26:56Z</time>
      </trkpt>
      <trkpt lat="44.49708" lon="1.21766">
        <ele>95</ele>
        <time>2026-07-12T08:27:00Z</time>
      </trkpt>
      <trkpt lat="44.49725" lon="1.21787">
        <ele>95</ele>
        <time>2026-07-12T08:27:04Z</time>
      </trkpt>
      <trkpt lat="44.49774" lon="1.21829">
        <ele>95</ele>
        <time>2026-07-12T08:27:14Z</time>
      </trkpt>
      <trkpt lat="44.49784" lon="1.21838">
        <ele>95</ele>
        <time>2026-07-12T08:27:16Z</time>
      </trkpt>
      <trkpt lat="44.49789" lon="1.21842">
        <ele>95</ele>
        <time>2026-07-12T08:27:17Z</time>
      </trkpt>
      <trkpt lat="44.49808" lon="1.21859">
        <ele>95</ele>
        <time>2026-07-12T08:27:21Z</time>
      </trkpt>
      <trkpt lat="44.49812" lon="1.21863">
        <ele>95</ele>
        <time>2026-07-12T08:27:22Z</time>
      </trkpt>
      <trkpt lat="44.49817" lon="1.21866">
        <ele>95</ele>
        <time>2026-07-12T08:27:23Z</time>
      </trkpt>
      <trkpt lat="44.49821" lon="1.21869">
        <ele>95</ele>
        <time>2026-07-12T08:27:24Z</time>
      </trkpt>
      <trkpt lat="44.49825" lon="1.21872">
        <ele>95</ele>
        <time>2026-07-12T08:27:25Z</time>
      </trkpt>
      <trkpt lat="44.49829" lon="1.21875">
        <ele>95</ele>
        <time>2026-07-12T08:27:26Z</time>
      </trkpt>
      <trkpt lat="44.49832" lon="1.21878">
        <ele>95</ele>
        <time>2026-07-12T08:27:27Z</time>
      </trkpt>
      <trkpt lat="44.49834" lon="1.21881">
        <ele>95</ele>
        <time>2026-07-12T08:27:28Z</time>
      </trkpt>
      <trkpt lat="44.49834" lon="1.21885">
        <ele>95</ele>
        <time>2026-07-12T08:27:29Z</time>
      </trkpt>
      <trkpt lat="44.49832" lon="1.21889">
        <ele>95</ele>
        <time>2026-07-12T08:27:30Z</time>
      </trkpt>
      <trkpt lat="44.49829" lon="1.21899">
        <ele>95</ele>
        <time>2026-07-12T08:27:32Z</time>
      </trkpt>
      <trkpt lat="44.49828" lon="1.21905">
        <ele>95</ele>
        <time>2026-07-12T08:27:33Z</time>
      </trkpt>
      <trkpt lat="44.49828" lon="1.21911">
        <ele>95</ele>
        <time>2026-07-12T08:27:34Z</time>
      </trkpt>
      <trkpt lat="44.49829" lon="1.21917">
        <ele>95</ele>
        <time>2026-07-12T08:27:35Z</time>
      </trkpt>
      <trkpt lat="44.4983" lon="1.21923">
        <ele>94.8</ele>
        <time>2026-07-12T08:27:36Z</time>
      </trkpt>
      <trkpt lat="44.49833" lon="1.21928">
        <ele>94.6</ele>
        <time>2026-07-12T08:27:37Z</time>
      </trkpt>
      <trkpt lat="44.49836" lon="1.21932">
        <ele>94.4</ele>
        <time>2026-07-12T08:27:38Z</time>
      </trkpt>
      <trkpt lat="44.4984" lon="1.21937">
        <ele>94.2</ele>
        <time>2026-07-12T08:27:39Z</time>
      </trkpt>
      <trkpt lat="44.49844" lon="1.21941">
        <ele>94.1</ele>
        <time>2026-07-12T08:27:40Z</time>
      </trkpt>
      <trkpt lat="44.49852" lon="1.21949">
        <ele>94</ele>
        <time>2026-07-12T08:27:42Z</time>
      </trkpt>
      <trkpt lat="44.49865" lon="1.21959">
        <ele>93.9</ele>
        <time>2026-07-12T08:27:45Z</time>
      </trkpt>
      <trkpt lat="44.49874" lon="1.21965">
        <ele>93.5</ele>
        <time>2026-07-12T08:27:47Z</time>
      </trkpt>
      <trkpt lat="44.49891" lon="1.2198">
        <ele>92.8</ele>
        <time>2026-07-12T08:27:51Z</time>
      </trkpt>
      <trkpt lat="44.49918" lon="1.22005">
        <ele>93.2</ele>
        <time>2026-07-12T08:27:57Z</time>
      </trkpt>
      <trkpt lat="44.49932" lon="1.22015">
        <ele>90.6</ele>
        <time>2026-07-12T08:28:00Z</time>
      </trkpt>
      <trkpt lat="44.4995" lon="1.22034">
        <ele>87</ele>
        <time>2026-07-12T08:28:04Z</time>
      </trkpt>
      <trkpt lat="44.49986" lon="1.22069">
        <ele>87</ele>
        <time>2026-07-12T08:28:12Z</time>
      </trkpt>
      <trkpt lat="44.4999" lon="1.22074">
        <ele>87</ele>
        <time>2026-07-12T08:28:13Z</time>
      </trkpt>
      <trkpt lat="44.50008" lon="1.22091">
        <ele>88.2</ele>
        <time>2026-07-12T08:28:17Z</time>
      </trkpt>
      <trkpt lat="44.50013" lon="1.22095">
        <ele>89.1</ele>
        <time>2026-07-12T08:28:18Z</time>
      </trkpt>
      <trkpt lat="44.50016" lon="1.22098">
        <ele>89.9</ele>
        <time>2026-07-12T08:28:19Z</time>
      </trkpt>
      <trkpt lat="44.5002" lon="1.22103">
        <ele>91.2</ele>
        <time>2026-07-12T08:28:20Z</time>
      </trkpt>
      <trkpt lat="44.50023" lon="1.22107">
        <ele>92.3</ele>
        <time>2026-07-12T08:28:21Z</time>
      </trkpt>
      <trkpt lat="44.50027" lon="1.22111">
        <ele>93.6</ele>
        <time>2026-07-12T08:28:22Z</time>
      </trkpt>
      <trkpt lat="44.50032" lon="1.22117">
        <ele>94</ele>
        <time>2026-07-12T08:28:24Z</time>
      </trkpt>
      <trkpt lat="44.50032" lon="1.22122">
        <ele>94.1</ele>
        <time>2026-07-12T08:28:25Z</time>
      </trkpt>
      <trkpt lat="44.50031" lon="1.22126">
        <ele>94.1</ele>
        <time>2026-07-12T08:28:26Z</time>
      </trkpt>
      <trkpt lat="44.5003" lon="1.22129">
        <ele>94.1</ele>
        <time>2026-07-12T08:28:27Z</time>
      </trkpt>
      <trkpt lat="44.50029" lon="1.22133">
        <ele>94</ele>
        <time>2026-07-12T08:28:28Z</time>
      </trkpt>
      <trkpt lat="44.50028" lon="1.22137">
        <ele>94</ele>
        <time>2026-07-12T08:28:29Z</time>
      </trkpt>
      <trkpt lat="44.50028" lon="1.22139">
        <ele>94</ele>
        <time>2026-07-12T08:28:30Z</time>
      </trkpt>
      <trkpt lat="44.50027" lon="1.22141">
        <ele>93.9</ele>
        <time>2026-07-12T08:28:31Z</time>
      </trkpt>
      <trkpt lat="44.50027" lon="1.22142">
        <ele>93.8</ele>
        <time>2026-07-12T08:28:32Z</time>
      </trkpt>
      <trkpt lat="44.50026" lon="1.22143">
        <ele>93.8</ele>
        <time>2026-07-12T08:28:33Z</time>
      </trkpt>
      <trkpt lat="44.50026" lon="1.22143">
        <ele>93.8</ele>
        <time>2026-07-12T08:28:34Z</time>
      </trkpt>
      <trkpt lat="44.50033" lon="1.22151">
        <ele>94.1</ele>
        <time>2026-07-12T08:32:45Z</time>
      </trkpt>
      <trkpt lat="44.50035" lon="1.22154">
        <ele>94.1</ele>
        <time>2026-07-12T08:32:46Z</time>
      </trkpt>
      <trkpt lat="44.50036" lon="1.22158">
        <ele>94.1</ele>
        <time>2026-07-12T08:32:47Z</time>
      </trkpt>
      <trkpt lat="44.5005" lon="1.22185">
        <ele>94.6</ele>
        <time>2026-07-12T08:32:53Z</time>
      </trkpt>
      <trkpt lat="44.50053" lon="1.22189">
        <ele>94.8</ele>
        <time>2026-07-12T08:32:54Z</time>
      </trkpt>
      <trkpt lat="44.50057" lon="1.22197">
        <ele>94.9</ele>
        <time>2026-07-12T08:32:56Z</time>
      </trkpt>
      <trkpt lat="44.50059" lon="1.222">
        <ele>94.8</ele>
        <time>2026-07-12T08:32:57Z</time>
      </trkpt>
      <trkpt lat="44.50061" lon="1.22201">
        <ele>94.8</ele>
        <time>2026-07-12T08:32:58Z</time>
      </trkpt>
      <trkpt lat="44.50064" lon="1.22201">
        <ele>94.8</ele>
        <time>2026-07-12T08:32:59Z</time>
      </trkpt>
      <trkpt lat="44.50074" lon="1.22193">
        <ele>95</ele>
        <time>2026-07-12T08:33:02Z</time>
      </trkpt>
      <trkpt lat="44.50078" lon="1.22189">
        <ele>95</ele>
        <time>2026-07-12T08:33:03Z</time>
      </trkpt>
      <trkpt lat="44.50081" lon="1.22185">
        <ele>95</ele>
        <time>2026-07-12T08:33:04Z</time>
      </trkpt>
      <trkpt lat="44.50085" lon="1.22181">
        <ele>95</ele>
        <time>2026-07-12T08:33:05Z</time>
      </trkpt>
      <trkpt lat="44.50095" lon="1.2217">
        <ele>95.4</ele>
        <time>2026-07-12T08:33:08Z</time>
      </trkpt>
      <trkpt lat="44.50099" lon="1.22166">
        <ele>95.5</ele>
        <time>2026-07-12T08:33:09Z</time>
      </trkpt>
      <trkpt lat="44.50112" lon="1.22154">
        <ele>96.1</ele>
        <time>2026-07-12T08:33:13Z</time>
      </trkpt>
      <trkpt lat="44.50114" lon="1.22151">
        <ele>96.3</ele>
        <time>2026-07-12T08:33:14Z</time>
      </trkpt>
      <trkpt lat="44.50115" lon="1.22147">
        <ele>96.5</ele>
        <time>2026-07-12T08:33:15Z</time>
      </trkpt>
      <trkpt lat="44.50115" lon="1.22145">
        <ele>96.5</ele>
        <time>2026-07-12T08:33:16Z</time>
      </trkpt>
      <trkpt lat="44.50114" lon="1.22142">
        <ele>96.3</ele>
        <time>2026-07-12T08:33:17Z</time>
      </trkpt>
      <trkpt lat="44.5011" lon="1.22132">
        <ele>96</ele>
        <time>2026-07-12T08:33:19Z</time>
      </trkpt>
      <trkpt lat="44.50107" lon="1.22127">
        <ele>95.9</ele>
        <time>2026-07-12T08:33:20Z</time>
      </trkpt>
      <trkpt lat="44.50097" lon="1.22108">
        <ele>96.1</ele>
        <time>2026-07-12T08:33:24Z</time>
      </trkpt>
      <trkpt lat="44.50075" lon="1.22067">
        <ele>95.7</ele>
        <time>2026-07-12T08:33:32Z</time>
      </trkpt>
      <trkpt lat="44.50073" lon="1.22063">
        <ele>95.6</ele>
        <time>2026-07-12T08:33:33Z</time>
      </trkpt>
      <trkpt lat="44.50071" lon="1.22059">
        <ele>95.6</ele>
        <time>2026-07-12T08:33:34Z</time>
      </trkpt>
      <trkpt lat="44.5007" lon="1.22056">
        <ele>95.5</ele>
        <time>2026-07-12T08:33:35Z</time>
      </trkpt>
      <trkpt lat="44.5007" lon="1.22054">
        <ele>95.4</ele>
        <time>2026-07-12T08:33:36Z</time>
      </trkpt>
      <trkpt lat="44.50069" lon="1.22052">
        <ele>95.3</ele>
        <time>2026-07-12T08:33:37Z</time>
      </trkpt>
      <trkpt lat="44.50069" lon="1.22051">
        <ele>95.2</ele>
        <time>2026-07-12T08:33:38Z</time>
      </trkpt>
      <trkpt lat="44.5007" lon="1.2205">
        <ele>95.2</ele>
        <time>2026-07-12T08:33:39Z</time>
      </trkpt>
      <trkpt lat="44.5007" lon="1.2205">
        <ele>95.2</ele>
        <time>2026-07-12T08:33:40Z</time>
      </trkpt>
      <trkpt lat="44.5007" lon="1.2205">
        <ele>95.2</ele>
        <time>2026-07-12T08:33:41Z</time>
      </trkpt>
      <trkpt lat="44.50072" lon="1.22044">
        <ele>95</ele>
        <time>2026-07-12T08:33:51Z</time>
      </trkpt>
      <trkpt lat="44.50073" lon="1.2204">
        <ele>94.9</ele>
        <time>2026-07-12T08:33:52Z</time>
      </trkpt>
      <trkpt lat="44.50075" lon="1.22035">
        <ele>94.7</ele>
        <time>2026-07-12T08:33:53Z</time>
      </trkpt>
      <trkpt lat="44.50083" lon="1.2201">
        <ele>95</ele>
        <time>2026-07-12T08:33:58Z</time>
      </trkpt>
      <trkpt lat="44.50084" lon="1.22006">
        <ele>95.1</ele>
        <time>2026-07-12T08:33:59Z</time>
      </trkpt>
      <trkpt lat="44.50084" lon="1.22004">
        <ele>95.1</ele>
        <time>2026-07-12T08:34:00Z</time>
      </trkpt>
      <trkpt lat="44.50083" lon="1.22001">
        <ele>94.9</ele>
        <time>2026-07-12T08:34:01Z</time>
      </trkpt>
      <trkpt lat="44.5008" lon="1.21999">
        <ele>94.2</ele>
        <time>2026-07-12T08:34:02Z</time>
      </trkpt>
      <trkpt lat="44.50074" lon="1.21995">
        <ele>92.6</ele>
        <time>2026-07-12T08:34:04Z</time>
      </trkpt>
      <trkpt lat="44.5007" lon="1.21992">
        <ele>91.7</ele>
        <time>2026-07-12T08:34:05Z</time>
      </trkpt>
      <trkpt lat="44.50068" lon="1.21989">
        <ele>91.2</ele>
        <time>2026-07-12T08:34:06Z</time>
      </trkpt>
      <trkpt lat="44.50068" lon="1.21986">
        <ele>91</ele>
        <time>2026-07-12T08:34:07Z</time>
      </trkpt>
      <trkpt lat="44.50068" lon="1.21981">
        <ele>91</ele>
        <time>2026-07-12T08:34:08Z</time>
      </trkpt>
      <trkpt lat="44.50069" lon="1.21975">
        <ele>91.3</ele>
        <time>2026-07-12T08:34:09Z</time>
      </trkpt>
      <trkpt lat="44.5007" lon="1.21968">
        <ele>91.7</ele>
        <time>2026-07-12T08:34:10Z</time>
      </trkpt>
      <trkpt lat="44.50072" lon="1.21962">
        <ele>91.8</ele>
        <time>2026-07-12T08:34:11Z</time>
      </trkpt>
      <trkpt lat="44.50073" lon="1.21955">
        <ele>91.8</ele>
        <time>2026-07-12T08:34:12Z</time>
      </trkpt>
      <trkpt lat="44.50074" lon="1.21948">
        <ele>91.9</ele>
        <time>2026-07-12T08:34:13Z</time>
      </trkpt>
      <trkpt lat="44.50076" lon="1.2194">
        <ele>91.9</ele>
        <time>2026-07-12T08:34:14Z</time>
      </trkpt>
      <trkpt lat="44.50081" lon="1.21925">
        <ele>91.5</ele>
        <time>2026-07-12T08:34:16Z</time>
      </trkpt>
      <trkpt lat="44.50086" lon="1.219">
        <ele>90.4</ele>
        <time>2026-07-12T08:34:19Z</time>
      </trkpt>
      <trkpt lat="44.50088" lon="1.21893">
        <ele>90.5</ele>
        <time>2026-07-12T08:34:20Z</time>
      </trkpt>
      <trkpt lat="44.5009" lon="1.21886">
        <ele>90.8</ele>
        <time>2026-07-12T08:34:21Z</time>
      </trkpt>
      <trkpt lat="44.50095" lon="1.21864">
        <ele>92.2</ele>
        <time>2026-07-12T08:34:24Z</time>
      </trkpt>
      <trkpt lat="44.50101" lon="1.21842">
        <ele>94</ele>
        <time>2026-07-12T08:34:27Z</time>
      </trkpt>
      <trkpt lat="44.50102" lon="1.21835">
        <ele>94.5</ele>
        <time>2026-07-12T08:34:28Z</time>
      </trkpt>
      <trkpt lat="44.50104" lon="1.21828">
        <ele>94.7</ele>
        <time>2026-07-12T08:34:29Z</time>
      </trkpt>
      <trkpt lat="44.50106" lon="1.21821">
        <ele>94.7</ele>
        <time>2026-07-12T08:34:30Z</time>
      </trkpt>
      <trkpt lat="44.50107" lon="1.21814">
        <ele>94.6</ele>
        <time>2026-07-12T08:34:31Z</time>
      </trkpt>
      <trkpt lat="44.50114" lon="1.21776">
        <ele>94.6</ele>
        <time>2026-07-12T08:34:36Z</time>
      </trkpt>
      <trkpt lat="44.50115" lon="1.21759">
        <ele>94.5</ele>
        <time>2026-07-12T08:34:38Z</time>
      </trkpt>
      <trkpt lat="44.50115" lon="1.21752">
        <ele>94.4</ele>
        <time>2026-07-12T08:34:39Z</time>
      </trkpt>
      <trkpt lat="44.50116" lon="1.21738">
        <ele>95.2</ele>
        <time>2026-07-12T08:34:41Z</time>
      </trkpt>
      <trkpt lat="44.50117" lon="1.21723">
        <ele>97.3</ele>
        <time>2026-07-12T08:34:43Z</time>
      </trkpt>
      <trkpt lat="44.50118" lon="1.21715">
        <ele>97.9</ele>
        <time>2026-07-12T08:34:44Z</time>
      </trkpt>
      <trkpt lat="44.50119" lon="1.21708">
        <ele>98.4</ele>
        <time>2026-07-12T08:34:45Z</time>
      </trkpt>
      <trkpt lat="44.50119" lon="1.21703">
        <ele>98.8</ele>
        <time>2026-07-12T08:34:46Z</time>
      </trkpt>
      <trkpt lat="44.5012" lon="1.21696">
        <ele>99.2</ele>
        <time>2026-07-12T08:34:47Z</time>
      </trkpt>
      <trkpt lat="44.5012" lon="1.21687">
        <ele>99.1</ele>
        <time>2026-07-12T08:34:48Z</time>
      </trkpt>
      <trkpt lat="44.5012" lon="1.21673">
        <ele>98.9</ele>
        <time>2026-07-12T08:34:50Z</time>
      </trkpt>
      <trkpt lat="44.50121" lon="1.2165">
        <ele>99.6</ele>
        <time>2026-07-12T08:34:53Z</time>
      </trkpt>
      <trkpt lat="44.5012" lon="1.21643">
        <ele>99.6</ele>
        <time>2026-07-12T08:34:54Z</time>
      </trkpt>
      <trkpt lat="44.5012" lon="1.21635">
        <ele>99.8</ele>
        <time>2026-07-12T08:34:55Z</time>
      </trkpt>
      <trkpt lat="44.5012" lon="1.21627">
        <ele>99.9</ele>
        <time>2026-07-12T08:34:56Z</time>
      </trkpt>
      <trkpt lat="44.5012" lon="1.21618">
        <ele>100.1</ele>
        <time>2026-07-12T08:34:57Z</time>
      </trkpt>
      <trkpt lat="44.5012" lon="1.2161">
        <ele>100.5</ele>
        <time>2026-07-12T08:34:58Z</time>
      </trkpt>
      <trkpt lat="44.5012" lon="1.21602">
        <ele>100.6</ele>
        <time>2026-07-12T08:34:59Z</time>
      </trkpt>
      <trkpt lat="44.50119" lon="1.21593">
        <ele>100.4</ele>
        <time>2026-07-12T08:35:00Z</time>
      </trkpt>
      <trkpt lat="44.50119" lon="1.21585">
        <ele>100</ele>
        <time>2026-07-12T08:35:01Z</time>
      </trkpt>
      <trkpt lat="44.50118" lon="1.21574">
        <ele>99</ele>
        <time>2026-07-12T08:35:02Z</time>
      </trkpt>
      <trkpt lat="44.50116" lon="1.21564">
        <ele>97.3</ele>
        <time>2026-07-12T08:35:03Z</time>
      </trkpt>
      <trkpt lat="44.50115" lon="1.21554">
        <ele>96</ele>
        <time>2026-07-12T08:35:04Z</time>
      </trkpt>
      <trkpt lat="44.50114" lon="1.21544">
        <ele>95.5</ele>
        <time>2026-07-12T08:35:05Z</time>
      </trkpt>
      <trkpt lat="44.50111" lon="1.21532">
        <ele>93.7</ele>
        <time>2026-07-12T08:35:06Z</time>
      </trkpt>
      <trkpt lat="44.50109" lon="1.21522">
        <ele>94.5</ele>
        <time>2026-07-12T08:35:07Z</time>
      </trkpt>
      <trkpt lat="44.50108" lon="1.21512">
        <ele>95.6</ele>
        <time>2026-07-12T08:35:08Z</time>
      </trkpt>
      <trkpt lat="44.50105" lon="1.21501">
        <ele>96.3</ele>
        <time>2026-07-12T08:35:09Z</time>
      </trkpt>
      <trkpt lat="44.50104" lon="1.21491">
        <ele>96</ele>
        <time>2026-07-12T08:35:10Z</time>
      </trkpt>
      <trkpt lat="44.50102" lon="1.21482">
        <ele>95.4</ele>
        <time>2026-07-12T08:35:11Z</time>
      </trkpt>
      <trkpt lat="44.501" lon="1.21473">
        <ele>94.9</ele>
        <time>2026-07-12T08:35:12Z</time>
      </trkpt>
      <trkpt lat="44.50099" lon="1.21463">
        <ele>94.5</ele>
        <time>2026-07-12T08:35:13Z</time>
      </trkpt>
      <trkpt lat="44.50098" lon="1.21455">
        <ele>94.2</ele>
        <time>2026-07-12T08:35:14Z</time>
      </trkpt>
      <trkpt lat="44.50097" lon="1.21447">
        <ele>94</ele>
        <time>2026-07-12T08:35:15Z</time>
      </trkpt>
      <trkpt lat="44.50096" lon="1.21439">
        <ele>94</ele>
        <time>2026-07-12T08:35:16Z</time>
      </trkpt>
      <trkpt lat="44.50094" lon="1.2143">
        <ele>94.5</ele>
        <time>2026-07-12T08:35:17Z</time>
      </trkpt>
      <trkpt lat="44.50088" lon="1.21405">
        <ele>93.2</ele>
        <time>2026-07-12T08:35:20Z</time>
      </trkpt>
      <trkpt lat="44.50087" lon="1.21397">
        <ele>93.2</ele>
        <time>2026-07-12T08:35:21Z</time>
      </trkpt>
      <trkpt lat="44.50086" lon="1.2139">
        <ele>92.9</ele>
        <time>2026-07-12T08:35:22Z</time>
      </trkpt>
      <trkpt lat="44.50085" lon="1.21383">
        <ele>92.8</ele>
        <time>2026-07-12T08:35:23Z</time>
      </trkpt>
      <trkpt lat="44.50084" lon="1.21376">
        <ele>92.5</ele>
        <time>2026-07-12T08:35:24Z</time>
      </trkpt>
      <trkpt lat="44.50083" lon="1.21368">
        <ele>92.4</ele>
        <time>2026-07-12T08:35:25Z</time>
      </trkpt>
      <trkpt lat="44.50082" lon="1.21362">
        <ele>92.6</ele>
        <time>2026-07-12T08:35:26Z</time>
      </trkpt>
      <trkpt lat="44.50081" lon="1.21355">
        <ele>93.1</ele>
        <time>2026-07-12T08:35:27Z</time>
      </trkpt>
      <trkpt lat="44.5008" lon="1.2135">
        <ele>93.6</ele>
        <time>2026-07-12T08:35:28Z</time>
      </trkpt>
      <trkpt lat="44.50079" lon="1.21346">
        <ele>93.9</ele>
        <time>2026-07-12T08:35:29Z</time>
      </trkpt>
      <trkpt lat="44.50079" lon="1.21342">
        <ele>94</ele>
        <time>2026-07-12T08:35:30Z</time>
      </trkpt>
      <trkpt lat="44.50079" lon="1.2134">
        <ele>94.3</ele>
        <time>2026-07-12T08:35:31Z</time>
      </trkpt>
      <trkpt lat="44.50078" lon="1.21338">
        <ele>94.4</ele>
        <time>2026-07-12T08:35:32Z</time>
      </trkpt>
      <trkpt lat="44.50078" lon="1.21335">
        <ele>94.6</ele>
        <time>2026-07-12T08:35:33Z</time>
      </trkpt>
      <trkpt lat="44.50078" lon="1.21333">
        <ele>94.8</ele>
        <time>2026-07-12T08:35:34Z</time>
      </trkpt>
      <trkpt lat="44.50074" lon="1.21317">
        <ele>94.4</ele>
        <time>2026-07-12T08:35:38Z</time>
      </trkpt>
      <trkpt lat="44.50071" lon="1.2129">
        <ele>94.4</ele>
        <time>2026-07-12T08:35:43Z</time>
      </trkpt>
      <trkpt lat="44.50066" lon="1.21269">
        <ele>93.3</ele>
        <time>2026-07-12T08:35:46Z</time>
      </trkpt>
      <trkpt lat="44.50062" lon="1.21245">
        <ele>92.8</ele>
        <time>2026-07-12T08:35:49Z</time>
      </trkpt>
      <trkpt lat="44.50051" lon="1.21194">
        <ele>92.8</ele>
        <time>2026-07-12T08:35:55Z</time>
      </trkpt>
      <trkpt lat="44.50049" lon="1.21187">
        <ele>92.9</ele>
        <time>2026-07-12T08:35:56Z</time>
      </trkpt>
      <trkpt lat="44.50047" lon="1.21179">
        <ele>93</ele>
        <time>2026-07-12T08:35:57Z</time>
      </trkpt>
      <trkpt lat="44.50044" lon="1.21163">
        <ele>93.1</ele>
        <time>2026-07-12T08:35:59Z</time>
      </trkpt>
      <trkpt lat="44.50042" lon="1.21146">
        <ele>92.9</ele>
        <time>2026-07-12T08:36:01Z</time>
      </trkpt>
      <trkpt lat="44.5004" lon="1.21132">
        <ele>92.8</ele>
        <time>2026-07-12T08:36:03Z</time>
      </trkpt>
      <trkpt lat="44.50041" lon="1.21124">
        <ele>93.7</ele>
        <time>2026-07-12T08:36:04Z</time>
      </trkpt>
      <trkpt lat="44.50041" lon="1.21117">
        <ele>94</ele>
        <time>2026-07-12T08:36:05Z</time>
      </trkpt>
      <trkpt lat="44.50041" lon="1.21109">
        <ele>94.5</ele>
        <time>2026-07-12T08:36:06Z</time>
      </trkpt>
      <trkpt lat="44.50041" lon="1.21101">
        <ele>94.8</ele>
        <time>2026-07-12T08:36:07Z</time>
      </trkpt>
      <trkpt lat="44.50039" lon="1.21095">
        <ele>94.5</ele>
        <time>2026-07-12T08:36:08Z</time>
      </trkpt>
      <trkpt lat="44.50038" lon="1.21087">
        <ele>94.6</ele>
        <time>2026-07-12T08:36:09Z</time>
      </trkpt>
      <trkpt lat="44.50033" lon="1.21056">
        <ele>94</ele>
        <time>2026-07-12T08:36:13Z</time>
      </trkpt>
      <trkpt lat="44.50033" lon="1.2105">
        <ele>94.2</ele>
        <time>2026-07-12T08:36:14Z</time>
      </trkpt>
      <trkpt lat="44.50032" lon="1.21043">
        <ele>94.3</ele>
        <time>2026-07-12T08:36:15Z</time>
      </trkpt>
      <trkpt lat="44.50031" lon="1.21036">
        <ele>94.4</ele>
        <time>2026-07-12T08:36:16Z</time>
      </trkpt>
      <trkpt lat="44.50024" lon="1.20997">
        <ele>95</ele>
        <time>2026-07-12T08:36:21Z</time>
      </trkpt>
      <trkpt lat="44.5002" lon="1.20958">
        <ele>95.6</ele>
        <time>2026-07-12T08:36:26Z</time>
      </trkpt>
      <trkpt lat="44.50017" lon="1.2095">
        <ele>95.2</ele>
        <time>2026-07-12T08:36:27Z</time>
      </trkpt>
      <trkpt lat="44.50015" lon="1.20942">
        <ele>94.8</ele>
        <time>2026-07-12T08:36:28Z</time>
      </trkpt>
      <trkpt lat="44.50011" lon="1.20918">
        <ele>93.9</ele>
        <time>2026-07-12T08:36:31Z</time>
      </trkpt>
      <trkpt lat="44.50007" lon="1.20883">
        <ele>94</ele>
        <time>2026-07-12T08:36:35Z</time>
      </trkpt>
      <trkpt lat="44.50005" lon="1.20876">
        <ele>93.5</ele>
        <time>2026-07-12T08:36:36Z</time>
      </trkpt>
      <trkpt lat="44.50005" lon="1.20869">
        <ele>93.5</ele>
        <time>2026-07-12T08:36:37Z</time>
      </trkpt>
      <trkpt lat="44.50004" lon="1.20862">
        <ele>93.4</ele>
        <time>2026-07-12T08:36:38Z</time>
      </trkpt>
      <trkpt lat="44.5" lon="1.20842">
        <ele>92.8</ele>
        <time>2026-07-12T08:36:40Z</time>
      </trkpt>
      <trkpt lat="44.49997" lon="1.20825">
        <ele>92.8</ele>
        <time>2026-07-12T08:36:42Z</time>
      </trkpt>
      <trkpt lat="44.49996" lon="1.20817">
        <ele>93.1</ele>
        <time>2026-07-12T08:36:43Z</time>
      </trkpt>
      <trkpt lat="44.49994" lon="1.20807">
        <ele>93.3</ele>
        <time>2026-07-12T08:36:44Z</time>
      </trkpt>
      <trkpt lat="44.49987" lon="1.20779">
        <ele>92.9</ele>
        <time>2026-07-12T08:36:47Z</time>
      </trkpt>
      <trkpt lat="44.49986" lon="1.2077">
        <ele>92.5</ele>
        <time>2026-07-12T08:36:48Z</time>
      </trkpt>
      <trkpt lat="44.49984" lon="1.20762">
        <ele>92</ele>
        <time>2026-07-12T08:36:49Z</time>
      </trkpt>
      <trkpt lat="44.49983" lon="1.20747">
        <ele>92.1</ele>
        <time>2026-07-12T08:36:51Z</time>
      </trkpt>
      <trkpt lat="44.49982" lon="1.20739">
        <ele>92.3</ele>
        <time>2026-07-12T08:36:52Z</time>
      </trkpt>
      <trkpt lat="44.4998" lon="1.2073">
        <ele>92.4</ele>
        <time>2026-07-12T08:36:53Z</time>
      </trkpt>
      <trkpt lat="44.49975" lon="1.20706">
        <ele>91.1</ele>
        <time>2026-07-12T08:36:56Z</time>
      </trkpt>
      <trkpt lat="44.49974" lon="1.20698">
        <ele>90.8</ele>
        <time>2026-07-12T08:36:57Z</time>
      </trkpt>
      <trkpt lat="44.49973" lon="1.2069">
        <ele>90.7</ele>
        <time>2026-07-12T08:36:58Z</time>
      </trkpt>
      <trkpt lat="44.49972" lon="1.20683">
        <ele>90.8</ele>
        <time>2026-07-12T08:36:59Z</time>
      </trkpt>
      <trkpt lat="44.49971" lon="1.20675">
        <ele>91.1</ele>
        <time>2026-07-12T08:37:00Z</time>
      </trkpt>
      <trkpt lat="44.49966" lon="1.20646">
        <ele>92</ele>
        <time>2026-07-12T08:37:04Z</time>
      </trkpt>
      <trkpt lat="44.49965" lon="1.20638">
        <ele>92.2</ele>
        <time>2026-07-12T08:37:05Z</time>
      </trkpt>
      <trkpt lat="44.49964" lon="1.20631">
        <ele>91.9</ele>
        <time>2026-07-12T08:37:06Z</time>
      </trkpt>
      <trkpt lat="44.49963" lon="1.20623">
        <ele>91.6</ele>
        <time>2026-07-12T08:37:07Z</time>
      </trkpt>
      <trkpt lat="44.49961" lon="1.20615">
        <ele>91.1</ele>
        <time>2026-07-12T08:37:08Z</time>
      </trkpt>
      <trkpt lat="44.49957" lon="1.20599">
        <ele>91.2</ele>
        <time>2026-07-12T08:37:10Z</time>
      </trkpt>
      <trkpt lat="44.49953" lon="1.20584">
        <ele>91.5</ele>
        <time>2026-07-12T08:37:12Z</time>
      </trkpt>
      <trkpt lat="44.49947" lon="1.20554">
        <ele>92.5</ele>
        <time>2026-07-12T08:37:16Z</time>
      </trkpt>
      <trkpt lat="44.49946" lon="1.20547">
        <ele>92.6</ele>
        <time>2026-07-12T08:37:17Z</time>
      </trkpt>
      <trkpt lat="44.49944" lon="1.2054">
        <ele>92.5</ele>
        <time>2026-07-12T08:37:18Z</time>
      </trkpt>
      <trkpt lat="44.49942" lon="1.20533">
        <ele>92.4</ele>
        <time>2026-07-12T08:37:19Z</time>
      </trkpt>
      <trkpt lat="44.4994" lon="1.20527">
        <ele>92.2</ele>
        <time>2026-07-12T08:37:20Z</time>
      </trkpt>
      <trkpt lat="44.49939" lon="1.2052">
        <ele>92.1</ele>
        <time>2026-07-12T08:37:21Z</time>
      </trkpt>
      <trkpt lat="44.49936" lon="1.20503">
        <ele>91.7</ele>
        <time>2026-07-12T08:37:23Z</time>
      </trkpt>
      <trkpt lat="44.49933" lon="1.20495">
        <ele>91.3</ele>
        <time>2026-07-12T08:37:24Z</time>
      </trkpt>
      <trkpt lat="44.49925" lon="1.2047">
        <ele>91.5</ele>
        <time>2026-07-12T08:37:27Z</time>
      </trkpt>
      <trkpt lat="44.49926" lon="1.20463">
        <ele>92.3</ele>
        <time>2026-07-12T08:37:28Z</time>
      </trkpt>
      <trkpt lat="44.49927" lon="1.20459">
        <ele>92.9</ele>
        <time>2026-07-12T08:37:29Z</time>
      </trkpt>
      <trkpt lat="44.4993" lon="1.20456">
        <ele>93.4</ele>
        <time>2026-07-12T08:37:30Z</time>
      </trkpt>
      <trkpt lat="44.49933" lon="1.20455">
        <ele>93.7</ele>
        <time>2026-07-12T08:37:31Z</time>
      </trkpt>
      <trkpt lat="44.49938" lon="1.20456">
        <ele>94.1</ele>
        <time>2026-07-12T08:37:32Z</time>
      </trkpt>
      <trkpt lat="44.49942" lon="1.20456">
        <ele>94.4</ele>
        <time>2026-07-12T08:37:33Z</time>
      </trkpt>
      <trkpt lat="44.49946" lon="1.20456">
        <ele>95</ele>
        <time>2026-07-12T08:37:34Z</time>
      </trkpt>
      <trkpt lat="44.49954" lon="1.2045">
        <ele>97.3</ele>
        <time>2026-07-12T08:37:36Z</time>
      </trkpt>
      <trkpt lat="44.49958" lon="1.20446">
        <ele>98.3</ele>
        <time>2026-07-12T08:37:37Z</time>
      </trkpt>
      <trkpt lat="44.4996" lon="1.2044">
        <ele>99.1</ele>
        <time>2026-07-12T08:37:38Z</time>
      </trkpt>
      <trkpt lat="44.49962" lon="1.20434">
        <ele>99.6</ele>
        <time>2026-07-12T08:37:39Z</time>
      </trkpt>
      <trkpt lat="44.49962" lon="1.20428">
        <ele>100</ele>
        <time>2026-07-12T08:37:40Z</time>
      </trkpt>
      <trkpt lat="44.49962" lon="1.20421">
        <ele>100.2</ele>
        <time>2026-07-12T08:37:41Z</time>
      </trkpt>
      <trkpt lat="44.49962" lon="1.20414">
        <ele>100.3</ele>
        <time>2026-07-12T08:37:42Z</time>
      </trkpt>
      <trkpt lat="44.49961" lon="1.20407">
        <ele>100.5</ele>
        <time>2026-07-12T08:37:43Z</time>
      </trkpt>
      <trkpt lat="44.4996" lon="1.20401">
        <ele>100.7</ele>
        <time>2026-07-12T08:37:44Z</time>
      </trkpt>
      <trkpt lat="44.4996" lon="1.20394">
        <ele>100.8</ele>
        <time>2026-07-12T08:37:45Z</time>
      </trkpt>
      <trkpt lat="44.49958" lon="1.20387">
        <ele>100.5</ele>
        <time>2026-07-12T08:37:46Z</time>
      </trkpt>
      <trkpt lat="44.49957" lon="1.20381">
        <ele>100.3</ele>
        <time>2026-07-12T08:37:47Z</time>
      </trkpt>
      <trkpt lat="44.49956" lon="1.20374">
        <ele>100.1</ele>
        <time>2026-07-12T08:37:48Z</time>
      </trkpt>
      <trkpt lat="44.49955" lon="1.20368">
        <ele>99.9</ele>
        <time>2026-07-12T08:37:49Z</time>
      </trkpt>
      <trkpt lat="44.49954" lon="1.2036">
        <ele>99.9</ele>
        <time>2026-07-12T08:37:50Z</time>
      </trkpt>
      <trkpt lat="44.49953" lon="1.20354">
        <ele>100.1</ele>
        <time>2026-07-12T08:37:51Z</time>
      </trkpt>
      <trkpt lat="44.49952" lon="1.20347">
        <ele>100.1</ele>
        <time>2026-07-12T08:37:52Z</time>
      </trkpt>
      <trkpt lat="44.49951" lon="1.20341">
        <ele>100.4</ele>
        <time>2026-07-12T08:37:53Z</time>
      </trkpt>
      <trkpt lat="44.49949" lon="1.20334">
        <ele>100.5</ele>
        <time>2026-07-12T08:37:54Z</time>
      </trkpt>
      <trkpt lat="44.49948" lon="1.20328">
        <ele>100.7</ele>
        <time>2026-07-12T08:37:55Z</time>
      </trkpt>
      <trkpt lat="44.49946" lon="1.20321">
        <ele>101</ele>
        <time>2026-07-12T08:37:56Z</time>
      </trkpt>
      <trkpt lat="44.49945" lon="1.20315">
        <ele>101.1</ele>
        <time>2026-07-12T08:37:57Z</time>
      </trkpt>
      <trkpt lat="44.49942" lon="1.20309">
        <ele>101</ele>
        <time>2026-07-12T08:37:58Z</time>
      </trkpt>
      <trkpt lat="44.4994" lon="1.20303">
        <ele>100.9</ele>
        <time>2026-07-12T08:37:59Z</time>
      </trkpt>
      <trkpt lat="44.49939" lon="1.20297">
        <ele>100.7</ele>
        <time>2026-07-12T08:38:00Z</time>
      </trkpt>
      <trkpt lat="44.49938" lon="1.20292">
        <ele>100.8</ele>
        <time>2026-07-12T08:38:01Z</time>
      </trkpt>
      <trkpt lat="44.49938" lon="1.20286">
        <ele>101</ele>
        <time>2026-07-12T08:38:02Z</time>
      </trkpt>
      <trkpt lat="44.49938" lon="1.20282">
        <ele>101.3</ele>
        <time>2026-07-12T08:38:03Z</time>
      </trkpt>
      <trkpt lat="44.49939" lon="1.20277">
        <ele>101.7</ele>
        <time>2026-07-12T08:38:04Z</time>
      </trkpt>
      <trkpt lat="44.4994" lon="1.20273">
        <ele>102.5</ele>
        <time>2026-07-12T08:38:05Z</time>
      </trkpt>
      <trkpt lat="44.4994" lon="1.20267">
        <ele>103.1</ele>
        <time>2026-07-12T08:38:06Z</time>
      </trkpt>
      <trkpt lat="44.49939" lon="1.20261">
        <ele>103.6</ele>
        <time>2026-07-12T08:38:07Z</time>
      </trkpt>
      <trkpt lat="44.49937" lon="1.20256">
        <ele>103.6</ele>
        <time>2026-07-12T08:38:08Z</time>
      </trkpt>
      <trkpt lat="44.49934" lon="1.20248">
        <ele>103.6</ele>
        <time>2026-07-12T08:38:09Z</time>
      </trkpt>
      <trkpt lat="44.49932" lon="1.20241">
        <ele>103.4</ele>
        <time>2026-07-12T08:38:10Z</time>
      </trkpt>
      <trkpt lat="44.49929" lon="1.20233">
        <ele>103.3</ele>
        <time>2026-07-12T08:38:11Z</time>
      </trkpt>
      <trkpt lat="44.49927" lon="1.20226">
        <ele>103.3</ele>
        <time>2026-07-12T08:38:12Z</time>
      </trkpt>
      <trkpt lat="44.49925" lon="1.2022">
        <ele>103.3</ele>
        <time>2026-07-12T08:38:13Z</time>
      </trkpt>
      <trkpt lat="44.49923" lon="1.20213">
        <ele>103.4</ele>
        <time>2026-07-12T08:38:14Z</time>
      </trkpt>
      <trkpt lat="44.49922" lon="1.20206">
        <ele>103.3</ele>
        <time>2026-07-12T08:38:15Z</time>
      </trkpt>
      <trkpt lat="44.4992" lon="1.20199">
        <ele>103.2</ele>
        <time>2026-07-12T08:38:16Z</time>
      </trkpt>
      <trkpt lat="44.49918" lon="1.20192">
        <ele>103</ele>
        <time>2026-07-12T08:38:17Z</time>
      </trkpt>
      <trkpt lat="44.49917" lon="1.20186">
        <ele>102.9</ele>
        <time>2026-07-12T08:38:18Z</time>
      </trkpt>
      <trkpt lat="44.49915" lon="1.2018">
        <ele>103.1</ele>
        <time>2026-07-12T08:38:19Z</time>
      </trkpt>
      <trkpt lat="44.49914" lon="1.20174">
        <ele>103.2</ele>
        <time>2026-07-12T08:38:20Z</time>
      </trkpt>
      <trkpt lat="44.49913" lon="1.20168">
        <ele>103.4</ele>
        <time>2026-07-12T08:38:21Z</time>
      </trkpt>
      <trkpt lat="44.49912" lon="1.20162">
        <ele>103.8</ele>
        <time>2026-07-12T08:38:22Z</time>
      </trkpt>
      <trkpt lat="44.4991" lon="1.20156">
        <ele>104.1</ele>
        <time>2026-07-12T08:38:23Z</time>
      </trkpt>
      <trkpt lat="44.49909" lon="1.2015">
        <ele>104.2</ele>
        <time>2026-07-12T08:38:24Z</time>
      </trkpt>
      <trkpt lat="44.49907" lon="1.20144">
        <ele>104.2</ele>
        <time>2026-07-12T08:38:25Z</time>
      </trkpt>
      <trkpt lat="44.49905" lon="1.20138">
        <ele>104</ele>
        <time>2026-07-12T08:38:26Z</time>
      </trkpt>
      <trkpt lat="44.49904" lon="1.20132">
        <ele>103.9</ele>
        <time>2026-07-12T08:38:27Z</time>
      </trkpt>
      <trkpt lat="44.49902" lon="1.20126">
        <ele>103.8</ele>
        <time>2026-07-12T08:38:28Z</time>
      </trkpt>
      <trkpt lat="44.499" lon="1.2012">
        <ele>103.7</ele>
        <time>2026-07-12T08:38:29Z</time>
      </trkpt>
      <trkpt lat="44.49899" lon="1.20113">
        <ele>103.7</ele>
        <time>2026-07-12T08:38:30Z</time>
      </trkpt>
      <trkpt lat="44.4989" lon="1.20077">
        <ele>103.6</ele>
        <time>2026-07-12T08:38:35Z</time>
      </trkpt>
      <trkpt lat="44.49881" lon="1.20047">
        <ele>105.6</ele>
        <time>2026-07-12T08:38:39Z</time>
      </trkpt>
      <trkpt lat="44.49874" lon="1.20025">
        <ele>105.8</ele>
        <time>2026-07-12T08:38:42Z</time>
      </trkpt>
      <trkpt lat="44.49864" lon="1.19996">
        <ele>105</ele>
        <time>2026-07-12T08:38:46Z</time>
      </trkpt>
      <trkpt lat="44.49862" lon="1.19989">
        <ele>105.1</ele>
        <time>2026-07-12T08:38:47Z</time>
      </trkpt>
      <trkpt lat="44.49857" lon="1.19976">
        <ele>105</ele>
        <time>2026-07-12T08:38:49Z</time>
      </trkpt>
      <trkpt lat="44.49854" lon="1.1997">
        <ele>105</ele>
        <time>2026-07-12T08:38:50Z</time>
      </trkpt>
      <trkpt lat="44.49845" lon="1.19948">
        <ele>106.5</ele>
        <time>2026-07-12T08:38:53Z</time>
      </trkpt>
      <trkpt lat="44.49843" lon="1.19941">
        <ele>106.3</ele>
        <time>2026-07-12T08:38:54Z</time>
      </trkpt>
      <trkpt lat="44.4984" lon="1.19935">
        <ele>105.8</ele>
        <time>2026-07-12T08:38:55Z</time>
      </trkpt>
      <trkpt lat="44.49837" lon="1.19928">
        <ele>105.2</ele>
        <time>2026-07-12T08:38:56Z</time>
      </trkpt>
      <trkpt lat="44.49817" lon="1.19881">
        <ele>105.6</ele>
        <time>2026-07-12T08:39:03Z</time>
      </trkpt>
      <trkpt lat="44.49807" lon="1.19862">
        <ele>105.4</ele>
        <time>2026-07-12T08:39:06Z</time>
      </trkpt>
      <trkpt lat="44.49798" lon="1.19843">
        <ele>104.7</ele>
        <time>2026-07-12T08:39:09Z</time>
      </trkpt>
      <trkpt lat="44.49792" lon="1.19829">
        <ele>105.1</ele>
        <time>2026-07-12T08:39:11Z</time>
      </trkpt>
      <trkpt lat="44.49789" lon="1.19822">
        <ele>105.9</ele>
        <time>2026-07-12T08:39:12Z</time>
      </trkpt>
      <trkpt lat="44.49786" lon="1.19815">
        <ele>106.9</ele>
        <time>2026-07-12T08:39:13Z</time>
      </trkpt>
      <trkpt lat="44.49778" lon="1.19795">
        <ele>106.7</ele>
        <time>2026-07-12T08:39:16Z</time>
      </trkpt>
      <trkpt lat="44.49767" lon="1.19776">
        <ele>104.8</ele>
        <time>2026-07-12T08:39:19Z</time>
      </trkpt>
      <trkpt lat="44.49755" lon="1.1975">
        <ele>107.6</ele>
        <time>2026-07-12T08:39:23Z</time>
      </trkpt>
      <trkpt lat="44.49752" lon="1.19744">
        <ele>107.4</ele>
        <time>2026-07-12T08:39:24Z</time>
      </trkpt>
      <trkpt lat="44.49747" lon="1.19733">
        <ele>106.5</ele>
        <time>2026-07-12T08:39:26Z</time>
      </trkpt>
      <trkpt lat="44.49744" lon="1.19727">
        <ele>105.9</ele>
        <time>2026-07-12T08:39:27Z</time>
      </trkpt>
      <trkpt lat="44.49741" lon="1.19721">
        <ele>105.7</ele>
        <time>2026-07-12T08:39:28Z</time>
      </trkpt>
      <trkpt lat="44.49739" lon="1.19714">
        <ele>106.9</ele>
        <time>2026-07-12T08:39:29Z</time>
      </trkpt>
      <trkpt lat="44.49731" lon="1.19684">
        <ele>109.5</ele>
        <time>2026-07-12T08:39:33Z</time>
      </trkpt>
      <trkpt lat="44.49725" lon="1.19662">
        <ele>110</ele>
        <time>2026-07-12T08:39:36Z</time>
      </trkpt>
      <trkpt lat="44.4972" lon="1.19632">
        <ele>109.5</ele>
        <time>2026-07-12T08:39:40Z</time>
      </trkpt>
      <trkpt lat="44.49719" lon="1.19624">
        <ele>110.5</ele>
        <time>2026-07-12T08:39:41Z</time>
      </trkpt>
      <trkpt lat="44.49718" lon="1.19617">
        <ele>111.4</ele>
        <time>2026-07-12T08:39:42Z</time>
      </trkpt>
      <trkpt lat="44.49717" lon="1.19611">
        <ele>112.2</ele>
        <time>2026-07-12T08:39:43Z</time>
      </trkpt>
      <trkpt lat="44.49715" lon="1.19606">
        <ele>112.4</ele>
        <time>2026-07-12T08:39:44Z</time>
      </trkpt>
      <trkpt lat="44.49713" lon="1.19601">
        <ele>112.6</ele>
        <time>2026-07-12T08:39:45Z</time>
      </trkpt>
      <trkpt lat="44.49712" lon="1.19596">
        <ele>112.8</ele>
        <time>2026-07-12T08:39:46Z</time>
      </trkpt>
      <trkpt lat="44.49711" lon="1.19591">
        <ele>113.1</ele>
        <time>2026-07-12T08:39:47Z</time>
      </trkpt>
      <trkpt lat="44.4971" lon="1.19571">
        <ele>114.8</ele>
        <time>2026-07-12T08:39:51Z</time>
      </trkpt>
      <trkpt lat="44.49709" lon="1.19565">
        <ele>115.2</ele>
        <time>2026-07-12T08:39:52Z</time>
      </trkpt>
      <trkpt lat="44.49709" lon="1.1956">
        <ele>115.7</ele>
        <time>2026-07-12T08:39:53Z</time>
      </trkpt>
      <trkpt lat="44.49709" lon="1.19554">
        <ele>116.1</ele>
        <time>2026-07-12T08:39:54Z</time>
      </trkpt>
      <trkpt lat="44.49709" lon="1.19548">
        <ele>116.3</ele>
        <time>2026-07-12T08:39:55Z</time>
      </trkpt>
      <trkpt lat="44.49709" lon="1.19543">
        <ele>116.5</ele>
        <time>2026-07-12T08:39:56Z</time>
      </trkpt>
      <trkpt lat="44.49709" lon="1.19538">
        <ele>116.7</ele>
        <time>2026-07-12T08:39:57Z</time>
      </trkpt>
      <trkpt lat="44.49709" lon="1.19532">
        <ele>116.9</ele>
        <time>2026-07-12T08:39:58Z</time>
      </trkpt>
      <trkpt lat="44.49709" lon="1.19526">
        <ele>117.1</ele>
        <time>2026-07-12T08:39:59Z</time>
      </trkpt>
      <trkpt lat="44.49709" lon="1.1952">
        <ele>117.4</ele>
        <time>2026-07-12T08:40:00Z</time>
      </trkpt>
      <trkpt lat="44.49708" lon="1.19515">
        <ele>117.7</ele>
        <time>2026-07-12T08:40:01Z</time>
      </trkpt>
      <trkpt lat="44.49707" lon="1.1951">
        <ele>117.9</ele>
        <time>2026-07-12T08:40:02Z</time>
      </trkpt>
      <trkpt lat="44.49706" lon="1.19505">
        <ele>118.1</ele>
        <time>2026-07-12T08:40:03Z</time>
      </trkpt>
      <trkpt lat="44.49704" lon="1.195">
        <ele>118.3</ele>
        <time>2026-07-12T08:40:04Z</time>
      </trkpt>
      <trkpt lat="44.49702" lon="1.19496">
        <ele>118.4</ele>
        <time>2026-07-12T08:40:05Z</time>
      </trkpt>
      <trkpt lat="44.497" lon="1.19491">
        <ele>118.4</ele>
        <time>2026-07-12T08:40:06Z</time>
      </trkpt>
      <trkpt lat="44.49698" lon="1.19487">
        <ele>118.5</ele>
        <time>2026-07-12T08:40:07Z</time>
      </trkpt>
      <trkpt lat="44.49697" lon="1.19482">
        <ele>118.6</ele>
        <time>2026-07-12T08:40:08Z</time>
      </trkpt>
      <trkpt lat="44.49697" lon="1.19478">
        <ele>118.8</ele>
        <time>2026-07-12T08:40:09Z</time>
      </trkpt>
      <trkpt lat="44.49698" lon="1.19474">
        <ele>118.8</ele>
        <time>2026-07-12T08:40:10Z</time>
      </trkpt>
      <trkpt lat="44.49699" lon="1.19472">
        <ele>118.8</ele>
        <time>2026-07-12T08:40:11Z</time>
      </trkpt>
      <trkpt lat="44.497" lon="1.19472">
        <ele>118.8</ele>
        <time>2026-07-12T08:40:12Z</time>
      </trkpt>
      <trkpt lat="44.49703" lon="1.19471">
        <ele>118.7</ele>
        <time>2026-07-12T08:40:13Z</time>
      </trkpt>
      <trkpt lat="44.49705" lon="1.19469">
        <ele>118.5</ele>
        <time>2026-07-12T08:40:14Z</time>
      </trkpt>
      <trkpt lat="44.49709" lon="1.19466">
        <ele>118.4</ele>
        <time>2026-07-12T08:40:15Z</time>
      </trkpt>
      <trkpt lat="44.49712" lon="1.19464">
        <ele>118.3</ele>
        <time>2026-07-12T08:40:16Z</time>
      </trkpt>
      <trkpt lat="44.49717" lon="1.19459">
        <ele>118.1</ele>
        <time>2026-07-12T08:40:17Z</time>
      </trkpt>
      <trkpt lat="44.4972" lon="1.19455">
        <ele>118</ele>
        <time>2026-07-12T08:40:18Z</time>
      </trkpt>
      <trkpt lat="44.49722" lon="1.19449">
        <ele>118</ele>
        <time>2026-07-12T08:40:19Z</time>
      </trkpt>
      <trkpt lat="44.49724" lon="1.19443">
        <ele>117.9</ele>
        <time>2026-07-12T08:40:20Z</time>
      </trkpt>
      <trkpt lat="44.49726" lon="1.19437">
        <ele>117.6</ele>
        <time>2026-07-12T08:40:21Z</time>
      </trkpt>
      <trkpt lat="44.49726" lon="1.19429">
        <ele>117.4</ele>
        <time>2026-07-12T08:40:22Z</time>
      </trkpt>
      <trkpt lat="44.49728" lon="1.19422">
        <ele>117.1</ele>
        <time>2026-07-12T08:40:23Z</time>
      </trkpt>
      <trkpt lat="44.49729" lon="1.19414">
        <ele>116.9</ele>
        <time>2026-07-12T08:40:24Z</time>
      </trkpt>
      <trkpt lat="44.49731" lon="1.19406">
        <ele>116.6</ele>
        <time>2026-07-12T08:40:25Z</time>
      </trkpt>
      <trkpt lat="44.49734" lon="1.19396">
        <ele>116.3</ele>
        <time>2026-07-12T08:40:26Z</time>
      </trkpt>
      <trkpt lat="44.49737" lon="1.19386">
        <ele>115.9</ele>
        <time>2026-07-12T08:40:27Z</time>
      </trkpt>
      <trkpt lat="44.49741" lon="1.19374">
        <ele>115.1</ele>
        <time>2026-07-12T08:40:28Z</time>
      </trkpt>
      <trkpt lat="44.49745" lon="1.19361">
        <ele>113.7</ele>
        <time>2026-07-12T08:40:29Z</time>
      </trkpt>
      <trkpt lat="44.4975" lon="1.1935">
        <ele>113.1</ele>
        <time>2026-07-12T08:40:30Z</time>
      </trkpt>
      <trkpt lat="44.49754" lon="1.1934">
        <ele>113.4</ele>
        <time>2026-07-12T08:40:31Z</time>
      </trkpt>
      <trkpt lat="44.49758" lon="1.1933">
        <ele>114</ele>
        <time>2026-07-12T08:40:32Z</time>
      </trkpt>
      <trkpt lat="44.49763" lon="1.19321">
        <ele>114.5</ele>
        <time>2026-07-12T08:40:33Z</time>
      </trkpt>
      <trkpt lat="44.49768" lon="1.19313">
        <ele>114.3</ele>
        <time>2026-07-12T08:40:34Z</time>
      </trkpt>
      <trkpt lat="44.49772" lon="1.19306">
        <ele>113.7</ele>
        <time>2026-07-12T08:40:35Z</time>
      </trkpt>
      <trkpt lat="44.49776" lon="1.19299">
        <ele>113.6</ele>
        <time>2026-07-12T08:40:36Z</time>
      </trkpt>
      <trkpt lat="44.4978" lon="1.19292">
        <ele>114.1</ele>
        <time>2026-07-12T08:40:37Z</time>
      </trkpt>
      <trkpt lat="44.49784" lon="1.19287">
        <ele>114.5</ele>
        <time>2026-07-12T08:40:38Z</time>
      </trkpt>
      <trkpt lat="44.49789" lon="1.19279">
        <ele>114.9</ele>
        <time>2026-07-12T08:40:39Z</time>
      </trkpt>
      <trkpt lat="44.49801" lon="1.19261">
        <ele>114</ele>
        <time>2026-07-12T08:40:42Z</time>
      </trkpt>
      <trkpt lat="44.49805" lon="1.19256">
        <ele>113.4</ele>
        <time>2026-07-12T08:40:43Z</time>
      </trkpt>
      <trkpt lat="44.4981" lon="1.1925">
        <ele>113.2</ele>
        <time>2026-07-12T08:40:44Z</time>
      </trkpt>
      <trkpt lat="44.49814" lon="1.19245">
        <ele>113.4</ele>
        <time>2026-07-12T08:40:45Z</time>
      </trkpt>
      <trkpt lat="44.49819" lon="1.1924">
        <ele>113.5</ele>
        <time>2026-07-12T08:40:46Z</time>
      </trkpt>
      <trkpt lat="44.49824" lon="1.19235">
        <ele>113.3</ele>
        <time>2026-07-12T08:40:47Z</time>
      </trkpt>
      <trkpt lat="44.49843" lon="1.19215">
        <ele>112.4</ele>
        <time>2026-07-12T08:40:51Z</time>
      </trkpt>
      <trkpt lat="44.4989" lon="1.19164">
        <ele>112</ele>
        <time>2026-07-12T08:41:01Z</time>
      </trkpt>
      <trkpt lat="44.49895" lon="1.19159">
        <ele>112.1</ele>
        <time>2026-07-12T08:41:02Z</time>
      </trkpt>
      <trkpt lat="44.4991" lon="1.19143">
        <ele>111.5</ele>
        <time>2026-07-12T08:41:05Z</time>
      </trkpt>
      <trkpt lat="44.49925" lon="1.19128">
        <ele>111.8</ele>
        <time>2026-07-12T08:41:08Z</time>
      </trkpt>
      <trkpt lat="44.49965" lon="1.19086">
        <ele>111.6</ele>
        <time>2026-07-12T08:41:16Z</time>
      </trkpt>
      <trkpt lat="44.4997" lon="1.19082">
        <ele>111.3</ele>
        <time>2026-07-12T08:41:17Z</time>
      </trkpt>
      <trkpt lat="44.50009" lon="1.19042">
        <ele>112</ele>
        <time>2026-07-12T08:41:25Z</time>
      </trkpt>
      <trkpt lat="44.50018" lon="1.19031">
        <ele>111.8</ele>
        <time>2026-07-12T08:41:27Z</time>
      </trkpt>
      <trkpt lat="44.50031" lon="1.19015">
        <ele>111.5</ele>
        <time>2026-07-12T08:41:30Z</time>
      </trkpt>
      <trkpt lat="44.50036" lon="1.1901">
        <ele>111.7</ele>
        <time>2026-07-12T08:41:31Z</time>
      </trkpt>
      <trkpt lat="44.5004" lon="1.19006">
        <ele>111.6</ele>
        <time>2026-07-12T08:41:32Z</time>
      </trkpt>
      <trkpt lat="44.50044" lon="1.19001">
        <ele>111.4</ele>
        <time>2026-07-12T08:41:33Z</time>
      </trkpt>
      <trkpt lat="44.50048" lon="1.18995">
        <ele>111.1</ele>
        <time>2026-07-12T08:41:34Z</time>
      </trkpt>
      <trkpt lat="44.50053" lon="1.1899">
        <ele>110.7</ele>
        <time>2026-07-12T08:41:35Z</time>
      </trkpt>
      <trkpt lat="44.50063" lon="1.18981">
        <ele>110.6</ele>
        <time>2026-07-12T08:41:37Z</time>
      </trkpt>
      <trkpt lat="44.50084" lon="1.18961">
        <ele>110.6</ele>
        <time>2026-07-12T08:41:41Z</time>
      </trkpt>
      <trkpt lat="44.50104" lon="1.18936">
        <ele>110.4</ele>
        <time>2026-07-12T08:41:45Z</time>
      </trkpt>
      <trkpt lat="44.50132" lon="1.18894">
        <ele>108.7</ele>
        <time>2026-07-12T08:41:51Z</time>
      </trkpt>
      <trkpt lat="44.5014" lon="1.1888">
        <ele>107.7</ele>
        <time>2026-07-12T08:41:53Z</time>
      </trkpt>
      <trkpt lat="44.50144" lon="1.18876">
        <ele>107.7</ele>
        <time>2026-07-12T08:41:54Z</time>
      </trkpt>
      <trkpt lat="44.50147" lon="1.18874">
        <ele>107.7</ele>
        <time>2026-07-12T08:41:55Z</time>
      </trkpt>
      <trkpt lat="44.50151" lon="1.18872">
        <ele>107.8</ele>
        <time>2026-07-12T08:41:56Z</time>
      </trkpt>
      <trkpt lat="44.50153" lon="1.1887">
        <ele>107.8</ele>
        <time>2026-07-12T08:41:57Z</time>
      </trkpt>
      <trkpt lat="44.50155" lon="1.18868">
        <ele>107.8</ele>
        <time>2026-07-12T08:41:58Z</time>
      </trkpt>
      <trkpt lat="44.50155" lon="1.18865">
        <ele>107.7</ele>
        <time>2026-07-12T08:41:59Z</time>
      </trkpt>
      <trkpt lat="44.50155" lon="1.18863">
        <ele>107.6</ele>
        <time>2026-07-12T08:42:00Z</time>
      </trkpt>
      <trkpt lat="44.50154" lon="1.1886">
        <ele>107.6</ele>
        <time>2026-07-12T08:42:01Z</time>
      </trkpt>
      <trkpt lat="44.50153" lon="1.18857">
        <ele>107.5</ele>
        <time>2026-07-12T08:42:02Z</time>
      </trkpt>
      <trkpt lat="44.50151" lon="1.18855">
        <ele>107.5</ele>
        <time>2026-07-12T08:42:03Z</time>
      </trkpt>
      <trkpt lat="44.50149" lon="1.18853">
        <ele>107.4</ele>
        <time>2026-07-12T08:42:04Z</time>
      </trkpt>
      <trkpt lat="44.50148" lon="1.18852">
        <ele>107.4</ele>
        <time>2026-07-12T08:42:05Z</time>
      </trkpt>
      <trkpt lat="44.50149" lon="1.18847">
        <ele>107.5</ele>
        <time>2026-07-12T08:42:07Z</time>
      </trkpt>
      <trkpt lat="44.50151" lon="1.18842">
        <ele>107.5</ele>
        <time>2026-07-12T08:42:09Z</time>
      </trkpt>
      <trkpt lat="44.50152" lon="1.1884">
        <ele>107.5</ele>
        <time>2026-07-12T08:42:10Z</time>
      </trkpt>
      <trkpt lat="44.50154" lon="1.1884">
        <ele>107.5</ele>
        <time>2026-07-12T08:42:11Z</time>
      </trkpt>
      <trkpt lat="44.50157" lon="1.18841">
        <ele>107.4</ele>
        <time>2026-07-12T08:42:12Z</time>
      </trkpt>
      <trkpt lat="44.50163" lon="1.18844">
        <ele>107.4</ele>
        <time>2026-07-12T08:42:14Z</time>
      </trkpt>
      <trkpt lat="44.50167" lon="1.18845">
        <ele>107.4</ele>
        <time>2026-07-12T08:42:15Z</time>
      </trkpt>
      <trkpt lat="44.5017" lon="1.18845">
        <ele>107.4</ele>
        <time>2026-07-12T08:42:16Z</time>
      </trkpt>
      <trkpt lat="44.50174" lon="1.18843">
        <ele>107.4</ele>
        <time>2026-07-12T08:42:17Z</time>
      </trkpt>
      <trkpt lat="44.50178" lon="1.18841">
        <ele>107.3</ele>
        <time>2026-07-12T08:42:18Z</time>
      </trkpt>
      <trkpt lat="44.50182" lon="1.1884">
        <ele>107.2</ele>
        <time>2026-07-12T08:42:19Z</time>
      </trkpt>
      <trkpt lat="44.50189" lon="1.18839">
        <ele>107.2</ele>
        <time>2026-07-12T08:42:20Z</time>
      </trkpt>
      <trkpt lat="44.50206" lon="1.18836">
        <ele>106.7</ele>
        <time>2026-07-12T08:42:23Z</time>
      </trkpt>
      <trkpt lat="44.50218" lon="1.1883">
        <ele>106.1</ele>
        <time>2026-07-12T08:42:25Z</time>
      </trkpt>
      <trkpt lat="44.50229" lon="1.18824">
        <ele>106</ele>
        <time>2026-07-12T08:42:27Z</time>
      </trkpt>
      <trkpt lat="44.50251" lon="1.18816">
        <ele>106</ele>
        <time>2026-07-12T08:42:31Z</time>
      </trkpt>
      <trkpt lat="44.50268" lon="1.18809">
        <ele>105.9</ele>
        <time>2026-07-12T08:42:34Z</time>
      </trkpt>
      <trkpt lat="44.50275" lon="1.18805">
        <ele>106</ele>
        <time>2026-07-12T08:42:35Z</time>
      </trkpt>
      <trkpt lat="44.50286" lon="1.188">
        <ele>105.7</ele>
        <time>2026-07-12T08:42:37Z</time>
      </trkpt>
      <trkpt lat="44.50303" lon="1.18793">
        <ele>105.5</ele>
        <time>2026-07-12T08:42:40Z</time>
      </trkpt>
      <trkpt lat="44.50308" lon="1.18791">
        <ele>105.6</ele>
        <time>2026-07-12T08:42:41Z</time>
      </trkpt>
      <trkpt lat="44.5033" lon="1.18785">
        <ele>106</ele>
        <time>2026-07-12T08:42:45Z</time>
      </trkpt>
      <trkpt lat="44.50335" lon="1.18784">
        <ele>106</ele>
        <time>2026-07-12T08:42:46Z</time>
      </trkpt>
      <trkpt lat="44.50341" lon="1.18782">
        <ele>106</ele>
        <time>2026-07-12T08:42:47Z</time>
      </trkpt>
      <trkpt lat="44.50344" lon="1.18781">
        <ele>106</ele>
        <time>2026-07-12T08:42:48Z</time>
      </trkpt>
      <trkpt lat="44.50349" lon="1.1878">
        <ele>106</ele>
        <time>2026-07-12T08:42:49Z</time>
      </trkpt>
      <trkpt lat="44.50353" lon="1.1878">
        <ele>106</ele>
        <time>2026-07-12T08:42:50Z</time>
      </trkpt>
      <trkpt lat="44.50356" lon="1.18782">
        <ele>106</ele>
        <time>2026-07-12T08:42:51Z</time>
      </trkpt>
      <trkpt lat="44.50359" lon="1.18784">
        <ele>106</ele>
        <time>2026-07-12T08:42:52Z</time>
      </trkpt>
      <trkpt lat="44.50362" lon="1.18786">
        <ele>106</ele>
        <time>2026-07-12T08:42:53Z</time>
      </trkpt>
      <trkpt lat="44.50365" lon="1.18787">
        <ele>106.1</ele>
        <time>2026-07-12T08:42:54Z</time>
      </trkpt>
      <trkpt lat="44.50367" lon="1.18787">
        <ele>106.2</ele>
        <time>2026-07-12T08:42:55Z</time>
      </trkpt>
      <trkpt lat="44.50369" lon="1.18788">
        <ele>106.3</ele>
        <time>2026-07-12T08:42:56Z</time>
      </trkpt>
      <trkpt lat="44.5037" lon="1.18789">
        <ele>106.3</ele>
        <time>2026-07-12T08:42:57Z</time>
      </trkpt>
      <trkpt lat="44.5037" lon="1.18791">
        <ele>106.3</ele>
        <time>2026-07-12T08:42:58Z</time>
      </trkpt>
      <trkpt lat="44.5037" lon="1.18798">
        <ele>106.3</ele>
        <time>2026-07-12T08:43:00Z</time>
      </trkpt>
      <trkpt lat="44.50371" lon="1.18803">
        <ele>106.3</ele>
        <time>2026-07-12T08:43:01Z</time>
      </trkpt>
      <trkpt lat="44.50371" lon="1.18829">
        <ele>106.1</ele>
        <time>2026-07-12T08:43:06Z</time>
      </trkpt>
      <trkpt lat="44.50373" lon="1.18843">
        <ele>106.1</ele>
        <time>2026-07-12T08:43:09Z</time>
      </trkpt>
      <trkpt lat="44.50375" lon="1.18846">
        <ele>106.2</ele>
        <time>2026-07-12T08:43:10Z</time>
      </trkpt>
      <trkpt lat="44.50386" lon="1.18851">
        <ele>106.6</ele>
        <time>2026-07-12T08:43:13Z</time>
      </trkpt>
      <trkpt lat="44.50391" lon="1.18852">
        <ele>106.7</ele>
        <time>2026-07-12T08:43:14Z</time>
      </trkpt>
      <trkpt lat="44.50395" lon="1.18852">
        <ele>106.7</ele>
        <time>2026-07-12T08:43:15Z</time>
      </trkpt>
      <trkpt lat="44.50404" lon="1.18853">
        <ele>106.9</ele>
        <time>2026-07-12T08:43:17Z</time>
      </trkpt>
      <trkpt lat="44.50408" lon="1.18854">
        <ele>106.9</ele>
        <time>2026-07-12T08:43:18Z</time>
      </trkpt>
      <trkpt lat="44.50412" lon="1.18854">
        <ele>107</ele>
        <time>2026-07-12T08:43:19Z</time>
      </trkpt>
      <trkpt lat="44.50418" lon="1.1885">
        <ele>107.1</ele>
        <time>2026-07-12T08:43:21Z</time>
      </trkpt>
      <trkpt lat="44.50421" lon="1.18847">
        <ele>107.2</ele>
        <time>2026-07-12T08:43:22Z</time>
      </trkpt>
      <trkpt lat="44.50424" lon="1.18844">
        <ele>107.3</ele>
        <time>2026-07-12T08:43:23Z</time>
      </trkpt>
      <trkpt lat="44.50427" lon="1.18843">
        <ele>107.4</ele>
        <time>2026-07-12T08:43:24Z</time>
      </trkpt>
      <trkpt lat="44.5043" lon="1.18842">
        <ele>107.5</ele>
        <time>2026-07-12T08:43:25Z</time>
      </trkpt>
      <trkpt lat="44.50434" lon="1.18842">
        <ele>107.6</ele>
        <time>2026-07-12T08:43:26Z</time>
      </trkpt>
      <trkpt lat="44.50437" lon="1.18841">
        <ele>107.7</ele>
        <time>2026-07-12T08:43:27Z</time>
      </trkpt>
      <trkpt lat="44.50447" lon="1.18842">
        <ele>108.1</ele>
        <time>2026-07-12T08:43:29Z</time>
      </trkpt>
      <trkpt lat="44.50455" lon="1.18839">
        <ele>108.4</ele>
        <time>2026-07-12T08:43:31Z</time>
      </trkpt>
      <trkpt lat="44.50459" lon="1.18837">
        <ele>108.5</ele>
        <time>2026-07-12T08:43:32Z</time>
      </trkpt>
      <trkpt lat="44.50462" lon="1.18834">
        <ele>108.6</ele>
        <time>2026-07-12T08:43:33Z</time>
      </trkpt>
      <trkpt lat="44.50481" lon="1.18811">
        <ele>109</ele>
        <time>2026-07-12T08:43:43Z</time>
      </trkpt>
      <trkpt lat="44.50487" lon="1.18809">
        <ele>109</ele>
        <time>2026-07-12T08:43:45Z</time>
      </trkpt>
      <trkpt lat="44.50491" lon="1.18809">
        <ele>109</ele>
        <time>2026-07-12T08:43:46Z</time>
      </trkpt>
      <trkpt lat="44.50495" lon="1.1881">
        <ele>109</ele>
        <time>2026-07-12T08:43:47Z</time>
      </trkpt>
      <trkpt lat="44.505" lon="1.18811">
        <ele>109</ele>
        <time>2026-07-12T08:43:48Z</time>
      </trkpt>
      <trkpt lat="44.50504" lon="1.18814">
        <ele>109</ele>
        <time>2026-07-12T08:43:49Z</time>
      </trkpt>
      <trkpt lat="44.50517" lon="1.18821">
        <ele>109</ele>
        <time>2026-07-12T08:43:52Z</time>
      </trkpt>
      <trkpt lat="44.50522" lon="1.18823">
        <ele>109</ele>
        <time>2026-07-12T08:43:53Z</time>
      </trkpt>
      <trkpt lat="44.50544" lon="1.18835">
        <ele>109</ele>
        <time>2026-07-12T08:43:58Z</time>
      </trkpt>
      <trkpt lat="44.50677" lon="1.18894">
        <ele>109.5</ele>
      </trkpt>
      <trkpt lat="44.50676" lon="1.18928">
        <ele>108.7</ele>
      </trkpt>
      <trkpt lat="44.5069" lon="1.18967">
        <ele>109</ele>
        <time>2026-07-12T08:45:01Z</time>
      </trkpt>
      <trkpt lat="44.50691" lon="1.18971">
        <ele>109</ele>
        <time>2026-07-12T08:45:02Z</time>
      </trkpt>
      <trkpt lat="44.50692" lon="1.18975">
        <ele>109</ele>
        <time>2026-07-12T08:45:03Z</time>
      </trkpt>
      <trkpt lat="44.50692" lon="1.18978">
        <ele>109</ele>
        <time>2026-07-12T08:45:04Z</time>
      </trkpt>
      <trkpt lat="44.50692" lon="1.18981">
        <ele>109</ele>
        <time>2026-07-12T08:45:05Z</time>
      </trkpt>
      <trkpt lat="44.50692" lon="1.18983">
        <ele>109</ele>
        <time>2026-07-12T08:45:06Z</time>
      </trkpt>
      <trkpt lat="44.50692" lon="1.18984">
        <ele>109</ele>
        <time>2026-07-12T08:45:07Z</time>
      </trkpt>
      <trkpt lat="44.50692" lon="1.18986">
        <ele>109</ele>
        <time>2026-07-12T08:45:08Z</time>
      </trkpt>
      <trkpt lat="44.50692" lon="1.18986">
        <ele>109</ele>
        <time>2026-07-12T08:45:09Z</time>
      </trkpt>
      <trkpt lat="44.50692" lon="1.18986">
        <ele>109</ele>
        <time>2026-07-12T08:45:11Z</time>
      </trkpt>
    </trkseg>
  </trk>
</gpx>